<?xml version="1.0" encoding="utf-8"?>
<gpx xmlns:xsi="http://www.w3.org/2001/XMLSchema-instance" xmlns:xsd="http://www.w3.org/2001/XMLSchema" version="1.1" creator="Shapelink.com" xmlns="http://www.topografix.com/GPX/1/1" xmlns:gpxtpx="http://www.garmin.com/xmlschemas/TrackPointExtension/v1">
  <metadata>
    <name>Sykling 44.77 km, 2013-06-02</name>
    <desc></desc>
    <author><name>Mikael Blom</name></author> 
    <time>2013-06-02T18:39:56Z</time>
  </metadata>
  <trk>
    <name>Sykling 44.77 km, 2013-06-02</name>
    <trkseg>
      <trkpt lat="59.9746165" lon="17.7332832">
        <ele>30.8995</ele>
        <time>2013-06-02T18:39:56Z</time>
      </trkpt>
      <trkpt lat="59.9745821" lon="17.733103">
        <ele>26.5736</ele>
        <time>2013-06-02T18:39:57Z</time>
      </trkpt>
      <trkpt lat="59.9745895" lon="17.7329751">
        <ele>28.0155</ele>
        <time>2013-06-02T18:39:58Z</time>
      </trkpt>
      <trkpt lat="59.974592" lon="17.732866">
        <ele>27.5349</ele>
        <time>2013-06-02T18:39:59Z</time>
      </trkpt>
      <trkpt lat="59.9745918" lon="17.7327294">
        <ele>27.0543</ele>
        <time>2013-06-02T18:40:00Z</time>
      </trkpt>
      <trkpt lat="59.9745909" lon="17.732597">
        <ele>27.0543</ele>
        <time>2013-06-02T18:40:01Z</time>
      </trkpt>
      <trkpt lat="59.9745844" lon="17.7324627">
        <ele>27.5349</ele>
        <time>2013-06-02T18:40:02Z</time>
      </trkpt>
      <trkpt lat="59.9745792" lon="17.7323304">
        <ele>28.0155</ele>
        <time>2013-06-02T18:40:03Z</time>
      </trkpt>
      <trkpt lat="59.9745749" lon="17.7322032">
        <ele>28.4962</ele>
        <time>2013-06-02T18:40:04Z</time>
      </trkpt>
      <trkpt lat="59.97461" lon="17.7321105">
        <ele>29.9381</ele>
        <time>2013-06-02T18:40:05Z</time>
      </trkpt>
      <trkpt lat="59.9746269" lon="17.7320044">
        <ele>30.8995</ele>
        <time>2013-06-02T18:40:06Z</time>
      </trkpt>
      <trkpt lat="59.9746333" lon="17.7318877">
        <ele>31.3801</ele>
        <time>2013-06-02T18:40:07Z</time>
      </trkpt>
      <trkpt lat="59.974611" lon="17.7317463">
        <ele>30.4188</ele>
        <time>2013-06-02T18:40:08Z</time>
      </trkpt>
      <trkpt lat="59.9745758" lon="17.7315935">
        <ele>29.4575</ele>
        <time>2013-06-02T18:40:09Z</time>
      </trkpt>
      <trkpt lat="59.9745304" lon="17.7314319">
        <ele>28.0155</ele>
        <time>2013-06-02T18:40:10Z</time>
      </trkpt>
      <trkpt lat="59.9744981" lon="17.7312802">
        <ele>26.5736</ele>
        <time>2013-06-02T18:40:11Z</time>
      </trkpt>
      <trkpt lat="59.9744715" lon="17.7311324">
        <ele>25.6123</ele>
        <time>2013-06-02T18:40:12Z</time>
      </trkpt>
      <trkpt lat="59.9744497" lon="17.7309869">
        <ele>24.651</ele>
        <time>2013-06-02T18:40:13Z</time>
      </trkpt>
      <trkpt lat="59.9744326" lon="17.7308451">
        <ele>23.6896</ele>
        <time>2013-06-02T18:40:14Z</time>
      </trkpt>
      <trkpt lat="59.9744193" lon="17.7307065">
        <ele>22.7283</ele>
        <time>2013-06-02T18:40:15Z</time>
      </trkpt>
      <trkpt lat="59.9744092" lon="17.7305702">
        <ele>21.767</ele>
        <time>2013-06-02T18:40:16Z</time>
      </trkpt>
      <trkpt lat="59.9744018" lon="17.7304363">
        <ele>21.2864</ele>
        <time>2013-06-02T18:40:17Z</time>
      </trkpt>
      <trkpt lat="59.9743962" lon="17.7303041">
        <ele>20.8057</ele>
        <time>2013-06-02T18:40:18Z</time>
      </trkpt>
      <trkpt lat="59.974392" lon="17.7301735">
        <ele>20.325</ele>
        <time>2013-06-02T18:40:19Z</time>
      </trkpt>
      <trkpt lat="59.9744111" lon="17.7300627">
        <ele>20.8057</ele>
        <time>2013-06-02T18:40:20Z</time>
      </trkpt>
      <trkpt lat="59.9744248" lon="17.729947">
        <ele>20.8057</ele>
        <time>2013-06-02T18:40:21Z</time>
      </trkpt>
      <trkpt lat="59.9744376" lon="17.7298295">
        <ele>21.2864</ele>
        <time>2013-06-02T18:40:22Z</time>
      </trkpt>
      <trkpt lat="59.9744486" lon="17.72971">
        <ele>21.2864</ele>
        <time>2013-06-02T18:40:23Z</time>
      </trkpt>
      <trkpt lat="59.9744578" lon="17.7295883">
        <ele>21.2864</ele>
        <time>2013-06-02T18:40:24Z</time>
      </trkpt>
      <trkpt lat="59.9744634" lon="17.7294653">
        <ele>21.2864</ele>
        <time>2013-06-02T18:40:25Z</time>
      </trkpt>
      <trkpt lat="59.9744665" lon="17.7293415">
        <ele>21.2864</ele>
        <time>2013-06-02T18:40:26Z</time>
      </trkpt>
      <trkpt lat="59.9744651" lon="17.7292142">
        <ele>21.2864</ele>
        <time>2013-06-02T18:40:27Z</time>
      </trkpt>
      <trkpt lat="59.9744654" lon="17.7290884">
        <ele>21.767</ele>
        <time>2013-06-02T18:40:28Z</time>
      </trkpt>
      <trkpt lat="59.9744658" lon="17.7289609">
        <ele>21.2864</ele>
        <time>2013-06-02T18:40:29Z</time>
      </trkpt>
      <trkpt lat="59.9744665" lon="17.7288309">
        <ele>21.2864</ele>
        <time>2013-06-02T18:40:30Z</time>
      </trkpt>
      <trkpt lat="59.9744654" lon="17.7286983">
        <ele>21.2864</ele>
        <time>2013-06-02T18:40:31Z</time>
      </trkpt>
      <trkpt lat="59.9744636" lon="17.7285632">
        <ele>21.2864</ele>
        <time>2013-06-02T18:40:32Z</time>
      </trkpt>
      <trkpt lat="59.9744603" lon="17.7284238">
        <ele>21.2864</ele>
        <time>2013-06-02T18:40:33Z</time>
      </trkpt>
      <trkpt lat="59.9744594" lon="17.728286">
        <ele>22.2476</ele>
        <time>2013-06-02T18:40:34Z</time>
      </trkpt>
      <trkpt lat="59.9744665" lon="17.7281545">
        <ele>23.209</ele>
        <time>2013-06-02T18:40:35Z</time>
      </trkpt>
      <trkpt lat="59.9744579" lon="17.7280136">
        <ele>23.209</ele>
        <time>2013-06-02T18:40:36Z</time>
      </trkpt>
      <trkpt lat="59.9744484" lon="17.7278735">
        <ele>22.7283</ele>
        <time>2013-06-02T18:40:37Z</time>
      </trkpt>
      <trkpt lat="59.9744392" lon="17.7277339">
        <ele>22.7283</ele>
        <time>2013-06-02T18:40:38Z</time>
      </trkpt>
      <trkpt lat="59.9744257" lon="17.7275923">
        <ele>22.2476</ele>
        <time>2013-06-02T18:40:39Z</time>
      </trkpt>
      <trkpt lat="59.9744241" lon="17.7274621">
        <ele>22.7283</ele>
        <time>2013-06-02T18:40:40Z</time>
      </trkpt>
      <trkpt lat="59.9744272" lon="17.7273389">
        <ele>23.209</ele>
        <time>2013-06-02T18:40:41Z</time>
      </trkpt>
      <trkpt lat="59.9744226" lon="17.7272125">
        <ele>23.209</ele>
        <time>2013-06-02T18:40:42Z</time>
      </trkpt>
      <trkpt lat="59.9744278" lon="17.7270988">
        <ele>24.1703</ele>
        <time>2013-06-02T18:40:43Z</time>
      </trkpt>
      <trkpt lat="59.9744196" lon="17.7269758">
        <ele>24.1703</ele>
        <time>2013-06-02T18:40:44Z</time>
      </trkpt>
      <trkpt lat="59.9744168" lon="17.7268573">
        <ele>24.1703</ele>
        <time>2013-06-02T18:40:45Z</time>
      </trkpt>
      <trkpt lat="59.9744105" lon="17.7267369">
        <ele>24.1703</ele>
        <time>2013-06-02T18:40:46Z</time>
      </trkpt>
      <trkpt lat="59.9744071" lon="17.7266227">
        <ele>24.1703</ele>
        <time>2013-06-02T18:40:47Z</time>
      </trkpt>
      <trkpt lat="59.9743976" lon="17.7265051">
        <ele>23.6896</ele>
        <time>2013-06-02T18:40:48Z</time>
      </trkpt>
      <trkpt lat="59.9743863" lon="17.7263868">
        <ele>23.6896</ele>
        <time>2013-06-02T18:40:49Z</time>
      </trkpt>
      <trkpt lat="59.9743634" lon="17.7262574">
        <ele>22.7283</ele>
        <time>2013-06-02T18:40:50Z</time>
      </trkpt>
      <trkpt lat="59.9743546" lon="17.7261389">
        <ele>22.7283</ele>
        <time>2013-06-02T18:40:51Z</time>
      </trkpt>
      <trkpt lat="59.9743489" lon="17.7260218">
        <ele>22.2476</ele>
        <time>2013-06-02T18:40:52Z</time>
      </trkpt>
      <trkpt lat="59.9743391" lon="17.7258995">
        <ele>22.2476</ele>
        <time>2013-06-02T18:40:53Z</time>
      </trkpt>
      <trkpt lat="59.9743199" lon="17.7257641">
        <ele>21.767</ele>
        <time>2013-06-02T18:40:54Z</time>
      </trkpt>
      <trkpt lat="59.97426" lon="17.7255929">
        <ele>20.325</ele>
        <time>2013-06-02T18:40:55Z</time>
      </trkpt>
      <trkpt lat="59.974263" lon="17.7254927">
        <ele>20.8057</ele>
        <time>2013-06-02T18:40:56Z</time>
      </trkpt>
      <trkpt lat="59.9742811" lon="17.7254023">
        <ele>21.767</ele>
        <time>2013-06-02T18:40:57Z</time>
      </trkpt>
      <trkpt lat="59.9742977" lon="17.7253088">
        <ele>23.209</ele>
        <time>2013-06-02T18:40:58Z</time>
      </trkpt>
      <trkpt lat="59.9742933" lon="17.7252001">
        <ele>24.1703</ele>
        <time>2013-06-02T18:40:59Z</time>
      </trkpt>
      <trkpt lat="59.9742896" lon="17.7250926">
        <ele>24.651</ele>
        <time>2013-06-02T18:41:00Z</time>
      </trkpt>
      <trkpt lat="59.974291" lon="17.7249864">
        <ele>26.0929</ele>
        <time>2013-06-02T18:41:01Z</time>
      </trkpt>
      <trkpt lat="59.9742819" lon="17.7248722">
        <ele>26.5736</ele>
        <time>2013-06-02T18:41:02Z</time>
      </trkpt>
      <trkpt lat="59.9742771" lon="17.7247623">
        <ele>27.5349</ele>
        <time>2013-06-02T18:41:03Z</time>
      </trkpt>
      <trkpt lat="59.9742676" lon="17.724648">
        <ele>28.0155</ele>
        <time>2013-06-02T18:41:04Z</time>
      </trkpt>
      <trkpt lat="59.9742526" lon="17.7245292">
        <ele>28.4962</ele>
        <time>2013-06-02T18:41:05Z</time>
      </trkpt>
      <trkpt lat="59.9742368" lon="17.7244069">
        <ele>28.9769</ele>
        <time>2013-06-02T18:41:06Z</time>
      </trkpt>
      <trkpt lat="59.974222" lon="17.7242826">
        <ele>29.4575</ele>
        <time>2013-06-02T18:41:07Z</time>
      </trkpt>
      <trkpt lat="59.974207" lon="17.7241579">
        <ele>29.9381</ele>
        <time>2013-06-02T18:41:08Z</time>
      </trkpt>
      <trkpt lat="59.9741916" lon="17.7240321">
        <ele>30.4188</ele>
        <time>2013-06-02T18:41:09Z</time>
      </trkpt>
      <trkpt lat="59.9741792" lon="17.7239078">
        <ele>30.8995</ele>
        <time>2013-06-02T18:41:10Z</time>
      </trkpt>
      <trkpt lat="59.9741678" lon="17.7237822">
        <ele>31.8607</ele>
        <time>2013-06-02T18:41:11Z</time>
      </trkpt>
      <trkpt lat="59.9741481" lon="17.7236493">
        <ele>31.8607</ele>
        <time>2013-06-02T18:41:12Z</time>
      </trkpt>
      <trkpt lat="59.9741284" lon="17.7235172">
        <ele>32.3416</ele>
        <time>2013-06-02T18:41:13Z</time>
      </trkpt>
      <trkpt lat="59.9741096" lon="17.7233878">
        <ele>32.3416</ele>
        <time>2013-06-02T18:41:14Z</time>
      </trkpt>
      <trkpt lat="59.9740875" lon="17.7232595">
        <ele>32.8223</ele>
        <time>2013-06-02T18:41:15Z</time>
      </trkpt>
      <trkpt lat="59.9740656" lon="17.723136">
        <ele>32.8223</ele>
        <time>2013-06-02T18:41:16Z</time>
      </trkpt>
      <trkpt lat="59.974044" lon="17.7230179">
        <ele>33.7834</ele>
        <time>2013-06-02T18:41:17Z</time>
      </trkpt>
      <trkpt lat="59.9740153" lon="17.7228959">
        <ele>33.7834</ele>
        <time>2013-06-02T18:41:18Z</time>
      </trkpt>
      <trkpt lat="59.9739897" lon="17.7227775">
        <ele>34.2642</ele>
        <time>2013-06-02T18:41:19Z</time>
      </trkpt>
      <trkpt lat="59.9739563" lon="17.7226555">
        <ele>34.2642</ele>
        <time>2013-06-02T18:41:20Z</time>
      </trkpt>
      <trkpt lat="59.97392" lon="17.722535">
        <ele>34.2642</ele>
        <time>2013-06-02T18:41:21Z</time>
      </trkpt>
      <trkpt lat="59.973886" lon="17.722419">
        <ele>34.2642</ele>
        <time>2013-06-02T18:41:22Z</time>
      </trkpt>
      <trkpt lat="59.9738544" lon="17.7223064">
        <ele>34.7449</ele>
        <time>2013-06-02T18:41:23Z</time>
      </trkpt>
      <trkpt lat="59.9738143" lon="17.72219">
        <ele>34.7449</ele>
        <time>2013-06-02T18:41:24Z</time>
      </trkpt>
      <trkpt lat="59.9737876" lon="17.7220899">
        <ele>35.7061</ele>
        <time>2013-06-02T18:41:25Z</time>
      </trkpt>
      <trkpt lat="59.9737461" lon="17.7219803">
        <ele>36.1868</ele>
        <time>2013-06-02T18:41:26Z</time>
      </trkpt>
      <trkpt lat="59.9737082" lon="17.7218752">
        <ele>36.6675</ele>
        <time>2013-06-02T18:41:27Z</time>
      </trkpt>
      <trkpt lat="59.973657" lon="17.7217605">
        <ele>36.1868</ele>
        <time>2013-06-02T18:41:28Z</time>
      </trkpt>
      <trkpt lat="59.9736022" lon="17.721648">
        <ele>35.7061</ele>
        <time>2013-06-02T18:41:29Z</time>
      </trkpt>
      <trkpt lat="59.9735442" lon="17.7215346">
        <ele>34.2642</ele>
        <time>2013-06-02T18:41:30Z</time>
      </trkpt>
      <trkpt lat="59.9734934" lon="17.7214367">
        <ele>34.7449</ele>
        <time>2013-06-02T18:41:31Z</time>
      </trkpt>
      <trkpt lat="59.9734382" lon="17.7213375">
        <ele>34.2642</ele>
        <time>2013-06-02T18:41:32Z</time>
      </trkpt>
      <trkpt lat="59.9733877" lon="17.7212412">
        <ele>34.2642</ele>
        <time>2013-06-02T18:41:33Z</time>
      </trkpt>
      <trkpt lat="59.9733399" lon="17.7211488">
        <ele>33.7834</ele>
        <time>2013-06-02T18:41:34Z</time>
      </trkpt>
      <trkpt lat="59.9732943" lon="17.7210614">
        <ele>33.7834</ele>
        <time>2013-06-02T18:41:35Z</time>
      </trkpt>
      <trkpt lat="59.973239" lon="17.7209718">
        <ele>33.7834</ele>
        <time>2013-06-02T18:41:36Z</time>
      </trkpt>
      <trkpt lat="59.9731828" lon="17.7208845">
        <ele>33.7834</ele>
        <time>2013-06-02T18:41:37Z</time>
      </trkpt>
      <trkpt lat="59.9731255" lon="17.7208017">
        <ele>33.7834</ele>
        <time>2013-06-02T18:41:38Z</time>
      </trkpt>
      <trkpt lat="59.9730649" lon="17.7207216">
        <ele>33.7834</ele>
        <time>2013-06-02T18:41:39Z</time>
      </trkpt>
      <trkpt lat="59.9730031" lon="17.7206438">
        <ele>33.3029</ele>
        <time>2013-06-02T18:41:40Z</time>
      </trkpt>
      <trkpt lat="59.972941" lon="17.7205675">
        <ele>33.3029</ele>
        <time>2013-06-02T18:41:41Z</time>
      </trkpt>
      <trkpt lat="59.9728794" lon="17.7204951">
        <ele>33.3029</ele>
        <time>2013-06-02T18:41:42Z</time>
      </trkpt>
      <trkpt lat="59.9728171" lon="17.7204247">
        <ele>32.8223</ele>
        <time>2013-06-02T18:41:43Z</time>
      </trkpt>
      <trkpt lat="59.9727542" lon="17.7203595">
        <ele>32.8223</ele>
        <time>2013-06-02T18:41:44Z</time>
      </trkpt>
      <trkpt lat="59.972691" lon="17.7202992">
        <ele>33.3029</ele>
        <time>2013-06-02T18:41:45Z</time>
      </trkpt>
      <trkpt lat="59.9726284" lon="17.7202381">
        <ele>33.3029</ele>
        <time>2013-06-02T18:41:46Z</time>
      </trkpt>
      <trkpt lat="59.9725664" lon="17.7201767">
        <ele>33.3029</ele>
        <time>2013-06-02T18:41:47Z</time>
      </trkpt>
      <trkpt lat="59.9725037" lon="17.7201191">
        <ele>33.3029</ele>
        <time>2013-06-02T18:41:48Z</time>
      </trkpt>
      <trkpt lat="59.9724398" lon="17.7200647">
        <ele>33.7834</ele>
        <time>2013-06-02T18:41:49Z</time>
      </trkpt>
      <trkpt lat="59.9723761" lon="17.7200103">
        <ele>33.7834</ele>
        <time>2013-06-02T18:41:50Z</time>
      </trkpt>
      <trkpt lat="59.9723128" lon="17.7199543">
        <ele>33.7834</ele>
        <time>2013-06-02T18:41:51Z</time>
      </trkpt>
      <trkpt lat="59.9722506" lon="17.7198964">
        <ele>33.7834</ele>
        <time>2013-06-02T18:41:52Z</time>
      </trkpt>
      <trkpt lat="59.9721888" lon="17.7198391">
        <ele>33.7834</ele>
        <time>2013-06-02T18:41:53Z</time>
      </trkpt>
      <trkpt lat="59.9721274" lon="17.7197827">
        <ele>34.2642</ele>
        <time>2013-06-02T18:41:54Z</time>
      </trkpt>
      <trkpt lat="59.9720662" lon="17.7197269">
        <ele>34.2642</ele>
        <time>2013-06-02T18:41:55Z</time>
      </trkpt>
      <trkpt lat="59.972007" lon="17.7196728">
        <ele>34.2642</ele>
        <time>2013-06-02T18:41:56Z</time>
      </trkpt>
      <trkpt lat="59.9719474" lon="17.719618">
        <ele>34.2642</ele>
        <time>2013-06-02T18:41:57Z</time>
      </trkpt>
      <trkpt lat="59.9718878" lon="17.7195625">
        <ele>34.2642</ele>
        <time>2013-06-02T18:41:58Z</time>
      </trkpt>
      <trkpt lat="59.9718278" lon="17.7195071">
        <ele>34.2642</ele>
        <time>2013-06-02T18:41:59Z</time>
      </trkpt>
      <trkpt lat="59.9717673" lon="17.7194512">
        <ele>34.2642</ele>
        <time>2013-06-02T18:42:00Z</time>
      </trkpt>
      <trkpt lat="59.9717062" lon="17.7193948">
        <ele>34.2642</ele>
        <time>2013-06-02T18:42:01Z</time>
      </trkpt>
      <trkpt lat="59.9716445" lon="17.7193382">
        <ele>34.2642</ele>
        <time>2013-06-02T18:42:02Z</time>
      </trkpt>
      <trkpt lat="59.9715823" lon="17.7192819">
        <ele>34.7449</ele>
        <time>2013-06-02T18:42:03Z</time>
      </trkpt>
      <trkpt lat="59.9715201" lon="17.7192259">
        <ele>34.7449</ele>
        <time>2013-06-02T18:42:04Z</time>
      </trkpt>
      <trkpt lat="59.9714577" lon="17.7191699">
        <ele>34.7449</ele>
        <time>2013-06-02T18:42:05Z</time>
      </trkpt>
      <trkpt lat="59.9713954" lon="17.719114">
        <ele>34.7449</ele>
        <time>2013-06-02T18:42:06Z</time>
      </trkpt>
      <trkpt lat="59.9713332" lon="17.719057">
        <ele>34.7449</ele>
        <time>2013-06-02T18:42:07Z</time>
      </trkpt>
      <trkpt lat="59.9712711" lon="17.7190007">
        <ele>34.7449</ele>
        <time>2013-06-02T18:42:08Z</time>
      </trkpt>
      <trkpt lat="59.9712085" lon="17.7189441">
        <ele>34.7449</ele>
        <time>2013-06-02T18:42:09Z</time>
      </trkpt>
      <trkpt lat="59.9711457" lon="17.7188861">
        <ele>34.7449</ele>
        <time>2013-06-02T18:42:10Z</time>
      </trkpt>
      <trkpt lat="59.9710825" lon="17.718829">
        <ele>34.7449</ele>
        <time>2013-06-02T18:42:11Z</time>
      </trkpt>
      <trkpt lat="59.9710191" lon="17.7187722">
        <ele>34.7449</ele>
        <time>2013-06-02T18:42:12Z</time>
      </trkpt>
      <trkpt lat="59.9709556" lon="17.7187141">
        <ele>34.7449</ele>
        <time>2013-06-02T18:42:13Z</time>
      </trkpt>
      <trkpt lat="59.9708924" lon="17.7186542">
        <ele>34.7449</ele>
        <time>2013-06-02T18:42:14Z</time>
      </trkpt>
      <trkpt lat="59.9708292" lon="17.7185959">
        <ele>34.7449</ele>
        <time>2013-06-02T18:42:15Z</time>
      </trkpt>
      <trkpt lat="59.9707654" lon="17.7185394">
        <ele>34.7449</ele>
        <time>2013-06-02T18:42:16Z</time>
      </trkpt>
      <trkpt lat="59.9707022" lon="17.7184821">
        <ele>34.7449</ele>
        <time>2013-06-02T18:42:17Z</time>
      </trkpt>
      <trkpt lat="59.9706396" lon="17.7184236">
        <ele>34.7449</ele>
        <time>2013-06-02T18:42:18Z</time>
      </trkpt>
      <trkpt lat="59.970577" lon="17.7183647">
        <ele>34.7449</ele>
        <time>2013-06-02T18:42:19Z</time>
      </trkpt>
      <trkpt lat="59.9705147" lon="17.7183065">
        <ele>34.7449</ele>
        <time>2013-06-02T18:42:20Z</time>
      </trkpt>
      <trkpt lat="59.9704521" lon="17.7182485">
        <ele>34.7449</ele>
        <time>2013-06-02T18:42:21Z</time>
      </trkpt>
      <trkpt lat="59.9703887" lon="17.7181918">
        <ele>34.7449</ele>
        <time>2013-06-02T18:42:22Z</time>
      </trkpt>
      <trkpt lat="59.970325" lon="17.7181361">
        <ele>35.2255</ele>
        <time>2013-06-02T18:42:23Z</time>
      </trkpt>
      <trkpt lat="59.9702614" lon="17.7180794">
        <ele>35.2255</ele>
        <time>2013-06-02T18:42:24Z</time>
      </trkpt>
      <trkpt lat="59.9701978" lon="17.7180217">
        <ele>35.2255</ele>
        <time>2013-06-02T18:42:25Z</time>
      </trkpt>
      <trkpt lat="59.970134" lon="17.7179631">
        <ele>35.2255</ele>
        <time>2013-06-02T18:42:26Z</time>
      </trkpt>
      <trkpt lat="59.9700699" lon="17.7179061">
        <ele>35.2255</ele>
        <time>2013-06-02T18:42:27Z</time>
      </trkpt>
      <trkpt lat="59.9700054" lon="17.7178528">
        <ele>35.2255</ele>
        <time>2013-06-02T18:42:28Z</time>
      </trkpt>
      <trkpt lat="59.9699415" lon="17.7177984">
        <ele>35.7061</ele>
        <time>2013-06-02T18:42:29Z</time>
      </trkpt>
      <trkpt lat="59.9698787" lon="17.7177428">
        <ele>35.7061</ele>
        <time>2013-06-02T18:42:30Z</time>
      </trkpt>
      <trkpt lat="59.969816" lon="17.7176895">
        <ele>35.7061</ele>
        <time>2013-06-02T18:42:31Z</time>
      </trkpt>
      <trkpt lat="59.9697529" lon="17.7176383">
        <ele>35.7061</ele>
        <time>2013-06-02T18:42:32Z</time>
      </trkpt>
      <trkpt lat="59.96969" lon="17.7175886">
        <ele>35.7061</ele>
        <time>2013-06-02T18:42:33Z</time>
      </trkpt>
      <trkpt lat="59.9696267" lon="17.7175423">
        <ele>36.1868</ele>
        <time>2013-06-02T18:42:34Z</time>
      </trkpt>
      <trkpt lat="59.9695631" lon="17.7174998">
        <ele>36.1868</ele>
        <time>2013-06-02T18:42:35Z</time>
      </trkpt>
      <trkpt lat="59.969499" lon="17.7174601">
        <ele>36.1868</ele>
        <time>2013-06-02T18:42:36Z</time>
      </trkpt>
      <trkpt lat="59.9694347" lon="17.7174238">
        <ele>36.1868</ele>
        <time>2013-06-02T18:42:37Z</time>
      </trkpt>
      <trkpt lat="59.9693704" lon="17.7173911">
        <ele>36.6675</ele>
        <time>2013-06-02T18:42:38Z</time>
      </trkpt>
      <trkpt lat="59.9693074" lon="17.7173596">
        <ele>37.1481</ele>
        <time>2013-06-02T18:42:39Z</time>
      </trkpt>
      <trkpt lat="59.9692461" lon="17.717331">
        <ele>38.1094</ele>
        <time>2013-06-02T18:42:40Z</time>
      </trkpt>
      <trkpt lat="59.9691794" lon="17.7173047">
        <ele>38.1094</ele>
        <time>2013-06-02T18:42:41Z</time>
      </trkpt>
      <trkpt lat="59.9691108" lon="17.7172798">
        <ele>38.1094</ele>
        <time>2013-06-02T18:42:42Z</time>
      </trkpt>
      <trkpt lat="59.9690417" lon="17.717253">
        <ele>38.1094</ele>
        <time>2013-06-02T18:42:43Z</time>
      </trkpt>
      <trkpt lat="59.9689722" lon="17.717225">
        <ele>38.1094</ele>
        <time>2013-06-02T18:42:44Z</time>
      </trkpt>
      <trkpt lat="59.9689023" lon="17.717198">
        <ele>38.1094</ele>
        <time>2013-06-02T18:42:45Z</time>
      </trkpt>
      <trkpt lat="59.9688323" lon="17.7171705">
        <ele>38.1094</ele>
        <time>2013-06-02T18:42:46Z</time>
      </trkpt>
      <trkpt lat="59.9687637" lon="17.7171413">
        <ele>38.5901</ele>
        <time>2013-06-02T18:42:47Z</time>
      </trkpt>
      <trkpt lat="59.9686934" lon="17.7171108">
        <ele>38.5901</ele>
        <time>2013-06-02T18:42:48Z</time>
      </trkpt>
      <trkpt lat="59.9686216" lon="17.7170804">
        <ele>38.1094</ele>
        <time>2013-06-02T18:42:49Z</time>
      </trkpt>
      <trkpt lat="59.9685519" lon="17.7170447">
        <ele>38.1094</ele>
        <time>2013-06-02T18:42:50Z</time>
      </trkpt>
      <trkpt lat="59.9684806" lon="17.7170033">
        <ele>37.6287</ele>
        <time>2013-06-02T18:42:51Z</time>
      </trkpt>
      <trkpt lat="59.9684097" lon="17.7169555">
        <ele>37.6287</ele>
        <time>2013-06-02T18:42:52Z</time>
      </trkpt>
      <trkpt lat="59.9683382" lon="17.7168976">
        <ele>37.1481</ele>
        <time>2013-06-02T18:42:53Z</time>
      </trkpt>
      <trkpt lat="59.9682662" lon="17.7168295">
        <ele>36.6675</ele>
        <time>2013-06-02T18:42:54Z</time>
      </trkpt>
      <trkpt lat="59.9681894" lon="17.7167406">
        <ele>35.2255</ele>
        <time>2013-06-02T18:42:55Z</time>
      </trkpt>
      <trkpt lat="59.9681216" lon="17.7166478">
        <ele>34.2642</ele>
        <time>2013-06-02T18:42:56Z</time>
      </trkpt>
      <trkpt lat="59.9680453" lon="17.7165366">
        <ele>32.3416</ele>
        <time>2013-06-02T18:42:57Z</time>
      </trkpt>
      <trkpt lat="59.9679748" lon="17.7164208">
        <ele>31.3801</ele>
        <time>2013-06-02T18:42:58Z</time>
      </trkpt>
      <trkpt lat="59.9679085" lon="17.7162946">
        <ele>30.8995</ele>
        <time>2013-06-02T18:42:59Z</time>
      </trkpt>
      <trkpt lat="59.9678444" lon="17.7161533">
        <ele>30.8995</ele>
        <time>2013-06-02T18:43:00Z</time>
      </trkpt>
      <trkpt lat="59.9677788" lon="17.715991">
        <ele>30.4188</ele>
        <time>2013-06-02T18:43:01Z</time>
      </trkpt>
      <trkpt lat="59.9677087" lon="17.7158232">
        <ele>30.4188</ele>
        <time>2013-06-02T18:43:02Z</time>
      </trkpt>
      <trkpt lat="59.9676486" lon="17.7156513">
        <ele>30.8995</ele>
        <time>2013-06-02T18:43:03Z</time>
      </trkpt>
      <trkpt lat="59.9675993" lon="17.7154694">
        <ele>29.9381</ele>
        <time>2013-06-02T18:43:04Z</time>
      </trkpt>
      <trkpt lat="59.9675731" lon="17.7152812">
        <ele>27.5349</ele>
        <time>2013-06-02T18:43:05Z</time>
      </trkpt>
      <trkpt lat="59.9675552" lon="17.7150834">
        <ele>28.0155</ele>
        <time>2013-06-02T18:43:06Z</time>
      </trkpt>
      <trkpt lat="59.9675207" lon="17.7148856">
        <ele>28.4962</ele>
        <time>2013-06-02T18:43:07Z</time>
      </trkpt>
      <trkpt lat="59.9674933" lon="17.7146875">
        <ele>28.0155</ele>
        <time>2013-06-02T18:43:08Z</time>
      </trkpt>
      <trkpt lat="59.9674633" lon="17.714491">
        <ele>27.0543</ele>
        <time>2013-06-02T18:43:09Z</time>
      </trkpt>
      <trkpt lat="59.9674276" lon="17.7143002">
        <ele>27.0543</ele>
        <time>2013-06-02T18:43:10Z</time>
      </trkpt>
      <trkpt lat="59.9673939" lon="17.7141187">
        <ele>27.0543</ele>
        <time>2013-06-02T18:43:11Z</time>
      </trkpt>
      <trkpt lat="59.9673709" lon="17.713954">
        <ele>27.0543</ele>
        <time>2013-06-02T18:43:12Z</time>
      </trkpt>
      <trkpt lat="59.9673497" lon="17.7137988">
        <ele>27.0543</ele>
        <time>2013-06-02T18:43:13Z</time>
      </trkpt>
      <trkpt lat="59.9673333" lon="17.7136539">
        <ele>27.5349</ele>
        <time>2013-06-02T18:43:14Z</time>
      </trkpt>
      <trkpt lat="59.9673164" lon="17.7135163">
        <ele>28.0155</ele>
        <time>2013-06-02T18:43:15Z</time>
      </trkpt>
      <trkpt lat="59.9672977" lon="17.7133821">
        <ele>28.9769</ele>
        <time>2013-06-02T18:43:16Z</time>
      </trkpt>
      <trkpt lat="59.9672763" lon="17.7132472">
        <ele>28.9769</ele>
        <time>2013-06-02T18:43:17Z</time>
      </trkpt>
      <trkpt lat="59.9672565" lon="17.7131232">
        <ele>29.4575</ele>
        <time>2013-06-02T18:43:18Z</time>
      </trkpt>
      <trkpt lat="59.9672353" lon="17.7130076">
        <ele>30.8995</ele>
        <time>2013-06-02T18:43:19Z</time>
      </trkpt>
      <trkpt lat="59.9672105" lon="17.712894">
        <ele>31.3801</ele>
        <time>2013-06-02T18:43:20Z</time>
      </trkpt>
      <trkpt lat="59.9671903" lon="17.7127886">
        <ele>32.8223</ele>
        <time>2013-06-02T18:43:21Z</time>
      </trkpt>
      <trkpt lat="59.9671596" lon="17.7126783">
        <ele>33.3029</ele>
        <time>2013-06-02T18:43:22Z</time>
      </trkpt>
      <trkpt lat="59.9671321" lon="17.7125737">
        <ele>33.7834</ele>
        <time>2013-06-02T18:43:23Z</time>
      </trkpt>
      <trkpt lat="59.967097" lon="17.7124701">
        <ele>34.2642</ele>
        <time>2013-06-02T18:43:24Z</time>
      </trkpt>
      <trkpt lat="59.9670607" lon="17.712368">
        <ele>34.7449</ele>
        <time>2013-06-02T18:43:25Z</time>
      </trkpt>
      <trkpt lat="59.9670222" lon="17.7122659">
        <ele>35.2255</ele>
        <time>2013-06-02T18:43:26Z</time>
      </trkpt>
      <trkpt lat="59.9669813" lon="17.7121618">
        <ele>35.7061</ele>
        <time>2013-06-02T18:43:27Z</time>
      </trkpt>
      <trkpt lat="59.9669405" lon="17.7120578">
        <ele>35.7061</ele>
        <time>2013-06-02T18:43:28Z</time>
      </trkpt>
      <trkpt lat="59.9668975" lon="17.7119521">
        <ele>36.1868</ele>
        <time>2013-06-02T18:43:29Z</time>
      </trkpt>
      <trkpt lat="59.9668411" lon="17.7118273">
        <ele>34.7449</ele>
        <time>2013-06-02T18:43:30Z</time>
      </trkpt>
      <trkpt lat="59.9668021" lon="17.7117196">
        <ele>34.7449</ele>
        <time>2013-06-02T18:43:31Z</time>
      </trkpt>
      <trkpt lat="59.966764" lon="17.7116122">
        <ele>35.2255</ele>
        <time>2013-06-02T18:43:32Z</time>
      </trkpt>
      <trkpt lat="59.9667269" lon="17.7115025">
        <ele>35.7061</ele>
        <time>2013-06-02T18:43:33Z</time>
      </trkpt>
      <trkpt lat="59.9666924" lon="17.7113904">
        <ele>35.7061</ele>
        <time>2013-06-02T18:43:34Z</time>
      </trkpt>
      <trkpt lat="59.9666586" lon="17.7112792">
        <ele>36.6675</ele>
        <time>2013-06-02T18:43:35Z</time>
      </trkpt>
      <trkpt lat="59.9666256" lon="17.711163">
        <ele>37.6287</ele>
        <time>2013-06-02T18:43:36Z</time>
      </trkpt>
      <trkpt lat="59.9665934" lon="17.7110475">
        <ele>38.5901</ele>
        <time>2013-06-02T18:43:37Z</time>
      </trkpt>
      <trkpt lat="59.9665613" lon="17.7109333">
        <ele>40.0321</ele>
        <time>2013-06-02T18:43:38Z</time>
      </trkpt>
      <trkpt lat="59.9665303" lon="17.710814">
        <ele>40.5128</ele>
        <time>2013-06-02T18:43:39Z</time>
      </trkpt>
      <trkpt lat="59.9664985" lon="17.710682">
        <ele>40.0321</ele>
        <time>2013-06-02T18:43:40Z</time>
      </trkpt>
      <trkpt lat="59.9664715" lon="17.7105658">
        <ele>41.474</ele>
        <time>2013-06-02T18:43:41Z</time>
      </trkpt>
      <trkpt lat="59.9664422" lon="17.7104388">
        <ele>41.9547</ele>
        <time>2013-06-02T18:43:42Z</time>
      </trkpt>
      <trkpt lat="59.9664106" lon="17.7103096">
        <ele>42.916</ele>
        <time>2013-06-02T18:43:43Z</time>
      </trkpt>
      <trkpt lat="59.9663815" lon="17.7101806">
        <ele>43.3966</ele>
        <time>2013-06-02T18:43:44Z</time>
      </trkpt>
      <trkpt lat="59.9663366" lon="17.7100399">
        <ele>43.3966</ele>
        <time>2013-06-02T18:43:45Z</time>
      </trkpt>
      <trkpt lat="59.9663018" lon="17.709905">
        <ele>44.358</ele>
        <time>2013-06-02T18:43:46Z</time>
      </trkpt>
      <trkpt lat="59.9662716" lon="17.7097625">
        <ele>43.8773</ele>
        <time>2013-06-02T18:43:47Z</time>
      </trkpt>
      <trkpt lat="59.9662376" lon="17.7096246">
        <ele>44.8386</ele>
        <time>2013-06-02T18:43:48Z</time>
      </trkpt>
      <trkpt lat="59.9661955" lon="17.7094822">
        <ele>44.358</ele>
        <time>2013-06-02T18:43:49Z</time>
      </trkpt>
      <trkpt lat="59.9661533" lon="17.709348">
        <ele>44.358</ele>
        <time>2013-06-02T18:43:50Z</time>
      </trkpt>
      <trkpt lat="59.966117" lon="17.7092133">
        <ele>43.8773</ele>
        <time>2013-06-02T18:43:51Z</time>
      </trkpt>
      <trkpt lat="59.9660732" lon="17.7090785">
        <ele>43.3966</ele>
        <time>2013-06-02T18:43:52Z</time>
      </trkpt>
      <trkpt lat="59.9660314" lon="17.7089549">
        <ele>43.3966</ele>
        <time>2013-06-02T18:43:53Z</time>
      </trkpt>
      <trkpt lat="59.9660002" lon="17.7088495">
        <ele>44.358</ele>
        <time>2013-06-02T18:43:54Z</time>
      </trkpt>
      <trkpt lat="59.965963" lon="17.7087403">
        <ele>44.8386</ele>
        <time>2013-06-02T18:43:55Z</time>
      </trkpt>
      <trkpt lat="59.9659211" lon="17.7086342">
        <ele>45.3192</ele>
        <time>2013-06-02T18:43:56Z</time>
      </trkpt>
      <trkpt lat="59.9658738" lon="17.7085374">
        <ele>46.7612</ele>
        <time>2013-06-02T18:43:57Z</time>
      </trkpt>
      <trkpt lat="59.9658243" lon="17.7084524">
        <ele>48.2034</ele>
        <time>2013-06-02T18:43:58Z</time>
      </trkpt>
      <trkpt lat="59.9657652" lon="17.7083581">
        <ele>47.7225</ele>
        <time>2013-06-02T18:43:59Z</time>
      </trkpt>
      <trkpt lat="59.9657066" lon="17.708279">
        <ele>48.2034</ele>
        <time>2013-06-02T18:44:00Z</time>
      </trkpt>
      <trkpt lat="59.9656305" lon="17.7081884">
        <ele>46.2806</ele>
        <time>2013-06-02T18:44:01Z</time>
      </trkpt>
      <trkpt lat="59.9655611" lon="17.7081109">
        <ele>44.8386</ele>
        <time>2013-06-02T18:44:02Z</time>
      </trkpt>
      <trkpt lat="59.9654922" lon="17.7080396">
        <ele>43.8773</ele>
        <time>2013-06-02T18:44:03Z</time>
      </trkpt>
      <trkpt lat="59.9654227" lon="17.7079747">
        <ele>42.4354</ele>
        <time>2013-06-02T18:44:04Z</time>
      </trkpt>
      <trkpt lat="59.9653523" lon="17.7079182">
        <ele>41.9547</ele>
        <time>2013-06-02T18:44:05Z</time>
      </trkpt>
      <trkpt lat="59.9652783" lon="17.7078592">
        <ele>41.474</ele>
        <time>2013-06-02T18:44:06Z</time>
      </trkpt>
      <trkpt lat="59.9652079" lon="17.7077934">
        <ele>39.5513</ele>
        <time>2013-06-02T18:44:07Z</time>
      </trkpt>
      <trkpt lat="59.9651461" lon="17.7077406">
        <ele>39.5513</ele>
        <time>2013-06-02T18:44:08Z</time>
      </trkpt>
      <trkpt lat="59.9650771" lon="17.7076825">
        <ele>39.0707</ele>
        <time>2013-06-02T18:44:09Z</time>
      </trkpt>
      <trkpt lat="59.9650126" lon="17.7076317">
        <ele>39.0707</ele>
        <time>2013-06-02T18:44:10Z</time>
      </trkpt>
      <trkpt lat="59.9649452" lon="17.7075785">
        <ele>38.5901</ele>
        <time>2013-06-02T18:44:11Z</time>
      </trkpt>
      <trkpt lat="59.9648834" lon="17.7075344">
        <ele>38.5901</ele>
        <time>2013-06-02T18:44:12Z</time>
      </trkpt>
      <trkpt lat="59.9648135" lon="17.707482">
        <ele>37.6287</ele>
        <time>2013-06-02T18:44:13Z</time>
      </trkpt>
      <trkpt lat="59.9647442" lon="17.7074329">
        <ele>37.1481</ele>
        <time>2013-06-02T18:44:14Z</time>
      </trkpt>
      <trkpt lat="59.964675" lon="17.7073833">
        <ele>36.1868</ele>
        <time>2013-06-02T18:44:15Z</time>
      </trkpt>
      <trkpt lat="59.9646151" lon="17.7073505">
        <ele>37.1481</ele>
        <time>2013-06-02T18:44:16Z</time>
      </trkpt>
      <trkpt lat="59.9645524" lon="17.7073114">
        <ele>36.6675</ele>
        <time>2013-06-02T18:44:17Z</time>
      </trkpt>
      <trkpt lat="59.964498" lon="17.7072666">
        <ele>36.6675</ele>
        <time>2013-06-02T18:44:18Z</time>
      </trkpt>
      <trkpt lat="59.9644306" lon="17.7072278">
        <ele>36.1868</ele>
        <time>2013-06-02T18:44:19Z</time>
      </trkpt>
      <trkpt lat="59.9643586" lon="17.7071884">
        <ele>34.7449</ele>
        <time>2013-06-02T18:44:20Z</time>
      </trkpt>
      <trkpt lat="59.964292" lon="17.7071603">
        <ele>34.2642</ele>
        <time>2013-06-02T18:44:21Z</time>
      </trkpt>
      <trkpt lat="59.9642283" lon="17.7071308">
        <ele>33.7834</ele>
        <time>2013-06-02T18:44:22Z</time>
      </trkpt>
      <trkpt lat="59.964166" lon="17.7071051">
        <ele>33.7834</ele>
        <time>2013-06-02T18:44:23Z</time>
      </trkpt>
      <trkpt lat="59.9641018" lon="17.7070792">
        <ele>32.3416</ele>
        <time>2013-06-02T18:44:24Z</time>
      </trkpt>
      <trkpt lat="59.9640341" lon="17.7070537">
        <ele>31.3801</ele>
        <time>2013-06-02T18:44:25Z</time>
      </trkpt>
      <trkpt lat="59.9639641" lon="17.7070298">
        <ele>30.4188</ele>
        <time>2013-06-02T18:44:26Z</time>
      </trkpt>
      <trkpt lat="59.9638951" lon="17.7070107">
        <ele>29.9381</ele>
        <time>2013-06-02T18:44:27Z</time>
      </trkpt>
      <trkpt lat="59.9638262" lon="17.7069943">
        <ele>29.4575</ele>
        <time>2013-06-02T18:44:28Z</time>
      </trkpt>
      <trkpt lat="59.9637557" lon="17.7069954">
        <ele>30.4188</ele>
        <time>2013-06-02T18:44:29Z</time>
      </trkpt>
      <trkpt lat="59.9636808" lon="17.7069896">
        <ele>29.9381</ele>
        <time>2013-06-02T18:44:30Z</time>
      </trkpt>
      <trkpt lat="59.9636095" lon="17.7069847">
        <ele>29.9381</ele>
        <time>2013-06-02T18:44:31Z</time>
      </trkpt>
      <trkpt lat="59.9635367" lon="17.7069854">
        <ele>29.9381</ele>
        <time>2013-06-02T18:44:32Z</time>
      </trkpt>
      <trkpt lat="59.96347" lon="17.7069667">
        <ele>29.9381</ele>
        <time>2013-06-02T18:44:33Z</time>
      </trkpt>
      <trkpt lat="59.9634044" lon="17.7069543">
        <ele>29.9381</ele>
        <time>2013-06-02T18:44:34Z</time>
      </trkpt>
      <trkpt lat="59.9633355" lon="17.7069467">
        <ele>29.4575</ele>
        <time>2013-06-02T18:44:35Z</time>
      </trkpt>
      <trkpt lat="59.9632616" lon="17.706964">
        <ele>29.4575</ele>
        <time>2013-06-02T18:44:36Z</time>
      </trkpt>
      <trkpt lat="59.9631912" lon="17.706966">
        <ele>28.9769</ele>
        <time>2013-06-02T18:44:37Z</time>
      </trkpt>
      <trkpt lat="59.963129" lon="17.706971">
        <ele>30.4188</ele>
        <time>2013-06-02T18:44:38Z</time>
      </trkpt>
      <trkpt lat="59.9630705" lon="17.7069609">
        <ele>30.8995</ele>
        <time>2013-06-02T18:44:39Z</time>
      </trkpt>
      <trkpt lat="59.9630073" lon="17.7069663">
        <ele>31.3801</ele>
        <time>2013-06-02T18:44:40Z</time>
      </trkpt>
      <trkpt lat="59.9629478" lon="17.706988">
        <ele>34.2642</ele>
        <time>2013-06-02T18:44:41Z</time>
      </trkpt>
      <trkpt lat="59.9628854" lon="17.7069834">
        <ele>34.2642</ele>
        <time>2013-06-02T18:44:42Z</time>
      </trkpt>
      <trkpt lat="59.9628187" lon="17.7069538">
        <ele>31.8607</ele>
        <time>2013-06-02T18:44:43Z</time>
      </trkpt>
      <trkpt lat="59.9627497" lon="17.7069424">
        <ele>30.4188</ele>
        <time>2013-06-02T18:44:44Z</time>
      </trkpt>
      <trkpt lat="59.9626857" lon="17.7069475">
        <ele>31.3801</ele>
        <time>2013-06-02T18:44:45Z</time>
      </trkpt>
      <trkpt lat="59.9626185" lon="17.7069392">
        <ele>31.3801</ele>
        <time>2013-06-02T18:44:46Z</time>
      </trkpt>
      <trkpt lat="59.9625515" lon="17.7069253">
        <ele>31.3801</ele>
        <time>2013-06-02T18:44:47Z</time>
      </trkpt>
      <trkpt lat="59.9624866" lon="17.7068911">
        <ele>30.4188</ele>
        <time>2013-06-02T18:44:48Z</time>
      </trkpt>
      <trkpt lat="59.9624205" lon="17.7068735">
        <ele>30.8995</ele>
        <time>2013-06-02T18:44:49Z</time>
      </trkpt>
      <trkpt lat="59.9623565" lon="17.7068482">
        <ele>30.8995</ele>
        <time>2013-06-02T18:44:50Z</time>
      </trkpt>
      <trkpt lat="59.9622955" lon="17.7068148">
        <ele>31.3801</ele>
        <time>2013-06-02T18:44:51Z</time>
      </trkpt>
      <trkpt lat="59.9622316" lon="17.7067786">
        <ele>30.8995</ele>
        <time>2013-06-02T18:44:52Z</time>
      </trkpt>
      <trkpt lat="59.9621655" lon="17.7067405">
        <ele>31.3801</ele>
        <time>2013-06-02T18:44:53Z</time>
      </trkpt>
      <trkpt lat="59.9620982" lon="17.7066969">
        <ele>30.8995</ele>
        <time>2013-06-02T18:44:54Z</time>
      </trkpt>
      <trkpt lat="59.9620324" lon="17.7066528">
        <ele>30.8995</ele>
        <time>2013-06-02T18:44:55Z</time>
      </trkpt>
      <trkpt lat="59.9619656" lon="17.7066083">
        <ele>31.3801</ele>
        <time>2013-06-02T18:44:56Z</time>
      </trkpt>
      <trkpt lat="59.9618983" lon="17.7065597">
        <ele>30.8995</ele>
        <time>2013-06-02T18:44:57Z</time>
      </trkpt>
      <trkpt lat="59.9618313" lon="17.7065057">
        <ele>30.8995</ele>
        <time>2013-06-02T18:44:58Z</time>
      </trkpt>
      <trkpt lat="59.9617654" lon="17.7064467">
        <ele>30.4188</ele>
        <time>2013-06-02T18:44:59Z</time>
      </trkpt>
      <trkpt lat="59.961701" lon="17.7063805">
        <ele>30.4188</ele>
        <time>2013-06-02T18:45:00Z</time>
      </trkpt>
      <trkpt lat="59.9616378" lon="17.7063099">
        <ele>30.8995</ele>
        <time>2013-06-02T18:45:01Z</time>
      </trkpt>
      <trkpt lat="59.9615756" lon="17.7062431">
        <ele>31.3801</ele>
        <time>2013-06-02T18:45:02Z</time>
      </trkpt>
      <trkpt lat="59.9615126" lon="17.7061536">
        <ele>30.4188</ele>
        <time>2013-06-02T18:45:03Z</time>
      </trkpt>
      <trkpt lat="59.9614487" lon="17.7060507">
        <ele>28.9769</ele>
        <time>2013-06-02T18:45:04Z</time>
      </trkpt>
      <trkpt lat="59.9613906" lon="17.7059489">
        <ele>28.4962</ele>
        <time>2013-06-02T18:45:05Z</time>
      </trkpt>
      <trkpt lat="59.9613372" lon="17.7058526">
        <ele>29.4575</ele>
        <time>2013-06-02T18:45:06Z</time>
      </trkpt>
      <trkpt lat="59.9612838" lon="17.7057489">
        <ele>29.4575</ele>
        <time>2013-06-02T18:45:07Z</time>
      </trkpt>
      <trkpt lat="59.9612233" lon="17.7056374">
        <ele>28.4962</ele>
        <time>2013-06-02T18:45:08Z</time>
      </trkpt>
      <trkpt lat="59.9611631" lon="17.7055314">
        <ele>28.0155</ele>
        <time>2013-06-02T18:45:09Z</time>
      </trkpt>
      <trkpt lat="59.9611026" lon="17.7054273">
        <ele>27.5349</ele>
        <time>2013-06-02T18:45:10Z</time>
      </trkpt>
      <trkpt lat="59.9610461" lon="17.7053257">
        <ele>27.5349</ele>
        <time>2013-06-02T18:45:11Z</time>
      </trkpt>
      <trkpt lat="59.960987" lon="17.7052383">
        <ele>28.9769</ele>
        <time>2013-06-02T18:45:12Z</time>
      </trkpt>
      <trkpt lat="59.9609284" lon="17.7051408">
        <ele>28.4962</ele>
        <time>2013-06-02T18:45:13Z</time>
      </trkpt>
      <trkpt lat="59.9608667" lon="17.7050517">
        <ele>28.4962</ele>
        <time>2013-06-02T18:45:14Z</time>
      </trkpt>
      <trkpt lat="59.9608036" lon="17.7049643">
        <ele>28.0155</ele>
        <time>2013-06-02T18:45:15Z</time>
      </trkpt>
      <trkpt lat="59.9607414" lon="17.7048677">
        <ele>27.0543</ele>
        <time>2013-06-02T18:45:16Z</time>
      </trkpt>
      <trkpt lat="59.9606857" lon="17.7047932">
        <ele>28.4962</ele>
        <time>2013-06-02T18:45:17Z</time>
      </trkpt>
      <trkpt lat="59.9606247" lon="17.7047203">
        <ele>28.9769</ele>
        <time>2013-06-02T18:45:18Z</time>
      </trkpt>
      <trkpt lat="59.9605638" lon="17.7046457">
        <ele>28.9769</ele>
        <time>2013-06-02T18:45:19Z</time>
      </trkpt>
      <trkpt lat="59.9605021" lon="17.7045732">
        <ele>29.4575</ele>
        <time>2013-06-02T18:45:20Z</time>
      </trkpt>
      <trkpt lat="59.9604386" lon="17.7045052">
        <ele>29.9381</ele>
        <time>2013-06-02T18:45:21Z</time>
      </trkpt>
      <trkpt lat="59.9603731" lon="17.7044341">
        <ele>30.4188</ele>
        <time>2013-06-02T18:45:22Z</time>
      </trkpt>
      <trkpt lat="59.960307" lon="17.7043652">
        <ele>30.8995</ele>
        <time>2013-06-02T18:45:23Z</time>
      </trkpt>
      <trkpt lat="59.9602412" lon="17.7042926">
        <ele>31.3801</ele>
        <time>2013-06-02T18:45:24Z</time>
      </trkpt>
      <trkpt lat="59.9601779" lon="17.7042095">
        <ele>31.8607</ele>
        <time>2013-06-02T18:45:25Z</time>
      </trkpt>
      <trkpt lat="59.9601223" lon="17.704118">
        <ele>32.8223</ele>
        <time>2013-06-02T18:45:26Z</time>
      </trkpt>
      <trkpt lat="59.9600687" lon="17.7040146">
        <ele>33.3029</ele>
        <time>2013-06-02T18:45:27Z</time>
      </trkpt>
      <trkpt lat="59.960019" lon="17.70391">
        <ele>32.8223</ele>
        <time>2013-06-02T18:45:28Z</time>
      </trkpt>
      <trkpt lat="59.95997" lon="17.7037906">
        <ele>31.8607</ele>
        <time>2013-06-02T18:45:29Z</time>
      </trkpt>
      <trkpt lat="59.9599272" lon="17.7036753">
        <ele>32.8223</ele>
        <time>2013-06-02T18:45:30Z</time>
      </trkpt>
      <trkpt lat="59.9598935" lon="17.7035653">
        <ele>34.2642</ele>
        <time>2013-06-02T18:45:31Z</time>
      </trkpt>
      <trkpt lat="59.9598504" lon="17.7034429">
        <ele>34.2642</ele>
        <time>2013-06-02T18:45:32Z</time>
      </trkpt>
      <trkpt lat="59.9598244" lon="17.7033292">
        <ele>34.7449</ele>
        <time>2013-06-02T18:45:33Z</time>
      </trkpt>
      <trkpt lat="59.9597878" lon="17.7032027">
        <ele>34.2642</ele>
        <time>2013-06-02T18:45:34Z</time>
      </trkpt>
      <trkpt lat="59.9597496" lon="17.703089">
        <ele>34.2642</ele>
        <time>2013-06-02T18:45:35Z</time>
      </trkpt>
      <trkpt lat="59.9597178" lon="17.7029765">
        <ele>34.2642</ele>
        <time>2013-06-02T18:45:36Z</time>
      </trkpt>
      <trkpt lat="59.9596954" lon="17.7028745">
        <ele>35.2255</ele>
        <time>2013-06-02T18:45:37Z</time>
      </trkpt>
      <trkpt lat="59.9596704" lon="17.7027717">
        <ele>37.6287</ele>
        <time>2013-06-02T18:45:38Z</time>
      </trkpt>
      <trkpt lat="59.9596452" lon="17.7026558">
        <ele>38.5901</ele>
        <time>2013-06-02T18:45:39Z</time>
      </trkpt>
      <trkpt lat="59.9596156" lon="17.7025358">
        <ele>38.5901</ele>
        <time>2013-06-02T18:45:40Z</time>
      </trkpt>
      <trkpt lat="59.9595826" lon="17.7024162">
        <ele>38.5901</ele>
        <time>2013-06-02T18:45:41Z</time>
      </trkpt>
      <trkpt lat="59.9595455" lon="17.7022947">
        <ele>39.5513</ele>
        <time>2013-06-02T18:45:42Z</time>
      </trkpt>
      <trkpt lat="59.9595122" lon="17.7021817">
        <ele>42.4354</ele>
        <time>2013-06-02T18:45:43Z</time>
      </trkpt>
      <trkpt lat="59.9594816" lon="17.7020669">
        <ele>46.2806</ele>
        <time>2013-06-02T18:45:44Z</time>
      </trkpt>
      <trkpt lat="59.9594366" lon="17.7019225">
        <ele>46.2806</ele>
        <time>2013-06-02T18:45:45Z</time>
      </trkpt>
      <trkpt lat="59.9593953" lon="17.701797">
        <ele>46.7612</ele>
        <time>2013-06-02T18:45:46Z</time>
      </trkpt>
      <trkpt lat="59.9593554" lon="17.7016594">
        <ele>46.7612</ele>
        <time>2013-06-02T18:45:47Z</time>
      </trkpt>
      <trkpt lat="59.9593385" lon="17.7015309">
        <ele>47.2418</ele>
        <time>2013-06-02T18:45:48Z</time>
      </trkpt>
      <trkpt lat="59.959319" lon="17.7014009">
        <ele>47.7225</ele>
        <time>2013-06-02T18:45:49Z</time>
      </trkpt>
      <trkpt lat="59.9593056" lon="17.7012744">
        <ele>48.2034</ele>
        <time>2013-06-02T18:45:50Z</time>
      </trkpt>
      <trkpt lat="59.959289" lon="17.7011402">
        <ele>47.7225</ele>
        <time>2013-06-02T18:45:51Z</time>
      </trkpt>
      <trkpt lat="59.9592962" lon="17.7010351">
        <ele>50.6066</ele>
        <time>2013-06-02T18:45:52Z</time>
      </trkpt>
      <trkpt lat="59.9592894" lon="17.7009059">
        <ele>51.5679</ele>
        <time>2013-06-02T18:45:53Z</time>
      </trkpt>
      <trkpt lat="59.9592942" lon="17.700778">
        <ele>52.0486</ele>
        <time>2013-06-02T18:45:54Z</time>
      </trkpt>
      <trkpt lat="59.9592771" lon="17.7006181">
        <ele>48.684</ele>
        <time>2013-06-02T18:45:55Z</time>
      </trkpt>
      <trkpt lat="59.9592653" lon="17.7004594">
        <ele>45.3192</ele>
        <time>2013-06-02T18:45:56Z</time>
      </trkpt>
      <trkpt lat="59.9592539" lon="17.7003124">
        <ele>44.358</ele>
        <time>2013-06-02T18:45:57Z</time>
      </trkpt>
      <trkpt lat="59.9592407" lon="17.7001635">
        <ele>42.916</ele>
        <time>2013-06-02T18:45:58Z</time>
      </trkpt>
      <trkpt lat="59.9592161" lon="17.7000192">
        <ele>43.3966</ele>
        <time>2013-06-02T18:45:59Z</time>
      </trkpt>
      <trkpt lat="59.9592049" lon="17.6998792">
        <ele>43.3966</ele>
        <time>2013-06-02T18:46:00Z</time>
      </trkpt>
      <trkpt lat="59.9591948" lon="17.6997362">
        <ele>42.916</ele>
        <time>2013-06-02T18:46:01Z</time>
      </trkpt>
      <trkpt lat="59.9591822" lon="17.699582">
        <ele>41.474</ele>
        <time>2013-06-02T18:46:02Z</time>
      </trkpt>
      <trkpt lat="59.9591652" lon="17.6994277">
        <ele>40.0321</ele>
        <time>2013-06-02T18:46:03Z</time>
      </trkpt>
      <trkpt lat="59.9591475" lon="17.6992769">
        <ele>38.5901</ele>
        <time>2013-06-02T18:46:04Z</time>
      </trkpt>
      <trkpt lat="59.9591345" lon="17.6991376">
        <ele>39.0707</ele>
        <time>2013-06-02T18:46:05Z</time>
      </trkpt>
      <trkpt lat="59.9591212" lon="17.6989972">
        <ele>39.5513</ele>
        <time>2013-06-02T18:46:06Z</time>
      </trkpt>
      <trkpt lat="59.9591056" lon="17.698846">
        <ele>38.5901</ele>
        <time>2013-06-02T18:46:07Z</time>
      </trkpt>
      <trkpt lat="59.9591139" lon="17.6987185">
        <ele>40.5128</ele>
        <time>2013-06-02T18:46:08Z</time>
      </trkpt>
      <trkpt lat="59.9591186" lon="17.6985812">
        <ele>40.0321</ele>
        <time>2013-06-02T18:46:09Z</time>
      </trkpt>
      <trkpt lat="59.9591389" lon="17.6984548">
        <ele>40.9934</ele>
        <time>2013-06-02T18:46:10Z</time>
      </trkpt>
      <trkpt lat="59.9591259" lon="17.6983029">
        <ele>40.9934</ele>
        <time>2013-06-02T18:46:11Z</time>
      </trkpt>
      <trkpt lat="59.9591155" lon="17.6981548">
        <ele>40.5128</ele>
        <time>2013-06-02T18:46:12Z</time>
      </trkpt>
      <trkpt lat="59.9591025" lon="17.6980036">
        <ele>39.5513</ele>
        <time>2013-06-02T18:46:13Z</time>
      </trkpt>
      <trkpt lat="59.9590922" lon="17.6978576">
        <ele>38.5901</ele>
        <time>2013-06-02T18:46:14Z</time>
      </trkpt>
      <trkpt lat="59.9590694" lon="17.6977054">
        <ele>37.1481</ele>
        <time>2013-06-02T18:46:15Z</time>
      </trkpt>
      <trkpt lat="59.9590796" lon="17.6975737">
        <ele>37.6287</ele>
        <time>2013-06-02T18:46:16Z</time>
      </trkpt>
      <trkpt lat="59.9590481" lon="17.6974212">
        <ele>37.1481</ele>
        <time>2013-06-02T18:46:17Z</time>
      </trkpt>
      <trkpt lat="59.9590123" lon="17.6972634">
        <ele>36.6675</ele>
        <time>2013-06-02T18:46:18Z</time>
      </trkpt>
      <trkpt lat="59.9589979" lon="17.6971213">
        <ele>36.6675</ele>
        <time>2013-06-02T18:46:19Z</time>
      </trkpt>
      <trkpt lat="59.9589751" lon="17.6969799">
        <ele>37.1481</ele>
        <time>2013-06-02T18:46:20Z</time>
      </trkpt>
      <trkpt lat="59.9589407" lon="17.6968309">
        <ele>37.1481</ele>
        <time>2013-06-02T18:46:21Z</time>
      </trkpt>
      <trkpt lat="59.9589053" lon="17.6966877">
        <ele>37.6287</ele>
        <time>2013-06-02T18:46:22Z</time>
      </trkpt>
      <trkpt lat="59.9588606" lon="17.6965421">
        <ele>38.1094</ele>
        <time>2013-06-02T18:46:23Z</time>
      </trkpt>
      <trkpt lat="59.9588155" lon="17.6964051">
        <ele>38.5901</ele>
        <time>2013-06-02T18:46:24Z</time>
      </trkpt>
      <trkpt lat="59.9587653" lon="17.6962787">
        <ele>38.5901</ele>
        <time>2013-06-02T18:46:25Z</time>
      </trkpt>
      <trkpt lat="59.9587092" lon="17.6961501">
        <ele>38.5901</ele>
        <time>2013-06-02T18:46:26Z</time>
      </trkpt>
      <trkpt lat="59.9586538" lon="17.6960192">
        <ele>39.0707</ele>
        <time>2013-06-02T18:46:27Z</time>
      </trkpt>
      <trkpt lat="59.9586032" lon="17.6958872">
        <ele>38.5901</ele>
        <time>2013-06-02T18:46:28Z</time>
      </trkpt>
      <trkpt lat="59.9585555" lon="17.6957617">
        <ele>38.5901</ele>
        <time>2013-06-02T18:46:29Z</time>
      </trkpt>
      <trkpt lat="59.9584991" lon="17.6956259">
        <ele>37.1481</ele>
        <time>2013-06-02T18:46:30Z</time>
      </trkpt>
      <trkpt lat="59.958447" lon="17.6955001">
        <ele>37.1481</ele>
        <time>2013-06-02T18:46:31Z</time>
      </trkpt>
      <trkpt lat="59.9583965" lon="17.6953697">
        <ele>36.6675</ele>
        <time>2013-06-02T18:46:32Z</time>
      </trkpt>
      <trkpt lat="59.9583426" lon="17.695239">
        <ele>36.1868</ele>
        <time>2013-06-02T18:46:33Z</time>
      </trkpt>
      <trkpt lat="59.9582929" lon="17.6951182">
        <ele>37.1481</ele>
        <time>2013-06-02T18:46:34Z</time>
      </trkpt>
      <trkpt lat="59.958242" lon="17.694986">
        <ele>37.1481</ele>
        <time>2013-06-02T18:46:35Z</time>
      </trkpt>
      <trkpt lat="59.9582011" lon="17.6948556">
        <ele>36.1868</ele>
        <time>2013-06-02T18:46:36Z</time>
      </trkpt>
      <trkpt lat="59.9581569" lon="17.6947174">
        <ele>34.7449</ele>
        <time>2013-06-02T18:46:37Z</time>
      </trkpt>
      <trkpt lat="59.9581099" lon="17.6945727">
        <ele>32.8223</ele>
        <time>2013-06-02T18:46:38Z</time>
      </trkpt>
      <trkpt lat="59.9580587" lon="17.694437">
        <ele>32.3416</ele>
        <time>2013-06-02T18:46:39Z</time>
      </trkpt>
      <trkpt lat="59.9580103" lon="17.6943066">
        <ele>32.8223</ele>
        <time>2013-06-02T18:46:40Z</time>
      </trkpt>
      <trkpt lat="59.9579649" lon="17.6941692">
        <ele>32.3416</ele>
        <time>2013-06-02T18:46:41Z</time>
      </trkpt>
      <trkpt lat="59.9579225" lon="17.6940372">
        <ele>32.3416</ele>
        <time>2013-06-02T18:46:42Z</time>
      </trkpt>
      <trkpt lat="59.9578755" lon="17.6939101">
        <ele>33.3029</ele>
        <time>2013-06-02T18:46:43Z</time>
      </trkpt>
      <trkpt lat="59.9578261" lon="17.6937788">
        <ele>34.2642</ele>
        <time>2013-06-02T18:46:44Z</time>
      </trkpt>
      <trkpt lat="59.9577795" lon="17.6936467">
        <ele>35.2255</ele>
        <time>2013-06-02T18:46:45Z</time>
      </trkpt>
      <trkpt lat="59.9577297" lon="17.6935071">
        <ele>35.2255</ele>
        <time>2013-06-02T18:46:46Z</time>
      </trkpt>
      <trkpt lat="59.9576749" lon="17.6933711">
        <ele>36.1868</ele>
        <time>2013-06-02T18:46:47Z</time>
      </trkpt>
      <trkpt lat="59.9576219" lon="17.6932253">
        <ele>35.7061</ele>
        <time>2013-06-02T18:46:48Z</time>
      </trkpt>
      <trkpt lat="59.9575719" lon="17.6930831">
        <ele>36.1868</ele>
        <time>2013-06-02T18:46:49Z</time>
      </trkpt>
      <trkpt lat="59.9575302" lon="17.6929581">
        <ele>38.5901</ele>
        <time>2013-06-02T18:46:50Z</time>
      </trkpt>
      <trkpt lat="59.9574764" lon="17.6928071">
        <ele>37.1481</ele>
        <time>2013-06-02T18:46:51Z</time>
      </trkpt>
      <trkpt lat="59.957423" lon="17.6926635">
        <ele>36.6675</ele>
        <time>2013-06-02T18:46:52Z</time>
      </trkpt>
      <trkpt lat="59.9573712" lon="17.692533">
        <ele>38.1094</ele>
        <time>2013-06-02T18:46:53Z</time>
      </trkpt>
      <trkpt lat="59.9573206" lon="17.6923993">
        <ele>39.0707</ele>
        <time>2013-06-02T18:46:54Z</time>
      </trkpt>
      <trkpt lat="59.9572764" lon="17.692267">
        <ele>40.0321</ele>
        <time>2013-06-02T18:46:55Z</time>
      </trkpt>
      <trkpt lat="59.9572283" lon="17.6921289">
        <ele>40.5128</ele>
        <time>2013-06-02T18:46:56Z</time>
      </trkpt>
      <trkpt lat="59.9571781" lon="17.6919967">
        <ele>40.9934</ele>
        <time>2013-06-02T18:46:57Z</time>
      </trkpt>
      <trkpt lat="59.9571306" lon="17.6918615">
        <ele>40.9934</ele>
        <time>2013-06-02T18:46:58Z</time>
      </trkpt>
      <trkpt lat="59.9570828" lon="17.6917241">
        <ele>40.9934</ele>
        <time>2013-06-02T18:46:59Z</time>
      </trkpt>
      <trkpt lat="59.9570337" lon="17.691582">
        <ele>40.5128</ele>
        <time>2013-06-02T18:47:00Z</time>
      </trkpt>
      <trkpt lat="59.9569915" lon="17.6914382">
        <ele>39.0707</ele>
        <time>2013-06-02T18:47:01Z</time>
      </trkpt>
      <trkpt lat="59.9569494" lon="17.6913037">
        <ele>38.5901</ele>
        <time>2013-06-02T18:47:02Z</time>
      </trkpt>
      <trkpt lat="59.9568979" lon="17.6911799">
        <ele>38.5901</ele>
        <time>2013-06-02T18:47:03Z</time>
      </trkpt>
      <trkpt lat="59.9568465" lon="17.6910602">
        <ele>37.6287</ele>
        <time>2013-06-02T18:47:04Z</time>
      </trkpt>
      <trkpt lat="59.9567975" lon="17.6909487">
        <ele>36.1868</ele>
        <time>2013-06-02T18:47:05Z</time>
      </trkpt>
      <trkpt lat="59.9567539" lon="17.6908484">
        <ele>36.6675</ele>
        <time>2013-06-02T18:47:06Z</time>
      </trkpt>
      <trkpt lat="59.9567211" lon="17.6907478">
        <ele>37.1481</ele>
        <time>2013-06-02T18:47:07Z</time>
      </trkpt>
      <trkpt lat="59.9566818" lon="17.6906425">
        <ele>37.6287</ele>
        <time>2013-06-02T18:47:08Z</time>
      </trkpt>
      <trkpt lat="59.9566513" lon="17.6905453">
        <ele>38.5901</ele>
        <time>2013-06-02T18:47:09Z</time>
      </trkpt>
      <trkpt lat="59.9566114" lon="17.6904467">
        <ele>38.5901</ele>
        <time>2013-06-02T18:47:10Z</time>
      </trkpt>
      <trkpt lat="59.9565789" lon="17.6903555">
        <ele>40.5128</ele>
        <time>2013-06-02T18:47:11Z</time>
      </trkpt>
      <trkpt lat="59.9565236" lon="17.6902442">
        <ele>40.5128</ele>
        <time>2013-06-02T18:47:12Z</time>
      </trkpt>
      <trkpt lat="59.9564744" lon="17.6901294">
        <ele>40.5128</ele>
        <time>2013-06-02T18:47:13Z</time>
      </trkpt>
      <trkpt lat="59.9564393" lon="17.6900135">
        <ele>40.0321</ele>
        <time>2013-06-02T18:47:14Z</time>
      </trkpt>
      <trkpt lat="59.9564119" lon="17.689902">
        <ele>40.5128</ele>
        <time>2013-06-02T18:47:15Z</time>
      </trkpt>
      <trkpt lat="59.9563693" lon="17.6897796">
        <ele>40.5128</ele>
        <time>2013-06-02T18:47:16Z</time>
      </trkpt>
      <trkpt lat="59.9563343" lon="17.6896544">
        <ele>39.0707</ele>
        <time>2013-06-02T18:47:17Z</time>
      </trkpt>
      <trkpt lat="59.9562936" lon="17.6895358">
        <ele>38.5901</ele>
        <time>2013-06-02T18:47:18Z</time>
      </trkpt>
      <trkpt lat="59.9562425" lon="17.6894192">
        <ele>37.6287</ele>
        <time>2013-06-02T18:47:19Z</time>
      </trkpt>
      <trkpt lat="59.9561819" lon="17.6892933">
        <ele>36.6675</ele>
        <time>2013-06-02T18:47:20Z</time>
      </trkpt>
      <trkpt lat="59.9561405" lon="17.6891561">
        <ele>35.7061</ele>
        <time>2013-06-02T18:47:21Z</time>
      </trkpt>
      <trkpt lat="59.9561108" lon="17.6890168">
        <ele>35.7061</ele>
        <time>2013-06-02T18:47:22Z</time>
      </trkpt>
      <trkpt lat="59.9560762" lon="17.6888722">
        <ele>35.2255</ele>
        <time>2013-06-02T18:47:23Z</time>
      </trkpt>
      <trkpt lat="59.956081" lon="17.6887565">
        <ele>36.1868</ele>
        <time>2013-06-02T18:47:24Z</time>
      </trkpt>
      <trkpt lat="59.9560639" lon="17.6886199">
        <ele>34.7449</ele>
        <time>2013-06-02T18:47:25Z</time>
      </trkpt>
      <trkpt lat="59.9560488" lon="17.6884833">
        <ele>34.2642</ele>
        <time>2013-06-02T18:47:26Z</time>
      </trkpt>
      <trkpt lat="59.9560414" lon="17.688348">
        <ele>33.3029</ele>
        <time>2013-06-02T18:47:27Z</time>
      </trkpt>
      <trkpt lat="59.9560187" lon="17.6882051">
        <ele>33.3029</ele>
        <time>2013-06-02T18:47:28Z</time>
      </trkpt>
      <trkpt lat="59.9559968" lon="17.6880634">
        <ele>32.8223</ele>
        <time>2013-06-02T18:47:29Z</time>
      </trkpt>
      <trkpt lat="59.9559692" lon="17.6879174">
        <ele>31.8607</ele>
        <time>2013-06-02T18:47:30Z</time>
      </trkpt>
      <trkpt lat="59.9559464" lon="17.6877786">
        <ele>31.8607</ele>
        <time>2013-06-02T18:47:31Z</time>
      </trkpt>
      <trkpt lat="59.9559448" lon="17.6876622">
        <ele>33.7834</ele>
        <time>2013-06-02T18:47:32Z</time>
      </trkpt>
      <trkpt lat="59.9559313" lon="17.6875366">
        <ele>35.2255</ele>
        <time>2013-06-02T18:47:33Z</time>
      </trkpt>
      <trkpt lat="59.9559079" lon="17.6873969">
        <ele>34.7449</ele>
        <time>2013-06-02T18:47:34Z</time>
      </trkpt>
      <trkpt lat="59.9558748" lon="17.6872482">
        <ele>33.3029</ele>
        <time>2013-06-02T18:47:35Z</time>
      </trkpt>
      <trkpt lat="59.9558401" lon="17.687102">
        <ele>32.3416</ele>
        <time>2013-06-02T18:47:36Z</time>
      </trkpt>
      <trkpt lat="59.9558192" lon="17.6869684">
        <ele>32.3416</ele>
        <time>2013-06-02T18:47:37Z</time>
      </trkpt>
      <trkpt lat="59.95581" lon="17.6868437">
        <ele>33.3029</ele>
        <time>2013-06-02T18:47:38Z</time>
      </trkpt>
      <trkpt lat="59.9557896" lon="17.6867016">
        <ele>32.3416</ele>
        <time>2013-06-02T18:47:39Z</time>
      </trkpt>
      <trkpt lat="59.955773" lon="17.6865635">
        <ele>31.8607</ele>
        <time>2013-06-02T18:47:40Z</time>
      </trkpt>
      <trkpt lat="59.9557591" lon="17.6864267">
        <ele>31.8607</ele>
        <time>2013-06-02T18:47:41Z</time>
      </trkpt>
      <trkpt lat="59.9557461" lon="17.6862862">
        <ele>30.8995</ele>
        <time>2013-06-02T18:47:42Z</time>
      </trkpt>
      <trkpt lat="59.9557392" lon="17.6861514">
        <ele>30.8995</ele>
        <time>2013-06-02T18:47:43Z</time>
      </trkpt>
      <trkpt lat="59.9557365" lon="17.6860209">
        <ele>31.8607</ele>
        <time>2013-06-02T18:47:44Z</time>
      </trkpt>
      <trkpt lat="59.9557178" lon="17.6858755">
        <ele>31.3801</ele>
        <time>2013-06-02T18:47:45Z</time>
      </trkpt>
      <trkpt lat="59.9556975" lon="17.685731">
        <ele>31.3801</ele>
        <time>2013-06-02T18:47:46Z</time>
      </trkpt>
      <trkpt lat="59.955691" lon="17.6855982">
        <ele>32.3416</ele>
        <time>2013-06-02T18:47:47Z</time>
      </trkpt>
      <trkpt lat="59.9556826" lon="17.6854595">
        <ele>32.8223</ele>
        <time>2013-06-02T18:47:48Z</time>
      </trkpt>
      <trkpt lat="59.9556689" lon="17.6853155">
        <ele>32.8223</ele>
        <time>2013-06-02T18:47:49Z</time>
      </trkpt>
      <trkpt lat="59.9556612" lon="17.6851758">
        <ele>33.3029</ele>
        <time>2013-06-02T18:47:50Z</time>
      </trkpt>
      <trkpt lat="59.9556387" lon="17.6850266">
        <ele>33.7834</ele>
        <time>2013-06-02T18:47:51Z</time>
      </trkpt>
      <trkpt lat="59.9556241" lon="17.6848833">
        <ele>33.7834</ele>
        <time>2013-06-02T18:47:52Z</time>
      </trkpt>
      <trkpt lat="59.955614" lon="17.6847463">
        <ele>35.2255</ele>
        <time>2013-06-02T18:47:53Z</time>
      </trkpt>
      <trkpt lat="59.9555961" lon="17.6846021">
        <ele>35.2255</ele>
        <time>2013-06-02T18:47:54Z</time>
      </trkpt>
      <trkpt lat="59.955562" lon="17.6844445">
        <ele>33.7834</ele>
        <time>2013-06-02T18:47:55Z</time>
      </trkpt>
      <trkpt lat="59.9555319" lon="17.6842948">
        <ele>33.3029</ele>
        <time>2013-06-02T18:47:56Z</time>
      </trkpt>
      <trkpt lat="59.9554995" lon="17.6841449">
        <ele>33.3029</ele>
        <time>2013-06-02T18:47:57Z</time>
      </trkpt>
      <trkpt lat="59.9554754" lon="17.6840009">
        <ele>33.7834</ele>
        <time>2013-06-02T18:47:58Z</time>
      </trkpt>
      <trkpt lat="59.9554488" lon="17.6838542">
        <ele>33.7834</ele>
        <time>2013-06-02T18:47:59Z</time>
      </trkpt>
      <trkpt lat="59.9554172" lon="17.6837093">
        <ele>34.7449</ele>
        <time>2013-06-02T18:48:00Z</time>
      </trkpt>
      <trkpt lat="59.9553872" lon="17.6835662">
        <ele>35.7061</ele>
        <time>2013-06-02T18:48:01Z</time>
      </trkpt>
      <trkpt lat="59.9553511" lon="17.6834207">
        <ele>36.1868</ele>
        <time>2013-06-02T18:48:02Z</time>
      </trkpt>
      <trkpt lat="59.9553141" lon="17.6832801">
        <ele>37.6287</ele>
        <time>2013-06-02T18:48:03Z</time>
      </trkpt>
      <trkpt lat="59.9552696" lon="17.6831345">
        <ele>37.1481</ele>
        <time>2013-06-02T18:48:04Z</time>
      </trkpt>
      <trkpt lat="59.9552262" lon="17.6829994">
        <ele>39.0707</ele>
        <time>2013-06-02T18:48:05Z</time>
      </trkpt>
      <trkpt lat="59.9551831" lon="17.6828559">
        <ele>39.5513</ele>
        <time>2013-06-02T18:48:06Z</time>
      </trkpt>
      <trkpt lat="59.9551412" lon="17.6827111">
        <ele>38.5901</ele>
        <time>2013-06-02T18:48:07Z</time>
      </trkpt>
      <trkpt lat="59.9551017" lon="17.682567">
        <ele>37.6287</ele>
        <time>2013-06-02T18:48:08Z</time>
      </trkpt>
      <trkpt lat="59.9550578" lon="17.6824297">
        <ele>36.6675</ele>
        <time>2013-06-02T18:48:09Z</time>
      </trkpt>
      <trkpt lat="59.9550238" lon="17.6823098">
        <ele>39.0707</ele>
        <time>2013-06-02T18:48:10Z</time>
      </trkpt>
      <trkpt lat="59.9549914" lon="17.6821788">
        <ele>39.5513</ele>
        <time>2013-06-02T18:48:11Z</time>
      </trkpt>
      <trkpt lat="59.9549438" lon="17.6820562">
        <ele>39.0707</ele>
        <time>2013-06-02T18:48:12Z</time>
      </trkpt>
      <trkpt lat="59.9548738" lon="17.6819484">
        <ele>38.1094</ele>
        <time>2013-06-02T18:48:13Z</time>
      </trkpt>
      <trkpt lat="59.9547976" lon="17.6818443">
        <ele>36.6675</ele>
        <time>2013-06-02T18:48:14Z</time>
      </trkpt>
      <trkpt lat="59.9547177" lon="17.6817387">
        <ele>37.1481</ele>
        <time>2013-06-02T18:48:15Z</time>
      </trkpt>
      <trkpt lat="59.9546673" lon="17.681625">
        <ele>38.1094</ele>
        <time>2013-06-02T18:48:16Z</time>
      </trkpt>
      <trkpt lat="59.9546268" lon="17.6815025">
        <ele>38.1094</ele>
        <time>2013-06-02T18:48:17Z</time>
      </trkpt>
      <trkpt lat="59.9545884" lon="17.6813738">
        <ele>38.1094</ele>
        <time>2013-06-02T18:48:18Z</time>
      </trkpt>
      <trkpt lat="59.9545472" lon="17.6812326">
        <ele>38.1094</ele>
        <time>2013-06-02T18:48:19Z</time>
      </trkpt>
      <trkpt lat="59.9544942" lon="17.6810844">
        <ele>38.5901</ele>
        <time>2013-06-02T18:48:20Z</time>
      </trkpt>
      <trkpt lat="59.954442" lon="17.6809274">
        <ele>37.6287</ele>
        <time>2013-06-02T18:48:21Z</time>
      </trkpt>
      <trkpt lat="59.9543928" lon="17.6807819">
        <ele>37.6287</ele>
        <time>2013-06-02T18:48:22Z</time>
      </trkpt>
      <trkpt lat="59.9543543" lon="17.6806498">
        <ele>38.5901</ele>
        <time>2013-06-02T18:48:23Z</time>
      </trkpt>
      <trkpt lat="59.9543114" lon="17.6805266">
        <ele>40.9934</ele>
        <time>2013-06-02T18:48:24Z</time>
      </trkpt>
      <trkpt lat="59.9542638" lon="17.6804053">
        <ele>43.3966</ele>
        <time>2013-06-02T18:48:25Z</time>
      </trkpt>
      <trkpt lat="59.9542119" lon="17.6802733">
        <ele>43.8773</ele>
        <time>2013-06-02T18:48:26Z</time>
      </trkpt>
      <trkpt lat="59.9541538" lon="17.6801452">
        <ele>45.7999</ele>
        <time>2013-06-02T18:48:27Z</time>
      </trkpt>
      <trkpt lat="59.9541015" lon="17.6800133">
        <ele>46.7612</ele>
        <time>2013-06-02T18:48:28Z</time>
      </trkpt>
      <trkpt lat="59.9540487" lon="17.6798726">
        <ele>46.2806</ele>
        <time>2013-06-02T18:48:29Z</time>
      </trkpt>
      <trkpt lat="59.9540017" lon="17.6797428">
        <ele>46.7612</ele>
        <time>2013-06-02T18:48:30Z</time>
      </trkpt>
      <trkpt lat="59.9539636" lon="17.6796115">
        <ele>46.7612</ele>
        <time>2013-06-02T18:48:31Z</time>
      </trkpt>
      <trkpt lat="59.9539271" lon="17.6794849">
        <ele>46.2806</ele>
        <time>2013-06-02T18:48:32Z</time>
      </trkpt>
      <trkpt lat="59.9538836" lon="17.6793582">
        <ele>46.2806</ele>
        <time>2013-06-02T18:48:33Z</time>
      </trkpt>
      <trkpt lat="59.9538453" lon="17.6792403">
        <ele>46.7612</ele>
        <time>2013-06-02T18:48:34Z</time>
      </trkpt>
      <trkpt lat="59.9538109" lon="17.679121">
        <ele>46.7612</ele>
        <time>2013-06-02T18:48:35Z</time>
      </trkpt>
      <trkpt lat="59.9537731" lon="17.679004">
        <ele>46.7612</ele>
        <time>2013-06-02T18:48:36Z</time>
      </trkpt>
      <trkpt lat="59.953741" lon="17.6788795">
        <ele>45.7999</ele>
        <time>2013-06-02T18:48:37Z</time>
      </trkpt>
      <trkpt lat="59.9537016" lon="17.6787513">
        <ele>44.8386</ele>
        <time>2013-06-02T18:48:38Z</time>
      </trkpt>
      <trkpt lat="59.9536601" lon="17.6786248">
        <ele>43.3966</ele>
        <time>2013-06-02T18:48:39Z</time>
      </trkpt>
      <trkpt lat="59.9536212" lon="17.6785042">
        <ele>41.474</ele>
        <time>2013-06-02T18:48:40Z</time>
      </trkpt>
      <trkpt lat="59.9535873" lon="17.6783871">
        <ele>41.9547</ele>
        <time>2013-06-02T18:48:41Z</time>
      </trkpt>
      <trkpt lat="59.9535441" lon="17.6782745">
        <ele>42.4354</ele>
        <time>2013-06-02T18:48:42Z</time>
      </trkpt>
      <trkpt lat="59.9535019" lon="17.6781463">
        <ele>41.9547</ele>
        <time>2013-06-02T18:48:43Z</time>
      </trkpt>
      <trkpt lat="59.9534508" lon="17.6780271">
        <ele>42.4354</ele>
        <time>2013-06-02T18:48:44Z</time>
      </trkpt>
      <trkpt lat="59.9534014" lon="17.6779045">
        <ele>40.9934</ele>
        <time>2013-06-02T18:48:45Z</time>
      </trkpt>
      <trkpt lat="59.9533646" lon="17.6777925">
        <ele>41.474</ele>
        <time>2013-06-02T18:48:46Z</time>
      </trkpt>
      <trkpt lat="59.9533227" lon="17.6776609">
        <ele>40.0321</ele>
        <time>2013-06-02T18:48:47Z</time>
      </trkpt>
      <trkpt lat="59.9532763" lon="17.6775255">
        <ele>36.6675</ele>
        <time>2013-06-02T18:48:48Z</time>
      </trkpt>
      <trkpt lat="59.9532251" lon="17.6774028">
        <ele>36.6675</ele>
        <time>2013-06-02T18:48:49Z</time>
      </trkpt>
      <trkpt lat="59.953181" lon="17.6772904">
        <ele>36.6675</ele>
        <time>2013-06-02T18:48:50Z</time>
      </trkpt>
      <trkpt lat="59.9531457" lon="17.6771802">
        <ele>37.6287</ele>
        <time>2013-06-02T18:48:51Z</time>
      </trkpt>
      <trkpt lat="59.9531082" lon="17.6770614">
        <ele>36.6675</ele>
        <time>2013-06-02T18:48:52Z</time>
      </trkpt>
      <trkpt lat="59.9530678" lon="17.6769401">
        <ele>36.6675</ele>
        <time>2013-06-02T18:48:53Z</time>
      </trkpt>
      <trkpt lat="59.953021" lon="17.6768039">
        <ele>34.7449</ele>
        <time>2013-06-02T18:48:54Z</time>
      </trkpt>
      <trkpt lat="59.9529692" lon="17.6766682">
        <ele>31.3801</ele>
        <time>2013-06-02T18:48:55Z</time>
      </trkpt>
      <trkpt lat="59.9529101" lon="17.6765542">
        <ele>29.9381</ele>
        <time>2013-06-02T18:48:56Z</time>
      </trkpt>
      <trkpt lat="59.9528542" lon="17.6764384">
        <ele>27.5349</ele>
        <time>2013-06-02T18:48:57Z</time>
      </trkpt>
      <trkpt lat="59.9528024" lon="17.6763208">
        <ele>26.5736</ele>
        <time>2013-06-02T18:48:58Z</time>
      </trkpt>
      <trkpt lat="59.9527532" lon="17.6762027">
        <ele>27.0543</ele>
        <time>2013-06-02T18:48:59Z</time>
      </trkpt>
      <trkpt lat="59.9527065" lon="17.6760868">
        <ele>28.0155</ele>
        <time>2013-06-02T18:49:00Z</time>
      </trkpt>
      <trkpt lat="59.9526655" lon="17.6759769">
        <ele>28.9769</ele>
        <time>2013-06-02T18:49:01Z</time>
      </trkpt>
      <trkpt lat="59.9526182" lon="17.6758684">
        <ele>29.9381</ele>
        <time>2013-06-02T18:49:02Z</time>
      </trkpt>
      <trkpt lat="59.9525679" lon="17.6757586">
        <ele>30.8995</ele>
        <time>2013-06-02T18:49:03Z</time>
      </trkpt>
      <trkpt lat="59.9525306" lon="17.6756594">
        <ele>32.3416</ele>
        <time>2013-06-02T18:49:04Z</time>
      </trkpt>
      <trkpt lat="59.952487" lon="17.6755503">
        <ele>31.3801</ele>
        <time>2013-06-02T18:49:05Z</time>
      </trkpt>
      <trkpt lat="59.9524362" lon="17.6754498">
        <ele>31.8607</ele>
        <time>2013-06-02T18:49:06Z</time>
      </trkpt>
      <trkpt lat="59.9523863" lon="17.6753464">
        <ele>30.4188</ele>
        <time>2013-06-02T18:49:07Z</time>
      </trkpt>
      <trkpt lat="59.9523355" lon="17.6752421">
        <ele>29.9381</ele>
        <time>2013-06-02T18:49:08Z</time>
      </trkpt>
      <trkpt lat="59.952298" lon="17.6751355">
        <ele>28.4962</ele>
        <time>2013-06-02T18:49:09Z</time>
      </trkpt>
      <trkpt lat="59.952259" lon="17.6750284">
        <ele>28.4962</ele>
        <time>2013-06-02T18:49:10Z</time>
      </trkpt>
      <trkpt lat="59.9522213" lon="17.6749179">
        <ele>27.0543</ele>
        <time>2013-06-02T18:49:11Z</time>
      </trkpt>
      <trkpt lat="59.952195" lon="17.6747879">
        <ele>23.209</ele>
        <time>2013-06-02T18:49:12Z</time>
      </trkpt>
      <trkpt lat="59.9521695" lon="17.6746596">
        <ele>20.8057</ele>
        <time>2013-06-02T18:49:13Z</time>
      </trkpt>
      <trkpt lat="59.9521661" lon="17.6745408">
        <ele>19.8444</ele>
        <time>2013-06-02T18:49:14Z</time>
      </trkpt>
      <trkpt lat="59.9521715" lon="17.6744265">
        <ele>19.3638</ele>
        <time>2013-06-02T18:49:15Z</time>
      </trkpt>
      <trkpt lat="59.9521522" lon="17.6742865">
        <ele>18.4023</ele>
        <time>2013-06-02T18:49:16Z</time>
      </trkpt>
      <trkpt lat="59.9521253" lon="17.6741466">
        <ele>15.999</ele>
        <time>2013-06-02T18:49:17Z</time>
      </trkpt>
      <trkpt lat="59.9521104" lon="17.6740026">
        <ele>13.1151</ele>
        <time>2013-06-02T18:49:18Z</time>
      </trkpt>
      <trkpt lat="59.9521185" lon="17.6738867">
        <ele>12.6344</ele>
        <time>2013-06-02T18:49:19Z</time>
      </trkpt>
      <trkpt lat="59.9521154" lon="17.6737468">
        <ele>11.6732</ele>
        <time>2013-06-02T18:49:20Z</time>
      </trkpt>
      <trkpt lat="59.9521209" lon="17.6736194">
        <ele>12.6344</ele>
        <time>2013-06-02T18:49:21Z</time>
      </trkpt>
      <trkpt lat="59.9521094" lon="17.6734779">
        <ele>12.1538</ele>
        <time>2013-06-02T18:49:22Z</time>
      </trkpt>
      <trkpt lat="59.9521051" lon="17.6733407">
        <ele>12.6344</ele>
        <time>2013-06-02T18:49:23Z</time>
      </trkpt>
      <trkpt lat="59.9520895" lon="17.6731914">
        <ele>13.5958</ele>
        <time>2013-06-02T18:49:24Z</time>
      </trkpt>
      <trkpt lat="59.9520684" lon="17.6730468">
        <ele>15.999</ele>
        <time>2013-06-02T18:49:25Z</time>
      </trkpt>
      <trkpt lat="59.9520327" lon="17.6728911">
        <ele>16.9604</ele>
        <time>2013-06-02T18:49:26Z</time>
      </trkpt>
      <trkpt lat="59.9520054" lon="17.672735">
        <ele>17.4412</ele>
        <time>2013-06-02T18:49:27Z</time>
      </trkpt>
      <trkpt lat="59.9519711" lon="17.6725669">
        <ele>17.4412</ele>
        <time>2013-06-02T18:49:28Z</time>
      </trkpt>
      <trkpt lat="59.9519468" lon="17.672406">
        <ele>17.4412</ele>
        <time>2013-06-02T18:49:29Z</time>
      </trkpt>
      <trkpt lat="59.9519182" lon="17.6722415">
        <ele>18.4023</ele>
        <time>2013-06-02T18:49:30Z</time>
      </trkpt>
      <trkpt lat="59.9518875" lon="17.6720719">
        <ele>19.3638</ele>
        <time>2013-06-02T18:49:31Z</time>
      </trkpt>
      <trkpt lat="59.9518639" lon="17.6719042">
        <ele>19.8444</ele>
        <time>2013-06-02T18:49:32Z</time>
      </trkpt>
      <trkpt lat="59.9518612" lon="17.6717412">
        <ele>19.3638</ele>
        <time>2013-06-02T18:49:33Z</time>
      </trkpt>
      <trkpt lat="59.9518549" lon="17.6715722">
        <ele>18.4023</ele>
        <time>2013-06-02T18:49:34Z</time>
      </trkpt>
      <trkpt lat="59.951854" lon="17.6714183">
        <ele>20.325</ele>
        <time>2013-06-02T18:49:35Z</time>
      </trkpt>
      <trkpt lat="59.9518564" lon="17.6712768">
        <ele>21.767</ele>
        <time>2013-06-02T18:49:36Z</time>
      </trkpt>
      <trkpt lat="59.9518364" lon="17.6711334">
        <ele>23.209</ele>
        <time>2013-06-02T18:49:37Z</time>
      </trkpt>
      <trkpt lat="59.9518136" lon="17.6709633">
        <ele>23.6896</ele>
        <time>2013-06-02T18:49:38Z</time>
      </trkpt>
      <trkpt lat="59.9517986" lon="17.6707634">
        <ele>22.2476</ele>
        <time>2013-06-02T18:49:39Z</time>
      </trkpt>
      <trkpt lat="59.9517956" lon="17.6705676">
        <ele>23.6896</ele>
        <time>2013-06-02T18:49:40Z</time>
      </trkpt>
      <trkpt lat="59.9518092" lon="17.6703593">
        <ele>21.2864</ele>
        <time>2013-06-02T18:49:41Z</time>
      </trkpt>
      <trkpt lat="59.9518263" lon="17.6701645">
        <ele>19.3638</ele>
        <time>2013-06-02T18:49:42Z</time>
      </trkpt>
      <trkpt lat="59.9518188" lon="17.6699539">
        <ele>16.9604</ele>
        <time>2013-06-02T18:49:43Z</time>
      </trkpt>
      <trkpt lat="59.9518089" lon="17.6697601">
        <ele>16.4797</ele>
        <time>2013-06-02T18:49:44Z</time>
      </trkpt>
      <trkpt lat="59.9518063" lon="17.6695691">
        <ele>15.999</ele>
        <time>2013-06-02T18:49:45Z</time>
      </trkpt>
      <trkpt lat="59.9518059" lon="17.6693782">
        <ele>14.557</ele>
        <time>2013-06-02T18:49:46Z</time>
      </trkpt>
      <trkpt lat="59.9517904" lon="17.6691899">
        <ele>15.0377</ele>
        <time>2013-06-02T18:49:47Z</time>
      </trkpt>
      <trkpt lat="59.9517888" lon="17.6690158">
        <ele>14.557</ele>
        <time>2013-06-02T18:49:48Z</time>
      </trkpt>
      <trkpt lat="59.9517902" lon="17.6688587">
        <ele>15.5184</ele>
        <time>2013-06-02T18:49:49Z</time>
      </trkpt>
      <trkpt lat="59.9517961" lon="17.668701">
        <ele>14.557</ele>
        <time>2013-06-02T18:49:50Z</time>
      </trkpt>
      <trkpt lat="59.9517925" lon="17.6685636">
        <ele>15.5184</ele>
        <time>2013-06-02T18:49:51Z</time>
      </trkpt>
      <trkpt lat="59.951787" lon="17.6684242">
        <ele>15.999</ele>
        <time>2013-06-02T18:49:52Z</time>
      </trkpt>
      <trkpt lat="59.9517723" lon="17.6682922">
        <ele>16.9604</ele>
        <time>2013-06-02T18:49:53Z</time>
      </trkpt>
      <trkpt lat="59.9517374" lon="17.668161">
        <ele>16.4797</ele>
        <time>2013-06-02T18:49:54Z</time>
      </trkpt>
      <trkpt lat="59.9516784" lon="17.6680596">
        <ele>16.9604</ele>
        <time>2013-06-02T18:49:55Z</time>
      </trkpt>
      <trkpt lat="59.9515959" lon="17.6679932">
        <ele>18.8831</ele>
        <time>2013-06-02T18:49:56Z</time>
      </trkpt>
      <trkpt lat="59.9515024" lon="17.6679731">
        <ele>20.325</ele>
        <time>2013-06-02T18:49:57Z</time>
      </trkpt>
      <trkpt lat="59.9514073" lon="17.6679843">
        <ele>20.325</ele>
        <time>2013-06-02T18:49:58Z</time>
      </trkpt>
      <trkpt lat="59.9513184" lon="17.6679932">
        <ele>19.8444</ele>
        <time>2013-06-02T18:49:59Z</time>
      </trkpt>
      <trkpt lat="59.9512344" lon="17.6679932">
        <ele>18.4023</ele>
        <time>2013-06-02T18:50:00Z</time>
      </trkpt>
      <trkpt lat="59.95115" lon="17.6680259">
        <ele>18.8831</ele>
        <time>2013-06-02T18:50:01Z</time>
      </trkpt>
      <trkpt lat="59.951053" lon="17.6680612">
        <ele>17.4412</ele>
        <time>2013-06-02T18:50:02Z</time>
      </trkpt>
      <trkpt lat="59.9509645" lon="17.6680932">
        <ele>17.4412</ele>
        <time>2013-06-02T18:50:03Z</time>
      </trkpt>
      <trkpt lat="59.9508847" lon="17.668121">
        <ele>18.8831</ele>
        <time>2013-06-02T18:50:04Z</time>
      </trkpt>
      <trkpt lat="59.9508087" lon="17.6681496">
        <ele>20.325</ele>
        <time>2013-06-02T18:50:05Z</time>
      </trkpt>
      <trkpt lat="59.9507292" lon="17.6681783">
        <ele>21.767</ele>
        <time>2013-06-02T18:50:06Z</time>
      </trkpt>
      <trkpt lat="59.9506507" lon="17.6681942">
        <ele>21.767</ele>
        <time>2013-06-02T18:50:07Z</time>
      </trkpt>
      <trkpt lat="59.9505709" lon="17.6682041">
        <ele>22.2476</ele>
        <time>2013-06-02T18:50:08Z</time>
      </trkpt>
      <trkpt lat="59.9504906" lon="17.668212">
        <ele>23.209</ele>
        <time>2013-06-02T18:50:09Z</time>
      </trkpt>
      <trkpt lat="59.9504104" lon="17.6682158">
        <ele>23.6896</ele>
        <time>2013-06-02T18:50:10Z</time>
      </trkpt>
      <trkpt lat="59.9503305" lon="17.6682114">
        <ele>23.6896</ele>
        <time>2013-06-02T18:50:11Z</time>
      </trkpt>
      <trkpt lat="59.9502516" lon="17.6682029">
        <ele>24.1703</ele>
        <time>2013-06-02T18:50:12Z</time>
      </trkpt>
      <trkpt lat="59.9501726" lon="17.6681901">
        <ele>24.651</ele>
        <time>2013-06-02T18:50:13Z</time>
      </trkpt>
      <trkpt lat="59.9500937" lon="17.6681729">
        <ele>24.651</ele>
        <time>2013-06-02T18:50:14Z</time>
      </trkpt>
      <trkpt lat="59.9500141" lon="17.6681512">
        <ele>25.1317</ele>
        <time>2013-06-02T18:50:15Z</time>
      </trkpt>
      <trkpt lat="59.949934" lon="17.6681279">
        <ele>25.6123</ele>
        <time>2013-06-02T18:50:16Z</time>
      </trkpt>
      <trkpt lat="59.9498529" lon="17.6680993">
        <ele>25.6123</ele>
        <time>2013-06-02T18:50:17Z</time>
      </trkpt>
      <trkpt lat="59.9497712" lon="17.6680699">
        <ele>26.0929</ele>
        <time>2013-06-02T18:50:18Z</time>
      </trkpt>
      <trkpt lat="59.9496887" lon="17.6680381">
        <ele>27.0543</ele>
        <time>2013-06-02T18:50:19Z</time>
      </trkpt>
      <trkpt lat="59.9496061" lon="17.6680076">
        <ele>27.5349</ele>
        <time>2013-06-02T18:50:20Z</time>
      </trkpt>
      <trkpt lat="59.9495259" lon="17.6679364">
        <ele>26.0929</ele>
        <time>2013-06-02T18:50:21Z</time>
      </trkpt>
      <trkpt lat="59.949444" lon="17.6678786">
        <ele>25.1317</ele>
        <time>2013-06-02T18:50:22Z</time>
      </trkpt>
      <trkpt lat="59.9493644" lon="17.6678209">
        <ele>24.651</ele>
        <time>2013-06-02T18:50:23Z</time>
      </trkpt>
      <trkpt lat="59.9492872" lon="17.6677626">
        <ele>24.1703</ele>
        <time>2013-06-02T18:50:24Z</time>
      </trkpt>
      <trkpt lat="59.9492088" lon="17.6677073">
        <ele>23.6896</ele>
        <time>2013-06-02T18:50:25Z</time>
      </trkpt>
      <trkpt lat="59.9491334" lon="17.6676544">
        <ele>23.6896</ele>
        <time>2013-06-02T18:50:26Z</time>
      </trkpt>
      <trkpt lat="59.9490581" lon="17.6676007">
        <ele>22.7283</ele>
        <time>2013-06-02T18:50:27Z</time>
      </trkpt>
      <trkpt lat="59.948982" lon="17.6675498">
        <ele>21.767</ele>
        <time>2013-06-02T18:50:28Z</time>
      </trkpt>
      <trkpt lat="59.948905" lon="17.6675006">
        <ele>21.2864</ele>
        <time>2013-06-02T18:50:29Z</time>
      </trkpt>
      <trkpt lat="59.9488288" lon="17.6674525">
        <ele>20.325</ele>
        <time>2013-06-02T18:50:30Z</time>
      </trkpt>
      <trkpt lat="59.9487502" lon="17.6673973">
        <ele>19.3638</ele>
        <time>2013-06-02T18:50:31Z</time>
      </trkpt>
      <trkpt lat="59.948673" lon="17.6673556">
        <ele>19.8444</ele>
        <time>2013-06-02T18:50:32Z</time>
      </trkpt>
      <trkpt lat="59.9485957" lon="17.6673147">
        <ele>20.325</ele>
        <time>2013-06-02T18:50:33Z</time>
      </trkpt>
      <trkpt lat="59.9485197" lon="17.6672753">
        <ele>20.325</ele>
        <time>2013-06-02T18:50:34Z</time>
      </trkpt>
      <trkpt lat="59.9484442" lon="17.6672364">
        <ele>20.8057</ele>
        <time>2013-06-02T18:50:35Z</time>
      </trkpt>
      <trkpt lat="59.9483694" lon="17.6671985">
        <ele>20.8057</ele>
        <time>2013-06-02T18:50:36Z</time>
      </trkpt>
      <trkpt lat="59.9482954" lon="17.6671603">
        <ele>21.2864</ele>
        <time>2013-06-02T18:50:37Z</time>
      </trkpt>
      <trkpt lat="59.9482208" lon="17.6671202">
        <ele>21.767</ele>
        <time>2013-06-02T18:50:38Z</time>
      </trkpt>
      <trkpt lat="59.9481474" lon="17.6670804">
        <ele>22.2476</ele>
        <time>2013-06-02T18:50:39Z</time>
      </trkpt>
      <trkpt lat="59.9480746" lon="17.6670442">
        <ele>22.2476</ele>
        <time>2013-06-02T18:50:40Z</time>
      </trkpt>
      <trkpt lat="59.9480013" lon="17.6670093">
        <ele>22.7283</ele>
        <time>2013-06-02T18:50:41Z</time>
      </trkpt>
      <trkpt lat="59.9479306" lon="17.6669736">
        <ele>23.209</ele>
        <time>2013-06-02T18:50:42Z</time>
      </trkpt>
      <trkpt lat="59.9478606" lon="17.6669402">
        <ele>24.1703</ele>
        <time>2013-06-02T18:50:43Z</time>
      </trkpt>
      <trkpt lat="59.9477906" lon="17.6669085">
        <ele>24.651</ele>
        <time>2013-06-02T18:50:44Z</time>
      </trkpt>
      <trkpt lat="59.9477207" lon="17.6668749">
        <ele>25.1317</ele>
        <time>2013-06-02T18:50:45Z</time>
      </trkpt>
      <trkpt lat="59.9476524" lon="17.6668402">
        <ele>26.0929</ele>
        <time>2013-06-02T18:50:46Z</time>
      </trkpt>
      <trkpt lat="59.9475794" lon="17.6668076">
        <ele>26.5736</ele>
        <time>2013-06-02T18:50:47Z</time>
      </trkpt>
      <trkpt lat="59.9475058" lon="17.6667766">
        <ele>26.5736</ele>
        <time>2013-06-02T18:50:48Z</time>
      </trkpt>
      <trkpt lat="59.9474311" lon="17.6667454">
        <ele>27.0543</ele>
        <time>2013-06-02T18:50:49Z</time>
      </trkpt>
      <trkpt lat="59.9473565" lon="17.6667138">
        <ele>27.5349</ele>
        <time>2013-06-02T18:50:50Z</time>
      </trkpt>
      <trkpt lat="59.9472814" lon="17.6666821">
        <ele>28.0155</ele>
        <time>2013-06-02T18:50:51Z</time>
      </trkpt>
      <trkpt lat="59.9472054" lon="17.6666498">
        <ele>28.4962</ele>
        <time>2013-06-02T18:50:52Z</time>
      </trkpt>
      <trkpt lat="59.9471314" lon="17.6666106">
        <ele>27.0543</ele>
        <time>2013-06-02T18:50:53Z</time>
      </trkpt>
      <trkpt lat="59.9470568" lon="17.6665749">
        <ele>27.0543</ele>
        <time>2013-06-02T18:50:54Z</time>
      </trkpt>
      <trkpt lat="59.9469806" lon="17.6665392">
        <ele>26.5736</ele>
        <time>2013-06-02T18:50:55Z</time>
      </trkpt>
      <trkpt lat="59.946904" lon="17.6665069">
        <ele>26.5736</ele>
        <time>2013-06-02T18:50:56Z</time>
      </trkpt>
      <trkpt lat="59.9468251" lon="17.6664805">
        <ele>26.5736</ele>
        <time>2013-06-02T18:50:57Z</time>
      </trkpt>
      <trkpt lat="59.9467469" lon="17.6664605">
        <ele>26.5736</ele>
        <time>2013-06-02T18:50:58Z</time>
      </trkpt>
      <trkpt lat="59.9466676" lon="17.666448">
        <ele>26.0929</ele>
        <time>2013-06-02T18:50:59Z</time>
      </trkpt>
      <trkpt lat="59.9465856" lon="17.6664387">
        <ele>25.6123</ele>
        <time>2013-06-02T18:51:00Z</time>
      </trkpt>
      <trkpt lat="59.9465039" lon="17.666419">
        <ele>25.1317</ele>
        <time>2013-06-02T18:51:01Z</time>
      </trkpt>
      <trkpt lat="59.946424" lon="17.6663849">
        <ele>24.651</ele>
        <time>2013-06-02T18:51:02Z</time>
      </trkpt>
      <trkpt lat="59.9463456" lon="17.6663368">
        <ele>24.1703</ele>
        <time>2013-06-02T18:51:03Z</time>
      </trkpt>
      <trkpt lat="59.9462709" lon="17.6662807">
        <ele>24.1703</ele>
        <time>2013-06-02T18:51:04Z</time>
      </trkpt>
      <trkpt lat="59.9461982" lon="17.6662277">
        <ele>24.1703</ele>
        <time>2013-06-02T18:51:05Z</time>
      </trkpt>
      <trkpt lat="59.946127" lon="17.6661844">
        <ele>25.1317</ele>
        <time>2013-06-02T18:51:06Z</time>
      </trkpt>
      <trkpt lat="59.9460498" lon="17.6661534">
        <ele>25.1317</ele>
        <time>2013-06-02T18:51:07Z</time>
      </trkpt>
      <trkpt lat="59.9459711" lon="17.6661284">
        <ele>25.1317</ele>
        <time>2013-06-02T18:51:08Z</time>
      </trkpt>
      <trkpt lat="59.9458912" lon="17.6661031">
        <ele>25.1317</ele>
        <time>2013-06-02T18:51:09Z</time>
      </trkpt>
      <trkpt lat="59.9458144" lon="17.666073">
        <ele>24.651</ele>
        <time>2013-06-02T18:51:10Z</time>
      </trkpt>
      <trkpt lat="59.9457382" lon="17.6660402">
        <ele>24.1703</ele>
        <time>2013-06-02T18:51:11Z</time>
      </trkpt>
      <trkpt lat="59.9456623" lon="17.6660068">
        <ele>23.209</ele>
        <time>2013-06-02T18:51:12Z</time>
      </trkpt>
      <trkpt lat="59.9455871" lon="17.6659761">
        <ele>23.209</ele>
        <time>2013-06-02T18:51:13Z</time>
      </trkpt>
      <trkpt lat="59.9455113" lon="17.665948">
        <ele>22.7283</ele>
        <time>2013-06-02T18:51:14Z</time>
      </trkpt>
      <trkpt lat="59.9454344" lon="17.6659207">
        <ele>22.7283</ele>
        <time>2013-06-02T18:51:15Z</time>
      </trkpt>
      <trkpt lat="59.9453574" lon="17.6658917">
        <ele>22.7283</ele>
        <time>2013-06-02T18:51:16Z</time>
      </trkpt>
      <trkpt lat="59.9452841" lon="17.6658611">
        <ele>22.7283</ele>
        <time>2013-06-02T18:51:17Z</time>
      </trkpt>
      <trkpt lat="59.9452089" lon="17.665832">
        <ele>22.7283</ele>
        <time>2013-06-02T18:51:18Z</time>
      </trkpt>
      <trkpt lat="59.9451348" lon="17.6658042">
        <ele>22.7283</ele>
        <time>2013-06-02T18:51:19Z</time>
      </trkpt>
      <trkpt lat="59.9450603" lon="17.6657736">
        <ele>22.7283</ele>
        <time>2013-06-02T18:51:20Z</time>
      </trkpt>
      <trkpt lat="59.9449857" lon="17.6657414">
        <ele>22.7283</ele>
        <time>2013-06-02T18:51:21Z</time>
      </trkpt>
      <trkpt lat="59.944907" lon="17.6657093">
        <ele>21.767</ele>
        <time>2013-06-02T18:51:22Z</time>
      </trkpt>
      <trkpt lat="59.9448283" lon="17.6656782">
        <ele>21.2864</ele>
        <time>2013-06-02T18:51:23Z</time>
      </trkpt>
      <trkpt lat="59.9447552" lon="17.6656452">
        <ele>22.2476</ele>
        <time>2013-06-02T18:51:24Z</time>
      </trkpt>
      <trkpt lat="59.944679" lon="17.6656126">
        <ele>21.767</ele>
        <time>2013-06-02T18:51:25Z</time>
      </trkpt>
      <trkpt lat="59.9446025" lon="17.6655819">
        <ele>21.767</ele>
        <time>2013-06-02T18:51:26Z</time>
      </trkpt>
      <trkpt lat="59.9445266" lon="17.6655524">
        <ele>21.767</ele>
        <time>2013-06-02T18:51:27Z</time>
      </trkpt>
      <trkpt lat="59.9444485" lon="17.6655234">
        <ele>21.767</ele>
        <time>2013-06-02T18:51:28Z</time>
      </trkpt>
      <trkpt lat="59.9443696" lon="17.6654922">
        <ele>21.767</ele>
        <time>2013-06-02T18:51:29Z</time>
      </trkpt>
      <trkpt lat="59.944291" lon="17.6654585">
        <ele>21.2864</ele>
        <time>2013-06-02T18:51:30Z</time>
      </trkpt>
      <trkpt lat="59.9442121" lon="17.665423">
        <ele>21.2864</ele>
        <time>2013-06-02T18:51:31Z</time>
      </trkpt>
      <trkpt lat="59.9441332" lon="17.6653873">
        <ele>21.2864</ele>
        <time>2013-06-02T18:51:32Z</time>
      </trkpt>
      <trkpt lat="59.9440558" lon="17.6653442">
        <ele>20.8057</ele>
        <time>2013-06-02T18:51:33Z</time>
      </trkpt>
      <trkpt lat="59.9439764" lon="17.665297">
        <ele>20.325</ele>
        <time>2013-06-02T18:51:34Z</time>
      </trkpt>
      <trkpt lat="59.9438959" lon="17.6652521">
        <ele>19.3638</ele>
        <time>2013-06-02T18:51:35Z</time>
      </trkpt>
      <trkpt lat="59.9438176" lon="17.6652078">
        <ele>19.3638</ele>
        <time>2013-06-02T18:51:36Z</time>
      </trkpt>
      <trkpt lat="59.9437425" lon="17.6651587">
        <ele>19.3638</ele>
        <time>2013-06-02T18:51:37Z</time>
      </trkpt>
      <trkpt lat="59.943668" lon="17.6651085">
        <ele>19.3638</ele>
        <time>2013-06-02T18:51:38Z</time>
      </trkpt>
      <trkpt lat="59.9435934" lon="17.6650598">
        <ele>19.8444</ele>
        <time>2013-06-02T18:51:39Z</time>
      </trkpt>
      <trkpt lat="59.9435208" lon="17.6650026">
        <ele>18.8831</ele>
        <time>2013-06-02T18:51:40Z</time>
      </trkpt>
      <trkpt lat="59.9434484" lon="17.6649489">
        <ele>18.8831</ele>
        <time>2013-06-02T18:51:41Z</time>
      </trkpt>
      <trkpt lat="59.9433779" lon="17.6648902">
        <ele>17.4412</ele>
        <time>2013-06-02T18:51:42Z</time>
      </trkpt>
      <trkpt lat="59.9433073" lon="17.6648318">
        <ele>16.9604</ele>
        <time>2013-06-02T18:51:43Z</time>
      </trkpt>
      <trkpt lat="59.943236" lon="17.6647697">
        <ele>16.4797</ele>
        <time>2013-06-02T18:51:44Z</time>
      </trkpt>
      <trkpt lat="59.943165" lon="17.6647084">
        <ele>16.9604</ele>
        <time>2013-06-02T18:51:45Z</time>
      </trkpt>
      <trkpt lat="59.943095" lon="17.6646436">
        <ele>16.9604</ele>
        <time>2013-06-02T18:51:46Z</time>
      </trkpt>
      <trkpt lat="59.9430243" lon="17.6645826">
        <ele>17.9218</ele>
        <time>2013-06-02T18:51:47Z</time>
      </trkpt>
      <trkpt lat="59.9429547" lon="17.6645256">
        <ele>18.8831</ele>
        <time>2013-06-02T18:51:48Z</time>
      </trkpt>
      <trkpt lat="59.942885" lon="17.6644652">
        <ele>19.8444</ele>
        <time>2013-06-02T18:51:49Z</time>
      </trkpt>
      <trkpt lat="59.9428131" lon="17.664404">
        <ele>20.8057</ele>
        <time>2013-06-02T18:51:50Z</time>
      </trkpt>
      <trkpt lat="59.9427448" lon="17.6643346">
        <ele>19.3638</ele>
        <time>2013-06-02T18:51:51Z</time>
      </trkpt>
      <trkpt lat="59.9426767" lon="17.6642657">
        <ele>20.325</ele>
        <time>2013-06-02T18:51:52Z</time>
      </trkpt>
      <trkpt lat="59.9426026" lon="17.6641935">
        <ele>19.8444</ele>
        <time>2013-06-02T18:51:53Z</time>
      </trkpt>
      <trkpt lat="59.942538" lon="17.6641078">
        <ele>19.3638</ele>
        <time>2013-06-02T18:51:54Z</time>
      </trkpt>
      <trkpt lat="59.9424717" lon="17.6640434">
        <ele>20.325</ele>
        <time>2013-06-02T18:51:55Z</time>
      </trkpt>
      <trkpt lat="59.9424065" lon="17.6639517">
        <ele>20.325</ele>
        <time>2013-06-02T18:51:56Z</time>
      </trkpt>
      <trkpt lat="59.9423483" lon="17.6638403">
        <ele>17.9218</ele>
        <time>2013-06-02T18:51:57Z</time>
      </trkpt>
      <trkpt lat="59.9422861" lon="17.6637383">
        <ele>16.9604</ele>
        <time>2013-06-02T18:51:58Z</time>
      </trkpt>
      <trkpt lat="59.9422233" lon="17.6636408">
        <ele>15.999</ele>
        <time>2013-06-02T18:51:59Z</time>
      </trkpt>
      <trkpt lat="59.9421589" lon="17.6635467">
        <ele>15.999</ele>
        <time>2013-06-02T18:52:00Z</time>
      </trkpt>
      <trkpt lat="59.9420936" lon="17.6634501">
        <ele>15.999</ele>
        <time>2013-06-02T18:52:01Z</time>
      </trkpt>
      <trkpt lat="59.9420313" lon="17.6633519">
        <ele>15.0377</ele>
        <time>2013-06-02T18:52:02Z</time>
      </trkpt>
      <trkpt lat="59.9419674" lon="17.6632531">
        <ele>14.557</ele>
        <time>2013-06-02T18:52:03Z</time>
      </trkpt>
      <trkpt lat="59.9419036" lon="17.6631541">
        <ele>14.557</ele>
        <time>2013-06-02T18:52:04Z</time>
      </trkpt>
      <trkpt lat="59.9418435" lon="17.6630508">
        <ele>14.557</ele>
        <time>2013-06-02T18:52:05Z</time>
      </trkpt>
      <trkpt lat="59.9417766" lon="17.6629432">
        <ele>14.0764</ele>
        <time>2013-06-02T18:52:06Z</time>
      </trkpt>
      <trkpt lat="59.9417077" lon="17.6628182">
        <ele>12.6344</ele>
        <time>2013-06-02T18:52:07Z</time>
      </trkpt>
      <trkpt lat="59.9416388" lon="17.6627031">
        <ele>12.1538</ele>
        <time>2013-06-02T18:52:08Z</time>
      </trkpt>
      <trkpt lat="59.9415683" lon="17.6625955">
        <ele>13.1151</ele>
        <time>2013-06-02T18:52:09Z</time>
      </trkpt>
      <trkpt lat="59.9414925" lon="17.662489">
        <ele>12.6344</ele>
        <time>2013-06-02T18:52:10Z</time>
      </trkpt>
      <trkpt lat="59.9414175" lon="17.6623955">
        <ele>14.557</ele>
        <time>2013-06-02T18:52:11Z</time>
      </trkpt>
      <trkpt lat="59.941339" lon="17.6622999">
        <ele>13.5958</ele>
        <time>2013-06-02T18:52:12Z</time>
      </trkpt>
      <trkpt lat="59.941256" lon="17.6622149">
        <ele>15.0377</ele>
        <time>2013-06-02T18:52:13Z</time>
      </trkpt>
      <trkpt lat="59.9411747" lon="17.6621351">
        <ele>15.0377</ele>
        <time>2013-06-02T18:52:14Z</time>
      </trkpt>
      <trkpt lat="59.9410975" lon="17.6620714">
        <ele>15.5184</ele>
        <time>2013-06-02T18:52:15Z</time>
      </trkpt>
      <trkpt lat="59.9410105" lon="17.6620237">
        <ele>15.0377</ele>
        <time>2013-06-02T18:52:16Z</time>
      </trkpt>
      <trkpt lat="59.9409253" lon="17.6619967">
        <ele>15.0377</ele>
        <time>2013-06-02T18:52:17Z</time>
      </trkpt>
      <trkpt lat="59.940839" lon="17.6619714">
        <ele>15.0377</ele>
        <time>2013-06-02T18:52:18Z</time>
      </trkpt>
      <trkpt lat="59.9407489" lon="17.6619506">
        <ele>14.557</ele>
        <time>2013-06-02T18:52:19Z</time>
      </trkpt>
      <trkpt lat="59.9406612" lon="17.6619035">
        <ele>13.5958</ele>
        <time>2013-06-02T18:52:20Z</time>
      </trkpt>
      <trkpt lat="59.9405774" lon="17.6618282">
        <ele>12.1538</ele>
        <time>2013-06-02T18:52:21Z</time>
      </trkpt>
      <trkpt lat="59.9405074" lon="17.6617176">
        <ele>11.6732</ele>
        <time>2013-06-02T18:52:22Z</time>
      </trkpt>
      <trkpt lat="59.9404432" lon="17.6616011">
        <ele>12.1538</ele>
        <time>2013-06-02T18:52:23Z</time>
      </trkpt>
      <trkpt lat="59.9403873" lon="17.6614478">
        <ele>12.1538</ele>
        <time>2013-06-02T18:52:24Z</time>
      </trkpt>
      <trkpt lat="59.9403619" lon="17.6612745">
        <ele>12.1538</ele>
        <time>2013-06-02T18:52:25Z</time>
      </trkpt>
      <trkpt lat="59.9403446" lon="17.6610795">
        <ele>11.6732</ele>
        <time>2013-06-02T18:52:26Z</time>
      </trkpt>
      <trkpt lat="59.9403743" lon="17.6608538">
        <ele>11.6732</ele>
        <time>2013-06-02T18:52:27Z</time>
      </trkpt>
      <trkpt lat="59.9404245" lon="17.6606774">
        <ele>11.6732</ele>
        <time>2013-06-02T18:52:28Z</time>
      </trkpt>
      <trkpt lat="59.9404776" lon="17.6605267">
        <ele>14.0764</ele>
        <time>2013-06-02T18:52:29Z</time>
      </trkpt>
      <trkpt lat="59.9405167" lon="17.6603665">
        <ele>16.4797</ele>
        <time>2013-06-02T18:52:30Z</time>
      </trkpt>
      <trkpt lat="59.9405355" lon="17.6602167">
        <ele>18.8831</ele>
        <time>2013-06-02T18:52:31Z</time>
      </trkpt>
      <trkpt lat="59.940535" lon="17.6600533">
        <ele>19.8444</ele>
        <time>2013-06-02T18:52:32Z</time>
      </trkpt>
      <trkpt lat="59.9405228" lon="17.6599459">
        <ele>23.6896</ele>
        <time>2013-06-02T18:52:33Z</time>
      </trkpt>
      <trkpt lat="59.9404897" lon="17.6598325">
        <ele>24.651</ele>
        <time>2013-06-02T18:52:34Z</time>
      </trkpt>
      <trkpt lat="59.9404804" lon="17.6597528">
        <ele>25.1317</ele>
        <time>2013-06-02T18:52:35Z</time>
      </trkpt>
      <trkpt lat="59.9404438" lon="17.6596709">
        <ele>26.5736</ele>
        <time>2013-06-02T18:52:36Z</time>
      </trkpt>
      <trkpt lat="59.9403816" lon="17.6594451">
        <ele>26.0929</ele>
        <time>2013-06-02T18:52:37Z</time>
      </trkpt>
      <trkpt lat="59.940361" lon="17.6592636">
        <ele>24.651</ele>
        <time>2013-06-02T18:52:38Z</time>
      </trkpt>
      <trkpt lat="59.940341" lon="17.6590871">
        <ele>23.6896</ele>
        <time>2013-06-02T18:52:39Z</time>
      </trkpt>
      <trkpt lat="59.9403115" lon="17.6589137">
        <ele>21.2864</ele>
        <time>2013-06-02T18:52:40Z</time>
      </trkpt>
      <trkpt lat="59.9402877" lon="17.6587473">
        <ele>19.8444</ele>
        <time>2013-06-02T18:52:41Z</time>
      </trkpt>
      <trkpt lat="59.9402548" lon="17.6585756">
        <ele>18.8831</ele>
        <time>2013-06-02T18:52:42Z</time>
      </trkpt>
      <trkpt lat="59.9402195" lon="17.658426">
        <ele>18.8831</ele>
        <time>2013-06-02T18:52:43Z</time>
      </trkpt>
      <trkpt lat="59.9401806" lon="17.6582664">
        <ele>17.9218</ele>
        <time>2013-06-02T18:52:44Z</time>
      </trkpt>
      <trkpt lat="59.9401428" lon="17.65812">
        <ele>17.9218</ele>
        <time>2013-06-02T18:52:45Z</time>
      </trkpt>
      <trkpt lat="59.9401048" lon="17.6579652">
        <ele>16.9604</ele>
        <time>2013-06-02T18:52:46Z</time>
      </trkpt>
      <trkpt lat="59.9400709" lon="17.6578221">
        <ele>16.9604</ele>
        <time>2013-06-02T18:52:47Z</time>
      </trkpt>
      <trkpt lat="59.9400376" lon="17.6576786">
        <ele>16.9604</ele>
        <time>2013-06-02T18:52:48Z</time>
      </trkpt>
      <trkpt lat="59.940003" lon="17.65753">
        <ele>15.999</ele>
        <time>2013-06-02T18:52:49Z</time>
      </trkpt>
      <trkpt lat="59.939971" lon="17.657388">
        <ele>15.999</ele>
        <time>2013-06-02T18:52:50Z</time>
      </trkpt>
      <trkpt lat="59.9399429" lon="17.6572575">
        <ele>16.4797</ele>
        <time>2013-06-02T18:52:51Z</time>
      </trkpt>
      <trkpt lat="59.9399108" lon="17.6571171">
        <ele>15.999</ele>
        <time>2013-06-02T18:52:52Z</time>
      </trkpt>
      <trkpt lat="59.9398781" lon="17.6569741">
        <ele>16.4797</ele>
        <time>2013-06-02T18:52:53Z</time>
      </trkpt>
      <trkpt lat="59.9398443" lon="17.656823">
        <ele>15.999</ele>
        <time>2013-06-02T18:52:54Z</time>
      </trkpt>
      <trkpt lat="59.9398099" lon="17.6566643">
        <ele>15.5184</ele>
        <time>2013-06-02T18:52:55Z</time>
      </trkpt>
      <trkpt lat="59.9397797" lon="17.6565177">
        <ele>15.0377</ele>
        <time>2013-06-02T18:52:56Z</time>
      </trkpt>
      <trkpt lat="59.9397528" lon="17.656381">
        <ele>15.0377</ele>
        <time>2013-06-02T18:52:57Z</time>
      </trkpt>
      <trkpt lat="59.9397248" lon="17.6562412">
        <ele>15.0377</ele>
        <time>2013-06-02T18:52:58Z</time>
      </trkpt>
      <trkpt lat="59.9396977" lon="17.6561106">
        <ele>15.0377</ele>
        <time>2013-06-02T18:52:59Z</time>
      </trkpt>
      <trkpt lat="59.9396694" lon="17.6559791">
        <ele>15.0377</ele>
        <time>2013-06-02T18:53:00Z</time>
      </trkpt>
      <trkpt lat="59.9396398" lon="17.6558403">
        <ele>14.0764</ele>
        <time>2013-06-02T18:53:01Z</time>
      </trkpt>
      <trkpt lat="59.9396119" lon="17.6557071">
        <ele>13.5958</ele>
        <time>2013-06-02T18:53:02Z</time>
      </trkpt>
      <trkpt lat="59.939585" lon="17.6555786">
        <ele>14.0764</ele>
        <time>2013-06-02T18:53:03Z</time>
      </trkpt>
      <trkpt lat="59.9395568" lon="17.6554454">
        <ele>13.5958</ele>
        <time>2013-06-02T18:53:04Z</time>
      </trkpt>
      <trkpt lat="59.939528" lon="17.6553113">
        <ele>13.5958</ele>
        <time>2013-06-02T18:53:05Z</time>
      </trkpt>
      <trkpt lat="59.939502" lon="17.655184">
        <ele>14.0764</ele>
        <time>2013-06-02T18:53:06Z</time>
      </trkpt>
      <trkpt lat="59.9394734" lon="17.6550465">
        <ele>14.0764</ele>
        <time>2013-06-02T18:53:07Z</time>
      </trkpt>
      <trkpt lat="59.9394441" lon="17.6549069">
        <ele>13.5958</ele>
        <time>2013-06-02T18:53:08Z</time>
      </trkpt>
      <trkpt lat="59.9394161" lon="17.6547738">
        <ele>14.0764</ele>
        <time>2013-06-02T18:53:09Z</time>
      </trkpt>
      <trkpt lat="59.9393844" lon="17.6546301">
        <ele>13.5958</ele>
        <time>2013-06-02T18:53:10Z</time>
      </trkpt>
      <trkpt lat="59.9393559" lon="17.654495">
        <ele>14.0764</ele>
        <time>2013-06-02T18:53:11Z</time>
      </trkpt>
      <trkpt lat="59.939335" lon="17.6543659">
        <ele>14.557</ele>
        <time>2013-06-02T18:53:12Z</time>
      </trkpt>
      <trkpt lat="59.9393071" lon="17.6542204">
        <ele>14.0764</ele>
        <time>2013-06-02T18:53:13Z</time>
      </trkpt>
      <trkpt lat="59.9392886" lon="17.654094">
        <ele>15.0377</ele>
        <time>2013-06-02T18:53:14Z</time>
      </trkpt>
      <trkpt lat="59.9392565" lon="17.6539469">
        <ele>14.0764</ele>
        <time>2013-06-02T18:53:15Z</time>
      </trkpt>
      <trkpt lat="59.9392257" lon="17.6538069">
        <ele>13.5958</ele>
        <time>2013-06-02T18:53:16Z</time>
      </trkpt>
      <trkpt lat="59.9391942" lon="17.6536634">
        <ele>13.5958</ele>
        <time>2013-06-02T18:53:17Z</time>
      </trkpt>
      <trkpt lat="59.9391653" lon="17.6535299">
        <ele>13.5958</ele>
        <time>2013-06-02T18:53:18Z</time>
      </trkpt>
      <trkpt lat="59.9391328" lon="17.6533916">
        <ele>13.5958</ele>
        <time>2013-06-02T18:53:19Z</time>
      </trkpt>
      <trkpt lat="59.9390963" lon="17.6532471">
        <ele>13.1151</ele>
        <time>2013-06-02T18:53:20Z</time>
      </trkpt>
      <trkpt lat="59.9390613" lon="17.6531058">
        <ele>13.1151</ele>
        <time>2013-06-02T18:53:21Z</time>
      </trkpt>
      <trkpt lat="59.9390261" lon="17.6529617">
        <ele>13.1151</ele>
        <time>2013-06-02T18:53:22Z</time>
      </trkpt>
      <trkpt lat="59.9389926" lon="17.6528309">
        <ele>13.5958</ele>
        <time>2013-06-02T18:53:23Z</time>
      </trkpt>
      <trkpt lat="59.9389566" lon="17.6526922">
        <ele>14.0764</ele>
        <time>2013-06-02T18:53:24Z</time>
      </trkpt>
      <trkpt lat="59.9389214" lon="17.6525556">
        <ele>14.0764</ele>
        <time>2013-06-02T18:53:25Z</time>
      </trkpt>
      <trkpt lat="59.9388845" lon="17.6524167">
        <ele>14.0764</ele>
        <time>2013-06-02T18:53:26Z</time>
      </trkpt>
      <trkpt lat="59.9388507" lon="17.6522867">
        <ele>15.5184</ele>
        <time>2013-06-02T18:53:27Z</time>
      </trkpt>
      <trkpt lat="59.938813" lon="17.652152">
        <ele>15.5184</ele>
        <time>2013-06-02T18:53:28Z</time>
      </trkpt>
      <trkpt lat="59.9387758" lon="17.652024">
        <ele>16.4797</ele>
        <time>2013-06-02T18:53:29Z</time>
      </trkpt>
      <trkpt lat="59.9387353" lon="17.651892">
        <ele>17.4412</ele>
        <time>2013-06-02T18:53:30Z</time>
      </trkpt>
      <trkpt lat="59.9386898" lon="17.6517588">
        <ele>17.9218</ele>
        <time>2013-06-02T18:53:31Z</time>
      </trkpt>
      <trkpt lat="59.9386463" lon="17.6516241">
        <ele>18.4023</ele>
        <time>2013-06-02T18:53:32Z</time>
      </trkpt>
      <trkpt lat="59.9386085" lon="17.6514977">
        <ele>18.8831</ele>
        <time>2013-06-02T18:53:33Z</time>
      </trkpt>
      <trkpt lat="59.9385608" lon="17.651349">
        <ele>17.4412</ele>
        <time>2013-06-02T18:53:34Z</time>
      </trkpt>
      <trkpt lat="59.9385106" lon="17.6512028">
        <ele>16.4797</ele>
        <time>2013-06-02T18:53:35Z</time>
      </trkpt>
      <trkpt lat="59.9384629" lon="17.6510756">
        <ele>15.999</ele>
        <time>2013-06-02T18:53:36Z</time>
      </trkpt>
      <trkpt lat="59.9384167" lon="17.6509542">
        <ele>16.4797</ele>
        <time>2013-06-02T18:53:37Z</time>
      </trkpt>
      <trkpt lat="59.9383676" lon="17.6508306">
        <ele>17.4412</ele>
        <time>2013-06-02T18:53:38Z</time>
      </trkpt>
      <trkpt lat="59.9383092" lon="17.6507089">
        <ele>17.4412</ele>
        <time>2013-06-02T18:53:39Z</time>
      </trkpt>
      <trkpt lat="59.9382499" lon="17.6505798">
        <ele>17.9218</ele>
        <time>2013-06-02T18:53:40Z</time>
      </trkpt>
      <trkpt lat="59.938195" lon="17.6504331">
        <ele>17.4412</ele>
        <time>2013-06-02T18:53:41Z</time>
      </trkpt>
      <trkpt lat="59.9381454" lon="17.6502926">
        <ele>16.9604</ele>
        <time>2013-06-02T18:53:42Z</time>
      </trkpt>
      <trkpt lat="59.9381024" lon="17.6501629">
        <ele>17.9218</ele>
        <time>2013-06-02T18:53:43Z</time>
      </trkpt>
      <trkpt lat="59.9380552" lon="17.6500381">
        <ele>17.9218</ele>
        <time>2013-06-02T18:53:44Z</time>
      </trkpt>
      <trkpt lat="59.9380112" lon="17.6499267">
        <ele>19.3638</ele>
        <time>2013-06-02T18:53:45Z</time>
      </trkpt>
      <trkpt lat="59.937965" lon="17.6498146">
        <ele>19.8444</ele>
        <time>2013-06-02T18:53:46Z</time>
      </trkpt>
      <trkpt lat="59.9379163" lon="17.6496971">
        <ele>20.325</ele>
        <time>2013-06-02T18:53:47Z</time>
      </trkpt>
      <trkpt lat="59.9378658" lon="17.6495819">
        <ele>20.325</ele>
        <time>2013-06-02T18:53:48Z</time>
      </trkpt>
      <trkpt lat="59.9378195" lon="17.6494651">
        <ele>19.8444</ele>
        <time>2013-06-02T18:53:49Z</time>
      </trkpt>
      <trkpt lat="59.9377771" lon="17.6493335">
        <ele>19.3638</ele>
        <time>2013-06-02T18:53:50Z</time>
      </trkpt>
      <trkpt lat="59.9377359" lon="17.6492106">
        <ele>20.325</ele>
        <time>2013-06-02T18:53:51Z</time>
      </trkpt>
      <trkpt lat="59.9376895" lon="17.6490978">
        <ele>20.325</ele>
        <time>2013-06-02T18:53:52Z</time>
      </trkpt>
      <trkpt lat="59.9376445" lon="17.6489826">
        <ele>20.8057</ele>
        <time>2013-06-02T18:53:53Z</time>
      </trkpt>
      <trkpt lat="59.937603" lon="17.6488603">
        <ele>20.8057</ele>
        <time>2013-06-02T18:53:54Z</time>
      </trkpt>
      <trkpt lat="59.937564" lon="17.6487391">
        <ele>21.767</ele>
        <time>2013-06-02T18:53:55Z</time>
      </trkpt>
      <trkpt lat="59.9375242" lon="17.6486211">
        <ele>22.7283</ele>
        <time>2013-06-02T18:53:56Z</time>
      </trkpt>
      <trkpt lat="59.9374761" lon="17.6485037">
        <ele>22.7283</ele>
        <time>2013-06-02T18:53:57Z</time>
      </trkpt>
      <trkpt lat="59.9374247" lon="17.6483862">
        <ele>22.2476</ele>
        <time>2013-06-02T18:53:58Z</time>
      </trkpt>
      <trkpt lat="59.9373799" lon="17.6482859">
        <ele>23.6896</ele>
        <time>2013-06-02T18:53:59Z</time>
      </trkpt>
      <trkpt lat="59.9373243" lon="17.6481724">
        <ele>23.6896</ele>
        <time>2013-06-02T18:54:00Z</time>
      </trkpt>
      <trkpt lat="59.9372539" lon="17.6480603">
        <ele>23.6896</ele>
        <time>2013-06-02T18:54:01Z</time>
      </trkpt>
      <trkpt lat="59.9371837" lon="17.647973">
        <ele>24.651</ele>
        <time>2013-06-02T18:54:02Z</time>
      </trkpt>
      <trkpt lat="59.9371109" lon="17.647892">
        <ele>25.1317</ele>
        <time>2013-06-02T18:54:03Z</time>
      </trkpt>
      <trkpt lat="59.9370387" lon="17.64781">
        <ele>25.6123</ele>
        <time>2013-06-02T18:54:04Z</time>
      </trkpt>
      <trkpt lat="59.936966" lon="17.6477226">
        <ele>26.0929</ele>
        <time>2013-06-02T18:54:05Z</time>
      </trkpt>
      <trkpt lat="59.9368947" lon="17.6476385">
        <ele>26.5736</ele>
        <time>2013-06-02T18:54:06Z</time>
      </trkpt>
      <trkpt lat="59.9368229" lon="17.6475531">
        <ele>27.0543</ele>
        <time>2013-06-02T18:54:07Z</time>
      </trkpt>
      <trkpt lat="59.9367515" lon="17.6474613">
        <ele>27.5349</ele>
        <time>2013-06-02T18:54:08Z</time>
      </trkpt>
      <trkpt lat="59.9366804" lon="17.6473624">
        <ele>28.0155</ele>
        <time>2013-06-02T18:54:09Z</time>
      </trkpt>
      <trkpt lat="59.9366116" lon="17.6472672">
        <ele>28.0155</ele>
        <time>2013-06-02T18:54:10Z</time>
      </trkpt>
      <trkpt lat="59.9365442" lon="17.6471773">
        <ele>28.4962</ele>
        <time>2013-06-02T18:54:11Z</time>
      </trkpt>
      <trkpt lat="59.9364754" lon="17.6470885">
        <ele>28.9769</ele>
        <time>2013-06-02T18:54:12Z</time>
      </trkpt>
      <trkpt lat="59.9364054" lon="17.6470004">
        <ele>29.9381</ele>
        <time>2013-06-02T18:54:13Z</time>
      </trkpt>
      <trkpt lat="59.9363394" lon="17.6469206">
        <ele>30.8995</ele>
        <time>2013-06-02T18:54:14Z</time>
      </trkpt>
      <trkpt lat="59.9362712" lon="17.646838">
        <ele>31.3801</ele>
        <time>2013-06-02T18:54:15Z</time>
      </trkpt>
      <trkpt lat="59.9362027" lon="17.6467528">
        <ele>31.3801</ele>
        <time>2013-06-02T18:54:16Z</time>
      </trkpt>
      <trkpt lat="59.9361292" lon="17.6466633">
        <ele>31.3801</ele>
        <time>2013-06-02T18:54:17Z</time>
      </trkpt>
      <trkpt lat="59.9360624" lon="17.646586">
        <ele>31.8607</ele>
        <time>2013-06-02T18:54:18Z</time>
      </trkpt>
      <trkpt lat="59.9359962" lon="17.6465202">
        <ele>33.3029</ele>
        <time>2013-06-02T18:54:19Z</time>
      </trkpt>
      <trkpt lat="59.9359322" lon="17.6464535">
        <ele>34.2642</ele>
        <time>2013-06-02T18:54:20Z</time>
      </trkpt>
      <trkpt lat="59.9358704" lon="17.6463865">
        <ele>35.2255</ele>
        <time>2013-06-02T18:54:21Z</time>
      </trkpt>
      <trkpt lat="59.935807" lon="17.6463161">
        <ele>35.7061</ele>
        <time>2013-06-02T18:54:22Z</time>
      </trkpt>
      <trkpt lat="59.9357432" lon="17.6462467">
        <ele>36.6675</ele>
        <time>2013-06-02T18:54:23Z</time>
      </trkpt>
      <trkpt lat="59.9356825" lon="17.6461986">
        <ele>37.1481</ele>
        <time>2013-06-02T18:54:24Z</time>
      </trkpt>
      <trkpt lat="59.9356284" lon="17.6461234">
        <ele>36.6675</ele>
        <time>2013-06-02T18:54:25Z</time>
      </trkpt>
      <trkpt lat="59.9355723" lon="17.6460646">
        <ele>37.1481</ele>
        <time>2013-06-02T18:54:26Z</time>
      </trkpt>
      <trkpt lat="59.935516" lon="17.6460084">
        <ele>38.1094</ele>
        <time>2013-06-02T18:54:27Z</time>
      </trkpt>
      <trkpt lat="59.9354563" lon="17.6459396">
        <ele>38.5901</ele>
        <time>2013-06-02T18:54:28Z</time>
      </trkpt>
      <trkpt lat="59.9353927" lon="17.6458963">
        <ele>39.0707</ele>
        <time>2013-06-02T18:54:29Z</time>
      </trkpt>
      <trkpt lat="59.9353296" lon="17.6458419">
        <ele>38.5901</ele>
        <time>2013-06-02T18:54:30Z</time>
      </trkpt>
      <trkpt lat="59.9352663" lon="17.6457575">
        <ele>36.6675</ele>
        <time>2013-06-02T18:54:31Z</time>
      </trkpt>
      <trkpt lat="59.9352056" lon="17.6456673">
        <ele>35.7061</ele>
        <time>2013-06-02T18:54:32Z</time>
      </trkpt>
      <trkpt lat="59.9351394" lon="17.6455778">
        <ele>34.7449</ele>
        <time>2013-06-02T18:54:33Z</time>
      </trkpt>
      <trkpt lat="59.9350754" lon="17.6454873">
        <ele>33.7834</ele>
        <time>2013-06-02T18:54:34Z</time>
      </trkpt>
      <trkpt lat="59.9350114" lon="17.6453924">
        <ele>31.8607</ele>
        <time>2013-06-02T18:54:35Z</time>
      </trkpt>
      <trkpt lat="59.9349459" lon="17.6453244">
        <ele>32.3416</ele>
        <time>2013-06-02T18:54:36Z</time>
      </trkpt>
      <trkpt lat="59.9348798" lon="17.6452398">
        <ele>31.8607</ele>
        <time>2013-06-02T18:54:37Z</time>
      </trkpt>
      <trkpt lat="59.9348133" lon="17.6451546">
        <ele>30.4188</ele>
        <time>2013-06-02T18:54:38Z</time>
      </trkpt>
      <trkpt lat="59.9347434" lon="17.6450724">
        <ele>30.4188</ele>
        <time>2013-06-02T18:54:39Z</time>
      </trkpt>
      <trkpt lat="59.9346767" lon="17.6449846">
        <ele>30.4188</ele>
        <time>2013-06-02T18:54:40Z</time>
      </trkpt>
      <trkpt lat="59.9346074" lon="17.6448958">
        <ele>29.4575</ele>
        <time>2013-06-02T18:54:41Z</time>
      </trkpt>
      <trkpt lat="59.9345399" lon="17.6448045">
        <ele>28.9769</ele>
        <time>2013-06-02T18:54:42Z</time>
      </trkpt>
      <trkpt lat="59.9344722" lon="17.6447092">
        <ele>28.9769</ele>
        <time>2013-06-02T18:54:43Z</time>
      </trkpt>
      <trkpt lat="59.9344074" lon="17.6446082">
        <ele>28.9769</ele>
        <time>2013-06-02T18:54:44Z</time>
      </trkpt>
      <trkpt lat="59.934334" lon="17.6444962">
        <ele>27.0543</ele>
        <time>2013-06-02T18:54:45Z</time>
      </trkpt>
      <trkpt lat="59.9342582" lon="17.6443896">
        <ele>28.0155</ele>
        <time>2013-06-02T18:54:46Z</time>
      </trkpt>
      <trkpt lat="59.9341817" lon="17.644278">
        <ele>26.0929</ele>
        <time>2013-06-02T18:54:47Z</time>
      </trkpt>
      <trkpt lat="59.934106" lon="17.6441684">
        <ele>26.0929</ele>
        <time>2013-06-02T18:54:48Z</time>
      </trkpt>
      <trkpt lat="59.9340256" lon="17.6440606">
        <ele>25.6123</ele>
        <time>2013-06-02T18:54:49Z</time>
      </trkpt>
      <trkpt lat="59.9339465" lon="17.643958">
        <ele>25.1317</ele>
        <time>2013-06-02T18:54:50Z</time>
      </trkpt>
      <trkpt lat="59.9338661" lon="17.6438638">
        <ele>23.6896</ele>
        <time>2013-06-02T18:54:51Z</time>
      </trkpt>
      <trkpt lat="59.9337844" lon="17.6437783">
        <ele>22.2476</ele>
        <time>2013-06-02T18:54:52Z</time>
      </trkpt>
      <trkpt lat="59.9337007" lon="17.6436851">
        <ele>19.8444</ele>
        <time>2013-06-02T18:54:53Z</time>
      </trkpt>
      <trkpt lat="59.9336185" lon="17.6436085">
        <ele>21.767</ele>
        <time>2013-06-02T18:54:54Z</time>
      </trkpt>
      <trkpt lat="59.933536" lon="17.6435236">
        <ele>23.6896</ele>
        <time>2013-06-02T18:54:55Z</time>
      </trkpt>
      <trkpt lat="59.933447" lon="17.6434224">
        <ele>23.6896</ele>
        <time>2013-06-02T18:54:56Z</time>
      </trkpt>
      <trkpt lat="59.9333579" lon="17.6433136">
        <ele>23.209</ele>
        <time>2013-06-02T18:54:57Z</time>
      </trkpt>
      <trkpt lat="59.9332745" lon="17.6431866">
        <ele>23.209</ele>
        <time>2013-06-02T18:54:58Z</time>
      </trkpt>
      <trkpt lat="59.9331859" lon="17.6430415">
        <ele>22.2476</ele>
        <time>2013-06-02T18:54:59Z</time>
      </trkpt>
      <trkpt lat="59.9330937" lon="17.6428983">
        <ele>20.8057</ele>
        <time>2013-06-02T18:55:00Z</time>
      </trkpt>
      <trkpt lat="59.9330036" lon="17.6427689">
        <ele>20.8057</ele>
        <time>2013-06-02T18:55:01Z</time>
      </trkpt>
      <trkpt lat="59.932914" lon="17.6426334">
        <ele>19.8444</ele>
        <time>2013-06-02T18:55:02Z</time>
      </trkpt>
      <trkpt lat="59.9328291" lon="17.642487">
        <ele>19.3638</ele>
        <time>2013-06-02T18:55:03Z</time>
      </trkpt>
      <trkpt lat="59.9327475" lon="17.6423332">
        <ele>18.8831</ele>
        <time>2013-06-02T18:55:04Z</time>
      </trkpt>
      <trkpt lat="59.9326572" lon="17.6421964">
        <ele>19.3638</ele>
        <time>2013-06-02T18:55:05Z</time>
      </trkpt>
      <trkpt lat="59.93256" lon="17.6420765">
        <ele>19.3638</ele>
        <time>2013-06-02T18:55:06Z</time>
      </trkpt>
      <trkpt lat="59.9324602" lon="17.6419691">
        <ele>19.8444</ele>
        <time>2013-06-02T18:55:07Z</time>
      </trkpt>
      <trkpt lat="59.9323633" lon="17.6418789">
        <ele>20.8057</ele>
        <time>2013-06-02T18:55:08Z</time>
      </trkpt>
      <trkpt lat="59.9322658" lon="17.6417871">
        <ele>20.8057</ele>
        <time>2013-06-02T18:55:09Z</time>
      </trkpt>
      <trkpt lat="59.9321675" lon="17.6416916">
        <ele>20.8057</ele>
        <time>2013-06-02T18:55:10Z</time>
      </trkpt>
      <trkpt lat="59.9320655" lon="17.6415913">
        <ele>19.8444</ele>
        <time>2013-06-02T18:55:11Z</time>
      </trkpt>
      <trkpt lat="59.9319687" lon="17.6415017">
        <ele>18.8831</ele>
        <time>2013-06-02T18:55:12Z</time>
      </trkpt>
      <trkpt lat="59.9318701" lon="17.6414292">
        <ele>18.4023</ele>
        <time>2013-06-02T18:55:13Z</time>
      </trkpt>
      <trkpt lat="59.9317687" lon="17.6413628">
        <ele>18.8831</ele>
        <time>2013-06-02T18:55:14Z</time>
      </trkpt>
      <trkpt lat="59.9316634" lon="17.6412924">
        <ele>18.8831</ele>
        <time>2013-06-02T18:55:15Z</time>
      </trkpt>
      <trkpt lat="59.9315594" lon="17.6412195">
        <ele>18.4023</ele>
        <time>2013-06-02T18:55:16Z</time>
      </trkpt>
      <trkpt lat="59.9314574" lon="17.6411456">
        <ele>18.4023</ele>
        <time>2013-06-02T18:55:17Z</time>
      </trkpt>
      <trkpt lat="59.9313579" lon="17.6410688">
        <ele>17.9218</ele>
        <time>2013-06-02T18:55:18Z</time>
      </trkpt>
      <trkpt lat="59.9312572" lon="17.6409987">
        <ele>17.9218</ele>
        <time>2013-06-02T18:55:19Z</time>
      </trkpt>
      <trkpt lat="59.9311533" lon="17.6409278">
        <ele>17.9218</ele>
        <time>2013-06-02T18:55:20Z</time>
      </trkpt>
      <trkpt lat="59.9310438" lon="17.6408526">
        <ele>17.9218</ele>
        <time>2013-06-02T18:55:21Z</time>
      </trkpt>
      <trkpt lat="59.9309357" lon="17.6407874">
        <ele>17.9218</ele>
        <time>2013-06-02T18:55:22Z</time>
      </trkpt>
      <trkpt lat="59.93083" lon="17.6407401">
        <ele>18.4023</ele>
        <time>2013-06-02T18:55:23Z</time>
      </trkpt>
      <trkpt lat="59.9307236" lon="17.6407314">
        <ele>18.4023</ele>
        <time>2013-06-02T18:55:24Z</time>
      </trkpt>
      <trkpt lat="59.9306183" lon="17.6407392">
        <ele>18.8831</ele>
        <time>2013-06-02T18:55:25Z</time>
      </trkpt>
      <trkpt lat="59.9305161" lon="17.6407542">
        <ele>18.4023</ele>
        <time>2013-06-02T18:55:26Z</time>
      </trkpt>
      <trkpt lat="59.9304099" lon="17.640763">
        <ele>18.8831</ele>
        <time>2013-06-02T18:55:27Z</time>
      </trkpt>
      <trkpt lat="59.9303021" lon="17.640767">
        <ele>18.4023</ele>
        <time>2013-06-02T18:55:28Z</time>
      </trkpt>
      <trkpt lat="59.9301953" lon="17.6407628">
        <ele>18.8831</ele>
        <time>2013-06-02T18:55:29Z</time>
      </trkpt>
      <trkpt lat="59.9300886" lon="17.6407566">
        <ele>18.8831</ele>
        <time>2013-06-02T18:55:30Z</time>
      </trkpt>
      <trkpt lat="59.9299819" lon="17.6407489">
        <ele>19.3638</ele>
        <time>2013-06-02T18:55:31Z</time>
      </trkpt>
      <trkpt lat="59.9298725" lon="17.6407542">
        <ele>20.8057</ele>
        <time>2013-06-02T18:55:32Z</time>
      </trkpt>
      <trkpt lat="59.9297706" lon="17.6407582">
        <ele>21.2864</ele>
        <time>2013-06-02T18:55:33Z</time>
      </trkpt>
      <trkpt lat="59.929663" lon="17.6407827">
        <ele>22.7283</ele>
        <time>2013-06-02T18:55:34Z</time>
      </trkpt>
      <trkpt lat="59.9295564" lon="17.6408108">
        <ele>23.6896</ele>
        <time>2013-06-02T18:55:35Z</time>
      </trkpt>
      <trkpt lat="59.9294524" lon="17.6408214">
        <ele>23.6896</ele>
        <time>2013-06-02T18:55:36Z</time>
      </trkpt>
      <trkpt lat="59.9293464" lon="17.6408393">
        <ele>24.1703</ele>
        <time>2013-06-02T18:55:37Z</time>
      </trkpt>
      <trkpt lat="59.9292409" lon="17.640849">
        <ele>24.1703</ele>
        <time>2013-06-02T18:55:38Z</time>
      </trkpt>
      <trkpt lat="59.9291392" lon="17.6408434">
        <ele>24.1703</ele>
        <time>2013-06-02T18:55:39Z</time>
      </trkpt>
      <trkpt lat="59.9290373" lon="17.6408431">
        <ele>24.651</ele>
        <time>2013-06-02T18:55:40Z</time>
      </trkpt>
      <trkpt lat="59.9289366" lon="17.640852">
        <ele>24.651</ele>
        <time>2013-06-02T18:55:41Z</time>
      </trkpt>
      <trkpt lat="59.9288393" lon="17.6408614">
        <ele>24.1703</ele>
        <time>2013-06-02T18:55:42Z</time>
      </trkpt>
      <trkpt lat="59.9287382" lon="17.64089">
        <ele>24.651</ele>
        <time>2013-06-02T18:55:43Z</time>
      </trkpt>
      <trkpt lat="59.9286414" lon="17.6408986">
        <ele>25.1317</ele>
        <time>2013-06-02T18:55:44Z</time>
      </trkpt>
      <trkpt lat="59.9285455" lon="17.6409131">
        <ele>25.1317</ele>
        <time>2013-06-02T18:55:45Z</time>
      </trkpt>
      <trkpt lat="59.9284492" lon="17.6409336">
        <ele>25.1317</ele>
        <time>2013-06-02T18:55:46Z</time>
      </trkpt>
      <trkpt lat="59.928354" lon="17.6409509">
        <ele>25.1317</ele>
        <time>2013-06-02T18:55:47Z</time>
      </trkpt>
      <trkpt lat="59.9282576" lon="17.640968">
        <ele>25.1317</ele>
        <time>2013-06-02T18:55:48Z</time>
      </trkpt>
      <trkpt lat="59.9281602" lon="17.6409847">
        <ele>25.1317</ele>
        <time>2013-06-02T18:55:49Z</time>
      </trkpt>
      <trkpt lat="59.9280648" lon="17.6409982">
        <ele>24.651</ele>
        <time>2013-06-02T18:55:50Z</time>
      </trkpt>
      <trkpt lat="59.9279697" lon="17.6410117">
        <ele>24.651</ele>
        <time>2013-06-02T18:55:51Z</time>
      </trkpt>
      <trkpt lat="59.9278749" lon="17.6410237">
        <ele>24.651</ele>
        <time>2013-06-02T18:55:52Z</time>
      </trkpt>
      <trkpt lat="59.92778" lon="17.6410349">
        <ele>24.651</ele>
        <time>2013-06-02T18:55:53Z</time>
      </trkpt>
      <trkpt lat="59.9276846" lon="17.6410453">
        <ele>25.1317</ele>
        <time>2013-06-02T18:55:54Z</time>
      </trkpt>
      <trkpt lat="59.9275894" lon="17.6410498">
        <ele>25.1317</ele>
        <time>2013-06-02T18:55:55Z</time>
      </trkpt>
      <trkpt lat="59.9274949" lon="17.6410524">
        <ele>25.1317</ele>
        <time>2013-06-02T18:55:56Z</time>
      </trkpt>
      <trkpt lat="59.9274007" lon="17.6410597">
        <ele>25.1317</ele>
        <time>2013-06-02T18:55:57Z</time>
      </trkpt>
      <trkpt lat="59.927306" lon="17.6410686">
        <ele>25.6123</ele>
        <time>2013-06-02T18:55:58Z</time>
      </trkpt>
      <trkpt lat="59.9272112" lon="17.6410754">
        <ele>25.6123</ele>
        <time>2013-06-02T18:55:59Z</time>
      </trkpt>
      <trkpt lat="59.9271165" lon="17.6410814">
        <ele>25.1317</ele>
        <time>2013-06-02T18:56:00Z</time>
      </trkpt>
      <trkpt lat="59.9270226" lon="17.6410884">
        <ele>25.1317</ele>
        <time>2013-06-02T18:56:01Z</time>
      </trkpt>
      <trkpt lat="59.9269274" lon="17.6411008">
        <ele>25.6123</ele>
        <time>2013-06-02T18:56:02Z</time>
      </trkpt>
      <trkpt lat="59.92683" lon="17.6411152">
        <ele>25.6123</ele>
        <time>2013-06-02T18:56:03Z</time>
      </trkpt>
      <trkpt lat="59.9267366" lon="17.641138">
        <ele>23.6896</ele>
        <time>2013-06-02T18:56:04Z</time>
      </trkpt>
      <trkpt lat="59.9266455" lon="17.6411536">
        <ele>22.7283</ele>
        <time>2013-06-02T18:56:05Z</time>
      </trkpt>
      <trkpt lat="59.9265548" lon="17.6411674">
        <ele>22.7283</ele>
        <time>2013-06-02T18:56:06Z</time>
      </trkpt>
      <trkpt lat="59.9264647" lon="17.6411767">
        <ele>22.7283</ele>
        <time>2013-06-02T18:56:07Z</time>
      </trkpt>
      <trkpt lat="59.9263746" lon="17.64119">
        <ele>22.7283</ele>
        <time>2013-06-02T18:56:08Z</time>
      </trkpt>
      <trkpt lat="59.9262845" lon="17.6412053">
        <ele>22.7283</ele>
        <time>2013-06-02T18:56:09Z</time>
      </trkpt>
      <trkpt lat="59.926195" lon="17.641219">
        <ele>22.7283</ele>
        <time>2013-06-02T18:56:10Z</time>
      </trkpt>
      <trkpt lat="59.9261061" lon="17.6412338">
        <ele>22.7283</ele>
        <time>2013-06-02T18:56:11Z</time>
      </trkpt>
      <trkpt lat="59.9260167" lon="17.6412489">
        <ele>22.7283</ele>
        <time>2013-06-02T18:56:12Z</time>
      </trkpt>
      <trkpt lat="59.9259271" lon="17.6412643">
        <ele>22.7283</ele>
        <time>2013-06-02T18:56:13Z</time>
      </trkpt>
      <trkpt lat="59.9258364" lon="17.6412825">
        <ele>23.209</ele>
        <time>2013-06-02T18:56:14Z</time>
      </trkpt>
      <trkpt lat="59.9257458" lon="17.6413028">
        <ele>23.6896</ele>
        <time>2013-06-02T18:56:15Z</time>
      </trkpt>
      <trkpt lat="59.9256547" lon="17.6413245">
        <ele>24.1703</ele>
        <time>2013-06-02T18:56:16Z</time>
      </trkpt>
      <trkpt lat="59.9255661" lon="17.641339">
        <ele>24.651</ele>
        <time>2013-06-02T18:56:17Z</time>
      </trkpt>
      <trkpt lat="59.9254784" lon="17.6413482">
        <ele>24.651</ele>
        <time>2013-06-02T18:56:18Z</time>
      </trkpt>
      <trkpt lat="59.925393" lon="17.6413554">
        <ele>25.1317</ele>
        <time>2013-06-02T18:56:19Z</time>
      </trkpt>
      <trkpt lat="59.925309" lon="17.6413542">
        <ele>25.6123</ele>
        <time>2013-06-02T18:56:20Z</time>
      </trkpt>
      <trkpt lat="59.9252262" lon="17.6413482">
        <ele>26.0929</ele>
        <time>2013-06-02T18:56:21Z</time>
      </trkpt>
      <trkpt lat="59.925145" lon="17.6413407">
        <ele>26.5736</ele>
        <time>2013-06-02T18:56:22Z</time>
      </trkpt>
      <trkpt lat="59.9250639" lon="17.6413361">
        <ele>26.5736</ele>
        <time>2013-06-02T18:56:23Z</time>
      </trkpt>
      <trkpt lat="59.9249822" lon="17.6413354">
        <ele>27.0543</ele>
        <time>2013-06-02T18:56:24Z</time>
      </trkpt>
      <trkpt lat="59.9249013" lon="17.6413365">
        <ele>27.0543</ele>
        <time>2013-06-02T18:56:25Z</time>
      </trkpt>
      <trkpt lat="59.9248209" lon="17.6413435">
        <ele>27.0543</ele>
        <time>2013-06-02T18:56:26Z</time>
      </trkpt>
      <trkpt lat="59.9247407" lon="17.6413591">
        <ele>27.0543</ele>
        <time>2013-06-02T18:56:27Z</time>
      </trkpt>
      <trkpt lat="59.9246634" lon="17.6413831">
        <ele>25.6123</ele>
        <time>2013-06-02T18:56:28Z</time>
      </trkpt>
      <trkpt lat="59.9245804" lon="17.6414084">
        <ele>26.5736</ele>
        <time>2013-06-02T18:56:29Z</time>
      </trkpt>
      <trkpt lat="59.9244975" lon="17.6414287">
        <ele>27.5349</ele>
        <time>2013-06-02T18:56:30Z</time>
      </trkpt>
      <trkpt lat="59.9244181" lon="17.6414447">
        <ele>27.5349</ele>
        <time>2013-06-02T18:56:31Z</time>
      </trkpt>
      <trkpt lat="59.9243378" lon="17.641455">
        <ele>27.5349</ele>
        <time>2013-06-02T18:56:32Z</time>
      </trkpt>
      <trkpt lat="59.9242584" lon="17.6414575">
        <ele>27.5349</ele>
        <time>2013-06-02T18:56:33Z</time>
      </trkpt>
      <trkpt lat="59.9241762" lon="17.6414711">
        <ele>28.0155</ele>
        <time>2013-06-02T18:56:34Z</time>
      </trkpt>
      <trkpt lat="59.9240952" lon="17.6414824">
        <ele>28.0155</ele>
        <time>2013-06-02T18:56:35Z</time>
      </trkpt>
      <trkpt lat="59.9240142" lon="17.6414929">
        <ele>28.4962</ele>
        <time>2013-06-02T18:56:36Z</time>
      </trkpt>
      <trkpt lat="59.9239348" lon="17.6415008">
        <ele>28.0155</ele>
        <time>2013-06-02T18:56:37Z</time>
      </trkpt>
      <trkpt lat="59.9238571" lon="17.6415027">
        <ele>27.0543</ele>
        <time>2013-06-02T18:56:38Z</time>
      </trkpt>
      <trkpt lat="59.923778" lon="17.6415094">
        <ele>27.0543</ele>
        <time>2013-06-02T18:56:39Z</time>
      </trkpt>
      <trkpt lat="59.9236976" lon="17.6415194">
        <ele>27.5349</ele>
        <time>2013-06-02T18:56:40Z</time>
      </trkpt>
      <trkpt lat="59.9236178" lon="17.6415307">
        <ele>27.5349</ele>
        <time>2013-06-02T18:56:41Z</time>
      </trkpt>
      <trkpt lat="59.9235404" lon="17.6415384">
        <ele>27.5349</ele>
        <time>2013-06-02T18:56:42Z</time>
      </trkpt>
      <trkpt lat="59.9234654" lon="17.641546">
        <ele>28.0155</ele>
        <time>2013-06-02T18:56:43Z</time>
      </trkpt>
      <trkpt lat="59.9233915" lon="17.6415547">
        <ele>28.4962</ele>
        <time>2013-06-02T18:56:44Z</time>
      </trkpt>
      <trkpt lat="59.923318" lon="17.6415654">
        <ele>28.4962</ele>
        <time>2013-06-02T18:56:45Z</time>
      </trkpt>
      <trkpt lat="59.9232454" lon="17.6415776">
        <ele>28.9769</ele>
        <time>2013-06-02T18:56:46Z</time>
      </trkpt>
      <trkpt lat="59.9231734" lon="17.6415887">
        <ele>28.9769</ele>
        <time>2013-06-02T18:56:47Z</time>
      </trkpt>
      <trkpt lat="59.9231037" lon="17.6415994">
        <ele>28.0155</ele>
        <time>2013-06-02T18:56:48Z</time>
      </trkpt>
      <trkpt lat="59.9230339" lon="17.6416005">
        <ele>28.4962</ele>
        <time>2013-06-02T18:56:49Z</time>
      </trkpt>
      <trkpt lat="59.9229644" lon="17.6416078">
        <ele>28.9769</ele>
        <time>2013-06-02T18:56:50Z</time>
      </trkpt>
      <trkpt lat="59.9228978" lon="17.6416149">
        <ele>28.9769</ele>
        <time>2013-06-02T18:56:51Z</time>
      </trkpt>
      <trkpt lat="59.9228361" lon="17.6416198">
        <ele>28.9769</ele>
        <time>2013-06-02T18:56:52Z</time>
      </trkpt>
      <trkpt lat="59.922782" lon="17.6416234">
        <ele>28.0155</ele>
        <time>2013-06-02T18:56:53Z</time>
      </trkpt>
      <trkpt lat="59.9227346" lon="17.6416343">
        <ele>28.0155</ele>
        <time>2013-06-02T18:56:54Z</time>
      </trkpt>
      <trkpt lat="59.9226931" lon="17.6416531">
        <ele>28.0155</ele>
        <time>2013-06-02T18:56:55Z</time>
      </trkpt>
      <trkpt lat="59.9226579" lon="17.6416769">
        <ele>28.4962</ele>
        <time>2013-06-02T18:56:56Z</time>
      </trkpt>
      <trkpt lat="59.9226218" lon="17.6416939">
        <ele>28.0155</ele>
        <time>2013-06-02T18:56:57Z</time>
      </trkpt>
      <trkpt lat="59.9225813" lon="17.6417027">
        <ele>28.0155</ele>
        <time>2013-06-02T18:56:58Z</time>
      </trkpt>
      <trkpt lat="59.9225347" lon="17.641704">
        <ele>28.0155</ele>
        <time>2013-06-02T18:56:59Z</time>
      </trkpt>
      <trkpt lat="59.9224832" lon="17.641712">
        <ele>27.5349</ele>
        <time>2013-06-02T18:57:00Z</time>
      </trkpt>
      <trkpt lat="59.9224275" lon="17.641723">
        <ele>27.0543</ele>
        <time>2013-06-02T18:57:01Z</time>
      </trkpt>
      <trkpt lat="59.9223678" lon="17.6417307">
        <ele>26.5736</ele>
        <time>2013-06-02T18:57:02Z</time>
      </trkpt>
      <trkpt lat="59.9223061" lon="17.6417307">
        <ele>26.5736</ele>
        <time>2013-06-02T18:57:03Z</time>
      </trkpt>
      <trkpt lat="59.922242" lon="17.6417306">
        <ele>26.0929</ele>
        <time>2013-06-02T18:57:04Z</time>
      </trkpt>
      <trkpt lat="59.9221809" lon="17.6417328">
        <ele>26.0929</ele>
        <time>2013-06-02T18:57:05Z</time>
      </trkpt>
      <trkpt lat="59.9221226" lon="17.6417343">
        <ele>26.5736</ele>
        <time>2013-06-02T18:57:06Z</time>
      </trkpt>
      <trkpt lat="59.9220641" lon="17.6417358">
        <ele>26.5736</ele>
        <time>2013-06-02T18:57:07Z</time>
      </trkpt>
      <trkpt lat="59.9220042" lon="17.6417372">
        <ele>26.0929</ele>
        <time>2013-06-02T18:57:08Z</time>
      </trkpt>
      <trkpt lat="59.9219389" lon="17.6417456">
        <ele>25.6123</ele>
        <time>2013-06-02T18:57:09Z</time>
      </trkpt>
      <trkpt lat="59.9218746" lon="17.6417576">
        <ele>25.6123</ele>
        <time>2013-06-02T18:57:10Z</time>
      </trkpt>
      <trkpt lat="59.9218149" lon="17.6417672">
        <ele>25.6123</ele>
        <time>2013-06-02T18:57:11Z</time>
      </trkpt>
      <trkpt lat="59.9217441" lon="17.6417742">
        <ele>25.6123</ele>
        <time>2013-06-02T18:57:12Z</time>
      </trkpt>
      <trkpt lat="59.9216745" lon="17.6418025">
        <ele>25.6123</ele>
        <time>2013-06-02T18:57:13Z</time>
      </trkpt>
      <trkpt lat="59.921602" lon="17.6418104">
        <ele>24.651</ele>
        <time>2013-06-02T18:57:14Z</time>
      </trkpt>
      <trkpt lat="59.9215348" lon="17.6418253">
        <ele>24.651</ele>
        <time>2013-06-02T18:57:15Z</time>
      </trkpt>
      <trkpt lat="59.9214733" lon="17.6418317">
        <ele>24.651</ele>
        <time>2013-06-02T18:57:16Z</time>
      </trkpt>
      <trkpt lat="59.9214098" lon="17.6418388">
        <ele>23.209</ele>
        <time>2013-06-02T18:57:17Z</time>
      </trkpt>
      <trkpt lat="59.9213417" lon="17.6418441">
        <ele>22.7283</ele>
        <time>2013-06-02T18:57:18Z</time>
      </trkpt>
      <trkpt lat="59.9212694" lon="17.6418577">
        <ele>23.209</ele>
        <time>2013-06-02T18:57:19Z</time>
      </trkpt>
      <trkpt lat="59.9212027" lon="17.6418612">
        <ele>23.209</ele>
        <time>2013-06-02T18:57:20Z</time>
      </trkpt>
      <trkpt lat="59.9211403" lon="17.6418631">
        <ele>22.2476</ele>
        <time>2013-06-02T18:57:21Z</time>
      </trkpt>
      <trkpt lat="59.9210811" lon="17.6418724">
        <ele>22.2476</ele>
        <time>2013-06-02T18:57:22Z</time>
      </trkpt>
      <trkpt lat="59.9210276" lon="17.6418652">
        <ele>21.767</ele>
        <time>2013-06-02T18:57:23Z</time>
      </trkpt>
      <trkpt lat="59.9209702" lon="17.6418641">
        <ele>21.2864</ele>
        <time>2013-06-02T18:57:24Z</time>
      </trkpt>
      <trkpt lat="59.9209144" lon="17.6418675">
        <ele>21.2864</ele>
        <time>2013-06-02T18:57:25Z</time>
      </trkpt>
      <trkpt lat="59.92086" lon="17.6418584">
        <ele>20.8057</ele>
        <time>2013-06-02T18:57:26Z</time>
      </trkpt>
      <trkpt lat="59.9208084" lon="17.6418586">
        <ele>19.8444</ele>
        <time>2013-06-02T18:57:27Z</time>
      </trkpt>
      <trkpt lat="59.9207571" lon="17.6418498">
        <ele>19.8444</ele>
        <time>2013-06-02T18:57:28Z</time>
      </trkpt>
      <trkpt lat="59.9207015" lon="17.641842">
        <ele>18.8831</ele>
        <time>2013-06-02T18:57:29Z</time>
      </trkpt>
      <trkpt lat="59.9206438" lon="17.641839">
        <ele>19.3638</ele>
        <time>2013-06-02T18:57:30Z</time>
      </trkpt>
      <trkpt lat="59.9205807" lon="17.6418348">
        <ele>19.3638</ele>
        <time>2013-06-02T18:57:31Z</time>
      </trkpt>
      <trkpt lat="59.9205139" lon="17.6418265">
        <ele>18.8831</ele>
        <time>2013-06-02T18:57:32Z</time>
      </trkpt>
      <trkpt lat="59.9204429" lon="17.641827">
        <ele>18.8831</ele>
        <time>2013-06-02T18:57:33Z</time>
      </trkpt>
      <trkpt lat="59.9203717" lon="17.6418312">
        <ele>19.3638</ele>
        <time>2013-06-02T18:57:34Z</time>
      </trkpt>
      <trkpt lat="59.9202973" lon="17.6418343">
        <ele>19.3638</ele>
        <time>2013-06-02T18:57:35Z</time>
      </trkpt>
      <trkpt lat="59.9202217" lon="17.6418411">
        <ele>19.3638</ele>
        <time>2013-06-02T18:57:36Z</time>
      </trkpt>
      <trkpt lat="59.9201521" lon="17.6418275">
        <ele>18.4023</ele>
        <time>2013-06-02T18:57:37Z</time>
      </trkpt>
      <trkpt lat="59.9200797" lon="17.6418392">
        <ele>17.4412</ele>
        <time>2013-06-02T18:57:38Z</time>
      </trkpt>
      <trkpt lat="59.9200062" lon="17.6418512">
        <ele>16.4797</ele>
        <time>2013-06-02T18:57:39Z</time>
      </trkpt>
      <trkpt lat="59.9199321" lon="17.6418685">
        <ele>16.4797</ele>
        <time>2013-06-02T18:57:40Z</time>
      </trkpt>
      <trkpt lat="59.9198594" lon="17.6418928">
        <ele>16.9604</ele>
        <time>2013-06-02T18:57:41Z</time>
      </trkpt>
      <trkpt lat="59.9197865" lon="17.6419197">
        <ele>16.9604</ele>
        <time>2013-06-02T18:57:42Z</time>
      </trkpt>
      <trkpt lat="59.9197121" lon="17.6419502">
        <ele>16.9604</ele>
        <time>2013-06-02T18:57:43Z</time>
      </trkpt>
      <trkpt lat="59.9196364" lon="17.6419746">
        <ele>16.4797</ele>
        <time>2013-06-02T18:57:44Z</time>
      </trkpt>
      <trkpt lat="59.9195576" lon="17.6419959">
        <ele>16.9604</ele>
        <time>2013-06-02T18:57:45Z</time>
      </trkpt>
      <trkpt lat="59.9194784" lon="17.6420148">
        <ele>16.9604</ele>
        <time>2013-06-02T18:57:46Z</time>
      </trkpt>
      <trkpt lat="59.9193996" lon="17.6420275">
        <ele>16.4797</ele>
        <time>2013-06-02T18:57:47Z</time>
      </trkpt>
      <trkpt lat="59.9193217" lon="17.6420357">
        <ele>16.4797</ele>
        <time>2013-06-02T18:57:48Z</time>
      </trkpt>
      <trkpt lat="59.9192431" lon="17.6420472">
        <ele>16.9604</ele>
        <time>2013-06-02T18:57:49Z</time>
      </trkpt>
      <trkpt lat="59.9191648" lon="17.6420559">
        <ele>16.9604</ele>
        <time>2013-06-02T18:57:50Z</time>
      </trkpt>
      <trkpt lat="59.9190853" lon="17.6420678">
        <ele>17.4412</ele>
        <time>2013-06-02T18:57:51Z</time>
      </trkpt>
      <trkpt lat="59.9190071" lon="17.6420827">
        <ele>17.4412</ele>
        <time>2013-06-02T18:57:52Z</time>
      </trkpt>
      <trkpt lat="59.9189311" lon="17.6420895">
        <ele>16.4797</ele>
        <time>2013-06-02T18:57:53Z</time>
      </trkpt>
      <trkpt lat="59.918852" lon="17.6420977">
        <ele>16.4797</ele>
        <time>2013-06-02T18:57:54Z</time>
      </trkpt>
      <trkpt lat="59.9187703" lon="17.6421052">
        <ele>15.5184</ele>
        <time>2013-06-02T18:57:55Z</time>
      </trkpt>
      <trkpt lat="59.9186879" lon="17.6421161">
        <ele>15.5184</ele>
        <time>2013-06-02T18:57:56Z</time>
      </trkpt>
      <trkpt lat="59.9186055" lon="17.642128">
        <ele>15.0377</ele>
        <time>2013-06-02T18:57:57Z</time>
      </trkpt>
      <trkpt lat="59.9185236" lon="17.6421364">
        <ele>15.0377</ele>
        <time>2013-06-02T18:57:58Z</time>
      </trkpt>
      <trkpt lat="59.9184406" lon="17.6421524">
        <ele>14.557</ele>
        <time>2013-06-02T18:57:59Z</time>
      </trkpt>
      <trkpt lat="59.9183547" lon="17.6421638">
        <ele>14.0764</ele>
        <time>2013-06-02T18:58:00Z</time>
      </trkpt>
      <trkpt lat="59.9182665" lon="17.6421719">
        <ele>13.5958</ele>
        <time>2013-06-02T18:58:01Z</time>
      </trkpt>
      <trkpt lat="59.9181756" lon="17.6421803">
        <ele>13.5958</ele>
        <time>2013-06-02T18:58:02Z</time>
      </trkpt>
      <trkpt lat="59.9180822" lon="17.6421922">
        <ele>13.5958</ele>
        <time>2013-06-02T18:58:03Z</time>
      </trkpt>
      <trkpt lat="59.9179854" lon="17.6422041">
        <ele>13.1151</ele>
        <time>2013-06-02T18:58:04Z</time>
      </trkpt>
      <trkpt lat="59.9178866" lon="17.6422166">
        <ele>12.6344</ele>
        <time>2013-06-02T18:58:05Z</time>
      </trkpt>
      <trkpt lat="59.9177876" lon="17.6422269">
        <ele>12.6344</ele>
        <time>2013-06-02T18:58:06Z</time>
      </trkpt>
      <trkpt lat="59.9176907" lon="17.6422104">
        <ele>12.1538</ele>
        <time>2013-06-02T18:58:07Z</time>
      </trkpt>
      <trkpt lat="59.9175933" lon="17.6421875">
        <ele>11.6732</ele>
        <time>2013-06-02T18:58:08Z</time>
      </trkpt>
      <trkpt lat="59.9174929" lon="17.6421856">
        <ele>11.1925</ele>
        <time>2013-06-02T18:58:09Z</time>
      </trkpt>
      <trkpt lat="59.917393" lon="17.6421723">
        <ele>10.2312</ele>
        <time>2013-06-02T18:58:10Z</time>
      </trkpt>
      <trkpt lat="59.9172904" lon="17.642163">
        <ele>10.2312</ele>
        <time>2013-06-02T18:58:11Z</time>
      </trkpt>
      <trkpt lat="59.9171888" lon="17.6421671">
        <ele>11.1925</ele>
        <time>2013-06-02T18:58:12Z</time>
      </trkpt>
      <trkpt lat="59.9170903" lon="17.6421876">
        <ele>12.6344</ele>
        <time>2013-06-02T18:58:13Z</time>
      </trkpt>
      <trkpt lat="59.9169945" lon="17.6422201">
        <ele>12.6344</ele>
        <time>2013-06-02T18:58:14Z</time>
      </trkpt>
      <trkpt lat="59.9168977" lon="17.6422471">
        <ele>12.6344</ele>
        <time>2013-06-02T18:58:15Z</time>
      </trkpt>
      <trkpt lat="59.9168028" lon="17.6422673">
        <ele>13.1151</ele>
        <time>2013-06-02T18:58:16Z</time>
      </trkpt>
      <trkpt lat="59.9167096" lon="17.642285">
        <ele>13.5958</ele>
        <time>2013-06-02T18:58:17Z</time>
      </trkpt>
      <trkpt lat="59.916618" lon="17.6423034">
        <ele>14.0764</ele>
        <time>2013-06-02T18:58:18Z</time>
      </trkpt>
      <trkpt lat="59.9165283" lon="17.6423227">
        <ele>14.557</ele>
        <time>2013-06-02T18:58:19Z</time>
      </trkpt>
      <trkpt lat="59.9164397" lon="17.6423449">
        <ele>14.557</ele>
        <time>2013-06-02T18:58:20Z</time>
      </trkpt>
      <trkpt lat="59.9163511" lon="17.6423667">
        <ele>14.557</ele>
        <time>2013-06-02T18:58:21Z</time>
      </trkpt>
      <trkpt lat="59.9162615" lon="17.6423854">
        <ele>15.0377</ele>
        <time>2013-06-02T18:58:22Z</time>
      </trkpt>
      <trkpt lat="59.9161725" lon="17.6423932">
        <ele>15.0377</ele>
        <time>2013-06-02T18:58:23Z</time>
      </trkpt>
      <trkpt lat="59.9160823" lon="17.6423973">
        <ele>15.0377</ele>
        <time>2013-06-02T18:58:24Z</time>
      </trkpt>
      <trkpt lat="59.9159901" lon="17.6423891">
        <ele>16.4797</ele>
        <time>2013-06-02T18:58:25Z</time>
      </trkpt>
      <trkpt lat="59.9158974" lon="17.6423854">
        <ele>17.4412</ele>
        <time>2013-06-02T18:58:26Z</time>
      </trkpt>
      <trkpt lat="59.915805" lon="17.642386">
        <ele>17.9218</ele>
        <time>2013-06-02T18:58:27Z</time>
      </trkpt>
      <trkpt lat="59.9157127" lon="17.6423871">
        <ele>19.3638</ele>
        <time>2013-06-02T18:58:28Z</time>
      </trkpt>
      <trkpt lat="59.9156188" lon="17.6424002">
        <ele>19.3638</ele>
        <time>2013-06-02T18:58:29Z</time>
      </trkpt>
      <trkpt lat="59.9155248" lon="17.6424176">
        <ele>18.4023</ele>
        <time>2013-06-02T18:58:30Z</time>
      </trkpt>
      <trkpt lat="59.9154307" lon="17.6424398">
        <ele>18.4023</ele>
        <time>2013-06-02T18:58:31Z</time>
      </trkpt>
      <trkpt lat="59.9153369" lon="17.6424735">
        <ele>17.9218</ele>
        <time>2013-06-02T18:58:32Z</time>
      </trkpt>
      <trkpt lat="59.9152483" lon="17.6425372">
        <ele>17.9218</ele>
        <time>2013-06-02T18:58:33Z</time>
      </trkpt>
      <trkpt lat="59.9151618" lon="17.6425948">
        <ele>18.8831</ele>
        <time>2013-06-02T18:58:34Z</time>
      </trkpt>
      <trkpt lat="59.9150801" lon="17.6426295">
        <ele>18.8831</ele>
        <time>2013-06-02T18:58:35Z</time>
      </trkpt>
      <trkpt lat="59.915002" lon="17.6426584">
        <ele>19.8444</ele>
        <time>2013-06-02T18:58:36Z</time>
      </trkpt>
      <trkpt lat="59.9149243" lon="17.6426829">
        <ele>20.8057</ele>
        <time>2013-06-02T18:58:37Z</time>
      </trkpt>
      <trkpt lat="59.9148468" lon="17.6426953">
        <ele>21.767</ele>
        <time>2013-06-02T18:58:38Z</time>
      </trkpt>
      <trkpt lat="59.9147729" lon="17.6427184">
        <ele>22.7283</ele>
        <time>2013-06-02T18:58:39Z</time>
      </trkpt>
      <trkpt lat="59.9147007" lon="17.6427333">
        <ele>24.1703</ele>
        <time>2013-06-02T18:58:40Z</time>
      </trkpt>
      <trkpt lat="59.914628" lon="17.6427414">
        <ele>25.1317</ele>
        <time>2013-06-02T18:58:41Z</time>
      </trkpt>
      <trkpt lat="59.9145542" lon="17.6427495">
        <ele>25.6123</ele>
        <time>2013-06-02T18:58:42Z</time>
      </trkpt>
      <trkpt lat="59.9144825" lon="17.6427564">
        <ele>26.5736</ele>
        <time>2013-06-02T18:58:43Z</time>
      </trkpt>
      <trkpt lat="59.9144103" lon="17.6427613">
        <ele>26.5736</ele>
        <time>2013-06-02T18:58:44Z</time>
      </trkpt>
      <trkpt lat="59.9143385" lon="17.6427667">
        <ele>27.5349</ele>
        <time>2013-06-02T18:58:45Z</time>
      </trkpt>
      <trkpt lat="59.9142641" lon="17.6427715">
        <ele>28.4962</ele>
        <time>2013-06-02T18:58:46Z</time>
      </trkpt>
      <trkpt lat="59.9141941" lon="17.6428103">
        <ele>29.9381</ele>
        <time>2013-06-02T18:58:47Z</time>
      </trkpt>
      <trkpt lat="59.9141227" lon="17.6428314">
        <ele>30.4188</ele>
        <time>2013-06-02T18:58:48Z</time>
      </trkpt>
      <trkpt lat="59.9140512" lon="17.642858">
        <ele>30.8995</ele>
        <time>2013-06-02T18:58:49Z</time>
      </trkpt>
      <trkpt lat="59.9139781" lon="17.6428733">
        <ele>31.3801</ele>
        <time>2013-06-02T18:58:50Z</time>
      </trkpt>
      <trkpt lat="59.913903" lon="17.64289">
        <ele>31.8607</ele>
        <time>2013-06-02T18:58:51Z</time>
      </trkpt>
      <trkpt lat="59.9138274" lon="17.6429051">
        <ele>32.3416</ele>
        <time>2013-06-02T18:58:52Z</time>
      </trkpt>
      <trkpt lat="59.9137518" lon="17.6429196">
        <ele>33.3029</ele>
        <time>2013-06-02T18:58:53Z</time>
      </trkpt>
      <trkpt lat="59.9136785" lon="17.6429307">
        <ele>32.3416</ele>
        <time>2013-06-02T18:58:54Z</time>
      </trkpt>
      <trkpt lat="59.9136058" lon="17.6429377">
        <ele>32.8223</ele>
        <time>2013-06-02T18:58:55Z</time>
      </trkpt>
      <trkpt lat="59.9135327" lon="17.6429459">
        <ele>33.3029</ele>
        <time>2013-06-02T18:58:56Z</time>
      </trkpt>
      <trkpt lat="59.9134607" lon="17.6429608">
        <ele>33.3029</ele>
        <time>2013-06-02T18:58:57Z</time>
      </trkpt>
      <trkpt lat="59.9133884" lon="17.6429849">
        <ele>33.3029</ele>
        <time>2013-06-02T18:58:58Z</time>
      </trkpt>
      <trkpt lat="59.913314" lon="17.6430149">
        <ele>33.3029</ele>
        <time>2013-06-02T18:58:59Z</time>
      </trkpt>
      <trkpt lat="59.9132431" lon="17.6430329">
        <ele>33.7834</ele>
        <time>2013-06-02T18:59:00Z</time>
      </trkpt>
      <trkpt lat="59.913168" lon="17.6430629">
        <ele>34.2642</ele>
        <time>2013-06-02T18:59:01Z</time>
      </trkpt>
      <trkpt lat="59.9130934" lon="17.6430925">
        <ele>35.2255</ele>
        <time>2013-06-02T18:59:02Z</time>
      </trkpt>
      <trkpt lat="59.9130114" lon="17.6431232">
        <ele>35.7061</ele>
        <time>2013-06-02T18:59:03Z</time>
      </trkpt>
      <trkpt lat="59.9129326" lon="17.6431405">
        <ele>36.1868</ele>
        <time>2013-06-02T18:59:04Z</time>
      </trkpt>
      <trkpt lat="59.9128695" lon="17.6431578">
        <ele>38.1094</ele>
        <time>2013-06-02T18:59:05Z</time>
      </trkpt>
      <trkpt lat="59.9128006" lon="17.6431563">
        <ele>39.0707</ele>
        <time>2013-06-02T18:59:06Z</time>
      </trkpt>
      <trkpt lat="59.9127244" lon="17.643148">
        <ele>39.5513</ele>
        <time>2013-06-02T18:59:07Z</time>
      </trkpt>
      <trkpt lat="59.9126492" lon="17.6431074">
        <ele>38.5901</ele>
        <time>2013-06-02T18:59:08Z</time>
      </trkpt>
      <trkpt lat="59.912564" lon="17.6430805">
        <ele>38.1094</ele>
        <time>2013-06-02T18:59:09Z</time>
      </trkpt>
      <trkpt lat="59.9124765" lon="17.6430703">
        <ele>37.6287</ele>
        <time>2013-06-02T18:59:10Z</time>
      </trkpt>
      <trkpt lat="59.912389" lon="17.6430801">
        <ele>37.6287</ele>
        <time>2013-06-02T18:59:11Z</time>
      </trkpt>
      <trkpt lat="59.9123013" lon="17.6431143">
        <ele>38.1094</ele>
        <time>2013-06-02T18:59:12Z</time>
      </trkpt>
      <trkpt lat="59.9122231" lon="17.6431379">
        <ele>35.2255</ele>
        <time>2013-06-02T18:59:13Z</time>
      </trkpt>
      <trkpt lat="59.9121434" lon="17.6431593">
        <ele>34.2642</ele>
        <time>2013-06-02T18:59:14Z</time>
      </trkpt>
      <trkpt lat="59.9120645" lon="17.6431695">
        <ele>34.7449</ele>
        <time>2013-06-02T18:59:15Z</time>
      </trkpt>
      <trkpt lat="59.9119899" lon="17.6431945">
        <ele>33.7834</ele>
        <time>2013-06-02T18:59:16Z</time>
      </trkpt>
      <trkpt lat="59.9119164" lon="17.6432218">
        <ele>33.7834</ele>
        <time>2013-06-02T18:59:17Z</time>
      </trkpt>
      <trkpt lat="59.9118451" lon="17.6432448">
        <ele>33.7834</ele>
        <time>2013-06-02T18:59:18Z</time>
      </trkpt>
      <trkpt lat="59.9117774" lon="17.6432401">
        <ele>32.3416</ele>
        <time>2013-06-02T18:59:19Z</time>
      </trkpt>
      <trkpt lat="59.9117077" lon="17.6432363">
        <ele>31.3801</ele>
        <time>2013-06-02T18:59:20Z</time>
      </trkpt>
      <trkpt lat="59.9116407" lon="17.6432448">
        <ele>30.8995</ele>
        <time>2013-06-02T18:59:21Z</time>
      </trkpt>
      <trkpt lat="59.9115716" lon="17.6432566">
        <ele>29.9381</ele>
        <time>2013-06-02T18:59:22Z</time>
      </trkpt>
      <trkpt lat="59.9115021" lon="17.643278">
        <ele>30.4188</ele>
        <time>2013-06-02T18:59:23Z</time>
      </trkpt>
      <trkpt lat="59.9114285" lon="17.6432992">
        <ele>30.8995</ele>
        <time>2013-06-02T18:59:24Z</time>
      </trkpt>
      <trkpt lat="59.9113548" lon="17.6433204">
        <ele>31.8607</ele>
        <time>2013-06-02T18:59:25Z</time>
      </trkpt>
      <trkpt lat="59.9112814" lon="17.643337">
        <ele>32.8223</ele>
        <time>2013-06-02T18:59:26Z</time>
      </trkpt>
      <trkpt lat="59.9112103" lon="17.643349">
        <ele>32.8223</ele>
        <time>2013-06-02T18:59:27Z</time>
      </trkpt>
      <trkpt lat="59.9111414" lon="17.6433484">
        <ele>31.8607</ele>
        <time>2013-06-02T18:59:28Z</time>
      </trkpt>
      <trkpt lat="59.9110726" lon="17.6433499">
        <ele>30.8995</ele>
        <time>2013-06-02T18:59:29Z</time>
      </trkpt>
      <trkpt lat="59.9110002" lon="17.6433576">
        <ele>30.8995</ele>
        <time>2013-06-02T18:59:30Z</time>
      </trkpt>
      <trkpt lat="59.9109246" lon="17.6433672">
        <ele>30.4188</ele>
        <time>2013-06-02T18:59:31Z</time>
      </trkpt>
      <trkpt lat="59.9108477" lon="17.6433779">
        <ele>29.9381</ele>
        <time>2013-06-02T18:59:32Z</time>
      </trkpt>
      <trkpt lat="59.9107701" lon="17.643393">
        <ele>29.9381</ele>
        <time>2013-06-02T18:59:33Z</time>
      </trkpt>
      <trkpt lat="59.9106929" lon="17.6434093">
        <ele>29.4575</ele>
        <time>2013-06-02T18:59:34Z</time>
      </trkpt>
      <trkpt lat="59.9106147" lon="17.6434348">
        <ele>29.9381</ele>
        <time>2013-06-02T18:59:35Z</time>
      </trkpt>
      <trkpt lat="59.9105401" lon="17.6434655">
        <ele>29.9381</ele>
        <time>2013-06-02T18:59:36Z</time>
      </trkpt>
      <trkpt lat="59.9104665" lon="17.6435049">
        <ele>30.4188</ele>
        <time>2013-06-02T18:59:37Z</time>
      </trkpt>
      <trkpt lat="59.910395" lon="17.6435363">
        <ele>30.4188</ele>
        <time>2013-06-02T18:59:38Z</time>
      </trkpt>
      <trkpt lat="59.9103225" lon="17.6435547">
        <ele>30.8995</ele>
        <time>2013-06-02T18:59:39Z</time>
      </trkpt>
      <trkpt lat="59.9102474" lon="17.6435639">
        <ele>30.8995</ele>
        <time>2013-06-02T18:59:40Z</time>
      </trkpt>
      <trkpt lat="59.9101697" lon="17.6435711">
        <ele>30.8995</ele>
        <time>2013-06-02T18:59:41Z</time>
      </trkpt>
      <trkpt lat="59.9100903" lon="17.6435649">
        <ele>30.4188</ele>
        <time>2013-06-02T18:59:42Z</time>
      </trkpt>
      <trkpt lat="59.9100067" lon="17.643545">
        <ele>29.9381</ele>
        <time>2013-06-02T18:59:43Z</time>
      </trkpt>
      <trkpt lat="59.9099191" lon="17.6435163">
        <ele>29.4575</ele>
        <time>2013-06-02T18:59:44Z</time>
      </trkpt>
      <trkpt lat="59.9098258" lon="17.6434867">
        <ele>28.4962</ele>
        <time>2013-06-02T18:59:45Z</time>
      </trkpt>
      <trkpt lat="59.9097356" lon="17.6434784">
        <ele>28.0155</ele>
        <time>2013-06-02T18:59:46Z</time>
      </trkpt>
      <trkpt lat="59.9096469" lon="17.6434888">
        <ele>27.5349</ele>
        <time>2013-06-02T18:59:47Z</time>
      </trkpt>
      <trkpt lat="59.9095578" lon="17.6434979">
        <ele>27.0543</ele>
        <time>2013-06-02T18:59:48Z</time>
      </trkpt>
      <trkpt lat="59.9094688" lon="17.6435125">
        <ele>25.6123</ele>
        <time>2013-06-02T18:59:49Z</time>
      </trkpt>
      <trkpt lat="59.9093782" lon="17.6435269">
        <ele>25.1317</ele>
        <time>2013-06-02T18:59:50Z</time>
      </trkpt>
      <trkpt lat="59.909287" lon="17.6435397">
        <ele>24.651</ele>
        <time>2013-06-02T18:59:51Z</time>
      </trkpt>
      <trkpt lat="59.9091943" lon="17.643552">
        <ele>25.1317</ele>
        <time>2013-06-02T18:59:52Z</time>
      </trkpt>
      <trkpt lat="59.9091027" lon="17.6435613">
        <ele>25.6123</ele>
        <time>2013-06-02T18:59:53Z</time>
      </trkpt>
      <trkpt lat="59.9090134" lon="17.6435611">
        <ele>25.1317</ele>
        <time>2013-06-02T18:59:54Z</time>
      </trkpt>
      <trkpt lat="59.9089239" lon="17.6435598">
        <ele>24.1703</ele>
        <time>2013-06-02T18:59:55Z</time>
      </trkpt>
      <trkpt lat="59.9088353" lon="17.6435556">
        <ele>23.209</ele>
        <time>2013-06-02T18:59:56Z</time>
      </trkpt>
      <trkpt lat="59.9087479" lon="17.6435448">
        <ele>22.2476</ele>
        <time>2013-06-02T18:59:57Z</time>
      </trkpt>
      <trkpt lat="59.9086595" lon="17.6435368">
        <ele>21.2864</ele>
        <time>2013-06-02T18:59:58Z</time>
      </trkpt>
      <trkpt lat="59.9085706" lon="17.643537">
        <ele>20.8057</ele>
        <time>2013-06-02T18:59:59Z</time>
      </trkpt>
      <trkpt lat="59.9084836" lon="17.6435394">
        <ele>19.8444</ele>
        <time>2013-06-02T19:00:00Z</time>
      </trkpt>
      <trkpt lat="59.9083977" lon="17.64354">
        <ele>19.8444</ele>
        <time>2013-06-02T19:00:01Z</time>
      </trkpt>
      <trkpt lat="59.9083184" lon="17.6435238">
        <ele>19.3638</ele>
        <time>2013-06-02T19:00:02Z</time>
      </trkpt>
      <trkpt lat="59.9082333" lon="17.6435059">
        <ele>19.3638</ele>
        <time>2013-06-02T19:00:03Z</time>
      </trkpt>
      <trkpt lat="59.908146" lon="17.6434932">
        <ele>19.3638</ele>
        <time>2013-06-02T19:00:04Z</time>
      </trkpt>
      <trkpt lat="59.9080571" lon="17.6434824">
        <ele>19.8444</ele>
        <time>2013-06-02T19:00:05Z</time>
      </trkpt>
      <trkpt lat="59.9079667" lon="17.6434734">
        <ele>19.8444</ele>
        <time>2013-06-02T19:00:06Z</time>
      </trkpt>
      <trkpt lat="59.9078745" lon="17.6434577">
        <ele>19.8444</ele>
        <time>2013-06-02T19:00:07Z</time>
      </trkpt>
      <trkpt lat="59.907782" lon="17.6434404">
        <ele>19.3638</ele>
        <time>2013-06-02T19:00:08Z</time>
      </trkpt>
      <trkpt lat="59.9076896" lon="17.6434225">
        <ele>18.8831</ele>
        <time>2013-06-02T19:00:09Z</time>
      </trkpt>
      <trkpt lat="59.9075969" lon="17.6434086">
        <ele>18.8831</ele>
        <time>2013-06-02T19:00:10Z</time>
      </trkpt>
      <trkpt lat="59.9075057" lon="17.643396">
        <ele>18.4023</ele>
        <time>2013-06-02T19:00:11Z</time>
      </trkpt>
      <trkpt lat="59.9074144" lon="17.6433808">
        <ele>17.9218</ele>
        <time>2013-06-02T19:00:12Z</time>
      </trkpt>
      <trkpt lat="59.9073251" lon="17.6433675">
        <ele>17.9218</ele>
        <time>2013-06-02T19:00:13Z</time>
      </trkpt>
      <trkpt lat="59.9072367" lon="17.6433588">
        <ele>17.9218</ele>
        <time>2013-06-02T19:00:14Z</time>
      </trkpt>
      <trkpt lat="59.9071483" lon="17.6433493">
        <ele>17.9218</ele>
        <time>2013-06-02T19:00:15Z</time>
      </trkpt>
      <trkpt lat="59.9070602" lon="17.6433333">
        <ele>17.9218</ele>
        <time>2013-06-02T19:00:16Z</time>
      </trkpt>
      <trkpt lat="59.906973" lon="17.6433114">
        <ele>18.4023</ele>
        <time>2013-06-02T19:00:17Z</time>
      </trkpt>
      <trkpt lat="59.9068859" lon="17.6432843">
        <ele>17.9218</ele>
        <time>2013-06-02T19:00:18Z</time>
      </trkpt>
      <trkpt lat="59.9068004" lon="17.6432553">
        <ele>16.9604</ele>
        <time>2013-06-02T19:00:19Z</time>
      </trkpt>
      <trkpt lat="59.9067172" lon="17.6432298">
        <ele>16.4797</ele>
        <time>2013-06-02T19:00:20Z</time>
      </trkpt>
      <trkpt lat="59.9066331" lon="17.6432083">
        <ele>15.999</ele>
        <time>2013-06-02T19:00:21Z</time>
      </trkpt>
      <trkpt lat="59.9065491" lon="17.6431858">
        <ele>15.5184</ele>
        <time>2013-06-02T19:00:22Z</time>
      </trkpt>
      <trkpt lat="59.9064624" lon="17.6431608">
        <ele>15.5184</ele>
        <time>2013-06-02T19:00:23Z</time>
      </trkpt>
      <trkpt lat="59.9063768" lon="17.6431317">
        <ele>15.5184</ele>
        <time>2013-06-02T19:00:24Z</time>
      </trkpt>
      <trkpt lat="59.9062928" lon="17.6430955">
        <ele>15.0377</ele>
        <time>2013-06-02T19:00:25Z</time>
      </trkpt>
      <trkpt lat="59.9062131" lon="17.6430568">
        <ele>14.557</ele>
        <time>2013-06-02T19:00:26Z</time>
      </trkpt>
      <trkpt lat="59.9061333" lon="17.6430179">
        <ele>14.0764</ele>
        <time>2013-06-02T19:00:27Z</time>
      </trkpt>
      <trkpt lat="59.9060521" lon="17.6429864">
        <ele>13.5958</ele>
        <time>2013-06-02T19:00:28Z</time>
      </trkpt>
      <trkpt lat="59.9059722" lon="17.6429527">
        <ele>13.1151</ele>
        <time>2013-06-02T19:00:29Z</time>
      </trkpt>
      <trkpt lat="59.9058926" lon="17.6429143">
        <ele>12.6344</ele>
        <time>2013-06-02T19:00:30Z</time>
      </trkpt>
      <trkpt lat="59.9058138" lon="17.6428738">
        <ele>12.1538</ele>
        <time>2013-06-02T19:00:31Z</time>
      </trkpt>
      <trkpt lat="59.9057352" lon="17.6428364">
        <ele>12.1538</ele>
        <time>2013-06-02T19:00:32Z</time>
      </trkpt>
      <trkpt lat="59.9056672" lon="17.6428059">
        <ele>11.1925</ele>
        <time>2013-06-02T19:00:33Z</time>
      </trkpt>
      <trkpt lat="59.9056031" lon="17.6427801">
        <ele>11.1925</ele>
        <time>2013-06-02T19:00:34Z</time>
      </trkpt>
      <trkpt lat="59.9055407" lon="17.6427639">
        <ele>10.2312</ele>
        <time>2013-06-02T19:00:35Z</time>
      </trkpt>
      <trkpt lat="59.9054792" lon="17.6427594">
        <ele>10.2312</ele>
        <time>2013-06-02T19:00:36Z</time>
      </trkpt>
      <trkpt lat="59.9054194" lon="17.6427531">
        <ele>10.2312</ele>
        <time>2013-06-02T19:00:37Z</time>
      </trkpt>
      <trkpt lat="59.905361" lon="17.6427401">
        <ele>10.7118</ele>
        <time>2013-06-02T19:00:38Z</time>
      </trkpt>
      <trkpt lat="59.9053035" lon="17.642725">
        <ele>11.1925</ele>
        <time>2013-06-02T19:00:39Z</time>
      </trkpt>
      <trkpt lat="59.9052466" lon="17.6426952">
        <ele>11.1925</ele>
        <time>2013-06-02T19:00:40Z</time>
      </trkpt>
      <trkpt lat="59.905187" lon="17.6426904">
        <ele>12.6344</ele>
        <time>2013-06-02T19:00:41Z</time>
      </trkpt>
      <trkpt lat="59.9051335" lon="17.6426916">
        <ele>13.1151</ele>
        <time>2013-06-02T19:00:42Z</time>
      </trkpt>
      <trkpt lat="59.9050764" lon="17.6426911">
        <ele>14.557</ele>
        <time>2013-06-02T19:00:43Z</time>
      </trkpt>
      <trkpt lat="59.9050155" lon="17.6426846">
        <ele>15.0377</ele>
        <time>2013-06-02T19:00:44Z</time>
      </trkpt>
      <trkpt lat="59.9049609" lon="17.642661">
        <ele>14.557</ele>
        <time>2013-06-02T19:00:45Z</time>
      </trkpt>
      <trkpt lat="59.9048959" lon="17.6426444">
        <ele>15.0377</ele>
        <time>2013-06-02T19:00:46Z</time>
      </trkpt>
      <trkpt lat="59.9048309" lon="17.6426223">
        <ele>15.999</ele>
        <time>2013-06-02T19:00:47Z</time>
      </trkpt>
      <trkpt lat="59.9047632" lon="17.6425978">
        <ele>16.4797</ele>
        <time>2013-06-02T19:00:48Z</time>
      </trkpt>
      <trkpt lat="59.9046957" lon="17.6425708">
        <ele>15.999</ele>
        <time>2013-06-02T19:00:49Z</time>
      </trkpt>
      <trkpt lat="59.9046188" lon="17.6425387">
        <ele>16.4797</ele>
        <time>2013-06-02T19:00:50Z</time>
      </trkpt>
      <trkpt lat="59.9045447" lon="17.6425045">
        <ele>15.999</ele>
        <time>2013-06-02T19:00:51Z</time>
      </trkpt>
      <trkpt lat="59.9044711" lon="17.6424653">
        <ele>15.5184</ele>
        <time>2013-06-02T19:00:52Z</time>
      </trkpt>
      <trkpt lat="59.9044005" lon="17.6424284">
        <ele>15.0377</ele>
        <time>2013-06-02T19:00:53Z</time>
      </trkpt>
      <trkpt lat="59.9043319" lon="17.6423949">
        <ele>14.557</ele>
        <time>2013-06-02T19:00:54Z</time>
      </trkpt>
      <trkpt lat="59.9042639" lon="17.6423642">
        <ele>14.0764</ele>
        <time>2013-06-02T19:00:55Z</time>
      </trkpt>
      <trkpt lat="59.9041914" lon="17.6423347">
        <ele>14.557</ele>
        <time>2013-06-02T19:00:56Z</time>
      </trkpt>
      <trkpt lat="59.9041228" lon="17.6423005">
        <ele>14.557</ele>
        <time>2013-06-02T19:00:57Z</time>
      </trkpt>
      <trkpt lat="59.9040572" lon="17.6422627">
        <ele>14.557</ele>
        <time>2013-06-02T19:00:58Z</time>
      </trkpt>
      <trkpt lat="59.9039904" lon="17.6422296">
        <ele>14.0764</ele>
        <time>2013-06-02T19:00:59Z</time>
      </trkpt>
      <trkpt lat="59.9039266" lon="17.6421949">
        <ele>12.6344</ele>
        <time>2013-06-02T19:01:00Z</time>
      </trkpt>
      <trkpt lat="59.9038629" lon="17.642156">
        <ele>11.6732</ele>
        <time>2013-06-02T19:01:01Z</time>
      </trkpt>
      <trkpt lat="59.9037955" lon="17.6421191">
        <ele>11.1925</ele>
        <time>2013-06-02T19:01:02Z</time>
      </trkpt>
      <trkpt lat="59.903724" lon="17.6420834">
        <ele>11.1925</ele>
        <time>2013-06-02T19:01:03Z</time>
      </trkpt>
      <trkpt lat="59.9036525" lon="17.6420486">
        <ele>11.6732</ele>
        <time>2013-06-02T19:01:04Z</time>
      </trkpt>
      <trkpt lat="59.903578" lon="17.6420061">
        <ele>10.7118</ele>
        <time>2013-06-02T19:01:05Z</time>
      </trkpt>
      <trkpt lat="59.903505" lon="17.6419691">
        <ele>10.2312</ele>
        <time>2013-06-02T19:01:06Z</time>
      </trkpt>
      <trkpt lat="59.9034302" lon="17.6419316">
        <ele>9.75061</ele>
        <time>2013-06-02T19:01:07Z</time>
      </trkpt>
      <trkpt lat="59.9033549" lon="17.641896">
        <ele>9.2699</ele>
        <time>2013-06-02T19:01:08Z</time>
      </trkpt>
      <trkpt lat="59.9032796" lon="17.6418581">
        <ele>8.78918</ele>
        <time>2013-06-02T19:01:09Z</time>
      </trkpt>
      <trkpt lat="59.9032057" lon="17.6418203">
        <ele>8.78918</ele>
        <time>2013-06-02T19:01:10Z</time>
      </trkpt>
      <trkpt lat="59.903132" lon="17.6417813">
        <ele>8.78918</ele>
        <time>2013-06-02T19:01:11Z</time>
      </trkpt>
      <trkpt lat="59.9030574" lon="17.6417419">
        <ele>8.78918</ele>
        <time>2013-06-02T19:01:12Z</time>
      </trkpt>
      <trkpt lat="59.9029818" lon="17.6417025">
        <ele>8.78918</ele>
        <time>2013-06-02T19:01:13Z</time>
      </trkpt>
      <trkpt lat="59.9029067" lon="17.6416634">
        <ele>8.78918</ele>
        <time>2013-06-02T19:01:14Z</time>
      </trkpt>
      <trkpt lat="59.9028311" lon="17.6416245">
        <ele>9.2699</ele>
        <time>2013-06-02T19:01:15Z</time>
      </trkpt>
      <trkpt lat="59.9027553" lon="17.6415841">
        <ele>9.2699</ele>
        <time>2013-06-02T19:01:16Z</time>
      </trkpt>
      <trkpt lat="59.9026793" lon="17.6415427">
        <ele>9.75061</ele>
        <time>2013-06-02T19:01:17Z</time>
      </trkpt>
      <trkpt lat="59.9026036" lon="17.6414995">
        <ele>9.75061</ele>
        <time>2013-06-02T19:01:18Z</time>
      </trkpt>
      <trkpt lat="59.9025292" lon="17.6414535">
        <ele>9.75061</ele>
        <time>2013-06-02T19:01:19Z</time>
      </trkpt>
      <trkpt lat="59.9024543" lon="17.641406">
        <ele>10.2312</ele>
        <time>2013-06-02T19:01:20Z</time>
      </trkpt>
      <trkpt lat="59.9023797" lon="17.641359">
        <ele>10.2312</ele>
        <time>2013-06-02T19:01:21Z</time>
      </trkpt>
      <trkpt lat="59.9023062" lon="17.6413142">
        <ele>10.2312</ele>
        <time>2013-06-02T19:01:22Z</time>
      </trkpt>
      <trkpt lat="59.9022342" lon="17.6412665">
        <ele>10.7118</ele>
        <time>2013-06-02T19:01:23Z</time>
      </trkpt>
      <trkpt lat="59.9021628" lon="17.6412163">
        <ele>11.1925</ele>
        <time>2013-06-02T19:01:24Z</time>
      </trkpt>
      <trkpt lat="59.9020917" lon="17.641165">
        <ele>11.6732</ele>
        <time>2013-06-02T19:01:25Z</time>
      </trkpt>
      <trkpt lat="59.9020209" lon="17.641113">
        <ele>12.1538</ele>
        <time>2013-06-02T19:01:26Z</time>
      </trkpt>
      <trkpt lat="59.9019509" lon="17.6410603">
        <ele>12.1538</ele>
        <time>2013-06-02T19:01:27Z</time>
      </trkpt>
      <trkpt lat="59.9018816" lon="17.6410034">
        <ele>12.6344</ele>
        <time>2013-06-02T19:01:28Z</time>
      </trkpt>
      <trkpt lat="59.901813" lon="17.6409447">
        <ele>12.6344</ele>
        <time>2013-06-02T19:01:29Z</time>
      </trkpt>
      <trkpt lat="59.9017452" lon="17.6408858">
        <ele>12.6344</ele>
        <time>2013-06-02T19:01:30Z</time>
      </trkpt>
      <trkpt lat="59.9016752" lon="17.6408303">
        <ele>13.5958</ele>
        <time>2013-06-02T19:01:31Z</time>
      </trkpt>
      <trkpt lat="59.9016054" lon="17.6407739">
        <ele>14.557</ele>
        <time>2013-06-02T19:01:32Z</time>
      </trkpt>
      <trkpt lat="59.9015361" lon="17.6407144">
        <ele>15.5184</ele>
        <time>2013-06-02T19:01:33Z</time>
      </trkpt>
      <trkpt lat="59.9014681" lon="17.6406522">
        <ele>15.999</ele>
        <time>2013-06-02T19:01:34Z</time>
      </trkpt>
      <trkpt lat="59.9014014" lon="17.6405886">
        <ele>16.4797</ele>
        <time>2013-06-02T19:01:35Z</time>
      </trkpt>
      <trkpt lat="59.9013359" lon="17.6405223">
        <ele>16.9604</ele>
        <time>2013-06-02T19:01:36Z</time>
      </trkpt>
      <trkpt lat="59.9012698" lon="17.6404565">
        <ele>17.4412</ele>
        <time>2013-06-02T19:01:37Z</time>
      </trkpt>
      <trkpt lat="59.9012054" lon="17.640388">
        <ele>16.9604</ele>
        <time>2013-06-02T19:01:38Z</time>
      </trkpt>
      <trkpt lat="59.9011413" lon="17.6403164">
        <ele>15.0377</ele>
        <time>2013-06-02T19:01:39Z</time>
      </trkpt>
      <trkpt lat="59.9010777" lon="17.6402548">
        <ele>14.557</ele>
        <time>2013-06-02T19:01:40Z</time>
      </trkpt>
      <trkpt lat="59.9010128" lon="17.640191">
        <ele>14.557</ele>
        <time>2013-06-02T19:01:41Z</time>
      </trkpt>
      <trkpt lat="59.9009471" lon="17.6401222">
        <ele>14.0764</ele>
        <time>2013-06-02T19:01:42Z</time>
      </trkpt>
      <trkpt lat="59.9008782" lon="17.6400513">
        <ele>15.0377</ele>
        <time>2013-06-02T19:01:43Z</time>
      </trkpt>
      <trkpt lat="59.9008092" lon="17.6399882">
        <ele>15.0377</ele>
        <time>2013-06-02T19:01:44Z</time>
      </trkpt>
      <trkpt lat="59.9007425" lon="17.6399236">
        <ele>14.557</ele>
        <time>2013-06-02T19:01:45Z</time>
      </trkpt>
      <trkpt lat="59.9006781" lon="17.6398579">
        <ele>13.5958</ele>
        <time>2013-06-02T19:01:46Z</time>
      </trkpt>
      <trkpt lat="59.9006187" lon="17.6397902">
        <ele>13.1151</ele>
        <time>2013-06-02T19:01:47Z</time>
      </trkpt>
      <trkpt lat="59.9005617" lon="17.639724">
        <ele>12.6344</ele>
        <time>2013-06-02T19:01:48Z</time>
      </trkpt>
      <trkpt lat="59.9005086" lon="17.6396586">
        <ele>12.1538</ele>
        <time>2013-06-02T19:01:49Z</time>
      </trkpt>
      <trkpt lat="59.9004503" lon="17.6395928">
        <ele>11.6732</ele>
        <time>2013-06-02T19:01:50Z</time>
      </trkpt>
      <trkpt lat="59.9003896" lon="17.6395233">
        <ele>12.1538</ele>
        <time>2013-06-02T19:01:51Z</time>
      </trkpt>
      <trkpt lat="59.9003353" lon="17.6394567">
        <ele>11.6732</ele>
        <time>2013-06-02T19:01:52Z</time>
      </trkpt>
      <trkpt lat="59.9002815" lon="17.6393964">
        <ele>11.6732</ele>
        <time>2013-06-02T19:01:53Z</time>
      </trkpt>
      <trkpt lat="59.9002265" lon="17.6393355">
        <ele>11.1925</ele>
        <time>2013-06-02T19:01:54Z</time>
      </trkpt>
      <trkpt lat="59.9001612" lon="17.639263">
        <ele>10.2312</ele>
        <time>2013-06-02T19:01:55Z</time>
      </trkpt>
      <trkpt lat="59.9001016" lon="17.6391979">
        <ele>10.2312</ele>
        <time>2013-06-02T19:01:56Z</time>
      </trkpt>
      <trkpt lat="59.9000445" lon="17.6391391">
        <ele>10.7118</ele>
        <time>2013-06-02T19:01:57Z</time>
      </trkpt>
      <trkpt lat="59.8999888" lon="17.6390755">
        <ele>10.2312</ele>
        <time>2013-06-02T19:01:58Z</time>
      </trkpt>
      <trkpt lat="59.8999373" lon="17.6390089">
        <ele>10.2312</ele>
        <time>2013-06-02T19:01:59Z</time>
      </trkpt>
      <trkpt lat="59.8998767" lon="17.6389365">
        <ele>8.78918</ele>
        <time>2013-06-02T19:02:00Z</time>
      </trkpt>
      <trkpt lat="59.8998145" lon="17.6388666">
        <ele>8.30859</ele>
        <time>2013-06-02T19:02:01Z</time>
      </trkpt>
      <trkpt lat="59.899743" lon="17.6388142">
        <ele>10.2312</ele>
        <time>2013-06-02T19:02:02Z</time>
      </trkpt>
      <trkpt lat="59.8996757" lon="17.6387604">
        <ele>11.1925</ele>
        <time>2013-06-02T19:02:03Z</time>
      </trkpt>
      <trkpt lat="59.8996159" lon="17.6386997">
        <ele>10.7118</ele>
        <time>2013-06-02T19:02:04Z</time>
      </trkpt>
      <trkpt lat="59.8995477" lon="17.6386469">
        <ele>12.6344</ele>
        <time>2013-06-02T19:02:05Z</time>
      </trkpt>
      <trkpt lat="59.8994799" lon="17.6385801">
        <ele>13.5958</ele>
        <time>2013-06-02T19:02:06Z</time>
      </trkpt>
      <trkpt lat="59.8994144" lon="17.6385126">
        <ele>12.6344</ele>
        <time>2013-06-02T19:02:07Z</time>
      </trkpt>
      <trkpt lat="59.899345" lon="17.63846">
        <ele>15.0377</ele>
        <time>2013-06-02T19:02:08Z</time>
      </trkpt>
      <trkpt lat="59.899282" lon="17.6384009">
        <ele>15.999</ele>
        <time>2013-06-02T19:02:09Z</time>
      </trkpt>
      <trkpt lat="59.899208" lon="17.6383473">
        <ele>17.9218</ele>
        <time>2013-06-02T19:02:10Z</time>
      </trkpt>
      <trkpt lat="59.8991241" lon="17.6382917">
        <ele>19.8444</ele>
        <time>2013-06-02T19:02:11Z</time>
      </trkpt>
      <trkpt lat="59.8990438" lon="17.6382283">
        <ele>21.2864</ele>
        <time>2013-06-02T19:02:12Z</time>
      </trkpt>
      <trkpt lat="59.8989617" lon="17.6381942">
        <ele>23.209</ele>
        <time>2013-06-02T19:02:13Z</time>
      </trkpt>
      <trkpt lat="59.8988797" lon="17.6381538">
        <ele>25.1317</ele>
        <time>2013-06-02T19:02:14Z</time>
      </trkpt>
      <trkpt lat="59.8987963" lon="17.638136">
        <ele>26.5736</ele>
        <time>2013-06-02T19:02:15Z</time>
      </trkpt>
      <trkpt lat="59.8987129" lon="17.6381486">
        <ele>27.5349</ele>
        <time>2013-06-02T19:02:16Z</time>
      </trkpt>
      <trkpt lat="59.8986397" lon="17.638143">
        <ele>27.5349</ele>
        <time>2013-06-02T19:02:17Z</time>
      </trkpt>
      <trkpt lat="59.8985652" lon="17.6381146">
        <ele>27.5349</ele>
        <time>2013-06-02T19:02:18Z</time>
      </trkpt>
      <trkpt lat="59.8984937" lon="17.6380704">
        <ele>26.0929</ele>
        <time>2013-06-02T19:02:19Z</time>
      </trkpt>
      <trkpt lat="59.8984264" lon="17.6380168">
        <ele>26.0929</ele>
        <time>2013-06-02T19:02:20Z</time>
      </trkpt>
      <trkpt lat="59.8983539" lon="17.6379481">
        <ele>26.0929</ele>
        <time>2013-06-02T19:02:21Z</time>
      </trkpt>
      <trkpt lat="59.8982767" lon="17.6378842">
        <ele>26.5736</ele>
        <time>2013-06-02T19:02:22Z</time>
      </trkpt>
      <trkpt lat="59.8981971" lon="17.6378176">
        <ele>26.5736</ele>
        <time>2013-06-02T19:02:23Z</time>
      </trkpt>
      <trkpt lat="59.8981239" lon="17.6377549">
        <ele>26.5736</ele>
        <time>2013-06-02T19:02:24Z</time>
      </trkpt>
      <trkpt lat="59.8980548" lon="17.6376874">
        <ele>27.0543</ele>
        <time>2013-06-02T19:02:25Z</time>
      </trkpt>
      <trkpt lat="59.8979852" lon="17.6376001">
        <ele>27.0543</ele>
        <time>2013-06-02T19:02:26Z</time>
      </trkpt>
      <trkpt lat="59.8979249" lon="17.6374964">
        <ele>26.5736</ele>
        <time>2013-06-02T19:02:27Z</time>
      </trkpt>
      <trkpt lat="59.8978685" lon="17.6373878">
        <ele>26.5736</ele>
        <time>2013-06-02T19:02:28Z</time>
      </trkpt>
      <trkpt lat="59.8978161" lon="17.6372787">
        <ele>27.0543</ele>
        <time>2013-06-02T19:02:29Z</time>
      </trkpt>
      <trkpt lat="59.8977621" lon="17.6371792">
        <ele>26.5736</ele>
        <time>2013-06-02T19:02:30Z</time>
      </trkpt>
      <trkpt lat="59.8977033" lon="17.6371003">
        <ele>26.5736</ele>
        <time>2013-06-02T19:02:31Z</time>
      </trkpt>
      <trkpt lat="59.8976329" lon="17.637044">
        <ele>25.6123</ele>
        <time>2013-06-02T19:02:32Z</time>
      </trkpt>
      <trkpt lat="59.8975494" lon="17.636985">
        <ele>25.1317</ele>
        <time>2013-06-02T19:02:33Z</time>
      </trkpt>
      <trkpt lat="59.8974686" lon="17.6369361">
        <ele>25.6123</ele>
        <time>2013-06-02T19:02:34Z</time>
      </trkpt>
      <trkpt lat="59.8973914" lon="17.6369007">
        <ele>26.5736</ele>
        <time>2013-06-02T19:02:35Z</time>
      </trkpt>
      <trkpt lat="59.8973189" lon="17.6368645">
        <ele>26.0929</ele>
        <time>2013-06-02T19:02:36Z</time>
      </trkpt>
      <trkpt lat="59.8972429" lon="17.6368349">
        <ele>26.0929</ele>
        <time>2013-06-02T19:02:37Z</time>
      </trkpt>
      <trkpt lat="59.8971709" lon="17.6368023">
        <ele>25.6123</ele>
        <time>2013-06-02T19:02:38Z</time>
      </trkpt>
      <trkpt lat="59.8970973" lon="17.6367696">
        <ele>25.6123</ele>
        <time>2013-06-02T19:02:39Z</time>
      </trkpt>
      <trkpt lat="59.8970253" lon="17.6367334">
        <ele>25.1317</ele>
        <time>2013-06-02T19:02:40Z</time>
      </trkpt>
      <trkpt lat="59.8969584" lon="17.6366951">
        <ele>24.651</ele>
        <time>2013-06-02T19:02:41Z</time>
      </trkpt>
      <trkpt lat="59.8968925" lon="17.6366586">
        <ele>23.6896</ele>
        <time>2013-06-02T19:02:42Z</time>
      </trkpt>
      <trkpt lat="59.8968232" lon="17.6366252">
        <ele>23.209</ele>
        <time>2013-06-02T19:02:43Z</time>
      </trkpt>
      <trkpt lat="59.8967543" lon="17.6365951">
        <ele>23.209</ele>
        <time>2013-06-02T19:02:44Z</time>
      </trkpt>
      <trkpt lat="59.8966827" lon="17.6365666">
        <ele>22.7283</ele>
        <time>2013-06-02T19:02:45Z</time>
      </trkpt>
      <trkpt lat="59.8966098" lon="17.636536">
        <ele>22.7283</ele>
        <time>2013-06-02T19:02:46Z</time>
      </trkpt>
      <trkpt lat="59.8965362" lon="17.6365051">
        <ele>22.7283</ele>
        <time>2013-06-02T19:02:47Z</time>
      </trkpt>
      <trkpt lat="59.8964623" lon="17.6364752">
        <ele>22.7283</ele>
        <time>2013-06-02T19:02:48Z</time>
      </trkpt>
      <trkpt lat="59.8963886" lon="17.6364459">
        <ele>22.7283</ele>
        <time>2013-06-02T19:02:49Z</time>
      </trkpt>
      <trkpt lat="59.8963171" lon="17.6364107">
        <ele>22.7283</ele>
        <time>2013-06-02T19:02:50Z</time>
      </trkpt>
      <trkpt lat="59.8962475" lon="17.6363672">
        <ele>22.2476</ele>
        <time>2013-06-02T19:02:51Z</time>
      </trkpt>
      <trkpt lat="59.8961767" lon="17.6363309">
        <ele>23.209</ele>
        <time>2013-06-02T19:02:52Z</time>
      </trkpt>
      <trkpt lat="59.8961059" lon="17.6362951">
        <ele>23.209</ele>
        <time>2013-06-02T19:02:53Z</time>
      </trkpt>
      <trkpt lat="59.8960322" lon="17.636268">
        <ele>23.209</ele>
        <time>2013-06-02T19:02:54Z</time>
      </trkpt>
      <trkpt lat="59.8959553" lon="17.6362574">
        <ele>24.651</ele>
        <time>2013-06-02T19:02:55Z</time>
      </trkpt>
      <trkpt lat="59.8958798" lon="17.6362605">
        <ele>25.1317</ele>
        <time>2013-06-02T19:02:56Z</time>
      </trkpt>
      <trkpt lat="59.8958038" lon="17.6362729">
        <ele>25.6123</ele>
        <time>2013-06-02T19:02:57Z</time>
      </trkpt>
      <trkpt lat="59.895726" lon="17.6363004">
        <ele>26.0929</ele>
        <time>2013-06-02T19:02:58Z</time>
      </trkpt>
      <trkpt lat="59.8956497" lon="17.6363303">
        <ele>26.5736</ele>
        <time>2013-06-02T19:02:59Z</time>
      </trkpt>
      <trkpt lat="59.8955669" lon="17.6363718">
        <ele>28.4962</ele>
        <time>2013-06-02T19:03:00Z</time>
      </trkpt>
      <trkpt lat="59.8954856" lon="17.6364174">
        <ele>29.9381</ele>
        <time>2013-06-02T19:03:01Z</time>
      </trkpt>
      <trkpt lat="59.8954106" lon="17.6364621">
        <ele>29.4575</ele>
        <time>2013-06-02T19:03:02Z</time>
      </trkpt>
      <trkpt lat="59.8953349" lon="17.6365091">
        <ele>28.4962</ele>
        <time>2013-06-02T19:03:03Z</time>
      </trkpt>
      <trkpt lat="59.8952552" lon="17.6365654">
        <ele>28.4962</ele>
        <time>2013-06-02T19:03:04Z</time>
      </trkpt>
      <trkpt lat="59.8951721" lon="17.636619">
        <ele>28.9769</ele>
        <time>2013-06-02T19:03:05Z</time>
      </trkpt>
      <trkpt lat="59.8950122" lon="17.6367325">
        <ele>30.4188</ele>
        <time>2013-06-02T19:03:07Z</time>
      </trkpt>
      <trkpt lat="59.8949319" lon="17.6367869">
        <ele>29.9381</ele>
        <time>2013-06-02T19:03:08Z</time>
      </trkpt>
      <trkpt lat="59.8948533" lon="17.6368401">
        <ele>29.9381</ele>
        <time>2013-06-02T19:03:09Z</time>
      </trkpt>
      <trkpt lat="59.8947724" lon="17.6369161">
        <ele>31.8607</ele>
        <time>2013-06-02T19:03:10Z</time>
      </trkpt>
      <trkpt lat="59.894692" lon="17.6369763">
        <ele>33.3029</ele>
        <time>2013-06-02T19:03:11Z</time>
      </trkpt>
      <trkpt lat="59.8946122" lon="17.6370473">
        <ele>34.7449</ele>
        <time>2013-06-02T19:03:12Z</time>
      </trkpt>
      <trkpt lat="59.8945334" lon="17.6370961">
        <ele>33.7834</ele>
        <time>2013-06-02T19:03:13Z</time>
      </trkpt>
      <trkpt lat="59.8944497" lon="17.6371436">
        <ele>33.7834</ele>
        <time>2013-06-02T19:03:14Z</time>
      </trkpt>
      <trkpt lat="59.8943699" lon="17.6371948">
        <ele>34.7449</ele>
        <time>2013-06-02T19:03:15Z</time>
      </trkpt>
      <trkpt lat="59.8942953" lon="17.6372431">
        <ele>35.2255</ele>
        <time>2013-06-02T19:03:16Z</time>
      </trkpt>
      <trkpt lat="59.8942198" lon="17.6372903">
        <ele>36.6675</ele>
        <time>2013-06-02T19:03:17Z</time>
      </trkpt>
      <trkpt lat="59.8941442" lon="17.6373395">
        <ele>36.6675</ele>
        <time>2013-06-02T19:03:18Z</time>
      </trkpt>
      <trkpt lat="59.8940679" lon="17.6373981">
        <ele>36.1868</ele>
        <time>2013-06-02T19:03:19Z</time>
      </trkpt>
      <trkpt lat="59.8939923" lon="17.6374623">
        <ele>35.7061</ele>
        <time>2013-06-02T19:03:20Z</time>
      </trkpt>
      <trkpt lat="59.8939166" lon="17.6375177">
        <ele>36.1868</ele>
        <time>2013-06-02T19:03:21Z</time>
      </trkpt>
      <trkpt lat="59.8938415" lon="17.6375755">
        <ele>36.1868</ele>
        <time>2013-06-02T19:03:22Z</time>
      </trkpt>
      <trkpt lat="59.8937654" lon="17.637634">
        <ele>36.1868</ele>
        <time>2013-06-02T19:03:23Z</time>
      </trkpt>
      <trkpt lat="59.8936899" lon="17.6377088">
        <ele>35.2255</ele>
        <time>2013-06-02T19:03:24Z</time>
      </trkpt>
      <trkpt lat="59.8936157" lon="17.6377641">
        <ele>35.7061</ele>
        <time>2013-06-02T19:03:25Z</time>
      </trkpt>
      <trkpt lat="59.8935432" lon="17.6378135">
        <ele>36.6675</ele>
        <time>2013-06-02T19:03:26Z</time>
      </trkpt>
      <trkpt lat="59.8934692" lon="17.6378625">
        <ele>38.1094</ele>
        <time>2013-06-02T19:03:27Z</time>
      </trkpt>
      <trkpt lat="59.8933883" lon="17.6379166">
        <ele>40.5128</ele>
        <time>2013-06-02T19:03:28Z</time>
      </trkpt>
      <trkpt lat="59.8933131" lon="17.637973">
        <ele>39.5513</ele>
        <time>2013-06-02T19:03:29Z</time>
      </trkpt>
      <trkpt lat="59.893241" lon="17.6380255">
        <ele>38.5901</ele>
        <time>2013-06-02T19:03:30Z</time>
      </trkpt>
      <trkpt lat="59.8931692" lon="17.6380635">
        <ele>37.6287</ele>
        <time>2013-06-02T19:03:31Z</time>
      </trkpt>
      <trkpt lat="59.8930879" lon="17.6381092">
        <ele>38.1094</ele>
        <time>2013-06-02T19:03:32Z</time>
      </trkpt>
      <trkpt lat="59.8930097" lon="17.6381581">
        <ele>36.6675</ele>
        <time>2013-06-02T19:03:33Z</time>
      </trkpt>
      <trkpt lat="59.892933" lon="17.6381958">
        <ele>35.7061</ele>
        <time>2013-06-02T19:03:34Z</time>
      </trkpt>
      <trkpt lat="59.8928563" lon="17.6382232">
        <ele>34.7449</ele>
        <time>2013-06-02T19:03:35Z</time>
      </trkpt>
      <trkpt lat="59.8927753" lon="17.6382427">
        <ele>35.2255</ele>
        <time>2013-06-02T19:03:36Z</time>
      </trkpt>
      <trkpt lat="59.8926904" lon="17.6382319">
        <ele>34.7449</ele>
        <time>2013-06-02T19:03:37Z</time>
      </trkpt>
      <trkpt lat="59.8926052" lon="17.6382207">
        <ele>33.3029</ele>
        <time>2013-06-02T19:03:38Z</time>
      </trkpt>
      <trkpt lat="59.8925185" lon="17.6382101">
        <ele>32.3416</ele>
        <time>2013-06-02T19:03:39Z</time>
      </trkpt>
      <trkpt lat="59.89243" lon="17.6382035">
        <ele>30.4188</ele>
        <time>2013-06-02T19:03:40Z</time>
      </trkpt>
      <trkpt lat="59.8923388" lon="17.6382057">
        <ele>28.9769</ele>
        <time>2013-06-02T19:03:41Z</time>
      </trkpt>
      <trkpt lat="59.8922482" lon="17.6382174">
        <ele>28.4962</ele>
        <time>2013-06-02T19:03:42Z</time>
      </trkpt>
      <trkpt lat="59.8921533" lon="17.6382474">
        <ele>28.4962</ele>
        <time>2013-06-02T19:03:43Z</time>
      </trkpt>
      <trkpt lat="59.8920625" lon="17.63831">
        <ele>28.4962</ele>
        <time>2013-06-02T19:03:44Z</time>
      </trkpt>
      <trkpt lat="59.8919762" lon="17.6383703">
        <ele>28.0155</ele>
        <time>2013-06-02T19:03:45Z</time>
      </trkpt>
      <trkpt lat="59.8918881" lon="17.6384139">
        <ele>26.0929</ele>
        <time>2013-06-02T19:03:46Z</time>
      </trkpt>
      <trkpt lat="59.8917964" lon="17.6384387">
        <ele>25.1317</ele>
        <time>2013-06-02T19:03:47Z</time>
      </trkpt>
      <trkpt lat="59.8916988" lon="17.6384527">
        <ele>25.6123</ele>
        <time>2013-06-02T19:03:48Z</time>
      </trkpt>
      <trkpt lat="59.8916011" lon="17.6384618">
        <ele>25.6123</ele>
        <time>2013-06-02T19:03:49Z</time>
      </trkpt>
      <trkpt lat="59.8915052" lon="17.6384629">
        <ele>25.6123</ele>
        <time>2013-06-02T19:03:50Z</time>
      </trkpt>
      <trkpt lat="59.8914093" lon="17.6384635">
        <ele>25.6123</ele>
        <time>2013-06-02T19:03:51Z</time>
      </trkpt>
      <trkpt lat="59.89131" lon="17.6384696">
        <ele>25.6123</ele>
        <time>2013-06-02T19:03:52Z</time>
      </trkpt>
      <trkpt lat="59.8912112" lon="17.6384758">
        <ele>26.0929</ele>
        <time>2013-06-02T19:03:53Z</time>
      </trkpt>
      <trkpt lat="59.8911153" lon="17.6384688">
        <ele>25.1317</ele>
        <time>2013-06-02T19:03:54Z</time>
      </trkpt>
      <trkpt lat="59.8910148" lon="17.6384587">
        <ele>25.1317</ele>
        <time>2013-06-02T19:03:55Z</time>
      </trkpt>
      <trkpt lat="59.8909166" lon="17.6384344">
        <ele>24.1703</ele>
        <time>2013-06-02T19:03:56Z</time>
      </trkpt>
      <trkpt lat="59.8908196" lon="17.638418">
        <ele>23.6896</ele>
        <time>2013-06-02T19:03:57Z</time>
      </trkpt>
      <trkpt lat="59.8907221" lon="17.6384014">
        <ele>23.209</ele>
        <time>2013-06-02T19:03:58Z</time>
      </trkpt>
      <trkpt lat="59.8906189" lon="17.6383942">
        <ele>23.6896</ele>
        <time>2013-06-02T19:03:59Z</time>
      </trkpt>
      <trkpt lat="59.8905215" lon="17.6383696">
        <ele>23.209</ele>
        <time>2013-06-02T19:04:00Z</time>
      </trkpt>
      <trkpt lat="59.8904204" lon="17.6383464">
        <ele>23.209</ele>
        <time>2013-06-02T19:04:01Z</time>
      </trkpt>
      <trkpt lat="59.8903174" lon="17.6383149">
        <ele>23.6896</ele>
        <time>2013-06-02T19:04:02Z</time>
      </trkpt>
      <trkpt lat="59.890214" lon="17.6382754">
        <ele>23.6896</ele>
        <time>2013-06-02T19:04:03Z</time>
      </trkpt>
      <trkpt lat="59.8901154" lon="17.6382243">
        <ele>22.7283</ele>
        <time>2013-06-02T19:04:04Z</time>
      </trkpt>
      <trkpt lat="59.8900176" lon="17.6381777">
        <ele>21.767</ele>
        <time>2013-06-02T19:04:05Z</time>
      </trkpt>
      <trkpt lat="59.8899219" lon="17.6381362">
        <ele>21.2864</ele>
        <time>2013-06-02T19:04:06Z</time>
      </trkpt>
      <trkpt lat="59.8898294" lon="17.638092">
        <ele>20.8057</ele>
        <time>2013-06-02T19:04:07Z</time>
      </trkpt>
      <trkpt lat="59.8897398" lon="17.6380467">
        <ele>20.325</ele>
        <time>2013-06-02T19:04:08Z</time>
      </trkpt>
      <trkpt lat="59.8896497" lon="17.638002">
        <ele>20.325</ele>
        <time>2013-06-02T19:04:09Z</time>
      </trkpt>
      <trkpt lat="59.8895628" lon="17.6379549">
        <ele>19.8444</ele>
        <time>2013-06-02T19:04:10Z</time>
      </trkpt>
      <trkpt lat="59.8894757" lon="17.6379114">
        <ele>19.3638</ele>
        <time>2013-06-02T19:04:11Z</time>
      </trkpt>
      <trkpt lat="59.8893878" lon="17.6378762">
        <ele>18.4023</ele>
        <time>2013-06-02T19:04:12Z</time>
      </trkpt>
      <trkpt lat="59.8893043" lon="17.6378447">
        <ele>18.8831</ele>
        <time>2013-06-02T19:04:13Z</time>
      </trkpt>
      <trkpt lat="59.8892198" lon="17.6378244">
        <ele>18.8831</ele>
        <time>2013-06-02T19:04:14Z</time>
      </trkpt>
      <trkpt lat="59.8891353" lon="17.6378079">
        <ele>18.4023</ele>
        <time>2013-06-02T19:04:15Z</time>
      </trkpt>
      <trkpt lat="59.8890503" lon="17.6377949">
        <ele>17.9218</ele>
        <time>2013-06-02T19:04:16Z</time>
      </trkpt>
      <trkpt lat="59.8889661" lon="17.6377817">
        <ele>16.9604</ele>
        <time>2013-06-02T19:04:17Z</time>
      </trkpt>
      <trkpt lat="59.8888857" lon="17.637772">
        <ele>16.4797</ele>
        <time>2013-06-02T19:04:18Z</time>
      </trkpt>
      <trkpt lat="59.8888055" lon="17.6377762">
        <ele>16.4797</ele>
        <time>2013-06-02T19:04:19Z</time>
      </trkpt>
      <trkpt lat="59.8887246" lon="17.6377747">
        <ele>15.5184</ele>
        <time>2013-06-02T19:04:20Z</time>
      </trkpt>
      <trkpt lat="59.8886431" lon="17.6377668">
        <ele>14.557</ele>
        <time>2013-06-02T19:04:21Z</time>
      </trkpt>
      <trkpt lat="59.8885577" lon="17.6377637">
        <ele>13.5958</ele>
        <time>2013-06-02T19:04:22Z</time>
      </trkpt>
      <trkpt lat="59.8884713" lon="17.6377646">
        <ele>13.1151</ele>
        <time>2013-06-02T19:04:23Z</time>
      </trkpt>
      <trkpt lat="59.8883826" lon="17.637773">
        <ele>12.6344</ele>
        <time>2013-06-02T19:04:24Z</time>
      </trkpt>
      <trkpt lat="59.8882937" lon="17.6377793">
        <ele>12.1538</ele>
        <time>2013-06-02T19:04:25Z</time>
      </trkpt>
      <trkpt lat="59.8882044" lon="17.6377917">
        <ele>12.1538</ele>
        <time>2013-06-02T19:04:26Z</time>
      </trkpt>
      <trkpt lat="59.8881201" lon="17.6377939">
        <ele>12.1538</ele>
        <time>2013-06-02T19:04:27Z</time>
      </trkpt>
      <trkpt lat="59.8880424" lon="17.6377848">
        <ele>13.1151</ele>
        <time>2013-06-02T19:04:28Z</time>
      </trkpt>
      <trkpt lat="59.8879642" lon="17.6377683">
        <ele>12.6344</ele>
        <time>2013-06-02T19:04:29Z</time>
      </trkpt>
      <trkpt lat="59.8878843" lon="17.6377493">
        <ele>12.6344</ele>
        <time>2013-06-02T19:04:30Z</time>
      </trkpt>
      <trkpt lat="59.8878015" lon="17.6377226">
        <ele>12.6344</ele>
        <time>2013-06-02T19:04:31Z</time>
      </trkpt>
      <trkpt lat="59.8877176" lon="17.6376975">
        <ele>13.1151</ele>
        <time>2013-06-02T19:04:32Z</time>
      </trkpt>
      <trkpt lat="59.8876327" lon="17.6376721">
        <ele>13.1151</ele>
        <time>2013-06-02T19:04:33Z</time>
      </trkpt>
      <trkpt lat="59.8875482" lon="17.6376421">
        <ele>12.6344</ele>
        <time>2013-06-02T19:04:34Z</time>
      </trkpt>
      <trkpt lat="59.8874612" lon="17.6376147">
        <ele>13.1151</ele>
        <time>2013-06-02T19:04:35Z</time>
      </trkpt>
      <trkpt lat="59.8873763" lon="17.6375719">
        <ele>13.1151</ele>
        <time>2013-06-02T19:04:36Z</time>
      </trkpt>
      <trkpt lat="59.8872918" lon="17.6375296">
        <ele>13.1151</ele>
        <time>2013-06-02T19:04:37Z</time>
      </trkpt>
      <trkpt lat="59.8872035" lon="17.6374995">
        <ele>14.0764</ele>
        <time>2013-06-02T19:04:38Z</time>
      </trkpt>
      <trkpt lat="59.8871192" lon="17.6374605">
        <ele>14.0764</ele>
        <time>2013-06-02T19:04:39Z</time>
      </trkpt>
      <trkpt lat="59.8870363" lon="17.6374163">
        <ele>14.0764</ele>
        <time>2013-06-02T19:04:40Z</time>
      </trkpt>
      <trkpt lat="59.8869541" lon="17.637382">
        <ele>13.5958</ele>
        <time>2013-06-02T19:04:41Z</time>
      </trkpt>
      <trkpt lat="59.8868731" lon="17.6373467">
        <ele>12.6344</ele>
        <time>2013-06-02T19:04:42Z</time>
      </trkpt>
      <trkpt lat="59.8867926" lon="17.6373141">
        <ele>12.6344</ele>
        <time>2013-06-02T19:04:43Z</time>
      </trkpt>
      <trkpt lat="59.8867132" lon="17.6372753">
        <ele>12.1538</ele>
        <time>2013-06-02T19:04:44Z</time>
      </trkpt>
      <trkpt lat="59.8866363" lon="17.6372318">
        <ele>11.6732</ele>
        <time>2013-06-02T19:04:45Z</time>
      </trkpt>
      <trkpt lat="59.8865582" lon="17.6371924">
        <ele>11.6732</ele>
        <time>2013-06-02T19:04:46Z</time>
      </trkpt>
      <trkpt lat="59.8864787" lon="17.6371547">
        <ele>11.1925</ele>
        <time>2013-06-02T19:04:47Z</time>
      </trkpt>
      <trkpt lat="59.8863987" lon="17.6371112">
        <ele>10.7118</ele>
        <time>2013-06-02T19:04:48Z</time>
      </trkpt>
      <trkpt lat="59.8863168" lon="17.6370604">
        <ele>10.2312</ele>
        <time>2013-06-02T19:04:49Z</time>
      </trkpt>
      <trkpt lat="59.8862349" lon="17.6370091">
        <ele>10.7118</ele>
        <time>2013-06-02T19:04:50Z</time>
      </trkpt>
      <trkpt lat="59.8861532" lon="17.6369532">
        <ele>10.7118</ele>
        <time>2013-06-02T19:04:51Z</time>
      </trkpt>
      <trkpt lat="59.8860724" lon="17.6368909">
        <ele>10.7118</ele>
        <time>2013-06-02T19:04:52Z</time>
      </trkpt>
      <trkpt lat="59.8859931" lon="17.6368223">
        <ele>10.2312</ele>
        <time>2013-06-02T19:04:53Z</time>
      </trkpt>
      <trkpt lat="59.885914" lon="17.6367521">
        <ele>10.2312</ele>
        <time>2013-06-02T19:04:54Z</time>
      </trkpt>
      <trkpt lat="59.8858344" lon="17.6366848">
        <ele>10.2312</ele>
        <time>2013-06-02T19:04:55Z</time>
      </trkpt>
      <trkpt lat="59.8857547" lon="17.6366167">
        <ele>9.75061</ele>
        <time>2013-06-02T19:04:56Z</time>
      </trkpt>
      <trkpt lat="59.8856755" lon="17.6365439">
        <ele>9.75061</ele>
        <time>2013-06-02T19:04:57Z</time>
      </trkpt>
      <trkpt lat="59.8855983" lon="17.636464">
        <ele>8.78918</ele>
        <time>2013-06-02T19:04:58Z</time>
      </trkpt>
      <trkpt lat="59.8855183" lon="17.6363851">
        <ele>8.30859</ele>
        <time>2013-06-02T19:04:59Z</time>
      </trkpt>
      <trkpt lat="59.8854361" lon="17.6363087">
        <ele>7.34717</ele>
        <time>2013-06-02T19:05:00Z</time>
      </trkpt>
      <trkpt lat="59.8853534" lon="17.6362346">
        <ele>7.34717</ele>
        <time>2013-06-02T19:05:01Z</time>
      </trkpt>
      <trkpt lat="59.8852711" lon="17.6361686">
        <ele>6.86646</ele>
        <time>2013-06-02T19:05:02Z</time>
      </trkpt>
      <trkpt lat="59.8851873" lon="17.6361186">
        <ele>6.38586</ele>
        <time>2013-06-02T19:05:03Z</time>
      </trkpt>
      <trkpt lat="59.8851033" lon="17.6360816">
        <ele>7.34717</ele>
        <time>2013-06-02T19:05:04Z</time>
      </trkpt>
      <trkpt lat="59.8850202" lon="17.6360554">
        <ele>8.30859</ele>
        <time>2013-06-02T19:05:05Z</time>
      </trkpt>
      <trkpt lat="59.8849398" lon="17.6360142">
        <ele>8.30859</ele>
        <time>2013-06-02T19:05:06Z</time>
      </trkpt>
      <trkpt lat="59.8848567" lon="17.6359733">
        <ele>9.2699</ele>
        <time>2013-06-02T19:05:07Z</time>
      </trkpt>
      <trkpt lat="59.8847712" lon="17.6359234">
        <ele>11.1925</ele>
        <time>2013-06-02T19:05:08Z</time>
      </trkpt>
      <trkpt lat="59.8846855" lon="17.635877">
        <ele>12.1538</ele>
        <time>2013-06-02T19:05:09Z</time>
      </trkpt>
      <trkpt lat="59.8845982" lon="17.6358429">
        <ele>13.1151</ele>
        <time>2013-06-02T19:05:10Z</time>
      </trkpt>
      <trkpt lat="59.8845087" lon="17.6358101">
        <ele>13.1151</ele>
        <time>2013-06-02T19:05:11Z</time>
      </trkpt>
      <trkpt lat="59.8844167" lon="17.6357713">
        <ele>13.1151</ele>
        <time>2013-06-02T19:05:12Z</time>
      </trkpt>
      <trkpt lat="59.8843257" lon="17.6357253">
        <ele>12.6344</ele>
        <time>2013-06-02T19:05:13Z</time>
      </trkpt>
      <trkpt lat="59.8842402" lon="17.6356755">
        <ele>11.6732</ele>
        <time>2013-06-02T19:05:14Z</time>
      </trkpt>
      <trkpt lat="59.8841556" lon="17.6356263">
        <ele>11.1925</ele>
        <time>2013-06-02T19:05:15Z</time>
      </trkpt>
      <trkpt lat="59.8840718" lon="17.6355766">
        <ele>9.75061</ele>
        <time>2013-06-02T19:05:16Z</time>
      </trkpt>
      <trkpt lat="59.8839824" lon="17.6355444">
        <ele>9.75061</ele>
        <time>2013-06-02T19:05:17Z</time>
      </trkpt>
      <trkpt lat="59.883889" lon="17.6355255">
        <ele>10.2312</ele>
        <time>2013-06-02T19:05:18Z</time>
      </trkpt>
      <trkpt lat="59.8837982" lon="17.6355069">
        <ele>10.7118</ele>
        <time>2013-06-02T19:05:19Z</time>
      </trkpt>
      <trkpt lat="59.8837072" lon="17.6355006">
        <ele>11.1925</ele>
        <time>2013-06-02T19:05:20Z</time>
      </trkpt>
      <trkpt lat="59.8836187" lon="17.6354958">
        <ele>11.6732</ele>
        <time>2013-06-02T19:05:21Z</time>
      </trkpt>
      <trkpt lat="59.8835378" lon="17.6354893">
        <ele>11.1925</ele>
        <time>2013-06-02T19:05:22Z</time>
      </trkpt>
      <trkpt lat="59.8834526" lon="17.635477">
        <ele>11.1925</ele>
        <time>2013-06-02T19:05:23Z</time>
      </trkpt>
      <trkpt lat="59.8833644" lon="17.6354589">
        <ele>11.1925</ele>
        <time>2013-06-02T19:05:24Z</time>
      </trkpt>
      <trkpt lat="59.8832725" lon="17.6354353">
        <ele>11.1925</ele>
        <time>2013-06-02T19:05:25Z</time>
      </trkpt>
      <trkpt lat="59.8831828" lon="17.6354149">
        <ele>11.6732</ele>
        <time>2013-06-02T19:05:26Z</time>
      </trkpt>
      <trkpt lat="59.8830945" lon="17.635403">
        <ele>11.1925</ele>
        <time>2013-06-02T19:05:27Z</time>
      </trkpt>
      <trkpt lat="59.8830063" lon="17.6354028">
        <ele>11.1925</ele>
        <time>2013-06-02T19:05:28Z</time>
      </trkpt>
      <trkpt lat="59.882915" lon="17.6354066">
        <ele>10.7118</ele>
        <time>2013-06-02T19:05:29Z</time>
      </trkpt>
      <trkpt lat="59.8828239" lon="17.6354211">
        <ele>10.2312</ele>
        <time>2013-06-02T19:05:30Z</time>
      </trkpt>
      <trkpt lat="59.8827319" lon="17.6354421">
        <ele>10.7118</ele>
        <time>2013-06-02T19:05:31Z</time>
      </trkpt>
      <trkpt lat="59.8826495" lon="17.6354627">
        <ele>10.7118</ele>
        <time>2013-06-02T19:05:32Z</time>
      </trkpt>
      <trkpt lat="59.8825759" lon="17.6354907">
        <ele>11.6732</ele>
        <time>2013-06-02T19:05:33Z</time>
      </trkpt>
      <trkpt lat="59.8825167" lon="17.6355198">
        <ele>13.5958</ele>
        <time>2013-06-02T19:05:34Z</time>
      </trkpt>
      <trkpt lat="59.8824677" lon="17.6355389">
        <ele>14.557</ele>
        <time>2013-06-02T19:05:35Z</time>
      </trkpt>
      <trkpt lat="59.8824308" lon="17.6355612">
        <ele>15.0377</ele>
        <time>2013-06-02T19:05:36Z</time>
      </trkpt>
      <trkpt lat="59.8823996" lon="17.6355745">
        <ele>15.0377</ele>
        <time>2013-06-02T19:05:37Z</time>
      </trkpt>
      <trkpt lat="59.8823702" lon="17.6355889">
        <ele>15.5184</ele>
        <time>2013-06-02T19:05:38Z</time>
      </trkpt>
      <trkpt lat="59.8823401" lon="17.6356014">
        <ele>15.5184</ele>
        <time>2013-06-02T19:05:39Z</time>
      </trkpt>
      <trkpt lat="59.8823049" lon="17.6356271">
        <ele>15.0377</ele>
        <time>2013-06-02T19:05:40Z</time>
      </trkpt>
      <trkpt lat="59.8822558" lon="17.635658">
        <ele>15.999</ele>
        <time>2013-06-02T19:05:41Z</time>
      </trkpt>
      <trkpt lat="59.8822076" lon="17.6356823">
        <ele>15.5184</ele>
        <time>2013-06-02T19:05:42Z</time>
      </trkpt>
      <trkpt lat="59.8821528" lon="17.6356851">
        <ele>15.999</ele>
        <time>2013-06-02T19:05:43Z</time>
      </trkpt>
      <trkpt lat="59.8820895" lon="17.6357053">
        <ele>16.4797</ele>
        <time>2013-06-02T19:05:44Z</time>
      </trkpt>
      <trkpt lat="59.8820246" lon="17.6357264">
        <ele>16.9604</ele>
        <time>2013-06-02T19:05:45Z</time>
      </trkpt>
      <trkpt lat="59.8819598" lon="17.6357482">
        <ele>16.9604</ele>
        <time>2013-06-02T19:05:46Z</time>
      </trkpt>
      <trkpt lat="59.8818931" lon="17.6357615">
        <ele>16.9604</ele>
        <time>2013-06-02T19:05:47Z</time>
      </trkpt>
      <trkpt lat="59.8818237" lon="17.6357818">
        <ele>17.4412</ele>
        <time>2013-06-02T19:05:48Z</time>
      </trkpt>
      <trkpt lat="59.8817534" lon="17.6357968">
        <ele>17.4412</ele>
        <time>2013-06-02T19:05:49Z</time>
      </trkpt>
      <trkpt lat="59.881681" lon="17.635801">
        <ele>17.9218</ele>
        <time>2013-06-02T19:05:50Z</time>
      </trkpt>
      <trkpt lat="59.8816065" lon="17.6357808">
        <ele>18.4023</ele>
        <time>2013-06-02T19:05:51Z</time>
      </trkpt>
      <trkpt lat="59.8815332" lon="17.6357347">
        <ele>18.8831</ele>
        <time>2013-06-02T19:05:52Z</time>
      </trkpt>
      <trkpt lat="59.8814645" lon="17.6356674">
        <ele>18.4023</ele>
        <time>2013-06-02T19:05:53Z</time>
      </trkpt>
      <trkpt lat="59.8813959" lon="17.6355989">
        <ele>17.9218</ele>
        <time>2013-06-02T19:05:54Z</time>
      </trkpt>
      <trkpt lat="59.8813249" lon="17.6355503">
        <ele>17.4412</ele>
        <time>2013-06-02T19:05:55Z</time>
      </trkpt>
      <trkpt lat="59.8812466" lon="17.6355275">
        <ele>17.4412</ele>
        <time>2013-06-02T19:05:56Z</time>
      </trkpt>
      <trkpt lat="59.8811669" lon="17.6355228">
        <ele>17.4412</ele>
        <time>2013-06-02T19:05:57Z</time>
      </trkpt>
      <trkpt lat="59.8810845" lon="17.635528">
        <ele>16.4797</ele>
        <time>2013-06-02T19:05:58Z</time>
      </trkpt>
      <trkpt lat="59.8810001" lon="17.6355352">
        <ele>15.999</ele>
        <time>2013-06-02T19:05:59Z</time>
      </trkpt>
      <trkpt lat="59.8809173" lon="17.6355394">
        <ele>14.557</ele>
        <time>2013-06-02T19:06:00Z</time>
      </trkpt>
      <trkpt lat="59.8808332" lon="17.6355447">
        <ele>13.1151</ele>
        <time>2013-06-02T19:06:01Z</time>
      </trkpt>
      <trkpt lat="59.8807477" lon="17.6355518">
        <ele>12.1538</ele>
        <time>2013-06-02T19:06:02Z</time>
      </trkpt>
      <trkpt lat="59.8806603" lon="17.6355555">
        <ele>11.1925</ele>
        <time>2013-06-02T19:06:03Z</time>
      </trkpt>
      <trkpt lat="59.8805736" lon="17.6355594">
        <ele>10.2312</ele>
        <time>2013-06-02T19:06:04Z</time>
      </trkpt>
      <trkpt lat="59.880487" lon="17.6355639">
        <ele>9.75061</ele>
        <time>2013-06-02T19:06:05Z</time>
      </trkpt>
      <trkpt lat="59.8803985" lon="17.6355651">
        <ele>9.2699</ele>
        <time>2013-06-02T19:06:06Z</time>
      </trkpt>
      <trkpt lat="59.8803088" lon="17.6355674">
        <ele>8.78918</ele>
        <time>2013-06-02T19:06:07Z</time>
      </trkpt>
      <trkpt lat="59.8802188" lon="17.6355706">
        <ele>7.82788</ele>
        <time>2013-06-02T19:06:08Z</time>
      </trkpt>
      <trkpt lat="59.8801287" lon="17.6355735">
        <ele>7.34717</ele>
        <time>2013-06-02T19:06:09Z</time>
      </trkpt>
      <trkpt lat="59.8800371" lon="17.6355788">
        <ele>7.34717</ele>
        <time>2013-06-02T19:06:10Z</time>
      </trkpt>
      <trkpt lat="59.8799455" lon="17.6355865">
        <ele>7.34717</ele>
        <time>2013-06-02T19:06:11Z</time>
      </trkpt>
      <trkpt lat="59.8798537" lon="17.6355947">
        <ele>7.34717</ele>
        <time>2013-06-02T19:06:12Z</time>
      </trkpt>
      <trkpt lat="59.8797621" lon="17.6356021">
        <ele>6.86646</ele>
        <time>2013-06-02T19:06:13Z</time>
      </trkpt>
      <trkpt lat="59.879671" lon="17.6356071">
        <ele>6.86646</ele>
        <time>2013-06-02T19:06:14Z</time>
      </trkpt>
      <trkpt lat="59.8795796" lon="17.6356093">
        <ele>6.86646</ele>
        <time>2013-06-02T19:06:15Z</time>
      </trkpt>
      <trkpt lat="59.879487" lon="17.635611">
        <ele>6.38586</ele>
        <time>2013-06-02T19:06:16Z</time>
      </trkpt>
      <trkpt lat="59.8793941" lon="17.6356139">
        <ele>6.38586</ele>
        <time>2013-06-02T19:06:17Z</time>
      </trkpt>
      <trkpt lat="59.8793015" lon="17.6356185">
        <ele>5.90527</ele>
        <time>2013-06-02T19:06:18Z</time>
      </trkpt>
      <trkpt lat="59.8792087" lon="17.6356259">
        <ele>5.90527</ele>
        <time>2013-06-02T19:06:19Z</time>
      </trkpt>
      <trkpt lat="59.8791161" lon="17.6356341">
        <ele>5.90527</ele>
        <time>2013-06-02T19:06:20Z</time>
      </trkpt>
      <trkpt lat="59.8790253" lon="17.6356376">
        <ele>5.90527</ele>
        <time>2013-06-02T19:06:21Z</time>
      </trkpt>
      <trkpt lat="59.8789354" lon="17.6356384">
        <ele>5.42456</ele>
        <time>2013-06-02T19:06:22Z</time>
      </trkpt>
      <trkpt lat="59.8788465" lon="17.6356382">
        <ele>4.94385</ele>
        <time>2013-06-02T19:06:23Z</time>
      </trkpt>
      <trkpt lat="59.8787585" lon="17.6356379">
        <ele>4.94385</ele>
        <time>2013-06-02T19:06:24Z</time>
      </trkpt>
      <trkpt lat="59.8786742" lon="17.6356361">
        <ele>4.94385</ele>
        <time>2013-06-02T19:06:25Z</time>
      </trkpt>
      <trkpt lat="59.8785922" lon="17.6356347">
        <ele>4.94385</ele>
        <time>2013-06-02T19:06:26Z</time>
      </trkpt>
      <trkpt lat="59.8785116" lon="17.635634">
        <ele>4.94385</ele>
        <time>2013-06-02T19:06:27Z</time>
      </trkpt>
      <trkpt lat="59.8784323" lon="17.6356361">
        <ele>4.94385</ele>
        <time>2013-06-02T19:06:28Z</time>
      </trkpt>
      <trkpt lat="59.8783596" lon="17.6356409">
        <ele>4.94385</ele>
        <time>2013-06-02T19:06:29Z</time>
      </trkpt>
      <trkpt lat="59.8782909" lon="17.635675">
        <ele>5.90527</ele>
        <time>2013-06-02T19:06:30Z</time>
      </trkpt>
      <trkpt lat="59.8782318" lon="17.6357368">
        <ele>5.42456</ele>
        <time>2013-06-02T19:06:31Z</time>
      </trkpt>
      <trkpt lat="59.8781843" lon="17.6358257">
        <ele>5.90527</ele>
        <time>2013-06-02T19:06:32Z</time>
      </trkpt>
      <trkpt lat="59.878136" lon="17.6359249">
        <ele>7.34717</ele>
        <time>2013-06-02T19:06:33Z</time>
      </trkpt>
      <trkpt lat="59.8780857" lon="17.6360185">
        <ele>7.82788</ele>
        <time>2013-06-02T19:06:34Z</time>
      </trkpt>
      <trkpt lat="59.878038" lon="17.6361158">
        <ele>8.78918</ele>
        <time>2013-06-02T19:06:35Z</time>
      </trkpt>
      <trkpt lat="59.877996" lon="17.6362202">
        <ele>9.2699</ele>
        <time>2013-06-02T19:06:36Z</time>
      </trkpt>
      <trkpt lat="59.8779659" lon="17.6363273">
        <ele>9.75061</ele>
        <time>2013-06-02T19:06:37Z</time>
      </trkpt>
      <trkpt lat="59.8779701" lon="17.6364789">
        <ele>10.7118</ele>
        <time>2013-06-02T19:06:38Z</time>
      </trkpt>
      <trkpt lat="59.8779759" lon="17.636623">
        <ele>11.6732</ele>
        <time>2013-06-02T19:06:39Z</time>
      </trkpt>
      <trkpt lat="59.8779821" lon="17.6367667">
        <ele>12.1538</ele>
        <time>2013-06-02T19:06:40Z</time>
      </trkpt>
      <trkpt lat="59.8779888" lon="17.6369106">
        <ele>12.6344</ele>
        <time>2013-06-02T19:06:41Z</time>
      </trkpt>
      <trkpt lat="59.8779972" lon="17.6370506">
        <ele>13.1151</ele>
        <time>2013-06-02T19:06:42Z</time>
      </trkpt>
      <trkpt lat="59.8780123" lon="17.637186">
        <ele>13.5958</ele>
        <time>2013-06-02T19:06:43Z</time>
      </trkpt>
      <trkpt lat="59.8780356" lon="17.6373188">
        <ele>14.0764</ele>
        <time>2013-06-02T19:06:44Z</time>
      </trkpt>
      <trkpt lat="59.8780697" lon="17.6374501">
        <ele>14.557</ele>
        <time>2013-06-02T19:06:45Z</time>
      </trkpt>
      <trkpt lat="59.8781158" lon="17.6375724">
        <ele>15.0377</ele>
        <time>2013-06-02T19:06:46Z</time>
      </trkpt>
      <trkpt lat="59.8781696" lon="17.6376809">
        <ele>15.0377</ele>
        <time>2013-06-02T19:06:47Z</time>
      </trkpt>
      <trkpt lat="59.8782295" lon="17.6377766">
        <ele>14.557</ele>
        <time>2013-06-02T19:06:48Z</time>
      </trkpt>
      <trkpt lat="59.8782974" lon="17.6378509">
        <ele>14.557</ele>
        <time>2013-06-02T19:06:49Z</time>
      </trkpt>
      <trkpt lat="59.8783675" lon="17.6379065">
        <ele>15.0377</ele>
        <time>2013-06-02T19:06:50Z</time>
      </trkpt>
      <trkpt lat="59.8784401" lon="17.6379899">
        <ele>16.4797</ele>
        <time>2013-06-02T19:06:51Z</time>
      </trkpt>
      <trkpt lat="59.8785131" lon="17.6380444">
        <ele>16.9604</ele>
        <time>2013-06-02T19:06:52Z</time>
      </trkpt>
      <trkpt lat="59.878589" lon="17.6381088">
        <ele>18.4023</ele>
        <time>2013-06-02T19:06:53Z</time>
      </trkpt>
      <trkpt lat="59.8786634" lon="17.638185">
        <ele>18.8831</ele>
        <time>2013-06-02T19:06:54Z</time>
      </trkpt>
      <trkpt lat="59.8787353" lon="17.6382787">
        <ele>18.8831</ele>
        <time>2013-06-02T19:06:55Z</time>
      </trkpt>
      <trkpt lat="59.8788037" lon="17.6383702">
        <ele>18.4023</ele>
        <time>2013-06-02T19:06:56Z</time>
      </trkpt>
      <trkpt lat="59.8788637" lon="17.6384595">
        <ele>17.4412</ele>
        <time>2013-06-02T19:06:57Z</time>
      </trkpt>
      <trkpt lat="59.8789077" lon="17.638564">
        <ele>15.999</ele>
        <time>2013-06-02T19:06:58Z</time>
      </trkpt>
      <trkpt lat="59.8789332" lon="17.6386918">
        <ele>15.999</ele>
        <time>2013-06-02T19:06:59Z</time>
      </trkpt>
      <trkpt lat="59.8789229" lon="17.6388421">
        <ele>15.5184</ele>
        <time>2013-06-02T19:07:00Z</time>
      </trkpt>
      <trkpt lat="59.8789047" lon="17.6389954">
        <ele>14.557</ele>
        <time>2013-06-02T19:07:01Z</time>
      </trkpt>
      <trkpt lat="59.8788928" lon="17.6391385">
        <ele>15.0377</ele>
        <time>2013-06-02T19:07:02Z</time>
      </trkpt>
      <trkpt lat="59.8788814" lon="17.6392868">
        <ele>15.0377</ele>
        <time>2013-06-02T19:07:03Z</time>
      </trkpt>
      <trkpt lat="59.8788769" lon="17.639443">
        <ele>14.0764</ele>
        <time>2013-06-02T19:07:04Z</time>
      </trkpt>
      <trkpt lat="59.8788715" lon="17.6396012">
        <ele>14.0764</ele>
        <time>2013-06-02T19:07:05Z</time>
      </trkpt>
      <trkpt lat="59.878871" lon="17.6397524">
        <ele>15.5184</ele>
        <time>2013-06-02T19:07:06Z</time>
      </trkpt>
      <trkpt lat="59.878862" lon="17.6398916">
        <ele>15.5184</ele>
        <time>2013-06-02T19:07:07Z</time>
      </trkpt>
      <trkpt lat="59.8788591" lon="17.640012">
        <ele>15.999</ele>
        <time>2013-06-02T19:07:08Z</time>
      </trkpt>
      <trkpt lat="59.8788527" lon="17.640128">
        <ele>16.9604</ele>
        <time>2013-06-02T19:07:09Z</time>
      </trkpt>
      <trkpt lat="59.878852" lon="17.6402496">
        <ele>16.9604</ele>
        <time>2013-06-02T19:07:10Z</time>
      </trkpt>
      <trkpt lat="59.8788556" lon="17.6403902">
        <ele>15.999</ele>
        <time>2013-06-02T19:07:11Z</time>
      </trkpt>
      <trkpt lat="59.8788506" lon="17.6405064">
        <ele>15.999</ele>
        <time>2013-06-02T19:07:12Z</time>
      </trkpt>
      <trkpt lat="59.8788411" lon="17.6406357">
        <ele>15.0377</ele>
        <time>2013-06-02T19:07:13Z</time>
      </trkpt>
      <trkpt lat="59.878823" lon="17.6407462">
        <ele>15.0377</ele>
        <time>2013-06-02T19:07:14Z</time>
      </trkpt>
      <trkpt lat="59.8788099" lon="17.6408723">
        <ele>15.0377</ele>
        <time>2013-06-02T19:07:15Z</time>
      </trkpt>
      <trkpt lat="59.8787913" lon="17.6409916">
        <ele>15.0377</ele>
        <time>2013-06-02T19:07:16Z</time>
      </trkpt>
      <trkpt lat="59.878773" lon="17.6411214">
        <ele>15.5184</ele>
        <time>2013-06-02T19:07:17Z</time>
      </trkpt>
      <trkpt lat="59.8787587" lon="17.6412293">
        <ele>15.999</ele>
        <time>2013-06-02T19:07:18Z</time>
      </trkpt>
      <trkpt lat="59.8787463" lon="17.6413317">
        <ele>15.5184</ele>
        <time>2013-06-02T19:07:19Z</time>
      </trkpt>
      <trkpt lat="59.8787327" lon="17.641424">
        <ele>14.557</ele>
        <time>2013-06-02T19:07:20Z</time>
      </trkpt>
      <trkpt lat="59.8787229" lon="17.6415189">
        <ele>14.0764</ele>
        <time>2013-06-02T19:07:21Z</time>
      </trkpt>
      <trkpt lat="59.8787224" lon="17.6416248">
        <ele>15.0377</ele>
        <time>2013-06-02T19:07:22Z</time>
      </trkpt>
      <trkpt lat="59.8787301" lon="17.6417374">
        <ele>15.999</ele>
        <time>2013-06-02T19:07:23Z</time>
      </trkpt>
      <trkpt lat="59.8787372" lon="17.6418359">
        <ele>16.9604</ele>
        <time>2013-06-02T19:07:24Z</time>
      </trkpt>
      <trkpt lat="59.8787491" lon="17.6419524">
        <ele>17.9218</ele>
        <time>2013-06-02T19:07:25Z</time>
      </trkpt>
      <trkpt lat="59.8787545" lon="17.6420801">
        <ele>17.9218</ele>
        <time>2013-06-02T19:07:26Z</time>
      </trkpt>
      <trkpt lat="59.8787616" lon="17.6422098">
        <ele>16.9604</ele>
        <time>2013-06-02T19:07:27Z</time>
      </trkpt>
      <trkpt lat="59.8787737" lon="17.6423459">
        <ele>16.9604</ele>
        <time>2013-06-02T19:07:28Z</time>
      </trkpt>
      <trkpt lat="59.878784" lon="17.6424912">
        <ele>17.4412</ele>
        <time>2013-06-02T19:07:29Z</time>
      </trkpt>
      <trkpt lat="59.8788022" lon="17.6426469">
        <ele>17.4412</ele>
        <time>2013-06-02T19:07:30Z</time>
      </trkpt>
      <trkpt lat="59.8788168" lon="17.642796">
        <ele>16.9604</ele>
        <time>2013-06-02T19:07:31Z</time>
      </trkpt>
      <trkpt lat="59.8788261" lon="17.6429483">
        <ele>15.999</ele>
        <time>2013-06-02T19:07:32Z</time>
      </trkpt>
      <trkpt lat="59.8788353" lon="17.6431164">
        <ele>15.5184</ele>
        <time>2013-06-02T19:07:33Z</time>
      </trkpt>
      <trkpt lat="59.8788405" lon="17.6432842">
        <ele>14.557</ele>
        <time>2013-06-02T19:07:34Z</time>
      </trkpt>
      <trkpt lat="59.8788406" lon="17.6434423">
        <ele>13.1151</ele>
        <time>2013-06-02T19:07:35Z</time>
      </trkpt>
      <trkpt lat="59.8788318" lon="17.6435795">
        <ele>14.0764</ele>
        <time>2013-06-02T19:07:36Z</time>
      </trkpt>
      <trkpt lat="59.8788357" lon="17.6437473">
        <ele>14.557</ele>
        <time>2013-06-02T19:07:37Z</time>
      </trkpt>
      <trkpt lat="59.8788473" lon="17.643927">
        <ele>16.4797</ele>
        <time>2013-06-02T19:07:38Z</time>
      </trkpt>
      <trkpt lat="59.8788659" lon="17.6440876">
        <ele>16.9604</ele>
        <time>2013-06-02T19:07:39Z</time>
      </trkpt>
      <trkpt lat="59.8788809" lon="17.644247">
        <ele>17.4412</ele>
        <time>2013-06-02T19:07:40Z</time>
      </trkpt>
      <trkpt lat="59.878899" lon="17.6443901">
        <ele>17.9218</ele>
        <time>2013-06-02T19:07:41Z</time>
      </trkpt>
      <trkpt lat="59.8789129" lon="17.6445341">
        <ele>19.3638</ele>
        <time>2013-06-02T19:07:42Z</time>
      </trkpt>
      <trkpt lat="59.8789175" lon="17.644665">
        <ele>17.4412</ele>
        <time>2013-06-02T19:07:43Z</time>
      </trkpt>
      <trkpt lat="59.8789224" lon="17.6448069">
        <ele>15.5184</ele>
        <time>2013-06-02T19:07:44Z</time>
      </trkpt>
      <trkpt lat="59.8789328" lon="17.6449656">
        <ele>17.4412</ele>
        <time>2013-06-02T19:07:45Z</time>
      </trkpt>
      <trkpt lat="59.8789441" lon="17.6450998">
        <ele>16.4797</ele>
        <time>2013-06-02T19:07:46Z</time>
      </trkpt>
      <trkpt lat="59.8789507" lon="17.6452366">
        <ele>15.999</ele>
        <time>2013-06-02T19:07:47Z</time>
      </trkpt>
      <trkpt lat="59.878959" lon="17.6453824">
        <ele>16.9604</ele>
        <time>2013-06-02T19:07:48Z</time>
      </trkpt>
      <trkpt lat="59.8789674" lon="17.6455013">
        <ele>17.4412</ele>
        <time>2013-06-02T19:07:49Z</time>
      </trkpt>
      <trkpt lat="59.8789779" lon="17.6455931">
        <ele>15.999</ele>
        <time>2013-06-02T19:07:50Z</time>
      </trkpt>
      <trkpt lat="59.8789924" lon="17.6456654">
        <ele>14.557</ele>
        <time>2013-06-02T19:07:51Z</time>
      </trkpt>
      <trkpt lat="59.8790016" lon="17.6457411">
        <ele>13.1151</ele>
        <time>2013-06-02T19:07:52Z</time>
      </trkpt>
      <trkpt lat="59.879006" lon="17.6458167">
        <ele>12.6344</ele>
        <time>2013-06-02T19:07:53Z</time>
      </trkpt>
      <trkpt lat="59.8790124" lon="17.6459179">
        <ele>12.6344</ele>
        <time>2013-06-02T19:07:54Z</time>
      </trkpt>
      <trkpt lat="59.8790152" lon="17.6460137">
        <ele>13.1151</ele>
        <time>2013-06-02T19:07:55Z</time>
      </trkpt>
      <trkpt lat="59.8790187" lon="17.6461222">
        <ele>13.5958</ele>
        <time>2013-06-02T19:07:56Z</time>
      </trkpt>
      <trkpt lat="59.879016" lon="17.6462229">
        <ele>12.6344</ele>
        <time>2013-06-02T19:07:57Z</time>
      </trkpt>
      <trkpt lat="59.8790208" lon="17.6463411">
        <ele>12.1538</ele>
        <time>2013-06-02T19:07:58Z</time>
      </trkpt>
      <trkpt lat="59.8790374" lon="17.6464859">
        <ele>12.6344</ele>
        <time>2013-06-02T19:07:59Z</time>
      </trkpt>
      <trkpt lat="59.8790535" lon="17.646633">
        <ele>12.6344</ele>
        <time>2013-06-02T19:08:00Z</time>
      </trkpt>
      <trkpt lat="59.8790726" lon="17.6467899">
        <ele>12.6344</ele>
        <time>2013-06-02T19:08:01Z</time>
      </trkpt>
      <trkpt lat="59.8790897" lon="17.6469564">
        <ele>13.1151</ele>
        <time>2013-06-02T19:08:02Z</time>
      </trkpt>
      <trkpt lat="59.8791073" lon="17.6471775">
        <ele>12.6344</ele>
        <time>2013-06-02T19:08:03Z</time>
      </trkpt>
      <trkpt lat="59.8791063" lon="17.6473491">
        <ele>11.1925</ele>
        <time>2013-06-02T19:08:04Z</time>
      </trkpt>
      <trkpt lat="59.8791037" lon="17.6475192">
        <ele>10.7118</ele>
        <time>2013-06-02T19:08:05Z</time>
      </trkpt>
      <trkpt lat="59.8791016" lon="17.647664">
        <ele>10.7118</ele>
        <time>2013-06-02T19:08:06Z</time>
      </trkpt>
      <trkpt lat="59.8790995" lon="17.6478012">
        <ele>10.2312</ele>
        <time>2013-06-02T19:08:07Z</time>
      </trkpt>
      <trkpt lat="59.8791026" lon="17.647941">
        <ele>11.6732</ele>
        <time>2013-06-02T19:08:08Z</time>
      </trkpt>
      <trkpt lat="59.8791021" lon="17.6481058">
        <ele>11.6732</ele>
        <time>2013-06-02T19:08:09Z</time>
      </trkpt>
      <trkpt lat="59.8791036" lon="17.6482709">
        <ele>12.6344</ele>
        <time>2013-06-02T19:08:10Z</time>
      </trkpt>
      <trkpt lat="59.8791051" lon="17.6484232">
        <ele>13.5958</ele>
        <time>2013-06-02T19:08:11Z</time>
      </trkpt>
      <trkpt lat="59.8791073" lon="17.6485632">
        <ele>13.5958</ele>
        <time>2013-06-02T19:08:12Z</time>
      </trkpt>
      <trkpt lat="59.8791029" lon="17.6487056">
        <ele>13.1151</ele>
        <time>2013-06-02T19:08:13Z</time>
      </trkpt>
      <trkpt lat="59.8791009" lon="17.6488626">
        <ele>13.5958</ele>
        <time>2013-06-02T19:08:14Z</time>
      </trkpt>
      <trkpt lat="59.879101" lon="17.6490196">
        <ele>13.1151</ele>
        <time>2013-06-02T19:08:15Z</time>
      </trkpt>
      <trkpt lat="59.8790965" lon="17.6491784">
        <ele>13.1151</ele>
        <time>2013-06-02T19:08:16Z</time>
      </trkpt>
      <trkpt lat="59.8790902" lon="17.6493231">
        <ele>13.1151</ele>
        <time>2013-06-02T19:08:17Z</time>
      </trkpt>
      <trkpt lat="59.8790866" lon="17.6494651">
        <ele>13.5958</ele>
        <time>2013-06-02T19:08:18Z</time>
      </trkpt>
      <trkpt lat="59.8790906" lon="17.6496061">
        <ele>14.0764</ele>
        <time>2013-06-02T19:08:19Z</time>
      </trkpt>
      <trkpt lat="59.8790866" lon="17.6497447">
        <ele>14.557</ele>
        <time>2013-06-02T19:08:20Z</time>
      </trkpt>
      <trkpt lat="59.8790829" lon="17.6498852">
        <ele>15.0377</ele>
        <time>2013-06-02T19:08:21Z</time>
      </trkpt>
      <trkpt lat="59.8790777" lon="17.6500235">
        <ele>15.5184</ele>
        <time>2013-06-02T19:08:22Z</time>
      </trkpt>
      <trkpt lat="59.8790762" lon="17.6501763">
        <ele>15.0377</ele>
        <time>2013-06-02T19:08:23Z</time>
      </trkpt>
      <trkpt lat="59.8790679" lon="17.6503121">
        <ele>14.557</ele>
        <time>2013-06-02T19:08:24Z</time>
      </trkpt>
      <trkpt lat="59.8790625" lon="17.6504608">
        <ele>13.5958</ele>
        <time>2013-06-02T19:08:25Z</time>
      </trkpt>
      <trkpt lat="59.8790504" lon="17.6505958">
        <ele>14.0764</ele>
        <time>2013-06-02T19:08:26Z</time>
      </trkpt>
      <trkpt lat="59.8790367" lon="17.6507264">
        <ele>13.5958</ele>
        <time>2013-06-02T19:08:27Z</time>
      </trkpt>
      <trkpt lat="59.8790257" lon="17.6508589">
        <ele>13.5958</ele>
        <time>2013-06-02T19:08:28Z</time>
      </trkpt>
      <trkpt lat="59.8790206" lon="17.6509925">
        <ele>14.0764</ele>
        <time>2013-06-02T19:08:29Z</time>
      </trkpt>
      <trkpt lat="59.879015" lon="17.6511226">
        <ele>14.0764</ele>
        <time>2013-06-02T19:08:30Z</time>
      </trkpt>
      <trkpt lat="59.8790074" lon="17.6512437">
        <ele>14.0764</ele>
        <time>2013-06-02T19:08:31Z</time>
      </trkpt>
      <trkpt lat="59.8790084" lon="17.6513703">
        <ele>14.557</ele>
        <time>2013-06-02T19:08:32Z</time>
      </trkpt>
      <trkpt lat="59.8790176" lon="17.651502">
        <ele>13.1151</ele>
        <time>2013-06-02T19:08:33Z</time>
      </trkpt>
      <trkpt lat="59.8790243" lon="17.6516396">
        <ele>12.6344</ele>
        <time>2013-06-02T19:08:34Z</time>
      </trkpt>
      <trkpt lat="59.8790206" lon="17.6517592">
        <ele>11.6732</ele>
        <time>2013-06-02T19:08:35Z</time>
      </trkpt>
      <trkpt lat="59.8790176" lon="17.6518812">
        <ele>10.7118</ele>
        <time>2013-06-02T19:08:36Z</time>
      </trkpt>
      <trkpt lat="59.8790072" lon="17.6520029">
        <ele>9.75061</ele>
        <time>2013-06-02T19:08:37Z</time>
      </trkpt>
      <trkpt lat="59.8790095" lon="17.6521442">
        <ele>9.2699</ele>
        <time>2013-06-02T19:08:38Z</time>
      </trkpt>
      <trkpt lat="59.8790151" lon="17.6522831">
        <ele>8.78918</ele>
        <time>2013-06-02T19:08:39Z</time>
      </trkpt>
      <trkpt lat="59.8790193" lon="17.6524146">
        <ele>8.30859</ele>
        <time>2013-06-02T19:08:40Z</time>
      </trkpt>
      <trkpt lat="59.8790187" lon="17.6525607">
        <ele>7.82788</ele>
        <time>2013-06-02T19:08:41Z</time>
      </trkpt>
      <trkpt lat="59.8790151" lon="17.6527162">
        <ele>7.82788</ele>
        <time>2013-06-02T19:08:42Z</time>
      </trkpt>
      <trkpt lat="59.879016" lon="17.6528672">
        <ele>7.82788</ele>
        <time>2013-06-02T19:08:43Z</time>
      </trkpt>
      <trkpt lat="59.8790167" lon="17.6530062">
        <ele>6.86646</ele>
        <time>2013-06-02T19:08:44Z</time>
      </trkpt>
      <trkpt lat="59.8790145" lon="17.6531396">
        <ele>6.38586</ele>
        <time>2013-06-02T19:08:45Z</time>
      </trkpt>
      <trkpt lat="59.8790159" lon="17.6532858">
        <ele>6.86646</ele>
        <time>2013-06-02T19:08:46Z</time>
      </trkpt>
      <trkpt lat="59.8790223" lon="17.6534364">
        <ele>6.86646</ele>
        <time>2013-06-02T19:08:47Z</time>
      </trkpt>
      <trkpt lat="59.8790294" lon="17.6535894">
        <ele>7.34717</ele>
        <time>2013-06-02T19:08:48Z</time>
      </trkpt>
      <trkpt lat="59.879031" lon="17.6537341">
        <ele>6.86646</ele>
        <time>2013-06-02T19:08:49Z</time>
      </trkpt>
      <trkpt lat="59.8790366" lon="17.6538724">
        <ele>6.86646</ele>
        <time>2013-06-02T19:08:50Z</time>
      </trkpt>
      <trkpt lat="59.8790418" lon="17.6540149">
        <ele>6.86646</ele>
        <time>2013-06-02T19:08:51Z</time>
      </trkpt>
      <trkpt lat="59.8790439" lon="17.6541546">
        <ele>6.86646</ele>
        <time>2013-06-02T19:08:52Z</time>
      </trkpt>
      <trkpt lat="59.8790397" lon="17.6542904">
        <ele>6.38586</ele>
        <time>2013-06-02T19:08:53Z</time>
      </trkpt>
      <trkpt lat="59.8790404" lon="17.6544337">
        <ele>5.90527</ele>
        <time>2013-06-02T19:08:54Z</time>
      </trkpt>
      <trkpt lat="59.8790444" lon="17.6545882">
        <ele>4.94385</ele>
        <time>2013-06-02T19:08:55Z</time>
      </trkpt>
      <trkpt lat="59.8790533" lon="17.6547622">
        <ele>3.98267</ele>
        <time>2013-06-02T19:08:56Z</time>
      </trkpt>
      <trkpt lat="59.8790601" lon="17.6549284">
        <ele>3.98267</ele>
        <time>2013-06-02T19:08:57Z</time>
      </trkpt>
      <trkpt lat="59.8790657" lon="17.6550921">
        <ele>4.46326</ele>
        <time>2013-06-02T19:08:58Z</time>
      </trkpt>
      <trkpt lat="59.879072" lon="17.6552735">
        <ele>5.42456</ele>
        <time>2013-06-02T19:08:59Z</time>
      </trkpt>
      <trkpt lat="59.8790739" lon="17.6554516">
        <ele>5.42456</ele>
        <time>2013-06-02T19:09:00Z</time>
      </trkpt>
      <trkpt lat="59.8790784" lon="17.6556268">
        <ele>4.46326</ele>
        <time>2013-06-02T19:09:01Z</time>
      </trkpt>
      <trkpt lat="59.8790917" lon="17.6558128">
        <ele>4.94385</ele>
        <time>2013-06-02T19:09:02Z</time>
      </trkpt>
      <trkpt lat="59.8791039" lon="17.655996">
        <ele>4.94385</ele>
        <time>2013-06-02T19:09:03Z</time>
      </trkpt>
      <trkpt lat="59.8791145" lon="17.6561546">
        <ele>4.46326</ele>
        <time>2013-06-02T19:09:04Z</time>
      </trkpt>
      <trkpt lat="59.8791227" lon="17.6562816">
        <ele>3.98267</ele>
        <time>2013-06-02T19:09:05Z</time>
      </trkpt>
      <trkpt lat="59.8791254" lon="17.656411">
        <ele>5.42456</ele>
        <time>2013-06-02T19:09:06Z</time>
      </trkpt>
      <trkpt lat="59.8791268" lon="17.6565115">
        <ele>8.78918</ele>
        <time>2013-06-02T19:09:07Z</time>
      </trkpt>
      <trkpt lat="59.8791268" lon="17.6566193">
        <ele>10.2312</ele>
        <time>2013-06-02T19:09:08Z</time>
      </trkpt>
      <trkpt lat="59.8791327" lon="17.6567296">
        <ele>12.6344</ele>
        <time>2013-06-02T19:09:09Z</time>
      </trkpt>
      <trkpt lat="59.8791352" lon="17.6568586">
        <ele>14.0764</ele>
        <time>2013-06-02T19:09:10Z</time>
      </trkpt>
      <trkpt lat="59.8791395" lon="17.6569874">
        <ele>15.999</ele>
        <time>2013-06-02T19:09:11Z</time>
      </trkpt>
      <trkpt lat="59.8791373" lon="17.6571244">
        <ele>15.999</ele>
        <time>2013-06-02T19:09:12Z</time>
      </trkpt>
      <trkpt lat="59.8791404" lon="17.657258">
        <ele>16.4797</ele>
        <time>2013-06-02T19:09:13Z</time>
      </trkpt>
      <trkpt lat="59.879142" lon="17.6573947">
        <ele>16.4797</ele>
        <time>2013-06-02T19:09:14Z</time>
      </trkpt>
      <trkpt lat="59.8791413" lon="17.6575326">
        <ele>16.9604</ele>
        <time>2013-06-02T19:09:15Z</time>
      </trkpt>
      <trkpt lat="59.8791368" lon="17.6576589">
        <ele>16.4797</ele>
        <time>2013-06-02T19:09:16Z</time>
      </trkpt>
      <trkpt lat="59.8791352" lon="17.6577737">
        <ele>17.9218</ele>
        <time>2013-06-02T19:09:17Z</time>
      </trkpt>
      <trkpt lat="59.8791254" lon="17.657888">
        <ele>18.4023</ele>
        <time>2013-06-02T19:09:18Z</time>
      </trkpt>
      <trkpt lat="59.87911" lon="17.6579785">
        <ele>18.8831</ele>
        <time>2013-06-02T19:09:19Z</time>
      </trkpt>
      <trkpt lat="59.8790902" lon="17.6580753">
        <ele>18.4023</ele>
        <time>2013-06-02T19:09:20Z</time>
      </trkpt>
      <trkpt lat="59.8790654" lon="17.658179">
        <ele>16.4797</ele>
        <time>2013-06-02T19:09:21Z</time>
      </trkpt>
      <trkpt lat="59.8790464" lon="17.6583026">
        <ele>17.4412</ele>
        <time>2013-06-02T19:09:22Z</time>
      </trkpt>
      <trkpt lat="59.8790117" lon="17.6584006">
        <ele>17.9218</ele>
        <time>2013-06-02T19:09:23Z</time>
      </trkpt>
      <trkpt lat="59.8789648" lon="17.6584987">
        <ele>17.9218</ele>
        <time>2013-06-02T19:09:24Z</time>
      </trkpt>
      <trkpt lat="59.8789198" lon="17.6586132">
        <ele>18.8831</ele>
        <time>2013-06-02T19:09:25Z</time>
      </trkpt>
      <trkpt lat="59.8788674" lon="17.6586825">
        <ele>18.8831</ele>
        <time>2013-06-02T19:09:26Z</time>
      </trkpt>
      <trkpt lat="59.878813" lon="17.6587463">
        <ele>18.4023</ele>
        <time>2013-06-02T19:09:27Z</time>
      </trkpt>
      <trkpt lat="59.878759" lon="17.6588312">
        <ele>18.4023</ele>
        <time>2013-06-02T19:09:28Z</time>
      </trkpt>
      <trkpt lat="59.8787071" lon="17.6589561">
        <ele>17.9218</ele>
        <time>2013-06-02T19:09:29Z</time>
      </trkpt>
      <trkpt lat="59.878675" lon="17.6590813">
        <ele>17.9218</ele>
        <time>2013-06-02T19:09:30Z</time>
      </trkpt>
      <trkpt lat="59.878659" lon="17.6592152">
        <ele>17.9218</ele>
        <time>2013-06-02T19:09:31Z</time>
      </trkpt>
      <trkpt lat="59.8786737" lon="17.6593569">
        <ele>17.9218</ele>
        <time>2013-06-02T19:09:32Z</time>
      </trkpt>
      <trkpt lat="59.87868" lon="17.6595337">
        <ele>17.9218</ele>
        <time>2013-06-02T19:09:33Z</time>
      </trkpt>
      <trkpt lat="59.8786866" lon="17.659689">
        <ele>17.4412</ele>
        <time>2013-06-02T19:09:34Z</time>
      </trkpt>
      <trkpt lat="59.8786928" lon="17.6598254">
        <ele>16.9604</ele>
        <time>2013-06-02T19:09:35Z</time>
      </trkpt>
      <trkpt lat="59.8787004" lon="17.6599624">
        <ele>16.4797</ele>
        <time>2013-06-02T19:09:36Z</time>
      </trkpt>
      <trkpt lat="59.8787047" lon="17.6600977">
        <ele>16.9604</ele>
        <time>2013-06-02T19:09:37Z</time>
      </trkpt>
      <trkpt lat="59.8787079" lon="17.6602258">
        <ele>17.4412</ele>
        <time>2013-06-02T19:09:38Z</time>
      </trkpt>
      <trkpt lat="59.8787068" lon="17.6603557">
        <ele>17.9218</ele>
        <time>2013-06-02T19:09:39Z</time>
      </trkpt>
      <trkpt lat="59.8787098" lon="17.6604762">
        <ele>18.4023</ele>
        <time>2013-06-02T19:09:40Z</time>
      </trkpt>
      <trkpt lat="59.8787058" lon="17.6605758">
        <ele>18.4023</ele>
        <time>2013-06-02T19:09:41Z</time>
      </trkpt>
      <trkpt lat="59.8786907" lon="17.6606598">
        <ele>18.8831</ele>
        <time>2013-06-02T19:09:42Z</time>
      </trkpt>
      <trkpt lat="59.8786755" lon="17.6607428">
        <ele>20.8057</ele>
        <time>2013-06-02T19:09:43Z</time>
      </trkpt>
      <trkpt lat="59.8786404" lon="17.6607914">
        <ele>20.8057</ele>
        <time>2013-06-02T19:09:44Z</time>
      </trkpt>
      <trkpt lat="59.8786063" lon="17.6608422">
        <ele>20.8057</ele>
        <time>2013-06-02T19:09:45Z</time>
      </trkpt>
      <trkpt lat="59.8785652" lon="17.660886">
        <ele>22.2476</ele>
        <time>2013-06-02T19:09:46Z</time>
      </trkpt>
      <trkpt lat="59.8785217" lon="17.6609502">
        <ele>22.7283</ele>
        <time>2013-06-02T19:09:47Z</time>
      </trkpt>
      <trkpt lat="59.8784747" lon="17.6609795">
        <ele>23.6896</ele>
        <time>2013-06-02T19:09:48Z</time>
      </trkpt>
      <trkpt lat="59.8784244" lon="17.6610357">
        <ele>24.651</ele>
        <time>2013-06-02T19:09:49Z</time>
      </trkpt>
      <trkpt lat="59.8783772" lon="17.6610614">
        <ele>25.1317</ele>
        <time>2013-06-02T19:09:50Z</time>
      </trkpt>
      <trkpt lat="59.8783358" lon="17.6610871">
        <ele>25.6123</ele>
        <time>2013-06-02T19:09:51Z</time>
      </trkpt>
      <trkpt lat="59.8782878" lon="17.6611105">
        <ele>25.1317</ele>
        <time>2013-06-02T19:09:52Z</time>
      </trkpt>
      <trkpt lat="59.8782277" lon="17.6611524">
        <ele>25.1317</ele>
        <time>2013-06-02T19:09:53Z</time>
      </trkpt>
      <trkpt lat="59.8781606" lon="17.6612156">
        <ele>24.651</ele>
        <time>2013-06-02T19:09:54Z</time>
      </trkpt>
      <trkpt lat="59.8781048" lon="17.6612874">
        <ele>23.209</ele>
        <time>2013-06-02T19:09:55Z</time>
      </trkpt>
      <trkpt lat="59.8780541" lon="17.6613988">
        <ele>21.2864</ele>
        <time>2013-06-02T19:09:56Z</time>
      </trkpt>
      <trkpt lat="59.8780147" lon="17.6615125">
        <ele>19.8444</ele>
        <time>2013-06-02T19:09:57Z</time>
      </trkpt>
      <trkpt lat="59.8779816" lon="17.6616101">
        <ele>17.9218</ele>
        <time>2013-06-02T19:09:58Z</time>
      </trkpt>
      <trkpt lat="59.8779832" lon="17.6617253">
        <ele>16.4797</ele>
        <time>2013-06-02T19:09:59Z</time>
      </trkpt>
      <trkpt lat="59.8779883" lon="17.6618446">
        <ele>15.0377</ele>
        <time>2013-06-02T19:10:00Z</time>
      </trkpt>
      <trkpt lat="59.8780007" lon="17.6620946">
        <ele>13.5958</ele>
        <time>2013-06-02T19:10:02Z</time>
      </trkpt>
      <trkpt lat="59.8779977" lon="17.6622267">
        <ele>14.0764</ele>
        <time>2013-06-02T19:10:03Z</time>
      </trkpt>
      <trkpt lat="59.8779941" lon="17.6623634">
        <ele>14.557</ele>
        <time>2013-06-02T19:10:04Z</time>
      </trkpt>
      <trkpt lat="59.8779941" lon="17.6624941">
        <ele>15.0377</ele>
        <time>2013-06-02T19:10:05Z</time>
      </trkpt>
      <trkpt lat="59.8779904" lon="17.6626225">
        <ele>15.5184</ele>
        <time>2013-06-02T19:10:06Z</time>
      </trkpt>
      <trkpt lat="59.8779888" lon="17.6627575">
        <ele>16.4797</ele>
        <time>2013-06-02T19:10:07Z</time>
      </trkpt>
      <trkpt lat="59.8779848" lon="17.6628862">
        <ele>16.9604</ele>
        <time>2013-06-02T19:10:08Z</time>
      </trkpt>
      <trkpt lat="59.877982" lon="17.6630151">
        <ele>16.9604</ele>
        <time>2013-06-02T19:10:09Z</time>
      </trkpt>
      <trkpt lat="59.8779821" lon="17.6631493">
        <ele>17.9218</ele>
        <time>2013-06-02T19:10:10Z</time>
      </trkpt>
      <trkpt lat="59.877979" lon="17.6632776">
        <ele>18.4023</ele>
        <time>2013-06-02T19:10:11Z</time>
      </trkpt>
      <trkpt lat="59.8779763" lon="17.6634058">
        <ele>18.8831</ele>
        <time>2013-06-02T19:10:12Z</time>
      </trkpt>
      <trkpt lat="59.8779608" lon="17.6635221">
        <ele>18.4023</ele>
        <time>2013-06-02T19:10:13Z</time>
      </trkpt>
      <trkpt lat="59.8779371" lon="17.6636413">
        <ele>18.8831</ele>
        <time>2013-06-02T19:10:14Z</time>
      </trkpt>
      <trkpt lat="59.877906" lon="17.6637527">
        <ele>18.8831</ele>
        <time>2013-06-02T19:10:15Z</time>
      </trkpt>
      <trkpt lat="59.8778713" lon="17.6638619">
        <ele>18.8831</ele>
        <time>2013-06-02T19:10:16Z</time>
      </trkpt>
      <trkpt lat="59.8778335" lon="17.6639657">
        <ele>18.4023</ele>
        <time>2013-06-02T19:10:17Z</time>
      </trkpt>
      <trkpt lat="59.8777978" lon="17.6640709">
        <ele>18.4023</ele>
        <time>2013-06-02T19:10:18Z</time>
      </trkpt>
      <trkpt lat="59.8777634" lon="17.6641771">
        <ele>17.9218</ele>
        <time>2013-06-02T19:10:19Z</time>
      </trkpt>
      <trkpt lat="59.8777252" lon="17.6642745">
        <ele>17.9218</ele>
        <time>2013-06-02T19:10:20Z</time>
      </trkpt>
      <trkpt lat="59.8776862" lon="17.6643768">
        <ele>17.9218</ele>
        <time>2013-06-02T19:10:21Z</time>
      </trkpt>
      <trkpt lat="59.8776509" lon="17.6644944">
        <ele>17.9218</ele>
        <time>2013-06-02T19:10:22Z</time>
      </trkpt>
      <trkpt lat="59.8776149" lon="17.6646115">
        <ele>17.9218</ele>
        <time>2013-06-02T19:10:23Z</time>
      </trkpt>
      <trkpt lat="59.8775772" lon="17.6647241">
        <ele>18.4023</ele>
        <time>2013-06-02T19:10:24Z</time>
      </trkpt>
      <trkpt lat="59.8775378" lon="17.6648337">
        <ele>18.4023</ele>
        <time>2013-06-02T19:10:25Z</time>
      </trkpt>
      <trkpt lat="59.8774951" lon="17.6649395">
        <ele>18.4023</ele>
        <time>2013-06-02T19:10:26Z</time>
      </trkpt>
      <trkpt lat="59.8774532" lon="17.6650448">
        <ele>18.4023</ele>
        <time>2013-06-02T19:10:27Z</time>
      </trkpt>
      <trkpt lat="59.8774097" lon="17.6651467">
        <ele>18.8831</ele>
        <time>2013-06-02T19:10:28Z</time>
      </trkpt>
      <trkpt lat="59.8773621" lon="17.6652473">
        <ele>18.8831</ele>
        <time>2013-06-02T19:10:29Z</time>
      </trkpt>
      <trkpt lat="59.8773092" lon="17.6653383">
        <ele>19.3638</ele>
        <time>2013-06-02T19:10:30Z</time>
      </trkpt>
      <trkpt lat="59.8772495" lon="17.6654095">
        <ele>19.3638</ele>
        <time>2013-06-02T19:10:31Z</time>
      </trkpt>
      <trkpt lat="59.8771855" lon="17.6654612">
        <ele>19.3638</ele>
        <time>2013-06-02T19:10:32Z</time>
      </trkpt>
      <trkpt lat="59.877119" lon="17.6655021">
        <ele>19.3638</ele>
        <time>2013-06-02T19:10:33Z</time>
      </trkpt>
      <trkpt lat="59.8770503" lon="17.6655379">
        <ele>19.8444</ele>
        <time>2013-06-02T19:10:34Z</time>
      </trkpt>
      <trkpt lat="59.8769807" lon="17.6655752">
        <ele>19.8444</ele>
        <time>2013-06-02T19:10:35Z</time>
      </trkpt>
      <trkpt lat="59.8769109" lon="17.6655952">
        <ele>20.325</ele>
        <time>2013-06-02T19:10:36Z</time>
      </trkpt>
      <trkpt lat="59.8768398" lon="17.6656374">
        <ele>20.325</ele>
        <time>2013-06-02T19:10:37Z</time>
      </trkpt>
      <trkpt lat="59.8767685" lon="17.6656824">
        <ele>20.325</ele>
        <time>2013-06-02T19:10:38Z</time>
      </trkpt>
      <trkpt lat="59.8766963" lon="17.6657233">
        <ele>19.8444</ele>
        <time>2013-06-02T19:10:39Z</time>
      </trkpt>
      <trkpt lat="59.8766238" lon="17.6657534">
        <ele>19.8444</ele>
        <time>2013-06-02T19:10:40Z</time>
      </trkpt>
      <trkpt lat="59.8765515" lon="17.6657768">
        <ele>20.325</ele>
        <time>2013-06-02T19:10:41Z</time>
      </trkpt>
      <trkpt lat="59.8764789" lon="17.665787">
        <ele>19.8444</ele>
        <time>2013-06-02T19:10:42Z</time>
      </trkpt>
      <trkpt lat="59.876407" lon="17.6657762">
        <ele>20.325</ele>
        <time>2013-06-02T19:10:43Z</time>
      </trkpt>
      <trkpt lat="59.8763352" lon="17.6657573">
        <ele>19.8444</ele>
        <time>2013-06-02T19:10:44Z</time>
      </trkpt>
      <trkpt lat="59.8762613" lon="17.6657553">
        <ele>19.8444</ele>
        <time>2013-06-02T19:10:45Z</time>
      </trkpt>
      <trkpt lat="59.8761846" lon="17.6657653">
        <ele>19.8444</ele>
        <time>2013-06-02T19:10:46Z</time>
      </trkpt>
      <trkpt lat="59.876107" lon="17.6657923">
        <ele>19.8444</ele>
        <time>2013-06-02T19:10:47Z</time>
      </trkpt>
      <trkpt lat="59.8760288" lon="17.6658378">
        <ele>19.8444</ele>
        <time>2013-06-02T19:10:48Z</time>
      </trkpt>
      <trkpt lat="59.8759521" lon="17.665901">
        <ele>19.8444</ele>
        <time>2013-06-02T19:10:49Z</time>
      </trkpt>
      <trkpt lat="59.8758744" lon="17.6659802">
        <ele>19.8444</ele>
        <time>2013-06-02T19:10:50Z</time>
      </trkpt>
      <trkpt lat="59.875804" lon="17.6660632">
        <ele>19.8444</ele>
        <time>2013-06-02T19:10:51Z</time>
      </trkpt>
      <trkpt lat="59.8757344" lon="17.6661549">
        <ele>19.3638</ele>
        <time>2013-06-02T19:10:52Z</time>
      </trkpt>
      <trkpt lat="59.8756703" lon="17.6662479">
        <ele>19.3638</ele>
        <time>2013-06-02T19:10:53Z</time>
      </trkpt>
      <trkpt lat="59.8756155" lon="17.6663517">
        <ele>18.4023</ele>
        <time>2013-06-02T19:10:54Z</time>
      </trkpt>
      <trkpt lat="59.8755649" lon="17.666449">
        <ele>17.9218</ele>
        <time>2013-06-02T19:10:55Z</time>
      </trkpt>
      <trkpt lat="59.8755169" lon="17.6665352">
        <ele>17.4412</ele>
        <time>2013-06-02T19:10:56Z</time>
      </trkpt>
      <trkpt lat="59.8754654" lon="17.6666058">
        <ele>16.9604</ele>
        <time>2013-06-02T19:10:57Z</time>
      </trkpt>
      <trkpt lat="59.8754174" lon="17.6666842">
        <ele>16.9604</ele>
        <time>2013-06-02T19:10:58Z</time>
      </trkpt>
      <trkpt lat="59.8753754" lon="17.6667878">
        <ele>16.9604</ele>
        <time>2013-06-02T19:10:59Z</time>
      </trkpt>
      <trkpt lat="59.8753486" lon="17.6669136">
        <ele>15.999</ele>
        <time>2013-06-02T19:11:00Z</time>
      </trkpt>
      <trkpt lat="59.8753744" lon="17.6670461">
        <ele>15.999</ele>
        <time>2013-06-02T19:11:01Z</time>
      </trkpt>
      <trkpt lat="59.8754035" lon="17.6671451">
        <ele>16.4797</ele>
        <time>2013-06-02T19:11:02Z</time>
      </trkpt>
      <trkpt lat="59.8754102" lon="17.6672597">
        <ele>16.9604</ele>
        <time>2013-06-02T19:11:03Z</time>
      </trkpt>
      <trkpt lat="59.8754366" lon="17.6673842">
        <ele>16.9604</ele>
        <time>2013-06-02T19:11:04Z</time>
      </trkpt>
      <trkpt lat="59.8754672" lon="17.6675162">
        <ele>16.9604</ele>
        <time>2013-06-02T19:11:05Z</time>
      </trkpt>
      <trkpt lat="59.8755015" lon="17.6676471">
        <ele>17.4412</ele>
        <time>2013-06-02T19:11:06Z</time>
      </trkpt>
      <trkpt lat="59.875532" lon="17.6677801">
        <ele>18.4023</ele>
        <time>2013-06-02T19:11:07Z</time>
      </trkpt>
      <trkpt lat="59.8755651" lon="17.667902">
        <ele>19.3638</ele>
        <time>2013-06-02T19:11:08Z</time>
      </trkpt>
      <trkpt lat="59.8755989" lon="17.6680202">
        <ele>20.325</ele>
        <time>2013-06-02T19:11:09Z</time>
      </trkpt>
      <trkpt lat="59.8756326" lon="17.6681298">
        <ele>20.8057</ele>
        <time>2013-06-02T19:11:10Z</time>
      </trkpt>
      <trkpt lat="59.8756625" lon="17.6682398">
        <ele>20.8057</ele>
        <time>2013-06-02T19:11:11Z</time>
      </trkpt>
      <trkpt lat="59.8756894" lon="17.6683516">
        <ele>20.8057</ele>
        <time>2013-06-02T19:11:12Z</time>
      </trkpt>
      <trkpt lat="59.8757112" lon="17.6684678">
        <ele>21.2864</ele>
        <time>2013-06-02T19:11:13Z</time>
      </trkpt>
      <trkpt lat="59.875725" lon="17.668589">
        <ele>21.2864</ele>
        <time>2013-06-02T19:11:14Z</time>
      </trkpt>
      <trkpt lat="59.8757315" lon="17.6687137">
        <ele>21.767</ele>
        <time>2013-06-02T19:11:15Z</time>
      </trkpt>
      <trkpt lat="59.8757341" lon="17.6688458">
        <ele>22.7283</ele>
        <time>2013-06-02T19:11:16Z</time>
      </trkpt>
      <trkpt lat="59.8757335" lon="17.6689779">
        <ele>23.209</ele>
        <time>2013-06-02T19:11:17Z</time>
      </trkpt>
      <trkpt lat="59.8757308" lon="17.6691132">
        <ele>23.6896</ele>
        <time>2013-06-02T19:11:18Z</time>
      </trkpt>
      <trkpt lat="59.8757274" lon="17.6692437">
        <ele>23.6896</ele>
        <time>2013-06-02T19:11:19Z</time>
      </trkpt>
      <trkpt lat="59.875733" lon="17.6693824">
        <ele>24.651</ele>
        <time>2013-06-02T19:11:20Z</time>
      </trkpt>
      <trkpt lat="59.875739" lon="17.669511">
        <ele>25.1317</ele>
        <time>2013-06-02T19:11:21Z</time>
      </trkpt>
      <trkpt lat="59.8757474" lon="17.6696369">
        <ele>25.6123</ele>
        <time>2013-06-02T19:11:22Z</time>
      </trkpt>
      <trkpt lat="59.8757573" lon="17.6697536">
        <ele>25.6123</ele>
        <time>2013-06-02T19:11:23Z</time>
      </trkpt>
      <trkpt lat="59.8757664" lon="17.6698706">
        <ele>25.6123</ele>
        <time>2013-06-02T19:11:24Z</time>
      </trkpt>
      <trkpt lat="59.8757759" lon="17.6699839">
        <ele>26.5736</ele>
        <time>2013-06-02T19:11:25Z</time>
      </trkpt>
      <trkpt lat="59.8757872" lon="17.6700982">
        <ele>27.0543</ele>
        <time>2013-06-02T19:11:26Z</time>
      </trkpt>
      <trkpt lat="59.8757985" lon="17.6702124">
        <ele>27.5349</ele>
        <time>2013-06-02T19:11:27Z</time>
      </trkpt>
      <trkpt lat="59.8758089" lon="17.6703253">
        <ele>27.5349</ele>
        <time>2013-06-02T19:11:28Z</time>
      </trkpt>
      <trkpt lat="59.8758195" lon="17.6704377">
        <ele>27.0543</ele>
        <time>2013-06-02T19:11:29Z</time>
      </trkpt>
      <trkpt lat="59.8758292" lon="17.6705399">
        <ele>27.0543</ele>
        <time>2013-06-02T19:11:30Z</time>
      </trkpt>
      <trkpt lat="59.8758367" lon="17.6706474">
        <ele>27.0543</ele>
        <time>2013-06-02T19:11:31Z</time>
      </trkpt>
      <trkpt lat="59.8758418" lon="17.6707599">
        <ele>26.5736</ele>
        <time>2013-06-02T19:11:32Z</time>
      </trkpt>
      <trkpt lat="59.875846" lon="17.6708848">
        <ele>25.6123</ele>
        <time>2013-06-02T19:11:33Z</time>
      </trkpt>
      <trkpt lat="59.875852" lon="17.6710172">
        <ele>25.6123</ele>
        <time>2013-06-02T19:11:34Z</time>
      </trkpt>
      <trkpt lat="59.8758582" lon="17.6711614">
        <ele>25.6123</ele>
        <time>2013-06-02T19:11:35Z</time>
      </trkpt>
      <trkpt lat="59.8758703" lon="17.6713146">
        <ele>25.6123</ele>
        <time>2013-06-02T19:11:36Z</time>
      </trkpt>
      <trkpt lat="59.8758899" lon="17.6714767">
        <ele>25.1317</ele>
        <time>2013-06-02T19:11:37Z</time>
      </trkpt>
      <trkpt lat="59.8759211" lon="17.6716429">
        <ele>24.651</ele>
        <time>2013-06-02T19:11:38Z</time>
      </trkpt>
      <trkpt lat="59.875957" lon="17.6717908">
        <ele>23.6896</ele>
        <time>2013-06-02T19:11:39Z</time>
      </trkpt>
      <trkpt lat="59.8760247" lon="17.6719125">
        <ele>23.6896</ele>
        <time>2013-06-02T19:11:40Z</time>
      </trkpt>
      <trkpt lat="59.8760951" lon="17.6720475">
        <ele>23.6896</ele>
        <time>2013-06-02T19:11:41Z</time>
      </trkpt>
      <trkpt lat="59.8761492" lon="17.6722185">
        <ele>24.1703</ele>
        <time>2013-06-02T19:11:42Z</time>
      </trkpt>
      <trkpt lat="59.8762015" lon="17.6723829">
        <ele>24.1703</ele>
        <time>2013-06-02T19:11:43Z</time>
      </trkpt>
      <trkpt lat="59.8762386" lon="17.6725393">
        <ele>24.651</ele>
        <time>2013-06-02T19:11:44Z</time>
      </trkpt>
      <trkpt lat="59.8762686" lon="17.6726912">
        <ele>26.0929</ele>
        <time>2013-06-02T19:11:45Z</time>
      </trkpt>
      <trkpt lat="59.8762882" lon="17.672824">
        <ele>28.9769</ele>
        <time>2013-06-02T19:11:46Z</time>
      </trkpt>
      <trkpt lat="59.8762918" lon="17.6729278">
        <ele>28.9769</ele>
        <time>2013-06-02T19:11:47Z</time>
      </trkpt>
      <trkpt lat="59.8762803" lon="17.6729759">
        <ele>29.4575</ele>
        <time>2013-06-02T19:11:48Z</time>
      </trkpt>
      <trkpt lat="59.8762712" lon="17.673008">
        <ele>28.4962</ele>
        <time>2013-06-02T19:11:49Z</time>
      </trkpt>
      <trkpt lat="59.8762582" lon="17.6730366">
        <ele>28.4962</ele>
        <time>2013-06-02T19:11:50Z</time>
      </trkpt>
      <trkpt lat="59.8762427" lon="17.6730708">
        <ele>28.4962</ele>
        <time>2013-06-02T19:11:51Z</time>
      </trkpt>
      <trkpt lat="59.8762262" lon="17.6731095">
        <ele>28.4962</ele>
        <time>2013-06-02T19:11:52Z</time>
      </trkpt>
      <trkpt lat="59.8762059" lon="17.6731561">
        <ele>28.4962</ele>
        <time>2013-06-02T19:11:53Z</time>
      </trkpt>
      <trkpt lat="59.8761839" lon="17.6732113">
        <ele>28.9769</ele>
        <time>2013-06-02T19:11:54Z</time>
      </trkpt>
      <trkpt lat="59.8761571" lon="17.6732819">
        <ele>28.9769</ele>
        <time>2013-06-02T19:11:55Z</time>
      </trkpt>
      <trkpt lat="59.8761252" lon="17.6733669">
        <ele>28.9769</ele>
        <time>2013-06-02T19:11:56Z</time>
      </trkpt>
      <trkpt lat="59.8760869" lon="17.6734345">
        <ele>29.4575</ele>
        <time>2013-06-02T19:11:57Z</time>
      </trkpt>
      <trkpt lat="59.876052" lon="17.6735132">
        <ele>29.4575</ele>
        <time>2013-06-02T19:11:58Z</time>
      </trkpt>
      <trkpt lat="59.876014" lon="17.6735976">
        <ele>29.4575</ele>
        <time>2013-06-02T19:11:59Z</time>
      </trkpt>
      <trkpt lat="59.8759798" lon="17.6736849">
        <ele>28.9769</ele>
        <time>2013-06-02T19:12:00Z</time>
      </trkpt>
      <trkpt lat="59.8759459" lon="17.6737722">
        <ele>28.4962</ele>
        <time>2013-06-02T19:12:01Z</time>
      </trkpt>
      <trkpt lat="59.8759148" lon="17.67386">
        <ele>28.4962</ele>
        <time>2013-06-02T19:12:02Z</time>
      </trkpt>
      <trkpt lat="59.8758889" lon="17.6739455">
        <ele>28.0155</ele>
        <time>2013-06-02T19:12:03Z</time>
      </trkpt>
      <trkpt lat="59.8758457" lon="17.6740279">
        <ele>28.4962</ele>
        <time>2013-06-02T19:12:04Z</time>
      </trkpt>
      <trkpt lat="59.8758302" lon="17.6741317">
        <ele>28.4962</ele>
        <time>2013-06-02T19:12:05Z</time>
      </trkpt>
      <trkpt lat="59.8758416" lon="17.6742451">
        <ele>27.5349</ele>
        <time>2013-06-02T19:12:06Z</time>
      </trkpt>
      <trkpt lat="59.8758617" lon="17.6743609">
        <ele>27.0543</ele>
        <time>2013-06-02T19:12:07Z</time>
      </trkpt>
      <trkpt lat="59.8758889" lon="17.674486">
        <ele>26.5736</ele>
        <time>2013-06-02T19:12:08Z</time>
      </trkpt>
      <trkpt lat="59.8759102" lon="17.6746119">
        <ele>27.5349</ele>
        <time>2013-06-02T19:12:09Z</time>
      </trkpt>
      <trkpt lat="59.8759323" lon="17.6747313">
        <ele>27.5349</ele>
        <time>2013-06-02T19:12:10Z</time>
      </trkpt>
      <trkpt lat="59.8759527" lon="17.6748588">
        <ele>28.0155</ele>
        <time>2013-06-02T19:12:11Z</time>
      </trkpt>
      <trkpt lat="59.8759737" lon="17.6749926">
        <ele>28.0155</ele>
        <time>2013-06-02T19:12:12Z</time>
      </trkpt>
      <trkpt lat="59.8759949" lon="17.6751299">
        <ele>28.9769</ele>
        <time>2013-06-02T19:12:13Z</time>
      </trkpt>
      <trkpt lat="59.8760154" lon="17.6752603">
        <ele>29.9381</ele>
        <time>2013-06-02T19:12:14Z</time>
      </trkpt>
      <trkpt lat="59.8760379" lon="17.6753903">
        <ele>30.8995</ele>
        <time>2013-06-02T19:12:15Z</time>
      </trkpt>
      <trkpt lat="59.8760609" lon="17.6755161">
        <ele>31.3801</ele>
        <time>2013-06-02T19:12:16Z</time>
      </trkpt>
      <trkpt lat="59.8760856" lon="17.6756425">
        <ele>31.8607</ele>
        <time>2013-06-02T19:12:17Z</time>
      </trkpt>
      <trkpt lat="59.8761064" lon="17.6757696">
        <ele>31.8607</ele>
        <time>2013-06-02T19:12:18Z</time>
      </trkpt>
      <trkpt lat="59.8761267" lon="17.6759005">
        <ele>31.8607</ele>
        <time>2013-06-02T19:12:19Z</time>
      </trkpt>
      <trkpt lat="59.8761485" lon="17.6760229">
        <ele>31.3801</ele>
        <time>2013-06-02T19:12:20Z</time>
      </trkpt>
      <trkpt lat="59.8761712" lon="17.6761456">
        <ele>31.3801</ele>
        <time>2013-06-02T19:12:21Z</time>
      </trkpt>
      <trkpt lat="59.8761935" lon="17.6762699">
        <ele>31.3801</ele>
        <time>2013-06-02T19:12:22Z</time>
      </trkpt>
      <trkpt lat="59.8762212" lon="17.6763858">
        <ele>30.8995</ele>
        <time>2013-06-02T19:12:23Z</time>
      </trkpt>
      <trkpt lat="59.8762529" lon="17.6764951">
        <ele>30.4188</ele>
        <time>2013-06-02T19:12:24Z</time>
      </trkpt>
      <trkpt lat="59.8762861" lon="17.6765984">
        <ele>29.9381</ele>
        <time>2013-06-02T19:12:25Z</time>
      </trkpt>
      <trkpt lat="59.8763207" lon="17.6766962">
        <ele>29.4575</ele>
        <time>2013-06-02T19:12:26Z</time>
      </trkpt>
      <trkpt lat="59.8763555" lon="17.6767904">
        <ele>29.4575</ele>
        <time>2013-06-02T19:12:27Z</time>
      </trkpt>
      <trkpt lat="59.8763896" lon="17.6768839">
        <ele>28.9769</ele>
        <time>2013-06-02T19:12:28Z</time>
      </trkpt>
      <trkpt lat="59.8764222" lon="17.6769762">
        <ele>28.9769</ele>
        <time>2013-06-02T19:12:29Z</time>
      </trkpt>
      <trkpt lat="59.8764477" lon="17.6770759">
        <ele>28.4962</ele>
        <time>2013-06-02T19:12:30Z</time>
      </trkpt>
      <trkpt lat="59.8764576" lon="17.6771843">
        <ele>28.4962</ele>
        <time>2013-06-02T19:12:31Z</time>
      </trkpt>
      <trkpt lat="59.8764535" lon="17.6772744">
        <ele>28.0155</ele>
        <time>2013-06-02T19:12:32Z</time>
      </trkpt>
      <trkpt lat="59.8764451" lon="17.6773227">
        <ele>28.0155</ele>
        <time>2013-06-02T19:12:33Z</time>
      </trkpt>
      <trkpt lat="59.876438" lon="17.6773437">
        <ele>27.5349</ele>
        <time>2013-06-02T19:12:34Z</time>
      </trkpt>
      <trkpt lat="59.8764332" lon="17.6773511">
        <ele>26.5736</ele>
        <time>2013-06-02T19:12:35Z</time>
      </trkpt>
      <trkpt lat="59.8764291" lon="17.6773568">
        <ele>26.5736</ele>
        <time>2013-06-02T19:12:36Z</time>
      </trkpt>
      <trkpt lat="59.8764282" lon="17.6773609">
        <ele>27.0543</ele>
        <time>2013-06-02T19:12:37Z</time>
      </trkpt>
      <trkpt lat="59.8764275" lon="17.677362">
        <ele>27.0543</ele>
        <time>2013-06-02T19:12:38Z</time>
      </trkpt>
      <trkpt lat="59.8763771" lon="17.6774506">
        <ele>26.5736</ele>
        <time>2013-06-02T19:12:44Z</time>
      </trkpt>
      <trkpt lat="59.8763455" lon="17.6774696">
        <ele>26.5736</ele>
        <time>2013-06-02T19:12:45Z</time>
      </trkpt>
      <trkpt lat="59.8763034" lon="17.6775024">
        <ele>26.0929</ele>
        <time>2013-06-02T19:12:46Z</time>
      </trkpt>
      <trkpt lat="59.8762551" lon="17.6775516">
        <ele>26.0929</ele>
        <time>2013-06-02T19:12:47Z</time>
      </trkpt>
      <trkpt lat="59.8762081" lon="17.6776317">
        <ele>25.1317</ele>
        <time>2013-06-02T19:12:48Z</time>
      </trkpt>
      <trkpt lat="59.8761692" lon="17.6777374">
        <ele>24.651</ele>
        <time>2013-06-02T19:12:49Z</time>
      </trkpt>
      <trkpt lat="59.8761334" lon="17.6778433">
        <ele>24.651</ele>
        <time>2013-06-02T19:12:50Z</time>
      </trkpt>
      <trkpt lat="59.8760893" lon="17.6779437">
        <ele>25.1317</ele>
        <time>2013-06-02T19:12:51Z</time>
      </trkpt>
      <trkpt lat="59.8760307" lon="17.678026">
        <ele>25.1317</ele>
        <time>2013-06-02T19:12:52Z</time>
      </trkpt>
      <trkpt lat="59.8759614" lon="17.678084">
        <ele>25.6123</ele>
        <time>2013-06-02T19:12:53Z</time>
      </trkpt>
      <trkpt lat="59.8758867" lon="17.6781296">
        <ele>25.6123</ele>
        <time>2013-06-02T19:12:54Z</time>
      </trkpt>
      <trkpt lat="59.8758084" lon="17.678174">
        <ele>25.6123</ele>
        <time>2013-06-02T19:12:55Z</time>
      </trkpt>
      <trkpt lat="59.8757265" lon="17.6782104">
        <ele>26.0929</ele>
        <time>2013-06-02T19:12:56Z</time>
      </trkpt>
      <trkpt lat="59.8756418" lon="17.6782398">
        <ele>26.0929</ele>
        <time>2013-06-02T19:12:57Z</time>
      </trkpt>
      <trkpt lat="59.8755542" lon="17.6782659">
        <ele>26.5736</ele>
        <time>2013-06-02T19:12:58Z</time>
      </trkpt>
      <trkpt lat="59.8754616" lon="17.6782818">
        <ele>26.5736</ele>
        <time>2013-06-02T19:12:59Z</time>
      </trkpt>
      <trkpt lat="59.8753677" lon="17.6782954">
        <ele>27.0543</ele>
        <time>2013-06-02T19:13:00Z</time>
      </trkpt>
      <trkpt lat="59.875273" lon="17.678308">
        <ele>27.0543</ele>
        <time>2013-06-02T19:13:01Z</time>
      </trkpt>
      <trkpt lat="59.8751776" lon="17.6783167">
        <ele>27.5349</ele>
        <time>2013-06-02T19:13:02Z</time>
      </trkpt>
      <trkpt lat="59.8750827" lon="17.6783188">
        <ele>27.5349</ele>
        <time>2013-06-02T19:13:03Z</time>
      </trkpt>
      <trkpt lat="59.8749887" lon="17.6783166">
        <ele>28.0155</ele>
        <time>2013-06-02T19:13:04Z</time>
      </trkpt>
      <trkpt lat="59.8748958" lon="17.6783146">
        <ele>28.0155</ele>
        <time>2013-06-02T19:13:05Z</time>
      </trkpt>
      <trkpt lat="59.8748042" lon="17.6783134">
        <ele>28.4962</ele>
        <time>2013-06-02T19:13:06Z</time>
      </trkpt>
      <trkpt lat="59.874715" lon="17.678312">
        <ele>28.4962</ele>
        <time>2013-06-02T19:13:07Z</time>
      </trkpt>
      <trkpt lat="59.8746268" lon="17.6783111">
        <ele>28.9769</ele>
        <time>2013-06-02T19:13:08Z</time>
      </trkpt>
      <trkpt lat="59.8745382" lon="17.6783113">
        <ele>28.9769</ele>
        <time>2013-06-02T19:13:09Z</time>
      </trkpt>
      <trkpt lat="59.8744498" lon="17.6783146">
        <ele>29.4575</ele>
        <time>2013-06-02T19:13:10Z</time>
      </trkpt>
      <trkpt lat="59.8743617" lon="17.6783201">
        <ele>29.4575</ele>
        <time>2013-06-02T19:13:11Z</time>
      </trkpt>
      <trkpt lat="59.8742727" lon="17.6783275">
        <ele>29.9381</ele>
        <time>2013-06-02T19:13:12Z</time>
      </trkpt>
      <trkpt lat="59.8741841" lon="17.6783377">
        <ele>29.9381</ele>
        <time>2013-06-02T19:13:13Z</time>
      </trkpt>
      <trkpt lat="59.8740955" lon="17.6783494">
        <ele>29.9381</ele>
        <time>2013-06-02T19:13:14Z</time>
      </trkpt>
      <trkpt lat="59.874006" lon="17.6783613">
        <ele>29.9381</ele>
        <time>2013-06-02T19:13:15Z</time>
      </trkpt>
      <trkpt lat="59.8739166" lon="17.6783748">
        <ele>29.9381</ele>
        <time>2013-06-02T19:13:16Z</time>
      </trkpt>
      <trkpt lat="59.8738285" lon="17.6783963">
        <ele>29.9381</ele>
        <time>2013-06-02T19:13:17Z</time>
      </trkpt>
      <trkpt lat="59.8737436" lon="17.678429">
        <ele>29.9381</ele>
        <time>2013-06-02T19:13:18Z</time>
      </trkpt>
      <trkpt lat="59.87366" lon="17.678469">
        <ele>29.4575</ele>
        <time>2013-06-02T19:13:19Z</time>
      </trkpt>
      <trkpt lat="59.873577" lon="17.6785078">
        <ele>29.4575</ele>
        <time>2013-06-02T19:13:20Z</time>
      </trkpt>
      <trkpt lat="59.8734929" lon="17.6785449">
        <ele>29.4575</ele>
        <time>2013-06-02T19:13:21Z</time>
      </trkpt>
      <trkpt lat="59.8734079" lon="17.6785753">
        <ele>29.4575</ele>
        <time>2013-06-02T19:13:22Z</time>
      </trkpt>
      <trkpt lat="59.873324" lon="17.6785983">
        <ele>28.9769</ele>
        <time>2013-06-02T19:13:23Z</time>
      </trkpt>
      <trkpt lat="59.8732407" lon="17.6786201">
        <ele>28.4962</ele>
        <time>2013-06-02T19:13:24Z</time>
      </trkpt>
      <trkpt lat="59.8731574" lon="17.6786425">
        <ele>28.4962</ele>
        <time>2013-06-02T19:13:25Z</time>
      </trkpt>
      <trkpt lat="59.8730735" lon="17.6786669">
        <ele>28.4962</ele>
        <time>2013-06-02T19:13:26Z</time>
      </trkpt>
      <trkpt lat="59.8729906" lon="17.6786918">
        <ele>28.0155</ele>
        <time>2013-06-02T19:13:27Z</time>
      </trkpt>
      <trkpt lat="59.872908" lon="17.6787138">
        <ele>28.0155</ele>
        <time>2013-06-02T19:13:28Z</time>
      </trkpt>
      <trkpt lat="59.8728252" lon="17.6787361">
        <ele>28.0155</ele>
        <time>2013-06-02T19:13:29Z</time>
      </trkpt>
      <trkpt lat="59.872743" lon="17.6787594">
        <ele>27.5349</ele>
        <time>2013-06-02T19:13:30Z</time>
      </trkpt>
      <trkpt lat="59.872663" lon="17.6787835">
        <ele>27.5349</ele>
        <time>2013-06-02T19:13:31Z</time>
      </trkpt>
      <trkpt lat="59.8725871" lon="17.6788066">
        <ele>27.5349</ele>
        <time>2013-06-02T19:13:32Z</time>
      </trkpt>
      <trkpt lat="59.8725172" lon="17.678829">
        <ele>27.0543</ele>
        <time>2013-06-02T19:13:33Z</time>
      </trkpt>
      <trkpt lat="59.8724549" lon="17.6788485">
        <ele>27.0543</ele>
        <time>2013-06-02T19:13:34Z</time>
      </trkpt>
      <trkpt lat="59.872398" lon="17.6788664">
        <ele>26.5736</ele>
        <time>2013-06-02T19:13:35Z</time>
      </trkpt>
      <trkpt lat="59.8723493" lon="17.6788825">
        <ele>26.0929</ele>
        <time>2013-06-02T19:13:36Z</time>
      </trkpt>
      <trkpt lat="59.8723056" lon="17.6788984">
        <ele>25.6123</ele>
        <time>2013-06-02T19:13:37Z</time>
      </trkpt>
      <trkpt lat="59.872267" lon="17.6789195">
        <ele>25.1317</ele>
        <time>2013-06-02T19:13:38Z</time>
      </trkpt>
      <trkpt lat="59.8722341" lon="17.6789575">
        <ele>24.651</ele>
        <time>2013-06-02T19:13:39Z</time>
      </trkpt>
      <trkpt lat="59.872212" lon="17.6790138">
        <ele>23.6896</ele>
        <time>2013-06-02T19:13:40Z</time>
      </trkpt>
      <trkpt lat="59.8722078" lon="17.6790917">
        <ele>22.2476</ele>
        <time>2013-06-02T19:13:41Z</time>
      </trkpt>
      <trkpt lat="59.872216" lon="17.6791859">
        <ele>21.767</ele>
        <time>2013-06-02T19:13:42Z</time>
      </trkpt>
      <trkpt lat="59.8722276" lon="17.6792934">
        <ele>21.767</ele>
        <time>2013-06-02T19:13:43Z</time>
      </trkpt>
      <trkpt lat="59.8722388" lon="17.679408">
        <ele>21.767</ele>
        <time>2013-06-02T19:13:44Z</time>
      </trkpt>
      <trkpt lat="59.8722491" lon="17.6795304">
        <ele>21.767</ele>
        <time>2013-06-02T19:13:45Z</time>
      </trkpt>
      <trkpt lat="59.8722593" lon="17.6796579">
        <ele>21.767</ele>
        <time>2013-06-02T19:13:46Z</time>
      </trkpt>
      <trkpt lat="59.8722707" lon="17.6797874">
        <ele>21.767</ele>
        <time>2013-06-02T19:13:47Z</time>
      </trkpt>
      <trkpt lat="59.8722825" lon="17.6799189">
        <ele>22.2476</ele>
        <time>2013-06-02T19:13:48Z</time>
      </trkpt>
      <trkpt lat="59.8722934" lon="17.6800531">
        <ele>22.2476</ele>
        <time>2013-06-02T19:13:49Z</time>
      </trkpt>
      <trkpt lat="59.8723042" lon="17.6801907">
        <ele>22.7283</ele>
        <time>2013-06-02T19:13:50Z</time>
      </trkpt>
      <trkpt lat="59.8723152" lon="17.6803323">
        <ele>22.7283</ele>
        <time>2013-06-02T19:13:51Z</time>
      </trkpt>
      <trkpt lat="59.8723275" lon="17.6804732">
        <ele>23.209</ele>
        <time>2013-06-02T19:13:52Z</time>
      </trkpt>
      <trkpt lat="59.8723404" lon="17.6806159">
        <ele>23.209</ele>
        <time>2013-06-02T19:13:53Z</time>
      </trkpt>
      <trkpt lat="59.8723543" lon="17.6807631">
        <ele>23.209</ele>
        <time>2013-06-02T19:13:54Z</time>
      </trkpt>
      <trkpt lat="59.872369" lon="17.6809165">
        <ele>23.6896</ele>
        <time>2013-06-02T19:13:55Z</time>
      </trkpt>
      <trkpt lat="59.8723852" lon="17.6810735">
        <ele>24.1703</ele>
        <time>2013-06-02T19:13:56Z</time>
      </trkpt>
      <trkpt lat="59.8724021" lon="17.6812305">
        <ele>24.651</ele>
        <time>2013-06-02T19:13:57Z</time>
      </trkpt>
      <trkpt lat="59.872419" lon="17.6813864">
        <ele>24.651</ele>
        <time>2013-06-02T19:13:58Z</time>
      </trkpt>
      <trkpt lat="59.8724364" lon="17.6815449">
        <ele>25.1317</ele>
        <time>2013-06-02T19:13:59Z</time>
      </trkpt>
      <trkpt lat="59.8724534" lon="17.681704">
        <ele>25.6123</ele>
        <time>2013-06-02T19:14:00Z</time>
      </trkpt>
      <trkpt lat="59.8724714" lon="17.6818619">
        <ele>26.0929</ele>
        <time>2013-06-02T19:14:01Z</time>
      </trkpt>
      <trkpt lat="59.8724901" lon="17.6820235">
        <ele>26.0929</ele>
        <time>2013-06-02T19:14:02Z</time>
      </trkpt>
      <trkpt lat="59.8725095" lon="17.6821861">
        <ele>26.0929</ele>
        <time>2013-06-02T19:14:03Z</time>
      </trkpt>
      <trkpt lat="59.8725291" lon="17.6823484">
        <ele>26.0929</ele>
        <time>2013-06-02T19:14:04Z</time>
      </trkpt>
      <trkpt lat="59.8725494" lon="17.6825083">
        <ele>26.0929</ele>
        <time>2013-06-02T19:14:05Z</time>
      </trkpt>
      <trkpt lat="59.8725705" lon="17.6826655">
        <ele>26.0929</ele>
        <time>2013-06-02T19:14:06Z</time>
      </trkpt>
      <trkpt lat="59.8725931" lon="17.6828213">
        <ele>26.0929</ele>
        <time>2013-06-02T19:14:07Z</time>
      </trkpt>
      <trkpt lat="59.8726182" lon="17.6829751">
        <ele>26.5736</ele>
        <time>2013-06-02T19:14:08Z</time>
      </trkpt>
      <trkpt lat="59.8726454" lon="17.6831257">
        <ele>26.5736</ele>
        <time>2013-06-02T19:14:09Z</time>
      </trkpt>
      <trkpt lat="59.8726734" lon="17.68327">
        <ele>26.0929</ele>
        <time>2013-06-02T19:14:10Z</time>
      </trkpt>
      <trkpt lat="59.8727025" lon="17.6834082">
        <ele>25.6123</ele>
        <time>2013-06-02T19:14:11Z</time>
      </trkpt>
      <trkpt lat="59.8727337" lon="17.6835435">
        <ele>25.6123</ele>
        <time>2013-06-02T19:14:12Z</time>
      </trkpt>
      <trkpt lat="59.8727654" lon="17.6836766">
        <ele>25.1317</ele>
        <time>2013-06-02T19:14:13Z</time>
      </trkpt>
      <trkpt lat="59.8727968" lon="17.6838106">
        <ele>24.1703</ele>
        <time>2013-06-02T19:14:14Z</time>
      </trkpt>
      <trkpt lat="59.8728277" lon="17.6839418">
        <ele>23.6896</ele>
        <time>2013-06-02T19:14:15Z</time>
      </trkpt>
      <trkpt lat="59.8728584" lon="17.6840691">
        <ele>23.209</ele>
        <time>2013-06-02T19:14:16Z</time>
      </trkpt>
      <trkpt lat="59.8728897" lon="17.6841966">
        <ele>23.209</ele>
        <time>2013-06-02T19:14:17Z</time>
      </trkpt>
      <trkpt lat="59.8729223" lon="17.6843271">
        <ele>22.7283</ele>
        <time>2013-06-02T19:14:18Z</time>
      </trkpt>
      <trkpt lat="59.8729567" lon="17.6844593">
        <ele>23.209</ele>
        <time>2013-06-02T19:14:19Z</time>
      </trkpt>
      <trkpt lat="59.8729922" lon="17.6845903">
        <ele>23.209</ele>
        <time>2013-06-02T19:14:20Z</time>
      </trkpt>
      <trkpt lat="59.8730273" lon="17.6847213">
        <ele>23.209</ele>
        <time>2013-06-02T19:14:21Z</time>
      </trkpt>
      <trkpt lat="59.873061" lon="17.6848515">
        <ele>23.209</ele>
        <time>2013-06-02T19:14:22Z</time>
      </trkpt>
      <trkpt lat="59.8730943" lon="17.6849807">
        <ele>23.6896</ele>
        <time>2013-06-02T19:14:23Z</time>
      </trkpt>
      <trkpt lat="59.8731282" lon="17.6851089">
        <ele>23.6896</ele>
        <time>2013-06-02T19:14:24Z</time>
      </trkpt>
      <trkpt lat="59.8731629" lon="17.6852364">
        <ele>23.6896</ele>
        <time>2013-06-02T19:14:25Z</time>
      </trkpt>
      <trkpt lat="59.8731981" lon="17.6853645">
        <ele>24.1703</ele>
        <time>2013-06-02T19:14:26Z</time>
      </trkpt>
      <trkpt lat="59.8732335" lon="17.6854922">
        <ele>24.1703</ele>
        <time>2013-06-02T19:14:27Z</time>
      </trkpt>
      <trkpt lat="59.8732691" lon="17.6856196">
        <ele>24.651</ele>
        <time>2013-06-02T19:14:28Z</time>
      </trkpt>
      <trkpt lat="59.873304" lon="17.6857469">
        <ele>25.1317</ele>
        <time>2013-06-02T19:14:29Z</time>
      </trkpt>
      <trkpt lat="59.8733392" lon="17.6858728">
        <ele>25.6123</ele>
        <time>2013-06-02T19:14:30Z</time>
      </trkpt>
      <trkpt lat="59.8733744" lon="17.6859976">
        <ele>25.6123</ele>
        <time>2013-06-02T19:14:31Z</time>
      </trkpt>
      <trkpt lat="59.8734086" lon="17.6861213">
        <ele>25.6123</ele>
        <time>2013-06-02T19:14:32Z</time>
      </trkpt>
      <trkpt lat="59.8734423" lon="17.6862451">
        <ele>25.6123</ele>
        <time>2013-06-02T19:14:33Z</time>
      </trkpt>
      <trkpt lat="59.8734764" lon="17.6863693">
        <ele>26.0929</ele>
        <time>2013-06-02T19:14:34Z</time>
      </trkpt>
      <trkpt lat="59.8735096" lon="17.6864939">
        <ele>26.0929</ele>
        <time>2013-06-02T19:14:35Z</time>
      </trkpt>
      <trkpt lat="59.8735402" lon="17.6866189">
        <ele>26.0929</ele>
        <time>2013-06-02T19:14:36Z</time>
      </trkpt>
      <trkpt lat="59.8735697" lon="17.6867457">
        <ele>26.0929</ele>
        <time>2013-06-02T19:14:37Z</time>
      </trkpt>
      <trkpt lat="59.8735988" lon="17.6868738">
        <ele>26.0929</ele>
        <time>2013-06-02T19:14:38Z</time>
      </trkpt>
      <trkpt lat="59.8736302" lon="17.6870015">
        <ele>26.5736</ele>
        <time>2013-06-02T19:14:39Z</time>
      </trkpt>
      <trkpt lat="59.8736623" lon="17.6871296">
        <ele>26.5736</ele>
        <time>2013-06-02T19:14:40Z</time>
      </trkpt>
      <trkpt lat="59.8736944" lon="17.6872578">
        <ele>26.5736</ele>
        <time>2013-06-02T19:14:41Z</time>
      </trkpt>
      <trkpt lat="59.8737267" lon="17.687386">
        <ele>26.5736</ele>
        <time>2013-06-02T19:14:42Z</time>
      </trkpt>
      <trkpt lat="59.8737596" lon="17.6875119">
        <ele>27.5349</ele>
        <time>2013-06-02T19:14:43Z</time>
      </trkpt>
      <trkpt lat="59.8737928" lon="17.6876332">
        <ele>27.5349</ele>
        <time>2013-06-02T19:14:44Z</time>
      </trkpt>
      <trkpt lat="59.8738276" lon="17.6877481">
        <ele>28.0155</ele>
        <time>2013-06-02T19:14:45Z</time>
      </trkpt>
      <trkpt lat="59.8738633" lon="17.6878645">
        <ele>28.4962</ele>
        <time>2013-06-02T19:14:46Z</time>
      </trkpt>
      <trkpt lat="59.8738987" lon="17.6879812">
        <ele>28.9769</ele>
        <time>2013-06-02T19:14:47Z</time>
      </trkpt>
      <trkpt lat="59.8739338" lon="17.6880988">
        <ele>29.4575</ele>
        <time>2013-06-02T19:14:48Z</time>
      </trkpt>
      <trkpt lat="59.8739686" lon="17.6882111">
        <ele>29.4575</ele>
        <time>2013-06-02T19:14:49Z</time>
      </trkpt>
      <trkpt lat="59.8740022" lon="17.6883251">
        <ele>29.9381</ele>
        <time>2013-06-02T19:14:50Z</time>
      </trkpt>
      <trkpt lat="59.8740345" lon="17.6884396">
        <ele>29.9381</ele>
        <time>2013-06-02T19:14:51Z</time>
      </trkpt>
      <trkpt lat="59.8740676" lon="17.6885553">
        <ele>30.4188</ele>
        <time>2013-06-02T19:14:52Z</time>
      </trkpt>
      <trkpt lat="59.8741012" lon="17.6886738">
        <ele>30.4188</ele>
        <time>2013-06-02T19:14:53Z</time>
      </trkpt>
      <trkpt lat="59.8741349" lon="17.6887974">
        <ele>30.8995</ele>
        <time>2013-06-02T19:14:54Z</time>
      </trkpt>
      <trkpt lat="59.8741686" lon="17.688922">
        <ele>30.8995</ele>
        <time>2013-06-02T19:14:55Z</time>
      </trkpt>
      <trkpt lat="59.8742027" lon="17.6890456">
        <ele>31.3801</ele>
        <time>2013-06-02T19:14:56Z</time>
      </trkpt>
      <trkpt lat="59.8742364" lon="17.6891701">
        <ele>31.3801</ele>
        <time>2013-06-02T19:14:57Z</time>
      </trkpt>
      <trkpt lat="59.8742692" lon="17.6892923">
        <ele>31.3801</ele>
        <time>2013-06-02T19:14:58Z</time>
      </trkpt>
      <trkpt lat="59.8743022" lon="17.6894145">
        <ele>31.8607</ele>
        <time>2013-06-02T19:14:59Z</time>
      </trkpt>
      <trkpt lat="59.8743354" lon="17.6895388">
        <ele>31.8607</ele>
        <time>2013-06-02T19:15:00Z</time>
      </trkpt>
      <trkpt lat="59.8743696" lon="17.6896647">
        <ele>31.8607</ele>
        <time>2013-06-02T19:15:01Z</time>
      </trkpt>
      <trkpt lat="59.8744049" lon="17.6897907">
        <ele>31.8607</ele>
        <time>2013-06-02T19:15:02Z</time>
      </trkpt>
      <trkpt lat="59.8744405" lon="17.6899192">
        <ele>31.8607</ele>
        <time>2013-06-02T19:15:03Z</time>
      </trkpt>
      <trkpt lat="59.8744757" lon="17.6900466">
        <ele>32.3416</ele>
        <time>2013-06-02T19:15:04Z</time>
      </trkpt>
      <trkpt lat="59.8745114" lon="17.6901733">
        <ele>32.3416</ele>
        <time>2013-06-02T19:15:05Z</time>
      </trkpt>
      <trkpt lat="59.8745493" lon="17.6902978">
        <ele>32.8223</ele>
        <time>2013-06-02T19:15:06Z</time>
      </trkpt>
      <trkpt lat="59.8745896" lon="17.6904208">
        <ele>32.8223</ele>
        <time>2013-06-02T19:15:07Z</time>
      </trkpt>
      <trkpt lat="59.8746314" lon="17.6905463">
        <ele>33.3029</ele>
        <time>2013-06-02T19:15:08Z</time>
      </trkpt>
      <trkpt lat="59.8746735" lon="17.6906689">
        <ele>33.3029</ele>
        <time>2013-06-02T19:15:09Z</time>
      </trkpt>
      <trkpt lat="59.8747152" lon="17.6907851">
        <ele>33.3029</ele>
        <time>2013-06-02T19:15:10Z</time>
      </trkpt>
      <trkpt lat="59.8747574" lon="17.6909008">
        <ele>33.3029</ele>
        <time>2013-06-02T19:15:11Z</time>
      </trkpt>
      <trkpt lat="59.8748008" lon="17.6910161">
        <ele>33.7834</ele>
        <time>2013-06-02T19:15:12Z</time>
      </trkpt>
      <trkpt lat="59.8748451" lon="17.6911287">
        <ele>33.7834</ele>
        <time>2013-06-02T19:15:13Z</time>
      </trkpt>
      <trkpt lat="59.8748902" lon="17.691243">
        <ele>34.2642</ele>
        <time>2013-06-02T19:15:14Z</time>
      </trkpt>
      <trkpt lat="59.8749352" lon="17.6913501">
        <ele>34.2642</ele>
        <time>2013-06-02T19:15:15Z</time>
      </trkpt>
      <trkpt lat="59.8749803" lon="17.6914534">
        <ele>34.2642</ele>
        <time>2013-06-02T19:15:16Z</time>
      </trkpt>
      <trkpt lat="59.8750259" lon="17.6915525">
        <ele>34.2642</ele>
        <time>2013-06-02T19:15:17Z</time>
      </trkpt>
      <trkpt lat="59.8750716" lon="17.6916587">
        <ele>33.7834</ele>
        <time>2013-06-02T19:15:18Z</time>
      </trkpt>
      <trkpt lat="59.8751184" lon="17.6917698">
        <ele>33.7834</ele>
        <time>2013-06-02T19:15:19Z</time>
      </trkpt>
      <trkpt lat="59.8751665" lon="17.6918916">
        <ele>33.7834</ele>
        <time>2013-06-02T19:15:20Z</time>
      </trkpt>
      <trkpt lat="59.8752137" lon="17.6920046">
        <ele>33.7834</ele>
        <time>2013-06-02T19:15:21Z</time>
      </trkpt>
      <trkpt lat="59.8752614" lon="17.6921158">
        <ele>33.7834</ele>
        <time>2013-06-02T19:15:22Z</time>
      </trkpt>
      <trkpt lat="59.8753101" lon="17.6922277">
        <ele>34.2642</ele>
        <time>2013-06-02T19:15:23Z</time>
      </trkpt>
      <trkpt lat="59.8753598" lon="17.6923385">
        <ele>34.2642</ele>
        <time>2013-06-02T19:15:24Z</time>
      </trkpt>
      <trkpt lat="59.8754103" lon="17.6924465">
        <ele>33.7834</ele>
        <time>2013-06-02T19:15:25Z</time>
      </trkpt>
      <trkpt lat="59.8754608" lon="17.692556">
        <ele>33.7834</ele>
        <time>2013-06-02T19:15:26Z</time>
      </trkpt>
      <trkpt lat="59.8755102" lon="17.6926685">
        <ele>33.3029</ele>
        <time>2013-06-02T19:15:27Z</time>
      </trkpt>
      <trkpt lat="59.8755587" lon="17.692781">
        <ele>33.3029</ele>
        <time>2013-06-02T19:15:28Z</time>
      </trkpt>
      <trkpt lat="59.8756076" lon="17.6928953">
        <ele>33.3029</ele>
        <time>2013-06-02T19:15:29Z</time>
      </trkpt>
      <trkpt lat="59.8756577" lon="17.6930131">
        <ele>32.8223</ele>
        <time>2013-06-02T19:15:30Z</time>
      </trkpt>
      <trkpt lat="59.8757096" lon="17.6931363">
        <ele>32.3416</ele>
        <time>2013-06-02T19:15:31Z</time>
      </trkpt>
      <trkpt lat="59.8757638" lon="17.6932643">
        <ele>31.8607</ele>
        <time>2013-06-02T19:15:32Z</time>
      </trkpt>
      <trkpt lat="59.8758196" lon="17.6933976">
        <ele>31.3801</ele>
        <time>2013-06-02T19:15:33Z</time>
      </trkpt>
      <trkpt lat="59.8758771" lon="17.6935374">
        <ele>30.8995</ele>
        <time>2013-06-02T19:15:34Z</time>
      </trkpt>
      <trkpt lat="59.8759366" lon="17.6936827">
        <ele>30.4188</ele>
        <time>2013-06-02T19:15:35Z</time>
      </trkpt>
      <trkpt lat="59.8759975" lon="17.6938333">
        <ele>29.9381</ele>
        <time>2013-06-02T19:15:36Z</time>
      </trkpt>
      <trkpt lat="59.8760586" lon="17.6939897">
        <ele>29.4575</ele>
        <time>2013-06-02T19:15:37Z</time>
      </trkpt>
      <trkpt lat="59.8761204" lon="17.694149">
        <ele>28.9769</ele>
        <time>2013-06-02T19:15:38Z</time>
      </trkpt>
      <trkpt lat="59.8761826" lon="17.6943112">
        <ele>28.0155</ele>
        <time>2013-06-02T19:15:39Z</time>
      </trkpt>
      <trkpt lat="59.8762427" lon="17.6944763">
        <ele>27.0543</ele>
        <time>2013-06-02T19:15:40Z</time>
      </trkpt>
      <trkpt lat="59.8763048" lon="17.6946481">
        <ele>26.0929</ele>
        <time>2013-06-02T19:15:41Z</time>
      </trkpt>
      <trkpt lat="59.8763658" lon="17.6948183">
        <ele>25.6123</ele>
        <time>2013-06-02T19:15:42Z</time>
      </trkpt>
      <trkpt lat="59.8764269" lon="17.6950028">
        <ele>24.1703</ele>
        <time>2013-06-02T19:15:43Z</time>
      </trkpt>
      <trkpt lat="59.8764814" lon="17.6951695">
        <ele>20.325</ele>
        <time>2013-06-02T19:15:44Z</time>
      </trkpt>
      <trkpt lat="59.8765405" lon="17.6953347">
        <ele>19.8444</ele>
        <time>2013-06-02T19:15:45Z</time>
      </trkpt>
      <trkpt lat="59.8766032" lon="17.6955077">
        <ele>19.3638</ele>
        <time>2013-06-02T19:15:46Z</time>
      </trkpt>
      <trkpt lat="59.8766574" lon="17.6956881">
        <ele>19.3638</ele>
        <time>2013-06-02T19:15:47Z</time>
      </trkpt>
      <trkpt lat="59.8767083" lon="17.6958663">
        <ele>18.8831</ele>
        <time>2013-06-02T19:15:48Z</time>
      </trkpt>
      <trkpt lat="59.8767568" lon="17.6960413">
        <ele>18.8831</ele>
        <time>2013-06-02T19:15:49Z</time>
      </trkpt>
      <trkpt lat="59.8768037" lon="17.6962034">
        <ele>19.3638</ele>
        <time>2013-06-02T19:15:50Z</time>
      </trkpt>
      <trkpt lat="59.8768472" lon="17.6963585">
        <ele>18.8831</ele>
        <time>2013-06-02T19:15:51Z</time>
      </trkpt>
      <trkpt lat="59.8768917" lon="17.6965059">
        <ele>18.8831</ele>
        <time>2013-06-02T19:15:52Z</time>
      </trkpt>
      <trkpt lat="59.8769363" lon="17.6966468">
        <ele>18.8831</ele>
        <time>2013-06-02T19:15:53Z</time>
      </trkpt>
      <trkpt lat="59.8769802" lon="17.6967843">
        <ele>18.8831</ele>
        <time>2013-06-02T19:15:54Z</time>
      </trkpt>
      <trkpt lat="59.8770215" lon="17.6969204">
        <ele>18.8831</ele>
        <time>2013-06-02T19:15:55Z</time>
      </trkpt>
      <trkpt lat="59.8770565" lon="17.6970573">
        <ele>18.8831</ele>
        <time>2013-06-02T19:15:56Z</time>
      </trkpt>
      <trkpt lat="59.8770873" lon="17.6971985">
        <ele>19.3638</ele>
        <time>2013-06-02T19:15:57Z</time>
      </trkpt>
      <trkpt lat="59.8771166" lon="17.6973373">
        <ele>19.3638</ele>
        <time>2013-06-02T19:15:58Z</time>
      </trkpt>
      <trkpt lat="59.8771476" lon="17.6974727">
        <ele>19.3638</ele>
        <time>2013-06-02T19:15:59Z</time>
      </trkpt>
      <trkpt lat="59.877179" lon="17.6976068">
        <ele>19.3638</ele>
        <time>2013-06-02T19:16:00Z</time>
      </trkpt>
      <trkpt lat="59.8772098" lon="17.697741">
        <ele>19.3638</ele>
        <time>2013-06-02T19:16:01Z</time>
      </trkpt>
      <trkpt lat="59.8772394" lon="17.6978736">
        <ele>18.8831</ele>
        <time>2013-06-02T19:16:02Z</time>
      </trkpt>
      <trkpt lat="59.8772699" lon="17.6980062">
        <ele>18.8831</ele>
        <time>2013-06-02T19:16:03Z</time>
      </trkpt>
      <trkpt lat="59.8773024" lon="17.6981388">
        <ele>18.8831</ele>
        <time>2013-06-02T19:16:04Z</time>
      </trkpt>
      <trkpt lat="59.8773358" lon="17.6982714">
        <ele>18.8831</ele>
        <time>2013-06-02T19:16:05Z</time>
      </trkpt>
      <trkpt lat="59.8773691" lon="17.6984021">
        <ele>18.4023</ele>
        <time>2013-06-02T19:16:06Z</time>
      </trkpt>
      <trkpt lat="59.877402" lon="17.6985299">
        <ele>18.4023</ele>
        <time>2013-06-02T19:16:07Z</time>
      </trkpt>
      <trkpt lat="59.8774358" lon="17.6986574">
        <ele>17.9218</ele>
        <time>2013-06-02T19:16:08Z</time>
      </trkpt>
      <trkpt lat="59.8774714" lon="17.6987874">
        <ele>17.4412</ele>
        <time>2013-06-02T19:16:09Z</time>
      </trkpt>
      <trkpt lat="59.8775078" lon="17.6989191">
        <ele>17.4412</ele>
        <time>2013-06-02T19:16:10Z</time>
      </trkpt>
      <trkpt lat="59.8775447" lon="17.6990526">
        <ele>16.9604</ele>
        <time>2013-06-02T19:16:11Z</time>
      </trkpt>
      <trkpt lat="59.8775822" lon="17.6991864">
        <ele>16.4797</ele>
        <time>2013-06-02T19:16:12Z</time>
      </trkpt>
      <trkpt lat="59.8776211" lon="17.6993193">
        <ele>16.4797</ele>
        <time>2013-06-02T19:16:13Z</time>
      </trkpt>
      <trkpt lat="59.8776613" lon="17.6994506">
        <ele>15.999</ele>
        <time>2013-06-02T19:16:14Z</time>
      </trkpt>
      <trkpt lat="59.8777023" lon="17.6995813">
        <ele>15.999</ele>
        <time>2013-06-02T19:16:15Z</time>
      </trkpt>
      <trkpt lat="59.8777428" lon="17.6997118">
        <ele>15.5184</ele>
        <time>2013-06-02T19:16:16Z</time>
      </trkpt>
      <trkpt lat="59.8777822" lon="17.6998417">
        <ele>15.5184</ele>
        <time>2013-06-02T19:16:17Z</time>
      </trkpt>
      <trkpt lat="59.8778216" lon="17.6999711">
        <ele>15.0377</ele>
        <time>2013-06-02T19:16:18Z</time>
      </trkpt>
      <trkpt lat="59.8778624" lon="17.7001">
        <ele>15.0377</ele>
        <time>2013-06-02T19:16:19Z</time>
      </trkpt>
      <trkpt lat="59.8779045" lon="17.7002273">
        <ele>14.557</ele>
        <time>2013-06-02T19:16:20Z</time>
      </trkpt>
      <trkpt lat="59.8779473" lon="17.7003522">
        <ele>14.557</ele>
        <time>2013-06-02T19:16:21Z</time>
      </trkpt>
      <trkpt lat="59.8779903" lon="17.7004775">
        <ele>14.557</ele>
        <time>2013-06-02T19:16:22Z</time>
      </trkpt>
      <trkpt lat="59.8780332" lon="17.700603">
        <ele>15.0377</ele>
        <time>2013-06-02T19:16:23Z</time>
      </trkpt>
      <trkpt lat="59.8780775" lon="17.700728">
        <ele>14.557</ele>
        <time>2013-06-02T19:16:24Z</time>
      </trkpt>
      <trkpt lat="59.8781235" lon="17.7008511">
        <ele>15.0377</ele>
        <time>2013-06-02T19:16:25Z</time>
      </trkpt>
      <trkpt lat="59.8781701" lon="17.7009727">
        <ele>15.0377</ele>
        <time>2013-06-02T19:16:26Z</time>
      </trkpt>
      <trkpt lat="59.8782184" lon="17.7010939">
        <ele>15.0377</ele>
        <time>2013-06-02T19:16:27Z</time>
      </trkpt>
      <trkpt lat="59.8782675" lon="17.7012132">
        <ele>14.557</ele>
        <time>2013-06-02T19:16:28Z</time>
      </trkpt>
      <trkpt lat="59.8783166" lon="17.7013324">
        <ele>15.0377</ele>
        <time>2013-06-02T19:16:29Z</time>
      </trkpt>
      <trkpt lat="59.8783648" lon="17.7014518">
        <ele>15.0377</ele>
        <time>2013-06-02T19:16:30Z</time>
      </trkpt>
      <trkpt lat="59.8784121" lon="17.7015725">
        <ele>15.5184</ele>
        <time>2013-06-02T19:16:31Z</time>
      </trkpt>
      <trkpt lat="59.8784582" lon="17.7016953">
        <ele>15.999</ele>
        <time>2013-06-02T19:16:32Z</time>
      </trkpt>
      <trkpt lat="59.8785027" lon="17.7018199">
        <ele>15.999</ele>
        <time>2013-06-02T19:16:33Z</time>
      </trkpt>
      <trkpt lat="59.8785446" lon="17.7019308">
        <ele>16.4797</ele>
        <time>2013-06-02T19:16:34Z</time>
      </trkpt>
      <trkpt lat="59.8785873" lon="17.7020486">
        <ele>16.9604</ele>
        <time>2013-06-02T19:16:35Z</time>
      </trkpt>
      <trkpt lat="59.8786303" lon="17.7021698">
        <ele>16.9604</ele>
        <time>2013-06-02T19:16:36Z</time>
      </trkpt>
      <trkpt lat="59.8786735" lon="17.7022938">
        <ele>17.4412</ele>
        <time>2013-06-02T19:16:37Z</time>
      </trkpt>
      <trkpt lat="59.8787161" lon="17.7024155">
        <ele>17.4412</ele>
        <time>2013-06-02T19:16:38Z</time>
      </trkpt>
      <trkpt lat="59.87876" lon="17.7025429">
        <ele>17.4412</ele>
        <time>2013-06-02T19:16:39Z</time>
      </trkpt>
      <trkpt lat="59.8788048" lon="17.70267">
        <ele>17.9218</ele>
        <time>2013-06-02T19:16:40Z</time>
      </trkpt>
      <trkpt lat="59.8788507" lon="17.7027962">
        <ele>17.9218</ele>
        <time>2013-06-02T19:16:41Z</time>
      </trkpt>
      <trkpt lat="59.8788962" lon="17.7029214">
        <ele>17.9218</ele>
        <time>2013-06-02T19:16:42Z</time>
      </trkpt>
      <trkpt lat="59.8789411" lon="17.7030471">
        <ele>18.4023</ele>
        <time>2013-06-02T19:16:43Z</time>
      </trkpt>
      <trkpt lat="59.8789872" lon="17.7031722">
        <ele>18.4023</ele>
        <time>2013-06-02T19:16:44Z</time>
      </trkpt>
      <trkpt lat="59.8790345" lon="17.7032956">
        <ele>18.4023</ele>
        <time>2013-06-02T19:16:45Z</time>
      </trkpt>
      <trkpt lat="59.8790813" lon="17.7034177">
        <ele>18.8831</ele>
        <time>2013-06-02T19:16:46Z</time>
      </trkpt>
      <trkpt lat="59.8791278" lon="17.7035391">
        <ele>18.8831</ele>
        <time>2013-06-02T19:16:47Z</time>
      </trkpt>
      <trkpt lat="59.8791741" lon="17.7036608">
        <ele>18.8831</ele>
        <time>2013-06-02T19:16:48Z</time>
      </trkpt>
      <trkpt lat="59.87922" lon="17.7037822">
        <ele>18.8831</ele>
        <time>2013-06-02T19:16:49Z</time>
      </trkpt>
      <trkpt lat="59.8792658" lon="17.7039048">
        <ele>18.8831</ele>
        <time>2013-06-02T19:16:50Z</time>
      </trkpt>
      <trkpt lat="59.8793117" lon="17.7040266">
        <ele>18.8831</ele>
        <time>2013-06-02T19:16:51Z</time>
      </trkpt>
      <trkpt lat="59.8793571" lon="17.7041479">
        <ele>18.8831</ele>
        <time>2013-06-02T19:16:52Z</time>
      </trkpt>
      <trkpt lat="59.8794008" lon="17.7042712">
        <ele>18.8831</ele>
        <time>2013-06-02T19:16:53Z</time>
      </trkpt>
      <trkpt lat="59.8794398" lon="17.7044016">
        <ele>19.3638</ele>
        <time>2013-06-02T19:16:54Z</time>
      </trkpt>
      <trkpt lat="59.8794776" lon="17.7045341">
        <ele>19.3638</ele>
        <time>2013-06-02T19:16:55Z</time>
      </trkpt>
      <trkpt lat="59.879518" lon="17.7046658">
        <ele>19.3638</ele>
        <time>2013-06-02T19:16:56Z</time>
      </trkpt>
      <trkpt lat="59.8795586" lon="17.7047943">
        <ele>19.3638</ele>
        <time>2013-06-02T19:16:57Z</time>
      </trkpt>
      <trkpt lat="59.8795989" lon="17.7049201">
        <ele>19.3638</ele>
        <time>2013-06-02T19:16:58Z</time>
      </trkpt>
      <trkpt lat="59.8796397" lon="17.7050448">
        <ele>19.3638</ele>
        <time>2013-06-02T19:16:59Z</time>
      </trkpt>
      <trkpt lat="59.8796797" lon="17.7051692">
        <ele>19.3638</ele>
        <time>2013-06-02T19:17:00Z</time>
      </trkpt>
      <trkpt lat="59.8797186" lon="17.7052956">
        <ele>19.8444</ele>
        <time>2013-06-02T19:17:01Z</time>
      </trkpt>
      <trkpt lat="59.8797574" lon="17.7054234">
        <ele>19.8444</ele>
        <time>2013-06-02T19:17:02Z</time>
      </trkpt>
      <trkpt lat="59.8797977" lon="17.7055527">
        <ele>19.8444</ele>
        <time>2013-06-02T19:17:03Z</time>
      </trkpt>
      <trkpt lat="59.8798378" lon="17.705682">
        <ele>19.8444</ele>
        <time>2013-06-02T19:17:04Z</time>
      </trkpt>
      <trkpt lat="59.8798769" lon="17.7058126">
        <ele>19.8444</ele>
        <time>2013-06-02T19:17:05Z</time>
      </trkpt>
      <trkpt lat="59.8799155" lon="17.7059441">
        <ele>20.325</ele>
        <time>2013-06-02T19:17:06Z</time>
      </trkpt>
      <trkpt lat="59.8799537" lon="17.7060748">
        <ele>19.8444</ele>
        <time>2013-06-02T19:17:07Z</time>
      </trkpt>
      <trkpt lat="59.879992" lon="17.7062072">
        <ele>19.8444</ele>
        <time>2013-06-02T19:17:08Z</time>
      </trkpt>
      <trkpt lat="59.8800297" lon="17.7063408">
        <ele>19.8444</ele>
        <time>2013-06-02T19:17:09Z</time>
      </trkpt>
      <trkpt lat="59.8800659" lon="17.7064752">
        <ele>20.325</ele>
        <time>2013-06-02T19:17:10Z</time>
      </trkpt>
      <trkpt lat="59.8801006" lon="17.7066109">
        <ele>20.325</ele>
        <time>2013-06-02T19:17:11Z</time>
      </trkpt>
      <trkpt lat="59.8801329" lon="17.7067487">
        <ele>19.8444</ele>
        <time>2013-06-02T19:17:12Z</time>
      </trkpt>
      <trkpt lat="59.8801646" lon="17.7068894">
        <ele>20.325</ele>
        <time>2013-06-02T19:17:13Z</time>
      </trkpt>
      <trkpt lat="59.8801955" lon="17.707032">
        <ele>20.325</ele>
        <time>2013-06-02T19:17:14Z</time>
      </trkpt>
      <trkpt lat="59.8802241" lon="17.7071753">
        <ele>20.325</ele>
        <time>2013-06-02T19:17:15Z</time>
      </trkpt>
      <trkpt lat="59.8802501" lon="17.7073189">
        <ele>20.325</ele>
        <time>2013-06-02T19:17:16Z</time>
      </trkpt>
      <trkpt lat="59.8802747" lon="17.7074634">
        <ele>20.325</ele>
        <time>2013-06-02T19:17:17Z</time>
      </trkpt>
      <trkpt lat="59.8802987" lon="17.7076091">
        <ele>20.325</ele>
        <time>2013-06-02T19:17:18Z</time>
      </trkpt>
      <trkpt lat="59.8803225" lon="17.7077552">
        <ele>19.8444</ele>
        <time>2013-06-02T19:17:19Z</time>
      </trkpt>
      <trkpt lat="59.8803463" lon="17.7079018">
        <ele>19.8444</ele>
        <time>2013-06-02T19:17:20Z</time>
      </trkpt>
      <trkpt lat="59.8803698" lon="17.7080483">
        <ele>19.8444</ele>
        <time>2013-06-02T19:17:21Z</time>
      </trkpt>
      <trkpt lat="59.8803966" lon="17.7081965">
        <ele>19.3638</ele>
        <time>2013-06-02T19:17:22Z</time>
      </trkpt>
      <trkpt lat="59.8804246" lon="17.7083405">
        <ele>19.3638</ele>
        <time>2013-06-02T19:17:23Z</time>
      </trkpt>
      <trkpt lat="59.8804537" lon="17.7084864">
        <ele>17.4412</ele>
        <time>2013-06-02T19:17:24Z</time>
      </trkpt>
      <trkpt lat="59.8804858" lon="17.708627">
        <ele>17.4412</ele>
        <time>2013-06-02T19:17:25Z</time>
      </trkpt>
      <trkpt lat="59.8805223" lon="17.7087626">
        <ele>17.9218</ele>
        <time>2013-06-02T19:17:26Z</time>
      </trkpt>
      <trkpt lat="59.8805599" lon="17.7088923">
        <ele>17.9218</ele>
        <time>2013-06-02T19:17:27Z</time>
      </trkpt>
      <trkpt lat="59.8805948" lon="17.7090073">
        <ele>16.9604</ele>
        <time>2013-06-02T19:17:28Z</time>
      </trkpt>
      <trkpt lat="59.8806369" lon="17.7091335">
        <ele>17.4412</ele>
        <time>2013-06-02T19:17:29Z</time>
      </trkpt>
      <trkpt lat="59.8806757" lon="17.7092476">
        <ele>16.9604</ele>
        <time>2013-06-02T19:17:30Z</time>
      </trkpt>
      <trkpt lat="59.8807219" lon="17.7093599">
        <ele>16.9604</ele>
        <time>2013-06-02T19:17:31Z</time>
      </trkpt>
      <trkpt lat="59.8807731" lon="17.7094698">
        <ele>16.9604</ele>
        <time>2013-06-02T19:17:32Z</time>
      </trkpt>
      <trkpt lat="59.8808238" lon="17.709575">
        <ele>16.9604</ele>
        <time>2013-06-02T19:17:33Z</time>
      </trkpt>
      <trkpt lat="59.8808757" lon="17.7096744">
        <ele>17.4412</ele>
        <time>2013-06-02T19:17:34Z</time>
      </trkpt>
      <trkpt lat="59.8809213" lon="17.7097765">
        <ele>15.0377</ele>
        <time>2013-06-02T19:17:35Z</time>
      </trkpt>
      <trkpt lat="59.8809689" lon="17.7098986">
        <ele>15.5184</ele>
        <time>2013-06-02T19:17:36Z</time>
      </trkpt>
      <trkpt lat="59.8810094" lon="17.7100318">
        <ele>15.999</ele>
        <time>2013-06-02T19:17:37Z</time>
      </trkpt>
      <trkpt lat="59.8810437" lon="17.7101557">
        <ele>15.999</ele>
        <time>2013-06-02T19:17:38Z</time>
      </trkpt>
      <trkpt lat="59.8810791" lon="17.710279">
        <ele>15.999</ele>
        <time>2013-06-02T19:17:39Z</time>
      </trkpt>
      <trkpt lat="59.8811176" lon="17.710411">
        <ele>16.4797</ele>
        <time>2013-06-02T19:17:40Z</time>
      </trkpt>
      <trkpt lat="59.8811566" lon="17.7105416">
        <ele>15.0377</ele>
        <time>2013-06-02T19:17:41Z</time>
      </trkpt>
      <trkpt lat="59.8811989" lon="17.7106679">
        <ele>15.0377</ele>
        <time>2013-06-02T19:17:42Z</time>
      </trkpt>
      <trkpt lat="59.8812426" lon="17.7107901">
        <ele>14.557</ele>
        <time>2013-06-02T19:17:43Z</time>
      </trkpt>
      <trkpt lat="59.8812881" lon="17.7109119">
        <ele>14.557</ele>
        <time>2013-06-02T19:17:44Z</time>
      </trkpt>
      <trkpt lat="59.881336" lon="17.7110341">
        <ele>14.0764</ele>
        <time>2013-06-02T19:17:45Z</time>
      </trkpt>
      <trkpt lat="59.8813835" lon="17.7111573">
        <ele>14.0764</ele>
        <time>2013-06-02T19:17:46Z</time>
      </trkpt>
      <trkpt lat="59.8814303" lon="17.7112839">
        <ele>14.557</ele>
        <time>2013-06-02T19:17:47Z</time>
      </trkpt>
      <trkpt lat="59.881476" lon="17.7114116">
        <ele>14.557</ele>
        <time>2013-06-02T19:17:48Z</time>
      </trkpt>
      <trkpt lat="59.8815194" lon="17.7115424">
        <ele>14.557</ele>
        <time>2013-06-02T19:17:49Z</time>
      </trkpt>
      <trkpt lat="59.881558" lon="17.7116765">
        <ele>15.0377</ele>
        <time>2013-06-02T19:17:50Z</time>
      </trkpt>
      <trkpt lat="59.8815914" lon="17.7118141">
        <ele>15.0377</ele>
        <time>2013-06-02T19:17:51Z</time>
      </trkpt>
      <trkpt lat="59.8816197" lon="17.7119545">
        <ele>15.5184</ele>
        <time>2013-06-02T19:17:52Z</time>
      </trkpt>
      <trkpt lat="59.8816451" lon="17.7120975">
        <ele>15.5184</ele>
        <time>2013-06-02T19:17:53Z</time>
      </trkpt>
      <trkpt lat="59.8816684" lon="17.7122416">
        <ele>15.999</ele>
        <time>2013-06-02T19:17:54Z</time>
      </trkpt>
      <trkpt lat="59.8816904" lon="17.7123871">
        <ele>15.999</ele>
        <time>2013-06-02T19:17:55Z</time>
      </trkpt>
      <trkpt lat="59.8817108" lon="17.7125336">
        <ele>15.999</ele>
        <time>2013-06-02T19:17:56Z</time>
      </trkpt>
      <trkpt lat="59.8817305" lon="17.7126794">
        <ele>16.4797</ele>
        <time>2013-06-02T19:17:57Z</time>
      </trkpt>
      <trkpt lat="59.8817513" lon="17.7128238">
        <ele>16.4797</ele>
        <time>2013-06-02T19:17:58Z</time>
      </trkpt>
      <trkpt lat="59.8817728" lon="17.7129687">
        <ele>16.4797</ele>
        <time>2013-06-02T19:17:59Z</time>
      </trkpt>
      <trkpt lat="59.8817931" lon="17.7131136">
        <ele>16.4797</ele>
        <time>2013-06-02T19:18:00Z</time>
      </trkpt>
      <trkpt lat="59.8818128" lon="17.713257">
        <ele>16.4797</ele>
        <time>2013-06-02T19:18:01Z</time>
      </trkpt>
      <trkpt lat="59.8818321" lon="17.7134">
        <ele>16.9604</ele>
        <time>2013-06-02T19:18:02Z</time>
      </trkpt>
      <trkpt lat="59.8818506" lon="17.7135412">
        <ele>16.9604</ele>
        <time>2013-06-02T19:18:03Z</time>
      </trkpt>
      <trkpt lat="59.8818688" lon="17.7136792">
        <ele>16.9604</ele>
        <time>2013-06-02T19:18:04Z</time>
      </trkpt>
      <trkpt lat="59.8818879" lon="17.7138122">
        <ele>16.4797</ele>
        <time>2013-06-02T19:18:05Z</time>
      </trkpt>
      <trkpt lat="59.8819072" lon="17.7139421">
        <ele>16.4797</ele>
        <time>2013-06-02T19:18:06Z</time>
      </trkpt>
      <trkpt lat="59.8819267" lon="17.7140723">
        <ele>16.4797</ele>
        <time>2013-06-02T19:18:07Z</time>
      </trkpt>
      <trkpt lat="59.8819469" lon="17.7142034">
        <ele>16.4797</ele>
        <time>2013-06-02T19:18:08Z</time>
      </trkpt>
      <trkpt lat="59.8819687" lon="17.7143339">
        <ele>16.4797</ele>
        <time>2013-06-02T19:18:09Z</time>
      </trkpt>
      <trkpt lat="59.8819918" lon="17.7144643">
        <ele>15.999</ele>
        <time>2013-06-02T19:18:10Z</time>
      </trkpt>
      <trkpt lat="59.8820142" lon="17.7145976">
        <ele>15.999</ele>
        <time>2013-06-02T19:18:11Z</time>
      </trkpt>
      <trkpt lat="59.8820357" lon="17.7147333">
        <ele>15.999</ele>
        <time>2013-06-02T19:18:12Z</time>
      </trkpt>
      <trkpt lat="59.8820562" lon="17.7148716">
        <ele>15.999</ele>
        <time>2013-06-02T19:18:13Z</time>
      </trkpt>
      <trkpt lat="59.8820724" lon="17.7150125">
        <ele>15.999</ele>
        <time>2013-06-02T19:18:14Z</time>
      </trkpt>
      <trkpt lat="59.8820864" lon="17.715156">
        <ele>15.999</ele>
        <time>2013-06-02T19:18:15Z</time>
      </trkpt>
      <trkpt lat="59.8821019" lon="17.7153011">
        <ele>15.5184</ele>
        <time>2013-06-02T19:18:16Z</time>
      </trkpt>
      <trkpt lat="59.88212" lon="17.7154454">
        <ele>15.5184</ele>
        <time>2013-06-02T19:18:17Z</time>
      </trkpt>
      <trkpt lat="59.8821397" lon="17.7155891">
        <ele>15.5184</ele>
        <time>2013-06-02T19:18:18Z</time>
      </trkpt>
      <trkpt lat="59.8821605" lon="17.7157321">
        <ele>15.5184</ele>
        <time>2013-06-02T19:18:19Z</time>
      </trkpt>
      <trkpt lat="59.8821826" lon="17.7158753">
        <ele>15.5184</ele>
        <time>2013-06-02T19:18:20Z</time>
      </trkpt>
      <trkpt lat="59.8822049" lon="17.7160195">
        <ele>15.0377</ele>
        <time>2013-06-02T19:18:21Z</time>
      </trkpt>
      <trkpt lat="59.8822268" lon="17.7161657">
        <ele>15.0377</ele>
        <time>2013-06-02T19:18:22Z</time>
      </trkpt>
      <trkpt lat="59.8822489" lon="17.7163132">
        <ele>15.5184</ele>
        <time>2013-06-02T19:18:23Z</time>
      </trkpt>
      <trkpt lat="59.88227" lon="17.7164622">
        <ele>15.5184</ele>
        <time>2013-06-02T19:18:24Z</time>
      </trkpt>
      <trkpt lat="59.8822893" lon="17.7166132">
        <ele>15.5184</ele>
        <time>2013-06-02T19:18:25Z</time>
      </trkpt>
      <trkpt lat="59.8823061" lon="17.7167666">
        <ele>15.5184</ele>
        <time>2013-06-02T19:18:26Z</time>
      </trkpt>
      <trkpt lat="59.8823219" lon="17.7169217">
        <ele>15.5184</ele>
        <time>2013-06-02T19:18:27Z</time>
      </trkpt>
      <trkpt lat="59.8823363" lon="17.7170798">
        <ele>15.5184</ele>
        <time>2013-06-02T19:18:28Z</time>
      </trkpt>
      <trkpt lat="59.8823486" lon="17.7172378">
        <ele>15.999</ele>
        <time>2013-06-02T19:18:29Z</time>
      </trkpt>
      <trkpt lat="59.8823599" lon="17.7173988">
        <ele>16.4797</ele>
        <time>2013-06-02T19:18:30Z</time>
      </trkpt>
      <trkpt lat="59.8823707" lon="17.7175578">
        <ele>16.9604</ele>
        <time>2013-06-02T19:18:31Z</time>
      </trkpt>
      <trkpt lat="59.8823784" lon="17.7177154">
        <ele>17.4412</ele>
        <time>2013-06-02T19:18:32Z</time>
      </trkpt>
      <trkpt lat="59.8823562" lon="17.7178842">
        <ele>17.9218</ele>
        <time>2013-06-02T19:18:33Z</time>
      </trkpt>
      <trkpt lat="59.8823017" lon="17.7180266">
        <ele>18.4023</ele>
        <time>2013-06-02T19:18:34Z</time>
      </trkpt>
      <trkpt lat="59.8822393" lon="17.718086">
        <ele>18.8831</ele>
        <time>2013-06-02T19:18:35Z</time>
      </trkpt>
      <trkpt lat="59.8821662" lon="17.7181093">
        <ele>18.8831</ele>
        <time>2013-06-02T19:18:36Z</time>
      </trkpt>
      <trkpt lat="59.8820892" lon="17.7181111">
        <ele>19.3638</ele>
        <time>2013-06-02T19:18:37Z</time>
      </trkpt>
      <trkpt lat="59.8820119" lon="17.7181137">
        <ele>19.3638</ele>
        <time>2013-06-02T19:18:38Z</time>
      </trkpt>
      <trkpt lat="59.8819349" lon="17.7181221">
        <ele>19.3638</ele>
        <time>2013-06-02T19:18:39Z</time>
      </trkpt>
      <trkpt lat="59.8818574" lon="17.7181355">
        <ele>19.3638</ele>
        <time>2013-06-02T19:18:40Z</time>
      </trkpt>
      <trkpt lat="59.88178" lon="17.7181526">
        <ele>19.3638</ele>
        <time>2013-06-02T19:18:41Z</time>
      </trkpt>
      <trkpt lat="59.8817012" lon="17.7181708">
        <ele>19.8444</ele>
        <time>2013-06-02T19:18:42Z</time>
      </trkpt>
      <trkpt lat="59.8816221" lon="17.7181888">
        <ele>19.8444</ele>
        <time>2013-06-02T19:18:43Z</time>
      </trkpt>
      <trkpt lat="59.8815374" lon="17.718196">
        <ele>19.8444</ele>
        <time>2013-06-02T19:18:44Z</time>
      </trkpt>
      <trkpt lat="59.8814563" lon="17.71821">
        <ele>19.8444</ele>
        <time>2013-06-02T19:18:45Z</time>
      </trkpt>
      <trkpt lat="59.8813754" lon="17.7182252">
        <ele>20.325</ele>
        <time>2013-06-02T19:18:46Z</time>
      </trkpt>
      <trkpt lat="59.8812946" lon="17.7182423">
        <ele>20.325</ele>
        <time>2013-06-02T19:18:47Z</time>
      </trkpt>
      <trkpt lat="59.8812138" lon="17.7182626">
        <ele>20.325</ele>
        <time>2013-06-02T19:18:48Z</time>
      </trkpt>
      <trkpt lat="59.881133" lon="17.7182843">
        <ele>20.325</ele>
        <time>2013-06-02T19:18:49Z</time>
      </trkpt>
      <trkpt lat="59.8810519" lon="17.7183058">
        <ele>20.325</ele>
        <time>2013-06-02T19:18:50Z</time>
      </trkpt>
      <trkpt lat="59.8809705" lon="17.7183267">
        <ele>20.325</ele>
        <time>2013-06-02T19:18:51Z</time>
      </trkpt>
      <trkpt lat="59.8808883" lon="17.718348">
        <ele>20.325</ele>
        <time>2013-06-02T19:18:52Z</time>
      </trkpt>
      <trkpt lat="59.8808058" lon="17.7183672">
        <ele>20.325</ele>
        <time>2013-06-02T19:18:53Z</time>
      </trkpt>
      <trkpt lat="59.8807225" lon="17.7183873">
        <ele>20.8057</ele>
        <time>2013-06-02T19:18:54Z</time>
      </trkpt>
      <trkpt lat="59.8806378" lon="17.7184138">
        <ele>20.325</ele>
        <time>2013-06-02T19:18:55Z</time>
      </trkpt>
      <trkpt lat="59.8805526" lon="17.7184428">
        <ele>20.8057</ele>
        <time>2013-06-02T19:18:56Z</time>
      </trkpt>
      <trkpt lat="59.8804676" lon="17.7184712">
        <ele>20.8057</ele>
        <time>2013-06-02T19:18:57Z</time>
      </trkpt>
      <trkpt lat="59.8803829" lon="17.7184961">
        <ele>20.8057</ele>
        <time>2013-06-02T19:18:58Z</time>
      </trkpt>
      <trkpt lat="59.8802978" lon="17.7185194">
        <ele>20.8057</ele>
        <time>2013-06-02T19:18:59Z</time>
      </trkpt>
      <trkpt lat="59.8802133" lon="17.7185427">
        <ele>20.8057</ele>
        <time>2013-06-02T19:19:00Z</time>
      </trkpt>
      <trkpt lat="59.8801298" lon="17.7185692">
        <ele>21.2864</ele>
        <time>2013-06-02T19:19:01Z</time>
      </trkpt>
      <trkpt lat="59.8800469" lon="17.7185977">
        <ele>20.8057</ele>
        <time>2013-06-02T19:19:02Z</time>
      </trkpt>
      <trkpt lat="59.8799621" lon="17.7186302">
        <ele>21.2864</ele>
        <time>2013-06-02T19:19:03Z</time>
      </trkpt>
      <trkpt lat="59.8798791" lon="17.7186553">
        <ele>21.2864</ele>
        <time>2013-06-02T19:19:04Z</time>
      </trkpt>
      <trkpt lat="59.8797962" lon="17.71868">
        <ele>21.2864</ele>
        <time>2013-06-02T19:19:05Z</time>
      </trkpt>
      <trkpt lat="59.8797128" lon="17.718707">
        <ele>21.767</ele>
        <time>2013-06-02T19:19:06Z</time>
      </trkpt>
      <trkpt lat="59.8796288" lon="17.7187378">
        <ele>21.767</ele>
        <time>2013-06-02T19:19:07Z</time>
      </trkpt>
      <trkpt lat="59.8795451" lon="17.7187671">
        <ele>21.767</ele>
        <time>2013-06-02T19:19:08Z</time>
      </trkpt>
      <trkpt lat="59.8794626" lon="17.718796">
        <ele>21.767</ele>
        <time>2013-06-02T19:19:09Z</time>
      </trkpt>
      <trkpt lat="59.8793801" lon="17.7188261">
        <ele>21.2864</ele>
        <time>2013-06-02T19:19:10Z</time>
      </trkpt>
      <trkpt lat="59.8792973" lon="17.7188582">
        <ele>21.2864</ele>
        <time>2013-06-02T19:19:11Z</time>
      </trkpt>
      <trkpt lat="59.8792138" lon="17.7188922">
        <ele>21.767</ele>
        <time>2013-06-02T19:19:12Z</time>
      </trkpt>
      <trkpt lat="59.8791301" lon="17.718926">
        <ele>21.767</ele>
        <time>2013-06-02T19:19:13Z</time>
      </trkpt>
      <trkpt lat="59.8790464" lon="17.7189613">
        <ele>21.767</ele>
        <time>2013-06-02T19:19:14Z</time>
      </trkpt>
      <trkpt lat="59.8789613" lon="17.7189977">
        <ele>21.767</ele>
        <time>2013-06-02T19:19:15Z</time>
      </trkpt>
      <trkpt lat="59.8788753" lon="17.719031">
        <ele>21.767</ele>
        <time>2013-06-02T19:19:16Z</time>
      </trkpt>
      <trkpt lat="59.8787883" lon="17.7190561">
        <ele>21.767</ele>
        <time>2013-06-02T19:19:17Z</time>
      </trkpt>
      <trkpt lat="59.8787012" lon="17.7190675">
        <ele>21.767</ele>
        <time>2013-06-02T19:19:18Z</time>
      </trkpt>
      <trkpt lat="59.8786132" lon="17.7190659">
        <ele>21.767</ele>
        <time>2013-06-02T19:19:19Z</time>
      </trkpt>
      <trkpt lat="59.8785249" lon="17.7190602">
        <ele>21.767</ele>
        <time>2013-06-02T19:19:20Z</time>
      </trkpt>
      <trkpt lat="59.8784359" lon="17.7190586">
        <ele>21.2864</ele>
        <time>2013-06-02T19:19:21Z</time>
      </trkpt>
      <trkpt lat="59.8783473" lon="17.7190683">
        <ele>21.2864</ele>
        <time>2013-06-02T19:19:22Z</time>
      </trkpt>
      <trkpt lat="59.8782573" lon="17.7190928">
        <ele>20.8057</ele>
        <time>2013-06-02T19:19:23Z</time>
      </trkpt>
      <trkpt lat="59.8781677" lon="17.7191447">
        <ele>20.325</ele>
        <time>2013-06-02T19:19:24Z</time>
      </trkpt>
      <trkpt lat="59.8780811" lon="17.7192194">
        <ele>20.8057</ele>
        <time>2013-06-02T19:19:25Z</time>
      </trkpt>
      <trkpt lat="59.8779972" lon="17.7193083">
        <ele>20.8057</ele>
        <time>2013-06-02T19:19:26Z</time>
      </trkpt>
      <trkpt lat="59.8779153" lon="17.719405">
        <ele>20.8057</ele>
        <time>2013-06-02T19:19:27Z</time>
      </trkpt>
      <trkpt lat="59.877835" lon="17.7195056">
        <ele>20.8057</ele>
        <time>2013-06-02T19:19:28Z</time>
      </trkpt>
      <trkpt lat="59.8777552" lon="17.7196083">
        <ele>20.8057</ele>
        <time>2013-06-02T19:19:29Z</time>
      </trkpt>
      <trkpt lat="59.8776744" lon="17.7197088">
        <ele>20.8057</ele>
        <time>2013-06-02T19:19:30Z</time>
      </trkpt>
      <trkpt lat="59.8775916" lon="17.7198014">
        <ele>20.8057</ele>
        <time>2013-06-02T19:19:31Z</time>
      </trkpt>
      <trkpt lat="59.8775075" lon="17.7198863">
        <ele>20.8057</ele>
        <time>2013-06-02T19:19:32Z</time>
      </trkpt>
      <trkpt lat="59.877422" lon="17.7199662">
        <ele>20.8057</ele>
        <time>2013-06-02T19:19:33Z</time>
      </trkpt>
      <trkpt lat="59.8773356" lon="17.7200414">
        <ele>21.2864</ele>
        <time>2013-06-02T19:19:34Z</time>
      </trkpt>
      <trkpt lat="59.8772487" lon="17.7201096">
        <ele>21.2864</ele>
        <time>2013-06-02T19:19:35Z</time>
      </trkpt>
      <trkpt lat="59.8771609" lon="17.7201735">
        <ele>21.2864</ele>
        <time>2013-06-02T19:19:36Z</time>
      </trkpt>
      <trkpt lat="59.8770723" lon="17.7202351">
        <ele>21.2864</ele>
        <time>2013-06-02T19:19:37Z</time>
      </trkpt>
      <trkpt lat="59.8769829" lon="17.720295">
        <ele>21.2864</ele>
        <time>2013-06-02T19:19:38Z</time>
      </trkpt>
      <trkpt lat="59.8768936" lon="17.720353">
        <ele>21.2864</ele>
        <time>2013-06-02T19:19:39Z</time>
      </trkpt>
      <trkpt lat="59.8768055" lon="17.7204159">
        <ele>21.767</ele>
        <time>2013-06-02T19:19:40Z</time>
      </trkpt>
      <trkpt lat="59.8767188" lon="17.7204848">
        <ele>21.767</ele>
        <time>2013-06-02T19:19:41Z</time>
      </trkpt>
      <trkpt lat="59.8766342" lon="17.720564">
        <ele>21.767</ele>
        <time>2013-06-02T19:19:42Z</time>
      </trkpt>
      <trkpt lat="59.8765522" lon="17.7206519">
        <ele>21.767</ele>
        <time>2013-06-02T19:19:43Z</time>
      </trkpt>
      <trkpt lat="59.8764727" lon="17.7207509">
        <ele>21.767</ele>
        <time>2013-06-02T19:19:44Z</time>
      </trkpt>
      <trkpt lat="59.8763951" lon="17.7208577">
        <ele>21.2864</ele>
        <time>2013-06-02T19:19:45Z</time>
      </trkpt>
      <trkpt lat="59.8763186" lon="17.7209665">
        <ele>21.2864</ele>
        <time>2013-06-02T19:19:46Z</time>
      </trkpt>
      <trkpt lat="59.8762416" lon="17.7210713">
        <ele>21.2864</ele>
        <time>2013-06-02T19:19:47Z</time>
      </trkpt>
      <trkpt lat="59.8761628" lon="17.7211717">
        <ele>21.2864</ele>
        <time>2013-06-02T19:19:48Z</time>
      </trkpt>
      <trkpt lat="59.8760826" lon="17.7212655">
        <ele>21.767</ele>
        <time>2013-06-02T19:19:49Z</time>
      </trkpt>
      <trkpt lat="59.8760027" lon="17.721357">
        <ele>21.767</ele>
        <time>2013-06-02T19:19:50Z</time>
      </trkpt>
      <trkpt lat="59.8759225" lon="17.7214444">
        <ele>21.767</ele>
        <time>2013-06-02T19:19:51Z</time>
      </trkpt>
      <trkpt lat="59.8758421" lon="17.7215315">
        <ele>22.2476</ele>
        <time>2013-06-02T19:19:52Z</time>
      </trkpt>
      <trkpt lat="59.875762" lon="17.7216176">
        <ele>22.7283</ele>
        <time>2013-06-02T19:19:53Z</time>
      </trkpt>
      <trkpt lat="59.8756816" lon="17.7216984">
        <ele>23.209</ele>
        <time>2013-06-02T19:19:54Z</time>
      </trkpt>
      <trkpt lat="59.8756024" lon="17.7217807">
        <ele>23.6896</ele>
        <time>2013-06-02T19:19:55Z</time>
      </trkpt>
      <trkpt lat="59.8755252" lon="17.7218668">
        <ele>24.1703</ele>
        <time>2013-06-02T19:19:56Z</time>
      </trkpt>
      <trkpt lat="59.8754496" lon="17.7219523">
        <ele>24.651</ele>
        <time>2013-06-02T19:19:57Z</time>
      </trkpt>
      <trkpt lat="59.8753745" lon="17.7220386">
        <ele>25.1317</ele>
        <time>2013-06-02T19:19:58Z</time>
      </trkpt>
      <trkpt lat="59.8752999" lon="17.7221261">
        <ele>26.0929</ele>
        <time>2013-06-02T19:19:59Z</time>
      </trkpt>
      <trkpt lat="59.8752258" lon="17.7222132">
        <ele>26.5736</ele>
        <time>2013-06-02T19:20:00Z</time>
      </trkpt>
      <trkpt lat="59.8751541" lon="17.7223036">
        <ele>27.0543</ele>
        <time>2013-06-02T19:20:01Z</time>
      </trkpt>
      <trkpt lat="59.8750818" lon="17.7223906">
        <ele>28.0155</ele>
        <time>2013-06-02T19:20:02Z</time>
      </trkpt>
      <trkpt lat="59.8750088" lon="17.7224773">
        <ele>28.4962</ele>
        <time>2013-06-02T19:20:03Z</time>
      </trkpt>
      <trkpt lat="59.8749361" lon="17.7225666">
        <ele>28.9769</ele>
        <time>2013-06-02T19:20:04Z</time>
      </trkpt>
      <trkpt lat="59.8748635" lon="17.7226589">
        <ele>29.9381</ele>
        <time>2013-06-02T19:20:05Z</time>
      </trkpt>
      <trkpt lat="59.8747912" lon="17.7227529">
        <ele>30.4188</ele>
        <time>2013-06-02T19:20:06Z</time>
      </trkpt>
      <trkpt lat="59.8747191" lon="17.722847">
        <ele>30.8995</ele>
        <time>2013-06-02T19:20:07Z</time>
      </trkpt>
      <trkpt lat="59.8746455" lon="17.7229406">
        <ele>30.8995</ele>
        <time>2013-06-02T19:20:08Z</time>
      </trkpt>
      <trkpt lat="59.8745715" lon="17.7230329">
        <ele>31.3801</ele>
        <time>2013-06-02T19:20:09Z</time>
      </trkpt>
      <trkpt lat="59.8744974" lon="17.723124">
        <ele>31.3801</ele>
        <time>2013-06-02T19:20:10Z</time>
      </trkpt>
      <trkpt lat="59.8744212" lon="17.7232191">
        <ele>30.4188</ele>
        <time>2013-06-02T19:20:11Z</time>
      </trkpt>
      <trkpt lat="59.8743462" lon="17.7233084">
        <ele>30.8995</ele>
        <time>2013-06-02T19:20:12Z</time>
      </trkpt>
      <trkpt lat="59.8742721" lon="17.7233966">
        <ele>30.8995</ele>
        <time>2013-06-02T19:20:13Z</time>
      </trkpt>
      <trkpt lat="59.8741985" lon="17.7234861">
        <ele>31.3801</ele>
        <time>2013-06-02T19:20:14Z</time>
      </trkpt>
      <trkpt lat="59.874125" lon="17.7235752">
        <ele>31.8607</ele>
        <time>2013-06-02T19:20:15Z</time>
      </trkpt>
      <trkpt lat="59.8740523" lon="17.7236627">
        <ele>31.8607</ele>
        <time>2013-06-02T19:20:16Z</time>
      </trkpt>
      <trkpt lat="59.8739814" lon="17.7237424">
        <ele>32.3416</ele>
        <time>2013-06-02T19:20:17Z</time>
      </trkpt>
      <trkpt lat="59.8739121" lon="17.7238192">
        <ele>32.8223</ele>
        <time>2013-06-02T19:20:18Z</time>
      </trkpt>
      <trkpt lat="59.8738447" lon="17.7238917">
        <ele>33.3029</ele>
        <time>2013-06-02T19:20:19Z</time>
      </trkpt>
      <trkpt lat="59.8737795" lon="17.7239604">
        <ele>33.3029</ele>
        <time>2013-06-02T19:20:20Z</time>
      </trkpt>
      <trkpt lat="59.8737168" lon="17.7240303">
        <ele>33.7834</ele>
        <time>2013-06-02T19:20:21Z</time>
      </trkpt>
      <trkpt lat="59.8736548" lon="17.7240987">
        <ele>33.3029</ele>
        <time>2013-06-02T19:20:22Z</time>
      </trkpt>
      <trkpt lat="59.8735905" lon="17.7241715">
        <ele>31.3801</ele>
        <time>2013-06-02T19:20:23Z</time>
      </trkpt>
      <trkpt lat="59.8735262" lon="17.7242398">
        <ele>30.8995</ele>
        <time>2013-06-02T19:20:24Z</time>
      </trkpt>
      <trkpt lat="59.8734572" lon="17.7243217">
        <ele>28.0155</ele>
        <time>2013-06-02T19:20:25Z</time>
      </trkpt>
      <trkpt lat="59.8733885" lon="17.7244051">
        <ele>25.6123</ele>
        <time>2013-06-02T19:20:26Z</time>
      </trkpt>
      <trkpt lat="59.8733195" lon="17.7244849">
        <ele>23.6896</ele>
        <time>2013-06-02T19:20:27Z</time>
      </trkpt>
      <trkpt lat="59.8732516" lon="17.7245584">
        <ele>23.6896</ele>
        <time>2013-06-02T19:20:28Z</time>
      </trkpt>
      <trkpt lat="59.8731849" lon="17.724634">
        <ele>23.6896</ele>
        <time>2013-06-02T19:20:29Z</time>
      </trkpt>
      <trkpt lat="59.8731211" lon="17.7247136">
        <ele>23.209</ele>
        <time>2013-06-02T19:20:30Z</time>
      </trkpt>
      <trkpt lat="59.8730621" lon="17.7248127">
        <ele>21.2864</ele>
        <time>2013-06-02T19:20:31Z</time>
      </trkpt>
      <trkpt lat="59.8730194" lon="17.7249345">
        <ele>19.8444</ele>
        <time>2013-06-02T19:20:32Z</time>
      </trkpt>
      <trkpt lat="59.8730013" lon="17.725068">
        <ele>19.3638</ele>
        <time>2013-06-02T19:20:33Z</time>
      </trkpt>
      <trkpt lat="59.8730085" lon="17.7252032">
        <ele>19.3638</ele>
        <time>2013-06-02T19:20:34Z</time>
      </trkpt>
      <trkpt lat="59.8730305" lon="17.7253332">
        <ele>18.8831</ele>
        <time>2013-06-02T19:20:35Z</time>
      </trkpt>
      <trkpt lat="59.8730577" lon="17.7254604">
        <ele>18.8831</ele>
        <time>2013-06-02T19:20:36Z</time>
      </trkpt>
      <trkpt lat="59.8730858" lon="17.7255871">
        <ele>18.4023</ele>
        <time>2013-06-02T19:20:37Z</time>
      </trkpt>
      <trkpt lat="59.8731129" lon="17.7257163">
        <ele>18.4023</ele>
        <time>2013-06-02T19:20:38Z</time>
      </trkpt>
      <trkpt lat="59.8731393" lon="17.7258461">
        <ele>18.4023</ele>
        <time>2013-06-02T19:20:39Z</time>
      </trkpt>
      <trkpt lat="59.8731647" lon="17.7259752">
        <ele>18.4023</ele>
        <time>2013-06-02T19:20:40Z</time>
      </trkpt>
      <trkpt lat="59.8731891" lon="17.7261008">
        <ele>17.9218</ele>
        <time>2013-06-02T19:20:41Z</time>
      </trkpt>
      <trkpt lat="59.8732144" lon="17.7262273">
        <ele>17.4412</ele>
        <time>2013-06-02T19:20:42Z</time>
      </trkpt>
      <trkpt lat="59.8732433" lon="17.7263555">
        <ele>17.4412</ele>
        <time>2013-06-02T19:20:43Z</time>
      </trkpt>
      <trkpt lat="59.8732745" lon="17.726479">
        <ele>16.9604</ele>
        <time>2013-06-02T19:20:44Z</time>
      </trkpt>
      <trkpt lat="59.8733024" lon="17.7266049">
        <ele>16.9604</ele>
        <time>2013-06-02T19:20:45Z</time>
      </trkpt>
      <trkpt lat="59.8733261" lon="17.7267352">
        <ele>16.4797</ele>
        <time>2013-06-02T19:20:46Z</time>
      </trkpt>
      <trkpt lat="59.8733453" lon="17.7268685">
        <ele>15.999</ele>
        <time>2013-06-02T19:20:47Z</time>
      </trkpt>
      <trkpt lat="59.8733614" lon="17.7270048">
        <ele>15.999</ele>
        <time>2013-06-02T19:20:48Z</time>
      </trkpt>
      <trkpt lat="59.8733746" lon="17.7271436">
        <ele>15.999</ele>
        <time>2013-06-02T19:20:49Z</time>
      </trkpt>
      <trkpt lat="59.8733858" lon="17.7272831">
        <ele>15.999</ele>
        <time>2013-06-02T19:20:50Z</time>
      </trkpt>
      <trkpt lat="59.8733956" lon="17.7274228">
        <ele>15.999</ele>
        <time>2013-06-02T19:20:51Z</time>
      </trkpt>
      <trkpt lat="59.8734069" lon="17.7275621">
        <ele>15.999</ele>
        <time>2013-06-02T19:20:52Z</time>
      </trkpt>
      <trkpt lat="59.8734221" lon="17.7276994">
        <ele>15.999</ele>
        <time>2013-06-02T19:20:53Z</time>
      </trkpt>
      <trkpt lat="59.8734407" lon="17.7278352">
        <ele>15.999</ele>
        <time>2013-06-02T19:20:54Z</time>
      </trkpt>
      <trkpt lat="59.8734616" lon="17.7279685">
        <ele>15.999</ele>
        <time>2013-06-02T19:20:55Z</time>
      </trkpt>
      <trkpt lat="59.8734852" lon="17.7281034">
        <ele>15.999</ele>
        <time>2013-06-02T19:20:56Z</time>
      </trkpt>
      <trkpt lat="59.8735107" lon="17.7282419">
        <ele>15.5184</ele>
        <time>2013-06-02T19:20:57Z</time>
      </trkpt>
      <trkpt lat="59.873537" lon="17.7283833">
        <ele>15.5184</ele>
        <time>2013-06-02T19:20:58Z</time>
      </trkpt>
      <trkpt lat="59.8735626" lon="17.7285268">
        <ele>15.5184</ele>
        <time>2013-06-02T19:20:59Z</time>
      </trkpt>
      <trkpt lat="59.8735883" lon="17.7286719">
        <ele>15.5184</ele>
        <time>2013-06-02T19:21:00Z</time>
      </trkpt>
      <trkpt lat="59.8736151" lon="17.7288184">
        <ele>15.5184</ele>
        <time>2013-06-02T19:21:01Z</time>
      </trkpt>
      <trkpt lat="59.8736428" lon="17.7289649">
        <ele>15.0377</ele>
        <time>2013-06-02T19:21:02Z</time>
      </trkpt>
      <trkpt lat="59.8736693" lon="17.7291107">
        <ele>15.0377</ele>
        <time>2013-06-02T19:21:03Z</time>
      </trkpt>
      <trkpt lat="59.8736941" lon="17.7292558">
        <ele>15.0377</ele>
        <time>2013-06-02T19:21:04Z</time>
      </trkpt>
      <trkpt lat="59.8737184" lon="17.7293996">
        <ele>15.0377</ele>
        <time>2013-06-02T19:21:05Z</time>
      </trkpt>
      <trkpt lat="59.8737428" lon="17.7295411">
        <ele>15.0377</ele>
        <time>2013-06-02T19:21:06Z</time>
      </trkpt>
      <trkpt lat="59.8737664" lon="17.7296801">
        <ele>15.0377</ele>
        <time>2013-06-02T19:21:07Z</time>
      </trkpt>
      <trkpt lat="59.8737902" lon="17.7298168">
        <ele>15.0377</ele>
        <time>2013-06-02T19:21:08Z</time>
      </trkpt>
      <trkpt lat="59.8738142" lon="17.7299515">
        <ele>15.5184</ele>
        <time>2013-06-02T19:21:09Z</time>
      </trkpt>
      <trkpt lat="59.873837" lon="17.7300852">
        <ele>15.5184</ele>
        <time>2013-06-02T19:21:10Z</time>
      </trkpt>
      <trkpt lat="59.8738598" lon="17.7302174">
        <ele>15.5184</ele>
        <time>2013-06-02T19:21:11Z</time>
      </trkpt>
      <trkpt lat="59.8738829" lon="17.7303472">
        <ele>15.5184</ele>
        <time>2013-06-02T19:21:12Z</time>
      </trkpt>
      <trkpt lat="59.8739042" lon="17.7304749">
        <ele>15.5184</ele>
        <time>2013-06-02T19:21:13Z</time>
      </trkpt>
      <trkpt lat="59.873923" lon="17.7306016">
        <ele>15.999</ele>
        <time>2013-06-02T19:21:14Z</time>
      </trkpt>
      <trkpt lat="59.8739411" lon="17.7307275">
        <ele>15.999</ele>
        <time>2013-06-02T19:21:15Z</time>
      </trkpt>
      <trkpt lat="59.8739602" lon="17.7308521">
        <ele>15.999</ele>
        <time>2013-06-02T19:21:16Z</time>
      </trkpt>
      <trkpt lat="59.8739808" lon="17.7309753">
        <ele>15.999</ele>
        <time>2013-06-02T19:21:17Z</time>
      </trkpt>
      <trkpt lat="59.8740017" lon="17.7310983">
        <ele>15.999</ele>
        <time>2013-06-02T19:21:18Z</time>
      </trkpt>
      <trkpt lat="59.8740209" lon="17.7312226">
        <ele>15.999</ele>
        <time>2013-06-02T19:21:19Z</time>
      </trkpt>
      <trkpt lat="59.8740391" lon="17.7313483">
        <ele>15.999</ele>
        <time>2013-06-02T19:21:20Z</time>
      </trkpt>
      <trkpt lat="59.8740582" lon="17.7314736">
        <ele>15.999</ele>
        <time>2013-06-02T19:21:21Z</time>
      </trkpt>
      <trkpt lat="59.8740772" lon="17.7315998">
        <ele>15.5184</ele>
        <time>2013-06-02T19:21:22Z</time>
      </trkpt>
      <trkpt lat="59.8740955" lon="17.7317269">
        <ele>15.5184</ele>
        <time>2013-06-02T19:21:23Z</time>
      </trkpt>
      <trkpt lat="59.8741138" lon="17.7318551">
        <ele>15.5184</ele>
        <time>2013-06-02T19:21:24Z</time>
      </trkpt>
      <trkpt lat="59.8741318" lon="17.7319852">
        <ele>15.5184</ele>
        <time>2013-06-02T19:21:25Z</time>
      </trkpt>
      <trkpt lat="59.874152" lon="17.7321166">
        <ele>15.5184</ele>
        <time>2013-06-02T19:21:26Z</time>
      </trkpt>
      <trkpt lat="59.8741785" lon="17.7322467">
        <ele>15.5184</ele>
        <time>2013-06-02T19:21:27Z</time>
      </trkpt>
      <trkpt lat="59.8742116" lon="17.7323752">
        <ele>15.0377</ele>
        <time>2013-06-02T19:21:28Z</time>
      </trkpt>
      <trkpt lat="59.8742488" lon="17.7325016">
        <ele>15.0377</ele>
        <time>2013-06-02T19:21:29Z</time>
      </trkpt>
      <trkpt lat="59.8742904" lon="17.7326272">
        <ele>15.0377</ele>
        <time>2013-06-02T19:21:30Z</time>
      </trkpt>
      <trkpt lat="59.8743343" lon="17.7327526">
        <ele>15.0377</ele>
        <time>2013-06-02T19:21:31Z</time>
      </trkpt>
      <trkpt lat="59.8743788" lon="17.7328786">
        <ele>15.0377</ele>
        <time>2013-06-02T19:21:32Z</time>
      </trkpt>
      <trkpt lat="59.8744229" lon="17.7330055">
        <ele>15.0377</ele>
        <time>2013-06-02T19:21:33Z</time>
      </trkpt>
      <trkpt lat="59.874466" lon="17.733132">
        <ele>15.5184</ele>
        <time>2013-06-02T19:21:34Z</time>
      </trkpt>
      <trkpt lat="59.8745094" lon="17.7332584">
        <ele>15.5184</ele>
        <time>2013-06-02T19:21:35Z</time>
      </trkpt>
      <trkpt lat="59.8745524" lon="17.733384">
        <ele>15.999</ele>
        <time>2013-06-02T19:21:36Z</time>
      </trkpt>
      <trkpt lat="59.8745947" lon="17.7335085">
        <ele>15.999</ele>
        <time>2013-06-02T19:21:37Z</time>
      </trkpt>
      <trkpt lat="59.8746368" lon="17.7336308">
        <ele>15.999</ele>
        <time>2013-06-02T19:21:38Z</time>
      </trkpt>
      <trkpt lat="59.8746796" lon="17.7337506">
        <ele>16.4797</ele>
        <time>2013-06-02T19:21:39Z</time>
      </trkpt>
      <trkpt lat="59.8747227" lon="17.7338695">
        <ele>16.9604</ele>
        <time>2013-06-02T19:21:40Z</time>
      </trkpt>
      <trkpt lat="59.8747648" lon="17.7339884">
        <ele>16.9604</ele>
        <time>2013-06-02T19:21:41Z</time>
      </trkpt>
      <trkpt lat="59.8748058" lon="17.7341075">
        <ele>17.4412</ele>
        <time>2013-06-02T19:21:42Z</time>
      </trkpt>
      <trkpt lat="59.8748469" lon="17.7342261">
        <ele>17.4412</ele>
        <time>2013-06-02T19:21:43Z</time>
      </trkpt>
      <trkpt lat="59.8748876" lon="17.7343457">
        <ele>17.9218</ele>
        <time>2013-06-02T19:21:44Z</time>
      </trkpt>
      <trkpt lat="59.874928" lon="17.7344641">
        <ele>17.9218</ele>
        <time>2013-06-02T19:21:45Z</time>
      </trkpt>
      <trkpt lat="59.8749689" lon="17.7345801">
        <ele>18.4023</ele>
        <time>2013-06-02T19:21:46Z</time>
      </trkpt>
      <trkpt lat="59.8750094" lon="17.7346962">
        <ele>18.4023</ele>
        <time>2013-06-02T19:21:47Z</time>
      </trkpt>
      <trkpt lat="59.8750493" lon="17.7348127">
        <ele>18.8831</ele>
        <time>2013-06-02T19:21:48Z</time>
      </trkpt>
      <trkpt lat="59.8750884" lon="17.7349304">
        <ele>18.8831</ele>
        <time>2013-06-02T19:21:49Z</time>
      </trkpt>
      <trkpt lat="59.8751267" lon="17.7350485">
        <ele>19.3638</ele>
        <time>2013-06-02T19:21:50Z</time>
      </trkpt>
      <trkpt lat="59.8751642" lon="17.7351667">
        <ele>19.3638</ele>
        <time>2013-06-02T19:21:51Z</time>
      </trkpt>
      <trkpt lat="59.8751999" lon="17.7352853">
        <ele>19.3638</ele>
        <time>2013-06-02T19:21:52Z</time>
      </trkpt>
      <trkpt lat="59.8752331" lon="17.735405">
        <ele>19.8444</ele>
        <time>2013-06-02T19:21:53Z</time>
      </trkpt>
      <trkpt lat="59.8752653" lon="17.7355257">
        <ele>19.8444</ele>
        <time>2013-06-02T19:21:54Z</time>
      </trkpt>
      <trkpt lat="59.8752961" lon="17.7356469">
        <ele>19.8444</ele>
        <time>2013-06-02T19:21:55Z</time>
      </trkpt>
      <trkpt lat="59.8753253" lon="17.7357702">
        <ele>20.325</ele>
        <time>2013-06-02T19:21:56Z</time>
      </trkpt>
      <trkpt lat="59.8753526" lon="17.7358954">
        <ele>20.325</ele>
        <time>2013-06-02T19:21:57Z</time>
      </trkpt>
      <trkpt lat="59.8753781" lon="17.7360214">
        <ele>20.325</ele>
        <time>2013-06-02T19:21:58Z</time>
      </trkpt>
      <trkpt lat="59.8754034" lon="17.7361464">
        <ele>20.8057</ele>
        <time>2013-06-02T19:21:59Z</time>
      </trkpt>
      <trkpt lat="59.8754272" lon="17.7362707">
        <ele>20.8057</ele>
        <time>2013-06-02T19:22:00Z</time>
      </trkpt>
      <trkpt lat="59.8754486" lon="17.7363964">
        <ele>21.2864</ele>
        <time>2013-06-02T19:22:01Z</time>
      </trkpt>
      <trkpt lat="59.8754687" lon="17.7365234">
        <ele>21.2864</ele>
        <time>2013-06-02T19:22:02Z</time>
      </trkpt>
      <trkpt lat="59.875489" lon="17.7366518">
        <ele>21.767</ele>
        <time>2013-06-02T19:22:03Z</time>
      </trkpt>
      <trkpt lat="59.8755087" lon="17.7367819">
        <ele>21.767</ele>
        <time>2013-06-02T19:22:04Z</time>
      </trkpt>
      <trkpt lat="59.8755268" lon="17.7369135">
        <ele>22.2476</ele>
        <time>2013-06-02T19:22:05Z</time>
      </trkpt>
      <trkpt lat="59.8755435" lon="17.7370455">
        <ele>22.2476</ele>
        <time>2013-06-02T19:22:06Z</time>
      </trkpt>
      <trkpt lat="59.875559" lon="17.7371769">
        <ele>22.2476</ele>
        <time>2013-06-02T19:22:07Z</time>
      </trkpt>
      <trkpt lat="59.8755745" lon="17.7373069">
        <ele>22.7283</ele>
        <time>2013-06-02T19:22:08Z</time>
      </trkpt>
      <trkpt lat="59.8755889" lon="17.7374362">
        <ele>22.7283</ele>
        <time>2013-06-02T19:22:09Z</time>
      </trkpt>
      <trkpt lat="59.8756018" lon="17.737566">
        <ele>23.209</ele>
        <time>2013-06-02T19:22:10Z</time>
      </trkpt>
      <trkpt lat="59.8756128" lon="17.7376956">
        <ele>23.209</ele>
        <time>2013-06-02T19:22:11Z</time>
      </trkpt>
      <trkpt lat="59.8756234" lon="17.7378239">
        <ele>22.7283</ele>
        <time>2013-06-02T19:22:12Z</time>
      </trkpt>
      <trkpt lat="59.8756331" lon="17.7379479">
        <ele>22.7283</ele>
        <time>2013-06-02T19:22:13Z</time>
      </trkpt>
      <trkpt lat="59.8756413" lon="17.7380659">
        <ele>22.7283</ele>
        <time>2013-06-02T19:22:14Z</time>
      </trkpt>
      <trkpt lat="59.8756458" lon="17.7381879">
        <ele>20.8057</ele>
        <time>2013-06-02T19:22:15Z</time>
      </trkpt>
      <trkpt lat="59.8756486" lon="17.738314">
        <ele>19.8444</ele>
        <time>2013-06-02T19:22:16Z</time>
      </trkpt>
      <trkpt lat="59.8756506" lon="17.7384374">
        <ele>18.4023</ele>
        <time>2013-06-02T19:22:17Z</time>
      </trkpt>
      <trkpt lat="59.8756468" lon="17.7385453">
        <ele>17.9218</ele>
        <time>2013-06-02T19:22:18Z</time>
      </trkpt>
      <trkpt lat="59.8756381" lon="17.7386487">
        <ele>15.999</ele>
        <time>2013-06-02T19:22:19Z</time>
      </trkpt>
      <trkpt lat="59.8756247" lon="17.7387403">
        <ele>14.557</ele>
        <time>2013-06-02T19:22:20Z</time>
      </trkpt>
      <trkpt lat="59.8756095" lon="17.7388342">
        <ele>13.5958</ele>
        <time>2013-06-02T19:22:21Z</time>
      </trkpt>
      <trkpt lat="59.8755931" lon="17.7389373">
        <ele>13.1151</ele>
        <time>2013-06-02T19:22:22Z</time>
      </trkpt>
      <trkpt lat="59.8755709" lon="17.7390316">
        <ele>11.6732</ele>
        <time>2013-06-02T19:22:23Z</time>
      </trkpt>
      <trkpt lat="59.8755458" lon="17.7391212">
        <ele>10.7118</ele>
        <time>2013-06-02T19:22:24Z</time>
      </trkpt>
      <trkpt lat="59.8755179" lon="17.739202">
        <ele>9.2699</ele>
        <time>2013-06-02T19:22:25Z</time>
      </trkpt>
      <trkpt lat="59.8754877" lon="17.7392792">
        <ele>6.86646</ele>
        <time>2013-06-02T19:22:26Z</time>
      </trkpt>
      <trkpt lat="59.8754615" lon="17.7393546">
        <ele>5.42456</ele>
        <time>2013-06-02T19:22:27Z</time>
      </trkpt>
      <trkpt lat="59.8754424" lon="17.7394401">
        <ele>5.42456</ele>
        <time>2013-06-02T19:22:28Z</time>
      </trkpt>
      <trkpt lat="59.8754285" lon="17.7395285">
        <ele>5.90527</ele>
        <time>2013-06-02T19:22:29Z</time>
      </trkpt>
      <trkpt lat="59.8754168" lon="17.7396127">
        <ele>5.90527</ele>
        <time>2013-06-02T19:22:30Z</time>
      </trkpt>
      <trkpt lat="59.8754086" lon="17.7396971">
        <ele>6.38586</ele>
        <time>2013-06-02T19:22:31Z</time>
      </trkpt>
      <trkpt lat="59.8753937" lon="17.7397769">
        <ele>6.86646</ele>
        <time>2013-06-02T19:22:32Z</time>
      </trkpt>
      <trkpt lat="59.8753858" lon="17.739855">
        <ele>9.75061</ele>
        <time>2013-06-02T19:22:33Z</time>
      </trkpt>
      <trkpt lat="59.8753812" lon="17.7399427">
        <ele>11.1925</ele>
        <time>2013-06-02T19:22:34Z</time>
      </trkpt>
      <trkpt lat="59.8753745" lon="17.7400289">
        <ele>12.6344</ele>
        <time>2013-06-02T19:22:35Z</time>
      </trkpt>
      <trkpt lat="59.8753652" lon="17.7401169">
        <ele>13.5958</ele>
        <time>2013-06-02T19:22:36Z</time>
      </trkpt>
      <trkpt lat="59.8753553" lon="17.740206">
        <ele>14.557</ele>
        <time>2013-06-02T19:22:37Z</time>
      </trkpt>
      <trkpt lat="59.8753429" lon="17.7402894">
        <ele>15.5184</ele>
        <time>2013-06-02T19:22:38Z</time>
      </trkpt>
      <trkpt lat="59.8753289" lon="17.7403725">
        <ele>15.999</ele>
        <time>2013-06-02T19:22:39Z</time>
      </trkpt>
      <trkpt lat="59.8753168" lon="17.7404597">
        <ele>16.9604</ele>
        <time>2013-06-02T19:22:40Z</time>
      </trkpt>
      <trkpt lat="59.8753019" lon="17.7405488">
        <ele>17.4412</ele>
        <time>2013-06-02T19:22:41Z</time>
      </trkpt>
      <trkpt lat="59.8752869" lon="17.7406416">
        <ele>17.4412</ele>
        <time>2013-06-02T19:22:42Z</time>
      </trkpt>
      <trkpt lat="59.875273" lon="17.7407353">
        <ele>19.3638</ele>
        <time>2013-06-02T19:22:43Z</time>
      </trkpt>
      <trkpt lat="59.8752523" lon="17.7408295">
        <ele>19.8444</ele>
        <time>2013-06-02T19:22:44Z</time>
      </trkpt>
      <trkpt lat="59.8752297" lon="17.7409247">
        <ele>19.8444</ele>
        <time>2013-06-02T19:22:45Z</time>
      </trkpt>
      <trkpt lat="59.8752064" lon="17.7410229">
        <ele>20.325</ele>
        <time>2013-06-02T19:22:46Z</time>
      </trkpt>
      <trkpt lat="59.8751833" lon="17.7411239">
        <ele>20.325</ele>
        <time>2013-06-02T19:22:47Z</time>
      </trkpt>
      <trkpt lat="59.8751595" lon="17.7412222">
        <ele>20.325</ele>
        <time>2013-06-02T19:22:48Z</time>
      </trkpt>
      <trkpt lat="59.8751371" lon="17.7413247">
        <ele>20.8057</ele>
        <time>2013-06-02T19:22:49Z</time>
      </trkpt>
      <trkpt lat="59.8751122" lon="17.741427">
        <ele>20.8057</ele>
        <time>2013-06-02T19:22:50Z</time>
      </trkpt>
      <trkpt lat="59.8750844" lon="17.7415274">
        <ele>20.8057</ele>
        <time>2013-06-02T19:22:51Z</time>
      </trkpt>
      <trkpt lat="59.8750573" lon="17.7416288">
        <ele>21.2864</ele>
        <time>2013-06-02T19:22:52Z</time>
      </trkpt>
      <trkpt lat="59.8750304" lon="17.741732">
        <ele>21.2864</ele>
        <time>2013-06-02T19:22:53Z</time>
      </trkpt>
      <trkpt lat="59.875002" lon="17.7418361">
        <ele>21.767</ele>
        <time>2013-06-02T19:22:54Z</time>
      </trkpt>
      <trkpt lat="59.8749782" lon="17.7419582">
        <ele>23.209</ele>
        <time>2013-06-02T19:22:55Z</time>
      </trkpt>
      <trkpt lat="59.874956" lon="17.7420716">
        <ele>24.651</ele>
        <time>2013-06-02T19:22:56Z</time>
      </trkpt>
      <trkpt lat="59.8749331" lon="17.742183">
        <ele>25.6123</ele>
        <time>2013-06-02T19:22:57Z</time>
      </trkpt>
      <trkpt lat="59.8749061" lon="17.7422861">
        <ele>26.0929</ele>
        <time>2013-06-02T19:22:58Z</time>
      </trkpt>
      <trkpt lat="59.8748814" lon="17.742399">
        <ele>26.0929</ele>
        <time>2013-06-02T19:22:59Z</time>
      </trkpt>
      <trkpt lat="59.874855" lon="17.7425054">
        <ele>26.0929</ele>
        <time>2013-06-02T19:23:00Z</time>
      </trkpt>
      <trkpt lat="59.874829" lon="17.7426079">
        <ele>26.0929</ele>
        <time>2013-06-02T19:23:01Z</time>
      </trkpt>
      <trkpt lat="59.8748112" lon="17.7427141">
        <ele>27.5349</ele>
        <time>2013-06-02T19:23:02Z</time>
      </trkpt>
      <trkpt lat="59.8747897" lon="17.7428118">
        <ele>27.5349</ele>
        <time>2013-06-02T19:23:03Z</time>
      </trkpt>
      <trkpt lat="59.8747663" lon="17.7429052">
        <ele>28.0155</ele>
        <time>2013-06-02T19:23:04Z</time>
      </trkpt>
      <trkpt lat="59.8747449" lon="17.7430045">
        <ele>27.0543</ele>
        <time>2013-06-02T19:23:05Z</time>
      </trkpt>
      <trkpt lat="59.8747265" lon="17.7430976">
        <ele>27.0543</ele>
        <time>2013-06-02T19:23:06Z</time>
      </trkpt>
      <trkpt lat="59.8747126" lon="17.7431927">
        <ele>27.0543</ele>
        <time>2013-06-02T19:23:07Z</time>
      </trkpt>
      <trkpt lat="59.8746931" lon="17.7432884">
        <ele>27.5349</ele>
        <time>2013-06-02T19:23:08Z</time>
      </trkpt>
      <trkpt lat="59.8746717" lon="17.7433861">
        <ele>27.5349</ele>
        <time>2013-06-02T19:23:09Z</time>
      </trkpt>
      <trkpt lat="59.8746513" lon="17.7434863">
        <ele>28.0155</ele>
        <time>2013-06-02T19:23:10Z</time>
      </trkpt>
      <trkpt lat="59.874633" lon="17.7435917">
        <ele>28.0155</ele>
        <time>2013-06-02T19:23:11Z</time>
      </trkpt>
      <trkpt lat="59.8746131" lon="17.7436962">
        <ele>27.0543</ele>
        <time>2013-06-02T19:23:12Z</time>
      </trkpt>
      <trkpt lat="59.8745927" lon="17.7437994">
        <ele>27.0543</ele>
        <time>2013-06-02T19:23:13Z</time>
      </trkpt>
      <trkpt lat="59.8745646" lon="17.7439005">
        <ele>26.5736</ele>
        <time>2013-06-02T19:23:14Z</time>
      </trkpt>
      <trkpt lat="59.8745339" lon="17.743997">
        <ele>24.651</ele>
        <time>2013-06-02T19:23:15Z</time>
      </trkpt>
      <trkpt lat="59.8745102" lon="17.7441008">
        <ele>24.651</ele>
        <time>2013-06-02T19:23:16Z</time>
      </trkpt>
      <trkpt lat="59.8744804" lon="17.7441999">
        <ele>24.651</ele>
        <time>2013-06-02T19:23:17Z</time>
      </trkpt>
      <trkpt lat="59.8744531" lon="17.7443049">
        <ele>24.651</ele>
        <time>2013-06-02T19:23:18Z</time>
      </trkpt>
      <trkpt lat="59.8744316" lon="17.7444112">
        <ele>24.651</ele>
        <time>2013-06-02T19:23:19Z</time>
      </trkpt>
      <trkpt lat="59.8744173" lon="17.7445203">
        <ele>25.1317</ele>
        <time>2013-06-02T19:23:20Z</time>
      </trkpt>
      <trkpt lat="59.8744056" lon="17.7446349">
        <ele>25.1317</ele>
        <time>2013-06-02T19:23:21Z</time>
      </trkpt>
      <trkpt lat="59.8744083" lon="17.744764">
        <ele>24.1703</ele>
        <time>2013-06-02T19:23:22Z</time>
      </trkpt>
      <trkpt lat="59.8744306" lon="17.7449036">
        <ele>23.209</ele>
        <time>2013-06-02T19:23:23Z</time>
      </trkpt>
      <trkpt lat="59.8744681" lon="17.7450457">
        <ele>23.6896</ele>
        <time>2013-06-02T19:23:24Z</time>
      </trkpt>
      <trkpt lat="59.8745181" lon="17.7451658">
        <ele>22.7283</ele>
        <time>2013-06-02T19:23:25Z</time>
      </trkpt>
      <trkpt lat="59.8745803" lon="17.7452762">
        <ele>22.2476</ele>
        <time>2013-06-02T19:23:26Z</time>
      </trkpt>
      <trkpt lat="59.8746524" lon="17.7453761">
        <ele>22.7283</ele>
        <time>2013-06-02T19:23:27Z</time>
      </trkpt>
      <trkpt lat="59.8747218" lon="17.7454788">
        <ele>23.6896</ele>
        <time>2013-06-02T19:23:28Z</time>
      </trkpt>
      <trkpt lat="59.8747911" lon="17.7455707">
        <ele>23.6896</ele>
        <time>2013-06-02T19:23:29Z</time>
      </trkpt>
      <trkpt lat="59.8748557" lon="17.7456673">
        <ele>24.1703</ele>
        <time>2013-06-02T19:23:30Z</time>
      </trkpt>
      <trkpt lat="59.8749184" lon="17.7457612">
        <ele>24.1703</ele>
        <time>2013-06-02T19:23:31Z</time>
      </trkpt>
      <trkpt lat="59.8749785" lon="17.7458655">
        <ele>24.1703</ele>
        <time>2013-06-02T19:23:32Z</time>
      </trkpt>
      <trkpt lat="59.8750341" lon="17.7459936">
        <ele>24.651</ele>
        <time>2013-06-02T19:23:33Z</time>
      </trkpt>
      <trkpt lat="59.8750802" lon="17.7461356">
        <ele>24.1703</ele>
        <time>2013-06-02T19:23:34Z</time>
      </trkpt>
      <trkpt lat="59.8751216" lon="17.7462712">
        <ele>22.2476</ele>
        <time>2013-06-02T19:23:35Z</time>
      </trkpt>
      <trkpt lat="59.8751634" lon="17.7464009">
        <ele>20.8057</ele>
        <time>2013-06-02T19:23:36Z</time>
      </trkpt>
      <trkpt lat="59.8752076" lon="17.7465333">
        <ele>20.325</ele>
        <time>2013-06-02T19:23:37Z</time>
      </trkpt>
      <trkpt lat="59.8752497" lon="17.7466676">
        <ele>20.325</ele>
        <time>2013-06-02T19:23:38Z</time>
      </trkpt>
      <trkpt lat="59.8752922" lon="17.7468059">
        <ele>20.325</ele>
        <time>2013-06-02T19:23:39Z</time>
      </trkpt>
      <trkpt lat="59.875333" lon="17.7469456">
        <ele>20.325</ele>
        <time>2013-06-02T19:23:40Z</time>
      </trkpt>
      <trkpt lat="59.8753751" lon="17.7470882">
        <ele>20.8057</ele>
        <time>2013-06-02T19:23:41Z</time>
      </trkpt>
      <trkpt lat="59.8754147" lon="17.7472256">
        <ele>20.325</ele>
        <time>2013-06-02T19:23:42Z</time>
      </trkpt>
      <trkpt lat="59.8754563" lon="17.7473477">
        <ele>18.4023</ele>
        <time>2013-06-02T19:23:43Z</time>
      </trkpt>
      <trkpt lat="59.8754999" lon="17.7474833">
        <ele>18.4023</ele>
        <time>2013-06-02T19:23:44Z</time>
      </trkpt>
      <trkpt lat="59.8755442" lon="17.7476366">
        <ele>19.8444</ele>
        <time>2013-06-02T19:23:45Z</time>
      </trkpt>
      <trkpt lat="59.8755775" lon="17.7477778">
        <ele>19.8444</ele>
        <time>2013-06-02T19:23:46Z</time>
      </trkpt>
      <trkpt lat="59.8756091" lon="17.7479207">
        <ele>19.8444</ele>
        <time>2013-06-02T19:23:47Z</time>
      </trkpt>
      <trkpt lat="59.8756405" lon="17.7480575">
        <ele>19.3638</ele>
        <time>2013-06-02T19:23:48Z</time>
      </trkpt>
      <trkpt lat="59.8756744" lon="17.7481945">
        <ele>20.325</ele>
        <time>2013-06-02T19:23:49Z</time>
      </trkpt>
      <trkpt lat="59.8757055" lon="17.7483284">
        <ele>20.8057</ele>
        <time>2013-06-02T19:23:50Z</time>
      </trkpt>
      <trkpt lat="59.8757371" lon="17.7484567">
        <ele>20.8057</ele>
        <time>2013-06-02T19:23:51Z</time>
      </trkpt>
      <trkpt lat="59.8757713" lon="17.7485879">
        <ele>20.8057</ele>
        <time>2013-06-02T19:23:52Z</time>
      </trkpt>
      <trkpt lat="59.8758055" lon="17.7487241">
        <ele>20.8057</ele>
        <time>2013-06-02T19:23:53Z</time>
      </trkpt>
      <trkpt lat="59.8758407" lon="17.7488612">
        <ele>20.8057</ele>
        <time>2013-06-02T19:23:54Z</time>
      </trkpt>
      <trkpt lat="59.875877" lon="17.7490038">
        <ele>20.8057</ele>
        <time>2013-06-02T19:23:55Z</time>
      </trkpt>
      <trkpt lat="59.8759132" lon="17.7491508">
        <ele>21.767</ele>
        <time>2013-06-02T19:23:56Z</time>
      </trkpt>
      <trkpt lat="59.8759539" lon="17.7492984">
        <ele>22.7283</ele>
        <time>2013-06-02T19:23:57Z</time>
      </trkpt>
      <trkpt lat="59.8759981" lon="17.7494457">
        <ele>23.209</ele>
        <time>2013-06-02T19:23:58Z</time>
      </trkpt>
      <trkpt lat="59.8760463" lon="17.7495879">
        <ele>23.6896</ele>
        <time>2013-06-02T19:23:59Z</time>
      </trkpt>
      <trkpt lat="59.8760988" lon="17.7497172">
        <ele>24.1703</ele>
        <time>2013-06-02T19:24:00Z</time>
      </trkpt>
      <trkpt lat="59.8761563" lon="17.7498285">
        <ele>23.209</ele>
        <time>2013-06-02T19:24:01Z</time>
      </trkpt>
      <trkpt lat="59.8762168" lon="17.7499293">
        <ele>23.209</ele>
        <time>2013-06-02T19:24:02Z</time>
      </trkpt>
      <trkpt lat="59.876282" lon="17.7500194">
        <ele>22.7283</ele>
        <time>2013-06-02T19:24:03Z</time>
      </trkpt>
      <trkpt lat="59.8763516" lon="17.750099">
        <ele>22.7283</ele>
        <time>2013-06-02T19:24:04Z</time>
      </trkpt>
      <trkpt lat="59.8764249" lon="17.7501724">
        <ele>23.209</ele>
        <time>2013-06-02T19:24:05Z</time>
      </trkpt>
      <trkpt lat="59.8764975" lon="17.7502455">
        <ele>23.6896</ele>
        <time>2013-06-02T19:24:06Z</time>
      </trkpt>
      <trkpt lat="59.8765717" lon="17.7503185">
        <ele>24.1703</ele>
        <time>2013-06-02T19:24:07Z</time>
      </trkpt>
      <trkpt lat="59.8766447" lon="17.7503936">
        <ele>23.6896</ele>
        <time>2013-06-02T19:24:08Z</time>
      </trkpt>
      <trkpt lat="59.8767151" lon="17.7504585">
        <ele>23.6896</ele>
        <time>2013-06-02T19:24:09Z</time>
      </trkpt>
      <trkpt lat="59.876784" lon="17.7505085">
        <ele>23.6896</ele>
        <time>2013-06-02T19:24:10Z</time>
      </trkpt>
      <trkpt lat="59.8768575" lon="17.7505369">
        <ele>24.651</ele>
        <time>2013-06-02T19:24:11Z</time>
      </trkpt>
      <trkpt lat="59.8769304" lon="17.750534">
        <ele>24.651</ele>
        <time>2013-06-02T19:24:12Z</time>
      </trkpt>
      <trkpt lat="59.8770047" lon="17.7505002">
        <ele>25.1317</ele>
        <time>2013-06-02T19:24:13Z</time>
      </trkpt>
      <trkpt lat="59.8770749" lon="17.750418">
        <ele>25.1317</ele>
        <time>2013-06-02T19:24:14Z</time>
      </trkpt>
      <trkpt lat="59.8771314" lon="17.7503097">
        <ele>25.1317</ele>
        <time>2013-06-02T19:24:15Z</time>
      </trkpt>
      <trkpt lat="59.8771729" lon="17.7501683">
        <ele>24.651</ele>
        <time>2013-06-02T19:24:16Z</time>
      </trkpt>
      <trkpt lat="59.8772122" lon="17.7500222">
        <ele>25.1317</ele>
        <time>2013-06-02T19:24:17Z</time>
      </trkpt>
      <trkpt lat="59.8772531" lon="17.7498689">
        <ele>25.1317</ele>
        <time>2013-06-02T19:24:18Z</time>
      </trkpt>
      <trkpt lat="59.8772947" lon="17.7497124">
        <ele>24.651</ele>
        <time>2013-06-02T19:24:19Z</time>
      </trkpt>
      <trkpt lat="59.8773398" lon="17.7495618">
        <ele>24.651</ele>
        <time>2013-06-02T19:24:20Z</time>
      </trkpt>
      <trkpt lat="59.8773859" lon="17.7494218">
        <ele>24.1703</ele>
        <time>2013-06-02T19:24:21Z</time>
      </trkpt>
      <trkpt lat="59.8774325" lon="17.749285">
        <ele>23.6896</ele>
        <time>2013-06-02T19:24:22Z</time>
      </trkpt>
      <trkpt lat="59.8774821" lon="17.7491587">
        <ele>23.6896</ele>
        <time>2013-06-02T19:24:23Z</time>
      </trkpt>
      <trkpt lat="59.8775359" lon="17.749042">
        <ele>23.6896</ele>
        <time>2013-06-02T19:24:24Z</time>
      </trkpt>
      <trkpt lat="59.877591" lon="17.7489287">
        <ele>23.6896</ele>
        <time>2013-06-02T19:24:25Z</time>
      </trkpt>
      <trkpt lat="59.8776485" lon="17.748824">
        <ele>23.6896</ele>
        <time>2013-06-02T19:24:26Z</time>
      </trkpt>
      <trkpt lat="59.8777048" lon="17.7487246">
        <ele>22.7283</ele>
        <time>2013-06-02T19:24:27Z</time>
      </trkpt>
      <trkpt lat="59.877763" lon="17.7486282">
        <ele>22.2476</ele>
        <time>2013-06-02T19:24:28Z</time>
      </trkpt>
      <trkpt lat="59.8778217" lon="17.7485442">
        <ele>21.767</ele>
        <time>2013-06-02T19:24:29Z</time>
      </trkpt>
      <trkpt lat="59.8778822" lon="17.7484682">
        <ele>21.2864</ele>
        <time>2013-06-02T19:24:30Z</time>
      </trkpt>
      <trkpt lat="59.8779412" lon="17.7483856">
        <ele>20.8057</ele>
        <time>2013-06-02T19:24:31Z</time>
      </trkpt>
      <trkpt lat="59.8780024" lon="17.7483044">
        <ele>20.8057</ele>
        <time>2013-06-02T19:24:32Z</time>
      </trkpt>
      <trkpt lat="59.8780667" lon="17.7482304">
        <ele>21.2864</ele>
        <time>2013-06-02T19:24:33Z</time>
      </trkpt>
      <trkpt lat="59.8781333" lon="17.748165">
        <ele>20.8057</ele>
        <time>2013-06-02T19:24:34Z</time>
      </trkpt>
      <trkpt lat="59.8782014" lon="17.7481077">
        <ele>19.8444</ele>
        <time>2013-06-02T19:24:35Z</time>
      </trkpt>
      <trkpt lat="59.8782679" lon="17.7480358">
        <ele>19.8444</ele>
        <time>2013-06-02T19:24:36Z</time>
      </trkpt>
      <trkpt lat="59.878334" lon="17.7479726">
        <ele>18.8831</ele>
        <time>2013-06-02T19:24:37Z</time>
      </trkpt>
      <trkpt lat="59.8783995" lon="17.7479068">
        <ele>18.8831</ele>
        <time>2013-06-02T19:24:38Z</time>
      </trkpt>
      <trkpt lat="59.8784637" lon="17.7478471">
        <ele>18.8831</ele>
        <time>2013-06-02T19:24:39Z</time>
      </trkpt>
      <trkpt lat="59.8785258" lon="17.7477814">
        <ele>18.8831</ele>
        <time>2013-06-02T19:24:40Z</time>
      </trkpt>
      <trkpt lat="59.8785872" lon="17.7477071">
        <ele>19.3638</ele>
        <time>2013-06-02T19:24:41Z</time>
      </trkpt>
      <trkpt lat="59.8786462" lon="17.7476129">
        <ele>19.8444</ele>
        <time>2013-06-02T19:24:42Z</time>
      </trkpt>
      <trkpt lat="59.8787025" lon="17.7475321">
        <ele>20.325</ele>
        <time>2013-06-02T19:24:43Z</time>
      </trkpt>
      <trkpt lat="59.8787559" lon="17.7474421">
        <ele>20.325</ele>
        <time>2013-06-02T19:24:44Z</time>
      </trkpt>
      <trkpt lat="59.8788056" lon="17.7473344">
        <ele>20.325</ele>
        <time>2013-06-02T19:24:45Z</time>
      </trkpt>
      <trkpt lat="59.878855" lon="17.7472301">
        <ele>20.325</ele>
        <time>2013-06-02T19:24:46Z</time>
      </trkpt>
      <trkpt lat="59.8789015" lon="17.7471173">
        <ele>20.325</ele>
        <time>2013-06-02T19:24:47Z</time>
      </trkpt>
      <trkpt lat="59.8789418" lon="17.7469929">
        <ele>20.325</ele>
        <time>2013-06-02T19:24:48Z</time>
      </trkpt>
      <trkpt lat="59.8789663" lon="17.746785">
        <ele>19.8444</ele>
        <time>2013-06-02T19:24:49Z</time>
      </trkpt>
      <trkpt lat="59.878999" lon="17.74665">
        <ele>20.325</ele>
        <time>2013-06-02T19:24:50Z</time>
      </trkpt>
      <trkpt lat="59.8790177" lon="17.7464387">
        <ele>20.8057</ele>
        <time>2013-06-02T19:24:51Z</time>
      </trkpt>
      <trkpt lat="59.8790512" lon="17.7462801">
        <ele>20.8057</ele>
        <time>2013-06-02T19:24:52Z</time>
      </trkpt>
      <trkpt lat="59.8790903" lon="17.746118">
        <ele>20.325</ele>
        <time>2013-06-02T19:24:53Z</time>
      </trkpt>
      <trkpt lat="59.8791306" lon="17.745961">
        <ele>19.8444</ele>
        <time>2013-06-02T19:24:54Z</time>
      </trkpt>
      <trkpt lat="59.879178" lon="17.7458273">
        <ele>19.3638</ele>
        <time>2013-06-02T19:24:55Z</time>
      </trkpt>
      <trkpt lat="59.8792207" lon="17.7457037">
        <ele>18.8831</ele>
        <time>2013-06-02T19:24:56Z</time>
      </trkpt>
      <trkpt lat="59.8792739" lon="17.7455792">
        <ele>17.9218</ele>
        <time>2013-06-02T19:24:57Z</time>
      </trkpt>
      <trkpt lat="59.8793309" lon="17.7454627">
        <ele>17.4412</ele>
        <time>2013-06-02T19:24:58Z</time>
      </trkpt>
      <trkpt lat="59.8793894" lon="17.7453504">
        <ele>17.4412</ele>
        <time>2013-06-02T19:24:59Z</time>
      </trkpt>
      <trkpt lat="59.8794505" lon="17.7452441">
        <ele>16.9604</ele>
        <time>2013-06-02T19:25:00Z</time>
      </trkpt>
      <trkpt lat="59.8795123" lon="17.7451389">
        <ele>15.999</ele>
        <time>2013-06-02T19:25:01Z</time>
      </trkpt>
      <trkpt lat="59.8795749" lon="17.7450358">
        <ele>15.5184</ele>
        <time>2013-06-02T19:25:02Z</time>
      </trkpt>
      <trkpt lat="59.8796371" lon="17.7449405">
        <ele>15.5184</ele>
        <time>2013-06-02T19:25:03Z</time>
      </trkpt>
      <trkpt lat="59.8796999" lon="17.7448424">
        <ele>15.5184</ele>
        <time>2013-06-02T19:25:04Z</time>
      </trkpt>
      <trkpt lat="59.879767" lon="17.7447521">
        <ele>15.999</ele>
        <time>2013-06-02T19:25:05Z</time>
      </trkpt>
      <trkpt lat="59.8798362" lon="17.7446627">
        <ele>15.999</ele>
        <time>2013-06-02T19:25:06Z</time>
      </trkpt>
      <trkpt lat="59.8799128" lon="17.7445987">
        <ele>16.9604</ele>
        <time>2013-06-02T19:25:07Z</time>
      </trkpt>
      <trkpt lat="59.879991" lon="17.7445474">
        <ele>16.9604</ele>
        <time>2013-06-02T19:25:08Z</time>
      </trkpt>
      <trkpt lat="59.8800722" lon="17.7445073">
        <ele>17.4412</ele>
        <time>2013-06-02T19:25:09Z</time>
      </trkpt>
      <trkpt lat="59.8801546" lon="17.7444759">
        <ele>17.4412</ele>
        <time>2013-06-02T19:25:10Z</time>
      </trkpt>
      <trkpt lat="59.8802376" lon="17.7444577">
        <ele>17.9218</ele>
        <time>2013-06-02T19:25:11Z</time>
      </trkpt>
      <trkpt lat="59.8803173" lon="17.7444337">
        <ele>18.8831</ele>
        <time>2013-06-02T19:25:12Z</time>
      </trkpt>
      <trkpt lat="59.8803966" lon="17.7444057">
        <ele>18.8831</ele>
        <time>2013-06-02T19:25:13Z</time>
      </trkpt>
      <trkpt lat="59.8804749" lon="17.7443685">
        <ele>19.3638</ele>
        <time>2013-06-02T19:25:14Z</time>
      </trkpt>
      <trkpt lat="59.8805518" lon="17.7443308">
        <ele>19.8444</ele>
        <time>2013-06-02T19:25:15Z</time>
      </trkpt>
      <trkpt lat="59.8806313" lon="17.7442894">
        <ele>19.8444</ele>
        <time>2013-06-02T19:25:16Z</time>
      </trkpt>
      <trkpt lat="59.8807063" lon="17.7442412">
        <ele>19.8444</ele>
        <time>2013-06-02T19:25:17Z</time>
      </trkpt>
      <trkpt lat="59.8807767" lon="17.744192">
        <ele>20.325</ele>
        <time>2013-06-02T19:25:18Z</time>
      </trkpt>
      <trkpt lat="59.8808442" lon="17.7441397">
        <ele>21.2864</ele>
        <time>2013-06-02T19:25:19Z</time>
      </trkpt>
      <trkpt lat="59.8809095" lon="17.7440737">
        <ele>19.3638</ele>
        <time>2013-06-02T19:25:20Z</time>
      </trkpt>
      <trkpt lat="59.8809678" lon="17.7439748">
        <ele>18.8831</ele>
        <time>2013-06-02T19:25:21Z</time>
      </trkpt>
      <trkpt lat="59.881024" lon="17.7439029">
        <ele>19.3638</ele>
        <time>2013-06-02T19:25:22Z</time>
      </trkpt>
      <trkpt lat="59.8810812" lon="17.7438242">
        <ele>18.4023</ele>
        <time>2013-06-02T19:25:23Z</time>
      </trkpt>
      <trkpt lat="59.8811399" lon="17.743745">
        <ele>15.999</ele>
        <time>2013-06-02T19:25:24Z</time>
      </trkpt>
      <trkpt lat="59.8811968" lon="17.7436624">
        <ele>15.5184</ele>
        <time>2013-06-02T19:25:25Z</time>
      </trkpt>
      <trkpt lat="59.881254" lon="17.7435797">
        <ele>15.999</ele>
        <time>2013-06-02T19:25:26Z</time>
      </trkpt>
      <trkpt lat="59.8813104" lon="17.7434916">
        <ele>15.5184</ele>
        <time>2013-06-02T19:25:27Z</time>
      </trkpt>
      <trkpt lat="59.8813666" lon="17.7433985">
        <ele>15.5184</ele>
        <time>2013-06-02T19:25:28Z</time>
      </trkpt>
      <trkpt lat="59.8814249" lon="17.7432744">
        <ele>15.5184</ele>
        <time>2013-06-02T19:25:29Z</time>
      </trkpt>
      <trkpt lat="59.8814868" lon="17.7431851">
        <ele>15.5184</ele>
        <time>2013-06-02T19:25:30Z</time>
      </trkpt>
      <trkpt lat="59.8815497" lon="17.7430855">
        <ele>15.5184</ele>
        <time>2013-06-02T19:25:31Z</time>
      </trkpt>
      <trkpt lat="59.8816072" lon="17.7430032">
        <ele>15.5184</ele>
        <time>2013-06-02T19:25:32Z</time>
      </trkpt>
      <trkpt lat="59.8816657" lon="17.742915">
        <ele>15.5184</ele>
        <time>2013-06-02T19:25:33Z</time>
      </trkpt>
      <trkpt lat="59.8817232" lon="17.742817">
        <ele>15.999</ele>
        <time>2013-06-02T19:25:34Z</time>
      </trkpt>
      <trkpt lat="59.8817779" lon="17.7426923">
        <ele>16.9604</ele>
        <time>2013-06-02T19:25:35Z</time>
      </trkpt>
      <trkpt lat="59.881833" lon="17.7425696">
        <ele>18.4023</ele>
        <time>2013-06-02T19:25:36Z</time>
      </trkpt>
      <trkpt lat="59.8818917" lon="17.742467">
        <ele>18.4023</ele>
        <time>2013-06-02T19:25:37Z</time>
      </trkpt>
      <trkpt lat="59.8819496" lon="17.7423592">
        <ele>17.4412</ele>
        <time>2013-06-02T19:25:38Z</time>
      </trkpt>
      <trkpt lat="59.8820053" lon="17.7422453">
        <ele>16.4797</ele>
        <time>2013-06-02T19:25:39Z</time>
      </trkpt>
      <trkpt lat="59.88206" lon="17.7421276">
        <ele>16.4797</ele>
        <time>2013-06-02T19:25:40Z</time>
      </trkpt>
      <trkpt lat="59.8821159" lon="17.7420094">
        <ele>16.4797</ele>
        <time>2013-06-02T19:25:41Z</time>
      </trkpt>
      <trkpt lat="59.8821719" lon="17.7418905">
        <ele>16.4797</ele>
        <time>2013-06-02T19:25:42Z</time>
      </trkpt>
      <trkpt lat="59.8822271" lon="17.7417703">
        <ele>16.4797</ele>
        <time>2013-06-02T19:25:43Z</time>
      </trkpt>
      <trkpt lat="59.8822825" lon="17.7416517">
        <ele>16.4797</ele>
        <time>2013-06-02T19:25:44Z</time>
      </trkpt>
      <trkpt lat="59.8823386" lon="17.7415345">
        <ele>16.4797</ele>
        <time>2013-06-02T19:25:45Z</time>
      </trkpt>
      <trkpt lat="59.8823944" lon="17.741416">
        <ele>16.4797</ele>
        <time>2013-06-02T19:25:46Z</time>
      </trkpt>
      <trkpt lat="59.882449" lon="17.7412949">
        <ele>16.4797</ele>
        <time>2013-06-02T19:25:47Z</time>
      </trkpt>
      <trkpt lat="59.8825065" lon="17.7411789">
        <ele>15.999</ele>
        <time>2013-06-02T19:25:48Z</time>
      </trkpt>
      <trkpt lat="59.8825676" lon="17.7410637">
        <ele>15.5184</ele>
        <time>2013-06-02T19:25:49Z</time>
      </trkpt>
      <trkpt lat="59.8826312" lon="17.740956">
        <ele>15.5184</ele>
        <time>2013-06-02T19:25:50Z</time>
      </trkpt>
      <trkpt lat="59.8826976" lon="17.7408558">
        <ele>15.5184</ele>
        <time>2013-06-02T19:25:51Z</time>
      </trkpt>
      <trkpt lat="59.8827663" lon="17.7407624">
        <ele>15.0377</ele>
        <time>2013-06-02T19:25:52Z</time>
      </trkpt>
      <trkpt lat="59.8828385" lon="17.7406772">
        <ele>15.5184</ele>
        <time>2013-06-02T19:25:53Z</time>
      </trkpt>
      <trkpt lat="59.8829137" lon="17.7406001">
        <ele>15.0377</ele>
        <time>2013-06-02T19:25:54Z</time>
      </trkpt>
      <trkpt lat="59.8829913" lon="17.7405256">
        <ele>15.5184</ele>
        <time>2013-06-02T19:25:55Z</time>
      </trkpt>
      <trkpt lat="59.8830715" lon="17.7404616">
        <ele>15.5184</ele>
        <time>2013-06-02T19:25:56Z</time>
      </trkpt>
      <trkpt lat="59.8831528" lon="17.7404136">
        <ele>15.0377</ele>
        <time>2013-06-02T19:25:57Z</time>
      </trkpt>
      <trkpt lat="59.883233" lon="17.7403712">
        <ele>14.557</ele>
        <time>2013-06-02T19:25:58Z</time>
      </trkpt>
      <trkpt lat="59.8833123" lon="17.7403365">
        <ele>13.5958</ele>
        <time>2013-06-02T19:25:59Z</time>
      </trkpt>
      <trkpt lat="59.8833907" lon="17.7402992">
        <ele>12.6344</ele>
        <time>2013-06-02T19:26:00Z</time>
      </trkpt>
      <trkpt lat="59.8834687" lon="17.7402608">
        <ele>12.1538</ele>
        <time>2013-06-02T19:26:01Z</time>
      </trkpt>
      <trkpt lat="59.8835454" lon="17.7402133">
        <ele>12.1538</ele>
        <time>2013-06-02T19:26:02Z</time>
      </trkpt>
      <trkpt lat="59.8836206" lon="17.740165">
        <ele>12.1538</ele>
        <time>2013-06-02T19:26:03Z</time>
      </trkpt>
      <trkpt lat="59.8836961" lon="17.7401166">
        <ele>12.6344</ele>
        <time>2013-06-02T19:26:04Z</time>
      </trkpt>
      <trkpt lat="59.8837719" lon="17.7400646">
        <ele>12.6344</ele>
        <time>2013-06-02T19:26:05Z</time>
      </trkpt>
      <trkpt lat="59.8838484" lon="17.7400082">
        <ele>13.5958</ele>
        <time>2013-06-02T19:26:06Z</time>
      </trkpt>
      <trkpt lat="59.8839259" lon="17.7399598">
        <ele>14.0764</ele>
        <time>2013-06-02T19:26:07Z</time>
      </trkpt>
      <trkpt lat="59.8840051" lon="17.7399139">
        <ele>14.557</ele>
        <time>2013-06-02T19:26:08Z</time>
      </trkpt>
      <trkpt lat="59.8840817" lon="17.7398604">
        <ele>14.557</ele>
        <time>2013-06-02T19:26:09Z</time>
      </trkpt>
      <trkpt lat="59.8841589" lon="17.7398097">
        <ele>14.557</ele>
        <time>2013-06-02T19:26:10Z</time>
      </trkpt>
      <trkpt lat="59.8842354" lon="17.7397709">
        <ele>15.0377</ele>
        <time>2013-06-02T19:26:11Z</time>
      </trkpt>
      <trkpt lat="59.8843118" lon="17.7397345">
        <ele>15.0377</ele>
        <time>2013-06-02T19:26:12Z</time>
      </trkpt>
      <trkpt lat="59.8843873" lon="17.7396999">
        <ele>15.0377</ele>
        <time>2013-06-02T19:26:13Z</time>
      </trkpt>
      <trkpt lat="59.8844636" lon="17.7396662">
        <ele>14.557</ele>
        <time>2013-06-02T19:26:14Z</time>
      </trkpt>
      <trkpt lat="59.8845406" lon="17.7396259">
        <ele>14.557</ele>
        <time>2013-06-02T19:26:15Z</time>
      </trkpt>
      <trkpt lat="59.8846174" lon="17.7395829">
        <ele>15.0377</ele>
        <time>2013-06-02T19:26:16Z</time>
      </trkpt>
      <trkpt lat="59.884694" lon="17.7395334">
        <ele>15.0377</ele>
        <time>2013-06-02T19:26:17Z</time>
      </trkpt>
      <trkpt lat="59.8847706" lon="17.7394812">
        <ele>15.0377</ele>
        <time>2013-06-02T19:26:18Z</time>
      </trkpt>
      <trkpt lat="59.8848473" lon="17.7394297">
        <ele>14.557</ele>
        <time>2013-06-02T19:26:19Z</time>
      </trkpt>
      <trkpt lat="59.8849256" lon="17.7393802">
        <ele>14.557</ele>
        <time>2013-06-02T19:26:20Z</time>
      </trkpt>
      <trkpt lat="59.8850058" lon="17.739346">
        <ele>14.557</ele>
        <time>2013-06-02T19:26:21Z</time>
      </trkpt>
      <trkpt lat="59.8850868" lon="17.7393306">
        <ele>15.5184</ele>
        <time>2013-06-02T19:26:22Z</time>
      </trkpt>
      <trkpt lat="59.8851654" lon="17.7393604">
        <ele>15.999</ele>
        <time>2013-06-02T19:26:23Z</time>
      </trkpt>
      <trkpt lat="59.8852398" lon="17.7394316">
        <ele>16.9604</ele>
        <time>2013-06-02T19:26:24Z</time>
      </trkpt>
      <trkpt lat="59.8853059" lon="17.7395367">
        <ele>17.9218</ele>
        <time>2013-06-02T19:26:25Z</time>
      </trkpt>
      <trkpt lat="59.8853551" lon="17.7396811">
        <ele>18.4023</ele>
        <time>2013-06-02T19:26:26Z</time>
      </trkpt>
      <trkpt lat="59.8853866" lon="17.7398344">
        <ele>19.8444</ele>
        <time>2013-06-02T19:26:27Z</time>
      </trkpt>
      <trkpt lat="59.8854073" lon="17.7399879">
        <ele>21.767</ele>
        <time>2013-06-02T19:26:28Z</time>
      </trkpt>
      <trkpt lat="59.8854265" lon="17.7401407">
        <ele>21.767</ele>
        <time>2013-06-02T19:26:29Z</time>
      </trkpt>
      <trkpt lat="59.8854455" lon="17.7402904">
        <ele>22.7283</ele>
        <time>2013-06-02T19:26:30Z</time>
      </trkpt>
      <trkpt lat="59.8854664" lon="17.7404375">
        <ele>23.209</ele>
        <time>2013-06-02T19:26:31Z</time>
      </trkpt>
      <trkpt lat="59.8854918" lon="17.740582">
        <ele>23.6896</ele>
        <time>2013-06-02T19:26:32Z</time>
      </trkpt>
      <trkpt lat="59.8855236" lon="17.7407243">
        <ele>23.6896</ele>
        <time>2013-06-02T19:26:33Z</time>
      </trkpt>
      <trkpt lat="59.8855601" lon="17.7408638">
        <ele>21.767</ele>
        <time>2013-06-02T19:26:34Z</time>
      </trkpt>
      <trkpt lat="59.8856107" lon="17.7409872">
        <ele>21.767</ele>
        <time>2013-06-02T19:26:35Z</time>
      </trkpt>
      <trkpt lat="59.8856677" lon="17.7410952">
        <ele>21.767</ele>
        <time>2013-06-02T19:26:36Z</time>
      </trkpt>
      <trkpt lat="59.8857277" lon="17.7411844">
        <ele>21.767</ele>
        <time>2013-06-02T19:26:37Z</time>
      </trkpt>
      <trkpt lat="59.8857963" lon="17.7412614">
        <ele>22.2476</ele>
        <time>2013-06-02T19:26:38Z</time>
      </trkpt>
      <trkpt lat="59.8858668" lon="17.7413346">
        <ele>22.2476</ele>
        <time>2013-06-02T19:26:39Z</time>
      </trkpt>
      <trkpt lat="59.8859423" lon="17.7414097">
        <ele>22.2476</ele>
        <time>2013-06-02T19:26:40Z</time>
      </trkpt>
      <trkpt lat="59.8860202" lon="17.7414885">
        <ele>22.2476</ele>
        <time>2013-06-02T19:26:41Z</time>
      </trkpt>
      <trkpt lat="59.8861004" lon="17.7415718">
        <ele>21.767</ele>
        <time>2013-06-02T19:26:42Z</time>
      </trkpt>
      <trkpt lat="59.8861808" lon="17.741659">
        <ele>21.767</ele>
        <time>2013-06-02T19:26:43Z</time>
      </trkpt>
      <trkpt lat="59.8862594" lon="17.7417489">
        <ele>21.767</ele>
        <time>2013-06-02T19:26:44Z</time>
      </trkpt>
      <trkpt lat="59.8863361" lon="17.7418406">
        <ele>21.767</ele>
        <time>2013-06-02T19:26:45Z</time>
      </trkpt>
      <trkpt lat="59.8864128" lon="17.7419339">
        <ele>21.767</ele>
        <time>2013-06-02T19:26:46Z</time>
      </trkpt>
      <trkpt lat="59.8864889" lon="17.7420304">
        <ele>21.767</ele>
        <time>2013-06-02T19:26:47Z</time>
      </trkpt>
      <trkpt lat="59.886565" lon="17.7421272">
        <ele>21.767</ele>
        <time>2013-06-02T19:26:48Z</time>
      </trkpt>
      <trkpt lat="59.8866401" lon="17.7422231">
        <ele>21.767</ele>
        <time>2013-06-02T19:26:49Z</time>
      </trkpt>
      <trkpt lat="59.8867123" lon="17.7423189">
        <ele>21.767</ele>
        <time>2013-06-02T19:26:50Z</time>
      </trkpt>
      <trkpt lat="59.8867856" lon="17.7424151">
        <ele>21.2864</ele>
        <time>2013-06-02T19:26:51Z</time>
      </trkpt>
      <trkpt lat="59.8868551" lon="17.7425125">
        <ele>21.2864</ele>
        <time>2013-06-02T19:26:52Z</time>
      </trkpt>
      <trkpt lat="59.8869221" lon="17.7426117">
        <ele>20.8057</ele>
        <time>2013-06-02T19:26:53Z</time>
      </trkpt>
      <trkpt lat="59.8869883" lon="17.7427125">
        <ele>20.8057</ele>
        <time>2013-06-02T19:26:54Z</time>
      </trkpt>
      <trkpt lat="59.8870542" lon="17.7428154">
        <ele>20.325</ele>
        <time>2013-06-02T19:26:55Z</time>
      </trkpt>
      <trkpt lat="59.8871193" lon="17.7429207">
        <ele>20.325</ele>
        <time>2013-06-02T19:26:56Z</time>
      </trkpt>
      <trkpt lat="59.8871823" lon="17.743028">
        <ele>20.325</ele>
        <time>2013-06-02T19:26:57Z</time>
      </trkpt>
      <trkpt lat="59.8872448" lon="17.7431338">
        <ele>20.325</ele>
        <time>2013-06-02T19:26:58Z</time>
      </trkpt>
      <trkpt lat="59.8873078" lon="17.7432361">
        <ele>20.325</ele>
        <time>2013-06-02T19:26:59Z</time>
      </trkpt>
      <trkpt lat="59.8873669" lon="17.7433374">
        <ele>20.325</ele>
        <time>2013-06-02T19:27:00Z</time>
      </trkpt>
      <trkpt lat="59.8874221" lon="17.7434368">
        <ele>20.325</ele>
        <time>2013-06-02T19:27:01Z</time>
      </trkpt>
      <trkpt lat="59.8874763" lon="17.7435317">
        <ele>20.8057</ele>
        <time>2013-06-02T19:27:02Z</time>
      </trkpt>
      <trkpt lat="59.8875299" lon="17.7436233">
        <ele>20.8057</ele>
        <time>2013-06-02T19:27:03Z</time>
      </trkpt>
      <trkpt lat="59.8875823" lon="17.7437128">
        <ele>21.2864</ele>
        <time>2013-06-02T19:27:04Z</time>
      </trkpt>
      <trkpt lat="59.8876336" lon="17.7437998">
        <ele>21.2864</ele>
        <time>2013-06-02T19:27:05Z</time>
      </trkpt>
      <trkpt lat="59.8876838" lon="17.7438853">
        <ele>20.8057</ele>
        <time>2013-06-02T19:27:06Z</time>
      </trkpt>
      <trkpt lat="59.8877343" lon="17.7439702">
        <ele>21.2864</ele>
        <time>2013-06-02T19:27:07Z</time>
      </trkpt>
      <trkpt lat="59.8877846" lon="17.7440553">
        <ele>21.2864</ele>
        <time>2013-06-02T19:27:08Z</time>
      </trkpt>
      <trkpt lat="59.8878347" lon="17.7441407">
        <ele>21.767</ele>
        <time>2013-06-02T19:27:09Z</time>
      </trkpt>
      <trkpt lat="59.8878843" lon="17.7442258">
        <ele>21.767</ele>
        <time>2013-06-02T19:27:10Z</time>
      </trkpt>
      <trkpt lat="59.8879342" lon="17.7443102">
        <ele>21.767</ele>
        <time>2013-06-02T19:27:11Z</time>
      </trkpt>
      <trkpt lat="59.8879847" lon="17.7443956">
        <ele>21.767</ele>
        <time>2013-06-02T19:27:12Z</time>
      </trkpt>
      <trkpt lat="59.8880352" lon="17.7444815">
        <ele>22.2476</ele>
        <time>2013-06-02T19:27:13Z</time>
      </trkpt>
      <trkpt lat="59.8880859" lon="17.7445682">
        <ele>22.2476</ele>
        <time>2013-06-02T19:27:14Z</time>
      </trkpt>
      <trkpt lat="59.8881362" lon="17.7446555">
        <ele>22.2476</ele>
        <time>2013-06-02T19:27:15Z</time>
      </trkpt>
      <trkpt lat="59.8881873" lon="17.7447412">
        <ele>22.2476</ele>
        <time>2013-06-02T19:27:16Z</time>
      </trkpt>
      <trkpt lat="59.8882387" lon="17.7448271">
        <ele>22.7283</ele>
        <time>2013-06-02T19:27:17Z</time>
      </trkpt>
      <trkpt lat="59.8882896" lon="17.7449141">
        <ele>22.7283</ele>
        <time>2013-06-02T19:27:18Z</time>
      </trkpt>
      <trkpt lat="59.8883409" lon="17.7450009">
        <ele>23.209</ele>
        <time>2013-06-02T19:27:19Z</time>
      </trkpt>
      <trkpt lat="59.8883927" lon="17.7450877">
        <ele>23.6896</ele>
        <time>2013-06-02T19:27:20Z</time>
      </trkpt>
      <trkpt lat="59.888444" lon="17.7451752">
        <ele>23.6896</ele>
        <time>2013-06-02T19:27:21Z</time>
      </trkpt>
      <trkpt lat="59.8884944" lon="17.745263">
        <ele>24.1703</ele>
        <time>2013-06-02T19:27:22Z</time>
      </trkpt>
      <trkpt lat="59.8885452" lon="17.7453504">
        <ele>24.1703</ele>
        <time>2013-06-02T19:27:23Z</time>
      </trkpt>
      <trkpt lat="59.888597" lon="17.7454369">
        <ele>24.651</ele>
        <time>2013-06-02T19:27:24Z</time>
      </trkpt>
      <trkpt lat="59.8886495" lon="17.7455233">
        <ele>24.651</ele>
        <time>2013-06-02T19:27:25Z</time>
      </trkpt>
      <trkpt lat="59.8887022" lon="17.7456103">
        <ele>25.1317</ele>
        <time>2013-06-02T19:27:26Z</time>
      </trkpt>
      <trkpt lat="59.8887541" lon="17.7456993">
        <ele>25.6123</ele>
        <time>2013-06-02T19:27:27Z</time>
      </trkpt>
      <trkpt lat="59.8888055" lon="17.745789">
        <ele>25.6123</ele>
        <time>2013-06-02T19:27:28Z</time>
      </trkpt>
      <trkpt lat="59.8888568" lon="17.7458784">
        <ele>26.0929</ele>
        <time>2013-06-02T19:27:29Z</time>
      </trkpt>
      <trkpt lat="59.8889085" lon="17.7459678">
        <ele>26.0929</ele>
        <time>2013-06-02T19:27:30Z</time>
      </trkpt>
      <trkpt lat="59.8889608" lon="17.7460569">
        <ele>26.5736</ele>
        <time>2013-06-02T19:27:31Z</time>
      </trkpt>
      <trkpt lat="59.8890125" lon="17.7461454">
        <ele>26.5736</ele>
        <time>2013-06-02T19:27:32Z</time>
      </trkpt>
      <trkpt lat="59.889064" lon="17.746233">
        <ele>27.0543</ele>
        <time>2013-06-02T19:27:33Z</time>
      </trkpt>
      <trkpt lat="59.8891156" lon="17.7463196">
        <ele>27.5349</ele>
        <time>2013-06-02T19:27:34Z</time>
      </trkpt>
      <trkpt lat="59.8891668" lon="17.7464051">
        <ele>27.5349</ele>
        <time>2013-06-02T19:27:35Z</time>
      </trkpt>
      <trkpt lat="59.8892172" lon="17.7464894">
        <ele>28.0155</ele>
        <time>2013-06-02T19:27:36Z</time>
      </trkpt>
      <trkpt lat="59.8892666" lon="17.7465733">
        <ele>28.0155</ele>
        <time>2013-06-02T19:27:37Z</time>
      </trkpt>
      <trkpt lat="59.8893157" lon="17.7466562">
        <ele>28.4962</ele>
        <time>2013-06-02T19:27:38Z</time>
      </trkpt>
      <trkpt lat="59.8893629" lon="17.7467383">
        <ele>28.4962</ele>
        <time>2013-06-02T19:27:39Z</time>
      </trkpt>
      <trkpt lat="59.8894093" lon="17.7468194">
        <ele>28.9769</ele>
        <time>2013-06-02T19:27:40Z</time>
      </trkpt>
      <trkpt lat="59.8894559" lon="17.7468987">
        <ele>28.9769</ele>
        <time>2013-06-02T19:27:41Z</time>
      </trkpt>
      <trkpt lat="59.8895023" lon="17.7469764">
        <ele>29.4575</ele>
        <time>2013-06-02T19:27:42Z</time>
      </trkpt>
      <trkpt lat="59.8895488" lon="17.747053">
        <ele>29.4575</ele>
        <time>2013-06-02T19:27:43Z</time>
      </trkpt>
      <trkpt lat="59.8895943" lon="17.7471296">
        <ele>29.9381</ele>
        <time>2013-06-02T19:27:44Z</time>
      </trkpt>
      <trkpt lat="59.8896384" lon="17.7472071">
        <ele>29.9381</ele>
        <time>2013-06-02T19:27:45Z</time>
      </trkpt>
      <trkpt lat="59.8896822" lon="17.7472835">
        <ele>29.9381</ele>
        <time>2013-06-02T19:27:46Z</time>
      </trkpt>
      <trkpt lat="59.8897257" lon="17.7473577">
        <ele>30.4188</ele>
        <time>2013-06-02T19:27:47Z</time>
      </trkpt>
      <trkpt lat="59.8897689" lon="17.7474311">
        <ele>30.4188</ele>
        <time>2013-06-02T19:27:48Z</time>
      </trkpt>
      <trkpt lat="59.8898114" lon="17.747504">
        <ele>30.4188</ele>
        <time>2013-06-02T19:27:49Z</time>
      </trkpt>
      <trkpt lat="59.8898539" lon="17.747576">
        <ele>30.8995</ele>
        <time>2013-06-02T19:27:50Z</time>
      </trkpt>
      <trkpt lat="59.8898948" lon="17.7476486">
        <ele>30.8995</ele>
        <time>2013-06-02T19:27:51Z</time>
      </trkpt>
      <trkpt lat="59.8899357" lon="17.7477189">
        <ele>31.3801</ele>
        <time>2013-06-02T19:27:52Z</time>
      </trkpt>
      <trkpt lat="59.8899763" lon="17.7477863">
        <ele>31.3801</ele>
        <time>2013-06-02T19:27:53Z</time>
      </trkpt>
      <trkpt lat="59.8900155" lon="17.7478541">
        <ele>31.8607</ele>
        <time>2013-06-02T19:27:54Z</time>
      </trkpt>
      <trkpt lat="59.8900524" lon="17.7479199">
        <ele>32.3416</ele>
        <time>2013-06-02T19:27:55Z</time>
      </trkpt>
      <trkpt lat="59.89009" lon="17.7479836">
        <ele>32.8223</ele>
        <time>2013-06-02T19:27:56Z</time>
      </trkpt>
      <trkpt lat="59.8901264" lon="17.7480464">
        <ele>33.3029</ele>
        <time>2013-06-02T19:27:57Z</time>
      </trkpt>
      <trkpt lat="59.8901616" lon="17.7481081">
        <ele>33.7834</ele>
        <time>2013-06-02T19:27:58Z</time>
      </trkpt>
      <trkpt lat="59.8901968" lon="17.7481627">
        <ele>35.2255</ele>
        <time>2013-06-02T19:27:59Z</time>
      </trkpt>
      <trkpt lat="59.8902303" lon="17.7482209">
        <ele>34.2642</ele>
        <time>2013-06-02T19:28:00Z</time>
      </trkpt>
      <trkpt lat="59.8902651" lon="17.7482803">
        <ele>32.8223</ele>
        <time>2013-06-02T19:28:01Z</time>
      </trkpt>
      <trkpt lat="59.890299" lon="17.7483386">
        <ele>31.8607</ele>
        <time>2013-06-02T19:28:02Z</time>
      </trkpt>
      <trkpt lat="59.8903309" lon="17.7483988">
        <ele>31.8607</ele>
        <time>2013-06-02T19:28:03Z</time>
      </trkpt>
      <trkpt lat="59.8903604" lon="17.7484626">
        <ele>32.3416</ele>
        <time>2013-06-02T19:28:04Z</time>
      </trkpt>
      <trkpt lat="59.8903859" lon="17.7485322">
        <ele>32.3416</ele>
        <time>2013-06-02T19:28:05Z</time>
      </trkpt>
      <trkpt lat="59.8904061" lon="17.7486071">
        <ele>32.3416</ele>
        <time>2013-06-02T19:28:06Z</time>
      </trkpt>
      <trkpt lat="59.8904191" lon="17.7486916">
        <ele>32.3416</ele>
        <time>2013-06-02T19:28:07Z</time>
      </trkpt>
      <trkpt lat="59.8904274" lon="17.7487836">
        <ele>32.3416</ele>
        <time>2013-06-02T19:28:08Z</time>
      </trkpt>
      <trkpt lat="59.890429" lon="17.748876">
        <ele>31.8607</ele>
        <time>2013-06-02T19:28:09Z</time>
      </trkpt>
      <trkpt lat="59.8904222" lon="17.748973">
        <ele>30.4188</ele>
        <time>2013-06-02T19:28:10Z</time>
      </trkpt>
      <trkpt lat="59.890405" lon="17.749066">
        <ele>29.9381</ele>
        <time>2013-06-02T19:28:11Z</time>
      </trkpt>
      <trkpt lat="59.8903805" lon="17.7491513">
        <ele>29.4575</ele>
        <time>2013-06-02T19:28:12Z</time>
      </trkpt>
      <trkpt lat="59.8903494" lon="17.7492253">
        <ele>28.9769</ele>
        <time>2013-06-02T19:28:13Z</time>
      </trkpt>
      <trkpt lat="59.890316" lon="17.749296">
        <ele>28.0155</ele>
        <time>2013-06-02T19:28:14Z</time>
      </trkpt>
      <trkpt lat="59.8902813" lon="17.7493641">
        <ele>27.0543</ele>
        <time>2013-06-02T19:28:15Z</time>
      </trkpt>
      <trkpt lat="59.8902479" lon="17.7494341">
        <ele>26.5736</ele>
        <time>2013-06-02T19:28:16Z</time>
      </trkpt>
      <trkpt lat="59.890214" lon="17.7495009">
        <ele>26.0929</ele>
        <time>2013-06-02T19:28:17Z</time>
      </trkpt>
      <trkpt lat="59.8901889" lon="17.7495603">
        <ele>25.6123</ele>
        <time>2013-06-02T19:28:18Z</time>
      </trkpt>
      <trkpt lat="59.8901818" lon="17.7496145">
        <ele>25.1317</ele>
        <time>2013-06-02T19:28:19Z</time>
      </trkpt>
      <trkpt lat="59.8901865" lon="17.7496156">
        <ele>23.6896</ele>
        <time>2013-06-02T19:28:20Z</time>
      </trkpt>
      <trkpt lat="59.8901947" lon="17.7495755">
        <ele>23.209</ele>
        <time>2013-06-02T19:28:21Z</time>
      </trkpt>
      <trkpt lat="59.8902072" lon="17.7495066">
        <ele>23.209</ele>
        <time>2013-06-02T19:28:22Z</time>
      </trkpt>
      <trkpt lat="59.890217" lon="17.749441">
        <ele>20.325</ele>
        <time>2013-06-02T19:28:23Z</time>
      </trkpt>
      <trkpt lat="59.8902434" lon="17.7493773">
        <ele>20.325</ele>
        <time>2013-06-02T19:28:24Z</time>
      </trkpt>
      <trkpt lat="59.8902708" lon="17.749303">
        <ele>18.8831</ele>
        <time>2013-06-02T19:28:25Z</time>
      </trkpt>
      <trkpt lat="59.8903033" lon="17.7492224">
        <ele>16.9604</ele>
        <time>2013-06-02T19:28:26Z</time>
      </trkpt>
      <trkpt lat="59.890337" lon="17.749138">
        <ele>17.4412</ele>
        <time>2013-06-02T19:28:27Z</time>
      </trkpt>
      <trkpt lat="59.8903754" lon="17.7490649">
        <ele>16.9604</ele>
        <time>2013-06-02T19:28:28Z</time>
      </trkpt>
      <trkpt lat="59.8904131" lon="17.7489821">
        <ele>16.4797</ele>
        <time>2013-06-02T19:28:29Z</time>
      </trkpt>
      <trkpt lat="59.8904539" lon="17.748899">
        <ele>15.999</ele>
        <time>2013-06-02T19:28:30Z</time>
      </trkpt>
      <trkpt lat="59.8904934" lon="17.7488197">
        <ele>15.5184</ele>
        <time>2013-06-02T19:28:31Z</time>
      </trkpt>
      <trkpt lat="59.8905325" lon="17.7487287">
        <ele>15.5184</ele>
        <time>2013-06-02T19:28:32Z</time>
      </trkpt>
      <trkpt lat="59.8905727" lon="17.7486425">
        <ele>15.5184</ele>
        <time>2013-06-02T19:28:33Z</time>
      </trkpt>
      <trkpt lat="59.8906164" lon="17.748556">
        <ele>15.0377</ele>
        <time>2013-06-02T19:28:34Z</time>
      </trkpt>
      <trkpt lat="59.8906642" lon="17.7484677">
        <ele>15.0377</ele>
        <time>2013-06-02T19:28:35Z</time>
      </trkpt>
      <trkpt lat="59.8907152" lon="17.7483838">
        <ele>15.5184</ele>
        <time>2013-06-02T19:28:36Z</time>
      </trkpt>
      <trkpt lat="59.8907703" lon="17.7483004">
        <ele>15.5184</ele>
        <time>2013-06-02T19:28:37Z</time>
      </trkpt>
      <trkpt lat="59.8908286" lon="17.7482201">
        <ele>14.557</ele>
        <time>2013-06-02T19:28:38Z</time>
      </trkpt>
      <trkpt lat="59.8908897" lon="17.7481443">
        <ele>14.0764</ele>
        <time>2013-06-02T19:28:39Z</time>
      </trkpt>
      <trkpt lat="59.8909521" lon="17.7480769">
        <ele>13.5958</ele>
        <time>2013-06-02T19:28:40Z</time>
      </trkpt>
      <trkpt lat="59.8910117" lon="17.7480065">
        <ele>14.0764</ele>
        <time>2013-06-02T19:28:41Z</time>
      </trkpt>
      <trkpt lat="59.8910701" lon="17.7479378">
        <ele>14.0764</ele>
        <time>2013-06-02T19:28:42Z</time>
      </trkpt>
      <trkpt lat="59.8911278" lon="17.7478705">
        <ele>14.0764</ele>
        <time>2013-06-02T19:28:43Z</time>
      </trkpt>
      <trkpt lat="59.8911848" lon="17.7478018">
        <ele>14.557</ele>
        <time>2013-06-02T19:28:44Z</time>
      </trkpt>
      <trkpt lat="59.8912411" lon="17.7477326">
        <ele>15.0377</ele>
        <time>2013-06-02T19:28:45Z</time>
      </trkpt>
      <trkpt lat="59.8912967" lon="17.7476635">
        <ele>15.0377</ele>
        <time>2013-06-02T19:28:46Z</time>
      </trkpt>
      <trkpt lat="59.8913515" lon="17.747592">
        <ele>15.5184</ele>
        <time>2013-06-02T19:28:47Z</time>
      </trkpt>
      <trkpt lat="59.8914059" lon="17.7475171">
        <ele>15.5184</ele>
        <time>2013-06-02T19:28:48Z</time>
      </trkpt>
      <trkpt lat="59.8914604" lon="17.7474414">
        <ele>15.999</ele>
        <time>2013-06-02T19:28:49Z</time>
      </trkpt>
      <trkpt lat="59.8915152" lon="17.7473656">
        <ele>15.999</ele>
        <time>2013-06-02T19:28:50Z</time>
      </trkpt>
      <trkpt lat="59.8915706" lon="17.7472886">
        <ele>15.5184</ele>
        <time>2013-06-02T19:28:51Z</time>
      </trkpt>
      <trkpt lat="59.8916264" lon="17.7472094">
        <ele>15.999</ele>
        <time>2013-06-02T19:28:52Z</time>
      </trkpt>
      <trkpt lat="59.8916821" lon="17.7471287">
        <ele>15.999</ele>
        <time>2013-06-02T19:28:53Z</time>
      </trkpt>
      <trkpt lat="59.8917385" lon="17.7470462">
        <ele>15.999</ele>
        <time>2013-06-02T19:28:54Z</time>
      </trkpt>
      <trkpt lat="59.8917959" lon="17.7469611">
        <ele>16.4797</ele>
        <time>2013-06-02T19:28:55Z</time>
      </trkpt>
      <trkpt lat="59.891855" lon="17.7468741">
        <ele>16.4797</ele>
        <time>2013-06-02T19:28:56Z</time>
      </trkpt>
      <trkpt lat="59.891915" lon="17.7467863">
        <ele>16.4797</ele>
        <time>2013-06-02T19:28:57Z</time>
      </trkpt>
      <trkpt lat="59.8919747" lon="17.7466969">
        <ele>16.4797</ele>
        <time>2013-06-02T19:28:58Z</time>
      </trkpt>
      <trkpt lat="59.8920352" lon="17.7466057">
        <ele>16.4797</ele>
        <time>2013-06-02T19:28:59Z</time>
      </trkpt>
      <trkpt lat="59.8920953" lon="17.7465122">
        <ele>16.9604</ele>
        <time>2013-06-02T19:29:00Z</time>
      </trkpt>
      <trkpt lat="59.8921528" lon="17.7464133">
        <ele>17.4412</ele>
        <time>2013-06-02T19:29:01Z</time>
      </trkpt>
      <trkpt lat="59.8922061" lon="17.7463111">
        <ele>17.4412</ele>
        <time>2013-06-02T19:29:02Z</time>
      </trkpt>
      <trkpt lat="59.8922549" lon="17.746204">
        <ele>17.9218</ele>
        <time>2013-06-02T19:29:03Z</time>
      </trkpt>
      <trkpt lat="59.8922989" lon="17.7460921">
        <ele>17.9218</ele>
        <time>2013-06-02T19:29:04Z</time>
      </trkpt>
      <trkpt lat="59.8923396" lon="17.7459771">
        <ele>18.4023</ele>
        <time>2013-06-02T19:29:05Z</time>
      </trkpt>
      <trkpt lat="59.8923787" lon="17.7458611">
        <ele>18.8831</ele>
        <time>2013-06-02T19:29:06Z</time>
      </trkpt>
      <trkpt lat="59.892417" lon="17.7457465">
        <ele>18.8831</ele>
        <time>2013-06-02T19:29:07Z</time>
      </trkpt>
      <trkpt lat="59.8924543" lon="17.7456329">
        <ele>19.3638</ele>
        <time>2013-06-02T19:29:08Z</time>
      </trkpt>
      <trkpt lat="59.8924907" lon="17.7455191">
        <ele>19.3638</ele>
        <time>2013-06-02T19:29:09Z</time>
      </trkpt>
      <trkpt lat="59.8925272" lon="17.7454008">
        <ele>21.2864</ele>
        <time>2013-06-02T19:29:10Z</time>
      </trkpt>
      <trkpt lat="59.8925627" lon="17.7452876">
        <ele>22.7283</ele>
        <time>2013-06-02T19:29:11Z</time>
      </trkpt>
      <trkpt lat="59.8925969" lon="17.7451773">
        <ele>24.1703</ele>
        <time>2013-06-02T19:29:12Z</time>
      </trkpt>
      <trkpt lat="59.8926299" lon="17.7450685">
        <ele>24.651</ele>
        <time>2013-06-02T19:29:13Z</time>
      </trkpt>
      <trkpt lat="59.892662" lon="17.7449628">
        <ele>25.6123</ele>
        <time>2013-06-02T19:29:14Z</time>
      </trkpt>
      <trkpt lat="59.8926936" lon="17.7448569">
        <ele>26.5736</ele>
        <time>2013-06-02T19:29:15Z</time>
      </trkpt>
      <trkpt lat="59.8927247" lon="17.744754">
        <ele>27.0543</ele>
        <time>2013-06-02T19:29:16Z</time>
      </trkpt>
      <trkpt lat="59.8927541" lon="17.74465">
        <ele>27.5349</ele>
        <time>2013-06-02T19:29:17Z</time>
      </trkpt>
      <trkpt lat="59.8927792" lon="17.7445489">
        <ele>28.4962</ele>
        <time>2013-06-02T19:29:18Z</time>
      </trkpt>
      <trkpt lat="59.8928036" lon="17.7444588">
        <ele>29.4575</ele>
        <time>2013-06-02T19:29:19Z</time>
      </trkpt>
      <trkpt lat="59.8928262" lon="17.7443727">
        <ele>28.4962</ele>
        <time>2013-06-02T19:29:20Z</time>
      </trkpt>
      <trkpt lat="59.8928475" lon="17.7442967">
        <ele>27.0543</ele>
        <time>2013-06-02T19:29:21Z</time>
      </trkpt>
      <trkpt lat="59.8928717" lon="17.7442287">
        <ele>25.1317</ele>
        <time>2013-06-02T19:29:22Z</time>
      </trkpt>
      <trkpt lat="59.8928975" lon="17.7441816">
        <ele>24.651</ele>
        <time>2013-06-02T19:29:23Z</time>
      </trkpt>
      <trkpt lat="59.8929221" lon="17.7441279">
        <ele>24.651</ele>
        <time>2013-06-02T19:29:24Z</time>
      </trkpt>
      <trkpt lat="59.8929413" lon="17.7440672">
        <ele>25.6123</ele>
        <time>2013-06-02T19:29:25Z</time>
      </trkpt>
      <trkpt lat="59.8929583" lon="17.7440072">
        <ele>25.6123</ele>
        <time>2013-06-02T19:29:26Z</time>
      </trkpt>
      <trkpt lat="59.8929765" lon="17.7439497">
        <ele>26.0929</ele>
        <time>2013-06-02T19:29:27Z</time>
      </trkpt>
      <trkpt lat="59.8929944" lon="17.7438921">
        <ele>25.6123</ele>
        <time>2013-06-02T19:29:28Z</time>
      </trkpt>
      <trkpt lat="59.8930122" lon="17.7438346">
        <ele>25.6123</ele>
        <time>2013-06-02T19:29:29Z</time>
      </trkpt>
      <trkpt lat="59.8930309" lon="17.7437745">
        <ele>26.0929</ele>
        <time>2013-06-02T19:29:30Z</time>
      </trkpt>
      <trkpt lat="59.8930478" lon="17.7437134">
        <ele>26.0929</ele>
        <time>2013-06-02T19:29:31Z</time>
      </trkpt>
      <trkpt lat="59.8930661" lon="17.7436492">
        <ele>26.0929</ele>
        <time>2013-06-02T19:29:32Z</time>
      </trkpt>
      <trkpt lat="59.893084" lon="17.7435866">
        <ele>25.6123</ele>
        <time>2013-06-02T19:29:33Z</time>
      </trkpt>
      <trkpt lat="59.8931037" lon="17.7435206">
        <ele>24.651</ele>
        <time>2013-06-02T19:29:34Z</time>
      </trkpt>
      <trkpt lat="59.8931252" lon="17.7434461">
        <ele>24.651</ele>
        <time>2013-06-02T19:29:35Z</time>
      </trkpt>
      <trkpt lat="59.8931475" lon="17.7433704">
        <ele>23.209</ele>
        <time>2013-06-02T19:29:36Z</time>
      </trkpt>
      <trkpt lat="59.8931712" lon="17.7432728">
        <ele>23.6896</ele>
        <time>2013-06-02T19:29:37Z</time>
      </trkpt>
      <trkpt lat="59.8931992" lon="17.7431701">
        <ele>23.209</ele>
        <time>2013-06-02T19:29:38Z</time>
      </trkpt>
      <trkpt lat="59.8932292" lon="17.7430765">
        <ele>23.6896</ele>
        <time>2013-06-02T19:29:39Z</time>
      </trkpt>
      <trkpt lat="59.8932587" lon="17.7429841">
        <ele>23.209</ele>
        <time>2013-06-02T19:29:40Z</time>
      </trkpt>
      <trkpt lat="59.8932925" lon="17.7428923">
        <ele>24.651</ele>
        <time>2013-06-02T19:29:41Z</time>
      </trkpt>
      <trkpt lat="59.8933272" lon="17.7427923">
        <ele>25.1317</ele>
        <time>2013-06-02T19:29:42Z</time>
      </trkpt>
      <trkpt lat="59.8933646" lon="17.7426857">
        <ele>25.6123</ele>
        <time>2013-06-02T19:29:43Z</time>
      </trkpt>
      <trkpt lat="59.8934013" lon="17.7425741">
        <ele>25.6123</ele>
        <time>2013-06-02T19:29:44Z</time>
      </trkpt>
      <trkpt lat="59.8934396" lon="17.7424572">
        <ele>25.1317</ele>
        <time>2013-06-02T19:29:45Z</time>
      </trkpt>
      <trkpt lat="59.8934788" lon="17.742337">
        <ele>25.1317</ele>
        <time>2013-06-02T19:29:46Z</time>
      </trkpt>
      <trkpt lat="59.8935188" lon="17.7422121">
        <ele>24.651</ele>
        <time>2013-06-02T19:29:47Z</time>
      </trkpt>
      <trkpt lat="59.8935592" lon="17.7420807">
        <ele>24.651</ele>
        <time>2013-06-02T19:29:48Z</time>
      </trkpt>
      <trkpt lat="59.8936001" lon="17.7419511">
        <ele>24.651</ele>
        <time>2013-06-02T19:29:49Z</time>
      </trkpt>
      <trkpt lat="59.8936359" lon="17.741823">
        <ele>22.7283</ele>
        <time>2013-06-02T19:29:50Z</time>
      </trkpt>
      <trkpt lat="59.8936733" lon="17.7416973">
        <ele>20.8057</ele>
        <time>2013-06-02T19:29:51Z</time>
      </trkpt>
      <trkpt lat="59.8937192" lon="17.7415759">
        <ele>21.2864</ele>
        <time>2013-06-02T19:29:52Z</time>
      </trkpt>
      <trkpt lat="59.8937606" lon="17.741451">
        <ele>22.2476</ele>
        <time>2013-06-02T19:29:53Z</time>
      </trkpt>
      <trkpt lat="59.8937968" lon="17.7413215">
        <ele>21.2864</ele>
        <time>2013-06-02T19:29:54Z</time>
      </trkpt>
      <trkpt lat="59.8938331" lon="17.7411984">
        <ele>20.8057</ele>
        <time>2013-06-02T19:29:55Z</time>
      </trkpt>
      <trkpt lat="59.8938684" lon="17.7410653">
        <ele>20.8057</ele>
        <time>2013-06-02T19:29:56Z</time>
      </trkpt>
      <trkpt lat="59.8939062" lon="17.7409571">
        <ele>20.8057</ele>
        <time>2013-06-02T19:29:57Z</time>
      </trkpt>
      <trkpt lat="59.893942" lon="17.7408489">
        <ele>20.8057</ele>
        <time>2013-06-02T19:29:58Z</time>
      </trkpt>
      <trkpt lat="59.8939752" lon="17.740732">
        <ele>21.2864</ele>
        <time>2013-06-02T19:29:59Z</time>
      </trkpt>
      <trkpt lat="59.8940104" lon="17.7406089">
        <ele>22.2476</ele>
        <time>2013-06-02T19:30:00Z</time>
      </trkpt>
      <trkpt lat="59.8940431" lon="17.7404924">
        <ele>22.2476</ele>
        <time>2013-06-02T19:30:01Z</time>
      </trkpt>
      <trkpt lat="59.8940784" lon="17.7403818">
        <ele>23.209</ele>
        <time>2013-06-02T19:30:02Z</time>
      </trkpt>
      <trkpt lat="59.8941103" lon="17.7402775">
        <ele>23.6896</ele>
        <time>2013-06-02T19:30:03Z</time>
      </trkpt>
      <trkpt lat="59.8941446" lon="17.7401706">
        <ele>25.1317</ele>
        <time>2013-06-02T19:30:04Z</time>
      </trkpt>
      <trkpt lat="59.8941793" lon="17.7400769">
        <ele>25.6123</ele>
        <time>2013-06-02T19:30:05Z</time>
      </trkpt>
      <trkpt lat="59.8942135" lon="17.7399973">
        <ele>26.5736</ele>
        <time>2013-06-02T19:30:06Z</time>
      </trkpt>
      <trkpt lat="59.8942454" lon="17.7399179">
        <ele>26.0929</ele>
        <time>2013-06-02T19:30:07Z</time>
      </trkpt>
      <trkpt lat="59.8942786" lon="17.7398441">
        <ele>25.6123</ele>
        <time>2013-06-02T19:30:08Z</time>
      </trkpt>
      <trkpt lat="59.894312" lon="17.7397667">
        <ele>27.5349</ele>
        <time>2013-06-02T19:30:09Z</time>
      </trkpt>
      <trkpt lat="59.8943465" lon="17.7397014">
        <ele>26.5736</ele>
        <time>2013-06-02T19:30:10Z</time>
      </trkpt>
      <trkpt lat="59.8943837" lon="17.739647">
        <ele>25.1317</ele>
        <time>2013-06-02T19:30:11Z</time>
      </trkpt>
      <trkpt lat="59.8944221" lon="17.7395942">
        <ele>25.1317</ele>
        <time>2013-06-02T19:30:12Z</time>
      </trkpt>
      <trkpt lat="59.8944629" lon="17.7395399">
        <ele>25.1317</ele>
        <time>2013-06-02T19:30:13Z</time>
      </trkpt>
      <trkpt lat="59.8945092" lon="17.7394873">
        <ele>24.1703</ele>
        <time>2013-06-02T19:30:14Z</time>
      </trkpt>
      <trkpt lat="59.8945631" lon="17.7394438">
        <ele>23.6896</ele>
        <time>2013-06-02T19:30:15Z</time>
      </trkpt>
      <trkpt lat="59.8946217" lon="17.7394004">
        <ele>23.6896</ele>
        <time>2013-06-02T19:30:16Z</time>
      </trkpt>
      <trkpt lat="59.8946852" lon="17.7393631">
        <ele>23.209</ele>
        <time>2013-06-02T19:30:17Z</time>
      </trkpt>
      <trkpt lat="59.8947511" lon="17.7393283">
        <ele>22.7283</ele>
        <time>2013-06-02T19:30:18Z</time>
      </trkpt>
      <trkpt lat="59.8948195" lon="17.7392911">
        <ele>22.2476</ele>
        <time>2013-06-02T19:30:19Z</time>
      </trkpt>
      <trkpt lat="59.8948914" lon="17.7392549">
        <ele>22.2476</ele>
        <time>2013-06-02T19:30:20Z</time>
      </trkpt>
      <trkpt lat="59.8949656" lon="17.7392226">
        <ele>22.2476</ele>
        <time>2013-06-02T19:30:21Z</time>
      </trkpt>
      <trkpt lat="59.8950437" lon="17.7391958">
        <ele>22.7283</ele>
        <time>2013-06-02T19:30:22Z</time>
      </trkpt>
      <trkpt lat="59.8951221" lon="17.7391742">
        <ele>22.2476</ele>
        <time>2013-06-02T19:30:23Z</time>
      </trkpt>
      <trkpt lat="59.8952003" lon="17.7391517">
        <ele>21.767</ele>
        <time>2013-06-02T19:30:24Z</time>
      </trkpt>
      <trkpt lat="59.895279" lon="17.7391298">
        <ele>21.2864</ele>
        <time>2013-06-02T19:30:25Z</time>
      </trkpt>
      <trkpt lat="59.8953596" lon="17.7391122">
        <ele>20.8057</ele>
        <time>2013-06-02T19:30:26Z</time>
      </trkpt>
      <trkpt lat="59.8954384" lon="17.7390948">
        <ele>19.8444</ele>
        <time>2013-06-02T19:30:27Z</time>
      </trkpt>
      <trkpt lat="59.8955173" lon="17.7390763">
        <ele>18.8831</ele>
        <time>2013-06-02T19:30:28Z</time>
      </trkpt>
      <trkpt lat="59.895596" lon="17.7390549">
        <ele>17.9218</ele>
        <time>2013-06-02T19:30:29Z</time>
      </trkpt>
      <trkpt lat="59.8956738" lon="17.7390311">
        <ele>16.9604</ele>
        <time>2013-06-02T19:30:30Z</time>
      </trkpt>
      <trkpt lat="59.8957535" lon="17.7390077">
        <ele>16.4797</ele>
        <time>2013-06-02T19:30:31Z</time>
      </trkpt>
      <trkpt lat="59.8958355" lon="17.7389839">
        <ele>16.4797</ele>
        <time>2013-06-02T19:30:32Z</time>
      </trkpt>
      <trkpt lat="59.8959152" lon="17.7389591">
        <ele>16.4797</ele>
        <time>2013-06-02T19:30:33Z</time>
      </trkpt>
      <trkpt lat="59.8959929" lon="17.7389352">
        <ele>16.9604</ele>
        <time>2013-06-02T19:30:34Z</time>
      </trkpt>
      <trkpt lat="59.8960696" lon="17.7389104">
        <ele>15.999</ele>
        <time>2013-06-02T19:30:35Z</time>
      </trkpt>
      <trkpt lat="59.8961457" lon="17.7388859">
        <ele>16.9604</ele>
        <time>2013-06-02T19:30:36Z</time>
      </trkpt>
      <trkpt lat="59.8962171" lon="17.7388642">
        <ele>15.999</ele>
        <time>2013-06-02T19:30:37Z</time>
      </trkpt>
      <trkpt lat="59.8962833" lon="17.7388483">
        <ele>15.5184</ele>
        <time>2013-06-02T19:30:38Z</time>
      </trkpt>
      <trkpt lat="59.8963457" lon="17.73883">
        <ele>15.0377</ele>
        <time>2013-06-02T19:30:39Z</time>
      </trkpt>
      <trkpt lat="59.8964036" lon="17.7387897">
        <ele>14.557</ele>
        <time>2013-06-02T19:30:40Z</time>
      </trkpt>
      <trkpt lat="59.8964564" lon="17.7387234">
        <ele>14.557</ele>
        <time>2013-06-02T19:30:41Z</time>
      </trkpt>
      <trkpt lat="59.8965023" lon="17.7386284">
        <ele>15.5184</ele>
        <time>2013-06-02T19:30:42Z</time>
      </trkpt>
      <trkpt lat="59.8965414" lon="17.738515">
        <ele>15.0377</ele>
        <time>2013-06-02T19:30:43Z</time>
      </trkpt>
      <trkpt lat="59.8965716" lon="17.7383886">
        <ele>15.0377</ele>
        <time>2013-06-02T19:30:44Z</time>
      </trkpt>
      <trkpt lat="59.8966029" lon="17.7382433">
        <ele>15.5184</ele>
        <time>2013-06-02T19:30:45Z</time>
      </trkpt>
      <trkpt lat="59.8966367" lon="17.7381098">
        <ele>15.5184</ele>
        <time>2013-06-02T19:30:46Z</time>
      </trkpt>
      <trkpt lat="59.8966709" lon="17.7379812">
        <ele>15.5184</ele>
        <time>2013-06-02T19:30:47Z</time>
      </trkpt>
      <trkpt lat="59.8967108" lon="17.7378614">
        <ele>15.5184</ele>
        <time>2013-06-02T19:30:48Z</time>
      </trkpt>
      <trkpt lat="59.8967507" lon="17.7377386">
        <ele>15.5184</ele>
        <time>2013-06-02T19:30:49Z</time>
      </trkpt>
      <trkpt lat="59.8967899" lon="17.7376141">
        <ele>14.557</ele>
        <time>2013-06-02T19:30:50Z</time>
      </trkpt>
      <trkpt lat="59.8968289" lon="17.7374905">
        <ele>14.557</ele>
        <time>2013-06-02T19:30:51Z</time>
      </trkpt>
      <trkpt lat="59.8968704" lon="17.7373694">
        <ele>15.0377</ele>
        <time>2013-06-02T19:30:52Z</time>
      </trkpt>
      <trkpt lat="59.8969122" lon="17.7372445">
        <ele>15.0377</ele>
        <time>2013-06-02T19:30:53Z</time>
      </trkpt>
      <trkpt lat="59.8969549" lon="17.7371124">
        <ele>15.0377</ele>
        <time>2013-06-02T19:30:54Z</time>
      </trkpt>
      <trkpt lat="59.8969978" lon="17.7369754">
        <ele>15.5184</ele>
        <time>2013-06-02T19:30:55Z</time>
      </trkpt>
      <trkpt lat="59.8970403" lon="17.7368327">
        <ele>15.999</ele>
        <time>2013-06-02T19:30:56Z</time>
      </trkpt>
      <trkpt lat="59.8970811" lon="17.7366897">
        <ele>15.999</ele>
        <time>2013-06-02T19:30:57Z</time>
      </trkpt>
      <trkpt lat="59.897116" lon="17.7365405">
        <ele>15.999</ele>
        <time>2013-06-02T19:30:58Z</time>
      </trkpt>
      <trkpt lat="59.8971444" lon="17.7363814">
        <ele>16.4797</ele>
        <time>2013-06-02T19:30:59Z</time>
      </trkpt>
      <trkpt lat="59.8971651" lon="17.7362182">
        <ele>15.999</ele>
        <time>2013-06-02T19:31:00Z</time>
      </trkpt>
      <trkpt lat="59.8971799" lon="17.7360464">
        <ele>17.4412</ele>
        <time>2013-06-02T19:31:01Z</time>
      </trkpt>
      <trkpt lat="59.897189" lon="17.7358812">
        <ele>18.8831</ele>
        <time>2013-06-02T19:31:02Z</time>
      </trkpt>
      <trkpt lat="59.8971939" lon="17.7357174">
        <ele>18.8831</ele>
        <time>2013-06-02T19:31:03Z</time>
      </trkpt>
      <trkpt lat="59.8971968" lon="17.7355579">
        <ele>19.3638</ele>
        <time>2013-06-02T19:31:04Z</time>
      </trkpt>
      <trkpt lat="59.8971976" lon="17.7353987">
        <ele>19.8444</ele>
        <time>2013-06-02T19:31:05Z</time>
      </trkpt>
      <trkpt lat="59.8972013" lon="17.7352393">
        <ele>20.325</ele>
        <time>2013-06-02T19:31:06Z</time>
      </trkpt>
      <trkpt lat="59.8972042" lon="17.7351045">
        <ele>20.8057</ele>
        <time>2013-06-02T19:31:07Z</time>
      </trkpt>
      <trkpt lat="59.8972136" lon="17.7349656">
        <ele>21.2864</ele>
        <time>2013-06-02T19:31:08Z</time>
      </trkpt>
      <trkpt lat="59.8972262" lon="17.7348275">
        <ele>20.8057</ele>
        <time>2013-06-02T19:31:09Z</time>
      </trkpt>
      <trkpt lat="59.8972423" lon="17.7346936">
        <ele>21.767</ele>
        <time>2013-06-02T19:31:10Z</time>
      </trkpt>
      <trkpt lat="59.8972557" lon="17.734557">
        <ele>22.7283</ele>
        <time>2013-06-02T19:31:11Z</time>
      </trkpt>
      <trkpt lat="59.8972759" lon="17.7344218">
        <ele>23.6896</ele>
        <time>2013-06-02T19:31:12Z</time>
      </trkpt>
      <trkpt lat="59.8972952" lon="17.7342937">
        <ele>24.1703</ele>
        <time>2013-06-02T19:31:13Z</time>
      </trkpt>
      <trkpt lat="59.8973205" lon="17.7341705">
        <ele>24.651</ele>
        <time>2013-06-02T19:31:14Z</time>
      </trkpt>
      <trkpt lat="59.8973473" lon="17.7340555">
        <ele>26.5736</ele>
        <time>2013-06-02T19:31:15Z</time>
      </trkpt>
      <trkpt lat="59.8973724" lon="17.7339261">
        <ele>27.0543</ele>
        <time>2013-06-02T19:31:16Z</time>
      </trkpt>
      <trkpt lat="59.8973951" lon="17.7337862">
        <ele>27.0543</ele>
        <time>2013-06-02T19:31:17Z</time>
      </trkpt>
      <trkpt lat="59.8974174" lon="17.7336473">
        <ele>26.5736</ele>
        <time>2013-06-02T19:31:18Z</time>
      </trkpt>
      <trkpt lat="59.8974429" lon="17.733523">
        <ele>26.5736</ele>
        <time>2013-06-02T19:31:19Z</time>
      </trkpt>
      <trkpt lat="59.8974643" lon="17.7333923">
        <ele>26.5736</ele>
        <time>2013-06-02T19:31:20Z</time>
      </trkpt>
      <trkpt lat="59.8974821" lon="17.7332579">
        <ele>26.5736</ele>
        <time>2013-06-02T19:31:21Z</time>
      </trkpt>
      <trkpt lat="59.8975002" lon="17.733131">
        <ele>27.0543</ele>
        <time>2013-06-02T19:31:22Z</time>
      </trkpt>
      <trkpt lat="59.8975149" lon="17.7330004">
        <ele>28.0155</ele>
        <time>2013-06-02T19:31:23Z</time>
      </trkpt>
      <trkpt lat="59.8975224" lon="17.732864">
        <ele>28.0155</ele>
        <time>2013-06-02T19:31:24Z</time>
      </trkpt>
      <trkpt lat="59.8975319" lon="17.7327252">
        <ele>27.5349</ele>
        <time>2013-06-02T19:31:25Z</time>
      </trkpt>
      <trkpt lat="59.8975427" lon="17.7325813">
        <ele>27.5349</ele>
        <time>2013-06-02T19:31:26Z</time>
      </trkpt>
      <trkpt lat="59.8975494" lon="17.7324387">
        <ele>26.0929</ele>
        <time>2013-06-02T19:31:27Z</time>
      </trkpt>
      <trkpt lat="59.8975588" lon="17.732301">
        <ele>25.6123</ele>
        <time>2013-06-02T19:31:28Z</time>
      </trkpt>
      <trkpt lat="59.8975632" lon="17.7321672">
        <ele>24.1703</ele>
        <time>2013-06-02T19:31:29Z</time>
      </trkpt>
      <trkpt lat="59.8975707" lon="17.7320317">
        <ele>23.209</ele>
        <time>2013-06-02T19:31:30Z</time>
      </trkpt>
      <trkpt lat="59.8975811" lon="17.7319008">
        <ele>22.2476</ele>
        <time>2013-06-02T19:31:31Z</time>
      </trkpt>
      <trkpt lat="59.8975934" lon="17.7317655">
        <ele>21.2864</ele>
        <time>2013-06-02T19:31:32Z</time>
      </trkpt>
      <trkpt lat="59.8976008" lon="17.7316205">
        <ele>20.8057</ele>
        <time>2013-06-02T19:31:33Z</time>
      </trkpt>
      <trkpt lat="59.8976132" lon="17.7314738">
        <ele>19.8444</ele>
        <time>2013-06-02T19:31:34Z</time>
      </trkpt>
      <trkpt lat="59.8976215" lon="17.7313288">
        <ele>19.3638</ele>
        <time>2013-06-02T19:31:35Z</time>
      </trkpt>
      <trkpt lat="59.8976332" lon="17.7312091">
        <ele>18.8831</ele>
        <time>2013-06-02T19:31:36Z</time>
      </trkpt>
      <trkpt lat="59.897637" lon="17.7310841">
        <ele>18.8831</ele>
        <time>2013-06-02T19:31:37Z</time>
      </trkpt>
      <trkpt lat="59.897638" lon="17.7309536">
        <ele>19.3638</ele>
        <time>2013-06-02T19:31:38Z</time>
      </trkpt>
      <trkpt lat="59.8976252" lon="17.7308268">
        <ele>19.8444</ele>
        <time>2013-06-02T19:31:39Z</time>
      </trkpt>
      <trkpt lat="59.8976162" lon="17.7306937">
        <ele>19.8444</ele>
        <time>2013-06-02T19:31:40Z</time>
      </trkpt>
      <trkpt lat="59.8976027" lon="17.7305569">
        <ele>19.8444</ele>
        <time>2013-06-02T19:31:41Z</time>
      </trkpt>
      <trkpt lat="59.8975855" lon="17.7304172">
        <ele>19.8444</ele>
        <time>2013-06-02T19:31:42Z</time>
      </trkpt>
      <trkpt lat="59.897566" lon="17.7302767">
        <ele>19.8444</ele>
        <time>2013-06-02T19:31:43Z</time>
      </trkpt>
      <trkpt lat="59.8975531" lon="17.7301283">
        <ele>20.325</ele>
        <time>2013-06-02T19:31:44Z</time>
      </trkpt>
      <trkpt lat="59.8975299" lon="17.7299629">
        <ele>20.8057</ele>
        <time>2013-06-02T19:31:45Z</time>
      </trkpt>
      <trkpt lat="59.8975241" lon="17.7297902">
        <ele>20.8057</ele>
        <time>2013-06-02T19:31:46Z</time>
      </trkpt>
      <trkpt lat="59.8975335" lon="17.7296177">
        <ele>20.8057</ele>
        <time>2013-06-02T19:31:47Z</time>
      </trkpt>
      <trkpt lat="59.8975484" lon="17.7294452">
        <ele>21.2864</ele>
        <time>2013-06-02T19:31:48Z</time>
      </trkpt>
      <trkpt lat="59.8975681" lon="17.7292722">
        <ele>21.2864</ele>
        <time>2013-06-02T19:31:49Z</time>
      </trkpt>
      <trkpt lat="59.8975933" lon="17.7291043">
        <ele>21.2864</ele>
        <time>2013-06-02T19:31:50Z</time>
      </trkpt>
      <trkpt lat="59.8976234" lon="17.7289448">
        <ele>21.2864</ele>
        <time>2013-06-02T19:31:51Z</time>
      </trkpt>
      <trkpt lat="59.8976556" lon="17.7287952">
        <ele>21.2864</ele>
        <time>2013-06-02T19:31:52Z</time>
      </trkpt>
      <trkpt lat="59.8976868" lon="17.7286464">
        <ele>21.767</ele>
        <time>2013-06-02T19:31:53Z</time>
      </trkpt>
      <trkpt lat="59.8977181" lon="17.7284987">
        <ele>21.767</ele>
        <time>2013-06-02T19:31:54Z</time>
      </trkpt>
      <trkpt lat="59.8977484" lon="17.7283527">
        <ele>21.767</ele>
        <time>2013-06-02T19:31:55Z</time>
      </trkpt>
      <trkpt lat="59.8977801" lon="17.7282094">
        <ele>22.2476</ele>
        <time>2013-06-02T19:31:56Z</time>
      </trkpt>
      <trkpt lat="59.8978147" lon="17.7280685">
        <ele>22.2476</ele>
        <time>2013-06-02T19:31:57Z</time>
      </trkpt>
      <trkpt lat="59.8978521" lon="17.7279309">
        <ele>22.2476</ele>
        <time>2013-06-02T19:31:58Z</time>
      </trkpt>
      <trkpt lat="59.897894" lon="17.7277978">
        <ele>22.2476</ele>
        <time>2013-06-02T19:31:59Z</time>
      </trkpt>
      <trkpt lat="59.8979393" lon="17.7276684">
        <ele>22.7283</ele>
        <time>2013-06-02T19:32:00Z</time>
      </trkpt>
      <trkpt lat="59.8979866" lon="17.7275437">
        <ele>23.209</ele>
        <time>2013-06-02T19:32:01Z</time>
      </trkpt>
      <trkpt lat="59.8980337" lon="17.7274228">
        <ele>23.209</ele>
        <time>2013-06-02T19:32:02Z</time>
      </trkpt>
      <trkpt lat="59.8980799" lon="17.7273027">
        <ele>23.6896</ele>
        <time>2013-06-02T19:32:03Z</time>
      </trkpt>
      <trkpt lat="59.8981256" lon="17.7271835">
        <ele>23.6896</ele>
        <time>2013-06-02T19:32:04Z</time>
      </trkpt>
      <trkpt lat="59.8981703" lon="17.727063">
        <ele>24.1703</ele>
        <time>2013-06-02T19:32:05Z</time>
      </trkpt>
      <trkpt lat="59.8982125" lon="17.7269397">
        <ele>24.651</ele>
        <time>2013-06-02T19:32:06Z</time>
      </trkpt>
      <trkpt lat="59.8982529" lon="17.7268117">
        <ele>24.651</ele>
        <time>2013-06-02T19:32:07Z</time>
      </trkpt>
      <trkpt lat="59.8982917" lon="17.7266805">
        <ele>25.1317</ele>
        <time>2013-06-02T19:32:08Z</time>
      </trkpt>
      <trkpt lat="59.8983292" lon="17.7265471">
        <ele>25.1317</ele>
        <time>2013-06-02T19:32:09Z</time>
      </trkpt>
      <trkpt lat="59.8983638" lon="17.7264165">
        <ele>25.1317</ele>
        <time>2013-06-02T19:32:10Z</time>
      </trkpt>
      <trkpt lat="59.8983973" lon="17.7262864">
        <ele>24.651</ele>
        <time>2013-06-02T19:32:11Z</time>
      </trkpt>
      <trkpt lat="59.8984293" lon="17.7261552">
        <ele>24.651</ele>
        <time>2013-06-02T19:32:12Z</time>
      </trkpt>
      <trkpt lat="59.8984595" lon="17.7260257">
        <ele>24.1703</ele>
        <time>2013-06-02T19:32:13Z</time>
      </trkpt>
      <trkpt lat="59.8984884" lon="17.7258964">
        <ele>23.6896</ele>
        <time>2013-06-02T19:32:14Z</time>
      </trkpt>
      <trkpt lat="59.898516" lon="17.7257653">
        <ele>23.209</ele>
        <time>2013-06-02T19:32:15Z</time>
      </trkpt>
      <trkpt lat="59.8985415" lon="17.7256322">
        <ele>22.7283</ele>
        <time>2013-06-02T19:32:16Z</time>
      </trkpt>
      <trkpt lat="59.8985647" lon="17.7254981">
        <ele>22.2476</ele>
        <time>2013-06-02T19:32:17Z</time>
      </trkpt>
      <trkpt lat="59.8985865" lon="17.7253632">
        <ele>21.2864</ele>
        <time>2013-06-02T19:32:18Z</time>
      </trkpt>
      <trkpt lat="59.8986086" lon="17.7252271">
        <ele>21.767</ele>
        <time>2013-06-02T19:32:19Z</time>
      </trkpt>
      <trkpt lat="59.8986299" lon="17.7250905">
        <ele>21.2864</ele>
        <time>2013-06-02T19:32:20Z</time>
      </trkpt>
      <trkpt lat="59.8986511" lon="17.7249545">
        <ele>21.767</ele>
        <time>2013-06-02T19:32:21Z</time>
      </trkpt>
      <trkpt lat="59.898672" lon="17.7248193">
        <ele>21.767</ele>
        <time>2013-06-02T19:32:22Z</time>
      </trkpt>
      <trkpt lat="59.8986933" lon="17.7246842">
        <ele>22.2476</ele>
        <time>2013-06-02T19:32:23Z</time>
      </trkpt>
      <trkpt lat="59.898715" lon="17.724549">
        <ele>20.325</ele>
        <time>2013-06-02T19:32:24Z</time>
      </trkpt>
      <trkpt lat="59.8987358" lon="17.7244161">
        <ele>20.325</ele>
        <time>2013-06-02T19:32:25Z</time>
      </trkpt>
      <trkpt lat="59.898755" lon="17.7242855">
        <ele>20.8057</ele>
        <time>2013-06-02T19:32:26Z</time>
      </trkpt>
      <trkpt lat="59.8987736" lon="17.7241569">
        <ele>20.8057</ele>
        <time>2013-06-02T19:32:27Z</time>
      </trkpt>
      <trkpt lat="59.8987938" lon="17.7240291">
        <ele>21.2864</ele>
        <time>2013-06-02T19:32:28Z</time>
      </trkpt>
      <trkpt lat="59.8988145" lon="17.723901">
        <ele>21.2864</ele>
        <time>2013-06-02T19:32:29Z</time>
      </trkpt>
      <trkpt lat="59.8988357" lon="17.7237724">
        <ele>21.2864</ele>
        <time>2013-06-02T19:32:30Z</time>
      </trkpt>
      <trkpt lat="59.8988562" lon="17.7236444">
        <ele>21.767</ele>
        <time>2013-06-02T19:32:31Z</time>
      </trkpt>
      <trkpt lat="59.8988756" lon="17.7235177">
        <ele>21.767</ele>
        <time>2013-06-02T19:32:32Z</time>
      </trkpt>
      <trkpt lat="59.898894" lon="17.7233923">
        <ele>21.767</ele>
        <time>2013-06-02T19:32:33Z</time>
      </trkpt>
      <trkpt lat="59.8989116" lon="17.7232692">
        <ele>21.767</ele>
        <time>2013-06-02T19:32:34Z</time>
      </trkpt>
      <trkpt lat="59.8989294" lon="17.7231479">
        <ele>21.767</ele>
        <time>2013-06-02T19:32:35Z</time>
      </trkpt>
      <trkpt lat="59.8989477" lon="17.7230265">
        <ele>21.767</ele>
        <time>2013-06-02T19:32:36Z</time>
      </trkpt>
      <trkpt lat="59.8989679" lon="17.7229066">
        <ele>22.2476</ele>
        <time>2013-06-02T19:32:37Z</time>
      </trkpt>
      <trkpt lat="59.8989878" lon="17.7227847">
        <ele>21.767</ele>
        <time>2013-06-02T19:32:38Z</time>
      </trkpt>
      <trkpt lat="59.8990055" lon="17.7226605">
        <ele>21.2864</ele>
        <time>2013-06-02T19:32:39Z</time>
      </trkpt>
      <trkpt lat="59.8990242" lon="17.7225367">
        <ele>20.8057</ele>
        <time>2013-06-02T19:32:40Z</time>
      </trkpt>
      <trkpt lat="59.8990429" lon="17.7224175">
        <ele>20.8057</ele>
        <time>2013-06-02T19:32:41Z</time>
      </trkpt>
      <trkpt lat="59.8990601" lon="17.7222962">
        <ele>20.8057</ele>
        <time>2013-06-02T19:32:42Z</time>
      </trkpt>
      <trkpt lat="59.8990769" lon="17.7221729">
        <ele>20.8057</ele>
        <time>2013-06-02T19:32:43Z</time>
      </trkpt>
      <trkpt lat="59.8990936" lon="17.7220493">
        <ele>20.8057</ele>
        <time>2013-06-02T19:32:44Z</time>
      </trkpt>
      <trkpt lat="59.8991107" lon="17.7219269">
        <ele>21.2864</ele>
        <time>2013-06-02T19:32:45Z</time>
      </trkpt>
      <trkpt lat="59.8991284" lon="17.7218062">
        <ele>21.767</ele>
        <time>2013-06-02T19:32:46Z</time>
      </trkpt>
      <trkpt lat="59.8991465" lon="17.7216879">
        <ele>22.2476</ele>
        <time>2013-06-02T19:32:47Z</time>
      </trkpt>
      <trkpt lat="59.8991654" lon="17.7215701">
        <ele>22.2476</ele>
        <time>2013-06-02T19:32:48Z</time>
      </trkpt>
      <trkpt lat="59.8991838" lon="17.7214509">
        <ele>22.7283</ele>
        <time>2013-06-02T19:32:49Z</time>
      </trkpt>
      <trkpt lat="59.8992023" lon="17.7213301">
        <ele>22.7283</ele>
        <time>2013-06-02T19:32:50Z</time>
      </trkpt>
      <trkpt lat="59.8992214" lon="17.721208">
        <ele>23.209</ele>
        <time>2013-06-02T19:32:51Z</time>
      </trkpt>
      <trkpt lat="59.8992413" lon="17.7210842">
        <ele>23.6896</ele>
        <time>2013-06-02T19:32:52Z</time>
      </trkpt>
      <trkpt lat="59.899263" lon="17.7209614">
        <ele>24.1703</ele>
        <time>2013-06-02T19:32:53Z</time>
      </trkpt>
      <trkpt lat="59.8992858" lon="17.7208407">
        <ele>24.1703</ele>
        <time>2013-06-02T19:32:54Z</time>
      </trkpt>
      <trkpt lat="59.8993113" lon="17.7207219">
        <ele>24.1703</ele>
        <time>2013-06-02T19:32:55Z</time>
      </trkpt>
      <trkpt lat="59.8993364" lon="17.7205999">
        <ele>24.651</ele>
        <time>2013-06-02T19:32:56Z</time>
      </trkpt>
      <trkpt lat="59.8993609" lon="17.7204771">
        <ele>24.1703</ele>
        <time>2013-06-02T19:32:57Z</time>
      </trkpt>
      <trkpt lat="59.8993858" lon="17.7203538">
        <ele>24.1703</ele>
        <time>2013-06-02T19:32:58Z</time>
      </trkpt>
      <trkpt lat="59.8994107" lon="17.7202313">
        <ele>24.1703</ele>
        <time>2013-06-02T19:32:59Z</time>
      </trkpt>
      <trkpt lat="59.8994358" lon="17.7201078">
        <ele>24.1703</ele>
        <time>2013-06-02T19:33:00Z</time>
      </trkpt>
      <trkpt lat="59.8994597" lon="17.7199824">
        <ele>24.1703</ele>
        <time>2013-06-02T19:33:01Z</time>
      </trkpt>
      <trkpt lat="59.8994847" lon="17.7198576">
        <ele>24.1703</ele>
        <time>2013-06-02T19:33:02Z</time>
      </trkpt>
      <trkpt lat="59.8995111" lon="17.7197399">
        <ele>24.1703</ele>
        <time>2013-06-02T19:33:03Z</time>
      </trkpt>
      <trkpt lat="59.89954" lon="17.7196253">
        <ele>24.651</ele>
        <time>2013-06-02T19:33:04Z</time>
      </trkpt>
      <trkpt lat="59.8995681" lon="17.7194995">
        <ele>25.6123</ele>
        <time>2013-06-02T19:33:05Z</time>
      </trkpt>
      <trkpt lat="59.8995936" lon="17.7193757">
        <ele>25.6123</ele>
        <time>2013-06-02T19:33:06Z</time>
      </trkpt>
      <trkpt lat="59.8996223" lon="17.719252">
        <ele>26.0929</ele>
        <time>2013-06-02T19:33:07Z</time>
      </trkpt>
      <trkpt lat="59.8996551" lon="17.7191281">
        <ele>26.0929</ele>
        <time>2013-06-02T19:33:08Z</time>
      </trkpt>
      <trkpt lat="59.8996893" lon="17.7190032">
        <ele>26.5736</ele>
        <time>2013-06-02T19:33:09Z</time>
      </trkpt>
      <trkpt lat="59.8997282" lon="17.7188872">
        <ele>26.5736</ele>
        <time>2013-06-02T19:33:10Z</time>
      </trkpt>
      <trkpt lat="59.8997668" lon="17.7187743">
        <ele>23.6896</ele>
        <time>2013-06-02T19:33:11Z</time>
      </trkpt>
      <trkpt lat="59.8998045" lon="17.7186505">
        <ele>23.209</ele>
        <time>2013-06-02T19:33:12Z</time>
      </trkpt>
      <trkpt lat="59.899842" lon="17.7185231">
        <ele>20.325</ele>
        <time>2013-06-02T19:33:13Z</time>
      </trkpt>
      <trkpt lat="59.8998805" lon="17.7183993">
        <ele>18.8831</ele>
        <time>2013-06-02T19:33:14Z</time>
      </trkpt>
      <trkpt lat="59.8999199" lon="17.7182739">
        <ele>17.9218</ele>
        <time>2013-06-02T19:33:15Z</time>
      </trkpt>
      <trkpt lat="59.8999572" lon="17.7181521">
        <ele>17.4412</ele>
        <time>2013-06-02T19:33:16Z</time>
      </trkpt>
      <trkpt lat="59.8999899" lon="17.7180288">
        <ele>16.9604</ele>
        <time>2013-06-02T19:33:17Z</time>
      </trkpt>
      <trkpt lat="59.9000191" lon="17.7178989">
        <ele>15.999</ele>
        <time>2013-06-02T19:33:18Z</time>
      </trkpt>
      <trkpt lat="59.9000406" lon="17.7177754">
        <ele>15.0377</ele>
        <time>2013-06-02T19:33:19Z</time>
      </trkpt>
      <trkpt lat="59.9000634" lon="17.7176446">
        <ele>15.5184</ele>
        <time>2013-06-02T19:33:20Z</time>
      </trkpt>
      <trkpt lat="59.9000799" lon="17.7175017">
        <ele>15.999</ele>
        <time>2013-06-02T19:33:21Z</time>
      </trkpt>
      <trkpt lat="59.9000916" lon="17.717362">
        <ele>16.4797</ele>
        <time>2013-06-02T19:33:22Z</time>
      </trkpt>
      <trkpt lat="59.9001004" lon="17.7172167">
        <ele>16.4797</ele>
        <time>2013-06-02T19:33:23Z</time>
      </trkpt>
      <trkpt lat="59.900108" lon="17.7170675">
        <ele>16.9604</ele>
        <time>2013-06-02T19:33:24Z</time>
      </trkpt>
      <trkpt lat="59.9001156" lon="17.7169146">
        <ele>16.9604</ele>
        <time>2013-06-02T19:33:25Z</time>
      </trkpt>
      <trkpt lat="59.9001219" lon="17.7167538">
        <ele>17.9218</ele>
        <time>2013-06-02T19:33:26Z</time>
      </trkpt>
      <trkpt lat="59.9001267" lon="17.7166079">
        <ele>16.9604</ele>
        <time>2013-06-02T19:33:27Z</time>
      </trkpt>
      <trkpt lat="59.9001331" lon="17.7164629">
        <ele>15.999</ele>
        <time>2013-06-02T19:33:28Z</time>
      </trkpt>
      <trkpt lat="59.9001431" lon="17.7163203">
        <ele>15.999</ele>
        <time>2013-06-02T19:33:29Z</time>
      </trkpt>
      <trkpt lat="59.9001554" lon="17.7161809">
        <ele>15.999</ele>
        <time>2013-06-02T19:33:30Z</time>
      </trkpt>
      <trkpt lat="59.9001689" lon="17.7160378">
        <ele>16.4797</ele>
        <time>2013-06-02T19:33:31Z</time>
      </trkpt>
      <trkpt lat="59.9001841" lon="17.7158969">
        <ele>16.4797</ele>
        <time>2013-06-02T19:33:32Z</time>
      </trkpt>
      <trkpt lat="59.9002031" lon="17.7157625">
        <ele>16.9604</ele>
        <time>2013-06-02T19:33:33Z</time>
      </trkpt>
      <trkpt lat="59.900225" lon="17.7156273">
        <ele>17.4412</ele>
        <time>2013-06-02T19:33:34Z</time>
      </trkpt>
      <trkpt lat="59.900251" lon="17.7154912">
        <ele>17.9218</ele>
        <time>2013-06-02T19:33:35Z</time>
      </trkpt>
      <trkpt lat="59.9002799" lon="17.7153544">
        <ele>18.4023</ele>
        <time>2013-06-02T19:33:36Z</time>
      </trkpt>
      <trkpt lat="59.9003108" lon="17.7152174">
        <ele>18.8831</ele>
        <time>2013-06-02T19:33:37Z</time>
      </trkpt>
      <trkpt lat="59.9003415" lon="17.7150786">
        <ele>19.3638</ele>
        <time>2013-06-02T19:33:38Z</time>
      </trkpt>
      <trkpt lat="59.9003742" lon="17.7149409">
        <ele>19.3638</ele>
        <time>2013-06-02T19:33:39Z</time>
      </trkpt>
      <trkpt lat="59.9004087" lon="17.7148051">
        <ele>19.8444</ele>
        <time>2013-06-02T19:33:40Z</time>
      </trkpt>
      <trkpt lat="59.9004434" lon="17.7146675">
        <ele>20.325</ele>
        <time>2013-06-02T19:33:41Z</time>
      </trkpt>
      <trkpt lat="59.9004794" lon="17.7145313">
        <ele>20.8057</ele>
        <time>2013-06-02T19:33:42Z</time>
      </trkpt>
      <trkpt lat="59.9005214" lon="17.7143993">
        <ele>21.2864</ele>
        <time>2013-06-02T19:33:43Z</time>
      </trkpt>
      <trkpt lat="59.9005648" lon="17.7142688">
        <ele>21.2864</ele>
        <time>2013-06-02T19:33:44Z</time>
      </trkpt>
      <trkpt lat="59.9006071" lon="17.7141391">
        <ele>21.767</ele>
        <time>2013-06-02T19:33:45Z</time>
      </trkpt>
      <trkpt lat="59.900648" lon="17.7140117">
        <ele>21.767</ele>
        <time>2013-06-02T19:33:46Z</time>
      </trkpt>
      <trkpt lat="59.9006895" lon="17.7138867">
        <ele>21.767</ele>
        <time>2013-06-02T19:33:47Z</time>
      </trkpt>
      <trkpt lat="59.9007272" lon="17.7137688">
        <ele>18.8831</ele>
        <time>2013-06-02T19:33:48Z</time>
      </trkpt>
      <trkpt lat="59.9007642" lon="17.71365">
        <ele>18.4023</ele>
        <time>2013-06-02T19:33:49Z</time>
      </trkpt>
      <trkpt lat="59.9008034" lon="17.7135351">
        <ele>18.4023</ele>
        <time>2013-06-02T19:33:50Z</time>
      </trkpt>
      <trkpt lat="59.9008425" lon="17.7134189">
        <ele>18.8831</ele>
        <time>2013-06-02T19:33:51Z</time>
      </trkpt>
      <trkpt lat="59.9008809" lon="17.7133032">
        <ele>18.8831</ele>
        <time>2013-06-02T19:33:52Z</time>
      </trkpt>
      <trkpt lat="59.9009155" lon="17.7131877">
        <ele>18.4023</ele>
        <time>2013-06-02T19:33:53Z</time>
      </trkpt>
      <trkpt lat="59.90095" lon="17.7130772">
        <ele>18.4023</ele>
        <time>2013-06-02T19:33:54Z</time>
      </trkpt>
      <trkpt lat="59.9009829" lon="17.7129731">
        <ele>18.4023</ele>
        <time>2013-06-02T19:33:55Z</time>
      </trkpt>
      <trkpt lat="59.9010102" lon="17.7128696">
        <ele>18.4023</ele>
        <time>2013-06-02T19:33:56Z</time>
      </trkpt>
      <trkpt lat="59.9010321" lon="17.7127678">
        <ele>18.4023</ele>
        <time>2013-06-02T19:33:57Z</time>
      </trkpt>
      <trkpt lat="59.9010449" lon="17.7126663">
        <ele>18.4023</ele>
        <time>2013-06-02T19:33:58Z</time>
      </trkpt>
      <trkpt lat="59.9010247" lon="17.7125374">
        <ele>18.4023</ele>
        <time>2013-06-02T19:33:59Z</time>
      </trkpt>
      <trkpt lat="59.9009849" lon="17.712415">
        <ele>18.8831</ele>
        <time>2013-06-02T19:34:00Z</time>
      </trkpt>
      <trkpt lat="59.9009471" lon="17.7123675">
        <ele>19.3638</ele>
        <time>2013-06-02T19:34:01Z</time>
      </trkpt>
      <trkpt lat="59.9008966" lon="17.7123221">
        <ele>19.8444</ele>
        <time>2013-06-02T19:34:02Z</time>
      </trkpt>
      <trkpt lat="59.9008438" lon="17.7122727">
        <ele>20.325</ele>
        <time>2013-06-02T19:34:03Z</time>
      </trkpt>
      <trkpt lat="59.9007911" lon="17.7122158">
        <ele>20.325</ele>
        <time>2013-06-02T19:34:04Z</time>
      </trkpt>
      <trkpt lat="59.9007387" lon="17.7121566">
        <ele>20.8057</ele>
        <time>2013-06-02T19:34:05Z</time>
      </trkpt>
      <trkpt lat="59.9006844" lon="17.7120957">
        <ele>21.2864</ele>
        <time>2013-06-02T19:34:06Z</time>
      </trkpt>
      <trkpt lat="59.9006271" lon="17.7120402">
        <ele>21.2864</ele>
        <time>2013-06-02T19:34:07Z</time>
      </trkpt>
      <trkpt lat="59.9005685" lon="17.7119833">
        <ele>21.767</ele>
        <time>2013-06-02T19:34:08Z</time>
      </trkpt>
      <trkpt lat="59.9005089" lon="17.7119236">
        <ele>22.2476</ele>
        <time>2013-06-02T19:34:09Z</time>
      </trkpt>
      <trkpt lat="59.9004486" lon="17.711862">
        <ele>22.7283</ele>
        <time>2013-06-02T19:34:10Z</time>
      </trkpt>
      <trkpt lat="59.9003876" lon="17.7117975">
        <ele>23.209</ele>
        <time>2013-06-02T19:34:11Z</time>
      </trkpt>
      <trkpt lat="59.9003261" lon="17.7117297">
        <ele>23.209</ele>
        <time>2013-06-02T19:34:12Z</time>
      </trkpt>
      <trkpt lat="59.9002628" lon="17.7116631">
        <ele>23.6896</ele>
        <time>2013-06-02T19:34:13Z</time>
      </trkpt>
      <trkpt lat="59.9001985" lon="17.7115948">
        <ele>24.1703</ele>
        <time>2013-06-02T19:34:14Z</time>
      </trkpt>
      <trkpt lat="59.9001343" lon="17.7115251">
        <ele>24.1703</ele>
        <time>2013-06-02T19:34:15Z</time>
      </trkpt>
      <trkpt lat="59.9000691" lon="17.7114558">
        <ele>24.651</ele>
        <time>2013-06-02T19:34:16Z</time>
      </trkpt>
      <trkpt lat="59.9000033" lon="17.7113853">
        <ele>25.1317</ele>
        <time>2013-06-02T19:34:17Z</time>
      </trkpt>
      <trkpt lat="59.8999378" lon="17.7113125">
        <ele>25.1317</ele>
        <time>2013-06-02T19:34:18Z</time>
      </trkpt>
      <trkpt lat="59.8998715" lon="17.7112398">
        <ele>25.1317</ele>
        <time>2013-06-02T19:34:19Z</time>
      </trkpt>
      <trkpt lat="59.8998062" lon="17.7111659">
        <ele>25.6123</ele>
        <time>2013-06-02T19:34:20Z</time>
      </trkpt>
      <trkpt lat="59.8997428" lon="17.711088">
        <ele>23.209</ele>
        <time>2013-06-02T19:34:21Z</time>
      </trkpt>
      <trkpt lat="59.8996843" lon="17.7110164">
        <ele>22.7283</ele>
        <time>2013-06-02T19:34:22Z</time>
      </trkpt>
      <trkpt lat="59.8996262" lon="17.7109436">
        <ele>22.7283</ele>
        <time>2013-06-02T19:34:23Z</time>
      </trkpt>
      <trkpt lat="59.8995653" lon="17.7108755">
        <ele>23.209</ele>
        <time>2013-06-02T19:34:24Z</time>
      </trkpt>
      <trkpt lat="59.8995016" lon="17.7108064">
        <ele>23.209</ele>
        <time>2013-06-02T19:34:25Z</time>
      </trkpt>
      <trkpt lat="59.899436" lon="17.7107338">
        <ele>23.209</ele>
        <time>2013-06-02T19:34:26Z</time>
      </trkpt>
      <trkpt lat="59.8993739" lon="17.7106566">
        <ele>23.6896</ele>
        <time>2013-06-02T19:34:27Z</time>
      </trkpt>
      <trkpt lat="59.8993128" lon="17.7105773">
        <ele>24.1703</ele>
        <time>2013-06-02T19:34:28Z</time>
      </trkpt>
      <trkpt lat="59.8992507" lon="17.7104944">
        <ele>24.651</ele>
        <time>2013-06-02T19:34:29Z</time>
      </trkpt>
      <trkpt lat="59.8991873" lon="17.710409">
        <ele>24.651</ele>
        <time>2013-06-02T19:34:30Z</time>
      </trkpt>
      <trkpt lat="59.8991231" lon="17.7103219">
        <ele>25.1317</ele>
        <time>2013-06-02T19:34:31Z</time>
      </trkpt>
      <trkpt lat="59.8990594" lon="17.7102383">
        <ele>25.6123</ele>
        <time>2013-06-02T19:34:32Z</time>
      </trkpt>
      <trkpt lat="59.8989957" lon="17.7101525">
        <ele>26.0929</ele>
        <time>2013-06-02T19:34:33Z</time>
      </trkpt>
      <trkpt lat="59.8989319" lon="17.7100669">
        <ele>26.0929</ele>
        <time>2013-06-02T19:34:34Z</time>
      </trkpt>
      <trkpt lat="59.8988658" lon="17.7099831">
        <ele>26.0929</ele>
        <time>2013-06-02T19:34:35Z</time>
      </trkpt>
      <trkpt lat="59.8987989" lon="17.7098992">
        <ele>26.5736</ele>
        <time>2013-06-02T19:34:36Z</time>
      </trkpt>
      <trkpt lat="59.898732" lon="17.7098151">
        <ele>26.5736</ele>
        <time>2013-06-02T19:34:37Z</time>
      </trkpt>
      <trkpt lat="59.8986638" lon="17.7097298">
        <ele>27.0543</ele>
        <time>2013-06-02T19:34:38Z</time>
      </trkpt>
      <trkpt lat="59.8985949" lon="17.7096406">
        <ele>27.5349</ele>
        <time>2013-06-02T19:34:39Z</time>
      </trkpt>
      <trkpt lat="59.8985267" lon="17.7095494">
        <ele>27.5349</ele>
        <time>2013-06-02T19:34:40Z</time>
      </trkpt>
      <trkpt lat="59.8984579" lon="17.7094577">
        <ele>28.0155</ele>
        <time>2013-06-02T19:34:41Z</time>
      </trkpt>
      <trkpt lat="59.8983886" lon="17.7093645">
        <ele>28.0155</ele>
        <time>2013-06-02T19:34:42Z</time>
      </trkpt>
      <trkpt lat="59.8983197" lon="17.7092718">
        <ele>28.0155</ele>
        <time>2013-06-02T19:34:43Z</time>
      </trkpt>
      <trkpt lat="59.8982506" lon="17.7091807">
        <ele>28.0155</ele>
        <time>2013-06-02T19:34:44Z</time>
      </trkpt>
      <trkpt lat="59.898181" lon="17.7090891">
        <ele>28.4962</ele>
        <time>2013-06-02T19:34:45Z</time>
      </trkpt>
      <trkpt lat="59.898112" lon="17.7089958">
        <ele>28.4962</ele>
        <time>2013-06-02T19:34:46Z</time>
      </trkpt>
      <trkpt lat="59.8980426" lon="17.7089026">
        <ele>28.4962</ele>
        <time>2013-06-02T19:34:47Z</time>
      </trkpt>
      <trkpt lat="59.8979719" lon="17.7088098">
        <ele>28.4962</ele>
        <time>2013-06-02T19:34:48Z</time>
      </trkpt>
      <trkpt lat="59.8979" lon="17.7087185">
        <ele>28.4962</ele>
        <time>2013-06-02T19:34:49Z</time>
      </trkpt>
      <trkpt lat="59.8978276" lon="17.7086301">
        <ele>28.4962</ele>
        <time>2013-06-02T19:34:50Z</time>
      </trkpt>
      <trkpt lat="59.8977554" lon="17.7085445">
        <ele>28.4962</ele>
        <time>2013-06-02T19:34:51Z</time>
      </trkpt>
      <trkpt lat="59.8976836" lon="17.7084617">
        <ele>28.4962</ele>
        <time>2013-06-02T19:34:52Z</time>
      </trkpt>
      <trkpt lat="59.8976116" lon="17.7083845">
        <ele>28.9769</ele>
        <time>2013-06-02T19:34:53Z</time>
      </trkpt>
      <trkpt lat="59.8975417" lon="17.7082977">
        <ele>28.9769</ele>
        <time>2013-06-02T19:34:54Z</time>
      </trkpt>
      <trkpt lat="59.8974774" lon="17.7081955">
        <ele>28.4962</ele>
        <time>2013-06-02T19:34:55Z</time>
      </trkpt>
      <trkpt lat="59.8974151" lon="17.708092">
        <ele>28.4962</ele>
        <time>2013-06-02T19:34:56Z</time>
      </trkpt>
      <trkpt lat="59.8973536" lon="17.7079793">
        <ele>27.5349</ele>
        <time>2013-06-02T19:34:57Z</time>
      </trkpt>
      <trkpt lat="59.8972909" lon="17.7078691">
        <ele>26.5736</ele>
        <time>2013-06-02T19:34:58Z</time>
      </trkpt>
      <trkpt lat="59.8972246" lon="17.7077728">
        <ele>26.5736</ele>
        <time>2013-06-02T19:34:59Z</time>
      </trkpt>
      <trkpt lat="59.8971577" lon="17.7076811">
        <ele>26.5736</ele>
        <time>2013-06-02T19:35:00Z</time>
      </trkpt>
      <trkpt lat="59.8970894" lon="17.7075925">
        <ele>27.0543</ele>
        <time>2013-06-02T19:35:01Z</time>
      </trkpt>
      <trkpt lat="59.8970198" lon="17.7075041">
        <ele>27.0543</ele>
        <time>2013-06-02T19:35:02Z</time>
      </trkpt>
      <trkpt lat="59.8969496" lon="17.7074178">
        <ele>27.5349</ele>
        <time>2013-06-02T19:35:03Z</time>
      </trkpt>
      <trkpt lat="59.8968791" lon="17.7073331">
        <ele>28.4962</ele>
        <time>2013-06-02T19:35:04Z</time>
      </trkpt>
      <trkpt lat="59.8968106" lon="17.7072456">
        <ele>28.4962</ele>
        <time>2013-06-02T19:35:05Z</time>
      </trkpt>
      <trkpt lat="59.8967446" lon="17.7071512">
        <ele>28.0155</ele>
        <time>2013-06-02T19:35:06Z</time>
      </trkpt>
      <trkpt lat="59.8966802" lon="17.7070508">
        <ele>27.0543</ele>
        <time>2013-06-02T19:35:07Z</time>
      </trkpt>
      <trkpt lat="59.8966144" lon="17.7069553">
        <ele>26.5736</ele>
        <time>2013-06-02T19:35:08Z</time>
      </trkpt>
      <trkpt lat="59.8965492" lon="17.7068575">
        <ele>26.0929</ele>
        <time>2013-06-02T19:35:09Z</time>
      </trkpt>
      <trkpt lat="59.8964801" lon="17.7067719">
        <ele>26.5736</ele>
        <time>2013-06-02T19:35:10Z</time>
      </trkpt>
      <trkpt lat="59.8964127" lon="17.7066858">
        <ele>26.5736</ele>
        <time>2013-06-02T19:35:11Z</time>
      </trkpt>
      <trkpt lat="59.8963471" lon="17.7066011">
        <ele>27.0543</ele>
        <time>2013-06-02T19:35:12Z</time>
      </trkpt>
      <trkpt lat="59.8962824" lon="17.7065178">
        <ele>27.5349</ele>
        <time>2013-06-02T19:35:13Z</time>
      </trkpt>
      <trkpt lat="59.8962175" lon="17.7064374">
        <ele>27.5349</ele>
        <time>2013-06-02T19:35:14Z</time>
      </trkpt>
      <trkpt lat="59.8961528" lon="17.706356">
        <ele>28.0155</ele>
        <time>2013-06-02T19:35:15Z</time>
      </trkpt>
      <trkpt lat="59.896089" lon="17.7062732">
        <ele>28.0155</ele>
        <time>2013-06-02T19:35:16Z</time>
      </trkpt>
      <trkpt lat="59.8960251" lon="17.7061903">
        <ele>28.4962</ele>
        <time>2013-06-02T19:35:17Z</time>
      </trkpt>
      <trkpt lat="59.8959607" lon="17.7061064">
        <ele>28.4962</ele>
        <time>2013-06-02T19:35:18Z</time>
      </trkpt>
      <trkpt lat="59.8958961" lon="17.7060226">
        <ele>28.9769</ele>
        <time>2013-06-02T19:35:19Z</time>
      </trkpt>
      <trkpt lat="59.8958311" lon="17.7059401">
        <ele>29.4575</ele>
        <time>2013-06-02T19:35:20Z</time>
      </trkpt>
      <trkpt lat="59.8957663" lon="17.7058562">
        <ele>29.4575</ele>
        <time>2013-06-02T19:35:21Z</time>
      </trkpt>
      <trkpt lat="59.8957018" lon="17.7057702">
        <ele>29.4575</ele>
        <time>2013-06-02T19:35:22Z</time>
      </trkpt>
      <trkpt lat="59.8956371" lon="17.7056846">
        <ele>29.4575</ele>
        <time>2013-06-02T19:35:23Z</time>
      </trkpt>
      <trkpt lat="59.8955712" lon="17.7056003">
        <ele>29.4575</ele>
        <time>2013-06-02T19:35:24Z</time>
      </trkpt>
      <trkpt lat="59.8955042" lon="17.7055164">
        <ele>29.4575</ele>
        <time>2013-06-02T19:35:25Z</time>
      </trkpt>
      <trkpt lat="59.8954364" lon="17.7054345">
        <ele>29.9381</ele>
        <time>2013-06-02T19:35:26Z</time>
      </trkpt>
      <trkpt lat="59.8953653" lon="17.7053554">
        <ele>29.4575</ele>
        <time>2013-06-02T19:35:27Z</time>
      </trkpt>
      <trkpt lat="59.8952935" lon="17.7052775">
        <ele>29.4575</ele>
        <time>2013-06-02T19:35:28Z</time>
      </trkpt>
      <trkpt lat="59.8952226" lon="17.705196">
        <ele>29.9381</ele>
        <time>2013-06-02T19:35:29Z</time>
      </trkpt>
      <trkpt lat="59.8951537" lon="17.7051067">
        <ele>29.9381</ele>
        <time>2013-06-02T19:35:30Z</time>
      </trkpt>
      <trkpt lat="59.8950879" lon="17.7050093">
        <ele>29.9381</ele>
        <time>2013-06-02T19:35:31Z</time>
      </trkpt>
      <trkpt lat="59.8950235" lon="17.7049091">
        <ele>30.4188</ele>
        <time>2013-06-02T19:35:32Z</time>
      </trkpt>
      <trkpt lat="59.8949578" lon="17.7048122">
        <ele>30.4188</ele>
        <time>2013-06-02T19:35:33Z</time>
      </trkpt>
      <trkpt lat="59.8948905" lon="17.704721">
        <ele>30.8995</ele>
        <time>2013-06-02T19:35:34Z</time>
      </trkpt>
      <trkpt lat="59.8948228" lon="17.7046319">
        <ele>30.8995</ele>
        <time>2013-06-02T19:35:35Z</time>
      </trkpt>
      <trkpt lat="59.8947574" lon="17.7045389">
        <ele>31.3801</ele>
        <time>2013-06-02T19:35:36Z</time>
      </trkpt>
      <trkpt lat="59.894693" lon="17.704445">
        <ele>31.8607</ele>
        <time>2013-06-02T19:35:37Z</time>
      </trkpt>
      <trkpt lat="59.8946274" lon="17.7043532">
        <ele>31.8607</ele>
        <time>2013-06-02T19:35:38Z</time>
      </trkpt>
      <trkpt lat="59.8945619" lon="17.7042626">
        <ele>31.8607</ele>
        <time>2013-06-02T19:35:39Z</time>
      </trkpt>
      <trkpt lat="59.8944958" lon="17.7041748">
        <ele>32.3416</ele>
        <time>2013-06-02T19:35:40Z</time>
      </trkpt>
      <trkpt lat="59.8944294" lon="17.7040887">
        <ele>32.3416</ele>
        <time>2013-06-02T19:35:41Z</time>
      </trkpt>
      <trkpt lat="59.8943642" lon="17.7040027">
        <ele>32.8223</ele>
        <time>2013-06-02T19:35:42Z</time>
      </trkpt>
      <trkpt lat="59.8943003" lon="17.7039182">
        <ele>32.8223</ele>
        <time>2013-06-02T19:35:43Z</time>
      </trkpt>
      <trkpt lat="59.8942387" lon="17.7038306">
        <ele>33.3029</ele>
        <time>2013-06-02T19:35:44Z</time>
      </trkpt>
      <trkpt lat="59.8941752" lon="17.7037379">
        <ele>33.3029</ele>
        <time>2013-06-02T19:35:45Z</time>
      </trkpt>
      <trkpt lat="59.8941114" lon="17.7036464">
        <ele>33.7834</ele>
        <time>2013-06-02T19:35:46Z</time>
      </trkpt>
      <trkpt lat="59.8940467" lon="17.7035566">
        <ele>33.7834</ele>
        <time>2013-06-02T19:35:47Z</time>
      </trkpt>
      <trkpt lat="59.8939808" lon="17.7034701">
        <ele>33.7834</ele>
        <time>2013-06-02T19:35:48Z</time>
      </trkpt>
      <trkpt lat="59.8939167" lon="17.7033894">
        <ele>33.7834</ele>
        <time>2013-06-02T19:35:49Z</time>
      </trkpt>
      <trkpt lat="59.8938488" lon="17.7033079">
        <ele>33.7834</ele>
        <time>2013-06-02T19:35:50Z</time>
      </trkpt>
      <trkpt lat="59.893781" lon="17.7032252">
        <ele>34.2642</ele>
        <time>2013-06-02T19:35:51Z</time>
      </trkpt>
      <trkpt lat="59.893715" lon="17.703133">
        <ele>34.2642</ele>
        <time>2013-06-02T19:35:52Z</time>
      </trkpt>
      <trkpt lat="59.8936517" lon="17.7030366">
        <ele>34.7449</ele>
        <time>2013-06-02T19:35:53Z</time>
      </trkpt>
      <trkpt lat="59.8935881" lon="17.7029425">
        <ele>34.7449</ele>
        <time>2013-06-02T19:35:54Z</time>
      </trkpt>
      <trkpt lat="59.8935223" lon="17.7028548">
        <ele>34.7449</ele>
        <time>2013-06-02T19:35:55Z</time>
      </trkpt>
      <trkpt lat="59.8934546" lon="17.7027688">
        <ele>34.2642</ele>
        <time>2013-06-02T19:35:56Z</time>
      </trkpt>
      <trkpt lat="59.8933872" lon="17.7026859">
        <ele>34.2642</ele>
        <time>2013-06-02T19:35:57Z</time>
      </trkpt>
      <trkpt lat="59.8933204" lon="17.7026028">
        <ele>34.2642</ele>
        <time>2013-06-02T19:35:58Z</time>
      </trkpt>
      <trkpt lat="59.8932541" lon="17.702519">
        <ele>34.2642</ele>
        <time>2013-06-02T19:35:59Z</time>
      </trkpt>
      <trkpt lat="59.8931893" lon="17.7024342">
        <ele>33.7834</ele>
        <time>2013-06-02T19:36:00Z</time>
      </trkpt>
      <trkpt lat="59.8931251" lon="17.7023501">
        <ele>33.7834</ele>
        <time>2013-06-02T19:36:01Z</time>
      </trkpt>
      <trkpt lat="59.8930614" lon="17.7022696">
        <ele>33.7834</ele>
        <time>2013-06-02T19:36:02Z</time>
      </trkpt>
      <trkpt lat="59.8929998" lon="17.7021923">
        <ele>33.7834</ele>
        <time>2013-06-02T19:36:03Z</time>
      </trkpt>
      <trkpt lat="59.8929392" lon="17.7021172">
        <ele>33.3029</ele>
        <time>2013-06-02T19:36:04Z</time>
      </trkpt>
      <trkpt lat="59.8928786" lon="17.7020446">
        <ele>33.7834</ele>
        <time>2013-06-02T19:36:05Z</time>
      </trkpt>
      <trkpt lat="59.8928184" lon="17.7019745">
        <ele>33.7834</ele>
        <time>2013-06-02T19:36:06Z</time>
      </trkpt>
      <trkpt lat="59.8927577" lon="17.701912">
        <ele>33.7834</ele>
        <time>2013-06-02T19:36:07Z</time>
      </trkpt>
      <trkpt lat="59.8926972" lon="17.7018557">
        <ele>34.2642</ele>
        <time>2013-06-02T19:36:08Z</time>
      </trkpt>
      <trkpt lat="59.8926439" lon="17.701796">
        <ele>34.2642</ele>
        <time>2013-06-02T19:36:09Z</time>
      </trkpt>
      <trkpt lat="59.892591" lon="17.7017253">
        <ele>34.2642</ele>
        <time>2013-06-02T19:36:10Z</time>
      </trkpt>
      <trkpt lat="59.8925406" lon="17.7016507">
        <ele>34.7449</ele>
        <time>2013-06-02T19:36:11Z</time>
      </trkpt>
      <trkpt lat="59.8924932" lon="17.7015696">
        <ele>34.7449</ele>
        <time>2013-06-02T19:36:12Z</time>
      </trkpt>
      <trkpt lat="59.8924459" lon="17.7014839">
        <ele>31.8607</ele>
        <time>2013-06-02T19:36:13Z</time>
      </trkpt>
      <trkpt lat="59.8923973" lon="17.7014156">
        <ele>32.3416</ele>
        <time>2013-06-02T19:36:14Z</time>
      </trkpt>
      <trkpt lat="59.8923546" lon="17.7013452">
        <ele>31.3801</ele>
        <time>2013-06-02T19:36:15Z</time>
      </trkpt>
      <trkpt lat="59.8923212" lon="17.7012727">
        <ele>31.3801</ele>
        <time>2013-06-02T19:36:16Z</time>
      </trkpt>
      <trkpt lat="59.8923029" lon="17.7011806">
        <ele>31.3801</ele>
        <time>2013-06-02T19:36:17Z</time>
      </trkpt>
      <trkpt lat="59.8923045" lon="17.7010998">
        <ele>30.8995</ele>
        <time>2013-06-02T19:36:18Z</time>
      </trkpt>
      <trkpt lat="59.8923203" lon="17.7010447">
        <ele>30.4188</ele>
        <time>2013-06-02T19:36:19Z</time>
      </trkpt>
      <trkpt lat="59.8923481" lon="17.7010006">
        <ele>29.9381</ele>
        <time>2013-06-02T19:36:20Z</time>
      </trkpt>
      <trkpt lat="59.8923776" lon="17.7009568">
        <ele>29.9381</ele>
        <time>2013-06-02T19:36:21Z</time>
      </trkpt>
      <trkpt lat="59.8924023" lon="17.7009118">
        <ele>30.4188</ele>
        <time>2013-06-02T19:36:22Z</time>
      </trkpt>
      <trkpt lat="59.8924227" lon="17.7008776">
        <ele>31.3801</ele>
        <time>2013-06-02T19:36:23Z</time>
      </trkpt>
      <trkpt lat="59.8924418" lon="17.7008567">
        <ele>31.3801</ele>
        <time>2013-06-02T19:36:24Z</time>
      </trkpt>
      <trkpt lat="59.892459" lon="17.7008554">
        <ele>31.8607</ele>
        <time>2013-06-02T19:36:25Z</time>
      </trkpt>
      <trkpt lat="59.8924731" lon="17.7008703">
        <ele>29.4575</ele>
        <time>2013-06-02T19:36:26Z</time>
      </trkpt>
      <trkpt lat="59.8924865" lon="17.7008874">
        <ele>28.4962</ele>
        <time>2013-06-02T19:36:27Z</time>
      </trkpt>
      <trkpt lat="59.8925025" lon="17.7008497">
        <ele>27.5349</ele>
        <time>2013-06-02T19:36:28Z</time>
      </trkpt>
      <trkpt lat="59.8925217" lon="17.7007999">
        <ele>27.0543</ele>
        <time>2013-06-02T19:36:29Z</time>
      </trkpt>
      <trkpt lat="59.8925459" lon="17.7007382">
        <ele>27.0543</ele>
        <time>2013-06-02T19:36:30Z</time>
      </trkpt>
      <trkpt lat="59.8925734" lon="17.7006869">
        <ele>27.0543</ele>
        <time>2013-06-02T19:36:31Z</time>
      </trkpt>
      <trkpt lat="59.8926022" lon="17.7006354">
        <ele>27.5349</ele>
        <time>2013-06-02T19:36:32Z</time>
      </trkpt>
      <trkpt lat="59.8926383" lon="17.7005765">
        <ele>27.0543</ele>
        <time>2013-06-02T19:36:33Z</time>
      </trkpt>
      <trkpt lat="59.8926755" lon="17.7004961">
        <ele>27.5349</ele>
        <time>2013-06-02T19:36:34Z</time>
      </trkpt>
      <trkpt lat="59.8927154" lon="17.7004109">
        <ele>27.5349</ele>
        <time>2013-06-02T19:36:35Z</time>
      </trkpt>
      <trkpt lat="59.8927536" lon="17.700331">
        <ele>27.5349</ele>
        <time>2013-06-02T19:36:36Z</time>
      </trkpt>
      <trkpt lat="59.8927924" lon="17.7002554">
        <ele>27.0543</ele>
        <time>2013-06-02T19:36:37Z</time>
      </trkpt>
      <trkpt lat="59.8928317" lon="17.7001716">
        <ele>27.5349</ele>
        <time>2013-06-02T19:36:38Z</time>
      </trkpt>
      <trkpt lat="59.8928708" lon="17.700084">
        <ele>27.5349</ele>
        <time>2013-06-02T19:36:39Z</time>
      </trkpt>
      <trkpt lat="59.8929086" lon="17.6999886">
        <ele>28.9769</ele>
        <time>2013-06-02T19:36:40Z</time>
      </trkpt>
      <trkpt lat="59.8929469" lon="17.6998918">
        <ele>30.4188</ele>
        <time>2013-06-02T19:36:41Z</time>
      </trkpt>
      <trkpt lat="59.8929849" lon="17.6997938">
        <ele>30.4188</ele>
        <time>2013-06-02T19:36:42Z</time>
      </trkpt>
      <trkpt lat="59.8930245" lon="17.699696">
        <ele>30.4188</ele>
        <time>2013-06-02T19:36:43Z</time>
      </trkpt>
      <trkpt lat="59.8930624" lon="17.6995976">
        <ele>29.9381</ele>
        <time>2013-06-02T19:36:44Z</time>
      </trkpt>
      <trkpt lat="59.8930998" lon="17.6995033">
        <ele>29.9381</ele>
        <time>2013-06-02T19:36:45Z</time>
      </trkpt>
      <trkpt lat="59.8931365" lon="17.6994095">
        <ele>29.9381</ele>
        <time>2013-06-02T19:36:46Z</time>
      </trkpt>
      <trkpt lat="59.8931728" lon="17.6993197">
        <ele>29.9381</ele>
        <time>2013-06-02T19:36:47Z</time>
      </trkpt>
      <trkpt lat="59.8932084" lon="17.6992195">
        <ele>29.4575</ele>
        <time>2013-06-02T19:36:48Z</time>
      </trkpt>
      <trkpt lat="59.8932354" lon="17.6991091">
        <ele>28.9769</ele>
        <time>2013-06-02T19:36:49Z</time>
      </trkpt>
      <trkpt lat="59.8932483" lon="17.6989698">
        <ele>29.4575</ele>
        <time>2013-06-02T19:36:50Z</time>
      </trkpt>
      <trkpt lat="59.893258" lon="17.6988283">
        <ele>28.0155</ele>
        <time>2013-06-02T19:36:51Z</time>
      </trkpt>
      <trkpt lat="59.8932801" lon="17.6987183">
        <ele>25.1317</ele>
        <time>2013-06-02T19:36:52Z</time>
      </trkpt>
      <trkpt lat="59.8933272" lon="17.6986394">
        <ele>26.0929</ele>
        <time>2013-06-02T19:36:53Z</time>
      </trkpt>
      <trkpt lat="59.8933779" lon="17.6985678">
        <ele>27.0543</ele>
        <time>2013-06-02T19:36:54Z</time>
      </trkpt>
      <trkpt lat="59.8934352" lon="17.6984912">
        <ele>28.0155</ele>
        <time>2013-06-02T19:36:55Z</time>
      </trkpt>
      <trkpt lat="59.8934813" lon="17.6984073">
        <ele>28.0155</ele>
        <time>2013-06-02T19:36:56Z</time>
      </trkpt>
      <trkpt lat="59.8935239" lon="17.6983202">
        <ele>28.0155</ele>
        <time>2013-06-02T19:36:57Z</time>
      </trkpt>
      <trkpt lat="59.8935618" lon="17.6982154">
        <ele>28.0155</ele>
        <time>2013-06-02T19:36:58Z</time>
      </trkpt>
      <trkpt lat="59.8936036" lon="17.6980965">
        <ele>27.5349</ele>
        <time>2013-06-02T19:36:59Z</time>
      </trkpt>
      <trkpt lat="59.8936352" lon="17.6979798">
        <ele>28.0155</ele>
        <time>2013-06-02T19:37:00Z</time>
      </trkpt>
      <trkpt lat="59.8936637" lon="17.6978393">
        <ele>28.9769</ele>
        <time>2013-06-02T19:37:01Z</time>
      </trkpt>
      <trkpt lat="59.8936918" lon="17.6977063">
        <ele>28.9769</ele>
        <time>2013-06-02T19:37:02Z</time>
      </trkpt>
      <trkpt lat="59.8937087" lon="17.6975514">
        <ele>28.4962</ele>
        <time>2013-06-02T19:37:03Z</time>
      </trkpt>
      <trkpt lat="59.8937282" lon="17.6974093">
        <ele>27.5349</ele>
        <time>2013-06-02T19:37:04Z</time>
      </trkpt>
      <trkpt lat="59.8937474" lon="17.6972738">
        <ele>27.0543</ele>
        <time>2013-06-02T19:37:05Z</time>
      </trkpt>
      <trkpt lat="59.893767" lon="17.6971364">
        <ele>28.9769</ele>
        <time>2013-06-02T19:37:06Z</time>
      </trkpt>
      <trkpt lat="59.8937737" lon="17.6969914">
        <ele>28.0155</ele>
        <time>2013-06-02T19:37:07Z</time>
      </trkpt>
      <trkpt lat="59.8937783" lon="17.6968441">
        <ele>28.0155</ele>
        <time>2013-06-02T19:37:08Z</time>
      </trkpt>
      <trkpt lat="59.8937755" lon="17.6967199">
        <ele>27.5349</ele>
        <time>2013-06-02T19:37:09Z</time>
      </trkpt>
      <trkpt lat="59.8937781" lon="17.6965864">
        <ele>26.5736</ele>
        <time>2013-06-02T19:37:10Z</time>
      </trkpt>
      <trkpt lat="59.8937867" lon="17.6964502">
        <ele>27.0543</ele>
        <time>2013-06-02T19:37:11Z</time>
      </trkpt>
      <trkpt lat="59.8937968" lon="17.6963092">
        <ele>26.5736</ele>
        <time>2013-06-02T19:37:12Z</time>
      </trkpt>
      <trkpt lat="59.8938104" lon="17.6961791">
        <ele>26.5736</ele>
        <time>2013-06-02T19:37:13Z</time>
      </trkpt>
      <trkpt lat="59.8938243" lon="17.6960545">
        <ele>25.6123</ele>
        <time>2013-06-02T19:37:14Z</time>
      </trkpt>
      <trkpt lat="59.8938363" lon="17.6959243">
        <ele>25.6123</ele>
        <time>2013-06-02T19:37:15Z</time>
      </trkpt>
      <trkpt lat="59.8938422" lon="17.6957797">
        <ele>25.1317</ele>
        <time>2013-06-02T19:37:16Z</time>
      </trkpt>
      <trkpt lat="59.8938452" lon="17.695625">
        <ele>24.1703</ele>
        <time>2013-06-02T19:37:17Z</time>
      </trkpt>
      <trkpt lat="59.8938456" lon="17.6954758">
        <ele>23.209</ele>
        <time>2013-06-02T19:37:18Z</time>
      </trkpt>
      <trkpt lat="59.8938457" lon="17.6953245">
        <ele>22.2476</ele>
        <time>2013-06-02T19:37:19Z</time>
      </trkpt>
      <trkpt lat="59.8938512" lon="17.6951799">
        <ele>21.767</ele>
        <time>2013-06-02T19:37:20Z</time>
      </trkpt>
      <trkpt lat="59.8938565" lon="17.6950298">
        <ele>20.8057</ele>
        <time>2013-06-02T19:37:21Z</time>
      </trkpt>
      <trkpt lat="59.8938628" lon="17.6948758">
        <ele>20.325</ele>
        <time>2013-06-02T19:37:22Z</time>
      </trkpt>
      <trkpt lat="59.8938675" lon="17.6947226">
        <ele>19.8444</ele>
        <time>2013-06-02T19:37:23Z</time>
      </trkpt>
      <trkpt lat="59.8938717" lon="17.6945696">
        <ele>19.8444</ele>
        <time>2013-06-02T19:37:24Z</time>
      </trkpt>
      <trkpt lat="59.8938761" lon="17.6944149">
        <ele>19.3638</ele>
        <time>2013-06-02T19:37:25Z</time>
      </trkpt>
      <trkpt lat="59.8938803" lon="17.6942604">
        <ele>19.3638</ele>
        <time>2013-06-02T19:37:26Z</time>
      </trkpt>
      <trkpt lat="59.8938843" lon="17.6941046">
        <ele>19.3638</ele>
        <time>2013-06-02T19:37:27Z</time>
      </trkpt>
      <trkpt lat="59.8938882" lon="17.693947">
        <ele>18.8831</ele>
        <time>2013-06-02T19:37:28Z</time>
      </trkpt>
      <trkpt lat="59.8938921" lon="17.6937894">
        <ele>18.8831</ele>
        <time>2013-06-02T19:37:29Z</time>
      </trkpt>
      <trkpt lat="59.8938963" lon="17.6936302">
        <ele>18.8831</ele>
        <time>2013-06-02T19:37:30Z</time>
      </trkpt>
      <trkpt lat="59.8939002" lon="17.6934699">
        <ele>18.8831</ele>
        <time>2013-06-02T19:37:31Z</time>
      </trkpt>
      <trkpt lat="59.8939037" lon="17.6933104">
        <ele>19.3638</ele>
        <time>2013-06-02T19:37:32Z</time>
      </trkpt>
      <trkpt lat="59.8939071" lon="17.6931526">
        <ele>19.3638</ele>
        <time>2013-06-02T19:37:33Z</time>
      </trkpt>
      <trkpt lat="59.8939078" lon="17.6929972">
        <ele>18.8831</ele>
        <time>2013-06-02T19:37:34Z</time>
      </trkpt>
      <trkpt lat="59.89391" lon="17.6928423">
        <ele>18.4023</ele>
        <time>2013-06-02T19:37:35Z</time>
      </trkpt>
      <trkpt lat="59.8939116" lon="17.6926893">
        <ele>18.4023</ele>
        <time>2013-06-02T19:37:36Z</time>
      </trkpt>
      <trkpt lat="59.8939186" lon="17.6925329">
        <ele>19.8444</ele>
        <time>2013-06-02T19:37:37Z</time>
      </trkpt>
      <trkpt lat="59.8939225" lon="17.6923942">
        <ele>20.8057</ele>
        <time>2013-06-02T19:37:38Z</time>
      </trkpt>
      <trkpt lat="59.8939229" lon="17.6922455">
        <ele>20.8057</ele>
        <time>2013-06-02T19:37:39Z</time>
      </trkpt>
      <trkpt lat="59.8939213" lon="17.6921054">
        <ele>20.8057</ele>
        <time>2013-06-02T19:37:40Z</time>
      </trkpt>
      <trkpt lat="59.8939208" lon="17.6919807">
        <ele>20.8057</ele>
        <time>2013-06-02T19:37:41Z</time>
      </trkpt>
      <trkpt lat="59.8939141" lon="17.6918544">
        <ele>19.3638</ele>
        <time>2013-06-02T19:37:42Z</time>
      </trkpt>
      <trkpt lat="59.8939048" lon="17.6917207">
        <ele>18.4023</ele>
        <time>2013-06-02T19:37:43Z</time>
      </trkpt>
      <trkpt lat="59.8939025" lon="17.6915839">
        <ele>17.9218</ele>
        <time>2013-06-02T19:37:44Z</time>
      </trkpt>
      <trkpt lat="59.893903" lon="17.6914713">
        <ele>15.999</ele>
        <time>2013-06-02T19:37:45Z</time>
      </trkpt>
      <trkpt lat="59.8939074" lon="17.6913624">
        <ele>15.0377</ele>
        <time>2013-06-02T19:37:46Z</time>
      </trkpt>
      <trkpt lat="59.8939182" lon="17.6912379">
        <ele>15.5184</ele>
        <time>2013-06-02T19:37:47Z</time>
      </trkpt>
      <trkpt lat="59.893937" lon="17.6911053">
        <ele>15.999</ele>
        <time>2013-06-02T19:37:48Z</time>
      </trkpt>
      <trkpt lat="59.8939523" lon="17.6909795">
        <ele>14.557</ele>
        <time>2013-06-02T19:37:49Z</time>
      </trkpt>
      <trkpt lat="59.8939705" lon="17.690856">
        <ele>14.0764</ele>
        <time>2013-06-02T19:37:50Z</time>
      </trkpt>
      <trkpt lat="59.8939948" lon="17.6907335">
        <ele>14.0764</ele>
        <time>2013-06-02T19:37:51Z</time>
      </trkpt>
      <trkpt lat="59.8940151" lon="17.690622">
        <ele>14.0764</ele>
        <time>2013-06-02T19:37:52Z</time>
      </trkpt>
      <trkpt lat="59.8940337" lon="17.690506">
        <ele>14.557</ele>
        <time>2013-06-02T19:37:53Z</time>
      </trkpt>
      <trkpt lat="59.8940513" lon="17.6903972">
        <ele>14.557</ele>
        <time>2013-06-02T19:37:54Z</time>
      </trkpt>
      <trkpt lat="59.8940669" lon="17.6902962">
        <ele>15.0377</ele>
        <time>2013-06-02T19:37:55Z</time>
      </trkpt>
      <trkpt lat="59.8940799" lon="17.6901872">
        <ele>15.5184</ele>
        <time>2013-06-02T19:37:56Z</time>
      </trkpt>
      <trkpt lat="59.8940962" lon="17.6900833">
        <ele>16.4797</ele>
        <time>2013-06-02T19:37:57Z</time>
      </trkpt>
      <trkpt lat="59.8941094" lon="17.6899797">
        <ele>16.4797</ele>
        <time>2013-06-02T19:37:58Z</time>
      </trkpt>
      <trkpt lat="59.8941197" lon="17.6898823">
        <ele>15.999</ele>
        <time>2013-06-02T19:37:59Z</time>
      </trkpt>
      <trkpt lat="59.8941342" lon="17.689779">
        <ele>16.4797</ele>
        <time>2013-06-02T19:38:00Z</time>
      </trkpt>
      <trkpt lat="59.8941473" lon="17.6896614">
        <ele>17.4412</ele>
        <time>2013-06-02T19:38:01Z</time>
      </trkpt>
      <trkpt lat="59.8941611" lon="17.6895295">
        <ele>19.3638</ele>
        <time>2013-06-02T19:38:02Z</time>
      </trkpt>
      <trkpt lat="59.8941754" lon="17.6893849">
        <ele>20.8057</ele>
        <time>2013-06-02T19:38:03Z</time>
      </trkpt>
      <trkpt lat="59.8941907" lon="17.6892444">
        <ele>21.767</ele>
        <time>2013-06-02T19:38:04Z</time>
      </trkpt>
      <trkpt lat="59.8942052" lon="17.6891033">
        <ele>22.7283</ele>
        <time>2013-06-02T19:38:05Z</time>
      </trkpt>
      <trkpt lat="59.894221" lon="17.6889647">
        <ele>22.7283</ele>
        <time>2013-06-02T19:38:06Z</time>
      </trkpt>
      <trkpt lat="59.8942399" lon="17.6888194">
        <ele>24.651</ele>
        <time>2013-06-02T19:38:07Z</time>
      </trkpt>
      <trkpt lat="59.8942534" lon="17.6886757">
        <ele>23.6896</ele>
        <time>2013-06-02T19:38:08Z</time>
      </trkpt>
      <trkpt lat="59.894271" lon="17.6885375">
        <ele>23.209</ele>
        <time>2013-06-02T19:38:09Z</time>
      </trkpt>
      <trkpt lat="59.894293" lon="17.6884013">
        <ele>21.2864</ele>
        <time>2013-06-02T19:38:10Z</time>
      </trkpt>
      <trkpt lat="59.8943298" lon="17.6882563">
        <ele>24.651</ele>
        <time>2013-06-02T19:38:11Z</time>
      </trkpt>
      <trkpt lat="59.8943641" lon="17.6881029">
        <ele>26.5736</ele>
        <time>2013-06-02T19:38:12Z</time>
      </trkpt>
      <trkpt lat="59.8943966" lon="17.6879574">
        <ele>26.5736</ele>
        <time>2013-06-02T19:38:13Z</time>
      </trkpt>
      <trkpt lat="59.8944284" lon="17.6878066">
        <ele>27.0543</ele>
        <time>2013-06-02T19:38:14Z</time>
      </trkpt>
      <trkpt lat="59.8944611" lon="17.6876591">
        <ele>27.5349</ele>
        <time>2013-06-02T19:38:15Z</time>
      </trkpt>
      <trkpt lat="59.8944933" lon="17.6875479">
        <ele>27.5349</ele>
        <time>2013-06-02T19:38:16Z</time>
      </trkpt>
      <trkpt lat="59.8945249" lon="17.6873765">
        <ele>28.0155</ele>
        <time>2013-06-02T19:38:17Z</time>
      </trkpt>
      <trkpt lat="59.8945612" lon="17.6872387">
        <ele>28.0155</ele>
        <time>2013-06-02T19:38:18Z</time>
      </trkpt>
      <trkpt lat="59.894594" lon="17.6870995">
        <ele>28.0155</ele>
        <time>2013-06-02T19:38:19Z</time>
      </trkpt>
      <trkpt lat="59.8946211" lon="17.6869483">
        <ele>28.0155</ele>
        <time>2013-06-02T19:38:20Z</time>
      </trkpt>
      <trkpt lat="59.894647" lon="17.6867922">
        <ele>28.4962</ele>
        <time>2013-06-02T19:38:21Z</time>
      </trkpt>
      <trkpt lat="59.8946705" lon="17.68664">
        <ele>28.4962</ele>
        <time>2013-06-02T19:38:22Z</time>
      </trkpt>
      <trkpt lat="59.8946925" lon="17.6864852">
        <ele>28.4962</ele>
        <time>2013-06-02T19:38:23Z</time>
      </trkpt>
      <trkpt lat="59.8947082" lon="17.6863109">
        <ele>29.4575</ele>
        <time>2013-06-02T19:38:24Z</time>
      </trkpt>
      <trkpt lat="59.8947231" lon="17.6861457">
        <ele>29.4575</ele>
        <time>2013-06-02T19:38:25Z</time>
      </trkpt>
      <trkpt lat="59.894737" lon="17.685978">
        <ele>30.4188</ele>
        <time>2013-06-02T19:38:26Z</time>
      </trkpt>
      <trkpt lat="59.894748" lon="17.6858164">
        <ele>30.8995</ele>
        <time>2013-06-02T19:38:27Z</time>
      </trkpt>
      <trkpt lat="59.8947603" lon="17.6856553">
        <ele>32.3416</ele>
        <time>2013-06-02T19:38:28Z</time>
      </trkpt>
      <trkpt lat="59.894772" lon="17.6855061">
        <ele>33.3029</ele>
        <time>2013-06-02T19:38:29Z</time>
      </trkpt>
      <trkpt lat="59.8947844" lon="17.6853685">
        <ele>33.3029</ele>
        <time>2013-06-02T19:38:30Z</time>
      </trkpt>
      <trkpt lat="59.8947986" lon="17.6852315">
        <ele>32.3416</ele>
        <time>2013-06-02T19:38:31Z</time>
      </trkpt>
      <trkpt lat="59.894816" lon="17.6850942">
        <ele>31.8607</ele>
        <time>2013-06-02T19:38:32Z</time>
      </trkpt>
      <trkpt lat="59.894833" lon="17.684955">
        <ele>31.3801</ele>
        <time>2013-06-02T19:38:33Z</time>
      </trkpt>
      <trkpt lat="59.8948491" lon="17.6848202">
        <ele>31.3801</ele>
        <time>2013-06-02T19:38:34Z</time>
      </trkpt>
      <trkpt lat="59.8948641" lon="17.6846763">
        <ele>30.8995</ele>
        <time>2013-06-02T19:38:35Z</time>
      </trkpt>
      <trkpt lat="59.8948786" lon="17.6845238">
        <ele>30.8995</ele>
        <time>2013-06-02T19:38:36Z</time>
      </trkpt>
      <trkpt lat="59.8948847" lon="17.6843824">
        <ele>29.9381</ele>
        <time>2013-06-02T19:38:37Z</time>
      </trkpt>
      <trkpt lat="59.8948931" lon="17.6842354">
        <ele>30.8995</ele>
        <time>2013-06-02T19:38:38Z</time>
      </trkpt>
      <trkpt lat="59.8949012" lon="17.6840966">
        <ele>30.4188</ele>
        <time>2013-06-02T19:38:39Z</time>
      </trkpt>
      <trkpt lat="59.8949159" lon="17.6839576">
        <ele>29.4575</ele>
        <time>2013-06-02T19:38:40Z</time>
      </trkpt>
      <trkpt lat="59.8949411" lon="17.6838049">
        <ele>29.4575</ele>
        <time>2013-06-02T19:38:41Z</time>
      </trkpt>
      <trkpt lat="59.8949636" lon="17.6836404">
        <ele>27.0543</ele>
        <time>2013-06-02T19:38:42Z</time>
      </trkpt>
      <trkpt lat="59.8950144" lon="17.6835209">
        <ele>27.0543</ele>
        <time>2013-06-02T19:38:43Z</time>
      </trkpt>
      <trkpt lat="59.8950718" lon="17.6834068">
        <ele>28.0155</ele>
        <time>2013-06-02T19:38:44Z</time>
      </trkpt>
      <trkpt lat="59.8951377" lon="17.6832997">
        <ele>27.0543</ele>
        <time>2013-06-02T19:38:45Z</time>
      </trkpt>
      <trkpt lat="59.8952071" lon="17.6832051">
        <ele>27.5349</ele>
        <time>2013-06-02T19:38:46Z</time>
      </trkpt>
      <trkpt lat="59.8952714" lon="17.6831336">
        <ele>27.5349</ele>
        <time>2013-06-02T19:38:47Z</time>
      </trkpt>
      <trkpt lat="59.8953355" lon="17.6830654">
        <ele>27.5349</ele>
        <time>2013-06-02T19:38:48Z</time>
      </trkpt>
      <trkpt lat="59.8953982" lon="17.6829938">
        <ele>27.5349</ele>
        <time>2013-06-02T19:38:49Z</time>
      </trkpt>
      <trkpt lat="59.8954599" lon="17.6829252">
        <ele>27.5349</ele>
        <time>2013-06-02T19:38:50Z</time>
      </trkpt>
      <trkpt lat="59.8955199" lon="17.6828658">
        <ele>26.5736</ele>
        <time>2013-06-02T19:38:51Z</time>
      </trkpt>
      <trkpt lat="59.8955815" lon="17.6828079">
        <ele>25.6123</ele>
        <time>2013-06-02T19:38:52Z</time>
      </trkpt>
      <trkpt lat="59.8956401" lon="17.6827522">
        <ele>26.0929</ele>
        <time>2013-06-02T19:38:53Z</time>
      </trkpt>
      <trkpt lat="59.895696" lon="17.6827038">
        <ele>26.5736</ele>
        <time>2013-06-02T19:38:54Z</time>
      </trkpt>
      <trkpt lat="59.8957519" lon="17.6826634">
        <ele>26.0929</ele>
        <time>2013-06-02T19:38:55Z</time>
      </trkpt>
      <trkpt lat="59.8958063" lon="17.6826292">
        <ele>25.6123</ele>
        <time>2013-06-02T19:38:56Z</time>
      </trkpt>
      <trkpt lat="59.8958636" lon="17.6825948">
        <ele>26.0929</ele>
        <time>2013-06-02T19:38:57Z</time>
      </trkpt>
      <trkpt lat="59.895923" lon="17.6825512">
        <ele>27.0543</ele>
        <time>2013-06-02T19:38:58Z</time>
      </trkpt>
      <trkpt lat="59.8959817" lon="17.6824948">
        <ele>27.5349</ele>
        <time>2013-06-02T19:38:59Z</time>
      </trkpt>
      <trkpt lat="59.8960436" lon="17.6824303">
        <ele>27.5349</ele>
        <time>2013-06-02T19:39:00Z</time>
      </trkpt>
      <trkpt lat="59.8961084" lon="17.6823627">
        <ele>28.0155</ele>
        <time>2013-06-02T19:39:01Z</time>
      </trkpt>
      <trkpt lat="59.8961765" lon="17.6822892">
        <ele>29.4575</ele>
        <time>2013-06-02T19:39:02Z</time>
      </trkpt>
      <trkpt lat="59.8962455" lon="17.6822186">
        <ele>30.4188</ele>
        <time>2013-06-02T19:39:03Z</time>
      </trkpt>
      <trkpt lat="59.8963151" lon="17.6821453">
        <ele>29.9381</ele>
        <time>2013-06-02T19:39:04Z</time>
      </trkpt>
      <trkpt lat="59.8963864" lon="17.6820627">
        <ele>28.9769</ele>
        <time>2013-06-02T19:39:05Z</time>
      </trkpt>
      <trkpt lat="59.8964544" lon="17.6819723">
        <ele>26.5736</ele>
        <time>2013-06-02T19:39:06Z</time>
      </trkpt>
      <trkpt lat="59.8965233" lon="17.6818864">
        <ele>26.5736</ele>
        <time>2013-06-02T19:39:07Z</time>
      </trkpt>
      <trkpt lat="59.8965917" lon="17.6817939">
        <ele>27.5349</ele>
        <time>2013-06-02T19:39:08Z</time>
      </trkpt>
      <trkpt lat="59.8966605" lon="17.6817091">
        <ele>28.0155</ele>
        <time>2013-06-02T19:39:09Z</time>
      </trkpt>
      <trkpt lat="59.8967266" lon="17.6816124">
        <ele>29.4575</ele>
        <time>2013-06-02T19:39:10Z</time>
      </trkpt>
      <trkpt lat="59.8967907" lon="17.6815098">
        <ele>30.8995</ele>
        <time>2013-06-02T19:39:11Z</time>
      </trkpt>
      <trkpt lat="59.8968508" lon="17.6814074">
        <ele>31.8607</ele>
        <time>2013-06-02T19:39:12Z</time>
      </trkpt>
      <trkpt lat="59.8969117" lon="17.6812959">
        <ele>33.3029</ele>
        <time>2013-06-02T19:39:13Z</time>
      </trkpt>
      <trkpt lat="59.8969697" lon="17.6811821">
        <ele>34.2642</ele>
        <time>2013-06-02T19:39:14Z</time>
      </trkpt>
      <trkpt lat="59.8970263" lon="17.6810637">
        <ele>35.7061</ele>
        <time>2013-06-02T19:39:15Z</time>
      </trkpt>
      <trkpt lat="59.8970801" lon="17.6809531">
        <ele>36.1868</ele>
        <time>2013-06-02T19:39:16Z</time>
      </trkpt>
      <trkpt lat="59.8971317" lon="17.6808471">
        <ele>37.1481</ele>
        <time>2013-06-02T19:39:17Z</time>
      </trkpt>
      <trkpt lat="59.8971791" lon="17.6807347">
        <ele>38.1094</ele>
        <time>2013-06-02T19:39:18Z</time>
      </trkpt>
      <trkpt lat="59.8972248" lon="17.6806233">
        <ele>39.0707</ele>
        <time>2013-06-02T19:39:19Z</time>
      </trkpt>
      <trkpt lat="59.8972696" lon="17.6805156">
        <ele>39.0707</ele>
        <time>2013-06-02T19:39:20Z</time>
      </trkpt>
      <trkpt lat="59.8973132" lon="17.6804053">
        <ele>39.5513</ele>
        <time>2013-06-02T19:39:21Z</time>
      </trkpt>
      <trkpt lat="59.8973568" lon="17.6802961">
        <ele>39.5513</ele>
        <time>2013-06-02T19:39:22Z</time>
      </trkpt>
      <trkpt lat="59.8974006" lon="17.6801891">
        <ele>39.5513</ele>
        <time>2013-06-02T19:39:23Z</time>
      </trkpt>
      <trkpt lat="59.8974433" lon="17.6800834">
        <ele>39.0707</ele>
        <time>2013-06-02T19:39:24Z</time>
      </trkpt>
      <trkpt lat="59.8974845" lon="17.6799788">
        <ele>38.1094</ele>
        <time>2013-06-02T19:39:25Z</time>
      </trkpt>
      <trkpt lat="59.8975241" lon="17.6798748">
        <ele>36.6675</ele>
        <time>2013-06-02T19:39:26Z</time>
      </trkpt>
      <trkpt lat="59.897564" lon="17.6797713">
        <ele>35.7061</ele>
        <time>2013-06-02T19:39:27Z</time>
      </trkpt>
      <trkpt lat="59.897605" lon="17.6796665">
        <ele>35.2255</ele>
        <time>2013-06-02T19:39:28Z</time>
      </trkpt>
      <trkpt lat="59.8976454" lon="17.6795605">
        <ele>34.7449</ele>
        <time>2013-06-02T19:39:29Z</time>
      </trkpt>
      <trkpt lat="59.8976848" lon="17.6794495">
        <ele>34.2642</ele>
        <time>2013-06-02T19:39:30Z</time>
      </trkpt>
      <trkpt lat="59.897727" lon="17.6793328">
        <ele>35.2255</ele>
        <time>2013-06-02T19:39:31Z</time>
      </trkpt>
      <trkpt lat="59.897766" lon="17.6792138">
        <ele>34.7449</ele>
        <time>2013-06-02T19:39:32Z</time>
      </trkpt>
      <trkpt lat="59.8978043" lon="17.6790984">
        <ele>34.2642</ele>
        <time>2013-06-02T19:39:33Z</time>
      </trkpt>
      <trkpt lat="59.8978469" lon="17.6789759">
        <ele>34.7449</ele>
        <time>2013-06-02T19:39:34Z</time>
      </trkpt>
      <trkpt lat="59.8978854" lon="17.6788554">
        <ele>34.7449</ele>
        <time>2013-06-02T19:39:35Z</time>
      </trkpt>
      <trkpt lat="59.897927" lon="17.6787352">
        <ele>35.2255</ele>
        <time>2013-06-02T19:39:36Z</time>
      </trkpt>
      <trkpt lat="59.8979684" lon="17.678615">
        <ele>34.7449</ele>
        <time>2013-06-02T19:39:37Z</time>
      </trkpt>
      <trkpt lat="59.898011" lon="17.6784929">
        <ele>35.2255</ele>
        <time>2013-06-02T19:39:38Z</time>
      </trkpt>
      <trkpt lat="59.8980525" lon="17.6783691">
        <ele>36.1868</ele>
        <time>2013-06-02T19:39:39Z</time>
      </trkpt>
      <trkpt lat="59.8980907" lon="17.6782456">
        <ele>36.6675</ele>
        <time>2013-06-02T19:39:40Z</time>
      </trkpt>
      <trkpt lat="59.8981276" lon="17.6781183">
        <ele>37.1481</ele>
        <time>2013-06-02T19:39:41Z</time>
      </trkpt>
      <trkpt lat="59.8981617" lon="17.6779855">
        <ele>37.6287</ele>
        <time>2013-06-02T19:39:42Z</time>
      </trkpt>
      <trkpt lat="59.8981932" lon="17.6778489">
        <ele>38.5901</ele>
        <time>2013-06-02T19:39:43Z</time>
      </trkpt>
      <trkpt lat="59.8982237" lon="17.6777079">
        <ele>39.0707</ele>
        <time>2013-06-02T19:39:44Z</time>
      </trkpt>
      <trkpt lat="59.8982537" lon="17.6775612">
        <ele>40.5128</ele>
        <time>2013-06-02T19:39:45Z</time>
      </trkpt>
      <trkpt lat="59.8982773" lon="17.6774143">
        <ele>40.5128</ele>
        <time>2013-06-02T19:39:46Z</time>
      </trkpt>
      <trkpt lat="59.8983005" lon="17.6772659">
        <ele>40.9934</ele>
        <time>2013-06-02T19:39:47Z</time>
      </trkpt>
      <trkpt lat="59.8983223" lon="17.6771247">
        <ele>41.474</ele>
        <time>2013-06-02T19:39:48Z</time>
      </trkpt>
      <trkpt lat="59.8983428" lon="17.6769843">
        <ele>41.474</ele>
        <time>2013-06-02T19:39:49Z</time>
      </trkpt>
      <trkpt lat="59.8983607" lon="17.6768422">
        <ele>42.4354</ele>
        <time>2013-06-02T19:39:50Z</time>
      </trkpt>
      <trkpt lat="59.898371" lon="17.6767044">
        <ele>40.5128</ele>
        <time>2013-06-02T19:39:51Z</time>
      </trkpt>
      <trkpt lat="59.8983803" lon="17.6765701">
        <ele>39.5513</ele>
        <time>2013-06-02T19:39:52Z</time>
      </trkpt>
      <trkpt lat="59.8983892" lon="17.6764373">
        <ele>39.0707</ele>
        <time>2013-06-02T19:39:53Z</time>
      </trkpt>
      <trkpt lat="59.8983942" lon="17.6763095">
        <ele>37.6287</ele>
        <time>2013-06-02T19:39:54Z</time>
      </trkpt>
      <trkpt lat="59.8984024" lon="17.6761886">
        <ele>36.6675</ele>
        <time>2013-06-02T19:39:55Z</time>
      </trkpt>
      <trkpt lat="59.8984093" lon="17.6760684">
        <ele>35.2255</ele>
        <time>2013-06-02T19:39:56Z</time>
      </trkpt>
      <trkpt lat="59.8984123" lon="17.6759411">
        <ele>34.2642</ele>
        <time>2013-06-02T19:39:57Z</time>
      </trkpt>
      <trkpt lat="59.898416" lon="17.6758152">
        <ele>33.7834</ele>
        <time>2013-06-02T19:39:58Z</time>
      </trkpt>
      <trkpt lat="59.8984238" lon="17.6756938">
        <ele>33.3029</ele>
        <time>2013-06-02T19:39:59Z</time>
      </trkpt>
      <trkpt lat="59.8984296" lon="17.6755743">
        <ele>32.3416</ele>
        <time>2013-06-02T19:40:00Z</time>
      </trkpt>
      <trkpt lat="59.8984363" lon="17.6754567">
        <ele>31.3801</ele>
        <time>2013-06-02T19:40:01Z</time>
      </trkpt>
      <trkpt lat="59.8984503" lon="17.6753355">
        <ele>31.8607</ele>
        <time>2013-06-02T19:40:02Z</time>
      </trkpt>
      <trkpt lat="59.8984653" lon="17.6752081">
        <ele>30.8995</ele>
        <time>2013-06-02T19:40:03Z</time>
      </trkpt>
      <trkpt lat="59.8984921" lon="17.6750908">
        <ele>31.8607</ele>
        <time>2013-06-02T19:40:04Z</time>
      </trkpt>
      <trkpt lat="59.8985283" lon="17.6749771">
        <ele>32.3416</ele>
        <time>2013-06-02T19:40:05Z</time>
      </trkpt>
      <trkpt lat="59.8985684" lon="17.6748678">
        <ele>32.8223</ele>
        <time>2013-06-02T19:40:06Z</time>
      </trkpt>
      <trkpt lat="59.898613" lon="17.6747673">
        <ele>32.8223</ele>
        <time>2013-06-02T19:40:07Z</time>
      </trkpt>
      <trkpt lat="59.8986695" lon="17.6746735">
        <ele>34.7449</ele>
        <time>2013-06-02T19:40:08Z</time>
      </trkpt>
      <trkpt lat="59.8987278" lon="17.6746082">
        <ele>36.1868</ele>
        <time>2013-06-02T19:40:09Z</time>
      </trkpt>
      <trkpt lat="59.898836" lon="17.6745129">
        <ele>36.1868</ele>
        <time>2013-06-02T19:40:10Z</time>
      </trkpt>
      <trkpt lat="59.8988874" lon="17.674458">
        <ele>37.6287</ele>
        <time>2013-06-02T19:40:11Z</time>
      </trkpt>
      <trkpt lat="59.8989366" lon="17.6743951">
        <ele>38.1094</ele>
        <time>2013-06-02T19:40:12Z</time>
      </trkpt>
      <trkpt lat="59.8989859" lon="17.674324">
        <ele>39.0707</ele>
        <time>2013-06-02T19:40:13Z</time>
      </trkpt>
      <trkpt lat="59.8990278" lon="17.6742482">
        <ele>38.5901</ele>
        <time>2013-06-02T19:40:14Z</time>
      </trkpt>
      <trkpt lat="59.8990599" lon="17.6741653">
        <ele>39.0707</ele>
        <time>2013-06-02T19:40:15Z</time>
      </trkpt>
      <trkpt lat="59.8990859" lon="17.6740835">
        <ele>38.5901</ele>
        <time>2013-06-02T19:40:16Z</time>
      </trkpt>
      <trkpt lat="59.8991086" lon="17.6739882">
        <ele>39.0707</ele>
        <time>2013-06-02T19:40:17Z</time>
      </trkpt>
      <trkpt lat="59.8991162" lon="17.6738797">
        <ele>38.5901</ele>
        <time>2013-06-02T19:40:18Z</time>
      </trkpt>
      <trkpt lat="59.8991315" lon="17.6737685">
        <ele>39.0707</ele>
        <time>2013-06-02T19:40:19Z</time>
      </trkpt>
      <trkpt lat="59.8991438" lon="17.6736488">
        <ele>38.5901</ele>
        <time>2013-06-02T19:40:20Z</time>
      </trkpt>
      <trkpt lat="59.8991511" lon="17.6735286">
        <ele>37.1481</ele>
        <time>2013-06-02T19:40:21Z</time>
      </trkpt>
      <trkpt lat="59.8991543" lon="17.6734198">
        <ele>36.1868</ele>
        <time>2013-06-02T19:40:22Z</time>
      </trkpt>
      <trkpt lat="59.8991583" lon="17.6733185">
        <ele>35.2255</ele>
        <time>2013-06-02T19:40:23Z</time>
      </trkpt>
      <trkpt lat="59.8991641" lon="17.6732091">
        <ele>34.7449</ele>
        <time>2013-06-02T19:40:24Z</time>
      </trkpt>
      <trkpt lat="59.8991748" lon="17.6730994">
        <ele>34.2642</ele>
        <time>2013-06-02T19:40:25Z</time>
      </trkpt>
      <trkpt lat="59.8991895" lon="17.672995">
        <ele>34.2642</ele>
        <time>2013-06-02T19:40:26Z</time>
      </trkpt>
      <trkpt lat="59.899205" lon="17.6728673">
        <ele>35.2255</ele>
        <time>2013-06-02T19:40:27Z</time>
      </trkpt>
      <trkpt lat="59.8992251" lon="17.6727639">
        <ele>35.2255</ele>
        <time>2013-06-02T19:40:28Z</time>
      </trkpt>
      <trkpt lat="59.8992515" lon="17.6726574">
        <ele>35.2255</ele>
        <time>2013-06-02T19:40:29Z</time>
      </trkpt>
      <trkpt lat="59.8992792" lon="17.6725498">
        <ele>34.7449</ele>
        <time>2013-06-02T19:40:30Z</time>
      </trkpt>
      <trkpt lat="59.8993041" lon="17.6724523">
        <ele>33.7834</ele>
        <time>2013-06-02T19:40:31Z</time>
      </trkpt>
      <trkpt lat="59.8993246" lon="17.6723514">
        <ele>33.7834</ele>
        <time>2013-06-02T19:40:32Z</time>
      </trkpt>
      <trkpt lat="59.8993426" lon="17.6722549">
        <ele>34.7449</ele>
        <time>2013-06-02T19:40:33Z</time>
      </trkpt>
      <trkpt lat="59.8993398" lon="17.6720539">
        <ele>34.7449</ele>
        <time>2013-06-02T19:40:34Z</time>
      </trkpt>
      <trkpt lat="59.8993589" lon="17.6718852">
        <ele>35.7061</ele>
        <time>2013-06-02T19:40:35Z</time>
      </trkpt>
      <trkpt lat="59.8993698" lon="17.6717104">
        <ele>36.6675</ele>
        <time>2013-06-02T19:40:36Z</time>
      </trkpt>
      <trkpt lat="59.8993589" lon="17.6715298">
        <ele>37.1481</ele>
        <time>2013-06-02T19:40:37Z</time>
      </trkpt>
      <trkpt lat="59.8993547" lon="17.6713774">
        <ele>36.6675</ele>
        <time>2013-06-02T19:40:38Z</time>
      </trkpt>
      <trkpt lat="59.8993469" lon="17.671209">
        <ele>36.6675</ele>
        <time>2013-06-02T19:40:39Z</time>
      </trkpt>
      <trkpt lat="59.8993506" lon="17.6710639">
        <ele>35.7061</ele>
        <time>2013-06-02T19:40:40Z</time>
      </trkpt>
      <trkpt lat="59.8993481" lon="17.6708835">
        <ele>35.2255</ele>
        <time>2013-06-02T19:40:41Z</time>
      </trkpt>
      <trkpt lat="59.8993533" lon="17.6707281">
        <ele>35.7061</ele>
        <time>2013-06-02T19:40:42Z</time>
      </trkpt>
      <trkpt lat="59.8993589" lon="17.670577">
        <ele>36.1868</ele>
        <time>2013-06-02T19:40:43Z</time>
      </trkpt>
      <trkpt lat="59.8993858" lon="17.6704808">
        <ele>37.1481</ele>
        <time>2013-06-02T19:40:44Z</time>
      </trkpt>
      <trkpt lat="59.899419" lon="17.6703808">
        <ele>37.1481</ele>
        <time>2013-06-02T19:40:45Z</time>
      </trkpt>
      <trkpt lat="59.8994564" lon="17.670291">
        <ele>37.1481</ele>
        <time>2013-06-02T19:40:46Z</time>
      </trkpt>
      <trkpt lat="59.8995058" lon="17.6702352">
        <ele>37.1481</ele>
        <time>2013-06-02T19:40:47Z</time>
      </trkpt>
      <trkpt lat="59.8995853" lon="17.6701921">
        <ele>34.7449</ele>
        <time>2013-06-02T19:40:48Z</time>
      </trkpt>
      <trkpt lat="59.8996548" lon="17.6701465">
        <ele>32.3416</ele>
        <time>2013-06-02T19:40:49Z</time>
      </trkpt>
      <trkpt lat="59.8997171" lon="17.6701181">
        <ele>32.3416</ele>
        <time>2013-06-02T19:40:50Z</time>
      </trkpt>
      <trkpt lat="59.8997694" lon="17.6700804">
        <ele>31.3801</ele>
        <time>2013-06-02T19:40:51Z</time>
      </trkpt>
      <trkpt lat="59.8998313" lon="17.6699848">
        <ele>29.4575</ele>
        <time>2013-06-02T19:40:52Z</time>
      </trkpt>
      <trkpt lat="59.899911" lon="17.6699461">
        <ele>30.4188</ele>
        <time>2013-06-02T19:40:53Z</time>
      </trkpt>
      <trkpt lat="59.8999824" lon="17.669938">
        <ele>30.4188</ele>
        <time>2013-06-02T19:40:54Z</time>
      </trkpt>
      <trkpt lat="59.900064" lon="17.6699077">
        <ele>30.8995</ele>
        <time>2013-06-02T19:40:55Z</time>
      </trkpt>
      <trkpt lat="59.9001463" lon="17.6698897">
        <ele>30.4188</ele>
        <time>2013-06-02T19:40:56Z</time>
      </trkpt>
      <trkpt lat="59.9002379" lon="17.6698455">
        <ele>29.4575</ele>
        <time>2013-06-02T19:40:57Z</time>
      </trkpt>
      <trkpt lat="59.9003213" lon="17.6698337">
        <ele>29.4575</ele>
        <time>2013-06-02T19:40:58Z</time>
      </trkpt>
      <trkpt lat="59.9004011" lon="17.6698339">
        <ele>28.9769</ele>
        <time>2013-06-02T19:40:59Z</time>
      </trkpt>
      <trkpt lat="59.9004844" lon="17.6698306">
        <ele>28.9769</ele>
        <time>2013-06-02T19:41:00Z</time>
      </trkpt>
      <trkpt lat="59.9005599" lon="17.6698048">
        <ele>28.4962</ele>
        <time>2013-06-02T19:41:01Z</time>
      </trkpt>
      <trkpt lat="59.900631" lon="17.6697804">
        <ele>28.4962</ele>
        <time>2013-06-02T19:41:02Z</time>
      </trkpt>
      <trkpt lat="59.9006993" lon="17.669765">
        <ele>28.9769</ele>
        <time>2013-06-02T19:41:03Z</time>
      </trkpt>
      <trkpt lat="59.9007596" lon="17.6697569">
        <ele>28.9769</ele>
        <time>2013-06-02T19:41:04Z</time>
      </trkpt>
      <trkpt lat="59.9008155" lon="17.6697584">
        <ele>28.9769</ele>
        <time>2013-06-02T19:41:05Z</time>
      </trkpt>
      <trkpt lat="59.9008736" lon="17.6697384">
        <ele>28.0155</ele>
        <time>2013-06-02T19:41:06Z</time>
      </trkpt>
      <trkpt lat="59.9009327" lon="17.6697188">
        <ele>28.0155</ele>
        <time>2013-06-02T19:41:07Z</time>
      </trkpt>
      <trkpt lat="59.900995" lon="17.6697063">
        <ele>29.9381</ele>
        <time>2013-06-02T19:41:08Z</time>
      </trkpt>
      <trkpt lat="59.9010579" lon="17.6697069">
        <ele>31.3801</ele>
        <time>2013-06-02T19:41:09Z</time>
      </trkpt>
      <trkpt lat="59.9011253" lon="17.669711">
        <ele>33.7834</ele>
        <time>2013-06-02T19:41:10Z</time>
      </trkpt>
      <trkpt lat="59.9011905" lon="17.6697049">
        <ele>33.7834</ele>
        <time>2013-06-02T19:41:11Z</time>
      </trkpt>
      <trkpt lat="59.9012615" lon="17.6696943">
        <ele>33.7834</ele>
        <time>2013-06-02T19:41:12Z</time>
      </trkpt>
      <trkpt lat="59.9013387" lon="17.6696846">
        <ele>34.7449</ele>
        <time>2013-06-02T19:41:13Z</time>
      </trkpt>
      <trkpt lat="59.9014209" lon="17.6696835">
        <ele>35.7061</ele>
        <time>2013-06-02T19:41:14Z</time>
      </trkpt>
      <trkpt lat="59.9015072" lon="17.6696793">
        <ele>36.1868</ele>
        <time>2013-06-02T19:41:15Z</time>
      </trkpt>
      <trkpt lat="59.9015873" lon="17.6696872">
        <ele>36.6675</ele>
        <time>2013-06-02T19:41:16Z</time>
      </trkpt>
      <trkpt lat="59.9016638" lon="17.669696">
        <ele>37.1481</ele>
        <time>2013-06-02T19:41:17Z</time>
      </trkpt>
      <trkpt lat="59.9017351" lon="17.6697186">
        <ele>37.6287</ele>
        <time>2013-06-02T19:41:18Z</time>
      </trkpt>
      <trkpt lat="59.9018079" lon="17.6697377">
        <ele>37.1481</ele>
        <time>2013-06-02T19:41:19Z</time>
      </trkpt>
      <trkpt lat="59.9018769" lon="17.6697688">
        <ele>36.1868</ele>
        <time>2013-06-02T19:41:20Z</time>
      </trkpt>
      <trkpt lat="59.9019499" lon="17.6698137">
        <ele>36.1868</ele>
        <time>2013-06-02T19:41:21Z</time>
      </trkpt>
      <trkpt lat="59.902022" lon="17.6698691">
        <ele>36.6675</ele>
        <time>2013-06-02T19:41:22Z</time>
      </trkpt>
      <trkpt lat="59.9020909" lon="17.6699343">
        <ele>36.1868</ele>
        <time>2013-06-02T19:41:23Z</time>
      </trkpt>
      <trkpt lat="59.9021638" lon="17.6699901">
        <ele>36.1868</ele>
        <time>2013-06-02T19:41:24Z</time>
      </trkpt>
      <trkpt lat="59.9022401" lon="17.6700288">
        <ele>36.1868</ele>
        <time>2013-06-02T19:41:25Z</time>
      </trkpt>
      <trkpt lat="59.9023156" lon="17.6700477">
        <ele>35.2255</ele>
        <time>2013-06-02T19:41:26Z</time>
      </trkpt>
      <trkpt lat="59.9023973" lon="17.6700451">
        <ele>35.2255</ele>
        <time>2013-06-02T19:41:27Z</time>
      </trkpt>
      <trkpt lat="59.9024948" lon="17.6700258">
        <ele>35.2255</ele>
        <time>2013-06-02T19:41:28Z</time>
      </trkpt>
      <trkpt lat="59.902569" lon="17.6700026">
        <ele>35.2255</ele>
        <time>2013-06-02T19:41:29Z</time>
      </trkpt>
      <trkpt lat="59.9026389" lon="17.6699705">
        <ele>35.7061</ele>
        <time>2013-06-02T19:41:30Z</time>
      </trkpt>
      <trkpt lat="59.902706" lon="17.6699275">
        <ele>36.1868</ele>
        <time>2013-06-02T19:41:31Z</time>
      </trkpt>
      <trkpt lat="59.9027693" lon="17.6698805">
        <ele>36.6675</ele>
        <time>2013-06-02T19:41:32Z</time>
      </trkpt>
      <trkpt lat="59.90283" lon="17.6698602">
        <ele>36.1868</ele>
        <time>2013-06-02T19:41:33Z</time>
      </trkpt>
      <trkpt lat="59.902886" lon="17.6698571">
        <ele>34.7449</ele>
        <time>2013-06-02T19:41:34Z</time>
      </trkpt>
      <trkpt lat="59.9029397" lon="17.6698613">
        <ele>32.8223</ele>
        <time>2013-06-02T19:41:35Z</time>
      </trkpt>
      <trkpt lat="59.9029973" lon="17.6698875">
        <ele>32.3416</ele>
        <time>2013-06-02T19:41:36Z</time>
      </trkpt>
      <trkpt lat="59.9030626" lon="17.6699229">
        <ele>32.3416</ele>
        <time>2013-06-02T19:41:37Z</time>
      </trkpt>
      <trkpt lat="59.9031199" lon="17.6699581">
        <ele>30.8995</ele>
        <time>2013-06-02T19:41:38Z</time>
      </trkpt>
      <trkpt lat="59.903189" lon="17.6699948">
        <ele>30.4188</ele>
        <time>2013-06-02T19:41:39Z</time>
      </trkpt>
      <trkpt lat="59.9032611" lon="17.6699923">
        <ele>29.4575</ele>
        <time>2013-06-02T19:41:40Z</time>
      </trkpt>
      <trkpt lat="59.9033352" lon="17.6699679">
        <ele>28.9769</ele>
        <time>2013-06-02T19:41:41Z</time>
      </trkpt>
      <trkpt lat="59.9034012" lon="17.6699182">
        <ele>28.0155</ele>
        <time>2013-06-02T19:41:42Z</time>
      </trkpt>
      <trkpt lat="59.9034541" lon="17.6698194">
        <ele>27.0543</ele>
        <time>2013-06-02T19:41:43Z</time>
      </trkpt>
      <trkpt lat="59.9034911" lon="17.669685">
        <ele>26.0929</ele>
        <time>2013-06-02T19:41:44Z</time>
      </trkpt>
      <trkpt lat="59.9035174" lon="17.6695333">
        <ele>25.6123</ele>
        <time>2013-06-02T19:41:45Z</time>
      </trkpt>
      <trkpt lat="59.9035496" lon="17.6693953">
        <ele>24.1703</ele>
        <time>2013-06-02T19:41:46Z</time>
      </trkpt>
      <trkpt lat="59.9035804" lon="17.6692608">
        <ele>21.767</ele>
        <time>2013-06-02T19:41:47Z</time>
      </trkpt>
      <trkpt lat="59.9036116" lon="17.6691353">
        <ele>20.8057</ele>
        <time>2013-06-02T19:41:48Z</time>
      </trkpt>
      <trkpt lat="59.9036555" lon="17.6690184">
        <ele>20.325</ele>
        <time>2013-06-02T19:41:49Z</time>
      </trkpt>
      <trkpt lat="59.9037037" lon="17.6688961">
        <ele>21.2864</ele>
        <time>2013-06-02T19:41:50Z</time>
      </trkpt>
      <trkpt lat="59.9037458" lon="17.6687801">
        <ele>19.8444</ele>
        <time>2013-06-02T19:41:51Z</time>
      </trkpt>
      <trkpt lat="59.9037847" lon="17.6686747">
        <ele>19.3638</ele>
        <time>2013-06-02T19:41:52Z</time>
      </trkpt>
      <trkpt lat="59.9038246" lon="17.6685771">
        <ele>17.4412</ele>
        <time>2013-06-02T19:41:53Z</time>
      </trkpt>
      <trkpt lat="59.9038771" lon="17.6684863">
        <ele>18.4023</ele>
        <time>2013-06-02T19:41:54Z</time>
      </trkpt>
      <trkpt lat="59.9039337" lon="17.6684033">
        <ele>19.8444</ele>
        <time>2013-06-02T19:41:55Z</time>
      </trkpt>
      <trkpt lat="59.9039903" lon="17.6683194">
        <ele>21.2864</ele>
        <time>2013-06-02T19:41:56Z</time>
      </trkpt>
      <trkpt lat="59.9040387" lon="17.6682357">
        <ele>20.8057</ele>
        <time>2013-06-02T19:41:57Z</time>
      </trkpt>
      <trkpt lat="59.9040887" lon="17.6681626">
        <ele>20.8057</ele>
        <time>2013-06-02T19:41:58Z</time>
      </trkpt>
      <trkpt lat="59.9041471" lon="17.6681091">
        <ele>21.767</ele>
        <time>2013-06-02T19:41:59Z</time>
      </trkpt>
      <trkpt lat="59.9042089" lon="17.6680592">
        <ele>22.2476</ele>
        <time>2013-06-02T19:42:00Z</time>
      </trkpt>
      <trkpt lat="59.9042749" lon="17.66802">
        <ele>23.209</ele>
        <time>2013-06-02T19:42:01Z</time>
      </trkpt>
      <trkpt lat="59.9043435" lon="17.6679928">
        <ele>24.1703</ele>
        <time>2013-06-02T19:42:02Z</time>
      </trkpt>
      <trkpt lat="59.9044144" lon="17.6679667">
        <ele>25.1317</ele>
        <time>2013-06-02T19:42:03Z</time>
      </trkpt>
      <trkpt lat="59.9044857" lon="17.6679393">
        <ele>25.6123</ele>
        <time>2013-06-02T19:42:04Z</time>
      </trkpt>
      <trkpt lat="59.9045566" lon="17.6679104">
        <ele>26.0929</ele>
        <time>2013-06-02T19:42:05Z</time>
      </trkpt>
      <trkpt lat="59.9046266" lon="17.667898">
        <ele>25.1317</ele>
        <time>2013-06-02T19:42:06Z</time>
      </trkpt>
      <trkpt lat="59.9047007" lon="17.6678932">
        <ele>24.1703</ele>
        <time>2013-06-02T19:42:07Z</time>
      </trkpt>
      <trkpt lat="59.9047766" lon="17.667899">
        <ele>23.209</ele>
        <time>2013-06-02T19:42:08Z</time>
      </trkpt>
      <trkpt lat="59.9048561" lon="17.6679228">
        <ele>23.209</ele>
        <time>2013-06-02T19:42:09Z</time>
      </trkpt>
      <trkpt lat="59.9049393" lon="17.6679517">
        <ele>23.6896</ele>
        <time>2013-06-02T19:42:10Z</time>
      </trkpt>
      <trkpt lat="59.9050241" lon="17.6679872">
        <ele>23.6896</ele>
        <time>2013-06-02T19:42:11Z</time>
      </trkpt>
      <trkpt lat="59.9051082" lon="17.668021">
        <ele>24.651</ele>
        <time>2013-06-02T19:42:12Z</time>
      </trkpt>
      <trkpt lat="59.9051834" lon="17.6679918">
        <ele>24.1703</ele>
        <time>2013-06-02T19:42:13Z</time>
      </trkpt>
      <trkpt lat="59.9052646" lon="17.6680062">
        <ele>24.1703</ele>
        <time>2013-06-02T19:42:14Z</time>
      </trkpt>
      <trkpt lat="59.9053548" lon="17.6680104">
        <ele>23.209</ele>
        <time>2013-06-02T19:42:15Z</time>
      </trkpt>
      <trkpt lat="59.9054419" lon="17.6680653">
        <ele>22.7283</ele>
        <time>2013-06-02T19:42:16Z</time>
      </trkpt>
      <trkpt lat="59.9055194" lon="17.6681492">
        <ele>21.767</ele>
        <time>2013-06-02T19:42:17Z</time>
      </trkpt>
      <trkpt lat="59.905604" lon="17.6682173">
        <ele>22.2476</ele>
        <time>2013-06-02T19:42:18Z</time>
      </trkpt>
      <trkpt lat="59.9056893" lon="17.6682624">
        <ele>21.767</ele>
        <time>2013-06-02T19:42:19Z</time>
      </trkpt>
      <trkpt lat="59.9057711" lon="17.6683118">
        <ele>21.2864</ele>
        <time>2013-06-02T19:42:20Z</time>
      </trkpt>
      <trkpt lat="59.9058521" lon="17.6683709">
        <ele>22.2476</ele>
        <time>2013-06-02T19:42:21Z</time>
      </trkpt>
      <trkpt lat="59.9059279" lon="17.6684231">
        <ele>22.7283</ele>
        <time>2013-06-02T19:42:22Z</time>
      </trkpt>
      <trkpt lat="59.9060047" lon="17.6684622">
        <ele>22.7283</ele>
        <time>2013-06-02T19:42:23Z</time>
      </trkpt>
      <trkpt lat="59.9060789" lon="17.6685038">
        <ele>22.7283</ele>
        <time>2013-06-02T19:42:24Z</time>
      </trkpt>
      <trkpt lat="59.9061521" lon="17.6685371">
        <ele>22.7283</ele>
        <time>2013-06-02T19:42:25Z</time>
      </trkpt>
      <trkpt lat="59.9062246" lon="17.6685654">
        <ele>22.7283</ele>
        <time>2013-06-02T19:42:26Z</time>
      </trkpt>
      <trkpt lat="59.9062904" lon="17.6685805">
        <ele>23.209</ele>
        <time>2013-06-02T19:42:27Z</time>
      </trkpt>
      <trkpt lat="59.9063577" lon="17.6685951">
        <ele>23.209</ele>
        <time>2013-06-02T19:42:28Z</time>
      </trkpt>
      <trkpt lat="59.9064229" lon="17.6686055">
        <ele>23.6896</ele>
        <time>2013-06-02T19:42:29Z</time>
      </trkpt>
      <trkpt lat="59.9064841" lon="17.6686087">
        <ele>23.6896</ele>
        <time>2013-06-02T19:42:30Z</time>
      </trkpt>
      <trkpt lat="59.9065462" lon="17.6686055">
        <ele>23.6896</ele>
        <time>2013-06-02T19:42:31Z</time>
      </trkpt>
      <trkpt lat="59.9066095" lon="17.6685996">
        <ele>24.1703</ele>
        <time>2013-06-02T19:42:32Z</time>
      </trkpt>
      <trkpt lat="59.906669" lon="17.6685831">
        <ele>23.6896</ele>
        <time>2013-06-02T19:42:33Z</time>
      </trkpt>
      <trkpt lat="59.9067239" lon="17.6685605">
        <ele>21.2864</ele>
        <time>2013-06-02T19:42:34Z</time>
      </trkpt>
      <trkpt lat="59.9067872" lon="17.6685398">
        <ele>21.2864</ele>
        <time>2013-06-02T19:42:35Z</time>
      </trkpt>
      <trkpt lat="59.9068558" lon="17.6685109">
        <ele>21.767</ele>
        <time>2013-06-02T19:42:36Z</time>
      </trkpt>
      <trkpt lat="59.9069285" lon="17.6684796">
        <ele>22.2476</ele>
        <time>2013-06-02T19:42:37Z</time>
      </trkpt>
      <trkpt lat="59.907003" lon="17.668449">
        <ele>22.2476</ele>
        <time>2013-06-02T19:42:38Z</time>
      </trkpt>
      <trkpt lat="59.9070844" lon="17.6684173">
        <ele>22.2476</ele>
        <time>2013-06-02T19:42:39Z</time>
      </trkpt>
      <trkpt lat="59.9071658" lon="17.6683859">
        <ele>22.2476</ele>
        <time>2013-06-02T19:42:40Z</time>
      </trkpt>
      <trkpt lat="59.9072467" lon="17.6683583">
        <ele>22.2476</ele>
        <time>2013-06-02T19:42:41Z</time>
      </trkpt>
      <trkpt lat="59.9073275" lon="17.6683309">
        <ele>22.2476</ele>
        <time>2013-06-02T19:42:42Z</time>
      </trkpt>
      <trkpt lat="59.9074047" lon="17.6683009">
        <ele>21.767</ele>
        <time>2013-06-02T19:42:43Z</time>
      </trkpt>
      <trkpt lat="59.9074781" lon="17.6682564">
        <ele>21.2864</ele>
        <time>2013-06-02T19:42:44Z</time>
      </trkpt>
      <trkpt lat="59.9075508" lon="17.6681855">
        <ele>20.8057</ele>
        <time>2013-06-02T19:42:45Z</time>
      </trkpt>
      <trkpt lat="59.9076139" lon="17.6681005">
        <ele>20.325</ele>
        <time>2013-06-02T19:42:46Z</time>
      </trkpt>
      <trkpt lat="59.9076677" lon="17.6679797">
        <ele>19.8444</ele>
        <time>2013-06-02T19:42:47Z</time>
      </trkpt>
      <trkpt lat="59.9077112" lon="17.6678496">
        <ele>19.3638</ele>
        <time>2013-06-02T19:42:48Z</time>
      </trkpt>
      <trkpt lat="59.9077712" lon="17.6677333">
        <ele>21.767</ele>
        <time>2013-06-02T19:42:49Z</time>
      </trkpt>
      <trkpt lat="59.9078024" lon="17.6675808">
        <ele>23.6896</ele>
        <time>2013-06-02T19:42:50Z</time>
      </trkpt>
      <trkpt lat="59.9078312" lon="17.6674467">
        <ele>23.6896</ele>
        <time>2013-06-02T19:42:51Z</time>
      </trkpt>
      <trkpt lat="59.907822" lon="17.667255">
        <ele>23.6896</ele>
        <time>2013-06-02T19:42:52Z</time>
      </trkpt>
      <trkpt lat="59.9078149" lon="17.6670902">
        <ele>23.209</ele>
        <time>2013-06-02T19:42:53Z</time>
      </trkpt>
      <trkpt lat="59.9077972" lon="17.6669256">
        <ele>23.209</ele>
        <time>2013-06-02T19:42:54Z</time>
      </trkpt>
      <trkpt lat="59.9077965" lon="17.6667928">
        <ele>23.209</ele>
        <time>2013-06-02T19:42:55Z</time>
      </trkpt>
      <trkpt lat="59.9077834" lon="17.6666387">
        <ele>22.2476</ele>
        <time>2013-06-02T19:42:56Z</time>
      </trkpt>
      <trkpt lat="59.9077758" lon="17.6664947">
        <ele>21.2864</ele>
        <time>2013-06-02T19:42:57Z</time>
      </trkpt>
      <trkpt lat="59.9077743" lon="17.6663677">
        <ele>19.8444</ele>
        <time>2013-06-02T19:42:58Z</time>
      </trkpt>
      <trkpt lat="59.9077816" lon="17.6662372">
        <ele>17.9218</ele>
        <time>2013-06-02T19:42:59Z</time>
      </trkpt>
      <trkpt lat="59.9077966" lon="17.666107">
        <ele>16.9604</ele>
        <time>2013-06-02T19:43:00Z</time>
      </trkpt>
      <trkpt lat="59.907816" lon="17.6659961">
        <ele>15.999</ele>
        <time>2013-06-02T19:43:01Z</time>
      </trkpt>
      <trkpt lat="59.9078483" lon="17.665885">
        <ele>15.999</ele>
        <time>2013-06-02T19:43:02Z</time>
      </trkpt>
      <trkpt lat="59.9078664" lon="17.6657444">
        <ele>15.5184</ele>
        <time>2013-06-02T19:43:03Z</time>
      </trkpt>
      <trkpt lat="59.9078795" lon="17.6656073">
        <ele>15.0377</ele>
        <time>2013-06-02T19:43:04Z</time>
      </trkpt>
      <trkpt lat="59.9078895" lon="17.6654597">
        <ele>12.1538</ele>
        <time>2013-06-02T19:43:05Z</time>
      </trkpt>
      <trkpt lat="59.9079066" lon="17.6653137">
        <ele>10.7118</ele>
        <time>2013-06-02T19:43:06Z</time>
      </trkpt>
      <trkpt lat="59.9079355" lon="17.665166">
        <ele>12.1538</ele>
        <time>2013-06-02T19:43:07Z</time>
      </trkpt>
      <trkpt lat="59.9079542" lon="17.6650214">
        <ele>11.1925</ele>
        <time>2013-06-02T19:43:08Z</time>
      </trkpt>
      <trkpt lat="59.9079728" lon="17.6648759">
        <ele>11.6732</ele>
        <time>2013-06-02T19:43:09Z</time>
      </trkpt>
      <trkpt lat="59.9079711" lon="17.6647127">
        <ele>11.1925</ele>
        <time>2013-06-02T19:43:10Z</time>
      </trkpt>
      <trkpt lat="59.9079645" lon="17.6645413">
        <ele>11.1925</ele>
        <time>2013-06-02T19:43:11Z</time>
      </trkpt>
      <trkpt lat="59.9079656" lon="17.6643426">
        <ele>14.0764</ele>
        <time>2013-06-02T19:43:12Z</time>
      </trkpt>
      <trkpt lat="59.9079656" lon="17.6641662">
        <ele>16.4797</ele>
        <time>2013-06-02T19:43:13Z</time>
      </trkpt>
      <trkpt lat="59.9079604" lon="17.6639945">
        <ele>19.3638</ele>
        <time>2013-06-02T19:43:14Z</time>
      </trkpt>
      <trkpt lat="59.907953" lon="17.6638233">
        <ele>22.2476</ele>
        <time>2013-06-02T19:43:15Z</time>
      </trkpt>
      <trkpt lat="59.9079346" lon="17.6636499">
        <ele>23.209</ele>
        <time>2013-06-02T19:43:16Z</time>
      </trkpt>
      <trkpt lat="59.9079196" lon="17.6634855">
        <ele>24.651</ele>
        <time>2013-06-02T19:43:17Z</time>
      </trkpt>
      <trkpt lat="59.9079023" lon="17.6633218">
        <ele>25.6123</ele>
        <time>2013-06-02T19:43:18Z</time>
      </trkpt>
      <trkpt lat="59.9078822" lon="17.6631667">
        <ele>23.6896</ele>
        <time>2013-06-02T19:43:19Z</time>
      </trkpt>
      <trkpt lat="59.9078589" lon="17.6630083">
        <ele>22.2476</ele>
        <time>2013-06-02T19:43:20Z</time>
      </trkpt>
      <trkpt lat="59.9078354" lon="17.6628485">
        <ele>22.7283</ele>
        <time>2013-06-02T19:43:21Z</time>
      </trkpt>
      <trkpt lat="59.9078119" lon="17.6626841">
        <ele>23.6896</ele>
        <time>2013-06-02T19:43:22Z</time>
      </trkpt>
      <trkpt lat="59.9077874" lon="17.6625184">
        <ele>24.1703</ele>
        <time>2013-06-02T19:43:23Z</time>
      </trkpt>
      <trkpt lat="59.9077618" lon="17.6623566">
        <ele>24.651</ele>
        <time>2013-06-02T19:43:24Z</time>
      </trkpt>
      <trkpt lat="59.9077372" lon="17.6621973">
        <ele>23.6896</ele>
        <time>2013-06-02T19:43:25Z</time>
      </trkpt>
      <trkpt lat="59.9077221" lon="17.6620382">
        <ele>23.6896</ele>
        <time>2013-06-02T19:43:26Z</time>
      </trkpt>
      <trkpt lat="59.9077076" lon="17.6618788">
        <ele>24.1703</ele>
        <time>2013-06-02T19:43:27Z</time>
      </trkpt>
      <trkpt lat="59.9076833" lon="17.6617165">
        <ele>22.2476</ele>
        <time>2013-06-02T19:43:28Z</time>
      </trkpt>
      <trkpt lat="59.9076616" lon="17.6615487">
        <ele>19.8444</ele>
        <time>2013-06-02T19:43:29Z</time>
      </trkpt>
      <trkpt lat="59.9076458" lon="17.6613871">
        <ele>19.3638</ele>
        <time>2013-06-02T19:43:30Z</time>
      </trkpt>
      <trkpt lat="59.9076334" lon="17.6612297">
        <ele>20.325</ele>
        <time>2013-06-02T19:43:31Z</time>
      </trkpt>
      <trkpt lat="59.9076217" lon="17.6610802">
        <ele>20.8057</ele>
        <time>2013-06-02T19:43:32Z</time>
      </trkpt>
      <trkpt lat="59.90761" lon="17.6609388">
        <ele>21.767</ele>
        <time>2013-06-02T19:43:33Z</time>
      </trkpt>
      <trkpt lat="59.9075948" lon="17.6607954">
        <ele>21.2864</ele>
        <time>2013-06-02T19:43:34Z</time>
      </trkpt>
      <trkpt lat="59.9075827" lon="17.6606627">
        <ele>20.8057</ele>
        <time>2013-06-02T19:43:35Z</time>
      </trkpt>
      <trkpt lat="59.9075681" lon="17.6605245">
        <ele>19.8444</ele>
        <time>2013-06-02T19:43:36Z</time>
      </trkpt>
      <trkpt lat="59.9075446" lon="17.660377">
        <ele>19.3638</ele>
        <time>2013-06-02T19:43:37Z</time>
      </trkpt>
      <trkpt lat="59.907519" lon="17.6602266">
        <ele>18.8831</ele>
        <time>2013-06-02T19:43:38Z</time>
      </trkpt>
      <trkpt lat="59.9074906" lon="17.6600685">
        <ele>19.8444</ele>
        <time>2013-06-02T19:43:39Z</time>
      </trkpt>
      <trkpt lat="59.9074621" lon="17.6599082">
        <ele>19.8444</ele>
        <time>2013-06-02T19:43:40Z</time>
      </trkpt>
      <trkpt lat="59.9074448" lon="17.6597491">
        <ele>20.8057</ele>
        <time>2013-06-02T19:43:41Z</time>
      </trkpt>
      <trkpt lat="59.9074311" lon="17.6595901">
        <ele>22.2476</ele>
        <time>2013-06-02T19:43:42Z</time>
      </trkpt>
      <trkpt lat="59.9074158" lon="17.6594311">
        <ele>22.7283</ele>
        <time>2013-06-02T19:43:43Z</time>
      </trkpt>
      <trkpt lat="59.9074004" lon="17.6592746">
        <ele>22.7283</ele>
        <time>2013-06-02T19:43:44Z</time>
      </trkpt>
      <trkpt lat="59.9073905" lon="17.659123">
        <ele>24.1703</ele>
        <time>2013-06-02T19:43:45Z</time>
      </trkpt>
      <trkpt lat="59.9073774" lon="17.658972">
        <ele>24.1703</ele>
        <time>2013-06-02T19:43:46Z</time>
      </trkpt>
      <trkpt lat="59.9073627" lon="17.658828">
        <ele>24.1703</ele>
        <time>2013-06-02T19:43:47Z</time>
      </trkpt>
      <trkpt lat="59.9073495" lon="17.6586837">
        <ele>25.1317</ele>
        <time>2013-06-02T19:43:48Z</time>
      </trkpt>
      <trkpt lat="59.907336" lon="17.658539">
        <ele>26.5736</ele>
        <time>2013-06-02T19:43:49Z</time>
      </trkpt>
      <trkpt lat="59.9073216" lon="17.6583987">
        <ele>27.5349</ele>
        <time>2013-06-02T19:43:50Z</time>
      </trkpt>
      <trkpt lat="59.9073143" lon="17.658252">
        <ele>29.9381</ele>
        <time>2013-06-02T19:43:51Z</time>
      </trkpt>
      <trkpt lat="59.9072922" lon="17.6580982">
        <ele>29.4575</ele>
        <time>2013-06-02T19:43:52Z</time>
      </trkpt>
      <trkpt lat="59.9072692" lon="17.6579438">
        <ele>29.4575</ele>
        <time>2013-06-02T19:43:53Z</time>
      </trkpt>
      <trkpt lat="59.9072446" lon="17.657793">
        <ele>28.9769</ele>
        <time>2013-06-02T19:43:54Z</time>
      </trkpt>
      <trkpt lat="59.9072186" lon="17.6576388">
        <ele>28.4962</ele>
        <time>2013-06-02T19:43:55Z</time>
      </trkpt>
      <trkpt lat="59.9071937" lon="17.6574821">
        <ele>28.9769</ele>
        <time>2013-06-02T19:43:56Z</time>
      </trkpt>
      <trkpt lat="59.9071687" lon="17.6573268">
        <ele>29.4575</ele>
        <time>2013-06-02T19:43:57Z</time>
      </trkpt>
      <trkpt lat="59.9071425" lon="17.6571713">
        <ele>29.4575</ele>
        <time>2013-06-02T19:43:58Z</time>
      </trkpt>
      <trkpt lat="59.9071202" lon="17.6570116">
        <ele>30.4188</ele>
        <time>2013-06-02T19:43:59Z</time>
      </trkpt>
      <trkpt lat="59.9071041" lon="17.6568503">
        <ele>31.3801</ele>
        <time>2013-06-02T19:44:00Z</time>
      </trkpt>
      <trkpt lat="59.9070925" lon="17.656689">
        <ele>32.8223</ele>
        <time>2013-06-02T19:44:01Z</time>
      </trkpt>
      <trkpt lat="59.9070841" lon="17.6565271">
        <ele>34.2642</ele>
        <time>2013-06-02T19:44:02Z</time>
      </trkpt>
      <trkpt lat="59.9070723" lon="17.656357">
        <ele>32.3416</ele>
        <time>2013-06-02T19:44:03Z</time>
      </trkpt>
      <trkpt lat="59.9070667" lon="17.6561876">
        <ele>33.3029</ele>
        <time>2013-06-02T19:44:04Z</time>
      </trkpt>
      <trkpt lat="59.9070653" lon="17.656008">
        <ele>34.7449</ele>
        <time>2013-06-02T19:44:05Z</time>
      </trkpt>
      <trkpt lat="59.9070581" lon="17.6558232">
        <ele>32.8223</ele>
        <time>2013-06-02T19:44:06Z</time>
      </trkpt>
      <trkpt lat="59.9070522" lon="17.6556409">
        <ele>31.3801</ele>
        <time>2013-06-02T19:44:07Z</time>
      </trkpt>
      <trkpt lat="59.9070548" lon="17.6554585">
        <ele>32.8223</ele>
        <time>2013-06-02T19:44:08Z</time>
      </trkpt>
      <trkpt lat="59.9070581" lon="17.6552728">
        <ele>34.2642</ele>
        <time>2013-06-02T19:44:09Z</time>
      </trkpt>
      <trkpt lat="59.9070606" lon="17.6550873">
        <ele>35.7061</ele>
        <time>2013-06-02T19:44:10Z</time>
      </trkpt>
      <trkpt lat="59.9070639" lon="17.654906">
        <ele>37.1481</ele>
        <time>2013-06-02T19:44:11Z</time>
      </trkpt>
      <trkpt lat="59.9070684" lon="17.6547265">
        <ele>38.1094</ele>
        <time>2013-06-02T19:44:12Z</time>
      </trkpt>
      <trkpt lat="59.9070755" lon="17.6545417">
        <ele>39.5513</ele>
        <time>2013-06-02T19:44:13Z</time>
      </trkpt>
      <trkpt lat="59.9070834" lon="17.6543519">
        <ele>40.9934</ele>
        <time>2013-06-02T19:44:14Z</time>
      </trkpt>
      <trkpt lat="59.9070921" lon="17.6541623">
        <ele>41.9547</ele>
        <time>2013-06-02T19:44:15Z</time>
      </trkpt>
      <trkpt lat="59.907099" lon="17.653982">
        <ele>42.916</ele>
        <time>2013-06-02T19:44:16Z</time>
      </trkpt>
      <trkpt lat="59.9071061" lon="17.6538042">
        <ele>43.8773</ele>
        <time>2013-06-02T19:44:17Z</time>
      </trkpt>
      <trkpt lat="59.907099" lon="17.6536221">
        <ele>38.5901</ele>
        <time>2013-06-02T19:44:18Z</time>
      </trkpt>
      <trkpt lat="59.9070968" lon="17.6534419">
        <ele>35.2255</ele>
        <time>2013-06-02T19:44:19Z</time>
      </trkpt>
      <trkpt lat="59.9071011" lon="17.6532684">
        <ele>35.2255</ele>
        <time>2013-06-02T19:44:20Z</time>
      </trkpt>
      <trkpt lat="59.9071076" lon="17.6531001">
        <ele>35.7061</ele>
        <time>2013-06-02T19:44:21Z</time>
      </trkpt>
      <trkpt lat="59.9071134" lon="17.6529368">
        <ele>34.7449</ele>
        <time>2013-06-02T19:44:22Z</time>
      </trkpt>
      <trkpt lat="59.9071192" lon="17.6527709">
        <ele>34.2642</ele>
        <time>2013-06-02T19:44:23Z</time>
      </trkpt>
      <trkpt lat="59.9071231" lon="17.6526099">
        <ele>33.7834</ele>
        <time>2013-06-02T19:44:24Z</time>
      </trkpt>
      <trkpt lat="59.9071244" lon="17.6524513">
        <ele>33.7834</ele>
        <time>2013-06-02T19:44:25Z</time>
      </trkpt>
      <trkpt lat="59.9071233" lon="17.6522834">
        <ele>34.7449</ele>
        <time>2013-06-02T19:44:26Z</time>
      </trkpt>
      <trkpt lat="59.9071165" lon="17.6521184">
        <ele>34.7449</ele>
        <time>2013-06-02T19:44:27Z</time>
      </trkpt>
      <trkpt lat="59.9071048" lon="17.6519527">
        <ele>35.2255</ele>
        <time>2013-06-02T19:44:28Z</time>
      </trkpt>
      <trkpt lat="59.9070881" lon="17.6517847">
        <ele>36.1868</ele>
        <time>2013-06-02T19:44:29Z</time>
      </trkpt>
      <trkpt lat="59.9070646" lon="17.6516195">
        <ele>36.1868</ele>
        <time>2013-06-02T19:44:30Z</time>
      </trkpt>
      <trkpt lat="59.9070363" lon="17.6514556">
        <ele>35.7061</ele>
        <time>2013-06-02T19:44:31Z</time>
      </trkpt>
      <trkpt lat="59.9070016" lon="17.6513009">
        <ele>35.7061</ele>
        <time>2013-06-02T19:44:32Z</time>
      </trkpt>
      <trkpt lat="59.9069618" lon="17.6511503">
        <ele>35.7061</ele>
        <time>2013-06-02T19:44:33Z</time>
      </trkpt>
      <trkpt lat="59.90692" lon="17.6510032">
        <ele>35.7061</ele>
        <time>2013-06-02T19:44:34Z</time>
      </trkpt>
      <trkpt lat="59.9068818" lon="17.6508569">
        <ele>35.7061</ele>
        <time>2013-06-02T19:44:35Z</time>
      </trkpt>
      <trkpt lat="59.9068467" lon="17.6507117">
        <ele>36.1868</ele>
        <time>2013-06-02T19:44:36Z</time>
      </trkpt>
      <trkpt lat="59.9068126" lon="17.6505651">
        <ele>35.7061</ele>
        <time>2013-06-02T19:44:37Z</time>
      </trkpt>
      <trkpt lat="59.9067804" lon="17.6504201">
        <ele>35.2255</ele>
        <time>2013-06-02T19:44:38Z</time>
      </trkpt>
      <trkpt lat="59.9067499" lon="17.6502773">
        <ele>36.1868</ele>
        <time>2013-06-02T19:44:39Z</time>
      </trkpt>
      <trkpt lat="59.9067173" lon="17.6501354">
        <ele>36.6675</ele>
        <time>2013-06-02T19:44:40Z</time>
      </trkpt>
      <trkpt lat="59.9066834" lon="17.6499893">
        <ele>36.6675</ele>
        <time>2013-06-02T19:44:41Z</time>
      </trkpt>
      <trkpt lat="59.9066499" lon="17.6498437">
        <ele>36.6675</ele>
        <time>2013-06-02T19:44:42Z</time>
      </trkpt>
      <trkpt lat="59.9066177" lon="17.6497008">
        <ele>36.6675</ele>
        <time>2013-06-02T19:44:43Z</time>
      </trkpt>
      <trkpt lat="59.9065834" lon="17.6495553">
        <ele>36.6675</ele>
        <time>2013-06-02T19:44:44Z</time>
      </trkpt>
      <trkpt lat="59.90655" lon="17.6494098">
        <ele>37.1481</ele>
        <time>2013-06-02T19:44:45Z</time>
      </trkpt>
      <trkpt lat="59.9065062" lon="17.6492642">
        <ele>33.3029</ele>
        <time>2013-06-02T19:44:46Z</time>
      </trkpt>
      <trkpt lat="59.9064591" lon="17.6491222">
        <ele>29.4575</ele>
        <time>2013-06-02T19:44:47Z</time>
      </trkpt>
      <trkpt lat="59.9064131" lon="17.6489875">
        <ele>27.0543</ele>
        <time>2013-06-02T19:44:48Z</time>
      </trkpt>
      <trkpt lat="59.9063684" lon="17.6488568">
        <ele>27.0543</ele>
        <time>2013-06-02T19:44:49Z</time>
      </trkpt>
      <trkpt lat="59.9063178" lon="17.6487285">
        <ele>25.6123</ele>
        <time>2013-06-02T19:44:50Z</time>
      </trkpt>
      <trkpt lat="59.9062596" lon="17.6485985">
        <ele>22.2476</ele>
        <time>2013-06-02T19:44:51Z</time>
      </trkpt>
      <trkpt lat="59.906207" lon="17.6484685">
        <ele>21.767</ele>
        <time>2013-06-02T19:44:52Z</time>
      </trkpt>
      <trkpt lat="59.9061573" lon="17.6483357">
        <ele>21.767</ele>
        <time>2013-06-02T19:44:53Z</time>
      </trkpt>
      <trkpt lat="59.9061109" lon="17.6481992">
        <ele>21.2864</ele>
        <time>2013-06-02T19:44:54Z</time>
      </trkpt>
      <trkpt lat="59.9060711" lon="17.6480605">
        <ele>22.2476</ele>
        <time>2013-06-02T19:44:55Z</time>
      </trkpt>
      <trkpt lat="59.9060241" lon="17.6479161">
        <ele>18.4023</ele>
        <time>2013-06-02T19:44:56Z</time>
      </trkpt>
      <trkpt lat="59.9059908" lon="17.6477708">
        <ele>17.4412</ele>
        <time>2013-06-02T19:44:57Z</time>
      </trkpt>
      <trkpt lat="59.9059657" lon="17.6476225">
        <ele>17.4412</ele>
        <time>2013-06-02T19:44:58Z</time>
      </trkpt>
      <trkpt lat="59.9059473" lon="17.6474692">
        <ele>17.4412</ele>
        <time>2013-06-02T19:44:59Z</time>
      </trkpt>
      <trkpt lat="59.9059391" lon="17.6473133">
        <ele>18.4023</ele>
        <time>2013-06-02T19:45:00Z</time>
      </trkpt>
      <trkpt lat="59.9059366" lon="17.6471573">
        <ele>19.3638</ele>
        <time>2013-06-02T19:45:01Z</time>
      </trkpt>
      <trkpt lat="59.9059381" lon="17.6470034">
        <ele>19.8444</ele>
        <time>2013-06-02T19:45:02Z</time>
      </trkpt>
      <trkpt lat="59.9059448" lon="17.6468533">
        <ele>20.8057</ele>
        <time>2013-06-02T19:45:03Z</time>
      </trkpt>
      <trkpt lat="59.9059573" lon="17.6467098">
        <ele>21.2864</ele>
        <time>2013-06-02T19:45:04Z</time>
      </trkpt>
      <trkpt lat="59.9059723" lon="17.6465741">
        <ele>22.2476</ele>
        <time>2013-06-02T19:45:05Z</time>
      </trkpt>
      <trkpt lat="59.9059873" lon="17.6464424">
        <ele>24.1703</ele>
        <time>2013-06-02T19:45:06Z</time>
      </trkpt>
      <trkpt lat="59.9060029" lon="17.6463233">
        <ele>25.6123</ele>
        <time>2013-06-02T19:45:07Z</time>
      </trkpt>
      <trkpt lat="59.9060131" lon="17.6462326">
        <ele>25.6123</ele>
        <time>2013-06-02T19:45:08Z</time>
      </trkpt>
      <trkpt lat="59.9060262" lon="17.6461616">
        <ele>26.0929</ele>
        <time>2013-06-02T19:45:09Z</time>
      </trkpt>
      <trkpt lat="59.9060394" lon="17.6461133">
        <ele>26.5736</ele>
        <time>2013-06-02T19:45:10Z</time>
      </trkpt>
      <trkpt lat="59.9060465" lon="17.6460897">
        <ele>27.5349</ele>
        <time>2013-06-02T19:45:11Z</time>
      </trkpt>
      <trkpt lat="59.9060498" lon="17.6460845">
        <ele>28.0155</ele>
        <time>2013-06-02T19:45:12Z</time>
      </trkpt>
      <trkpt lat="59.9060516" lon="17.6460862">
        <ele>28.0155</ele>
        <time>2013-06-02T19:45:13Z</time>
      </trkpt>
      <trkpt lat="59.9060511" lon="17.6460949">
        <ele>28.0155</ele>
        <time>2013-06-02T19:45:14Z</time>
      </trkpt>
      <trkpt lat="59.9060524" lon="17.6461035">
        <ele>28.0155</ele>
        <time>2013-06-02T19:45:15Z</time>
      </trkpt>
      <trkpt lat="59.9060548" lon="17.6461165">
        <ele>27.0543</ele>
        <time>2013-06-02T19:45:16Z</time>
      </trkpt>
      <trkpt lat="59.9060524" lon="17.6461313">
        <ele>26.0929</ele>
        <time>2013-06-02T19:45:17Z</time>
      </trkpt>
      <trkpt lat="59.9060486" lon="17.646147">
        <ele>24.651</ele>
        <time>2013-06-02T19:45:18Z</time>
      </trkpt>
      <trkpt lat="59.9060457" lon="17.6461595">
        <ele>23.209</ele>
        <time>2013-06-02T19:45:19Z</time>
      </trkpt>
      <trkpt lat="59.9060482" lon="17.6461716">
        <ele>24.1703</ele>
        <time>2013-06-02T19:45:20Z</time>
      </trkpt>
      <trkpt lat="59.9060496" lon="17.6461928">
        <ele>18.4023</ele>
        <time>2013-06-02T19:46:44Z</time>
      </trkpt>
      <trkpt lat="59.9060521" lon="17.646182">
        <ele>18.4023</ele>
        <time>2013-06-02T19:46:45Z</time>
      </trkpt>
      <trkpt lat="59.9060537" lon="17.6461457">
        <ele>18.4023</ele>
        <time>2013-06-02T19:46:46Z</time>
      </trkpt>
      <trkpt lat="59.9060534" lon="17.6461035">
        <ele>18.8831</ele>
        <time>2013-06-02T19:46:47Z</time>
      </trkpt>
      <trkpt lat="59.9060583" lon="17.6460558">
        <ele>18.8831</ele>
        <time>2013-06-02T19:46:48Z</time>
      </trkpt>
      <trkpt lat="59.9060666" lon="17.6460004">
        <ele>18.8831</ele>
        <time>2013-06-02T19:46:49Z</time>
      </trkpt>
      <trkpt lat="59.9060773" lon="17.6459341">
        <ele>18.8831</ele>
        <time>2013-06-02T19:46:50Z</time>
      </trkpt>
      <trkpt lat="59.9060886" lon="17.6458601">
        <ele>18.4023</ele>
        <time>2013-06-02T19:46:51Z</time>
      </trkpt>
      <trkpt lat="59.9061008" lon="17.6457798">
        <ele>18.4023</ele>
        <time>2013-06-02T19:46:52Z</time>
      </trkpt>
      <trkpt lat="59.9061142" lon="17.6456923">
        <ele>18.4023</ele>
        <time>2013-06-02T19:46:53Z</time>
      </trkpt>
      <trkpt lat="59.906126" lon="17.6455987">
        <ele>18.4023</ele>
        <time>2013-06-02T19:46:54Z</time>
      </trkpt>
      <trkpt lat="59.9061355" lon="17.6454998">
        <ele>18.4023</ele>
        <time>2013-06-02T19:46:55Z</time>
      </trkpt>
      <trkpt lat="59.9061444" lon="17.6453956">
        <ele>17.9218</ele>
        <time>2013-06-02T19:46:56Z</time>
      </trkpt>
      <trkpt lat="59.9061537" lon="17.6452847">
        <ele>17.4412</ele>
        <time>2013-06-02T19:46:57Z</time>
      </trkpt>
      <trkpt lat="59.9061615" lon="17.6451686">
        <ele>17.4412</ele>
        <time>2013-06-02T19:46:58Z</time>
      </trkpt>
      <trkpt lat="59.906165" lon="17.6450495">
        <ele>16.9604</ele>
        <time>2013-06-02T19:46:59Z</time>
      </trkpt>
      <trkpt lat="59.9061602" lon="17.6449186">
        <ele>16.9604</ele>
        <time>2013-06-02T19:47:00Z</time>
      </trkpt>
      <trkpt lat="59.9061494" lon="17.6447905">
        <ele>16.4797</ele>
        <time>2013-06-02T19:47:01Z</time>
      </trkpt>
      <trkpt lat="59.9061332" lon="17.6446642">
        <ele>15.999</ele>
        <time>2013-06-02T19:47:02Z</time>
      </trkpt>
      <trkpt lat="59.9061026" lon="17.644497">
        <ele>15.5184</ele>
        <time>2013-06-02T19:47:03Z</time>
      </trkpt>
      <trkpt lat="59.9060774" lon="17.644376">
        <ele>15.5184</ele>
        <time>2013-06-02T19:47:04Z</time>
      </trkpt>
      <trkpt lat="59.9060484" lon="17.6442632">
        <ele>15.0377</ele>
        <time>2013-06-02T19:47:05Z</time>
      </trkpt>
      <trkpt lat="59.9060173" lon="17.6441543">
        <ele>14.557</ele>
        <time>2013-06-02T19:47:06Z</time>
      </trkpt>
      <trkpt lat="59.9059842" lon="17.6440484">
        <ele>14.0764</ele>
        <time>2013-06-02T19:47:07Z</time>
      </trkpt>
      <trkpt lat="59.905949" lon="17.6439462">
        <ele>14.0764</ele>
        <time>2013-06-02T19:47:08Z</time>
      </trkpt>
      <trkpt lat="59.905912" lon="17.6438458">
        <ele>13.5958</ele>
        <time>2013-06-02T19:47:09Z</time>
      </trkpt>
      <trkpt lat="59.9058769" lon="17.6437469">
        <ele>13.5958</ele>
        <time>2013-06-02T19:47:10Z</time>
      </trkpt>
      <trkpt lat="59.9058476" lon="17.6436509">
        <ele>13.5958</ele>
        <time>2013-06-02T19:47:11Z</time>
      </trkpt>
      <trkpt lat="59.9058278" lon="17.6435639">
        <ele>13.5958</ele>
        <time>2013-06-02T19:47:12Z</time>
      </trkpt>
      <trkpt lat="59.9058159" lon="17.6434935">
        <ele>14.0764</ele>
        <time>2013-06-02T19:47:13Z</time>
      </trkpt>
      <trkpt lat="59.9058133" lon="17.6434404">
        <ele>15.0377</ele>
        <time>2013-06-02T19:47:14Z</time>
      </trkpt>
      <trkpt lat="59.9058148" lon="17.6434069">
        <ele>15.0377</ele>
        <time>2013-06-02T19:47:15Z</time>
      </trkpt>
      <trkpt lat="59.9058215" lon="17.6433712">
        <ele>15.0377</ele>
        <time>2013-06-02T19:47:16Z</time>
      </trkpt>
      <trkpt lat="59.905834" lon="17.6433384">
        <ele>15.0377</ele>
        <time>2013-06-02T19:47:17Z</time>
      </trkpt>
      <trkpt lat="59.9058548" lon="17.6433119">
        <ele>15.5184</ele>
        <time>2013-06-02T19:47:18Z</time>
      </trkpt>
      <trkpt lat="59.9058878" lon="17.6432976">
        <ele>15.5184</ele>
        <time>2013-06-02T19:47:19Z</time>
      </trkpt>
      <trkpt lat="59.9059246" lon="17.6433105">
        <ele>15.5184</ele>
        <time>2013-06-02T19:47:20Z</time>
      </trkpt>
      <trkpt lat="59.9059687" lon="17.6433332">
        <ele>15.999</ele>
        <time>2013-06-02T19:47:21Z</time>
      </trkpt>
      <trkpt lat="59.9060221" lon="17.6433618">
        <ele>15.999</ele>
        <time>2013-06-02T19:47:22Z</time>
      </trkpt>
      <trkpt lat="59.906078" lon="17.6433889">
        <ele>16.9604</ele>
        <time>2013-06-02T19:47:23Z</time>
      </trkpt>
      <trkpt lat="59.9061343" lon="17.6434136">
        <ele>17.9218</ele>
        <time>2013-06-02T19:47:24Z</time>
      </trkpt>
      <trkpt lat="59.9061928" lon="17.6434347">
        <ele>18.8831</ele>
        <time>2013-06-02T19:47:25Z</time>
      </trkpt>
      <trkpt lat="59.9062531" lon="17.6434562">
        <ele>19.3638</ele>
        <time>2013-06-02T19:47:26Z</time>
      </trkpt>
      <trkpt lat="59.906313" lon="17.6434793">
        <ele>19.8444</ele>
        <time>2013-06-02T19:47:27Z</time>
      </trkpt>
      <trkpt lat="59.9063739" lon="17.6435049">
        <ele>19.8444</ele>
        <time>2013-06-02T19:47:28Z</time>
      </trkpt>
      <trkpt lat="59.9064355" lon="17.6435322">
        <ele>19.3638</ele>
        <time>2013-06-02T19:47:29Z</time>
      </trkpt>
      <trkpt lat="59.906497" lon="17.6435592">
        <ele>19.3638</ele>
        <time>2013-06-02T19:47:30Z</time>
      </trkpt>
      <trkpt lat="59.9065587" lon="17.6435818">
        <ele>18.8831</ele>
        <time>2013-06-02T19:47:31Z</time>
      </trkpt>
      <trkpt lat="59.9066213" lon="17.6436018">
        <ele>18.8831</ele>
        <time>2013-06-02T19:47:32Z</time>
      </trkpt>
      <trkpt lat="59.9066843" lon="17.6436219">
        <ele>18.8831</ele>
        <time>2013-06-02T19:47:33Z</time>
      </trkpt>
      <trkpt lat="59.9067477" lon="17.6436426">
        <ele>18.8831</ele>
        <time>2013-06-02T19:47:34Z</time>
      </trkpt>
      <trkpt lat="59.9068107" lon="17.6436623">
        <ele>18.8831</ele>
        <time>2013-06-02T19:47:35Z</time>
      </trkpt>
      <trkpt lat="59.906874" lon="17.6436794">
        <ele>18.8831</ele>
        <time>2013-06-02T19:47:36Z</time>
      </trkpt>
      <trkpt lat="59.9069366" lon="17.6436959">
        <ele>18.8831</ele>
        <time>2013-06-02T19:47:37Z</time>
      </trkpt>
      <trkpt lat="59.9069988" lon="17.6437121">
        <ele>19.3638</ele>
        <time>2013-06-02T19:47:38Z</time>
      </trkpt>
      <trkpt lat="59.9070611" lon="17.6437271">
        <ele>19.3638</ele>
        <time>2013-06-02T19:47:39Z</time>
      </trkpt>
      <trkpt lat="59.9071232" lon="17.6437416">
        <ele>19.3638</ele>
        <time>2013-06-02T19:47:40Z</time>
      </trkpt>
      <trkpt lat="59.9071843" lon="17.6437578">
        <ele>19.3638</ele>
        <time>2013-06-02T19:47:41Z</time>
      </trkpt>
      <trkpt lat="59.9072455" lon="17.6437723">
        <ele>19.3638</ele>
        <time>2013-06-02T19:47:42Z</time>
      </trkpt>
      <trkpt lat="59.9073071" lon="17.643785">
        <ele>19.8444</ele>
        <time>2013-06-02T19:47:43Z</time>
      </trkpt>
      <trkpt lat="59.9073684" lon="17.6437975">
        <ele>19.8444</ele>
        <time>2013-06-02T19:47:44Z</time>
      </trkpt>
      <trkpt lat="59.90743" lon="17.6438109">
        <ele>19.8444</ele>
        <time>2013-06-02T19:47:45Z</time>
      </trkpt>
      <trkpt lat="59.9074916" lon="17.6438233">
        <ele>19.8444</ele>
        <time>2013-06-02T19:47:46Z</time>
      </trkpt>
      <trkpt lat="59.9075529" lon="17.6438353">
        <ele>20.325</ele>
        <time>2013-06-02T19:47:47Z</time>
      </trkpt>
      <trkpt lat="59.9076137" lon="17.6438471">
        <ele>20.325</ele>
        <time>2013-06-02T19:47:48Z</time>
      </trkpt>
      <trkpt lat="59.907674" lon="17.6438567">
        <ele>20.325</ele>
        <time>2013-06-02T19:47:49Z</time>
      </trkpt>
      <trkpt lat="59.9077346" lon="17.6438622">
        <ele>20.8057</ele>
        <time>2013-06-02T19:47:50Z</time>
      </trkpt>
      <trkpt lat="59.9077926" lon="17.643873">
        <ele>20.8057</ele>
        <time>2013-06-02T19:47:51Z</time>
      </trkpt>
      <trkpt lat="59.9078505" lon="17.6438835">
        <ele>20.8057</ele>
        <time>2013-06-02T19:47:52Z</time>
      </trkpt>
      <trkpt lat="59.9079086" lon="17.6438907">
        <ele>21.2864</ele>
        <time>2013-06-02T19:47:53Z</time>
      </trkpt>
      <trkpt lat="59.9079662" lon="17.6438948">
        <ele>21.2864</ele>
        <time>2013-06-02T19:47:54Z</time>
      </trkpt>
      <trkpt lat="59.9080214" lon="17.6438948">
        <ele>21.767</ele>
        <time>2013-06-02T19:47:55Z</time>
      </trkpt>
      <trkpt lat="59.9080744" lon="17.6438815">
        <ele>21.767</ele>
        <time>2013-06-02T19:47:56Z</time>
      </trkpt>
      <trkpt lat="59.9081301" lon="17.6438543">
        <ele>22.7283</ele>
        <time>2013-06-02T19:47:57Z</time>
      </trkpt>
      <trkpt lat="59.9081878" lon="17.6438208">
        <ele>23.209</ele>
        <time>2013-06-02T19:47:58Z</time>
      </trkpt>
      <trkpt lat="59.9082465" lon="17.6437903">
        <ele>23.6896</ele>
        <time>2013-06-02T19:47:59Z</time>
      </trkpt>
      <trkpt lat="59.9083044" lon="17.643753">
        <ele>24.1703</ele>
        <time>2013-06-02T19:48:00Z</time>
      </trkpt>
      <trkpt lat="59.9083639" lon="17.6437118">
        <ele>24.651</ele>
        <time>2013-06-02T19:48:01Z</time>
      </trkpt>
      <trkpt lat="59.9084277" lon="17.6436836">
        <ele>24.651</ele>
        <time>2013-06-02T19:48:02Z</time>
      </trkpt>
      <trkpt lat="59.9084936" lon="17.6436754">
        <ele>25.1317</ele>
        <time>2013-06-02T19:48:03Z</time>
      </trkpt>
      <trkpt lat="59.9085613" lon="17.6436761">
        <ele>24.651</ele>
        <time>2013-06-02T19:48:04Z</time>
      </trkpt>
      <trkpt lat="59.9086297" lon="17.6436767">
        <ele>24.651</ele>
        <time>2013-06-02T19:48:05Z</time>
      </trkpt>
      <trkpt lat="59.9086965" lon="17.6436824">
        <ele>24.1703</ele>
        <time>2013-06-02T19:48:06Z</time>
      </trkpt>
      <trkpt lat="59.908764" lon="17.6436866">
        <ele>24.1703</ele>
        <time>2013-06-02T19:48:07Z</time>
      </trkpt>
      <trkpt lat="59.9088317" lon="17.6436846">
        <ele>24.1703</ele>
        <time>2013-06-02T19:48:08Z</time>
      </trkpt>
      <trkpt lat="59.9088966" lon="17.6436797">
        <ele>22.7283</ele>
        <time>2013-06-02T19:48:09Z</time>
      </trkpt>
      <trkpt lat="59.9089623" lon="17.6436732">
        <ele>21.767</ele>
        <time>2013-06-02T19:48:10Z</time>
      </trkpt>
      <trkpt lat="59.9090306" lon="17.6436689">
        <ele>21.2864</ele>
        <time>2013-06-02T19:48:11Z</time>
      </trkpt>
      <trkpt lat="59.9090984" lon="17.6436645">
        <ele>21.2864</ele>
        <time>2013-06-02T19:48:12Z</time>
      </trkpt>
      <trkpt lat="59.9091662" lon="17.6436592">
        <ele>21.2864</ele>
        <time>2013-06-02T19:48:13Z</time>
      </trkpt>
      <trkpt lat="59.9092342" lon="17.6436508">
        <ele>21.2864</ele>
        <time>2013-06-02T19:48:14Z</time>
      </trkpt>
      <trkpt lat="59.909303" lon="17.6436383">
        <ele>21.2864</ele>
        <time>2013-06-02T19:48:15Z</time>
      </trkpt>
      <trkpt lat="59.9093709" lon="17.6436231">
        <ele>20.8057</ele>
        <time>2013-06-02T19:48:16Z</time>
      </trkpt>
      <trkpt lat="59.9094392" lon="17.6436111">
        <ele>20.8057</ele>
        <time>2013-06-02T19:48:17Z</time>
      </trkpt>
      <trkpt lat="59.909508" lon="17.6436018">
        <ele>20.8057</ele>
        <time>2013-06-02T19:48:18Z</time>
      </trkpt>
      <trkpt lat="59.9095767" lon="17.6435903">
        <ele>20.8057</ele>
        <time>2013-06-02T19:48:19Z</time>
      </trkpt>
      <trkpt lat="59.9096449" lon="17.6435751">
        <ele>20.325</ele>
        <time>2013-06-02T19:48:20Z</time>
      </trkpt>
      <trkpt lat="59.909714" lon="17.6435571">
        <ele>20.8057</ele>
        <time>2013-06-02T19:48:21Z</time>
      </trkpt>
      <trkpt lat="59.9097831" lon="17.6435422">
        <ele>21.2864</ele>
        <time>2013-06-02T19:48:22Z</time>
      </trkpt>
      <trkpt lat="59.9098506" lon="17.6435391">
        <ele>21.2864</ele>
        <time>2013-06-02T19:48:23Z</time>
      </trkpt>
      <trkpt lat="59.9099169" lon="17.6435515">
        <ele>20.8057</ele>
        <time>2013-06-02T19:48:24Z</time>
      </trkpt>
      <trkpt lat="59.9099832" lon="17.6435764">
        <ele>21.2864</ele>
        <time>2013-06-02T19:48:25Z</time>
      </trkpt>
      <trkpt lat="59.9100465" lon="17.6436029">
        <ele>21.2864</ele>
        <time>2013-06-02T19:48:26Z</time>
      </trkpt>
      <trkpt lat="59.9101063" lon="17.6436214">
        <ele>21.2864</ele>
        <time>2013-06-02T19:48:27Z</time>
      </trkpt>
      <trkpt lat="59.9101647" lon="17.6436297">
        <ele>21.2864</ele>
        <time>2013-06-02T19:48:28Z</time>
      </trkpt>
      <trkpt lat="59.9102224" lon="17.6436318">
        <ele>21.2864</ele>
        <time>2013-06-02T19:48:29Z</time>
      </trkpt>
      <trkpt lat="59.9102749" lon="17.6436286">
        <ele>19.3638</ele>
        <time>2013-06-02T19:48:30Z</time>
      </trkpt>
      <trkpt lat="59.9103293" lon="17.6436244">
        <ele>18.4023</ele>
        <time>2013-06-02T19:48:31Z</time>
      </trkpt>
      <trkpt lat="59.9103826" lon="17.6436191">
        <ele>16.9604</ele>
        <time>2013-06-02T19:48:32Z</time>
      </trkpt>
      <trkpt lat="59.9104406" lon="17.64361">
        <ele>17.9218</ele>
        <time>2013-06-02T19:48:33Z</time>
      </trkpt>
      <trkpt lat="59.9104961" lon="17.6435853">
        <ele>17.4412</ele>
        <time>2013-06-02T19:48:34Z</time>
      </trkpt>
      <trkpt lat="59.9105532" lon="17.6435463">
        <ele>17.4412</ele>
        <time>2013-06-02T19:48:35Z</time>
      </trkpt>
      <trkpt lat="59.9106138" lon="17.6435106">
        <ele>16.9604</ele>
        <time>2013-06-02T19:48:36Z</time>
      </trkpt>
      <trkpt lat="59.910677" lon="17.6434858">
        <ele>16.9604</ele>
        <time>2013-06-02T19:48:37Z</time>
      </trkpt>
      <trkpt lat="59.9107419" lon="17.6434676">
        <ele>16.4797</ele>
        <time>2013-06-02T19:48:38Z</time>
      </trkpt>
      <trkpt lat="59.9108065" lon="17.6434546">
        <ele>16.4797</ele>
        <time>2013-06-02T19:48:39Z</time>
      </trkpt>
      <trkpt lat="59.9108714" lon="17.6434475">
        <ele>16.4797</ele>
        <time>2013-06-02T19:48:40Z</time>
      </trkpt>
      <trkpt lat="59.9109349" lon="17.6434418">
        <ele>16.4797</ele>
        <time>2013-06-02T19:48:41Z</time>
      </trkpt>
      <trkpt lat="59.9109987" lon="17.643435">
        <ele>16.4797</ele>
        <time>2013-06-02T19:48:42Z</time>
      </trkpt>
      <trkpt lat="59.9110628" lon="17.6434266">
        <ele>16.4797</ele>
        <time>2013-06-02T19:48:43Z</time>
      </trkpt>
      <trkpt lat="59.9111279" lon="17.6434171">
        <ele>16.4797</ele>
        <time>2013-06-02T19:48:44Z</time>
      </trkpt>
      <trkpt lat="59.9111928" lon="17.6434064">
        <ele>16.9604</ele>
        <time>2013-06-02T19:48:45Z</time>
      </trkpt>
      <trkpt lat="59.9112558" lon="17.6433939">
        <ele>16.4797</ele>
        <time>2013-06-02T19:48:46Z</time>
      </trkpt>
      <trkpt lat="59.9113192" lon="17.6433779">
        <ele>15.999</ele>
        <time>2013-06-02T19:48:47Z</time>
      </trkpt>
      <trkpt lat="59.911384" lon="17.6433614">
        <ele>15.999</ele>
        <time>2013-06-02T19:48:48Z</time>
      </trkpt>
      <trkpt lat="59.9114513" lon="17.6433451">
        <ele>16.9604</ele>
        <time>2013-06-02T19:48:49Z</time>
      </trkpt>
      <trkpt lat="59.9115193" lon="17.6433288">
        <ele>17.4412</ele>
        <time>2013-06-02T19:48:50Z</time>
      </trkpt>
      <trkpt lat="59.911588" lon="17.6433174">
        <ele>17.4412</ele>
        <time>2013-06-02T19:48:51Z</time>
      </trkpt>
      <trkpt lat="59.9116588" lon="17.6433085">
        <ele>16.9604</ele>
        <time>2013-06-02T19:48:52Z</time>
      </trkpt>
      <trkpt lat="59.91173" lon="17.643296">
        <ele>16.9604</ele>
        <time>2013-06-02T19:48:53Z</time>
      </trkpt>
      <trkpt lat="59.9118004" lon="17.6432831">
        <ele>17.4412</ele>
        <time>2013-06-02T19:48:54Z</time>
      </trkpt>
      <trkpt lat="59.9118698" lon="17.6432654">
        <ele>17.4412</ele>
        <time>2013-06-02T19:48:55Z</time>
      </trkpt>
      <trkpt lat="59.9119362" lon="17.6432464">
        <ele>17.4412</ele>
        <time>2013-06-02T19:48:56Z</time>
      </trkpt>
      <trkpt lat="59.9120039" lon="17.6432262">
        <ele>16.9604</ele>
        <time>2013-06-02T19:48:57Z</time>
      </trkpt>
      <trkpt lat="59.9120737" lon="17.6432056">
        <ele>16.9604</ele>
        <time>2013-06-02T19:48:58Z</time>
      </trkpt>
      <trkpt lat="59.9121459" lon="17.6431811">
        <ele>16.9604</ele>
        <time>2013-06-02T19:48:59Z</time>
      </trkpt>
      <trkpt lat="59.9122198" lon="17.6431525">
        <ele>16.4797</ele>
        <time>2013-06-02T19:49:00Z</time>
      </trkpt>
      <trkpt lat="59.9122961" lon="17.6431306">
        <ele>16.4797</ele>
        <time>2013-06-02T19:49:01Z</time>
      </trkpt>
      <trkpt lat="59.9123713" lon="17.6431143">
        <ele>15.5184</ele>
        <time>2013-06-02T19:49:02Z</time>
      </trkpt>
      <trkpt lat="59.91245" lon="17.6431023">
        <ele>15.0377</ele>
        <time>2013-06-02T19:49:03Z</time>
      </trkpt>
      <trkpt lat="59.9125302" lon="17.6430944">
        <ele>14.557</ele>
        <time>2013-06-02T19:49:04Z</time>
      </trkpt>
      <trkpt lat="59.9126044" lon="17.643106">
        <ele>13.5958</ele>
        <time>2013-06-02T19:49:05Z</time>
      </trkpt>
      <trkpt lat="59.9126783" lon="17.6431292">
        <ele>13.5958</ele>
        <time>2013-06-02T19:49:06Z</time>
      </trkpt>
      <trkpt lat="59.9127461" lon="17.6431503">
        <ele>13.5958</ele>
        <time>2013-06-02T19:49:07Z</time>
      </trkpt>
      <trkpt lat="59.9128101" lon="17.6431558">
        <ele>13.5958</ele>
        <time>2013-06-02T19:49:08Z</time>
      </trkpt>
      <trkpt lat="59.9128723" lon="17.6431525">
        <ele>13.1151</ele>
        <time>2013-06-02T19:49:09Z</time>
      </trkpt>
      <trkpt lat="59.91294" lon="17.6431427">
        <ele>13.5958</ele>
        <time>2013-06-02T19:49:10Z</time>
      </trkpt>
      <trkpt lat="59.9130096" lon="17.6431301">
        <ele>14.557</ele>
        <time>2013-06-02T19:49:11Z</time>
      </trkpt>
      <trkpt lat="59.9130789" lon="17.6431163">
        <ele>15.5184</ele>
        <time>2013-06-02T19:49:12Z</time>
      </trkpt>
      <trkpt lat="59.9131447" lon="17.6431044">
        <ele>15.5184</ele>
        <time>2013-06-02T19:49:13Z</time>
      </trkpt>
      <trkpt lat="59.9132084" lon="17.6430925">
        <ele>15.0377</ele>
        <time>2013-06-02T19:49:14Z</time>
      </trkpt>
      <trkpt lat="59.9132758" lon="17.6430786">
        <ele>14.557</ele>
        <time>2013-06-02T19:49:15Z</time>
      </trkpt>
      <trkpt lat="59.9133456" lon="17.6430657">
        <ele>14.557</ele>
        <time>2013-06-02T19:49:16Z</time>
      </trkpt>
      <trkpt lat="59.9134161" lon="17.6430537">
        <ele>14.557</ele>
        <time>2013-06-02T19:49:17Z</time>
      </trkpt>
      <trkpt lat="59.9134874" lon="17.6430408">
        <ele>14.557</ele>
        <time>2013-06-02T19:49:18Z</time>
      </trkpt>
      <trkpt lat="59.9135591" lon="17.6430273">
        <ele>14.557</ele>
        <time>2013-06-02T19:49:19Z</time>
      </trkpt>
      <trkpt lat="59.9136319" lon="17.6430175">
        <ele>14.0764</ele>
        <time>2013-06-02T19:49:20Z</time>
      </trkpt>
      <trkpt lat="59.9137046" lon="17.6430066">
        <ele>14.0764</ele>
        <time>2013-06-02T19:49:21Z</time>
      </trkpt>
      <trkpt lat="59.9137776" lon="17.642996">
        <ele>13.5958</ele>
        <time>2013-06-02T19:49:22Z</time>
      </trkpt>
      <trkpt lat="59.9138498" lon="17.6429797">
        <ele>13.1151</ele>
        <time>2013-06-02T19:49:23Z</time>
      </trkpt>
      <trkpt lat="59.9139222" lon="17.642964">
        <ele>13.1151</ele>
        <time>2013-06-02T19:49:24Z</time>
      </trkpt>
      <trkpt lat="59.9139967" lon="17.6429511">
        <ele>13.5958</ele>
        <time>2013-06-02T19:49:25Z</time>
      </trkpt>
      <trkpt lat="59.9140686" lon="17.6429371">
        <ele>13.1151</ele>
        <time>2013-06-02T19:49:26Z</time>
      </trkpt>
      <trkpt lat="59.9141406" lon="17.6429205">
        <ele>12.1538</ele>
        <time>2013-06-02T19:49:27Z</time>
      </trkpt>
      <trkpt lat="59.9142148" lon="17.6429065">
        <ele>11.6732</ele>
        <time>2013-06-02T19:49:28Z</time>
      </trkpt>
      <trkpt lat="59.9142936" lon="17.6428957">
        <ele>11.6732</ele>
        <time>2013-06-02T19:49:29Z</time>
      </trkpt>
      <trkpt lat="59.9143708" lon="17.6428836">
        <ele>11.1925</ele>
        <time>2013-06-02T19:49:30Z</time>
      </trkpt>
      <trkpt lat="59.9144505" lon="17.6428702">
        <ele>10.7118</ele>
        <time>2013-06-02T19:49:31Z</time>
      </trkpt>
      <trkpt lat="59.9145307" lon="17.6428557">
        <ele>10.2312</ele>
        <time>2013-06-02T19:49:32Z</time>
      </trkpt>
      <trkpt lat="59.914611" lon="17.6428431">
        <ele>9.75061</ele>
        <time>2013-06-02T19:49:33Z</time>
      </trkpt>
      <trkpt lat="59.914693" lon="17.6428309">
        <ele>9.75061</ele>
        <time>2013-06-02T19:49:34Z</time>
      </trkpt>
      <trkpt lat="59.9147748" lon="17.642819">
        <ele>9.2699</ele>
        <time>2013-06-02T19:49:35Z</time>
      </trkpt>
      <trkpt lat="59.9148571" lon="17.6428059">
        <ele>9.2699</ele>
        <time>2013-06-02T19:49:36Z</time>
      </trkpt>
      <trkpt lat="59.9149384" lon="17.6427903">
        <ele>8.78918</ele>
        <time>2013-06-02T19:49:37Z</time>
      </trkpt>
      <trkpt lat="59.9150204" lon="17.6427714">
        <ele>8.30859</ele>
        <time>2013-06-02T19:49:38Z</time>
      </trkpt>
      <trkpt lat="59.9151044" lon="17.6427485">
        <ele>9.2699</ele>
        <time>2013-06-02T19:49:39Z</time>
      </trkpt>
      <trkpt lat="59.9151872" lon="17.642707">
        <ele>9.75061</ele>
        <time>2013-06-02T19:49:40Z</time>
      </trkpt>
      <trkpt lat="59.9152716" lon="17.6426486">
        <ele>9.75061</ele>
        <time>2013-06-02T19:49:41Z</time>
      </trkpt>
      <trkpt lat="59.9153574" lon="17.6425864">
        <ele>9.2699</ele>
        <time>2013-06-02T19:49:42Z</time>
      </trkpt>
      <trkpt lat="59.9154471" lon="17.6425486">
        <ele>8.78918</ele>
        <time>2013-06-02T19:49:43Z</time>
      </trkpt>
      <trkpt lat="59.9155399" lon="17.6425279">
        <ele>9.2699</ele>
        <time>2013-06-02T19:49:44Z</time>
      </trkpt>
      <trkpt lat="59.9156369" lon="17.642514">
        <ele>10.2312</ele>
        <time>2013-06-02T19:49:45Z</time>
      </trkpt>
      <trkpt lat="59.9157331" lon="17.6425041">
        <ele>11.1925</ele>
        <time>2013-06-02T19:49:46Z</time>
      </trkpt>
      <trkpt lat="59.9158238" lon="17.6424966">
        <ele>11.6732</ele>
        <time>2013-06-02T19:49:47Z</time>
      </trkpt>
      <trkpt lat="59.9159129" lon="17.6424945">
        <ele>11.6732</ele>
        <time>2013-06-02T19:49:48Z</time>
      </trkpt>
      <trkpt lat="59.916" lon="17.6424946">
        <ele>12.1538</ele>
        <time>2013-06-02T19:49:49Z</time>
      </trkpt>
      <trkpt lat="59.9160848" lon="17.6424958">
        <ele>12.1538</ele>
        <time>2013-06-02T19:49:50Z</time>
      </trkpt>
      <trkpt lat="59.9161672" lon="17.6424951">
        <ele>12.1538</ele>
        <time>2013-06-02T19:49:51Z</time>
      </trkpt>
      <trkpt lat="59.9162482" lon="17.6424901">
        <ele>12.6344</ele>
        <time>2013-06-02T19:49:52Z</time>
      </trkpt>
      <trkpt lat="59.9163289" lon="17.6424828">
        <ele>12.6344</ele>
        <time>2013-06-02T19:49:53Z</time>
      </trkpt>
      <trkpt lat="59.9164081" lon="17.642473">
        <ele>12.6344</ele>
        <time>2013-06-02T19:49:54Z</time>
      </trkpt>
      <trkpt lat="59.916487" lon="17.6424621">
        <ele>12.6344</ele>
        <time>2013-06-02T19:49:55Z</time>
      </trkpt>
      <trkpt lat="59.9165662" lon="17.642451">
        <ele>12.6344</ele>
        <time>2013-06-02T19:49:56Z</time>
      </trkpt>
      <trkpt lat="59.9166455" lon="17.6424415">
        <ele>12.6344</ele>
        <time>2013-06-02T19:49:57Z</time>
      </trkpt>
      <trkpt lat="59.9167253" lon="17.642431">
        <ele>12.6344</ele>
        <time>2013-06-02T19:49:58Z</time>
      </trkpt>
      <trkpt lat="59.916807" lon="17.6424204">
        <ele>12.6344</ele>
        <time>2013-06-02T19:49:59Z</time>
      </trkpt>
      <trkpt lat="59.9168899" lon="17.6424107">
        <ele>12.6344</ele>
        <time>2013-06-02T19:50:00Z</time>
      </trkpt>
      <trkpt lat="59.9169732" lon="17.6423968">
        <ele>12.6344</ele>
        <time>2013-06-02T19:50:01Z</time>
      </trkpt>
      <trkpt lat="59.9170566" lon="17.642377">
        <ele>12.6344</ele>
        <time>2013-06-02T19:50:02Z</time>
      </trkpt>
      <trkpt lat="59.9171396" lon="17.6423508">
        <ele>12.6344</ele>
        <time>2013-06-02T19:50:03Z</time>
      </trkpt>
      <trkpt lat="59.9172248" lon="17.6423294">
        <ele>12.6344</ele>
        <time>2013-06-02T19:50:04Z</time>
      </trkpt>
      <trkpt lat="59.9173105" lon="17.6423221">
        <ele>12.6344</ele>
        <time>2013-06-02T19:50:05Z</time>
      </trkpt>
      <trkpt lat="59.9173945" lon="17.6423227">
        <ele>12.6344</ele>
        <time>2013-06-02T19:50:06Z</time>
      </trkpt>
      <trkpt lat="59.9174773" lon="17.6423215">
        <ele>12.6344</ele>
        <time>2013-06-02T19:50:07Z</time>
      </trkpt>
      <trkpt lat="59.9175589" lon="17.642318">
        <ele>12.6344</ele>
        <time>2013-06-02T19:50:08Z</time>
      </trkpt>
      <trkpt lat="59.9176393" lon="17.6423161">
        <ele>12.6344</ele>
        <time>2013-06-02T19:50:09Z</time>
      </trkpt>
      <trkpt lat="59.9177193" lon="17.6423161">
        <ele>12.6344</ele>
        <time>2013-06-02T19:50:10Z</time>
      </trkpt>
      <trkpt lat="59.9177989" lon="17.6423163">
        <ele>13.1151</ele>
        <time>2013-06-02T19:50:11Z</time>
      </trkpt>
      <trkpt lat="59.9178768" lon="17.6423146">
        <ele>13.1151</ele>
        <time>2013-06-02T19:50:12Z</time>
      </trkpt>
      <trkpt lat="59.9179538" lon="17.6423086">
        <ele>13.5958</ele>
        <time>2013-06-02T19:50:13Z</time>
      </trkpt>
      <trkpt lat="59.918029" lon="17.642299">
        <ele>13.5958</ele>
        <time>2013-06-02T19:50:14Z</time>
      </trkpt>
      <trkpt lat="59.9181031" lon="17.6422897">
        <ele>13.5958</ele>
        <time>2013-06-02T19:50:15Z</time>
      </trkpt>
      <trkpt lat="59.9181759" lon="17.6422839">
        <ele>13.5958</ele>
        <time>2013-06-02T19:50:16Z</time>
      </trkpt>
      <trkpt lat="59.9182472" lon="17.6422783">
        <ele>14.0764</ele>
        <time>2013-06-02T19:50:17Z</time>
      </trkpt>
      <trkpt lat="59.918317" lon="17.6422704">
        <ele>14.0764</ele>
        <time>2013-06-02T19:50:18Z</time>
      </trkpt>
      <trkpt lat="59.9183847" lon="17.642262">
        <ele>14.557</ele>
        <time>2013-06-02T19:50:19Z</time>
      </trkpt>
      <trkpt lat="59.9184517" lon="17.642256">
        <ele>14.557</ele>
        <time>2013-06-02T19:50:20Z</time>
      </trkpt>
      <trkpt lat="59.918518" lon="17.6422505">
        <ele>15.0377</ele>
        <time>2013-06-02T19:50:21Z</time>
      </trkpt>
      <trkpt lat="59.9185848" lon="17.6422441">
        <ele>15.5184</ele>
        <time>2013-06-02T19:50:22Z</time>
      </trkpt>
      <trkpt lat="59.9186532" lon="17.6422378">
        <ele>15.5184</ele>
        <time>2013-06-02T19:50:23Z</time>
      </trkpt>
      <trkpt lat="59.918723" lon="17.6422305">
        <ele>15.999</ele>
        <time>2013-06-02T19:50:24Z</time>
      </trkpt>
      <trkpt lat="59.9187934" lon="17.6422212">
        <ele>15.999</ele>
        <time>2013-06-02T19:50:25Z</time>
      </trkpt>
      <trkpt lat="59.9188661" lon="17.6422114">
        <ele>15.999</ele>
        <time>2013-06-02T19:50:26Z</time>
      </trkpt>
      <trkpt lat="59.9189387" lon="17.6422016">
        <ele>15.999</ele>
        <time>2013-06-02T19:50:27Z</time>
      </trkpt>
      <trkpt lat="59.9190114" lon="17.642193">
        <ele>16.4797</ele>
        <time>2013-06-02T19:50:28Z</time>
      </trkpt>
      <trkpt lat="59.9190836" lon="17.6421825">
        <ele>16.4797</ele>
        <time>2013-06-02T19:50:29Z</time>
      </trkpt>
      <trkpt lat="59.9191556" lon="17.6421704">
        <ele>16.4797</ele>
        <time>2013-06-02T19:50:30Z</time>
      </trkpt>
      <trkpt lat="59.9192282" lon="17.6421584">
        <ele>16.4797</ele>
        <time>2013-06-02T19:50:31Z</time>
      </trkpt>
      <trkpt lat="59.9193016" lon="17.6421488">
        <ele>16.4797</ele>
        <time>2013-06-02T19:50:32Z</time>
      </trkpt>
      <trkpt lat="59.9193753" lon="17.6421419">
        <ele>16.4797</ele>
        <time>2013-06-02T19:50:33Z</time>
      </trkpt>
      <trkpt lat="59.9194493" lon="17.6421345">
        <ele>16.4797</ele>
        <time>2013-06-02T19:50:34Z</time>
      </trkpt>
      <trkpt lat="59.9195243" lon="17.6421269">
        <ele>16.4797</ele>
        <time>2013-06-02T19:50:35Z</time>
      </trkpt>
      <trkpt lat="59.9196" lon="17.6421193">
        <ele>16.4797</ele>
        <time>2013-06-02T19:50:36Z</time>
      </trkpt>
      <trkpt lat="59.919675" lon="17.6421092">
        <ele>16.4797</ele>
        <time>2013-06-02T19:50:37Z</time>
      </trkpt>
      <trkpt lat="59.9197498" lon="17.6420947">
        <ele>16.4797</ele>
        <time>2013-06-02T19:50:38Z</time>
      </trkpt>
      <trkpt lat="59.9198247" lon="17.6420755">
        <ele>16.4797</ele>
        <time>2013-06-02T19:50:39Z</time>
      </trkpt>
      <trkpt lat="59.9198993" lon="17.6420555">
        <ele>16.4797</ele>
        <time>2013-06-02T19:50:40Z</time>
      </trkpt>
      <trkpt lat="59.9199735" lon="17.6420389">
        <ele>16.4797</ele>
        <time>2013-06-02T19:50:41Z</time>
      </trkpt>
      <trkpt lat="59.9200475" lon="17.6420248">
        <ele>16.4797</ele>
        <time>2013-06-02T19:50:42Z</time>
      </trkpt>
      <trkpt lat="59.92012" lon="17.6420124">
        <ele>16.4797</ele>
        <time>2013-06-02T19:50:43Z</time>
      </trkpt>
      <trkpt lat="59.9201902" lon="17.6420033">
        <ele>16.9604</ele>
        <time>2013-06-02T19:50:44Z</time>
      </trkpt>
      <trkpt lat="59.920258" lon="17.641997">
        <ele>16.9604</ele>
        <time>2013-06-02T19:50:45Z</time>
      </trkpt>
      <trkpt lat="59.9203258" lon="17.6419937">
        <ele>16.9604</ele>
        <time>2013-06-02T19:50:46Z</time>
      </trkpt>
      <trkpt lat="59.920394" lon="17.6419923">
        <ele>16.9604</ele>
        <time>2013-06-02T19:50:47Z</time>
      </trkpt>
      <trkpt lat="59.9204611" lon="17.6419892">
        <ele>16.9604</ele>
        <time>2013-06-02T19:50:48Z</time>
      </trkpt>
      <trkpt lat="59.9205273" lon="17.6419891">
        <ele>16.9604</ele>
        <time>2013-06-02T19:50:49Z</time>
      </trkpt>
      <trkpt lat="59.920593" lon="17.6419896">
        <ele>16.4797</ele>
        <time>2013-06-02T19:50:50Z</time>
      </trkpt>
      <trkpt lat="59.9206559" lon="17.6419933">
        <ele>16.4797</ele>
        <time>2013-06-02T19:50:51Z</time>
      </trkpt>
      <trkpt lat="59.9207147" lon="17.6419913">
        <ele>16.4797</ele>
        <time>2013-06-02T19:50:52Z</time>
      </trkpt>
      <trkpt lat="59.9207659" lon="17.6419892">
        <ele>15.999</ele>
        <time>2013-06-02T19:50:53Z</time>
      </trkpt>
      <trkpt lat="59.9208124" lon="17.6419896">
        <ele>15.5184</ele>
        <time>2013-06-02T19:50:54Z</time>
      </trkpt>
      <trkpt lat="59.9208563" lon="17.6419835">
        <ele>15.5184</ele>
        <time>2013-06-02T19:50:55Z</time>
      </trkpt>
      <trkpt lat="59.9209004" lon="17.6419689">
        <ele>15.0377</ele>
        <time>2013-06-02T19:50:56Z</time>
      </trkpt>
      <trkpt lat="59.9209429" lon="17.6419542">
        <ele>15.0377</ele>
        <time>2013-06-02T19:50:57Z</time>
      </trkpt>
      <trkpt lat="59.9209827" lon="17.6419425">
        <ele>15.0377</ele>
        <time>2013-06-02T19:50:58Z</time>
      </trkpt>
      <trkpt lat="59.921021" lon="17.6419363">
        <ele>15.5184</ele>
        <time>2013-06-02T19:50:59Z</time>
      </trkpt>
      <trkpt lat="59.9210587" lon="17.6419358">
        <ele>15.5184</ele>
        <time>2013-06-02T19:51:00Z</time>
      </trkpt>
      <trkpt lat="59.9210935" lon="17.6419351">
        <ele>15.999</ele>
        <time>2013-06-02T19:51:01Z</time>
      </trkpt>
      <trkpt lat="59.9211251" lon="17.6419338">
        <ele>15.5184</ele>
        <time>2013-06-02T19:51:02Z</time>
      </trkpt>
      <trkpt lat="59.9211602" lon="17.6419405">
        <ele>15.999</ele>
        <time>2013-06-02T19:51:03Z</time>
      </trkpt>
      <trkpt lat="59.9211888" lon="17.641942">
        <ele>14.0764</ele>
        <time>2013-06-02T19:51:04Z</time>
      </trkpt>
      <trkpt lat="59.9212246" lon="17.6419489">
        <ele>13.5958</ele>
        <time>2013-06-02T19:51:05Z</time>
      </trkpt>
      <trkpt lat="59.9212627" lon="17.6419488">
        <ele>13.1151</ele>
        <time>2013-06-02T19:51:06Z</time>
      </trkpt>
      <trkpt lat="59.921301" lon="17.641938">
        <ele>11.1925</ele>
        <time>2013-06-02T19:51:07Z</time>
      </trkpt>
      <trkpt lat="59.9213493" lon="17.641929">
        <ele>11.1925</ele>
        <time>2013-06-02T19:51:08Z</time>
      </trkpt>
      <trkpt lat="59.9213997" lon="17.6419203">
        <ele>11.6732</ele>
        <time>2013-06-02T19:51:09Z</time>
      </trkpt>
      <trkpt lat="59.9214498" lon="17.6419133">
        <ele>11.1925</ele>
        <time>2013-06-02T19:51:10Z</time>
      </trkpt>
      <trkpt lat="59.921502" lon="17.6419073">
        <ele>10.7118</ele>
        <time>2013-06-02T19:51:11Z</time>
      </trkpt>
      <trkpt lat="59.9215592" lon="17.6419031">
        <ele>11.6732</ele>
        <time>2013-06-02T19:51:12Z</time>
      </trkpt>
      <trkpt lat="59.9216158" lon="17.6418939">
        <ele>11.6732</ele>
        <time>2013-06-02T19:51:13Z</time>
      </trkpt>
      <trkpt lat="59.9216787" lon="17.6418911">
        <ele>12.1538</ele>
        <time>2013-06-02T19:51:14Z</time>
      </trkpt>
      <trkpt lat="59.92174" lon="17.6418856">
        <ele>12.6344</ele>
        <time>2013-06-02T19:51:15Z</time>
      </trkpt>
      <trkpt lat="59.9218015" lon="17.6418789">
        <ele>12.6344</ele>
        <time>2013-06-02T19:51:16Z</time>
      </trkpt>
      <trkpt lat="59.9218629" lon="17.6418727">
        <ele>12.1538</ele>
        <time>2013-06-02T19:51:17Z</time>
      </trkpt>
      <trkpt lat="59.921924" lon="17.6418685">
        <ele>12.1538</ele>
        <time>2013-06-02T19:51:18Z</time>
      </trkpt>
      <trkpt lat="59.9219858" lon="17.6418638">
        <ele>11.6732</ele>
        <time>2013-06-02T19:51:19Z</time>
      </trkpt>
      <trkpt lat="59.9220513" lon="17.6418555">
        <ele>12.1538</ele>
        <time>2013-06-02T19:51:20Z</time>
      </trkpt>
      <trkpt lat="59.9221166" lon="17.6418446">
        <ele>12.1538</ele>
        <time>2013-06-02T19:51:21Z</time>
      </trkpt>
      <trkpt lat="59.9221822" lon="17.6418356">
        <ele>12.1538</ele>
        <time>2013-06-02T19:51:22Z</time>
      </trkpt>
      <trkpt lat="59.9222481" lon="17.6418279">
        <ele>12.1538</ele>
        <time>2013-06-02T19:51:23Z</time>
      </trkpt>
      <trkpt lat="59.922314" lon="17.6418156">
        <ele>12.6344</ele>
        <time>2013-06-02T19:51:24Z</time>
      </trkpt>
      <trkpt lat="59.9223799" lon="17.6418006">
        <ele>12.6344</ele>
        <time>2013-06-02T19:51:25Z</time>
      </trkpt>
      <trkpt lat="59.9224448" lon="17.6417875">
        <ele>12.6344</ele>
        <time>2013-06-02T19:51:26Z</time>
      </trkpt>
      <trkpt lat="59.9225082" lon="17.6417758">
        <ele>13.1151</ele>
        <time>2013-06-02T19:51:27Z</time>
      </trkpt>
      <trkpt lat="59.9225702" lon="17.6417641">
        <ele>13.1151</ele>
        <time>2013-06-02T19:51:28Z</time>
      </trkpt>
      <trkpt lat="59.9226299" lon="17.6417519">
        <ele>13.1151</ele>
        <time>2013-06-02T19:51:29Z</time>
      </trkpt>
      <trkpt lat="59.9226898" lon="17.6417421">
        <ele>13.5958</ele>
        <time>2013-06-02T19:51:30Z</time>
      </trkpt>
      <trkpt lat="59.9227481" lon="17.6417308">
        <ele>14.0764</ele>
        <time>2013-06-02T19:51:31Z</time>
      </trkpt>
      <trkpt lat="59.9228017" lon="17.6417212">
        <ele>13.5958</ele>
        <time>2013-06-02T19:51:32Z</time>
      </trkpt>
      <trkpt lat="59.9228598" lon="17.6417193">
        <ele>13.5958</ele>
        <time>2013-06-02T19:51:33Z</time>
      </trkpt>
      <trkpt lat="59.9229241" lon="17.6417261">
        <ele>13.5958</ele>
        <time>2013-06-02T19:51:34Z</time>
      </trkpt>
      <trkpt lat="59.922993" lon="17.6417302">
        <ele>14.0764</ele>
        <time>2013-06-02T19:51:35Z</time>
      </trkpt>
      <trkpt lat="59.9230669" lon="17.6417246">
        <ele>14.0764</ele>
        <time>2013-06-02T19:51:36Z</time>
      </trkpt>
      <trkpt lat="59.9231453" lon="17.6417131">
        <ele>14.0764</ele>
        <time>2013-06-02T19:51:37Z</time>
      </trkpt>
      <trkpt lat="59.9232244" lon="17.6416995">
        <ele>14.0764</ele>
        <time>2013-06-02T19:51:38Z</time>
      </trkpt>
      <trkpt lat="59.9233023" lon="17.6416839">
        <ele>14.0764</ele>
        <time>2013-06-02T19:51:39Z</time>
      </trkpt>
      <trkpt lat="59.9233811" lon="17.6416684">
        <ele>14.0764</ele>
        <time>2013-06-02T19:51:40Z</time>
      </trkpt>
      <trkpt lat="59.9234604" lon="17.6416561">
        <ele>14.0764</ele>
        <time>2013-06-02T19:51:41Z</time>
      </trkpt>
      <trkpt lat="59.923541" lon="17.6416438">
        <ele>14.0764</ele>
        <time>2013-06-02T19:51:42Z</time>
      </trkpt>
      <trkpt lat="59.9236224" lon="17.641631">
        <ele>14.0764</ele>
        <time>2013-06-02T19:51:43Z</time>
      </trkpt>
      <trkpt lat="59.9237051" lon="17.6416188">
        <ele>14.0764</ele>
        <time>2013-06-02T19:51:44Z</time>
      </trkpt>
      <trkpt lat="59.9237891" lon="17.6416072">
        <ele>13.5958</ele>
        <time>2013-06-02T19:51:45Z</time>
      </trkpt>
      <trkpt lat="59.9238733" lon="17.6415979">
        <ele>13.5958</ele>
        <time>2013-06-02T19:51:46Z</time>
      </trkpt>
      <trkpt lat="59.9239579" lon="17.6415891">
        <ele>13.5958</ele>
        <time>2013-06-02T19:51:47Z</time>
      </trkpt>
      <trkpt lat="59.924042" lon="17.6415808">
        <ele>13.5958</ele>
        <time>2013-06-02T19:51:48Z</time>
      </trkpt>
      <trkpt lat="59.9241254" lon="17.6415733">
        <ele>13.5958</ele>
        <time>2013-06-02T19:51:49Z</time>
      </trkpt>
      <trkpt lat="59.9242069" lon="17.6415676">
        <ele>13.5958</ele>
        <time>2013-06-02T19:51:50Z</time>
      </trkpt>
      <trkpt lat="59.9242869" lon="17.6415643">
        <ele>13.5958</ele>
        <time>2013-06-02T19:51:51Z</time>
      </trkpt>
      <trkpt lat="59.9243656" lon="17.6415598">
        <ele>13.5958</ele>
        <time>2013-06-02T19:51:52Z</time>
      </trkpt>
      <trkpt lat="59.9244443" lon="17.6415517">
        <ele>13.5958</ele>
        <time>2013-06-02T19:51:53Z</time>
      </trkpt>
      <trkpt lat="59.9245227" lon="17.64154">
        <ele>13.5958</ele>
        <time>2013-06-02T19:51:54Z</time>
      </trkpt>
      <trkpt lat="59.9246003" lon="17.6415245">
        <ele>13.5958</ele>
        <time>2013-06-02T19:51:55Z</time>
      </trkpt>
      <trkpt lat="59.9246772" lon="17.6415068">
        <ele>13.5958</ele>
        <time>2013-06-02T19:51:56Z</time>
      </trkpt>
      <trkpt lat="59.9247541" lon="17.6414883">
        <ele>13.5958</ele>
        <time>2013-06-02T19:51:57Z</time>
      </trkpt>
      <trkpt lat="59.9248325" lon="17.6414706">
        <ele>14.0764</ele>
        <time>2013-06-02T19:51:58Z</time>
      </trkpt>
      <trkpt lat="59.9249111" lon="17.641457">
        <ele>14.557</ele>
        <time>2013-06-02T19:51:59Z</time>
      </trkpt>
      <trkpt lat="59.92499" lon="17.6414499">
        <ele>14.557</ele>
        <time>2013-06-02T19:52:00Z</time>
      </trkpt>
      <trkpt lat="59.9250687" lon="17.6414468">
        <ele>15.0377</ele>
        <time>2013-06-02T19:52:01Z</time>
      </trkpt>
      <trkpt lat="59.9251459" lon="17.6414445">
        <ele>14.557</ele>
        <time>2013-06-02T19:52:02Z</time>
      </trkpt>
      <trkpt lat="59.9252231" lon="17.6414432">
        <ele>14.0764</ele>
        <time>2013-06-02T19:52:03Z</time>
      </trkpt>
      <trkpt lat="59.9253003" lon="17.6414407">
        <ele>13.5958</ele>
        <time>2013-06-02T19:52:04Z</time>
      </trkpt>
      <trkpt lat="59.9253775" lon="17.6414364">
        <ele>13.5958</ele>
        <time>2013-06-02T19:52:05Z</time>
      </trkpt>
      <trkpt lat="59.925456" lon="17.6414321">
        <ele>13.1151</ele>
        <time>2013-06-02T19:52:06Z</time>
      </trkpt>
      <trkpt lat="59.9255353" lon="17.6414266">
        <ele>13.1151</ele>
        <time>2013-06-02T19:52:07Z</time>
      </trkpt>
      <trkpt lat="59.9256152" lon="17.6414193">
        <ele>12.6344</ele>
        <time>2013-06-02T19:52:08Z</time>
      </trkpt>
      <trkpt lat="59.9256953" lon="17.6414069">
        <ele>12.6344</ele>
        <time>2013-06-02T19:52:09Z</time>
      </trkpt>
      <trkpt lat="59.9257753" lon="17.6413918">
        <ele>12.1538</ele>
        <time>2013-06-02T19:52:10Z</time>
      </trkpt>
      <trkpt lat="59.9258555" lon="17.6413785">
        <ele>12.1538</ele>
        <time>2013-06-02T19:52:11Z</time>
      </trkpt>
      <trkpt lat="59.9259357" lon="17.6413665">
        <ele>12.1538</ele>
        <time>2013-06-02T19:52:12Z</time>
      </trkpt>
      <trkpt lat="59.9260172" lon="17.6413555">
        <ele>12.1538</ele>
        <time>2013-06-02T19:52:13Z</time>
      </trkpt>
      <trkpt lat="59.9260988" lon="17.6413463">
        <ele>12.1538</ele>
        <time>2013-06-02T19:52:14Z</time>
      </trkpt>
      <trkpt lat="59.9261807" lon="17.6413401">
        <ele>12.1538</ele>
        <time>2013-06-02T19:52:15Z</time>
      </trkpt>
      <trkpt lat="59.9262622" lon="17.6413335">
        <ele>12.1538</ele>
        <time>2013-06-02T19:52:16Z</time>
      </trkpt>
      <trkpt lat="59.9263435" lon="17.6413257">
        <ele>12.1538</ele>
        <time>2013-06-02T19:52:17Z</time>
      </trkpt>
      <trkpt lat="59.9264245" lon="17.6413163">
        <ele>12.1538</ele>
        <time>2013-06-02T19:52:18Z</time>
      </trkpt>
      <trkpt lat="59.9265051" lon="17.6413059">
        <ele>12.1538</ele>
        <time>2013-06-02T19:52:19Z</time>
      </trkpt>
      <trkpt lat="59.9265842" lon="17.6412946">
        <ele>12.1538</ele>
        <time>2013-06-02T19:52:20Z</time>
      </trkpt>
      <trkpt lat="59.9266621" lon="17.6412835">
        <ele>12.1538</ele>
        <time>2013-06-02T19:52:21Z</time>
      </trkpt>
      <trkpt lat="59.9267393" lon="17.6412742">
        <ele>12.1538</ele>
        <time>2013-06-02T19:52:22Z</time>
      </trkpt>
      <trkpt lat="59.9268155" lon="17.6412681">
        <ele>12.1538</ele>
        <time>2013-06-02T19:52:23Z</time>
      </trkpt>
      <trkpt lat="59.9268917" lon="17.6412637">
        <ele>12.1538</ele>
        <time>2013-06-02T19:52:24Z</time>
      </trkpt>
      <trkpt lat="59.9269682" lon="17.6412588">
        <ele>12.1538</ele>
        <time>2013-06-02T19:52:25Z</time>
      </trkpt>
      <trkpt lat="59.9270444" lon="17.6412515">
        <ele>12.1538</ele>
        <time>2013-06-02T19:52:26Z</time>
      </trkpt>
      <trkpt lat="59.9271205" lon="17.6412437">
        <ele>12.1538</ele>
        <time>2013-06-02T19:52:27Z</time>
      </trkpt>
      <trkpt lat="59.9271958" lon="17.6412375">
        <ele>12.1538</ele>
        <time>2013-06-02T19:52:28Z</time>
      </trkpt>
      <trkpt lat="59.9272703" lon="17.6412322">
        <ele>12.1538</ele>
        <time>2013-06-02T19:52:29Z</time>
      </trkpt>
      <trkpt lat="59.9273447" lon="17.6412275">
        <ele>12.1538</ele>
        <time>2013-06-02T19:52:30Z</time>
      </trkpt>
      <trkpt lat="59.9274189" lon="17.641222">
        <ele>12.1538</ele>
        <time>2013-06-02T19:52:31Z</time>
      </trkpt>
      <trkpt lat="59.9274928" lon="17.6412147">
        <ele>12.1538</ele>
        <time>2013-06-02T19:52:32Z</time>
      </trkpt>
      <trkpt lat="59.9275667" lon="17.6412075">
        <ele>12.1538</ele>
        <time>2013-06-02T19:52:33Z</time>
      </trkpt>
      <trkpt lat="59.9276411" lon="17.6411991">
        <ele>12.1538</ele>
        <time>2013-06-02T19:52:34Z</time>
      </trkpt>
      <trkpt lat="59.9277153" lon="17.6411889">
        <ele>12.1538</ele>
        <time>2013-06-02T19:52:35Z</time>
      </trkpt>
      <trkpt lat="59.9277897" lon="17.6411788">
        <ele>12.1538</ele>
        <time>2013-06-02T19:52:36Z</time>
      </trkpt>
      <trkpt lat="59.9278637" lon="17.641172">
        <ele>12.1538</ele>
        <time>2013-06-02T19:52:37Z</time>
      </trkpt>
      <trkpt lat="59.9279378" lon="17.6411656">
        <ele>12.1538</ele>
        <time>2013-06-02T19:52:38Z</time>
      </trkpt>
      <trkpt lat="59.9280117" lon="17.6411578">
        <ele>12.1538</ele>
        <time>2013-06-02T19:52:39Z</time>
      </trkpt>
      <trkpt lat="59.9280851" lon="17.64115">
        <ele>12.1538</ele>
        <time>2013-06-02T19:52:40Z</time>
      </trkpt>
      <trkpt lat="59.9281582" lon="17.6411433">
        <ele>12.1538</ele>
        <time>2013-06-02T19:52:41Z</time>
      </trkpt>
      <trkpt lat="59.9282312" lon="17.6411377">
        <ele>12.1538</ele>
        <time>2013-06-02T19:52:42Z</time>
      </trkpt>
      <trkpt lat="59.9283042" lon="17.6411297">
        <ele>12.1538</ele>
        <time>2013-06-02T19:52:43Z</time>
      </trkpt>
      <trkpt lat="59.9283773" lon="17.6411192">
        <ele>12.6344</ele>
        <time>2013-06-02T19:52:44Z</time>
      </trkpt>
      <trkpt lat="59.9284498" lon="17.6411065">
        <ele>12.6344</ele>
        <time>2013-06-02T19:52:45Z</time>
      </trkpt>
      <trkpt lat="59.9285218" lon="17.6410943">
        <ele>12.6344</ele>
        <time>2013-06-02T19:52:46Z</time>
      </trkpt>
      <trkpt lat="59.9285926" lon="17.6410826">
        <ele>13.1151</ele>
        <time>2013-06-02T19:52:47Z</time>
      </trkpt>
      <trkpt lat="59.9286623" lon="17.6410712">
        <ele>13.1151</ele>
        <time>2013-06-02T19:52:48Z</time>
      </trkpt>
      <trkpt lat="59.9287316" lon="17.6410596">
        <ele>13.1151</ele>
        <time>2013-06-02T19:52:49Z</time>
      </trkpt>
      <trkpt lat="59.9288015" lon="17.6410451">
        <ele>13.1151</ele>
        <time>2013-06-02T19:52:50Z</time>
      </trkpt>
      <trkpt lat="59.9288702" lon="17.641027">
        <ele>12.6344</ele>
        <time>2013-06-02T19:52:51Z</time>
      </trkpt>
      <trkpt lat="59.9289398" lon="17.6410086">
        <ele>12.6344</ele>
        <time>2013-06-02T19:52:52Z</time>
      </trkpt>
      <trkpt lat="59.9290099" lon="17.6409954">
        <ele>12.1538</ele>
        <time>2013-06-02T19:52:53Z</time>
      </trkpt>
      <trkpt lat="59.9290793" lon="17.6409882">
        <ele>12.1538</ele>
        <time>2013-06-02T19:52:54Z</time>
      </trkpt>
      <trkpt lat="59.9291487" lon="17.6409837">
        <ele>12.6344</ele>
        <time>2013-06-02T19:52:55Z</time>
      </trkpt>
      <trkpt lat="59.929217" lon="17.6409827">
        <ele>12.6344</ele>
        <time>2013-06-02T19:52:56Z</time>
      </trkpt>
      <trkpt lat="59.9292831" lon="17.6409843">
        <ele>12.6344</ele>
        <time>2013-06-02T19:52:57Z</time>
      </trkpt>
      <trkpt lat="59.9293475" lon="17.6409827">
        <ele>12.6344</ele>
        <time>2013-06-02T19:52:58Z</time>
      </trkpt>
      <trkpt lat="59.9294116" lon="17.640976">
        <ele>13.1151</ele>
        <time>2013-06-02T19:52:59Z</time>
      </trkpt>
      <trkpt lat="59.9294755" lon="17.640966">
        <ele>13.1151</ele>
        <time>2013-06-02T19:53:00Z</time>
      </trkpt>
      <trkpt lat="59.9295392" lon="17.6409546">
        <ele>13.1151</ele>
        <time>2013-06-02T19:53:01Z</time>
      </trkpt>
      <trkpt lat="59.9296028" lon="17.6409423">
        <ele>13.1151</ele>
        <time>2013-06-02T19:53:02Z</time>
      </trkpt>
      <trkpt lat="59.9296656" lon="17.6409267">
        <ele>13.5958</ele>
        <time>2013-06-02T19:53:03Z</time>
      </trkpt>
      <trkpt lat="59.9297265" lon="17.6409087">
        <ele>13.5958</ele>
        <time>2013-06-02T19:53:04Z</time>
      </trkpt>
      <trkpt lat="59.9297842" lon="17.6408928">
        <ele>14.0764</ele>
        <time>2013-06-02T19:53:05Z</time>
      </trkpt>
      <trkpt lat="59.9298382" lon="17.6408826">
        <ele>14.0764</ele>
        <time>2013-06-02T19:53:06Z</time>
      </trkpt>
      <trkpt lat="59.9298887" lon="17.6408765">
        <ele>14.0764</ele>
        <time>2013-06-02T19:53:07Z</time>
      </trkpt>
      <trkpt lat="59.9299354" lon="17.6408688">
        <ele>14.0764</ele>
        <time>2013-06-02T19:53:08Z</time>
      </trkpt>
      <trkpt lat="59.9299803" lon="17.6408669">
        <ele>14.0764</ele>
        <time>2013-06-02T19:53:09Z</time>
      </trkpt>
      <trkpt lat="59.9300194" lon="17.6408687">
        <ele>14.557</ele>
        <time>2013-06-02T19:53:10Z</time>
      </trkpt>
      <trkpt lat="59.9300495" lon="17.640864">
        <ele>13.1151</ele>
        <time>2013-06-02T19:53:11Z</time>
      </trkpt>
      <trkpt lat="59.930078" lon="17.6408581">
        <ele>12.6344</ele>
        <time>2013-06-02T19:53:12Z</time>
      </trkpt>
      <trkpt lat="59.9301054" lon="17.6408548">
        <ele>12.6344</ele>
        <time>2013-06-02T19:53:13Z</time>
      </trkpt>
      <trkpt lat="59.9301344" lon="17.6408547">
        <ele>12.6344</ele>
        <time>2013-06-02T19:53:14Z</time>
      </trkpt>
      <trkpt lat="59.9301683" lon="17.6408559">
        <ele>12.6344</ele>
        <time>2013-06-02T19:53:15Z</time>
      </trkpt>
      <trkpt lat="59.9302089" lon="17.6408577">
        <ele>12.6344</ele>
        <time>2013-06-02T19:53:16Z</time>
      </trkpt>
      <trkpt lat="59.9302538" lon="17.640862">
        <ele>12.6344</ele>
        <time>2013-06-02T19:53:17Z</time>
      </trkpt>
      <trkpt lat="59.9303056" lon="17.6408742">
        <ele>12.6344</ele>
        <time>2013-06-02T19:53:18Z</time>
      </trkpt>
      <trkpt lat="59.9303638" lon="17.6408852">
        <ele>12.6344</ele>
        <time>2013-06-02T19:53:19Z</time>
      </trkpt>
      <trkpt lat="59.930422" lon="17.6408873">
        <ele>13.1151</ele>
        <time>2013-06-02T19:53:20Z</time>
      </trkpt>
      <trkpt lat="59.9304799" lon="17.6408863">
        <ele>13.5958</ele>
        <time>2013-06-02T19:53:21Z</time>
      </trkpt>
      <trkpt lat="59.9305384" lon="17.6408811">
        <ele>13.5958</ele>
        <time>2013-06-02T19:53:22Z</time>
      </trkpt>
      <trkpt lat="59.9305985" lon="17.6408702">
        <ele>14.0764</ele>
        <time>2013-06-02T19:53:23Z</time>
      </trkpt>
      <trkpt lat="59.9306587" lon="17.6408578">
        <ele>13.5958</ele>
        <time>2013-06-02T19:53:24Z</time>
      </trkpt>
      <trkpt lat="59.9307232" lon="17.6408459">
        <ele>13.5958</ele>
        <time>2013-06-02T19:53:25Z</time>
      </trkpt>
      <trkpt lat="59.9307908" lon="17.6408377">
        <ele>13.5958</ele>
        <time>2013-06-02T19:53:26Z</time>
      </trkpt>
      <trkpt lat="59.9308626" lon="17.6408449">
        <ele>13.5958</ele>
        <time>2013-06-02T19:53:27Z</time>
      </trkpt>
      <trkpt lat="59.9309376" lon="17.6408635">
        <ele>14.0764</ele>
        <time>2013-06-02T19:53:28Z</time>
      </trkpt>
      <trkpt lat="59.9310149" lon="17.6408957">
        <ele>15.0377</ele>
        <time>2013-06-02T19:53:29Z</time>
      </trkpt>
      <trkpt lat="59.9310864" lon="17.6409421">
        <ele>15.0377</ele>
        <time>2013-06-02T19:53:30Z</time>
      </trkpt>
      <trkpt lat="59.9311533" lon="17.6409954">
        <ele>15.5184</ele>
        <time>2013-06-02T19:53:31Z</time>
      </trkpt>
      <trkpt lat="59.9312175" lon="17.6410463">
        <ele>15.999</ele>
        <time>2013-06-02T19:53:32Z</time>
      </trkpt>
      <trkpt lat="59.9312782" lon="17.6410934">
        <ele>15.999</ele>
        <time>2013-06-02T19:53:33Z</time>
      </trkpt>
      <trkpt lat="59.9313362" lon="17.6411386">
        <ele>15.999</ele>
        <time>2013-06-02T19:53:34Z</time>
      </trkpt>
      <trkpt lat="59.931391" lon="17.641181">
        <ele>15.999</ele>
        <time>2013-06-02T19:53:35Z</time>
      </trkpt>
      <trkpt lat="59.9314465" lon="17.6412215">
        <ele>15.999</ele>
        <time>2013-06-02T19:53:36Z</time>
      </trkpt>
      <trkpt lat="59.9315036" lon="17.6412633">
        <ele>15.999</ele>
        <time>2013-06-02T19:53:37Z</time>
      </trkpt>
      <trkpt lat="59.9315615" lon="17.6413062">
        <ele>15.999</ele>
        <time>2013-06-02T19:53:38Z</time>
      </trkpt>
      <trkpt lat="59.931619" lon="17.6413493">
        <ele>15.999</ele>
        <time>2013-06-02T19:53:39Z</time>
      </trkpt>
      <trkpt lat="59.9316766" lon="17.6413934">
        <ele>15.999</ele>
        <time>2013-06-02T19:53:40Z</time>
      </trkpt>
      <trkpt lat="59.9317344" lon="17.6414393">
        <ele>15.999</ele>
        <time>2013-06-02T19:53:41Z</time>
      </trkpt>
      <trkpt lat="59.9317924" lon="17.6414824">
        <ele>15.999</ele>
        <time>2013-06-02T19:53:42Z</time>
      </trkpt>
      <trkpt lat="59.9318516" lon="17.6415212">
        <ele>15.999</ele>
        <time>2013-06-02T19:53:43Z</time>
      </trkpt>
      <trkpt lat="59.9319101" lon="17.6415556">
        <ele>15.999</ele>
        <time>2013-06-02T19:53:44Z</time>
      </trkpt>
      <trkpt lat="59.9319665" lon="17.6415917">
        <ele>15.5184</ele>
        <time>2013-06-02T19:53:45Z</time>
      </trkpt>
      <trkpt lat="59.9320194" lon="17.6416354">
        <ele>15.999</ele>
        <time>2013-06-02T19:53:46Z</time>
      </trkpt>
      <trkpt lat="59.9320685" lon="17.641685">
        <ele>15.5184</ele>
        <time>2013-06-02T19:53:47Z</time>
      </trkpt>
      <trkpt lat="59.9321202" lon="17.6417365">
        <ele>15.5184</ele>
        <time>2013-06-02T19:53:48Z</time>
      </trkpt>
      <trkpt lat="59.9321751" lon="17.6417908">
        <ele>15.0377</ele>
        <time>2013-06-02T19:53:49Z</time>
      </trkpt>
      <trkpt lat="59.9322313" lon="17.6418475">
        <ele>15.0377</ele>
        <time>2013-06-02T19:53:50Z</time>
      </trkpt>
      <trkpt lat="59.9322898" lon="17.6419026">
        <ele>15.0377</ele>
        <time>2013-06-02T19:53:51Z</time>
      </trkpt>
      <trkpt lat="59.9323505" lon="17.641955">
        <ele>15.0377</ele>
        <time>2013-06-02T19:53:52Z</time>
      </trkpt>
      <trkpt lat="59.9324115" lon="17.6420089">
        <ele>15.0377</ele>
        <time>2013-06-02T19:53:53Z</time>
      </trkpt>
      <trkpt lat="59.9324721" lon="17.6420674">
        <ele>15.0377</ele>
        <time>2013-06-02T19:53:54Z</time>
      </trkpt>
      <trkpt lat="59.9325316" lon="17.6421283">
        <ele>15.0377</ele>
        <time>2013-06-02T19:53:55Z</time>
      </trkpt>
      <trkpt lat="59.9325907" lon="17.6421912">
        <ele>15.0377</ele>
        <time>2013-06-02T19:53:56Z</time>
      </trkpt>
      <trkpt lat="59.9326477" lon="17.6422579">
        <ele>15.5184</ele>
        <time>2013-06-02T19:53:57Z</time>
      </trkpt>
      <trkpt lat="59.9327027" lon="17.6423299">
        <ele>15.5184</ele>
        <time>2013-06-02T19:53:58Z</time>
      </trkpt>
      <trkpt lat="59.9327563" lon="17.6424097">
        <ele>16.4797</ele>
        <time>2013-06-02T19:53:59Z</time>
      </trkpt>
      <trkpt lat="59.9328042" lon="17.6424954">
        <ele>16.9604</ele>
        <time>2013-06-02T19:54:00Z</time>
      </trkpt>
      <trkpt lat="59.9328516" lon="17.6425796">
        <ele>17.4412</ele>
        <time>2013-06-02T19:54:01Z</time>
      </trkpt>
      <trkpt lat="59.9329032" lon="17.6426579">
        <ele>18.4023</ele>
        <time>2013-06-02T19:54:02Z</time>
      </trkpt>
      <trkpt lat="59.9329578" lon="17.6427305">
        <ele>19.3638</ele>
        <time>2013-06-02T19:54:03Z</time>
      </trkpt>
      <trkpt lat="59.9330132" lon="17.6427973">
        <ele>20.325</ele>
        <time>2013-06-02T19:54:04Z</time>
      </trkpt>
      <trkpt lat="59.9330673" lon="17.6428584">
        <ele>21.767</ele>
        <time>2013-06-02T19:54:05Z</time>
      </trkpt>
      <trkpt lat="59.9331202" lon="17.6429191">
        <ele>23.209</ele>
        <time>2013-06-02T19:54:06Z</time>
      </trkpt>
      <trkpt lat="59.9331703" lon="17.6429811">
        <ele>24.651</ele>
        <time>2013-06-02T19:54:07Z</time>
      </trkpt>
      <trkpt lat="59.9332094" lon="17.643045">
        <ele>23.6896</ele>
        <time>2013-06-02T19:54:08Z</time>
      </trkpt>
      <trkpt lat="59.9332459" lon="17.6431087">
        <ele>22.7283</ele>
        <time>2013-06-02T19:54:09Z</time>
      </trkpt>
      <trkpt lat="59.9332813" lon="17.6431727">
        <ele>21.767</ele>
        <time>2013-06-02T19:54:10Z</time>
      </trkpt>
      <trkpt lat="59.9333175" lon="17.64324">
        <ele>21.767</ele>
        <time>2013-06-02T19:54:11Z</time>
      </trkpt>
      <trkpt lat="59.9333582" lon="17.6432991">
        <ele>22.7283</ele>
        <time>2013-06-02T19:54:12Z</time>
      </trkpt>
      <trkpt lat="59.9333956" lon="17.6433501">
        <ele>24.1703</ele>
        <time>2013-06-02T19:54:13Z</time>
      </trkpt>
      <trkpt lat="59.9334315" lon="17.6433972">
        <ele>24.1703</ele>
        <time>2013-06-02T19:54:14Z</time>
      </trkpt>
      <trkpt lat="59.9334663" lon="17.6434482">
        <ele>22.7283</ele>
        <time>2013-06-02T19:54:15Z</time>
      </trkpt>
      <trkpt lat="59.9335061" lon="17.6434949">
        <ele>22.7283</ele>
        <time>2013-06-02T19:54:16Z</time>
      </trkpt>
      <trkpt lat="59.9335486" lon="17.6435389">
        <ele>22.7283</ele>
        <time>2013-06-02T19:54:17Z</time>
      </trkpt>
      <trkpt lat="59.9335827" lon="17.6435839">
        <ele>20.8057</ele>
        <time>2013-06-02T19:54:18Z</time>
      </trkpt>
      <trkpt lat="59.9336211" lon="17.643628">
        <ele>19.3638</ele>
        <time>2013-06-02T19:54:19Z</time>
      </trkpt>
      <trkpt lat="59.9336611" lon="17.64368">
        <ele>19.3638</ele>
        <time>2013-06-02T19:54:20Z</time>
      </trkpt>
      <trkpt lat="59.9337003" lon="17.6437321">
        <ele>18.8831</ele>
        <time>2013-06-02T19:54:21Z</time>
      </trkpt>
      <trkpt lat="59.9337392" lon="17.6437726">
        <ele>18.8831</ele>
        <time>2013-06-02T19:54:22Z</time>
      </trkpt>
      <trkpt lat="59.9337795" lon="17.6438056">
        <ele>18.8831</ele>
        <time>2013-06-02T19:54:23Z</time>
      </trkpt>
      <trkpt lat="59.9338226" lon="17.6438404">
        <ele>18.8831</ele>
        <time>2013-06-02T19:54:24Z</time>
      </trkpt>
      <trkpt lat="59.9338672" lon="17.6438809">
        <ele>18.8831</ele>
        <time>2013-06-02T19:54:25Z</time>
      </trkpt>
      <trkpt lat="59.9339126" lon="17.6439317">
        <ele>18.4023</ele>
        <time>2013-06-02T19:54:26Z</time>
      </trkpt>
      <trkpt lat="59.9339558" lon="17.643989">
        <ele>17.9218</ele>
        <time>2013-06-02T19:54:27Z</time>
      </trkpt>
      <trkpt lat="59.9340023" lon="17.6440456">
        <ele>18.8831</ele>
        <time>2013-06-02T19:54:28Z</time>
      </trkpt>
      <trkpt lat="59.9340428" lon="17.644102">
        <ele>18.4023</ele>
        <time>2013-06-02T19:54:29Z</time>
      </trkpt>
      <trkpt lat="59.9340878" lon="17.6441565">
        <ele>18.8831</ele>
        <time>2013-06-02T19:54:30Z</time>
      </trkpt>
      <trkpt lat="59.9341321" lon="17.6442119">
        <ele>19.3638</ele>
        <time>2013-06-02T19:54:31Z</time>
      </trkpt>
      <trkpt lat="59.9341774" lon="17.644267">
        <ele>19.8444</ele>
        <time>2013-06-02T19:54:32Z</time>
      </trkpt>
      <trkpt lat="59.9342244" lon="17.6443205">
        <ele>20.8057</ele>
        <time>2013-06-02T19:54:33Z</time>
      </trkpt>
      <trkpt lat="59.9342707" lon="17.6443742">
        <ele>21.767</ele>
        <time>2013-06-02T19:54:34Z</time>
      </trkpt>
      <trkpt lat="59.9343168" lon="17.6444294">
        <ele>22.2476</ele>
        <time>2013-06-02T19:54:35Z</time>
      </trkpt>
      <trkpt lat="59.9343598" lon="17.6444883">
        <ele>22.7283</ele>
        <time>2013-06-02T19:54:36Z</time>
      </trkpt>
      <trkpt lat="59.9343985" lon="17.6445513">
        <ele>23.6896</ele>
        <time>2013-06-02T19:54:37Z</time>
      </trkpt>
      <trkpt lat="59.9344365" lon="17.6446128">
        <ele>25.6123</ele>
        <time>2013-06-02T19:54:38Z</time>
      </trkpt>
      <trkpt lat="59.9344671" lon="17.644673">
        <ele>26.5736</ele>
        <time>2013-06-02T19:54:39Z</time>
      </trkpt>
      <trkpt lat="59.9344966" lon="17.6447254">
        <ele>27.5349</ele>
        <time>2013-06-02T19:54:40Z</time>
      </trkpt>
      <trkpt lat="59.934526" lon="17.6447696">
        <ele>27.5349</ele>
        <time>2013-06-02T19:54:41Z</time>
      </trkpt>
      <trkpt lat="59.9345591" lon="17.6448139">
        <ele>28.4962</ele>
        <time>2013-06-02T19:54:42Z</time>
      </trkpt>
      <trkpt lat="59.9345929" lon="17.6448565">
        <ele>28.9769</ele>
        <time>2013-06-02T19:54:43Z</time>
      </trkpt>
      <trkpt lat="59.9346265" lon="17.6449003">
        <ele>28.9769</ele>
        <time>2013-06-02T19:54:44Z</time>
      </trkpt>
      <trkpt lat="59.9346597" lon="17.644946">
        <ele>28.9769</ele>
        <time>2013-06-02T19:54:45Z</time>
      </trkpt>
      <trkpt lat="59.9346934" lon="17.6449919">
        <ele>29.4575</ele>
        <time>2013-06-02T19:54:46Z</time>
      </trkpt>
      <trkpt lat="59.9347296" lon="17.6450413">
        <ele>29.4575</ele>
        <time>2013-06-02T19:54:47Z</time>
      </trkpt>
      <trkpt lat="59.9347669" lon="17.6450864">
        <ele>29.4575</ele>
        <time>2013-06-02T19:54:48Z</time>
      </trkpt>
      <trkpt lat="59.9348041" lon="17.6451338">
        <ele>29.9381</ele>
        <time>2013-06-02T19:54:49Z</time>
      </trkpt>
      <trkpt lat="59.934843" lon="17.6451811">
        <ele>29.9381</ele>
        <time>2013-06-02T19:54:50Z</time>
      </trkpt>
      <trkpt lat="59.9348827" lon="17.6452291">
        <ele>29.9381</ele>
        <time>2013-06-02T19:54:51Z</time>
      </trkpt>
      <trkpt lat="59.9349227" lon="17.6452788">
        <ele>29.4575</ele>
        <time>2013-06-02T19:54:52Z</time>
      </trkpt>
      <trkpt lat="59.934963" lon="17.6453355">
        <ele>29.4575</ele>
        <time>2013-06-02T19:54:53Z</time>
      </trkpt>
      <trkpt lat="59.9350036" lon="17.645392">
        <ele>29.4575</ele>
        <time>2013-06-02T19:54:54Z</time>
      </trkpt>
      <trkpt lat="59.9350425" lon="17.6454527">
        <ele>28.9769</ele>
        <time>2013-06-02T19:54:55Z</time>
      </trkpt>
      <trkpt lat="59.9350799" lon="17.6455273">
        <ele>28.0155</ele>
        <time>2013-06-02T19:54:56Z</time>
      </trkpt>
      <trkpt lat="59.935114" lon="17.6456057">
        <ele>28.0155</ele>
        <time>2013-06-02T19:54:57Z</time>
      </trkpt>
      <trkpt lat="59.9351421" lon="17.645691">
        <ele>28.0155</ele>
        <time>2013-06-02T19:54:58Z</time>
      </trkpt>
      <trkpt lat="59.9351742" lon="17.6457747">
        <ele>28.0155</ele>
        <time>2013-06-02T19:54:59Z</time>
      </trkpt>
      <trkpt lat="59.9352134" lon="17.6458509">
        <ele>28.0155</ele>
        <time>2013-06-02T19:55:00Z</time>
      </trkpt>
      <trkpt lat="59.9352605" lon="17.6459214">
        <ele>28.4962</ele>
        <time>2013-06-02T19:55:01Z</time>
      </trkpt>
      <trkpt lat="59.9353086" lon="17.6459852">
        <ele>28.4962</ele>
        <time>2013-06-02T19:55:02Z</time>
      </trkpt>
      <trkpt lat="59.9353579" lon="17.6460558">
        <ele>28.4962</ele>
        <time>2013-06-02T19:55:03Z</time>
      </trkpt>
      <trkpt lat="59.9354092" lon="17.6461243">
        <ele>28.9769</ele>
        <time>2013-06-02T19:55:04Z</time>
      </trkpt>
      <trkpt lat="59.9354632" lon="17.6461994">
        <ele>29.4575</ele>
        <time>2013-06-02T19:55:05Z</time>
      </trkpt>
      <trkpt lat="59.9355174" lon="17.6462739">
        <ele>29.9381</ele>
        <time>2013-06-02T19:55:06Z</time>
      </trkpt>
      <trkpt lat="59.9355714" lon="17.646349">
        <ele>30.4188</ele>
        <time>2013-06-02T19:55:07Z</time>
      </trkpt>
      <trkpt lat="59.9356268" lon="17.64642">
        <ele>30.8995</ele>
        <time>2013-06-02T19:55:08Z</time>
      </trkpt>
      <trkpt lat="59.9356827" lon="17.6464894">
        <ele>30.8995</ele>
        <time>2013-06-02T19:55:09Z</time>
      </trkpt>
      <trkpt lat="59.9357381" lon="17.6465612">
        <ele>31.3801</ele>
        <time>2013-06-02T19:55:10Z</time>
      </trkpt>
      <trkpt lat="59.9357936" lon="17.6466351">
        <ele>31.3801</ele>
        <time>2013-06-02T19:55:11Z</time>
      </trkpt>
      <trkpt lat="59.9358496" lon="17.6467082">
        <ele>31.8607</ele>
        <time>2013-06-02T19:55:12Z</time>
      </trkpt>
      <trkpt lat="59.9359064" lon="17.6467832">
        <ele>32.3416</ele>
        <time>2013-06-02T19:55:13Z</time>
      </trkpt>
      <trkpt lat="59.9359626" lon="17.6468533">
        <ele>32.8223</ele>
        <time>2013-06-02T19:55:14Z</time>
      </trkpt>
      <trkpt lat="59.9360174" lon="17.6469257">
        <ele>32.8223</ele>
        <time>2013-06-02T19:55:15Z</time>
      </trkpt>
      <trkpt lat="59.9360739" lon="17.6470025">
        <ele>33.3029</ele>
        <time>2013-06-02T19:55:16Z</time>
      </trkpt>
      <trkpt lat="59.9361322" lon="17.6470779">
        <ele>33.3029</ele>
        <time>2013-06-02T19:55:17Z</time>
      </trkpt>
      <trkpt lat="59.9361916" lon="17.6471527">
        <ele>33.7834</ele>
        <time>2013-06-02T19:55:18Z</time>
      </trkpt>
      <trkpt lat="59.9362505" lon="17.6472274">
        <ele>33.3029</ele>
        <time>2013-06-02T19:55:19Z</time>
      </trkpt>
      <trkpt lat="59.936308" lon="17.6473023">
        <ele>33.3029</ele>
        <time>2013-06-02T19:55:20Z</time>
      </trkpt>
      <trkpt lat="59.9363651" lon="17.6473778">
        <ele>32.8223</ele>
        <time>2013-06-02T19:55:21Z</time>
      </trkpt>
      <trkpt lat="59.9364229" lon="17.6474567">
        <ele>32.8223</ele>
        <time>2013-06-02T19:55:22Z</time>
      </trkpt>
      <trkpt lat="59.9364805" lon="17.6475319">
        <ele>32.3416</ele>
        <time>2013-06-02T19:55:23Z</time>
      </trkpt>
      <trkpt lat="59.9365389" lon="17.647606">
        <ele>31.8607</ele>
        <time>2013-06-02T19:55:24Z</time>
      </trkpt>
      <trkpt lat="59.9365995" lon="17.6476826">
        <ele>31.8607</ele>
        <time>2013-06-02T19:55:25Z</time>
      </trkpt>
      <trkpt lat="59.9366649" lon="17.6477589">
        <ele>32.8223</ele>
        <time>2013-06-02T19:55:26Z</time>
      </trkpt>
      <trkpt lat="59.936729" lon="17.6478375">
        <ele>33.3029</ele>
        <time>2013-06-02T19:55:27Z</time>
      </trkpt>
      <trkpt lat="59.9367923" lon="17.6479129">
        <ele>33.3029</ele>
        <time>2013-06-02T19:55:28Z</time>
      </trkpt>
      <trkpt lat="59.9368559" lon="17.6479862">
        <ele>33.7834</ele>
        <time>2013-06-02T19:55:29Z</time>
      </trkpt>
      <trkpt lat="59.9369192" lon="17.6480626">
        <ele>33.7834</ele>
        <time>2013-06-02T19:55:30Z</time>
      </trkpt>
      <trkpt lat="59.936982" lon="17.648142">
        <ele>34.2642</ele>
        <time>2013-06-02T19:55:31Z</time>
      </trkpt>
      <trkpt lat="59.9370436" lon="17.6482206">
        <ele>34.2642</ele>
        <time>2013-06-02T19:55:32Z</time>
      </trkpt>
      <trkpt lat="59.9371052" lon="17.6482997">
        <ele>34.7449</ele>
        <time>2013-06-02T19:55:33Z</time>
      </trkpt>
      <trkpt lat="59.9371673" lon="17.6483809">
        <ele>34.7449</ele>
        <time>2013-06-02T19:55:34Z</time>
      </trkpt>
      <trkpt lat="59.937228" lon="17.6484617">
        <ele>34.2642</ele>
        <time>2013-06-02T19:55:35Z</time>
      </trkpt>
      <trkpt lat="59.9372885" lon="17.6485445">
        <ele>34.2642</ele>
        <time>2013-06-02T19:55:36Z</time>
      </trkpt>
      <trkpt lat="59.9373482" lon="17.648629">
        <ele>34.2642</ele>
        <time>2013-06-02T19:55:37Z</time>
      </trkpt>
      <trkpt lat="59.9374086" lon="17.6487153">
        <ele>33.7834</ele>
        <time>2013-06-02T19:55:38Z</time>
      </trkpt>
      <trkpt lat="59.9374682" lon="17.6488039">
        <ele>33.7834</ele>
        <time>2013-06-02T19:55:39Z</time>
      </trkpt>
      <trkpt lat="59.9375274" lon="17.6488953">
        <ele>33.7834</ele>
        <time>2013-06-02T19:55:40Z</time>
      </trkpt>
      <trkpt lat="59.9375865" lon="17.6489901">
        <ele>33.3029</ele>
        <time>2013-06-02T19:55:41Z</time>
      </trkpt>
      <trkpt lat="59.9376446" lon="17.6490898">
        <ele>33.3029</ele>
        <time>2013-06-02T19:55:42Z</time>
      </trkpt>
      <trkpt lat="59.9377014" lon="17.6491953">
        <ele>33.3029</ele>
        <time>2013-06-02T19:55:43Z</time>
      </trkpt>
      <trkpt lat="59.9377543" lon="17.6493062">
        <ele>31.8607</ele>
        <time>2013-06-02T19:55:44Z</time>
      </trkpt>
      <trkpt lat="59.9378014" lon="17.6494255">
        <ele>29.4575</ele>
        <time>2013-06-02T19:55:45Z</time>
      </trkpt>
      <trkpt lat="59.9378473" lon="17.6495558">
        <ele>29.4575</ele>
        <time>2013-06-02T19:55:46Z</time>
      </trkpt>
      <trkpt lat="59.93789" lon="17.6496878">
        <ele>28.9769</ele>
        <time>2013-06-02T19:55:47Z</time>
      </trkpt>
      <trkpt lat="59.9379371" lon="17.6498159">
        <ele>28.4962</ele>
        <time>2013-06-02T19:55:48Z</time>
      </trkpt>
      <trkpt lat="59.9379848" lon="17.6499433">
        <ele>28.4962</ele>
        <time>2013-06-02T19:55:49Z</time>
      </trkpt>
      <trkpt lat="59.9380325" lon="17.6500707">
        <ele>28.4962</ele>
        <time>2013-06-02T19:55:50Z</time>
      </trkpt>
      <trkpt lat="59.9380815" lon="17.6501996">
        <ele>28.4962</ele>
        <time>2013-06-02T19:55:51Z</time>
      </trkpt>
      <trkpt lat="59.9381292" lon="17.6503322">
        <ele>28.0155</ele>
        <time>2013-06-02T19:55:52Z</time>
      </trkpt>
      <trkpt lat="59.938177" lon="17.6504674">
        <ele>28.0155</ele>
        <time>2013-06-02T19:55:53Z</time>
      </trkpt>
      <trkpt lat="59.9382252" lon="17.6506026">
        <ele>28.0155</ele>
        <time>2013-06-02T19:55:54Z</time>
      </trkpt>
      <trkpt lat="59.9382749" lon="17.6507346">
        <ele>28.0155</ele>
        <time>2013-06-02T19:55:55Z</time>
      </trkpt>
      <trkpt lat="59.9383246" lon="17.6508638">
        <ele>27.0543</ele>
        <time>2013-06-02T19:55:56Z</time>
      </trkpt>
      <trkpt lat="59.9383769" lon="17.6509885">
        <ele>26.5736</ele>
        <time>2013-06-02T19:55:57Z</time>
      </trkpt>
      <trkpt lat="59.9384313" lon="17.6511129">
        <ele>27.0543</ele>
        <time>2013-06-02T19:55:58Z</time>
      </trkpt>
      <trkpt lat="59.9384985" lon="17.6512444">
        <ele>29.4575</ele>
        <time>2013-06-02T19:55:59Z</time>
      </trkpt>
      <trkpt lat="59.9385422" lon="17.6513796">
        <ele>29.9381</ele>
        <time>2013-06-02T19:56:00Z</time>
      </trkpt>
      <trkpt lat="59.9385846" lon="17.651518">
        <ele>29.9381</ele>
        <time>2013-06-02T19:56:01Z</time>
      </trkpt>
      <trkpt lat="59.9386251" lon="17.6516557">
        <ele>30.4188</ele>
        <time>2013-06-02T19:56:02Z</time>
      </trkpt>
      <trkpt lat="59.938663" lon="17.6517924">
        <ele>30.4188</ele>
        <time>2013-06-02T19:56:03Z</time>
      </trkpt>
      <trkpt lat="59.9387001" lon="17.6519359">
        <ele>28.4962</ele>
        <time>2013-06-02T19:56:04Z</time>
      </trkpt>
      <trkpt lat="59.9387345" lon="17.6520758">
        <ele>28.0155</ele>
        <time>2013-06-02T19:56:05Z</time>
      </trkpt>
      <trkpt lat="59.9387747" lon="17.6522172">
        <ele>28.0155</ele>
        <time>2013-06-02T19:56:06Z</time>
      </trkpt>
      <trkpt lat="59.9388151" lon="17.6523593">
        <ele>28.0155</ele>
        <time>2013-06-02T19:56:07Z</time>
      </trkpt>
      <trkpt lat="59.9388544" lon="17.6525015">
        <ele>28.0155</ele>
        <time>2013-06-02T19:56:08Z</time>
      </trkpt>
      <trkpt lat="59.9388928" lon="17.652644">
        <ele>28.0155</ele>
        <time>2013-06-02T19:56:09Z</time>
      </trkpt>
      <trkpt lat="59.9389302" lon="17.6527863">
        <ele>28.0155</ele>
        <time>2013-06-02T19:56:10Z</time>
      </trkpt>
      <trkpt lat="59.9389672" lon="17.6529288">
        <ele>28.0155</ele>
        <time>2013-06-02T19:56:11Z</time>
      </trkpt>
      <trkpt lat="59.9390031" lon="17.6530726">
        <ele>28.0155</ele>
        <time>2013-06-02T19:56:12Z</time>
      </trkpt>
      <trkpt lat="59.9390377" lon="17.6532175">
        <ele>28.0155</ele>
        <time>2013-06-02T19:56:13Z</time>
      </trkpt>
      <trkpt lat="59.9390722" lon="17.6533631">
        <ele>28.0155</ele>
        <time>2013-06-02T19:56:14Z</time>
      </trkpt>
      <trkpt lat="59.9391073" lon="17.6535086">
        <ele>28.4962</ele>
        <time>2013-06-02T19:56:15Z</time>
      </trkpt>
      <trkpt lat="59.9391409" lon="17.6536543">
        <ele>28.4962</ele>
        <time>2013-06-02T19:56:16Z</time>
      </trkpt>
      <trkpt lat="59.9391724" lon="17.6538001">
        <ele>28.4962</ele>
        <time>2013-06-02T19:56:17Z</time>
      </trkpt>
      <trkpt lat="59.939204" lon="17.6539463">
        <ele>28.4962</ele>
        <time>2013-06-02T19:56:18Z</time>
      </trkpt>
      <trkpt lat="59.9392333" lon="17.6540931">
        <ele>28.4962</ele>
        <time>2013-06-02T19:56:19Z</time>
      </trkpt>
      <trkpt lat="59.9392613" lon="17.6542389">
        <ele>28.0155</ele>
        <time>2013-06-02T19:56:20Z</time>
      </trkpt>
      <trkpt lat="59.9392918" lon="17.654384">
        <ele>29.4575</ele>
        <time>2013-06-02T19:56:21Z</time>
      </trkpt>
      <trkpt lat="59.9393188" lon="17.6545298">
        <ele>28.9769</ele>
        <time>2013-06-02T19:56:22Z</time>
      </trkpt>
      <trkpt lat="59.9393523" lon="17.6546738">
        <ele>30.8995</ele>
        <time>2013-06-02T19:56:23Z</time>
      </trkpt>
      <trkpt lat="59.9393829" lon="17.6548183">
        <ele>30.4188</ele>
        <time>2013-06-02T19:56:24Z</time>
      </trkpt>
      <trkpt lat="59.9394102" lon="17.6549626">
        <ele>29.9381</ele>
        <time>2013-06-02T19:56:25Z</time>
      </trkpt>
      <trkpt lat="59.9394329" lon="17.6551065">
        <ele>28.9769</ele>
        <time>2013-06-02T19:56:26Z</time>
      </trkpt>
      <trkpt lat="59.9394573" lon="17.6552497">
        <ele>28.4962</ele>
        <time>2013-06-02T19:56:27Z</time>
      </trkpt>
      <trkpt lat="59.9394866" lon="17.6553921">
        <ele>28.4962</ele>
        <time>2013-06-02T19:56:28Z</time>
      </trkpt>
      <trkpt lat="59.9395141" lon="17.6555332">
        <ele>28.0155</ele>
        <time>2013-06-02T19:56:29Z</time>
      </trkpt>
      <trkpt lat="59.9395414" lon="17.6556724">
        <ele>27.0543</ele>
        <time>2013-06-02T19:56:30Z</time>
      </trkpt>
      <trkpt lat="59.93957" lon="17.65581">
        <ele>26.5736</ele>
        <time>2013-06-02T19:56:31Z</time>
      </trkpt>
      <trkpt lat="59.9395979" lon="17.6559475">
        <ele>26.5736</ele>
        <time>2013-06-02T19:56:32Z</time>
      </trkpt>
      <trkpt lat="59.9396254" lon="17.6560859">
        <ele>26.5736</ele>
        <time>2013-06-02T19:56:33Z</time>
      </trkpt>
      <trkpt lat="59.9396529" lon="17.6562256">
        <ele>26.5736</ele>
        <time>2013-06-02T19:56:34Z</time>
      </trkpt>
      <trkpt lat="59.9396813" lon="17.6563659">
        <ele>26.5736</ele>
        <time>2013-06-02T19:56:35Z</time>
      </trkpt>
      <trkpt lat="59.9397103" lon="17.6565067">
        <ele>26.5736</ele>
        <time>2013-06-02T19:56:36Z</time>
      </trkpt>
      <trkpt lat="59.9397406" lon="17.6566487">
        <ele>26.5736</ele>
        <time>2013-06-02T19:56:37Z</time>
      </trkpt>
      <trkpt lat="59.9397699" lon="17.6567923">
        <ele>26.5736</ele>
        <time>2013-06-02T19:56:38Z</time>
      </trkpt>
      <trkpt lat="59.9397985" lon="17.6569379">
        <ele>26.5736</ele>
        <time>2013-06-02T19:56:39Z</time>
      </trkpt>
      <trkpt lat="59.9398268" lon="17.6570846">
        <ele>26.5736</ele>
        <time>2013-06-02T19:56:40Z</time>
      </trkpt>
      <trkpt lat="59.9398559" lon="17.6572332">
        <ele>26.5736</ele>
        <time>2013-06-02T19:56:41Z</time>
      </trkpt>
      <trkpt lat="59.9398858" lon="17.6573849">
        <ele>26.5736</ele>
        <time>2013-06-02T19:56:42Z</time>
      </trkpt>
      <trkpt lat="59.9399168" lon="17.6575382">
        <ele>26.5736</ele>
        <time>2013-06-02T19:56:43Z</time>
      </trkpt>
      <trkpt lat="59.9399492" lon="17.6576932">
        <ele>26.0929</ele>
        <time>2013-06-02T19:56:44Z</time>
      </trkpt>
      <trkpt lat="59.9399818" lon="17.6578491">
        <ele>26.0929</ele>
        <time>2013-06-02T19:56:45Z</time>
      </trkpt>
      <trkpt lat="59.9400152" lon="17.6580061">
        <ele>26.0929</ele>
        <time>2013-06-02T19:56:46Z</time>
      </trkpt>
      <trkpt lat="59.9400522" lon="17.6581656">
        <ele>26.5736</ele>
        <time>2013-06-02T19:56:47Z</time>
      </trkpt>
      <trkpt lat="59.9400896" lon="17.6583272">
        <ele>26.5736</ele>
        <time>2013-06-02T19:56:48Z</time>
      </trkpt>
      <trkpt lat="59.9401267" lon="17.6584898">
        <ele>26.0929</ele>
        <time>2013-06-02T19:56:49Z</time>
      </trkpt>
      <trkpt lat="59.9401641" lon="17.6586519">
        <ele>26.0929</ele>
        <time>2013-06-02T19:56:50Z</time>
      </trkpt>
      <trkpt lat="59.9402019" lon="17.6588146">
        <ele>26.0929</ele>
        <time>2013-06-02T19:56:51Z</time>
      </trkpt>
      <trkpt lat="59.9402416" lon="17.658979">
        <ele>26.5736</ele>
        <time>2013-06-02T19:56:52Z</time>
      </trkpt>
      <trkpt lat="59.9402743" lon="17.6591442">
        <ele>27.0543</ele>
        <time>2013-06-02T19:56:53Z</time>
      </trkpt>
      <trkpt lat="59.9403037" lon="17.6593084">
        <ele>26.5736</ele>
        <time>2013-06-02T19:56:54Z</time>
      </trkpt>
      <trkpt lat="59.9403309" lon="17.6594694">
        <ele>26.5736</ele>
        <time>2013-06-02T19:56:55Z</time>
      </trkpt>
      <trkpt lat="59.9403594" lon="17.6596256">
        <ele>27.0543</ele>
        <time>2013-06-02T19:56:56Z</time>
      </trkpt>
      <trkpt lat="59.9403879" lon="17.6597761">
        <ele>27.0543</ele>
        <time>2013-06-02T19:56:57Z</time>
      </trkpt>
      <trkpt lat="59.9404195" lon="17.6599159">
        <ele>27.0543</ele>
        <time>2013-06-02T19:56:58Z</time>
      </trkpt>
      <trkpt lat="59.9404587" lon="17.6600478">
        <ele>27.5349</ele>
        <time>2013-06-02T19:56:59Z</time>
      </trkpt>
      <trkpt lat="59.9405002" lon="17.6601787">
        <ele>28.0155</ele>
        <time>2013-06-02T19:57:00Z</time>
      </trkpt>
      <trkpt lat="59.9405473" lon="17.6603081">
        <ele>28.4962</ele>
        <time>2013-06-02T19:57:01Z</time>
      </trkpt>
      <trkpt lat="59.9405755" lon="17.6604718">
        <ele>28.9769</ele>
        <time>2013-06-02T19:57:02Z</time>
      </trkpt>
      <trkpt lat="59.940564" lon="17.6606437">
        <ele>29.4575</ele>
        <time>2013-06-02T19:57:03Z</time>
      </trkpt>
      <trkpt lat="59.9405316" lon="17.660802">
        <ele>29.4575</ele>
        <time>2013-06-02T19:57:04Z</time>
      </trkpt>
      <trkpt lat="59.9404888" lon="17.6609597">
        <ele>28.4962</ele>
        <time>2013-06-02T19:57:05Z</time>
      </trkpt>
      <trkpt lat="59.9404558" lon="17.661126">
        <ele>28.4962</ele>
        <time>2013-06-02T19:57:06Z</time>
      </trkpt>
      <trkpt lat="59.9404356" lon="17.6612901">
        <ele>28.4962</ele>
        <time>2013-06-02T19:57:07Z</time>
      </trkpt>
      <trkpt lat="59.9404244" lon="17.6614586">
        <ele>28.4962</ele>
        <time>2013-06-02T19:57:08Z</time>
      </trkpt>
      <trkpt lat="59.9404231" lon="17.6616223">
        <ele>27.5349</ele>
        <time>2013-06-02T19:57:09Z</time>
      </trkpt>
      <trkpt lat="59.9404448" lon="17.661773">
        <ele>28.0155</ele>
        <time>2013-06-02T19:57:10Z</time>
      </trkpt>
      <trkpt lat="59.9404822" lon="17.6619109">
        <ele>28.9769</ele>
        <time>2013-06-02T19:57:11Z</time>
      </trkpt>
      <trkpt lat="59.9405307" lon="17.6620294">
        <ele>29.9381</ele>
        <time>2013-06-02T19:57:12Z</time>
      </trkpt>
      <trkpt lat="59.9405883" lon="17.6621207">
        <ele>29.9381</ele>
        <time>2013-06-02T19:57:13Z</time>
      </trkpt>
      <trkpt lat="59.9406516" lon="17.662176">
        <ele>28.4962</ele>
        <time>2013-06-02T19:57:14Z</time>
      </trkpt>
      <trkpt lat="59.9407281" lon="17.6622067">
        <ele>29.4575</ele>
        <time>2013-06-02T19:57:15Z</time>
      </trkpt>
      <trkpt lat="59.9408022" lon="17.6622284">
        <ele>29.4575</ele>
        <time>2013-06-02T19:57:16Z</time>
      </trkpt>
      <trkpt lat="59.9408735" lon="17.6622445">
        <ele>28.0155</ele>
        <time>2013-06-02T19:57:17Z</time>
      </trkpt>
      <trkpt lat="59.9409484" lon="17.6622635">
        <ele>27.5349</ele>
        <time>2013-06-02T19:57:18Z</time>
      </trkpt>
      <trkpt lat="59.9410243" lon="17.6622895">
        <ele>27.5349</ele>
        <time>2013-06-02T19:57:19Z</time>
      </trkpt>
      <trkpt lat="59.9411007" lon="17.662325">
        <ele>27.5349</ele>
        <time>2013-06-02T19:57:20Z</time>
      </trkpt>
      <trkpt lat="59.9411768" lon="17.6623712">
        <ele>28.0155</ele>
        <time>2013-06-02T19:57:21Z</time>
      </trkpt>
      <trkpt lat="59.9412493" lon="17.6624262">
        <ele>27.5349</ele>
        <time>2013-06-02T19:57:22Z</time>
      </trkpt>
      <trkpt lat="59.9413193" lon="17.6624887">
        <ele>27.0543</ele>
        <time>2013-06-02T19:57:23Z</time>
      </trkpt>
      <trkpt lat="59.9413871" lon="17.6625607">
        <ele>27.0543</ele>
        <time>2013-06-02T19:57:24Z</time>
      </trkpt>
      <trkpt lat="59.9414509" lon="17.6626413">
        <ele>26.5736</ele>
        <time>2013-06-02T19:57:25Z</time>
      </trkpt>
      <trkpt lat="59.9415094" lon="17.6627276">
        <ele>25.6123</ele>
        <time>2013-06-02T19:57:26Z</time>
      </trkpt>
      <trkpt lat="59.9415761" lon="17.6628122">
        <ele>26.5736</ele>
        <time>2013-06-02T19:57:27Z</time>
      </trkpt>
      <trkpt lat="59.9416331" lon="17.6629095">
        <ele>26.5736</ele>
        <time>2013-06-02T19:57:28Z</time>
      </trkpt>
      <trkpt lat="59.9416985" lon="17.6630059">
        <ele>28.0155</ele>
        <time>2013-06-02T19:57:29Z</time>
      </trkpt>
      <trkpt lat="59.9417542" lon="17.6631082">
        <ele>28.0155</ele>
        <time>2013-06-02T19:57:30Z</time>
      </trkpt>
      <trkpt lat="59.9418119" lon="17.6632114">
        <ele>27.5349</ele>
        <time>2013-06-02T19:57:31Z</time>
      </trkpt>
      <trkpt lat="59.9418731" lon="17.6633057">
        <ele>28.9769</ele>
        <time>2013-06-02T19:57:32Z</time>
      </trkpt>
      <trkpt lat="59.9419349" lon="17.6634011">
        <ele>29.9381</ele>
        <time>2013-06-02T19:57:33Z</time>
      </trkpt>
      <trkpt lat="59.9419922" lon="17.6634991">
        <ele>28.9769</ele>
        <time>2013-06-02T19:57:34Z</time>
      </trkpt>
      <trkpt lat="59.9420501" lon="17.6635937">
        <ele>28.4962</ele>
        <time>2013-06-02T19:57:35Z</time>
      </trkpt>
      <trkpt lat="59.9421105" lon="17.6636879">
        <ele>28.4962</ele>
        <time>2013-06-02T19:57:36Z</time>
      </trkpt>
      <trkpt lat="59.9421711" lon="17.6637783">
        <ele>28.0155</ele>
        <time>2013-06-02T19:57:37Z</time>
      </trkpt>
      <trkpt lat="59.9422367" lon="17.663874">
        <ele>28.4962</ele>
        <time>2013-06-02T19:57:38Z</time>
      </trkpt>
      <trkpt lat="59.9423032" lon="17.6639677">
        <ele>28.4962</ele>
        <time>2013-06-02T19:57:39Z</time>
      </trkpt>
      <trkpt lat="59.9423713" lon="17.6640582">
        <ele>28.4962</ele>
        <time>2013-06-02T19:57:40Z</time>
      </trkpt>
      <trkpt lat="59.9424379" lon="17.6641469">
        <ele>28.4962</ele>
        <time>2013-06-02T19:57:41Z</time>
      </trkpt>
      <trkpt lat="59.9425049" lon="17.6642337">
        <ele>28.4962</ele>
        <time>2013-06-02T19:57:42Z</time>
      </trkpt>
      <trkpt lat="59.9425732" lon="17.6643181">
        <ele>28.4962</ele>
        <time>2013-06-02T19:57:43Z</time>
      </trkpt>
      <trkpt lat="59.9426452" lon="17.6644009">
        <ele>28.4962</ele>
        <time>2013-06-02T19:57:44Z</time>
      </trkpt>
      <trkpt lat="59.9427147" lon="17.6644813">
        <ele>28.4962</ele>
        <time>2013-06-02T19:57:45Z</time>
      </trkpt>
      <trkpt lat="59.9427839" lon="17.664561">
        <ele>28.4962</ele>
        <time>2013-06-02T19:57:46Z</time>
      </trkpt>
      <trkpt lat="59.9428554" lon="17.6646395">
        <ele>28.0155</ele>
        <time>2013-06-02T19:57:47Z</time>
      </trkpt>
      <trkpt lat="59.9429296" lon="17.6647141">
        <ele>28.4962</ele>
        <time>2013-06-02T19:57:48Z</time>
      </trkpt>
      <trkpt lat="59.9430064" lon="17.6647864">
        <ele>28.4962</ele>
        <time>2013-06-02T19:57:49Z</time>
      </trkpt>
      <trkpt lat="59.943083" lon="17.6648575">
        <ele>28.0155</ele>
        <time>2013-06-02T19:57:50Z</time>
      </trkpt>
      <trkpt lat="59.9431609" lon="17.6649269">
        <ele>28.0155</ele>
        <time>2013-06-02T19:57:51Z</time>
      </trkpt>
      <trkpt lat="59.943239" lon="17.6649961">
        <ele>27.5349</ele>
        <time>2013-06-02T19:57:52Z</time>
      </trkpt>
      <trkpt lat="59.9433185" lon="17.6650647">
        <ele>27.5349</ele>
        <time>2013-06-02T19:57:53Z</time>
      </trkpt>
      <trkpt lat="59.9433996" lon="17.6651308">
        <ele>27.5349</ele>
        <time>2013-06-02T19:57:54Z</time>
      </trkpt>
      <trkpt lat="59.9434817" lon="17.6651938">
        <ele>27.5349</ele>
        <time>2013-06-02T19:57:55Z</time>
      </trkpt>
      <trkpt lat="59.9435638" lon="17.6652544">
        <ele>27.0543</ele>
        <time>2013-06-02T19:57:56Z</time>
      </trkpt>
      <trkpt lat="59.9436464" lon="17.6653136">
        <ele>27.0543</ele>
        <time>2013-06-02T19:57:57Z</time>
      </trkpt>
      <trkpt lat="59.9437293" lon="17.6653694">
        <ele>27.0543</ele>
        <time>2013-06-02T19:57:58Z</time>
      </trkpt>
      <trkpt lat="59.9438084" lon="17.6654194">
        <ele>24.651</ele>
        <time>2013-06-02T19:57:59Z</time>
      </trkpt>
      <trkpt lat="59.9438918" lon="17.6654665">
        <ele>23.209</ele>
        <time>2013-06-02T19:58:00Z</time>
      </trkpt>
      <trkpt lat="59.943977" lon="17.6655142">
        <ele>22.2476</ele>
        <time>2013-06-02T19:58:01Z</time>
      </trkpt>
      <trkpt lat="59.9440625" lon="17.6655607">
        <ele>21.2864</ele>
        <time>2013-06-02T19:58:02Z</time>
      </trkpt>
      <trkpt lat="59.9441465" lon="17.6656016">
        <ele>20.8057</ele>
        <time>2013-06-02T19:58:03Z</time>
      </trkpt>
      <trkpt lat="59.9442323" lon="17.6656384">
        <ele>20.325</ele>
        <time>2013-06-02T19:58:04Z</time>
      </trkpt>
      <trkpt lat="59.9443164" lon="17.6656724">
        <ele>19.8444</ele>
        <time>2013-06-02T19:58:05Z</time>
      </trkpt>
      <trkpt lat="59.9444009" lon="17.6657042">
        <ele>19.3638</ele>
        <time>2013-06-02T19:58:06Z</time>
      </trkpt>
      <trkpt lat="59.9444899" lon="17.6657371">
        <ele>19.3638</ele>
        <time>2013-06-02T19:58:07Z</time>
      </trkpt>
      <trkpt lat="59.9445781" lon="17.6657697">
        <ele>19.3638</ele>
        <time>2013-06-02T19:58:08Z</time>
      </trkpt>
      <trkpt lat="59.9446652" lon="17.6658026">
        <ele>19.3638</ele>
        <time>2013-06-02T19:58:09Z</time>
      </trkpt>
      <trkpt lat="59.9447531" lon="17.6658359">
        <ele>19.3638</ele>
        <time>2013-06-02T19:58:10Z</time>
      </trkpt>
      <trkpt lat="59.9448411" lon="17.6658688">
        <ele>19.3638</ele>
        <time>2013-06-02T19:58:11Z</time>
      </trkpt>
      <trkpt lat="59.944928" lon="17.6659006">
        <ele>18.8831</ele>
        <time>2013-06-02T19:58:12Z</time>
      </trkpt>
      <trkpt lat="59.9450152" lon="17.6659315">
        <ele>18.8831</ele>
        <time>2013-06-02T19:58:13Z</time>
      </trkpt>
      <trkpt lat="59.9451033" lon="17.6659624">
        <ele>19.3638</ele>
        <time>2013-06-02T19:58:14Z</time>
      </trkpt>
      <trkpt lat="59.9451913" lon="17.6659948">
        <ele>19.3638</ele>
        <time>2013-06-02T19:58:15Z</time>
      </trkpt>
      <trkpt lat="59.9452795" lon="17.6660291">
        <ele>19.3638</ele>
        <time>2013-06-02T19:58:16Z</time>
      </trkpt>
      <trkpt lat="59.9453673" lon="17.6660647">
        <ele>19.3638</ele>
        <time>2013-06-02T19:58:17Z</time>
      </trkpt>
      <trkpt lat="59.9454554" lon="17.6660989">
        <ele>19.3638</ele>
        <time>2013-06-02T19:58:18Z</time>
      </trkpt>
      <trkpt lat="59.9455426" lon="17.6661315">
        <ele>19.3638</ele>
        <time>2013-06-02T19:58:19Z</time>
      </trkpt>
      <trkpt lat="59.94563" lon="17.6661647">
        <ele>19.3638</ele>
        <time>2013-06-02T19:58:20Z</time>
      </trkpt>
      <trkpt lat="59.9457182" lon="17.6661973">
        <ele>19.8444</ele>
        <time>2013-06-02T19:58:21Z</time>
      </trkpt>
      <trkpt lat="59.9458053" lon="17.66623">
        <ele>19.8444</ele>
        <time>2013-06-02T19:58:22Z</time>
      </trkpt>
      <trkpt lat="59.9458912" lon="17.6662642">
        <ele>19.3638</ele>
        <time>2013-06-02T19:58:23Z</time>
      </trkpt>
      <trkpt lat="59.9459773" lon="17.6662972">
        <ele>19.8444</ele>
        <time>2013-06-02T19:58:24Z</time>
      </trkpt>
      <trkpt lat="59.9460641" lon="17.6663297">
        <ele>19.8444</ele>
        <time>2013-06-02T19:58:25Z</time>
      </trkpt>
      <trkpt lat="59.9461508" lon="17.6663637">
        <ele>19.8444</ele>
        <time>2013-06-02T19:58:26Z</time>
      </trkpt>
      <trkpt lat="59.9462352" lon="17.6664065">
        <ele>19.8444</ele>
        <time>2013-06-02T19:58:27Z</time>
      </trkpt>
      <trkpt lat="59.946317" lon="17.666462">
        <ele>19.8444</ele>
        <time>2013-06-02T19:58:28Z</time>
      </trkpt>
      <trkpt lat="59.9463983" lon="17.6665174">
        <ele>19.8444</ele>
        <time>2013-06-02T19:58:29Z</time>
      </trkpt>
      <trkpt lat="59.9464813" lon="17.6665599">
        <ele>20.325</ele>
        <time>2013-06-02T19:58:30Z</time>
      </trkpt>
      <trkpt lat="59.9465647" lon="17.6665874">
        <ele>20.325</ele>
        <time>2013-06-02T19:58:31Z</time>
      </trkpt>
      <trkpt lat="59.9466476" lon="17.666602">
        <ele>19.8444</ele>
        <time>2013-06-02T19:58:32Z</time>
      </trkpt>
      <trkpt lat="59.9467301" lon="17.666611">
        <ele>19.8444</ele>
        <time>2013-06-02T19:58:33Z</time>
      </trkpt>
      <trkpt lat="59.9468128" lon="17.6666269">
        <ele>19.8444</ele>
        <time>2013-06-02T19:58:34Z</time>
      </trkpt>
      <trkpt lat="59.9468945" lon="17.6666526">
        <ele>19.8444</ele>
        <time>2013-06-02T19:58:35Z</time>
      </trkpt>
      <trkpt lat="59.9469744" lon="17.6666828">
        <ele>19.8444</ele>
        <time>2013-06-02T19:58:36Z</time>
      </trkpt>
      <trkpt lat="59.9470524" lon="17.6667174">
        <ele>20.325</ele>
        <time>2013-06-02T19:58:37Z</time>
      </trkpt>
      <trkpt lat="59.9471291" lon="17.6667529">
        <ele>20.325</ele>
        <time>2013-06-02T19:58:38Z</time>
      </trkpt>
      <trkpt lat="59.9472067" lon="17.6667879">
        <ele>20.8057</ele>
        <time>2013-06-02T19:58:39Z</time>
      </trkpt>
      <trkpt lat="59.9472829" lon="17.6668225">
        <ele>20.8057</ele>
        <time>2013-06-02T19:58:40Z</time>
      </trkpt>
      <trkpt lat="59.9473587" lon="17.6668572">
        <ele>20.8057</ele>
        <time>2013-06-02T19:58:41Z</time>
      </trkpt>
      <trkpt lat="59.9474344" lon="17.6668929">
        <ele>20.8057</ele>
        <time>2013-06-02T19:58:42Z</time>
      </trkpt>
      <trkpt lat="59.9475108" lon="17.6669283">
        <ele>21.2864</ele>
        <time>2013-06-02T19:58:43Z</time>
      </trkpt>
      <trkpt lat="59.9475877" lon="17.6669643">
        <ele>21.2864</ele>
        <time>2013-06-02T19:58:44Z</time>
      </trkpt>
      <trkpt lat="59.947665" lon="17.6670018">
        <ele>21.2864</ele>
        <time>2013-06-02T19:58:45Z</time>
      </trkpt>
      <trkpt lat="59.9477418" lon="17.6670396">
        <ele>21.767</ele>
        <time>2013-06-02T19:58:46Z</time>
      </trkpt>
      <trkpt lat="59.9478187" lon="17.6670753">
        <ele>21.767</ele>
        <time>2013-06-02T19:58:47Z</time>
      </trkpt>
      <trkpt lat="59.9478964" lon="17.66711">
        <ele>21.767</ele>
        <time>2013-06-02T19:58:48Z</time>
      </trkpt>
      <trkpt lat="59.9479744" lon="17.6671463">
        <ele>21.767</ele>
        <time>2013-06-02T19:58:49Z</time>
      </trkpt>
      <trkpt lat="59.9480519" lon="17.6671852">
        <ele>21.767</ele>
        <time>2013-06-02T19:58:50Z</time>
      </trkpt>
      <trkpt lat="59.9481301" lon="17.6672251">
        <ele>21.767</ele>
        <time>2013-06-02T19:58:51Z</time>
      </trkpt>
      <trkpt lat="59.9482085" lon="17.6672655">
        <ele>22.2476</ele>
        <time>2013-06-02T19:58:52Z</time>
      </trkpt>
      <trkpt lat="59.9482869" lon="17.6673094">
        <ele>22.2476</ele>
        <time>2013-06-02T19:58:53Z</time>
      </trkpt>
      <trkpt lat="59.9483652" lon="17.6673562">
        <ele>22.2476</ele>
        <time>2013-06-02T19:58:54Z</time>
      </trkpt>
      <trkpt lat="59.9484438" lon="17.6674046">
        <ele>22.2476</ele>
        <time>2013-06-02T19:58:55Z</time>
      </trkpt>
      <trkpt lat="59.9485227" lon="17.6674509">
        <ele>22.2476</ele>
        <time>2013-06-02T19:58:56Z</time>
      </trkpt>
      <trkpt lat="59.9486025" lon="17.6674952">
        <ele>22.2476</ele>
        <time>2013-06-02T19:58:57Z</time>
      </trkpt>
      <trkpt lat="59.948683" lon="17.6675398">
        <ele>22.2476</ele>
        <time>2013-06-02T19:58:58Z</time>
      </trkpt>
      <trkpt lat="59.948764" lon="17.667585">
        <ele>22.7283</ele>
        <time>2013-06-02T19:58:59Z</time>
      </trkpt>
      <trkpt lat="59.9488457" lon="17.6676304">
        <ele>23.209</ele>
        <time>2013-06-02T19:59:00Z</time>
      </trkpt>
      <trkpt lat="59.9489272" lon="17.6676755">
        <ele>23.6896</ele>
        <time>2013-06-02T19:59:01Z</time>
      </trkpt>
      <trkpt lat="59.9490091" lon="17.6677201">
        <ele>23.6896</ele>
        <time>2013-06-02T19:59:02Z</time>
      </trkpt>
      <trkpt lat="59.9490915" lon="17.6677652">
        <ele>24.1703</ele>
        <time>2013-06-02T19:59:03Z</time>
      </trkpt>
      <trkpt lat="59.9491748" lon="17.667812">
        <ele>24.651</ele>
        <time>2013-06-02T19:59:04Z</time>
      </trkpt>
      <trkpt lat="59.9492586" lon="17.6678595">
        <ele>25.6123</ele>
        <time>2013-06-02T19:59:05Z</time>
      </trkpt>
      <trkpt lat="59.9493427" lon="17.667906">
        <ele>25.6123</ele>
        <time>2013-06-02T19:59:06Z</time>
      </trkpt>
      <trkpt lat="59.9494271" lon="17.6679539">
        <ele>26.0929</ele>
        <time>2013-06-02T19:59:07Z</time>
      </trkpt>
      <trkpt lat="59.9495099" lon="17.6680072">
        <ele>26.0929</ele>
        <time>2013-06-02T19:59:08Z</time>
      </trkpt>
      <trkpt lat="59.9495924" lon="17.6680604">
        <ele>26.0929</ele>
        <time>2013-06-02T19:59:09Z</time>
      </trkpt>
      <trkpt lat="59.9496743" lon="17.6681083">
        <ele>26.5736</ele>
        <time>2013-06-02T19:59:10Z</time>
      </trkpt>
      <trkpt lat="59.9497564" lon="17.668151">
        <ele>26.5736</ele>
        <time>2013-06-02T19:59:11Z</time>
      </trkpt>
      <trkpt lat="59.949837" lon="17.668188">
        <ele>27.0543</ele>
        <time>2013-06-02T19:59:12Z</time>
      </trkpt>
      <trkpt lat="59.9499177" lon="17.6682251">
        <ele>27.5349</ele>
        <time>2013-06-02T19:59:13Z</time>
      </trkpt>
      <trkpt lat="59.9499983" lon="17.6682589">
        <ele>27.0543</ele>
        <time>2013-06-02T19:59:14Z</time>
      </trkpt>
      <trkpt lat="59.9500786" lon="17.6682874">
        <ele>27.0543</ele>
        <time>2013-06-02T19:59:15Z</time>
      </trkpt>
      <trkpt lat="59.950159" lon="17.6683104">
        <ele>27.5349</ele>
        <time>2013-06-02T19:59:16Z</time>
      </trkpt>
      <trkpt lat="59.9502393" lon="17.6683293">
        <ele>27.0543</ele>
        <time>2013-06-02T19:59:17Z</time>
      </trkpt>
      <trkpt lat="59.9503174" lon="17.6683463">
        <ele>26.5736</ele>
        <time>2013-06-02T19:59:18Z</time>
      </trkpt>
      <trkpt lat="59.9503958" lon="17.6683559">
        <ele>26.5736</ele>
        <time>2013-06-02T19:59:19Z</time>
      </trkpt>
      <trkpt lat="59.9504759" lon="17.6683591">
        <ele>26.5736</ele>
        <time>2013-06-02T19:59:20Z</time>
      </trkpt>
      <trkpt lat="59.950557" lon="17.6683574">
        <ele>26.5736</ele>
        <time>2013-06-02T19:59:21Z</time>
      </trkpt>
      <trkpt lat="59.9506385" lon="17.6683538">
        <ele>26.5736</ele>
        <time>2013-06-02T19:59:22Z</time>
      </trkpt>
      <trkpt lat="59.9507202" lon="17.6683454">
        <ele>26.5736</ele>
        <time>2013-06-02T19:59:23Z</time>
      </trkpt>
      <trkpt lat="59.9508017" lon="17.6683294">
        <ele>27.0543</ele>
        <time>2013-06-02T19:59:24Z</time>
      </trkpt>
      <trkpt lat="59.9508822" lon="17.6683103">
        <ele>26.5736</ele>
        <time>2013-06-02T19:59:25Z</time>
      </trkpt>
      <trkpt lat="59.9509642" lon="17.6682863">
        <ele>26.5736</ele>
        <time>2013-06-02T19:59:26Z</time>
      </trkpt>
      <trkpt lat="59.9510474" lon="17.6682584">
        <ele>26.5736</ele>
        <time>2013-06-02T19:59:27Z</time>
      </trkpt>
      <trkpt lat="59.9511309" lon="17.6682295">
        <ele>26.5736</ele>
        <time>2013-06-02T19:59:28Z</time>
      </trkpt>
      <trkpt lat="59.9512126" lon="17.6682006">
        <ele>26.5736</ele>
        <time>2013-06-02T19:59:29Z</time>
      </trkpt>
      <trkpt lat="59.951294" lon="17.6681735">
        <ele>26.5736</ele>
        <time>2013-06-02T19:59:30Z</time>
      </trkpt>
      <trkpt lat="59.9513749" lon="17.6681464">
        <ele>26.5736</ele>
        <time>2013-06-02T19:59:31Z</time>
      </trkpt>
      <trkpt lat="59.9514525" lon="17.6681197">
        <ele>25.6123</ele>
        <time>2013-06-02T19:59:32Z</time>
      </trkpt>
      <trkpt lat="59.95153" lon="17.6681103">
        <ele>24.651</ele>
        <time>2013-06-02T19:59:33Z</time>
      </trkpt>
      <trkpt lat="59.9516077" lon="17.6681301">
        <ele>24.1703</ele>
        <time>2013-06-02T19:59:34Z</time>
      </trkpt>
      <trkpt lat="59.9516779" lon="17.6681874">
        <ele>24.1703</ele>
        <time>2013-06-02T19:59:35Z</time>
      </trkpt>
      <trkpt lat="59.9517334" lon="17.6683023">
        <ele>24.1703</ele>
        <time>2013-06-02T19:59:36Z</time>
      </trkpt>
      <trkpt lat="59.9517754" lon="17.668444">
        <ele>24.1703</ele>
        <time>2013-06-02T19:59:37Z</time>
      </trkpt>
      <trkpt lat="59.9518079" lon="17.6685921">
        <ele>24.651</ele>
        <time>2013-06-02T19:59:38Z</time>
      </trkpt>
      <trkpt lat="59.9518334" lon="17.6687403">
        <ele>24.651</ele>
        <time>2013-06-02T19:59:39Z</time>
      </trkpt>
      <trkpt lat="59.9518502" lon="17.6688888">
        <ele>25.1317</ele>
        <time>2013-06-02T19:59:40Z</time>
      </trkpt>
      <trkpt lat="59.9518553" lon="17.669036">
        <ele>25.1317</ele>
        <time>2013-06-02T19:59:41Z</time>
      </trkpt>
      <trkpt lat="59.9518498" lon="17.6691785">
        <ele>25.1317</ele>
        <time>2013-06-02T19:59:42Z</time>
      </trkpt>
      <trkpt lat="59.9518422" lon="17.6693183">
        <ele>25.1317</ele>
        <time>2013-06-02T19:59:43Z</time>
      </trkpt>
      <trkpt lat="59.9518355" lon="17.6694593">
        <ele>25.1317</ele>
        <time>2013-06-02T19:59:44Z</time>
      </trkpt>
      <trkpt lat="59.9518291" lon="17.6696012">
        <ele>25.1317</ele>
        <time>2013-06-02T19:59:45Z</time>
      </trkpt>
      <trkpt lat="59.9518223" lon="17.6697432">
        <ele>25.1317</ele>
        <time>2013-06-02T19:59:46Z</time>
      </trkpt>
      <trkpt lat="59.9518152" lon="17.6698844">
        <ele>25.1317</ele>
        <time>2013-06-02T19:59:47Z</time>
      </trkpt>
      <trkpt lat="59.9518068" lon="17.6700245">
        <ele>25.1317</ele>
        <time>2013-06-02T19:59:48Z</time>
      </trkpt>
      <trkpt lat="59.9517974" lon="17.670164">
        <ele>25.6123</ele>
        <time>2013-06-02T19:59:49Z</time>
      </trkpt>
      <trkpt lat="59.9517888" lon="17.6703026">
        <ele>25.6123</ele>
        <time>2013-06-02T19:59:50Z</time>
      </trkpt>
      <trkpt lat="59.9517797" lon="17.6704402">
        <ele>25.6123</ele>
        <time>2013-06-02T19:59:51Z</time>
      </trkpt>
      <trkpt lat="59.9517695" lon="17.6705759">
        <ele>25.6123</ele>
        <time>2013-06-02T19:59:52Z</time>
      </trkpt>
      <trkpt lat="59.9517598" lon="17.670711">
        <ele>26.0929</ele>
        <time>2013-06-02T19:59:53Z</time>
      </trkpt>
      <trkpt lat="59.9517535" lon="17.6708433">
        <ele>26.0929</ele>
        <time>2013-06-02T19:59:54Z</time>
      </trkpt>
      <trkpt lat="59.9517533" lon="17.6709753">
        <ele>26.5736</ele>
        <time>2013-06-02T19:59:55Z</time>
      </trkpt>
      <trkpt lat="59.9517609" lon="17.6710991">
        <ele>24.1703</ele>
        <time>2013-06-02T19:59:56Z</time>
      </trkpt>
      <trkpt lat="59.951781" lon="17.6712172">
        <ele>22.7283</ele>
        <time>2013-06-02T19:59:57Z</time>
      </trkpt>
      <trkpt lat="59.9518033" lon="17.6713356">
        <ele>22.2476</ele>
        <time>2013-06-02T19:59:58Z</time>
      </trkpt>
      <trkpt lat="59.9518192" lon="17.6714577">
        <ele>21.767</ele>
        <time>2013-06-02T19:59:59Z</time>
      </trkpt>
      <trkpt lat="59.951827" lon="17.6715825">
        <ele>21.2864</ele>
        <time>2013-06-02T20:00:00Z</time>
      </trkpt>
      <trkpt lat="59.9518292" lon="17.6717087">
        <ele>21.767</ele>
        <time>2013-06-02T20:00:01Z</time>
      </trkpt>
      <trkpt lat="59.9518296" lon="17.6718368">
        <ele>21.767</ele>
        <time>2013-06-02T20:00:02Z</time>
      </trkpt>
      <trkpt lat="59.9518322" lon="17.6719673">
        <ele>22.2476</ele>
        <time>2013-06-02T20:00:03Z</time>
      </trkpt>
      <trkpt lat="59.9518403" lon="17.6721026">
        <ele>22.2476</ele>
        <time>2013-06-02T20:00:04Z</time>
      </trkpt>
      <trkpt lat="59.9518534" lon="17.6722444">
        <ele>22.2476</ele>
        <time>2013-06-02T20:00:05Z</time>
      </trkpt>
      <trkpt lat="59.951868" lon="17.6723879">
        <ele>22.7283</ele>
        <time>2013-06-02T20:00:06Z</time>
      </trkpt>
      <trkpt lat="59.9518829" lon="17.672532">
        <ele>23.209</ele>
        <time>2013-06-02T20:00:07Z</time>
      </trkpt>
      <trkpt lat="59.9518985" lon="17.6726755">
        <ele>23.6896</ele>
        <time>2013-06-02T20:00:08Z</time>
      </trkpt>
      <trkpt lat="59.9519167" lon="17.6728174">
        <ele>24.1703</ele>
        <time>2013-06-02T20:00:09Z</time>
      </trkpt>
      <trkpt lat="59.9519353" lon="17.6729584">
        <ele>24.651</ele>
        <time>2013-06-02T20:00:10Z</time>
      </trkpt>
      <trkpt lat="59.9519545" lon="17.6731038">
        <ele>25.1317</ele>
        <time>2013-06-02T20:00:11Z</time>
      </trkpt>
      <trkpt lat="59.9519751" lon="17.6732481">
        <ele>25.6123</ele>
        <time>2013-06-02T20:00:12Z</time>
      </trkpt>
      <trkpt lat="59.9519969" lon="17.6733859">
        <ele>25.6123</ele>
        <time>2013-06-02T20:00:13Z</time>
      </trkpt>
      <trkpt lat="59.9520187" lon="17.6735173">
        <ele>26.0929</ele>
        <time>2013-06-02T20:00:14Z</time>
      </trkpt>
      <trkpt lat="59.9520409" lon="17.6736442">
        <ele>26.0929</ele>
        <time>2013-06-02T20:00:15Z</time>
      </trkpt>
      <trkpt lat="59.9520637" lon="17.6737684">
        <ele>27.0543</ele>
        <time>2013-06-02T20:00:16Z</time>
      </trkpt>
      <trkpt lat="59.9520856" lon="17.6738909">
        <ele>27.0543</ele>
        <time>2013-06-02T20:00:17Z</time>
      </trkpt>
      <trkpt lat="59.9521086" lon="17.6740098">
        <ele>27.5349</ele>
        <time>2013-06-02T20:00:18Z</time>
      </trkpt>
      <trkpt lat="59.9521322" lon="17.6741239">
        <ele>27.5349</ele>
        <time>2013-06-02T20:00:19Z</time>
      </trkpt>
      <trkpt lat="59.9521559" lon="17.6742354">
        <ele>28.0155</ele>
        <time>2013-06-02T20:00:20Z</time>
      </trkpt>
      <trkpt lat="59.9521792" lon="17.6743475">
        <ele>28.9769</ele>
        <time>2013-06-02T20:00:21Z</time>
      </trkpt>
      <trkpt lat="59.9522021" lon="17.6744588">
        <ele>28.9769</ele>
        <time>2013-06-02T20:00:22Z</time>
      </trkpt>
      <trkpt lat="59.9522231" lon="17.6745678">
        <ele>28.9769</ele>
        <time>2013-06-02T20:00:23Z</time>
      </trkpt>
      <trkpt lat="59.9522416" lon="17.6746761">
        <ele>28.9769</ele>
        <time>2013-06-02T20:00:24Z</time>
      </trkpt>
      <trkpt lat="59.9522565" lon="17.6747826">
        <ele>28.9769</ele>
        <time>2013-06-02T20:00:25Z</time>
      </trkpt>
      <trkpt lat="59.9522706" lon="17.6748785">
        <ele>29.4575</ele>
        <time>2013-06-02T20:00:26Z</time>
      </trkpt>
      <trkpt lat="59.9522848" lon="17.6749634">
        <ele>29.4575</ele>
        <time>2013-06-02T20:00:27Z</time>
      </trkpt>
      <trkpt lat="59.9523005" lon="17.6750381">
        <ele>29.9381</ele>
        <time>2013-06-02T20:00:28Z</time>
      </trkpt>
      <trkpt lat="59.9523165" lon="17.6751092">
        <ele>28.9769</ele>
        <time>2013-06-02T20:00:29Z</time>
      </trkpt>
      <trkpt lat="59.9523311" lon="17.6751776">
        <ele>28.9769</ele>
        <time>2013-06-02T20:00:30Z</time>
      </trkpt>
      <trkpt lat="59.9523471" lon="17.6752495">
        <ele>28.4962</ele>
        <time>2013-06-02T20:00:31Z</time>
      </trkpt>
      <trkpt lat="59.9523663" lon="17.6753253">
        <ele>28.4962</ele>
        <time>2013-06-02T20:00:32Z</time>
      </trkpt>
      <trkpt lat="59.9523895" lon="17.6754039">
        <ele>28.4962</ele>
        <time>2013-06-02T20:00:33Z</time>
      </trkpt>
      <trkpt lat="59.952421" lon="17.6754859">
        <ele>28.9769</ele>
        <time>2013-06-02T20:00:34Z</time>
      </trkpt>
      <trkpt lat="59.9524537" lon="17.6755716">
        <ele>28.4962</ele>
        <time>2013-06-02T20:00:35Z</time>
      </trkpt>
      <trkpt lat="59.9524895" lon="17.6756622">
        <ele>28.4962</ele>
        <time>2013-06-02T20:00:36Z</time>
      </trkpt>
      <trkpt lat="59.9525295" lon="17.6757573">
        <ele>28.0155</ele>
        <time>2013-06-02T20:00:37Z</time>
      </trkpt>
      <trkpt lat="59.9525725" lon="17.675858">
        <ele>27.5349</ele>
        <time>2013-06-02T20:00:38Z</time>
      </trkpt>
      <trkpt lat="59.9526144" lon="17.6759689">
        <ele>27.5349</ele>
        <time>2013-06-02T20:00:39Z</time>
      </trkpt>
      <trkpt lat="59.9526565" lon="17.6760851">
        <ele>27.0543</ele>
        <time>2013-06-02T20:00:40Z</time>
      </trkpt>
      <trkpt lat="59.9526983" lon="17.6762048">
        <ele>27.0543</ele>
        <time>2013-06-02T20:00:41Z</time>
      </trkpt>
      <trkpt lat="59.9527367" lon="17.6763245">
        <ele>26.5736</ele>
        <time>2013-06-02T20:00:42Z</time>
      </trkpt>
      <trkpt lat="59.9527774" lon="17.6764389">
        <ele>26.5736</ele>
        <time>2013-06-02T20:00:43Z</time>
      </trkpt>
      <trkpt lat="59.9528205" lon="17.6765517">
        <ele>26.5736</ele>
        <time>2013-06-02T20:00:44Z</time>
      </trkpt>
      <trkpt lat="59.9528646" lon="17.6766647">
        <ele>26.5736</ele>
        <time>2013-06-02T20:00:45Z</time>
      </trkpt>
      <trkpt lat="59.9529087" lon="17.6767787">
        <ele>26.0929</ele>
        <time>2013-06-02T20:00:46Z</time>
      </trkpt>
      <trkpt lat="59.9529486" lon="17.6768902">
        <ele>25.6123</ele>
        <time>2013-06-02T20:00:47Z</time>
      </trkpt>
      <trkpt lat="59.9529921" lon="17.6770057">
        <ele>25.6123</ele>
        <time>2013-06-02T20:00:48Z</time>
      </trkpt>
      <trkpt lat="59.9530361" lon="17.67712">
        <ele>25.1317</ele>
        <time>2013-06-02T20:00:49Z</time>
      </trkpt>
      <trkpt lat="59.9530791" lon="17.6772355">
        <ele>25.1317</ele>
        <time>2013-06-02T20:00:50Z</time>
      </trkpt>
      <trkpt lat="59.9531196" lon="17.6773489">
        <ele>25.1317</ele>
        <time>2013-06-02T20:00:51Z</time>
      </trkpt>
      <trkpt lat="59.9531608" lon="17.6774614">
        <ele>25.1317</ele>
        <time>2013-06-02T20:00:52Z</time>
      </trkpt>
      <trkpt lat="59.9532024" lon="17.6775742">
        <ele>25.1317</ele>
        <time>2013-06-02T20:00:53Z</time>
      </trkpt>
      <trkpt lat="59.9532423" lon="17.6776904">
        <ele>25.1317</ele>
        <time>2013-06-02T20:00:54Z</time>
      </trkpt>
      <trkpt lat="59.9532812" lon="17.677808">
        <ele>25.1317</ele>
        <time>2013-06-02T20:00:55Z</time>
      </trkpt>
      <trkpt lat="59.9533253" lon="17.6779275">
        <ele>25.1317</ele>
        <time>2013-06-02T20:00:56Z</time>
      </trkpt>
      <trkpt lat="59.9533701" lon="17.6780451">
        <ele>25.6123</ele>
        <time>2013-06-02T20:00:57Z</time>
      </trkpt>
      <trkpt lat="59.9534109" lon="17.6781609">
        <ele>25.6123</ele>
        <time>2013-06-02T20:00:58Z</time>
      </trkpt>
      <trkpt lat="59.9534495" lon="17.6782785">
        <ele>26.0929</ele>
        <time>2013-06-02T20:00:59Z</time>
      </trkpt>
      <trkpt lat="59.9534856" lon="17.6783974">
        <ele>26.0929</ele>
        <time>2013-06-02T20:01:00Z</time>
      </trkpt>
      <trkpt lat="59.9535244" lon="17.6785166">
        <ele>26.0929</ele>
        <time>2013-06-02T20:01:01Z</time>
      </trkpt>
      <trkpt lat="59.953565" lon="17.6786353">
        <ele>26.0929</ele>
        <time>2013-06-02T20:01:02Z</time>
      </trkpt>
      <trkpt lat="59.9536073" lon="17.6787553">
        <ele>26.5736</ele>
        <time>2013-06-02T20:01:03Z</time>
      </trkpt>
      <trkpt lat="59.9536493" lon="17.678876">
        <ele>26.5736</ele>
        <time>2013-06-02T20:01:04Z</time>
      </trkpt>
      <trkpt lat="59.9536898" lon="17.6789994">
        <ele>26.0929</ele>
        <time>2013-06-02T20:01:05Z</time>
      </trkpt>
      <trkpt lat="59.9537296" lon="17.6791262">
        <ele>25.6123</ele>
        <time>2013-06-02T20:01:06Z</time>
      </trkpt>
      <trkpt lat="59.9537701" lon="17.6792536">
        <ele>25.6123</ele>
        <time>2013-06-02T20:01:07Z</time>
      </trkpt>
      <trkpt lat="59.9538113" lon="17.679382">
        <ele>25.6123</ele>
        <time>2013-06-02T20:01:08Z</time>
      </trkpt>
      <trkpt lat="59.9538545" lon="17.6795107">
        <ele>25.6123</ele>
        <time>2013-06-02T20:01:09Z</time>
      </trkpt>
      <trkpt lat="59.9538991" lon="17.6796389">
        <ele>25.6123</ele>
        <time>2013-06-02T20:01:10Z</time>
      </trkpt>
      <trkpt lat="59.9539436" lon="17.6797698">
        <ele>25.6123</ele>
        <time>2013-06-02T20:01:11Z</time>
      </trkpt>
      <trkpt lat="59.9539893" lon="17.6799026">
        <ele>26.0929</ele>
        <time>2013-06-02T20:01:12Z</time>
      </trkpt>
      <trkpt lat="59.9540353" lon="17.6800365">
        <ele>26.0929</ele>
        <time>2013-06-02T20:01:13Z</time>
      </trkpt>
      <trkpt lat="59.9540808" lon="17.6801717">
        <ele>26.0929</ele>
        <time>2013-06-02T20:01:14Z</time>
      </trkpt>
      <trkpt lat="59.9541279" lon="17.6803108">
        <ele>26.0929</ele>
        <time>2013-06-02T20:01:15Z</time>
      </trkpt>
      <trkpt lat="59.9541761" lon="17.6804477">
        <ele>26.0929</ele>
        <time>2013-06-02T20:01:16Z</time>
      </trkpt>
      <trkpt lat="59.9542254" lon="17.6805834">
        <ele>26.0929</ele>
        <time>2013-06-02T20:01:17Z</time>
      </trkpt>
      <trkpt lat="59.9542715" lon="17.6807192">
        <ele>26.5736</ele>
        <time>2013-06-02T20:01:18Z</time>
      </trkpt>
      <trkpt lat="59.9543165" lon="17.6808571">
        <ele>26.5736</ele>
        <time>2013-06-02T20:01:19Z</time>
      </trkpt>
      <trkpt lat="59.9543601" lon="17.6809965">
        <ele>26.5736</ele>
        <time>2013-06-02T20:01:20Z</time>
      </trkpt>
      <trkpt lat="59.954403" lon="17.6811378">
        <ele>26.5736</ele>
        <time>2013-06-02T20:01:21Z</time>
      </trkpt>
      <trkpt lat="59.9544461" lon="17.6812741">
        <ele>26.5736</ele>
        <time>2013-06-02T20:01:22Z</time>
      </trkpt>
      <trkpt lat="59.9544901" lon="17.6814039">
        <ele>27.0543</ele>
        <time>2013-06-02T20:01:23Z</time>
      </trkpt>
      <trkpt lat="59.9545343" lon="17.6815294">
        <ele>27.0543</ele>
        <time>2013-06-02T20:01:24Z</time>
      </trkpt>
      <trkpt lat="59.9545786" lon="17.6816506">
        <ele>27.0543</ele>
        <time>2013-06-02T20:01:25Z</time>
      </trkpt>
      <trkpt lat="59.9546253" lon="17.6817675">
        <ele>27.0543</ele>
        <time>2013-06-02T20:01:26Z</time>
      </trkpt>
      <trkpt lat="59.9546756" lon="17.6818722">
        <ele>26.5736</ele>
        <time>2013-06-02T20:01:27Z</time>
      </trkpt>
      <trkpt lat="59.9547352" lon="17.6819557">
        <ele>27.0543</ele>
        <time>2013-06-02T20:01:28Z</time>
      </trkpt>
      <trkpt lat="59.9547935" lon="17.6820395">
        <ele>27.0543</ele>
        <time>2013-06-02T20:01:29Z</time>
      </trkpt>
      <trkpt lat="59.954842" lon="17.6821421">
        <ele>27.0543</ele>
        <time>2013-06-02T20:01:30Z</time>
      </trkpt>
      <trkpt lat="59.9548802" lon="17.6822555">
        <ele>27.0543</ele>
        <time>2013-06-02T20:01:31Z</time>
      </trkpt>
      <trkpt lat="59.9549139" lon="17.6823733">
        <ele>27.0543</ele>
        <time>2013-06-02T20:01:32Z</time>
      </trkpt>
      <trkpt lat="59.9549479" lon="17.6824939">
        <ele>27.0543</ele>
        <time>2013-06-02T20:01:33Z</time>
      </trkpt>
      <trkpt lat="59.9549822" lon="17.6826146">
        <ele>27.0543</ele>
        <time>2013-06-02T20:01:34Z</time>
      </trkpt>
      <trkpt lat="59.9550169" lon="17.6827364">
        <ele>26.5736</ele>
        <time>2013-06-02T20:01:35Z</time>
      </trkpt>
      <trkpt lat="59.9550516" lon="17.6828591">
        <ele>27.0543</ele>
        <time>2013-06-02T20:01:36Z</time>
      </trkpt>
      <trkpt lat="59.9550848" lon="17.6829825">
        <ele>26.5736</ele>
        <time>2013-06-02T20:01:37Z</time>
      </trkpt>
      <trkpt lat="59.9551162" lon="17.6831078">
        <ele>26.5736</ele>
        <time>2013-06-02T20:01:38Z</time>
      </trkpt>
      <trkpt lat="59.9551506" lon="17.6832352">
        <ele>27.0543</ele>
        <time>2013-06-02T20:01:39Z</time>
      </trkpt>
      <trkpt lat="59.9551837" lon="17.683363">
        <ele>27.0543</ele>
        <time>2013-06-02T20:01:40Z</time>
      </trkpt>
      <trkpt lat="59.9552189" lon="17.6834911">
        <ele>27.0543</ele>
        <time>2013-06-02T20:01:41Z</time>
      </trkpt>
      <trkpt lat="59.9552556" lon="17.6836216">
        <ele>27.5349</ele>
        <time>2013-06-02T20:01:42Z</time>
      </trkpt>
      <trkpt lat="59.9552888" lon="17.6837549">
        <ele>28.0155</ele>
        <time>2013-06-02T20:01:43Z</time>
      </trkpt>
      <trkpt lat="59.9553184" lon="17.6838894">
        <ele>28.4962</ele>
        <time>2013-06-02T20:01:44Z</time>
      </trkpt>
      <trkpt lat="59.9553459" lon="17.6840235">
        <ele>28.4962</ele>
        <time>2013-06-02T20:01:45Z</time>
      </trkpt>
      <trkpt lat="59.9553706" lon="17.6841583">
        <ele>28.9769</ele>
        <time>2013-06-02T20:01:46Z</time>
      </trkpt>
      <trkpt lat="59.9553935" lon="17.684294">
        <ele>29.4575</ele>
        <time>2013-06-02T20:01:47Z</time>
      </trkpt>
      <trkpt lat="59.9554165" lon="17.6844293">
        <ele>29.4575</ele>
        <time>2013-06-02T20:01:48Z</time>
      </trkpt>
      <trkpt lat="59.95544" lon="17.6845648">
        <ele>29.9381</ele>
        <time>2013-06-02T20:01:49Z</time>
      </trkpt>
      <trkpt lat="59.9554648" lon="17.6846995">
        <ele>29.9381</ele>
        <time>2013-06-02T20:01:50Z</time>
      </trkpt>
      <trkpt lat="59.9554898" lon="17.6848331">
        <ele>30.4188</ele>
        <time>2013-06-02T20:01:51Z</time>
      </trkpt>
      <trkpt lat="59.9555126" lon="17.6849682">
        <ele>30.4188</ele>
        <time>2013-06-02T20:01:52Z</time>
      </trkpt>
      <trkpt lat="59.9555339" lon="17.6851036">
        <ele>30.8995</ele>
        <time>2013-06-02T20:01:53Z</time>
      </trkpt>
      <trkpt lat="59.9555541" lon="17.6852382">
        <ele>30.8995</ele>
        <time>2013-06-02T20:01:54Z</time>
      </trkpt>
      <trkpt lat="59.9555733" lon="17.6853736">
        <ele>30.8995</ele>
        <time>2013-06-02T20:01:55Z</time>
      </trkpt>
      <trkpt lat="59.9555914" lon="17.6855124">
        <ele>31.3801</ele>
        <time>2013-06-02T20:01:56Z</time>
      </trkpt>
      <trkpt lat="59.9556058" lon="17.6856554">
        <ele>31.3801</ele>
        <time>2013-06-02T20:01:57Z</time>
      </trkpt>
      <trkpt lat="59.95562" lon="17.6857993">
        <ele>31.3801</ele>
        <time>2013-06-02T20:01:58Z</time>
      </trkpt>
      <trkpt lat="59.9556379" lon="17.6859416">
        <ele>31.3801</ele>
        <time>2013-06-02T20:01:59Z</time>
      </trkpt>
      <trkpt lat="59.9556571" lon="17.6860836">
        <ele>31.8607</ele>
        <time>2013-06-02T20:02:00Z</time>
      </trkpt>
      <trkpt lat="59.955677" lon="17.6862267">
        <ele>31.8607</ele>
        <time>2013-06-02T20:02:01Z</time>
      </trkpt>
      <trkpt lat="59.9556966" lon="17.68637">
        <ele>31.8607</ele>
        <time>2013-06-02T20:02:02Z</time>
      </trkpt>
      <trkpt lat="59.9557173" lon="17.6865116">
        <ele>31.8607</ele>
        <time>2013-06-02T20:02:03Z</time>
      </trkpt>
      <trkpt lat="59.9557401" lon="17.6866499">
        <ele>32.3416</ele>
        <time>2013-06-02T20:02:04Z</time>
      </trkpt>
      <trkpt lat="59.9557624" lon="17.6867875">
        <ele>32.8223</ele>
        <time>2013-06-02T20:02:05Z</time>
      </trkpt>
      <trkpt lat="59.955783" lon="17.6869255">
        <ele>32.8223</ele>
        <time>2013-06-02T20:02:06Z</time>
      </trkpt>
      <trkpt lat="59.9558023" lon="17.6870638">
        <ele>32.8223</ele>
        <time>2013-06-02T20:02:07Z</time>
      </trkpt>
      <trkpt lat="59.9558199" lon="17.6872032">
        <ele>32.8223</ele>
        <time>2013-06-02T20:02:08Z</time>
      </trkpt>
      <trkpt lat="59.9558301" lon="17.6873599">
        <ele>32.8223</ele>
        <time>2013-06-02T20:02:09Z</time>
      </trkpt>
      <trkpt lat="59.9558473" lon="17.6875072">
        <ele>32.8223</ele>
        <time>2013-06-02T20:02:10Z</time>
      </trkpt>
      <trkpt lat="59.9558644" lon="17.6876624">
        <ele>32.8223</ele>
        <time>2013-06-02T20:02:11Z</time>
      </trkpt>
      <trkpt lat="59.955885" lon="17.6878123">
        <ele>32.8223</ele>
        <time>2013-06-02T20:02:12Z</time>
      </trkpt>
      <trkpt lat="59.9559089" lon="17.6879611">
        <ele>33.3029</ele>
        <time>2013-06-02T20:02:13Z</time>
      </trkpt>
      <trkpt lat="59.9559345" lon="17.6881107">
        <ele>33.7834</ele>
        <time>2013-06-02T20:02:14Z</time>
      </trkpt>
      <trkpt lat="59.955959" lon="17.6882594">
        <ele>33.3029</ele>
        <time>2013-06-02T20:02:15Z</time>
      </trkpt>
      <trkpt lat="59.9559825" lon="17.6884065">
        <ele>33.7834</ele>
        <time>2013-06-02T20:02:16Z</time>
      </trkpt>
      <trkpt lat="59.9560075" lon="17.6885514">
        <ele>34.2642</ele>
        <time>2013-06-02T20:02:17Z</time>
      </trkpt>
      <trkpt lat="59.9560349" lon="17.6886919">
        <ele>34.7449</ele>
        <time>2013-06-02T20:02:18Z</time>
      </trkpt>
      <trkpt lat="59.9560659" lon="17.6888198">
        <ele>35.2255</ele>
        <time>2013-06-02T20:02:19Z</time>
      </trkpt>
      <trkpt lat="59.9561" lon="17.6889364">
        <ele>36.6675</ele>
        <time>2013-06-02T20:02:20Z</time>
      </trkpt>
      <trkpt lat="59.9561331" lon="17.6890452">
        <ele>37.1481</ele>
        <time>2013-06-02T20:02:21Z</time>
      </trkpt>
      <trkpt lat="59.9561647" lon="17.6891518">
        <ele>37.1481</ele>
        <time>2013-06-02T20:02:22Z</time>
      </trkpt>
      <trkpt lat="59.9561908" lon="17.6892633">
        <ele>38.1094</ele>
        <time>2013-06-02T20:02:23Z</time>
      </trkpt>
      <trkpt lat="59.9562142" lon="17.6893879">
        <ele>38.1094</ele>
        <time>2013-06-02T20:02:24Z</time>
      </trkpt>
      <trkpt lat="59.9562401" lon="17.689501">
        <ele>38.5901</ele>
        <time>2013-06-02T20:02:25Z</time>
      </trkpt>
      <trkpt lat="59.9562643" lon="17.6896128">
        <ele>38.5901</ele>
        <time>2013-06-02T20:02:26Z</time>
      </trkpt>
      <trkpt lat="59.9562887" lon="17.6897243">
        <ele>37.6287</ele>
        <time>2013-06-02T20:02:27Z</time>
      </trkpt>
      <trkpt lat="59.9563146" lon="17.6898351">
        <ele>38.5901</ele>
        <time>2013-06-02T20:02:28Z</time>
      </trkpt>
      <trkpt lat="59.9563441" lon="17.6899423">
        <ele>38.5901</ele>
        <time>2013-06-02T20:02:29Z</time>
      </trkpt>
      <trkpt lat="59.9563742" lon="17.6900511">
        <ele>38.5901</ele>
        <time>2013-06-02T20:02:30Z</time>
      </trkpt>
      <trkpt lat="59.9564019" lon="17.6901548">
        <ele>37.6287</ele>
        <time>2013-06-02T20:02:31Z</time>
      </trkpt>
      <trkpt lat="59.9564316" lon="17.6902531">
        <ele>36.6675</ele>
        <time>2013-06-02T20:02:32Z</time>
      </trkpt>
      <trkpt lat="59.956462" lon="17.690347">
        <ele>37.6287</ele>
        <time>2013-06-02T20:02:33Z</time>
      </trkpt>
      <trkpt lat="59.9564955" lon="17.6904438">
        <ele>39.0707</ele>
        <time>2013-06-02T20:02:34Z</time>
      </trkpt>
      <trkpt lat="59.956534" lon="17.6905448">
        <ele>39.0707</ele>
        <time>2013-06-02T20:02:35Z</time>
      </trkpt>
      <trkpt lat="59.9565719" lon="17.6906546">
        <ele>39.5513</ele>
        <time>2013-06-02T20:02:36Z</time>
      </trkpt>
      <trkpt lat="59.9566138" lon="17.6907642">
        <ele>36.6675</ele>
        <time>2013-06-02T20:02:37Z</time>
      </trkpt>
      <trkpt lat="59.9566571" lon="17.6908789">
        <ele>36.6675</ele>
        <time>2013-06-02T20:02:38Z</time>
      </trkpt>
      <trkpt lat="59.9566982" lon="17.6909937">
        <ele>37.1481</ele>
        <time>2013-06-02T20:02:39Z</time>
      </trkpt>
      <trkpt lat="59.9567379" lon="17.69111">
        <ele>37.1481</ele>
        <time>2013-06-02T20:02:40Z</time>
      </trkpt>
      <trkpt lat="59.9567771" lon="17.6912266">
        <ele>37.6287</ele>
        <time>2013-06-02T20:02:41Z</time>
      </trkpt>
      <trkpt lat="59.9568163" lon="17.6913483">
        <ele>37.1481</ele>
        <time>2013-06-02T20:02:42Z</time>
      </trkpt>
      <trkpt lat="59.9568554" lon="17.6914747">
        <ele>36.6675</ele>
        <time>2013-06-02T20:02:43Z</time>
      </trkpt>
      <trkpt lat="59.9568954" lon="17.6916058">
        <ele>36.1868</ele>
        <time>2013-06-02T20:02:44Z</time>
      </trkpt>
      <trkpt lat="59.9569381" lon="17.6917409">
        <ele>36.1868</ele>
        <time>2013-06-02T20:02:45Z</time>
      </trkpt>
      <trkpt lat="59.9569787" lon="17.6918776">
        <ele>35.7061</ele>
        <time>2013-06-02T20:02:46Z</time>
      </trkpt>
      <trkpt lat="59.9570192" lon="17.6920138">
        <ele>34.7449</ele>
        <time>2013-06-02T20:02:47Z</time>
      </trkpt>
      <trkpt lat="59.9570717" lon="17.6921507">
        <ele>35.7061</ele>
        <time>2013-06-02T20:02:48Z</time>
      </trkpt>
      <trkpt lat="59.957123" lon="17.692289">
        <ele>36.6675</ele>
        <time>2013-06-02T20:02:49Z</time>
      </trkpt>
      <trkpt lat="59.9571741" lon="17.6924174">
        <ele>37.1481</ele>
        <time>2013-06-02T20:02:50Z</time>
      </trkpt>
      <trkpt lat="59.9572298" lon="17.6925488">
        <ele>38.1094</ele>
        <time>2013-06-02T20:02:51Z</time>
      </trkpt>
      <trkpt lat="59.9572723" lon="17.6926838">
        <ele>35.7061</ele>
        <time>2013-06-02T20:02:52Z</time>
      </trkpt>
      <trkpt lat="59.9573154" lon="17.6928199">
        <ele>33.7834</ele>
        <time>2013-06-02T20:02:53Z</time>
      </trkpt>
      <trkpt lat="59.9573567" lon="17.6929562">
        <ele>30.4188</ele>
        <time>2013-06-02T20:02:54Z</time>
      </trkpt>
      <trkpt lat="59.9573975" lon="17.6930919">
        <ele>27.5349</ele>
        <time>2013-06-02T20:02:55Z</time>
      </trkpt>
      <trkpt lat="59.9574371" lon="17.6932276">
        <ele>25.1317</ele>
        <time>2013-06-02T20:02:56Z</time>
      </trkpt>
      <trkpt lat="59.9574766" lon="17.6933618">
        <ele>24.1703</ele>
        <time>2013-06-02T20:02:57Z</time>
      </trkpt>
      <trkpt lat="59.9575179" lon="17.6934934">
        <ele>23.209</ele>
        <time>2013-06-02T20:02:58Z</time>
      </trkpt>
      <trkpt lat="59.9575577" lon="17.6936234">
        <ele>20.8057</ele>
        <time>2013-06-02T20:02:59Z</time>
      </trkpt>
      <trkpt lat="59.9575976" lon="17.6937612">
        <ele>19.8444</ele>
        <time>2013-06-02T20:03:00Z</time>
      </trkpt>
      <trkpt lat="59.9576431" lon="17.6938892">
        <ele>18.4023</ele>
        <time>2013-06-02T20:03:01Z</time>
      </trkpt>
      <trkpt lat="59.957677" lon="17.6940154">
        <ele>17.4412</ele>
        <time>2013-06-02T20:03:02Z</time>
      </trkpt>
      <trkpt lat="59.957714" lon="17.6941408">
        <ele>16.4797</ele>
        <time>2013-06-02T20:03:03Z</time>
      </trkpt>
      <trkpt lat="59.9577511" lon="17.6942657">
        <ele>15.0377</ele>
        <time>2013-06-02T20:03:04Z</time>
      </trkpt>
      <trkpt lat="59.9577883" lon="17.6943885">
        <ele>14.0764</ele>
        <time>2013-06-02T20:03:05Z</time>
      </trkpt>
      <trkpt lat="59.9578261" lon="17.6945095">
        <ele>12.6344</ele>
        <time>2013-06-02T20:03:06Z</time>
      </trkpt>
      <trkpt lat="59.9579142" lon="17.6946308">
        <ele>16.4797</ele>
        <time>2013-06-02T20:03:07Z</time>
      </trkpt>
      <trkpt lat="59.9579585" lon="17.6947504">
        <ele>15.999</ele>
        <time>2013-06-02T20:03:08Z</time>
      </trkpt>
      <trkpt lat="59.9580005" lon="17.6948714">
        <ele>15.999</ele>
        <time>2013-06-02T20:03:09Z</time>
      </trkpt>
      <trkpt lat="59.9580582" lon="17.6949935">
        <ele>17.4412</ele>
        <time>2013-06-02T20:03:10Z</time>
      </trkpt>
      <trkpt lat="59.9581078" lon="17.6951137">
        <ele>17.9218</ele>
        <time>2013-06-02T20:03:11Z</time>
      </trkpt>
      <trkpt lat="59.9581607" lon="17.6952343">
        <ele>19.3638</ele>
        <time>2013-06-02T20:03:12Z</time>
      </trkpt>
      <trkpt lat="59.9582105" lon="17.6953546">
        <ele>19.8444</ele>
        <time>2013-06-02T20:03:13Z</time>
      </trkpt>
      <trkpt lat="59.9582597" lon="17.6954747">
        <ele>20.8057</ele>
        <time>2013-06-02T20:03:14Z</time>
      </trkpt>
      <trkpt lat="59.9583106" lon="17.6955916">
        <ele>21.2864</ele>
        <time>2013-06-02T20:03:15Z</time>
      </trkpt>
      <trkpt lat="59.9583592" lon="17.6957047">
        <ele>21.767</ele>
        <time>2013-06-02T20:03:16Z</time>
      </trkpt>
      <trkpt lat="59.9584057" lon="17.695818">
        <ele>21.767</ele>
        <time>2013-06-02T20:03:17Z</time>
      </trkpt>
      <trkpt lat="59.9584533" lon="17.695933">
        <ele>21.767</ele>
        <time>2013-06-02T20:03:18Z</time>
      </trkpt>
      <trkpt lat="59.9585006" lon="17.6960519">
        <ele>22.2476</ele>
        <time>2013-06-02T20:03:19Z</time>
      </trkpt>
      <trkpt lat="59.9585482" lon="17.6961751">
        <ele>22.7283</ele>
        <time>2013-06-02T20:03:20Z</time>
      </trkpt>
      <trkpt lat="59.9585948" lon="17.6962978">
        <ele>22.2476</ele>
        <time>2013-06-02T20:03:21Z</time>
      </trkpt>
      <trkpt lat="59.9586429" lon="17.696423">
        <ele>23.209</ele>
        <time>2013-06-02T20:03:22Z</time>
      </trkpt>
      <trkpt lat="59.9586881" lon="17.6965471">
        <ele>23.6896</ele>
        <time>2013-06-02T20:03:23Z</time>
      </trkpt>
      <trkpt lat="59.9587271" lon="17.696677">
        <ele>24.1703</ele>
        <time>2013-06-02T20:03:24Z</time>
      </trkpt>
      <trkpt lat="59.9587627" lon="17.6968102">
        <ele>24.1703</ele>
        <time>2013-06-02T20:03:25Z</time>
      </trkpt>
      <trkpt lat="59.9587949" lon="17.6969459">
        <ele>24.1703</ele>
        <time>2013-06-02T20:03:26Z</time>
      </trkpt>
      <trkpt lat="59.9588285" lon="17.6970847">
        <ele>25.6123</ele>
        <time>2013-06-02T20:03:27Z</time>
      </trkpt>
      <trkpt lat="59.958858" lon="17.6972262">
        <ele>26.5736</ele>
        <time>2013-06-02T20:03:28Z</time>
      </trkpt>
      <trkpt lat="59.9588834" lon="17.6973678">
        <ele>26.5736</ele>
        <time>2013-06-02T20:03:29Z</time>
      </trkpt>
      <trkpt lat="59.9589051" lon="17.6975064">
        <ele>26.5736</ele>
        <time>2013-06-02T20:03:30Z</time>
      </trkpt>
      <trkpt lat="59.9589257" lon="17.6976429">
        <ele>27.0543</ele>
        <time>2013-06-02T20:03:31Z</time>
      </trkpt>
      <trkpt lat="59.9589438" lon="17.6977764">
        <ele>27.0543</ele>
        <time>2013-06-02T20:03:32Z</time>
      </trkpt>
      <trkpt lat="59.9589663" lon="17.6979073">
        <ele>28.0155</ele>
        <time>2013-06-02T20:03:33Z</time>
      </trkpt>
      <trkpt lat="59.9589791" lon="17.6980373">
        <ele>28.0155</ele>
        <time>2013-06-02T20:03:34Z</time>
      </trkpt>
      <trkpt lat="59.9589879" lon="17.6981626">
        <ele>28.0155</ele>
        <time>2013-06-02T20:03:35Z</time>
      </trkpt>
      <trkpt lat="59.9590001" lon="17.6982883">
        <ele>29.4575</ele>
        <time>2013-06-02T20:03:36Z</time>
      </trkpt>
      <trkpt lat="59.9590102" lon="17.6984085">
        <ele>30.4188</ele>
        <time>2013-06-02T20:03:37Z</time>
      </trkpt>
      <trkpt lat="59.9590179" lon="17.6985243">
        <ele>31.3801</ele>
        <time>2013-06-02T20:03:38Z</time>
      </trkpt>
      <trkpt lat="59.9590226" lon="17.6986392">
        <ele>31.8607</ele>
        <time>2013-06-02T20:03:39Z</time>
      </trkpt>
      <trkpt lat="59.9590253" lon="17.6987546">
        <ele>31.8607</ele>
        <time>2013-06-02T20:03:40Z</time>
      </trkpt>
      <trkpt lat="59.9590269" lon="17.6988691">
        <ele>31.8607</ele>
        <time>2013-06-02T20:03:41Z</time>
      </trkpt>
      <trkpt lat="59.9590277" lon="17.6989837">
        <ele>31.8607</ele>
        <time>2013-06-02T20:03:42Z</time>
      </trkpt>
      <trkpt lat="59.9590257" lon="17.6991014">
        <ele>31.3801</ele>
        <time>2013-06-02T20:03:43Z</time>
      </trkpt>
      <trkpt lat="59.9590303" lon="17.6992225">
        <ele>31.3801</ele>
        <time>2013-06-02T20:03:44Z</time>
      </trkpt>
      <trkpt lat="59.9590372" lon="17.6993478">
        <ele>31.3801</ele>
        <time>2013-06-02T20:03:45Z</time>
      </trkpt>
      <trkpt lat="59.9590435" lon="17.6994773">
        <ele>31.3801</ele>
        <time>2013-06-02T20:03:46Z</time>
      </trkpt>
      <trkpt lat="59.9590507" lon="17.6996162">
        <ele>31.3801</ele>
        <time>2013-06-02T20:03:47Z</time>
      </trkpt>
      <trkpt lat="59.959059" lon="17.6997434">
        <ele>31.8607</ele>
        <time>2013-06-02T20:03:48Z</time>
      </trkpt>
      <trkpt lat="59.9590687" lon="17.6998686">
        <ele>32.3416</ele>
        <time>2013-06-02T20:03:49Z</time>
      </trkpt>
      <trkpt lat="59.9590796" lon="17.6999942">
        <ele>32.8223</ele>
        <time>2013-06-02T20:03:50Z</time>
      </trkpt>
      <trkpt lat="59.9590916" lon="17.7001205">
        <ele>33.3029</ele>
        <time>2013-06-02T20:03:51Z</time>
      </trkpt>
      <trkpt lat="59.9591056" lon="17.7002597">
        <ele>33.7834</ele>
        <time>2013-06-02T20:03:52Z</time>
      </trkpt>
      <trkpt lat="59.9591204" lon="17.7004011">
        <ele>34.2642</ele>
        <time>2013-06-02T20:03:53Z</time>
      </trkpt>
      <trkpt lat="59.9591349" lon="17.7005428">
        <ele>34.2642</ele>
        <time>2013-06-02T20:03:54Z</time>
      </trkpt>
      <trkpt lat="59.9591492" lon="17.7006822">
        <ele>34.7449</ele>
        <time>2013-06-02T20:03:55Z</time>
      </trkpt>
      <trkpt lat="59.9591617" lon="17.7008181">
        <ele>34.7449</ele>
        <time>2013-06-02T20:03:56Z</time>
      </trkpt>
      <trkpt lat="59.9591748" lon="17.7009512">
        <ele>34.7449</ele>
        <time>2013-06-02T20:03:57Z</time>
      </trkpt>
      <trkpt lat="59.9591873" lon="17.7010826">
        <ele>34.7449</ele>
        <time>2013-06-02T20:03:58Z</time>
      </trkpt>
      <trkpt lat="59.9591961" lon="17.7012136">
        <ele>33.7834</ele>
        <time>2013-06-02T20:03:59Z</time>
      </trkpt>
      <trkpt lat="59.9592062" lon="17.7013411">
        <ele>32.8223</ele>
        <time>2013-06-02T20:04:00Z</time>
      </trkpt>
      <trkpt lat="59.9592211" lon="17.7014654">
        <ele>32.3416</ele>
        <time>2013-06-02T20:04:01Z</time>
      </trkpt>
      <trkpt lat="59.9592366" lon="17.7015862">
        <ele>31.8607</ele>
        <time>2013-06-02T20:04:02Z</time>
      </trkpt>
      <trkpt lat="59.9592538" lon="17.7016966">
        <ele>30.8995</ele>
        <time>2013-06-02T20:04:03Z</time>
      </trkpt>
      <trkpt lat="59.9592743" lon="17.7018078">
        <ele>29.9381</ele>
        <time>2013-06-02T20:04:04Z</time>
      </trkpt>
      <trkpt lat="59.9592968" lon="17.7019234">
        <ele>28.9769</ele>
        <time>2013-06-02T20:04:05Z</time>
      </trkpt>
      <trkpt lat="59.9593166" lon="17.7020424">
        <ele>27.5349</ele>
        <time>2013-06-02T20:04:06Z</time>
      </trkpt>
      <trkpt lat="59.9593455" lon="17.7021632">
        <ele>27.0543</ele>
        <time>2013-06-02T20:04:07Z</time>
      </trkpt>
      <trkpt lat="59.9593812" lon="17.7022824">
        <ele>27.0543</ele>
        <time>2013-06-02T20:04:08Z</time>
      </trkpt>
      <trkpt lat="59.9594181" lon="17.7024017">
        <ele>26.5736</ele>
        <time>2013-06-02T20:04:09Z</time>
      </trkpt>
      <trkpt lat="59.9594543" lon="17.7025198">
        <ele>26.0929</ele>
        <time>2013-06-02T20:04:10Z</time>
      </trkpt>
      <trkpt lat="59.959491" lon="17.7026398">
        <ele>25.6123</ele>
        <time>2013-06-02T20:04:11Z</time>
      </trkpt>
      <trkpt lat="59.9595295" lon="17.7027635">
        <ele>25.1317</ele>
        <time>2013-06-02T20:04:12Z</time>
      </trkpt>
      <trkpt lat="59.9595668" lon="17.7028885">
        <ele>25.1317</ele>
        <time>2013-06-02T20:04:13Z</time>
      </trkpt>
      <trkpt lat="59.9595981" lon="17.7030141">
        <ele>24.651</ele>
        <time>2013-06-02T20:04:14Z</time>
      </trkpt>
      <trkpt lat="59.9596324" lon="17.7031403">
        <ele>24.1703</ele>
        <time>2013-06-02T20:04:15Z</time>
      </trkpt>
      <trkpt lat="59.9596759" lon="17.7032713">
        <ele>24.651</ele>
        <time>2013-06-02T20:04:16Z</time>
      </trkpt>
      <trkpt lat="59.9597267" lon="17.7034096">
        <ele>25.1317</ele>
        <time>2013-06-02T20:04:17Z</time>
      </trkpt>
      <trkpt lat="59.9597776" lon="17.703551">
        <ele>25.6123</ele>
        <time>2013-06-02T20:04:18Z</time>
      </trkpt>
      <trkpt lat="59.9598515" lon="17.703685">
        <ele>25.6123</ele>
        <time>2013-06-02T20:04:19Z</time>
      </trkpt>
      <trkpt lat="59.959911" lon="17.7038385">
        <ele>25.6123</ele>
        <time>2013-06-02T20:04:20Z</time>
      </trkpt>
      <trkpt lat="59.9599666" lon="17.7039777">
        <ele>26.5736</ele>
        <time>2013-06-02T20:04:21Z</time>
      </trkpt>
      <trkpt lat="59.9600086" lon="17.7040909">
        <ele>25.6123</ele>
        <time>2013-06-02T20:04:22Z</time>
      </trkpt>
      <trkpt lat="59.9600525" lon="17.7042051">
        <ele>25.1317</ele>
        <time>2013-06-02T20:04:23Z</time>
      </trkpt>
      <trkpt lat="59.9600998" lon="17.7043026">
        <ele>24.1703</ele>
        <time>2013-06-02T20:04:24Z</time>
      </trkpt>
      <trkpt lat="59.9601499" lon="17.7043895">
        <ele>24.1703</ele>
        <time>2013-06-02T20:04:25Z</time>
      </trkpt>
      <trkpt lat="59.9602027" lon="17.7044751">
        <ele>23.209</ele>
        <time>2013-06-02T20:04:26Z</time>
      </trkpt>
      <trkpt lat="59.9602617" lon="17.7045609">
        <ele>21.767</ele>
        <time>2013-06-02T20:04:27Z</time>
      </trkpt>
      <trkpt lat="59.9603329" lon="17.7046412">
        <ele>22.2476</ele>
        <time>2013-06-02T20:04:28Z</time>
      </trkpt>
      <trkpt lat="59.9604142" lon="17.7047196">
        <ele>24.1703</ele>
        <time>2013-06-02T20:04:29Z</time>
      </trkpt>
      <trkpt lat="59.9604923" lon="17.7047974">
        <ele>25.1317</ele>
        <time>2013-06-02T20:04:30Z</time>
      </trkpt>
      <trkpt lat="59.9605503" lon="17.7048751">
        <ele>24.651</ele>
        <time>2013-06-02T20:04:31Z</time>
      </trkpt>
      <trkpt lat="59.9606085" lon="17.7049539">
        <ele>23.6896</ele>
        <time>2013-06-02T20:04:32Z</time>
      </trkpt>
      <trkpt lat="59.9606788" lon="17.7050341">
        <ele>24.651</ele>
        <time>2013-06-02T20:04:33Z</time>
      </trkpt>
      <trkpt lat="59.9607467" lon="17.7051136">
        <ele>25.1317</ele>
        <time>2013-06-02T20:04:34Z</time>
      </trkpt>
      <trkpt lat="59.9608198" lon="17.7051972">
        <ele>26.5736</ele>
        <time>2013-06-02T20:04:35Z</time>
      </trkpt>
      <trkpt lat="59.9608979" lon="17.7052786">
        <ele>28.0155</ele>
        <time>2013-06-02T20:04:36Z</time>
      </trkpt>
      <trkpt lat="59.960961" lon="17.705367">
        <ele>28.0155</ele>
        <time>2013-06-02T20:04:37Z</time>
      </trkpt>
      <trkpt lat="59.9610241" lon="17.7054618">
        <ele>28.0155</ele>
        <time>2013-06-02T20:04:38Z</time>
      </trkpt>
      <trkpt lat="59.9610792" lon="17.7055656">
        <ele>26.5736</ele>
        <time>2013-06-02T20:04:39Z</time>
      </trkpt>
      <trkpt lat="59.9611337" lon="17.7056768">
        <ele>25.1317</ele>
        <time>2013-06-02T20:04:40Z</time>
      </trkpt>
      <trkpt lat="59.9611916" lon="17.7057876">
        <ele>24.651</ele>
        <time>2013-06-02T20:04:41Z</time>
      </trkpt>
      <trkpt lat="59.9612481" lon="17.7058955">
        <ele>23.6896</ele>
        <time>2013-06-02T20:04:42Z</time>
      </trkpt>
      <trkpt lat="59.9613071" lon="17.7060002">
        <ele>24.1703</ele>
        <time>2013-06-02T20:04:43Z</time>
      </trkpt>
      <trkpt lat="59.9613672" lon="17.7060994">
        <ele>24.651</ele>
        <time>2013-06-02T20:04:44Z</time>
      </trkpt>
      <trkpt lat="59.9614247" lon="17.7061999">
        <ele>25.6123</ele>
        <time>2013-06-02T20:04:45Z</time>
      </trkpt>
      <trkpt lat="59.9614733" lon="17.7063021">
        <ele>24.1703</ele>
        <time>2013-06-02T20:04:46Z</time>
      </trkpt>
      <trkpt lat="59.9615266" lon="17.7063954">
        <ele>23.6896</ele>
        <time>2013-06-02T20:04:47Z</time>
      </trkpt>
      <trkpt lat="59.9615834" lon="17.7064794">
        <ele>23.6896</ele>
        <time>2013-06-02T20:04:48Z</time>
      </trkpt>
      <trkpt lat="59.9616439" lon="17.7065627">
        <ele>23.209</ele>
        <time>2013-06-02T20:04:49Z</time>
      </trkpt>
      <trkpt lat="59.9617038" lon="17.7066428">
        <ele>23.209</ele>
        <time>2013-06-02T20:04:50Z</time>
      </trkpt>
      <trkpt lat="59.9617677" lon="17.7067141">
        <ele>23.209</ele>
        <time>2013-06-02T20:04:51Z</time>
      </trkpt>
      <trkpt lat="59.9618341" lon="17.7067793">
        <ele>23.209</ele>
        <time>2013-06-02T20:04:52Z</time>
      </trkpt>
      <trkpt lat="59.9619027" lon="17.7068348">
        <ele>23.209</ele>
        <time>2013-06-02T20:04:53Z</time>
      </trkpt>
      <trkpt lat="59.961971" lon="17.7068848">
        <ele>23.209</ele>
        <time>2013-06-02T20:04:54Z</time>
      </trkpt>
      <trkpt lat="59.9620396" lon="17.7069305">
        <ele>23.209</ele>
        <time>2013-06-02T20:04:55Z</time>
      </trkpt>
      <trkpt lat="59.9621096" lon="17.7069739">
        <ele>23.209</ele>
        <time>2013-06-02T20:04:56Z</time>
      </trkpt>
      <trkpt lat="59.9621795" lon="17.7070149">
        <ele>23.6896</ele>
        <time>2013-06-02T20:04:57Z</time>
      </trkpt>
      <trkpt lat="59.9622534" lon="17.707042">
        <ele>23.6896</ele>
        <time>2013-06-02T20:04:58Z</time>
      </trkpt>
      <trkpt lat="59.9623318" lon="17.7070741">
        <ele>25.1317</ele>
        <time>2013-06-02T20:04:59Z</time>
      </trkpt>
      <trkpt lat="59.9623975" lon="17.707109">
        <ele>21.2864</ele>
        <time>2013-06-02T20:05:00Z</time>
      </trkpt>
      <trkpt lat="59.9624665" lon="17.7071367">
        <ele>18.4023</ele>
        <time>2013-06-02T20:05:01Z</time>
      </trkpt>
      <trkpt lat="59.9625348" lon="17.7071719">
        <ele>15.999</ele>
        <time>2013-06-02T20:05:02Z</time>
      </trkpt>
      <trkpt lat="59.962604" lon="17.7071997">
        <ele>14.0764</ele>
        <time>2013-06-02T20:05:03Z</time>
      </trkpt>
      <trkpt lat="59.962666" lon="17.7072222">
        <ele>11.6732</ele>
        <time>2013-06-02T20:05:04Z</time>
      </trkpt>
      <trkpt lat="59.9627304" lon="17.7072386">
        <ele>9.2699</ele>
        <time>2013-06-02T20:05:05Z</time>
      </trkpt>
      <trkpt lat="59.9627991" lon="17.7072473">
        <ele>8.78918</ele>
        <time>2013-06-02T20:05:06Z</time>
      </trkpt>
      <trkpt lat="59.9628779" lon="17.7072574">
        <ele>8.78918</ele>
        <time>2013-06-02T20:05:07Z</time>
      </trkpt>
      <trkpt lat="59.9629586" lon="17.7072677">
        <ele>8.30859</ele>
        <time>2013-06-02T20:05:08Z</time>
      </trkpt>
      <trkpt lat="59.9630385" lon="17.707276">
        <ele>7.82788</ele>
        <time>2013-06-02T20:05:09Z</time>
      </trkpt>
      <trkpt lat="59.9631206" lon="17.7072812">
        <ele>7.82788</ele>
        <time>2013-06-02T20:05:10Z</time>
      </trkpt>
      <trkpt lat="59.9632023" lon="17.7072857">
        <ele>7.34717</ele>
        <time>2013-06-02T20:05:11Z</time>
      </trkpt>
      <trkpt lat="59.9632857" lon="17.707286">
        <ele>6.86646</ele>
        <time>2013-06-02T20:05:12Z</time>
      </trkpt>
      <trkpt lat="59.9633625" lon="17.7072884">
        <ele>5.90527</ele>
        <time>2013-06-02T20:05:13Z</time>
      </trkpt>
      <trkpt lat="59.9634362" lon="17.7072979">
        <ele>5.42456</ele>
        <time>2013-06-02T20:05:14Z</time>
      </trkpt>
      <trkpt lat="59.9635078" lon="17.7073055">
        <ele>3.98267</ele>
        <time>2013-06-02T20:05:15Z</time>
      </trkpt>
      <trkpt lat="59.9635811" lon="17.7073105">
        <ele>3.50195</ele>
        <time>2013-06-02T20:05:16Z</time>
      </trkpt>
      <trkpt lat="59.9636601" lon="17.7073132">
        <ele>4.46326</ele>
        <time>2013-06-02T20:05:17Z</time>
      </trkpt>
      <trkpt lat="59.9637377" lon="17.7073142">
        <ele>4.46326</ele>
        <time>2013-06-02T20:05:18Z</time>
      </trkpt>
      <trkpt lat="59.9638142" lon="17.7073149">
        <ele>4.94385</ele>
        <time>2013-06-02T20:05:19Z</time>
      </trkpt>
      <trkpt lat="59.9638898" lon="17.7073164">
        <ele>4.94385</ele>
        <time>2013-06-02T20:05:20Z</time>
      </trkpt>
      <trkpt lat="59.963965" lon="17.7073163">
        <ele>5.90527</ele>
        <time>2013-06-02T20:05:21Z</time>
      </trkpt>
      <trkpt lat="59.9640361" lon="17.7073216">
        <ele>5.42456</ele>
        <time>2013-06-02T20:05:22Z</time>
      </trkpt>
      <trkpt lat="59.9641122" lon="17.7073283">
        <ele>5.90527</ele>
        <time>2013-06-02T20:05:23Z</time>
      </trkpt>
      <trkpt lat="59.9642001" lon="17.7073538">
        <ele>8.78918</ele>
        <time>2013-06-02T20:05:24Z</time>
      </trkpt>
      <trkpt lat="59.964278" lon="17.7073791">
        <ele>8.78918</ele>
        <time>2013-06-02T20:05:25Z</time>
      </trkpt>
      <trkpt lat="59.9643556" lon="17.7074066">
        <ele>9.2699</ele>
        <time>2013-06-02T20:05:26Z</time>
      </trkpt>
      <trkpt lat="59.964439" lon="17.7074401">
        <ele>13.1151</ele>
        <time>2013-06-02T20:05:27Z</time>
      </trkpt>
      <trkpt lat="59.9645139" lon="17.707477">
        <ele>13.5958</ele>
        <time>2013-06-02T20:05:28Z</time>
      </trkpt>
      <trkpt lat="59.9645887" lon="17.7075143">
        <ele>13.5958</ele>
        <time>2013-06-02T20:05:29Z</time>
      </trkpt>
      <trkpt lat="59.9646597" lon="17.7075569">
        <ele>14.0764</ele>
        <time>2013-06-02T20:05:30Z</time>
      </trkpt>
      <trkpt lat="59.9647329" lon="17.7076022">
        <ele>14.0764</ele>
        <time>2013-06-02T20:05:31Z</time>
      </trkpt>
      <trkpt lat="59.9648046" lon="17.70765">
        <ele>13.5958</ele>
        <time>2013-06-02T20:05:32Z</time>
      </trkpt>
      <trkpt lat="59.9648777" lon="17.7077001">
        <ele>14.0764</ele>
        <time>2013-06-02T20:05:33Z</time>
      </trkpt>
      <trkpt lat="59.9649511" lon="17.7077506">
        <ele>14.0764</ele>
        <time>2013-06-02T20:05:34Z</time>
      </trkpt>
      <trkpt lat="59.9650249" lon="17.7078002">
        <ele>13.5958</ele>
        <time>2013-06-02T20:05:35Z</time>
      </trkpt>
      <trkpt lat="59.9650953" lon="17.7078562">
        <ele>13.5958</ele>
        <time>2013-06-02T20:05:36Z</time>
      </trkpt>
      <trkpt lat="59.9651674" lon="17.7079156">
        <ele>13.5958</ele>
        <time>2013-06-02T20:05:37Z</time>
      </trkpt>
      <trkpt lat="59.9652404" lon="17.7079783">
        <ele>13.5958</ele>
        <time>2013-06-02T20:05:38Z</time>
      </trkpt>
      <trkpt lat="59.9653135" lon="17.7080453">
        <ele>13.5958</ele>
        <time>2013-06-02T20:05:39Z</time>
      </trkpt>
      <trkpt lat="59.9653859" lon="17.7081152">
        <ele>13.1151</ele>
        <time>2013-06-02T20:05:40Z</time>
      </trkpt>
      <trkpt lat="59.9654586" lon="17.7081877">
        <ele>13.1151</ele>
        <time>2013-06-02T20:05:41Z</time>
      </trkpt>
      <trkpt lat="59.9655305" lon="17.7082683">
        <ele>13.1151</ele>
        <time>2013-06-02T20:05:42Z</time>
      </trkpt>
      <trkpt lat="59.9655999" lon="17.7083595">
        <ele>13.1151</ele>
        <time>2013-06-02T20:05:43Z</time>
      </trkpt>
      <trkpt lat="59.9656647" lon="17.7084612">
        <ele>13.1151</ele>
        <time>2013-06-02T20:05:44Z</time>
      </trkpt>
      <trkpt lat="59.9657262" lon="17.7085746">
        <ele>13.1151</ele>
        <time>2013-06-02T20:05:45Z</time>
      </trkpt>
      <trkpt lat="59.9657853" lon="17.7086996">
        <ele>13.5958</ele>
        <time>2013-06-02T20:05:46Z</time>
      </trkpt>
      <trkpt lat="59.9658444" lon="17.7088285">
        <ele>15.0377</ele>
        <time>2013-06-02T20:05:47Z</time>
      </trkpt>
      <trkpt lat="59.9658956" lon="17.7089637">
        <ele>15.999</ele>
        <time>2013-06-02T20:05:48Z</time>
      </trkpt>
      <trkpt lat="59.9659423" lon="17.7091026">
        <ele>16.4797</ele>
        <time>2013-06-02T20:05:49Z</time>
      </trkpt>
      <trkpt lat="59.9659894" lon="17.7092432">
        <ele>18.8831</ele>
        <time>2013-06-02T20:05:50Z</time>
      </trkpt>
      <trkpt lat="59.9660328" lon="17.7093812">
        <ele>18.8831</ele>
        <time>2013-06-02T20:05:51Z</time>
      </trkpt>
      <trkpt lat="59.9660739" lon="17.7095162">
        <ele>18.4023</ele>
        <time>2013-06-02T20:05:52Z</time>
      </trkpt>
      <trkpt lat="59.9661128" lon="17.7096515">
        <ele>18.4023</ele>
        <time>2013-06-02T20:05:53Z</time>
      </trkpt>
      <trkpt lat="59.966149" lon="17.7097869">
        <ele>18.4023</ele>
        <time>2013-06-02T20:05:54Z</time>
      </trkpt>
      <trkpt lat="59.9661843" lon="17.709921">
        <ele>20.325</ele>
        <time>2013-06-02T20:05:55Z</time>
      </trkpt>
      <trkpt lat="59.9662179" lon="17.710054">
        <ele>21.2864</ele>
        <time>2013-06-02T20:05:56Z</time>
      </trkpt>
      <trkpt lat="59.9662516" lon="17.7101867">
        <ele>21.2864</ele>
        <time>2013-06-02T20:05:57Z</time>
      </trkpt>
      <trkpt lat="59.9662902" lon="17.7103196">
        <ele>21.2864</ele>
        <time>2013-06-02T20:05:58Z</time>
      </trkpt>
      <trkpt lat="59.9663277" lon="17.710453">
        <ele>21.2864</ele>
        <time>2013-06-02T20:05:59Z</time>
      </trkpt>
      <trkpt lat="59.966365" lon="17.7105861">
        <ele>21.767</ele>
        <time>2013-06-02T20:06:00Z</time>
      </trkpt>
      <trkpt lat="59.9664027" lon="17.710719">
        <ele>22.2476</ele>
        <time>2013-06-02T20:06:01Z</time>
      </trkpt>
      <trkpt lat="59.9664503" lon="17.7108554">
        <ele>23.6896</ele>
        <time>2013-06-02T20:06:02Z</time>
      </trkpt>
      <trkpt lat="59.9664857" lon="17.7109838">
        <ele>23.6896</ele>
        <time>2013-06-02T20:06:03Z</time>
      </trkpt>
      <trkpt lat="59.9665204" lon="17.7111114">
        <ele>23.6896</ele>
        <time>2013-06-02T20:06:04Z</time>
      </trkpt>
      <trkpt lat="59.9665551" lon="17.7112379">
        <ele>23.6896</ele>
        <time>2013-06-02T20:06:05Z</time>
      </trkpt>
      <trkpt lat="59.9665898" lon="17.7113646">
        <ele>23.6896</ele>
        <time>2013-06-02T20:06:06Z</time>
      </trkpt>
      <trkpt lat="59.9666208" lon="17.711488">
        <ele>22.7283</ele>
        <time>2013-06-02T20:06:07Z</time>
      </trkpt>
      <trkpt lat="59.9666545" lon="17.7116124">
        <ele>21.767</ele>
        <time>2013-06-02T20:06:08Z</time>
      </trkpt>
      <trkpt lat="59.9666861" lon="17.7117439">
        <ele>20.8057</ele>
        <time>2013-06-02T20:06:09Z</time>
      </trkpt>
      <trkpt lat="59.9667173" lon="17.7118744">
        <ele>19.8444</ele>
        <time>2013-06-02T20:06:10Z</time>
      </trkpt>
      <trkpt lat="59.966754" lon="17.7119871">
        <ele>18.4023</ele>
        <time>2013-06-02T20:06:11Z</time>
      </trkpt>
      <trkpt lat="59.9667944" lon="17.7120944">
        <ele>16.4797</ele>
        <time>2013-06-02T20:06:12Z</time>
      </trkpt>
      <trkpt lat="59.9668362" lon="17.7122033">
        <ele>15.5184</ele>
        <time>2013-06-02T20:06:13Z</time>
      </trkpt>
      <trkpt lat="59.9668756" lon="17.7123162">
        <ele>14.557</ele>
        <time>2013-06-02T20:06:14Z</time>
      </trkpt>
      <trkpt lat="59.966918" lon="17.7124343">
        <ele>15.0377</ele>
        <time>2013-06-02T20:06:15Z</time>
      </trkpt>
      <trkpt lat="59.9669577" lon="17.7125551">
        <ele>15.999</ele>
        <time>2013-06-02T20:06:16Z</time>
      </trkpt>
      <trkpt lat="59.9669952" lon="17.7126789">
        <ele>16.4797</ele>
        <time>2013-06-02T20:06:17Z</time>
      </trkpt>
      <trkpt lat="59.9670282" lon="17.7128067">
        <ele>16.9604</ele>
        <time>2013-06-02T20:06:18Z</time>
      </trkpt>
      <trkpt lat="59.9670585" lon="17.7129351">
        <ele>17.4412</ele>
        <time>2013-06-02T20:06:19Z</time>
      </trkpt>
      <trkpt lat="59.9670864" lon="17.7130642">
        <ele>17.4412</ele>
        <time>2013-06-02T20:06:20Z</time>
      </trkpt>
      <trkpt lat="59.9671129" lon="17.7131948">
        <ele>17.4412</ele>
        <time>2013-06-02T20:06:21Z</time>
      </trkpt>
      <trkpt lat="59.9671392" lon="17.7133296">
        <ele>17.4412</ele>
        <time>2013-06-02T20:06:22Z</time>
      </trkpt>
      <trkpt lat="59.9671606" lon="17.7134705">
        <ele>16.4797</ele>
        <time>2013-06-02T20:06:23Z</time>
      </trkpt>
      <trkpt lat="59.9671836" lon="17.713616">
        <ele>15.5184</ele>
        <time>2013-06-02T20:06:24Z</time>
      </trkpt>
      <trkpt lat="59.9672067" lon="17.7137658">
        <ele>15.0377</ele>
        <time>2013-06-02T20:06:25Z</time>
      </trkpt>
      <trkpt lat="59.9672288" lon="17.713921">
        <ele>14.557</ele>
        <time>2013-06-02T20:06:26Z</time>
      </trkpt>
      <trkpt lat="59.9672524" lon="17.7140827">
        <ele>14.0764</ele>
        <time>2013-06-02T20:06:27Z</time>
      </trkpt>
      <trkpt lat="59.9672777" lon="17.7142519">
        <ele>13.5958</ele>
        <time>2013-06-02T20:06:28Z</time>
      </trkpt>
      <trkpt lat="59.9673073" lon="17.7144246">
        <ele>14.557</ele>
        <time>2013-06-02T20:06:29Z</time>
      </trkpt>
      <trkpt lat="59.9673332" lon="17.7145986">
        <ele>15.999</ele>
        <time>2013-06-02T20:06:30Z</time>
      </trkpt>
      <trkpt lat="59.9673589" lon="17.7147725">
        <ele>15.999</ele>
        <time>2013-06-02T20:06:31Z</time>
      </trkpt>
      <trkpt lat="59.9673938" lon="17.7149566">
        <ele>16.9604</ele>
        <time>2013-06-02T20:06:32Z</time>
      </trkpt>
      <trkpt lat="59.9674243" lon="17.7151327">
        <ele>17.4412</ele>
        <time>2013-06-02T20:06:33Z</time>
      </trkpt>
      <trkpt lat="59.9674522" lon="17.7152973">
        <ele>17.9218</ele>
        <time>2013-06-02T20:06:34Z</time>
      </trkpt>
      <trkpt lat="59.9674849" lon="17.7154627">
        <ele>18.8831</ele>
        <time>2013-06-02T20:06:35Z</time>
      </trkpt>
      <trkpt lat="59.9675102" lon="17.7156137">
        <ele>18.8831</ele>
        <time>2013-06-02T20:06:36Z</time>
      </trkpt>
      <trkpt lat="59.9675347" lon="17.7157527">
        <ele>18.4023</ele>
        <time>2013-06-02T20:06:37Z</time>
      </trkpt>
      <trkpt lat="59.9675585" lon="17.7158841">
        <ele>17.9218</ele>
        <time>2013-06-02T20:06:38Z</time>
      </trkpt>
      <trkpt lat="59.9675842" lon="17.7160092">
        <ele>17.4412</ele>
        <time>2013-06-02T20:06:39Z</time>
      </trkpt>
      <trkpt lat="59.9676135" lon="17.7161236">
        <ele>16.4797</ele>
        <time>2013-06-02T20:06:40Z</time>
      </trkpt>
      <trkpt lat="59.9676423" lon="17.7162272">
        <ele>15.5184</ele>
        <time>2013-06-02T20:06:41Z</time>
      </trkpt>
      <trkpt lat="59.9676714" lon="17.7163303">
        <ele>15.0377</ele>
        <time>2013-06-02T20:06:42Z</time>
      </trkpt>
      <trkpt lat="59.9676994" lon="17.7164306">
        <ele>14.0764</ele>
        <time>2013-06-02T20:06:43Z</time>
      </trkpt>
      <trkpt lat="59.9677304" lon="17.7165262">
        <ele>13.1151</ele>
        <time>2013-06-02T20:06:44Z</time>
      </trkpt>
      <trkpt lat="59.9677619" lon="17.7166167">
        <ele>12.6344</ele>
        <time>2013-06-02T20:06:45Z</time>
      </trkpt>
      <trkpt lat="59.9677964" lon="17.7167007">
        <ele>11.6732</ele>
        <time>2013-06-02T20:06:46Z</time>
      </trkpt>
      <trkpt lat="59.9678342" lon="17.7167759">
        <ele>11.1925</ele>
        <time>2013-06-02T20:06:47Z</time>
      </trkpt>
      <trkpt lat="59.9678741" lon="17.7168412">
        <ele>10.2312</ele>
        <time>2013-06-02T20:06:48Z</time>
      </trkpt>
      <trkpt lat="59.9679164" lon="17.716908">
        <ele>10.2312</ele>
        <time>2013-06-02T20:06:49Z</time>
      </trkpt>
      <trkpt lat="59.9679588" lon="17.7169696">
        <ele>10.7118</ele>
        <time>2013-06-02T20:06:50Z</time>
      </trkpt>
      <trkpt lat="59.9680232" lon="17.717038">
        <ele>13.1151</ele>
        <time>2013-06-02T20:06:51Z</time>
      </trkpt>
      <trkpt lat="59.9680739" lon="17.717094">
        <ele>14.0764</ele>
        <time>2013-06-02T20:06:52Z</time>
      </trkpt>
      <trkpt lat="59.9681189" lon="17.7171435">
        <ele>15.0377</ele>
        <time>2013-06-02T20:06:53Z</time>
      </trkpt>
      <trkpt lat="59.9681561" lon="17.7171826">
        <ele>14.557</ele>
        <time>2013-06-02T20:06:54Z</time>
      </trkpt>
      <trkpt lat="59.968191" lon="17.7172187">
        <ele>14.557</ele>
        <time>2013-06-02T20:06:55Z</time>
      </trkpt>
      <trkpt lat="59.9682237" lon="17.7172532">
        <ele>14.0764</ele>
        <time>2013-06-02T20:06:56Z</time>
      </trkpt>
      <trkpt lat="59.9682547" lon="17.7172834">
        <ele>13.1151</ele>
        <time>2013-06-02T20:06:57Z</time>
      </trkpt>
      <trkpt lat="59.9682814" lon="17.7173017">
        <ele>12.1538</ele>
        <time>2013-06-02T20:06:58Z</time>
      </trkpt>
      <trkpt lat="59.96831" lon="17.7173178">
        <ele>11.6732</ele>
        <time>2013-06-02T20:06:59Z</time>
      </trkpt>
      <trkpt lat="59.9683367" lon="17.7173232">
        <ele>11.6732</ele>
        <time>2013-06-02T20:07:00Z</time>
      </trkpt>
      <trkpt lat="59.9683744" lon="17.7173348">
        <ele>11.6732</ele>
        <time>2013-06-02T20:07:01Z</time>
      </trkpt>
      <trkpt lat="59.9684123" lon="17.7173496">
        <ele>11.6732</ele>
        <time>2013-06-02T20:07:02Z</time>
      </trkpt>
      <trkpt lat="59.9684543" lon="17.7173695">
        <ele>12.6344</ele>
        <time>2013-06-02T20:07:03Z</time>
      </trkpt>
      <trkpt lat="59.9684956" lon="17.7173775">
        <ele>12.6344</ele>
        <time>2013-06-02T20:07:04Z</time>
      </trkpt>
      <trkpt lat="59.9685468" lon="17.7173979">
        <ele>13.5958</ele>
        <time>2013-06-02T20:07:05Z</time>
      </trkpt>
      <trkpt lat="59.9686018" lon="17.7174186">
        <ele>15.0377</ele>
        <time>2013-06-02T20:07:06Z</time>
      </trkpt>
      <trkpt lat="59.9686611" lon="17.7174419">
        <ele>16.4797</ele>
        <time>2013-06-02T20:07:07Z</time>
      </trkpt>
      <trkpt lat="59.9687257" lon="17.7174597">
        <ele>17.9218</ele>
        <time>2013-06-02T20:07:08Z</time>
      </trkpt>
      <trkpt lat="59.9687888" lon="17.7174642">
        <ele>19.3638</ele>
        <time>2013-06-02T20:07:09Z</time>
      </trkpt>
      <trkpt lat="59.9688566" lon="17.7174444">
        <ele>20.8057</ele>
        <time>2013-06-02T20:07:10Z</time>
      </trkpt>
      <trkpt lat="59.9689241" lon="17.717415">
        <ele>21.767</ele>
        <time>2013-06-02T20:07:11Z</time>
      </trkpt>
      <trkpt lat="59.9689965" lon="17.717396">
        <ele>23.209</ele>
        <time>2013-06-02T20:07:12Z</time>
      </trkpt>
      <trkpt lat="59.9690671" lon="17.7174053">
        <ele>24.1703</ele>
        <time>2013-06-02T20:07:13Z</time>
      </trkpt>
      <trkpt lat="59.9691358" lon="17.7174275">
        <ele>24.651</ele>
        <time>2013-06-02T20:07:14Z</time>
      </trkpt>
      <trkpt lat="59.9692047" lon="17.7174575">
        <ele>25.1317</ele>
        <time>2013-06-02T20:07:15Z</time>
      </trkpt>
      <trkpt lat="59.9692719" lon="17.7174926">
        <ele>25.6123</ele>
        <time>2013-06-02T20:07:16Z</time>
      </trkpt>
      <trkpt lat="59.9693395" lon="17.7175279">
        <ele>26.0929</ele>
        <time>2013-06-02T20:07:17Z</time>
      </trkpt>
      <trkpt lat="59.9694068" lon="17.7175647">
        <ele>26.0929</ele>
        <time>2013-06-02T20:07:18Z</time>
      </trkpt>
      <trkpt lat="59.9694745" lon="17.7176045">
        <ele>26.0929</ele>
        <time>2013-06-02T20:07:19Z</time>
      </trkpt>
      <trkpt lat="59.9695424" lon="17.717647">
        <ele>26.5736</ele>
        <time>2013-06-02T20:07:20Z</time>
      </trkpt>
      <trkpt lat="59.9696096" lon="17.7176921">
        <ele>26.5736</ele>
        <time>2013-06-02T20:07:21Z</time>
      </trkpt>
      <trkpt lat="59.9696762" lon="17.7177404">
        <ele>27.0543</ele>
        <time>2013-06-02T20:07:22Z</time>
      </trkpt>
      <trkpt lat="59.9697434" lon="17.7177914">
        <ele>27.0543</ele>
        <time>2013-06-02T20:07:23Z</time>
      </trkpt>
      <trkpt lat="59.9698104" lon="17.7178443">
        <ele>27.0543</ele>
        <time>2013-06-02T20:07:24Z</time>
      </trkpt>
      <trkpt lat="59.9698791" lon="17.7179007">
        <ele>27.5349</ele>
        <time>2013-06-02T20:07:25Z</time>
      </trkpt>
      <trkpt lat="59.9699474" lon="17.7179605">
        <ele>28.0155</ele>
        <time>2013-06-02T20:07:26Z</time>
      </trkpt>
      <trkpt lat="59.9700157" lon="17.7180212">
        <ele>28.4962</ele>
        <time>2013-06-02T20:07:27Z</time>
      </trkpt>
      <trkpt lat="59.9700851" lon="17.7180794">
        <ele>28.4962</ele>
        <time>2013-06-02T20:07:28Z</time>
      </trkpt>
      <trkpt lat="59.970153" lon="17.718137">
        <ele>28.4962</ele>
        <time>2013-06-02T20:07:29Z</time>
      </trkpt>
      <trkpt lat="59.970219" lon="17.7181967">
        <ele>28.4962</ele>
        <time>2013-06-02T20:07:30Z</time>
      </trkpt>
      <trkpt lat="59.9702831" lon="17.7182552">
        <ele>28.4962</ele>
        <time>2013-06-02T20:07:31Z</time>
      </trkpt>
      <trkpt lat="59.970347" lon="17.7183137">
        <ele>28.4962</ele>
        <time>2013-06-02T20:07:32Z</time>
      </trkpt>
      <trkpt lat="59.9704102" lon="17.7183713">
        <ele>28.4962</ele>
        <time>2013-06-02T20:07:33Z</time>
      </trkpt>
      <trkpt lat="59.9704745" lon="17.7184273">
        <ele>28.4962</ele>
        <time>2013-06-02T20:07:34Z</time>
      </trkpt>
      <trkpt lat="59.9705396" lon="17.7184854">
        <ele>28.4962</ele>
        <time>2013-06-02T20:07:35Z</time>
      </trkpt>
      <trkpt lat="59.9706055" lon="17.7185459">
        <ele>28.9769</ele>
        <time>2013-06-02T20:07:36Z</time>
      </trkpt>
      <trkpt lat="59.9706718" lon="17.718607">
        <ele>28.9769</ele>
        <time>2013-06-02T20:07:37Z</time>
      </trkpt>
      <trkpt lat="59.9707379" lon="17.7186685">
        <ele>29.4575</ele>
        <time>2013-06-02T20:07:38Z</time>
      </trkpt>
      <trkpt lat="59.9708044" lon="17.7187306">
        <ele>29.4575</ele>
        <time>2013-06-02T20:07:39Z</time>
      </trkpt>
      <trkpt lat="59.970872" lon="17.7187935">
        <ele>29.4575</ele>
        <time>2013-06-02T20:07:40Z</time>
      </trkpt>
      <trkpt lat="59.9709402" lon="17.7188562">
        <ele>29.4575</ele>
        <time>2013-06-02T20:07:41Z</time>
      </trkpt>
      <trkpt lat="59.9710086" lon="17.7189194">
        <ele>29.4575</ele>
        <time>2013-06-02T20:07:42Z</time>
      </trkpt>
      <trkpt lat="59.9710787" lon="17.7189832">
        <ele>29.9381</ele>
        <time>2013-06-02T20:07:43Z</time>
      </trkpt>
      <trkpt lat="59.9711493" lon="17.7190457">
        <ele>29.9381</ele>
        <time>2013-06-02T20:07:44Z</time>
      </trkpt>
      <trkpt lat="59.9712187" lon="17.7191078">
        <ele>29.9381</ele>
        <time>2013-06-02T20:07:45Z</time>
      </trkpt>
      <trkpt lat="59.9712871" lon="17.7191704">
        <ele>29.9381</ele>
        <time>2013-06-02T20:07:46Z</time>
      </trkpt>
      <trkpt lat="59.9713553" lon="17.7192333">
        <ele>29.9381</ele>
        <time>2013-06-02T20:07:47Z</time>
      </trkpt>
      <trkpt lat="59.9714239" lon="17.7192975">
        <ele>29.9381</ele>
        <time>2013-06-02T20:07:48Z</time>
      </trkpt>
      <trkpt lat="59.9714927" lon="17.7193623">
        <ele>30.4188</ele>
        <time>2013-06-02T20:07:49Z</time>
      </trkpt>
      <trkpt lat="59.9715617" lon="17.719428">
        <ele>30.4188</ele>
        <time>2013-06-02T20:07:50Z</time>
      </trkpt>
      <trkpt lat="59.9716314" lon="17.7194942">
        <ele>30.4188</ele>
        <time>2013-06-02T20:07:51Z</time>
      </trkpt>
      <trkpt lat="59.9717026" lon="17.7195581">
        <ele>30.4188</ele>
        <time>2013-06-02T20:07:52Z</time>
      </trkpt>
      <trkpt lat="59.9717747" lon="17.7196211">
        <ele>30.8995</ele>
        <time>2013-06-02T20:07:53Z</time>
      </trkpt>
      <trkpt lat="59.9718467" lon="17.7196858">
        <ele>30.8995</ele>
        <time>2013-06-02T20:07:54Z</time>
      </trkpt>
      <trkpt lat="59.971918" lon="17.7197513">
        <ele>30.8995</ele>
        <time>2013-06-02T20:07:55Z</time>
      </trkpt>
      <trkpt lat="59.97199" lon="17.7198165">
        <ele>30.8995</ele>
        <time>2013-06-02T20:07:56Z</time>
      </trkpt>
      <trkpt lat="59.9720619" lon="17.7198818">
        <ele>31.3801</ele>
        <time>2013-06-02T20:07:57Z</time>
      </trkpt>
      <trkpt lat="59.9721342" lon="17.7199487">
        <ele>31.3801</ele>
        <time>2013-06-02T20:07:58Z</time>
      </trkpt>
      <trkpt lat="59.9722066" lon="17.720015">
        <ele>31.3801</ele>
        <time>2013-06-02T20:07:59Z</time>
      </trkpt>
      <trkpt lat="59.9722802" lon="17.7200821">
        <ele>31.8607</ele>
        <time>2013-06-02T20:08:00Z</time>
      </trkpt>
      <trkpt lat="59.9723537" lon="17.7201484">
        <ele>31.8607</ele>
        <time>2013-06-02T20:08:01Z</time>
      </trkpt>
      <trkpt lat="59.9724282" lon="17.7202147">
        <ele>32.3416</ele>
        <time>2013-06-02T20:08:02Z</time>
      </trkpt>
      <trkpt lat="59.9725012" lon="17.7202817">
        <ele>32.3416</ele>
        <time>2013-06-02T20:08:03Z</time>
      </trkpt>
      <trkpt lat="59.9725708" lon="17.7203495">
        <ele>31.8607</ele>
        <time>2013-06-02T20:08:04Z</time>
      </trkpt>
      <trkpt lat="59.9726391" lon="17.7204153">
        <ele>31.8607</ele>
        <time>2013-06-02T20:08:05Z</time>
      </trkpt>
      <trkpt lat="59.9727061" lon="17.7204806">
        <ele>31.3801</ele>
        <time>2013-06-02T20:08:06Z</time>
      </trkpt>
      <trkpt lat="59.9727724" lon="17.7205496">
        <ele>31.3801</ele>
        <time>2013-06-02T20:08:07Z</time>
      </trkpt>
      <trkpt lat="59.9728376" lon="17.7206215">
        <ele>31.3801</ele>
        <time>2013-06-02T20:08:08Z</time>
      </trkpt>
      <trkpt lat="59.9729021" lon="17.7206966">
        <ele>31.3801</ele>
        <time>2013-06-02T20:08:09Z</time>
      </trkpt>
      <trkpt lat="59.9729653" lon="17.7207783">
        <ele>30.8995</ele>
        <time>2013-06-02T20:08:10Z</time>
      </trkpt>
      <trkpt lat="59.9730269" lon="17.7208654">
        <ele>30.8995</ele>
        <time>2013-06-02T20:08:11Z</time>
      </trkpt>
      <trkpt lat="59.973091" lon="17.7209529">
        <ele>31.8607</ele>
        <time>2013-06-02T20:08:12Z</time>
      </trkpt>
      <trkpt lat="59.9731546" lon="17.7210423">
        <ele>32.3416</ele>
        <time>2013-06-02T20:08:13Z</time>
      </trkpt>
      <trkpt lat="59.9732172" lon="17.7211354">
        <ele>32.3416</ele>
        <time>2013-06-02T20:08:14Z</time>
      </trkpt>
      <trkpt lat="59.9732785" lon="17.7212342">
        <ele>32.8223</ele>
        <time>2013-06-02T20:08:15Z</time>
      </trkpt>
      <trkpt lat="59.9733384" lon="17.7213374">
        <ele>33.3029</ele>
        <time>2013-06-02T20:08:16Z</time>
      </trkpt>
      <trkpt lat="59.9733958" lon="17.7214446">
        <ele>33.3029</ele>
        <time>2013-06-02T20:08:17Z</time>
      </trkpt>
      <trkpt lat="59.9734507" lon="17.721555">
        <ele>33.7834</ele>
        <time>2013-06-02T20:08:18Z</time>
      </trkpt>
      <trkpt lat="59.9735035" lon="17.7216698">
        <ele>33.7834</ele>
        <time>2013-06-02T20:08:19Z</time>
      </trkpt>
      <trkpt lat="59.9735554" lon="17.7217886">
        <ele>33.7834</ele>
        <time>2013-06-02T20:08:20Z</time>
      </trkpt>
      <trkpt lat="59.9736067" lon="17.7219102">
        <ele>33.7834</ele>
        <time>2013-06-02T20:08:21Z</time>
      </trkpt>
      <trkpt lat="59.9736561" lon="17.7220341">
        <ele>33.7834</ele>
        <time>2013-06-02T20:08:22Z</time>
      </trkpt>
      <trkpt lat="59.9737042" lon="17.722162">
        <ele>33.7834</ele>
        <time>2013-06-02T20:08:23Z</time>
      </trkpt>
      <trkpt lat="59.9737498" lon="17.7222938">
        <ele>33.7834</ele>
        <time>2013-06-02T20:08:24Z</time>
      </trkpt>
      <trkpt lat="59.9737928" lon="17.7224293">
        <ele>34.2642</ele>
        <time>2013-06-02T20:08:25Z</time>
      </trkpt>
      <trkpt lat="59.9738341" lon="17.7225665">
        <ele>34.2642</ele>
        <time>2013-06-02T20:08:26Z</time>
      </trkpt>
      <trkpt lat="59.9738741" lon="17.7227061">
        <ele>33.7834</ele>
        <time>2013-06-02T20:08:27Z</time>
      </trkpt>
      <trkpt lat="59.9739123" lon="17.722848">
        <ele>33.7834</ele>
        <time>2013-06-02T20:08:28Z</time>
      </trkpt>
      <trkpt lat="59.9739492" lon="17.7229912">
        <ele>33.7834</ele>
        <time>2013-06-02T20:08:29Z</time>
      </trkpt>
      <trkpt lat="59.973984" lon="17.7231369">
        <ele>33.7834</ele>
        <time>2013-06-02T20:08:30Z</time>
      </trkpt>
      <trkpt lat="59.9740154" lon="17.7232846">
        <ele>33.7834</ele>
        <time>2013-06-02T20:08:31Z</time>
      </trkpt>
      <trkpt lat="59.9740446" lon="17.7234328">
        <ele>33.7834</ele>
        <time>2013-06-02T20:08:32Z</time>
      </trkpt>
      <trkpt lat="59.9740721" lon="17.7235821">
        <ele>33.7834</ele>
        <time>2013-06-02T20:08:33Z</time>
      </trkpt>
      <trkpt lat="59.9740947" lon="17.7237327">
        <ele>31.3801</ele>
        <time>2013-06-02T20:08:34Z</time>
      </trkpt>
      <trkpt lat="59.9741139" lon="17.7238855">
        <ele>29.9381</ele>
        <time>2013-06-02T20:08:35Z</time>
      </trkpt>
      <trkpt lat="59.9741325" lon="17.7240381">
        <ele>29.9381</ele>
        <time>2013-06-02T20:08:36Z</time>
      </trkpt>
      <trkpt lat="59.9741497" lon="17.7241868">
        <ele>28.9769</ele>
        <time>2013-06-02T20:08:37Z</time>
      </trkpt>
      <trkpt lat="59.9741673" lon="17.7243301">
        <ele>28.0155</ele>
        <time>2013-06-02T20:08:38Z</time>
      </trkpt>
      <trkpt lat="59.9741868" lon="17.7244681">
        <ele>27.5349</ele>
        <time>2013-06-02T20:08:39Z</time>
      </trkpt>
      <trkpt lat="59.9742071" lon="17.7246035">
        <ele>27.0543</ele>
        <time>2013-06-02T20:08:40Z</time>
      </trkpt>
      <trkpt lat="59.9742269" lon="17.7247387">
        <ele>26.5736</ele>
        <time>2013-06-02T20:08:41Z</time>
      </trkpt>
      <trkpt lat="59.9742461" lon="17.7248757">
        <ele>26.0929</ele>
        <time>2013-06-02T20:08:42Z</time>
      </trkpt>
      <trkpt lat="59.9742645" lon="17.7250144">
        <ele>25.6123</ele>
        <time>2013-06-02T20:08:43Z</time>
      </trkpt>
      <trkpt lat="59.9742827" lon="17.7251547">
        <ele>25.6123</ele>
        <time>2013-06-02T20:08:44Z</time>
      </trkpt>
      <trkpt lat="59.9743014" lon="17.7252967">
        <ele>25.6123</ele>
        <time>2013-06-02T20:08:45Z</time>
      </trkpt>
      <trkpt lat="59.9743191" lon="17.7254407">
        <ele>25.1317</ele>
        <time>2013-06-02T20:08:46Z</time>
      </trkpt>
      <trkpt lat="59.9743347" lon="17.7255855">
        <ele>25.1317</ele>
        <time>2013-06-02T20:08:47Z</time>
      </trkpt>
      <trkpt lat="59.974347" lon="17.7257307">
        <ele>25.1317</ele>
        <time>2013-06-02T20:08:48Z</time>
      </trkpt>
      <trkpt lat="59.974359" lon="17.7258772">
        <ele>25.1317</ele>
        <time>2013-06-02T20:08:49Z</time>
      </trkpt>
      <trkpt lat="59.9743698" lon="17.726025">
        <ele>25.6123</ele>
        <time>2013-06-02T20:08:50Z</time>
      </trkpt>
      <trkpt lat="59.9743769" lon="17.7261761">
        <ele>24.1703</ele>
        <time>2013-06-02T20:08:51Z</time>
      </trkpt>
      <trkpt lat="59.9743836" lon="17.726326">
        <ele>24.1703</ele>
        <time>2013-06-02T20:08:52Z</time>
      </trkpt>
      <trkpt lat="59.9743877" lon="17.7264787">
        <ele>23.6896</ele>
        <time>2013-06-02T20:08:53Z</time>
      </trkpt>
      <trkpt lat="59.9743938" lon="17.7266334">
        <ele>24.1703</ele>
        <time>2013-06-02T20:08:54Z</time>
      </trkpt>
      <trkpt lat="59.9744039" lon="17.7267957">
        <ele>24.651</ele>
        <time>2013-06-02T20:08:55Z</time>
      </trkpt>
      <trkpt lat="59.9744095" lon="17.7269474">
        <ele>25.6123</ele>
        <time>2013-06-02T20:08:56Z</time>
      </trkpt>
      <trkpt lat="59.9744147" lon="17.7270977">
        <ele>26.5736</ele>
        <time>2013-06-02T20:08:57Z</time>
      </trkpt>
      <trkpt lat="59.9744183" lon="17.7272499">
        <ele>26.5736</ele>
        <time>2013-06-02T20:08:58Z</time>
      </trkpt>
      <trkpt lat="59.9744216" lon="17.7274029">
        <ele>26.5736</ele>
        <time>2013-06-02T20:08:59Z</time>
      </trkpt>
      <trkpt lat="59.9744248" lon="17.7275572">
        <ele>26.5736</ele>
        <time>2013-06-02T20:09:00Z</time>
      </trkpt>
      <trkpt lat="59.9744282" lon="17.7277123">
        <ele>26.5736</ele>
        <time>2013-06-02T20:09:01Z</time>
      </trkpt>
      <trkpt lat="59.9744315" lon="17.7278688">
        <ele>26.5736</ele>
        <time>2013-06-02T20:09:02Z</time>
      </trkpt>
      <trkpt lat="59.9744351" lon="17.7280258">
        <ele>27.5349</ele>
        <time>2013-06-02T20:09:03Z</time>
      </trkpt>
      <trkpt lat="59.9744385" lon="17.728185">
        <ele>28.0155</ele>
        <time>2013-06-02T20:09:04Z</time>
      </trkpt>
      <trkpt lat="59.9744416" lon="17.7283485">
        <ele>28.0155</ele>
        <time>2013-06-02T20:09:05Z</time>
      </trkpt>
      <trkpt lat="59.9744461" lon="17.7285106">
        <ele>28.4962</ele>
        <time>2013-06-02T20:09:06Z</time>
      </trkpt>
      <trkpt lat="59.9744497" lon="17.7286709">
        <ele>28.0155</ele>
        <time>2013-06-02T20:09:07Z</time>
      </trkpt>
      <trkpt lat="59.9744543" lon="17.7288336">
        <ele>28.4962</ele>
        <time>2013-06-02T20:09:08Z</time>
      </trkpt>
      <trkpt lat="59.9744594" lon="17.728998">
        <ele>28.4962</ele>
        <time>2013-06-02T20:09:09Z</time>
      </trkpt>
      <trkpt lat="59.9744656" lon="17.7291614">
        <ele>28.4962</ele>
        <time>2013-06-02T20:09:10Z</time>
      </trkpt>
      <trkpt lat="59.9744706" lon="17.7293204">
        <ele>28.4962</ele>
        <time>2013-06-02T20:09:11Z</time>
      </trkpt>
      <trkpt lat="59.9744714" lon="17.7294791">
        <ele>28.4962</ele>
        <time>2013-06-02T20:09:12Z</time>
      </trkpt>
      <trkpt lat="59.9744677" lon="17.7296383">
        <ele>28.4962</ele>
        <time>2013-06-02T20:09:13Z</time>
      </trkpt>
      <trkpt lat="59.9744606" lon="17.7297964">
        <ele>28.9769</ele>
        <time>2013-06-02T20:09:14Z</time>
      </trkpt>
      <trkpt lat="59.9744521" lon="17.7299518">
        <ele>28.9769</ele>
        <time>2013-06-02T20:09:15Z</time>
      </trkpt>
      <trkpt lat="59.9744414" lon="17.7301037">
        <ele>29.4575</ele>
        <time>2013-06-02T20:09:16Z</time>
      </trkpt>
      <trkpt lat="59.9744294" lon="17.7302532">
        <ele>29.4575</ele>
        <time>2013-06-02T20:09:17Z</time>
      </trkpt>
      <trkpt lat="59.9744169" lon="17.730402">
        <ele>29.4575</ele>
        <time>2013-06-02T20:09:18Z</time>
      </trkpt>
      <trkpt lat="59.9744044" lon="17.7305521">
        <ele>29.9381</ele>
        <time>2013-06-02T20:09:19Z</time>
      </trkpt>
      <trkpt lat="59.9743921" lon="17.7307034">
        <ele>29.9381</ele>
        <time>2013-06-02T20:09:20Z</time>
      </trkpt>
      <trkpt lat="59.9743811" lon="17.7308569">
        <ele>29.9381</ele>
        <time>2013-06-02T20:09:21Z</time>
      </trkpt>
      <trkpt lat="59.9743714" lon="17.7310108">
        <ele>29.9381</ele>
        <time>2013-06-02T20:09:22Z</time>
      </trkpt>
      <trkpt lat="59.9743625" lon="17.7311646">
        <ele>29.9381</ele>
        <time>2013-06-02T20:09:23Z</time>
      </trkpt>
      <trkpt lat="59.9743539" lon="17.7313184">
        <ele>29.9381</ele>
        <time>2013-06-02T20:09:24Z</time>
      </trkpt>
      <trkpt lat="59.9743477" lon="17.7314745">
        <ele>29.9381</ele>
        <time>2013-06-02T20:09:25Z</time>
      </trkpt>
      <trkpt lat="59.9743448" lon="17.7316329">
        <ele>29.9381</ele>
        <time>2013-06-02T20:09:26Z</time>
      </trkpt>
      <trkpt lat="59.9743439" lon="17.7317932">
        <ele>29.9381</ele>
        <time>2013-06-02T20:09:27Z</time>
      </trkpt>
      <trkpt lat="59.9743447" lon="17.7319551">
        <ele>29.9381</ele>
        <time>2013-06-02T20:09:28Z</time>
      </trkpt>
      <trkpt lat="59.974347" lon="17.7321167">
        <ele>29.9381</ele>
        <time>2013-06-02T20:09:29Z</time>
      </trkpt>
      <trkpt lat="59.9743504" lon="17.7322767">
        <ele>29.9381</ele>
        <time>2013-06-02T20:09:30Z</time>
      </trkpt>
      <trkpt lat="59.9743538" lon="17.7324354">
        <ele>29.9381</ele>
        <time>2013-06-02T20:09:31Z</time>
      </trkpt>
      <trkpt lat="59.9743584" lon="17.7325944">
        <ele>29.9381</ele>
        <time>2013-06-02T20:09:32Z</time>
      </trkpt>
      <trkpt lat="59.9743631" lon="17.7327529">
        <ele>29.9381</ele>
        <time>2013-06-02T20:09:33Z</time>
      </trkpt>
      <trkpt lat="59.9743646" lon="17.7329118">
        <ele>29.4575</ele>
        <time>2013-06-02T20:09:34Z</time>
      </trkpt>
      <trkpt lat="59.9743621" lon="17.7330718">
        <ele>29.4575</ele>
        <time>2013-06-02T20:09:35Z</time>
      </trkpt>
      <trkpt lat="59.9743569" lon="17.7332294">
        <ele>29.4575</ele>
        <time>2013-06-02T20:09:36Z</time>
      </trkpt>
      <trkpt lat="59.97435" lon="17.7333887">
        <ele>29.4575</ele>
        <time>2013-06-02T20:09:37Z</time>
      </trkpt>
      <trkpt lat="59.974342" lon="17.733551">
        <ele>28.9769</ele>
        <time>2013-06-02T20:09:38Z</time>
      </trkpt>
      <trkpt lat="59.9743339" lon="17.7337135">
        <ele>28.9769</ele>
        <time>2013-06-02T20:09:39Z</time>
      </trkpt>
      <trkpt lat="59.9743257" lon="17.7338753">
        <ele>28.9769</ele>
        <time>2013-06-02T20:09:40Z</time>
      </trkpt>
      <trkpt lat="59.9743169" lon="17.7340365">
        <ele>28.9769</ele>
        <time>2013-06-02T20:09:41Z</time>
      </trkpt>
      <trkpt lat="59.9743087" lon="17.734198">
        <ele>28.4962</ele>
        <time>2013-06-02T20:09:42Z</time>
      </trkpt>
      <trkpt lat="59.9743034" lon="17.7343598">
        <ele>28.4962</ele>
        <time>2013-06-02T20:09:43Z</time>
      </trkpt>
      <trkpt lat="59.9743005" lon="17.7345224">
        <ele>28.4962</ele>
        <time>2013-06-02T20:09:44Z</time>
      </trkpt>
      <trkpt lat="59.9743005" lon="17.7346858">
        <ele>28.4962</ele>
        <time>2013-06-02T20:09:45Z</time>
      </trkpt>
      <trkpt lat="59.9743045" lon="17.734849">
        <ele>28.0155</ele>
        <time>2013-06-02T20:09:46Z</time>
      </trkpt>
      <trkpt lat="59.9743124" lon="17.7350068">
        <ele>28.4962</ele>
        <time>2013-06-02T20:09:47Z</time>
      </trkpt>
      <trkpt lat="59.9743232" lon="17.7351616">
        <ele>28.4962</ele>
        <time>2013-06-02T20:09:48Z</time>
      </trkpt>
      <trkpt lat="59.9743365" lon="17.7353126">
        <ele>28.9769</ele>
        <time>2013-06-02T20:09:49Z</time>
      </trkpt>
      <trkpt lat="59.9743516" lon="17.7354594">
        <ele>28.9769</ele>
        <time>2013-06-02T20:09:50Z</time>
      </trkpt>
      <trkpt lat="59.9743688" lon="17.7356025">
        <ele>28.9769</ele>
        <time>2013-06-02T20:09:51Z</time>
      </trkpt>
      <trkpt lat="59.9743894" lon="17.7357425">
        <ele>28.4962</ele>
        <time>2013-06-02T20:09:52Z</time>
      </trkpt>
      <trkpt lat="59.9744118" lon="17.7358791">
        <ele>28.4962</ele>
        <time>2013-06-02T20:09:53Z</time>
      </trkpt>
      <trkpt lat="59.9744356" lon="17.7360131">
        <ele>28.4962</ele>
        <time>2013-06-02T20:09:54Z</time>
      </trkpt>
      <trkpt lat="59.9744611" lon="17.7361458">
        <ele>28.4962</ele>
        <time>2013-06-02T20:09:55Z</time>
      </trkpt>
      <trkpt lat="59.9744884" lon="17.7362779">
        <ele>28.0155</ele>
        <time>2013-06-02T20:09:56Z</time>
      </trkpt>
      <trkpt lat="59.974519" lon="17.7364079">
        <ele>28.0155</ele>
        <time>2013-06-02T20:09:57Z</time>
      </trkpt>
      <trkpt lat="59.9745515" lon="17.7365351">
        <ele>27.5349</ele>
        <time>2013-06-02T20:09:58Z</time>
      </trkpt>
      <trkpt lat="59.9745858" lon="17.7366601">
        <ele>27.0543</ele>
        <time>2013-06-02T20:09:59Z</time>
      </trkpt>
      <trkpt lat="59.9746221" lon="17.7367832">
        <ele>27.0543</ele>
        <time>2013-06-02T20:10:00Z</time>
      </trkpt>
      <trkpt lat="59.9746607" lon="17.7369046">
        <ele>26.5736</ele>
        <time>2013-06-02T20:10:01Z</time>
      </trkpt>
      <trkpt lat="59.9747019" lon="17.7370237">
        <ele>26.0929</ele>
        <time>2013-06-02T20:10:02Z</time>
      </trkpt>
      <trkpt lat="59.9747454" lon="17.7371367">
        <ele>25.6123</ele>
        <time>2013-06-02T20:10:03Z</time>
      </trkpt>
      <trkpt lat="59.9747911" lon="17.7372408">
        <ele>25.6123</ele>
        <time>2013-06-02T20:10:04Z</time>
      </trkpt>
      <trkpt lat="59.9748364" lon="17.7373413">
        <ele>25.1317</ele>
        <time>2013-06-02T20:10:05Z</time>
      </trkpt>
      <trkpt lat="59.9748828" lon="17.7374395">
        <ele>25.6123</ele>
        <time>2013-06-02T20:10:06Z</time>
      </trkpt>
      <trkpt lat="59.9749301" lon="17.7375335">
        <ele>26.0929</ele>
        <time>2013-06-02T20:10:07Z</time>
      </trkpt>
      <trkpt lat="59.9749773" lon="17.7376236">
        <ele>26.5736</ele>
        <time>2013-06-02T20:10:08Z</time>
      </trkpt>
      <trkpt lat="59.9750244" lon="17.7377084">
        <ele>26.5736</ele>
        <time>2013-06-02T20:10:09Z</time>
      </trkpt>
      <trkpt lat="59.9750692" lon="17.7377913">
        <ele>26.5736</ele>
        <time>2013-06-02T20:10:10Z</time>
      </trkpt>
      <trkpt lat="59.9751142" lon="17.7378741">
        <ele>26.5736</ele>
        <time>2013-06-02T20:10:11Z</time>
      </trkpt>
      <trkpt lat="59.9751609" lon="17.7379567">
        <ele>26.5736</ele>
        <time>2013-06-02T20:10:12Z</time>
      </trkpt>
      <trkpt lat="59.9752086" lon="17.7380409">
        <ele>26.0929</ele>
        <time>2013-06-02T20:10:13Z</time>
      </trkpt>
      <trkpt lat="59.9752556" lon="17.7381271">
        <ele>26.0929</ele>
        <time>2013-06-02T20:10:14Z</time>
      </trkpt>
      <trkpt lat="59.9753068" lon="17.7382122">
        <ele>26.5736</ele>
        <time>2013-06-02T20:10:15Z</time>
      </trkpt>
      <trkpt lat="59.9753595" lon="17.7382961">
        <ele>26.5736</ele>
        <time>2013-06-02T20:10:16Z</time>
      </trkpt>
      <trkpt lat="59.9754113" lon="17.738382">
        <ele>26.0929</ele>
        <time>2013-06-02T20:10:17Z</time>
      </trkpt>
      <trkpt lat="59.975464" lon="17.7384711">
        <ele>25.6123</ele>
        <time>2013-06-02T20:10:18Z</time>
      </trkpt>
      <trkpt lat="59.9755167" lon="17.7385618">
        <ele>25.1317</ele>
        <time>2013-06-02T20:10:19Z</time>
      </trkpt>
      <trkpt lat="59.9755689" lon="17.7386524">
        <ele>25.1317</ele>
        <time>2013-06-02T20:10:20Z</time>
      </trkpt>
      <trkpt lat="59.9756211" lon="17.7387439">
        <ele>25.1317</ele>
        <time>2013-06-02T20:10:21Z</time>
      </trkpt>
      <trkpt lat="59.9756745" lon="17.738833">
        <ele>25.6123</ele>
        <time>2013-06-02T20:10:22Z</time>
      </trkpt>
      <trkpt lat="59.9757266" lon="17.7389228">
        <ele>26.0929</ele>
        <time>2013-06-02T20:10:23Z</time>
      </trkpt>
      <trkpt lat="59.9757778" lon="17.7390114">
        <ele>26.0929</ele>
        <time>2013-06-02T20:10:24Z</time>
      </trkpt>
      <trkpt lat="59.975828" lon="17.7390996">
        <ele>26.0929</ele>
        <time>2013-06-02T20:10:25Z</time>
      </trkpt>
      <trkpt lat="59.9758772" lon="17.7391839">
        <ele>26.0929</ele>
        <time>2013-06-02T20:10:26Z</time>
      </trkpt>
      <trkpt lat="59.9759254" lon="17.7392631">
        <ele>26.0929</ele>
        <time>2013-06-02T20:10:27Z</time>
      </trkpt>
      <trkpt lat="59.9759734" lon="17.7393404">
        <ele>26.0929</ele>
        <time>2013-06-02T20:10:28Z</time>
      </trkpt>
      <trkpt lat="59.9760206" lon="17.7394179">
        <ele>26.0929</ele>
        <time>2013-06-02T20:10:29Z</time>
      </trkpt>
      <trkpt lat="59.9760658" lon="17.739495">
        <ele>26.0929</ele>
        <time>2013-06-02T20:10:30Z</time>
      </trkpt>
      <trkpt lat="59.9761093" lon="17.7395683">
        <ele>26.5736</ele>
        <time>2013-06-02T20:10:31Z</time>
      </trkpt>
      <trkpt lat="59.9761518" lon="17.7396325">
        <ele>27.5349</ele>
        <time>2013-06-02T20:10:32Z</time>
      </trkpt>
      <trkpt lat="59.976192" lon="17.7396924">
        <ele>25.6123</ele>
        <time>2013-06-02T20:10:33Z</time>
      </trkpt>
      <trkpt lat="59.9762352" lon="17.7397405">
        <ele>24.1703</ele>
        <time>2013-06-02T20:10:34Z</time>
      </trkpt>
      <trkpt lat="59.9762668" lon="17.7397687">
        <ele>22.7283</ele>
        <time>2013-06-02T20:10:35Z</time>
      </trkpt>
      <trkpt lat="59.9762963" lon="17.7397884">
        <ele>21.2864</ele>
        <time>2013-06-02T20:10:36Z</time>
      </trkpt>
      <trkpt lat="59.9763301" lon="17.7398034">
        <ele>19.8444</ele>
        <time>2013-06-02T20:10:37Z</time>
      </trkpt>
      <trkpt lat="59.9763678" lon="17.7397994">
        <ele>19.3638</ele>
        <time>2013-06-02T20:10:38Z</time>
      </trkpt>
      <trkpt lat="59.9764082" lon="17.7397759">
        <ele>19.3638</ele>
        <time>2013-06-02T20:10:39Z</time>
      </trkpt>
      <trkpt lat="59.9764506" lon="17.7397401">
        <ele>18.8831</ele>
        <time>2013-06-02T20:10:40Z</time>
      </trkpt>
      <trkpt lat="59.976494" lon="17.7396861">
        <ele>18.4023</ele>
        <time>2013-06-02T20:10:41Z</time>
      </trkpt>
      <trkpt lat="59.9765406" lon="17.7396277">
        <ele>18.4023</ele>
        <time>2013-06-02T20:10:42Z</time>
      </trkpt>
      <trkpt lat="59.9765831" lon="17.739576">
        <ele>17.4412</ele>
        <time>2013-06-02T20:10:43Z</time>
      </trkpt>
      <trkpt lat="59.9766288" lon="17.7395361">
        <ele>17.9218</ele>
        <time>2013-06-02T20:10:44Z</time>
      </trkpt>
      <trkpt lat="59.9766765" lon="17.7395007">
        <ele>17.4412</ele>
        <time>2013-06-02T20:10:45Z</time>
      </trkpt>
      <trkpt lat="59.976722" lon="17.7394701">
        <ele>16.4797</ele>
        <time>2013-06-02T20:10:46Z</time>
      </trkpt>
      <trkpt lat="59.9767644" lon="17.7394455">
        <ele>15.5184</ele>
        <time>2013-06-02T20:10:47Z</time>
      </trkpt>
      <trkpt lat="59.9768103" lon="17.7394181">
        <ele>15.5184</ele>
        <time>2013-06-02T20:10:48Z</time>
      </trkpt>
      <trkpt lat="59.9768541" lon="17.7393973">
        <ele>15.0377</ele>
        <time>2013-06-02T20:10:49Z</time>
      </trkpt>
      <trkpt lat="59.9768951" lon="17.7393838">
        <ele>13.5958</ele>
        <time>2013-06-02T20:10:50Z</time>
      </trkpt>
      <trkpt lat="59.9769355" lon="17.739375">
        <ele>13.1151</ele>
        <time>2013-06-02T20:10:51Z</time>
      </trkpt>
      <trkpt lat="59.9769758" lon="17.7393583">
        <ele>11.6732</ele>
        <time>2013-06-02T20:10:52Z</time>
      </trkpt>
      <trkpt lat="59.9770177" lon="17.7393371">
        <ele>10.7118</ele>
        <time>2013-06-02T20:10:53Z</time>
      </trkpt>
      <trkpt lat="59.9770618" lon="17.7393091">
        <ele>10.2312</ele>
        <time>2013-06-02T20:10:54Z</time>
      </trkpt>
      <trkpt lat="59.977104" lon="17.7392793">
        <ele>9.2699</ele>
        <time>2013-06-02T20:10:55Z</time>
      </trkpt>
      <trkpt lat="59.9771484" lon="17.7392532">
        <ele>9.2699</ele>
        <time>2013-06-02T20:10:56Z</time>
      </trkpt>
      <trkpt lat="59.9771974" lon="17.7392227">
        <ele>9.75061</ele>
        <time>2013-06-02T20:10:57Z</time>
      </trkpt>
      <trkpt lat="59.9772397" lon="17.7392129">
        <ele>8.78918</ele>
        <time>2013-06-02T20:10:58Z</time>
      </trkpt>
      <trkpt lat="59.9772857" lon="17.7392051">
        <ele>8.78918</ele>
        <time>2013-06-02T20:10:59Z</time>
      </trkpt>
      <trkpt lat="59.9773317" lon="17.7391931">
        <ele>9.2699</ele>
        <time>2013-06-02T20:11:00Z</time>
      </trkpt>
      <trkpt lat="59.9773769" lon="17.7391817">
        <ele>8.78918</ele>
        <time>2013-06-02T20:11:01Z</time>
      </trkpt>
      <trkpt lat="59.9774266" lon="17.7391604">
        <ele>10.2312</ele>
        <time>2013-06-02T20:11:02Z</time>
      </trkpt>
      <trkpt lat="59.9774771" lon="17.739131">
        <ele>11.6732</ele>
        <time>2013-06-02T20:11:03Z</time>
      </trkpt>
      <trkpt lat="59.9775285" lon="17.7391056">
        <ele>13.5958</ele>
        <time>2013-06-02T20:11:04Z</time>
      </trkpt>
      <trkpt lat="59.9775715" lon="17.739085">
        <ele>14.557</ele>
        <time>2013-06-02T20:11:05Z</time>
      </trkpt>
      <trkpt lat="59.9776131" lon="17.7390821">
        <ele>15.0377</ele>
        <time>2013-06-02T20:11:06Z</time>
      </trkpt>
      <trkpt lat="59.9776543" lon="17.73909">
        <ele>15.0377</ele>
        <time>2013-06-02T20:11:07Z</time>
      </trkpt>
      <trkpt lat="59.9776938" lon="17.7391047">
        <ele>14.557</ele>
        <time>2013-06-02T20:11:08Z</time>
      </trkpt>
      <trkpt lat="59.9777312" lon="17.7391212">
        <ele>14.557</ele>
        <time>2013-06-02T20:11:09Z</time>
      </trkpt>
      <trkpt lat="59.9777698" lon="17.73914">
        <ele>14.557</ele>
        <time>2013-06-02T20:11:10Z</time>
      </trkpt>
      <trkpt lat="59.97781" lon="17.7391564">
        <ele>15.0377</ele>
        <time>2013-06-02T20:11:11Z</time>
      </trkpt>
      <trkpt lat="59.977853" lon="17.7391713">
        <ele>15.5184</ele>
        <time>2013-06-02T20:11:12Z</time>
      </trkpt>
      <trkpt lat="59.9778944" lon="17.7392005">
        <ele>15.999</ele>
        <time>2013-06-02T20:11:13Z</time>
      </trkpt>
      <trkpt lat="59.9779347" lon="17.7392268">
        <ele>16.9604</ele>
        <time>2013-06-02T20:11:14Z</time>
      </trkpt>
      <trkpt lat="59.9779732" lon="17.739257">
        <ele>16.9604</ele>
        <time>2013-06-02T20:11:15Z</time>
      </trkpt>
      <trkpt lat="59.9780145" lon="17.7392847">
        <ele>17.4412</ele>
        <time>2013-06-02T20:11:16Z</time>
      </trkpt>
      <trkpt lat="59.9780591" lon="17.7393039">
        <ele>20.325</ele>
        <time>2013-06-02T20:11:17Z</time>
      </trkpt>
      <trkpt lat="59.9781063" lon="17.739315">
        <ele>23.209</ele>
        <time>2013-06-02T20:11:18Z</time>
      </trkpt>
      <trkpt lat="59.9781552" lon="17.7393293">
        <ele>26.0929</ele>
        <time>2013-06-02T20:11:19Z</time>
      </trkpt>
      <trkpt lat="59.9782062" lon="17.739345">
        <ele>28.0155</ele>
        <time>2013-06-02T20:11:20Z</time>
      </trkpt>
      <trkpt lat="59.9782565" lon="17.7393609">
        <ele>28.9769</ele>
        <time>2013-06-02T20:11:21Z</time>
      </trkpt>
      <trkpt lat="59.9783031" lon="17.739377">
        <ele>29.4575</ele>
        <time>2013-06-02T20:11:22Z</time>
      </trkpt>
      <trkpt lat="59.9783533" lon="17.7393876">
        <ele>29.9381</ele>
        <time>2013-06-02T20:11:23Z</time>
      </trkpt>
      <trkpt lat="59.9784094" lon="17.7393963">
        <ele>30.8995</ele>
        <time>2013-06-02T20:11:24Z</time>
      </trkpt>
      <trkpt lat="59.9784662" lon="17.7394041">
        <ele>31.8607</ele>
        <time>2013-06-02T20:11:25Z</time>
      </trkpt>
      <trkpt lat="59.978523" lon="17.7394153">
        <ele>33.3029</ele>
        <time>2013-06-02T20:11:26Z</time>
      </trkpt>
      <trkpt lat="59.978574" lon="17.7394263">
        <ele>33.7834</ele>
        <time>2013-06-02T20:11:27Z</time>
      </trkpt>
      <trkpt lat="59.9786302" lon="17.7394351">
        <ele>34.7449</ele>
        <time>2013-06-02T20:11:28Z</time>
      </trkpt>
      <trkpt lat="59.9786904" lon="17.7394366">
        <ele>36.1868</ele>
        <time>2013-06-02T20:11:29Z</time>
      </trkpt>
      <trkpt lat="59.9787444" lon="17.7394367">
        <ele>35.7061</ele>
        <time>2013-06-02T20:11:30Z</time>
      </trkpt>
      <trkpt lat="59.9787998" lon="17.7394227">
        <ele>37.1481</ele>
        <time>2013-06-02T20:11:31Z</time>
      </trkpt>
    </trkseg>
  </trk>
</gpx>